<?xml version="1.0" encoding="UTF-8" standalone="no" ?>
<gpx xmlns="http://www.topografix.com/GPX/1/1" xmlns:xsi="http://www.w3.org/2001/XMLSchema-instance" xsi:schemaLocation="http://www.topografix.com/GPX/1/1 http://www.topografix.com/GPX/1/1/gpx.xsd" version="1.1" creator="VisuGPX - https://www.visugpx.com">
  <metadata>
    <name>descente à Montbrun</name>
  </metadata>
  <trk>
    <name><![CDATA[Vélovacances  Lyon Gréoux les bains]]></name>
    <extensions>
      <line xmlns="http://www.topografix.com/GPX/gpx_style/0/2">
        <color>0000FF</color>
        <width>4</width>
      </line>
    </extensions>
    <trkseg>
      <trkpt lat="45.77964" lon="4.81778">
        <ele>242.2</ele>
        <time>2019-04-15T02:48:14Z</time>
      </trkpt>
      <trkpt lat="45.77964" lon="4.81778">
        <ele>242.2</ele>
        <time>2019-04-15T02:48:18Z</time>
      </trkpt>
      <trkpt lat="45.77964" lon="4.81778">
        <ele>242.2</ele>
        <time>2019-04-15T02:48:22Z</time>
      </trkpt>
      <trkpt lat="45.77961" lon="4.81805">
        <ele>242.8</ele>
        <time>2019-04-15T02:48:26Z</time>
      </trkpt>
      <trkpt lat="45.77954" lon="4.8183">
        <ele>243.2</ele>
        <time>2019-04-15T02:48:30Z</time>
      </trkpt>
      <trkpt lat="45.77956" lon="4.81857">
        <ele>243.4</ele>
        <time>2019-04-15T02:48:34Z</time>
      </trkpt>
      <trkpt lat="45.77961" lon="4.81884">
        <ele>244.2</ele>
        <time>2019-04-15T02:48:38Z</time>
      </trkpt>
      <trkpt lat="45.77964" lon="4.81914">
        <ele>244.8</ele>
        <time>2019-04-15T02:48:42Z</time>
      </trkpt>
      <trkpt lat="45.77965" lon="4.81945">
        <ele>244.6</ele>
        <time>2019-04-15T02:48:46Z</time>
      </trkpt>
      <trkpt lat="45.77965" lon="4.81975">
        <ele>245.2</ele>
        <time>2019-04-15T02:48:50Z</time>
      </trkpt>
      <trkpt lat="45.77965" lon="4.82004">
        <ele>245.4</ele>
        <time>2019-04-15T02:48:54Z</time>
      </trkpt>
      <trkpt lat="45.77964" lon="4.82031">
        <ele>245.8</ele>
        <time>2019-04-15T02:48:58Z</time>
      </trkpt>
      <trkpt lat="45.77963" lon="4.82056">
        <ele>246.4</ele>
        <time>2019-04-15T02:49:02Z</time>
      </trkpt>
      <trkpt lat="45.77963" lon="4.82085">
        <ele>246.8</ele>
        <time>2019-04-15T02:49:06Z</time>
      </trkpt>
      <trkpt lat="45.77961" lon="4.82113">
        <ele>248.2</ele>
        <time>2019-04-15T02:49:10Z</time>
      </trkpt>
      <trkpt lat="45.77961" lon="4.82143">
        <ele>248.6</ele>
        <time>2019-04-15T02:49:14Z</time>
      </trkpt>
      <trkpt lat="45.77962" lon="4.82174">
        <ele>249.8</ele>
        <time>2019-04-15T02:49:18Z</time>
      </trkpt>
      <trkpt lat="45.77962" lon="4.82204">
        <ele>250.2</ele>
        <time>2019-04-15T02:49:22Z</time>
      </trkpt>
      <trkpt lat="45.77963" lon="4.82236">
        <ele>251.2</ele>
        <time>2019-04-15T02:49:26Z</time>
      </trkpt>
      <trkpt lat="45.77964" lon="4.82269">
        <ele>252.6</ele>
        <time>2019-04-15T02:49:30Z</time>
      </trkpt>
      <trkpt lat="45.77965" lon="4.82299">
        <ele>253.2</ele>
        <time>2019-04-15T02:49:34Z</time>
      </trkpt>
      <trkpt lat="45.77965" lon="4.8233">
        <ele>253.8</ele>
        <time>2019-04-15T02:49:38Z</time>
      </trkpt>
      <trkpt lat="45.77963" lon="4.82361">
        <ele>254.2</ele>
        <time>2019-04-15T02:49:42Z</time>
      </trkpt>
      <trkpt lat="45.77964" lon="4.82394">
        <ele>253.8</ele>
        <time>2019-04-15T02:49:46Z</time>
      </trkpt>
      <trkpt lat="45.77962" lon="4.82431">
        <ele>253.2</ele>
        <time>2019-04-15T02:49:50Z</time>
      </trkpt>
      <trkpt lat="45.77965" lon="4.82467">
        <ele>252.8</ele>
        <time>2019-04-15T02:49:54Z</time>
      </trkpt>
      <trkpt lat="45.77969" lon="4.825">
        <ele>252.4</ele>
        <time>2019-04-15T02:49:58Z</time>
      </trkpt>
      <trkpt lat="45.77972" lon="4.82536">
        <ele>252.4</ele>
        <time>2019-04-15T02:50:02Z</time>
      </trkpt>
      <trkpt lat="45.77972" lon="4.82574">
        <ele>252.2</ele>
        <time>2019-04-15T02:50:06Z</time>
      </trkpt>
      <trkpt lat="45.77969" lon="4.82614">
        <ele>251.6</ele>
        <time>2019-04-15T02:50:10Z</time>
      </trkpt>
      <trkpt lat="45.77965" lon="4.82655">
        <ele>251.4</ele>
        <time>2019-04-15T02:50:14Z</time>
      </trkpt>
      <trkpt lat="45.77967" lon="4.82694">
        <ele>251.4</ele>
        <time>2019-04-15T02:50:18Z</time>
      </trkpt>
      <trkpt lat="45.77971" lon="4.82723">
        <ele>250.6</ele>
        <time>2019-04-15T02:50:22Z</time>
      </trkpt>
      <trkpt lat="45.77966" lon="4.82739">
        <ele>250.6</ele>
        <time>2019-04-15T02:50:26Z</time>
      </trkpt>
      <trkpt lat="45.77966" lon="4.82765">
        <ele>250.2</ele>
        <time>2019-04-15T02:50:30Z</time>
      </trkpt>
      <trkpt lat="45.77968" lon="4.82798">
        <ele>250.6</ele>
        <time>2019-04-15T02:50:34Z</time>
      </trkpt>
      <trkpt lat="45.77968" lon="4.82833">
        <ele>251.8</ele>
        <time>2019-04-15T02:50:38Z</time>
      </trkpt>
      <trkpt lat="45.77968" lon="4.82864">
        <ele>252</ele>
        <time>2019-04-15T02:50:42Z</time>
      </trkpt>
      <trkpt lat="45.77966" lon="4.82889">
        <ele>252.2</ele>
        <time>2019-04-15T02:50:46Z</time>
      </trkpt>
      <trkpt lat="45.77963" lon="4.82911">
        <ele>252.8</ele>
        <time>2019-04-15T02:50:50Z</time>
      </trkpt>
      <trkpt lat="45.77964" lon="4.8294">
        <ele>253</ele>
        <time>2019-04-15T02:50:54Z</time>
      </trkpt>
      <trkpt lat="45.77965" lon="4.82972">
        <ele>253.4</ele>
        <time>2019-04-15T02:50:58Z</time>
      </trkpt>
      <trkpt lat="45.77966" lon="4.83004">
        <ele>253.8</ele>
        <time>2019-04-15T02:51:02Z</time>
      </trkpt>
      <trkpt lat="45.77968" lon="4.83038">
        <ele>254.8</ele>
        <time>2019-04-15T02:51:06Z</time>
      </trkpt>
      <trkpt lat="45.77969" lon="4.83073">
        <ele>255.2</ele>
        <time>2019-04-15T02:51:10Z</time>
      </trkpt>
      <trkpt lat="45.77973" lon="4.83107">
        <ele>253.8</ele>
        <time>2019-04-15T02:51:14Z</time>
      </trkpt>
      <trkpt lat="45.77973" lon="4.83148">
        <ele>252.6</ele>
        <time>2019-04-15T02:51:18Z</time>
      </trkpt>
      <trkpt lat="45.77966" lon="4.83192">
        <ele>251.4</ele>
        <time>2019-04-15T02:51:22Z</time>
      </trkpt>
      <trkpt lat="45.77968" lon="4.83215">
        <ele>250</ele>
        <time>2019-04-15T02:51:26Z</time>
      </trkpt>
      <trkpt lat="45.77964" lon="4.83225">
        <ele>250</ele>
        <time>2019-04-15T02:51:30Z</time>
      </trkpt>
      <trkpt lat="45.77963" lon="4.83248">
        <ele>250.4</ele>
        <time>2019-04-15T02:51:34Z</time>
      </trkpt>
      <trkpt lat="45.77963" lon="4.83276">
        <ele>250.6</ele>
        <time>2019-04-15T02:51:38Z</time>
      </trkpt>
      <trkpt lat="45.77965" lon="4.833">
        <ele>250.6</ele>
        <time>2019-04-15T02:51:42Z</time>
      </trkpt>
      <trkpt lat="45.77963" lon="4.83326">
        <ele>251.2</ele>
        <time>2019-04-15T02:51:46Z</time>
      </trkpt>
      <trkpt lat="45.77965" lon="4.83357">
        <ele>250.6</ele>
        <time>2019-04-15T02:51:50Z</time>
      </trkpt>
      <trkpt lat="45.77963" lon="4.83393">
        <ele>250.6</ele>
        <time>2019-04-15T02:51:54Z</time>
      </trkpt>
      <trkpt lat="45.77961" lon="4.83427">
        <ele>250.6</ele>
        <time>2019-04-15T02:51:58Z</time>
      </trkpt>
      <trkpt lat="45.77968" lon="4.83447">
        <ele>250.6</ele>
        <time>2019-04-15T02:52:02Z</time>
      </trkpt>
      <trkpt lat="45.77984" lon="4.83459">
        <ele>250</ele>
        <time>2019-04-15T02:52:06Z</time>
      </trkpt>
      <trkpt lat="45.77987" lon="4.83487">
        <ele>250.4</ele>
        <time>2019-04-15T02:52:10Z</time>
      </trkpt>
      <trkpt lat="45.77984" lon="4.8352">
        <ele>250.6</ele>
        <time>2019-04-15T02:52:14Z</time>
      </trkpt>
      <trkpt lat="45.77982" lon="4.83548">
        <ele>251.4</ele>
        <time>2019-04-15T02:52:18Z</time>
      </trkpt>
      <trkpt lat="45.7798" lon="4.8358">
        <ele>250.6</ele>
        <time>2019-04-15T02:52:22Z</time>
      </trkpt>
      <trkpt lat="45.77978" lon="4.83608">
        <ele>250</ele>
        <time>2019-04-15T02:52:26Z</time>
      </trkpt>
      <trkpt lat="45.77992" lon="4.83622">
        <ele>249.6</ele>
        <time>2019-04-15T02:52:30Z</time>
      </trkpt>
      <trkpt lat="45.78017" lon="4.83628">
        <ele>248.4</ele>
        <time>2019-04-15T02:52:34Z</time>
      </trkpt>
      <trkpt lat="45.78047" lon="4.83631">
        <ele>246.4</ele>
        <time>2019-04-15T02:52:38Z</time>
      </trkpt>
      <trkpt lat="45.78078" lon="4.8364">
        <ele>243.4</ele>
        <time>2019-04-15T02:52:42Z</time>
      </trkpt>
      <trkpt lat="45.78108" lon="4.83661">
        <ele>239.2</ele>
        <time>2019-04-15T02:52:46Z</time>
      </trkpt>
      <trkpt lat="45.78144" lon="4.83688">
        <ele>234.8</ele>
        <time>2019-04-15T02:52:50Z</time>
      </trkpt>
      <trkpt lat="45.78176" lon="4.83712">
        <ele>229.8</ele>
        <time>2019-04-15T02:52:54Z</time>
      </trkpt>
      <trkpt lat="45.78189" lon="4.83729">
        <ele>226.4</ele>
        <time>2019-04-15T02:52:58Z</time>
      </trkpt>
      <trkpt lat="45.78168" lon="4.83763">
        <ele>224.2</ele>
        <time>2019-04-15T02:53:02Z</time>
      </trkpt>
      <trkpt lat="45.78147" lon="4.83797">
        <ele>221</ele>
        <time>2019-04-15T02:53:06Z</time>
      </trkpt>
      <trkpt lat="45.78119" lon="4.83831">
        <ele>217.4</ele>
        <time>2019-04-15T02:53:10Z</time>
      </trkpt>
      <trkpt lat="45.78087" lon="4.8387">
        <ele>213</ele>
        <time>2019-04-15T02:53:14Z</time>
      </trkpt>
      <trkpt lat="45.78057" lon="4.83903">
        <ele>209</ele>
        <time>2019-04-15T02:53:18Z</time>
      </trkpt>
      <trkpt lat="45.78027" lon="4.83938">
        <ele>204.2</ele>
        <time>2019-04-15T02:53:22Z</time>
      </trkpt>
      <trkpt lat="45.78001" lon="4.83967">
        <ele>198.8</ele>
        <time>2019-04-15T02:53:26Z</time>
      </trkpt>
      <trkpt lat="45.77987" lon="4.83986">
        <ele>196.4</ele>
        <time>2019-04-15T02:53:30Z</time>
      </trkpt>
      <trkpt lat="45.77968" lon="4.8395">
        <ele>194</ele>
        <time>2019-04-15T02:53:34Z</time>
      </trkpt>
      <trkpt lat="45.77948" lon="4.83949">
        <ele>191</ele>
        <time>2019-04-15T02:53:38Z</time>
      </trkpt>
      <trkpt lat="45.77927" lon="4.83975">
        <ele>187.6</ele>
        <time>2019-04-15T02:53:42Z</time>
      </trkpt>
      <trkpt lat="45.77932" lon="4.8401">
        <ele>184.4</ele>
        <time>2019-04-15T02:53:46Z</time>
      </trkpt>
      <trkpt lat="45.77947" lon="4.84035">
        <ele>180.8</ele>
        <time>2019-04-15T02:53:50Z</time>
      </trkpt>
      <trkpt lat="45.77928" lon="4.8406">
        <ele>179</ele>
        <time>2019-04-15T02:53:54Z</time>
      </trkpt>
      <trkpt lat="45.7791" lon="4.84082">
        <ele>175.8</ele>
        <time>2019-04-15T02:53:58Z</time>
      </trkpt>
      <trkpt lat="45.77903" lon="4.84103">
        <ele>174.8</ele>
        <time>2019-04-15T02:54:02Z</time>
      </trkpt>
      <trkpt lat="45.77902" lon="4.84121">
        <ele>175.4</ele>
        <time>2019-04-15T02:54:06Z</time>
      </trkpt>
      <trkpt lat="45.779" lon="4.84145">
        <ele>176</ele>
        <time>2019-04-15T02:54:10Z</time>
      </trkpt>
      <trkpt lat="45.77894" lon="4.84172">
        <ele>175.6</ele>
        <time>2019-04-15T02:54:14Z</time>
      </trkpt>
      <trkpt lat="45.77883" lon="4.84201">
        <ele>177</ele>
        <time>2019-04-15T02:54:18Z</time>
      </trkpt>
      <trkpt lat="45.77873" lon="4.8423">
        <ele>176.8</ele>
        <time>2019-04-15T02:54:22Z</time>
      </trkpt>
      <trkpt lat="45.77862" lon="4.84258">
        <ele>177.4</ele>
        <time>2019-04-15T02:54:26Z</time>
      </trkpt>
      <trkpt lat="45.77851" lon="4.84288">
        <ele>177.6</ele>
        <time>2019-04-15T02:54:30Z</time>
      </trkpt>
      <trkpt lat="45.77839" lon="4.84319">
        <ele>177.6</ele>
        <time>2019-04-15T02:54:34Z</time>
      </trkpt>
      <trkpt lat="45.77827" lon="4.84351">
        <ele>178</ele>
        <time>2019-04-15T02:54:38Z</time>
      </trkpt>
      <trkpt lat="45.77814" lon="4.84384">
        <ele>177.2</ele>
        <time>2019-04-15T02:54:42Z</time>
      </trkpt>
      <trkpt lat="45.77801" lon="4.84417">
        <ele>176.4</ele>
        <time>2019-04-15T02:54:46Z</time>
      </trkpt>
      <trkpt lat="45.77786" lon="4.84438">
        <ele>175.8</ele>
        <time>2019-04-15T02:54:50Z</time>
      </trkpt>
      <trkpt lat="45.77769" lon="4.8444">
        <ele>174.2</ele>
        <time>2019-04-15T02:54:54Z</time>
      </trkpt>
      <trkpt lat="45.77752" lon="4.8443">
        <ele>174.6</ele>
        <time>2019-04-15T02:54:58Z</time>
      </trkpt>
      <trkpt lat="45.77732" lon="4.84418">
        <ele>174</ele>
        <time>2019-04-15T02:55:02Z</time>
      </trkpt>
      <trkpt lat="45.77711" lon="4.84406">
        <ele>173.8</ele>
        <time>2019-04-15T02:55:06Z</time>
      </trkpt>
      <trkpt lat="45.77693" lon="4.84396">
        <ele>173.6</ele>
        <time>2019-04-15T02:55:10Z</time>
      </trkpt>
      <trkpt lat="45.77678" lon="4.84389">
        <ele>173.8</ele>
        <time>2019-04-15T02:55:14Z</time>
      </trkpt>
      <trkpt lat="45.77677" lon="4.84384">
        <ele>173.8</ele>
        <time>2019-04-15T02:55:18Z</time>
      </trkpt>
      <trkpt lat="45.77677" lon="4.84384">
        <ele>173.8</ele>
        <time>2019-04-15T02:55:22Z</time>
      </trkpt>
      <trkpt lat="45.77684" lon="4.8438">
        <ele>173.4</ele>
        <time>2019-04-15T02:55:26Z</time>
      </trkpt>
      <trkpt lat="45.77684" lon="4.8438">
        <ele>173.4</ele>
        <time>2019-04-15T02:55:30Z</time>
      </trkpt>
      <trkpt lat="45.77684" lon="4.8438">
        <ele>173.4</ele>
        <time>2019-04-15T02:55:34Z</time>
      </trkpt>
      <trkpt lat="45.77684" lon="4.8438">
        <ele>173.4</ele>
        <time>2019-04-15T02:55:38Z</time>
      </trkpt>
      <trkpt lat="45.77684" lon="4.8438">
        <ele>173.4</ele>
        <time>2019-04-15T02:55:42Z</time>
      </trkpt>
      <trkpt lat="45.77684" lon="4.8438">
        <ele>173.4</ele>
        <time>2019-04-15T02:55:46Z</time>
      </trkpt>
      <trkpt lat="45.77684" lon="4.8438">
        <ele>173.4</ele>
        <time>2019-04-15T02:55:50Z</time>
      </trkpt>
      <trkpt lat="45.77684" lon="4.8438">
        <ele>173.4</ele>
        <time>2019-04-15T02:55:54Z</time>
      </trkpt>
      <trkpt lat="45.77684" lon="4.8438">
        <ele>173.4</ele>
        <time>2019-04-15T02:55:58Z</time>
      </trkpt>
      <trkpt lat="45.77684" lon="4.8438">
        <ele>173.4</ele>
        <time>2019-04-15T02:56:02Z</time>
      </trkpt>
      <trkpt lat="45.77684" lon="4.8438">
        <ele>173.4</ele>
        <time>2019-04-15T02:56:06Z</time>
      </trkpt>
      <trkpt lat="45.77684" lon="4.8438">
        <ele>173.4</ele>
        <time>2019-04-15T02:56:10Z</time>
      </trkpt>
      <trkpt lat="45.77684" lon="4.8438">
        <ele>173.4</ele>
        <time>2019-04-15T02:56:14Z</time>
      </trkpt>
      <trkpt lat="45.77684" lon="4.8438">
        <ele>173.4</ele>
        <time>2019-04-15T02:56:18Z</time>
      </trkpt>
      <trkpt lat="45.77684" lon="4.8438">
        <ele>173.4</ele>
        <time>2019-04-15T02:56:22Z</time>
      </trkpt>
      <trkpt lat="45.77684" lon="4.8438">
        <ele>173.4</ele>
        <time>2019-04-15T02:56:26Z</time>
      </trkpt>
      <trkpt lat="45.77684" lon="4.8438">
        <ele>173.4</ele>
        <time>2019-04-15T02:56:30Z</time>
      </trkpt>
      <trkpt lat="45.77684" lon="4.8438">
        <ele>173.4</ele>
        <time>2019-04-15T02:56:34Z</time>
      </trkpt>
      <trkpt lat="45.77684" lon="4.8438">
        <ele>173.4</ele>
        <time>2019-04-15T02:56:38Z</time>
      </trkpt>
      <trkpt lat="45.77684" lon="4.8438">
        <ele>173.4</ele>
        <time>2019-04-15T02:56:42Z</time>
      </trkpt>
      <trkpt lat="45.77684" lon="4.8438">
        <ele>173.4</ele>
        <time>2019-04-15T02:56:46Z</time>
      </trkpt>
      <trkpt lat="45.77684" lon="4.8438">
        <ele>173.4</ele>
        <time>2019-04-15T02:56:50Z</time>
      </trkpt>
      <trkpt lat="45.77684" lon="4.8438">
        <ele>173.4</ele>
        <time>2019-04-15T02:56:54Z</time>
      </trkpt>
      <trkpt lat="45.77684" lon="4.8438">
        <ele>173.4</ele>
        <time>2019-04-15T02:56:58Z</time>
      </trkpt>
      <trkpt lat="45.77684" lon="4.8438">
        <ele>173.4</ele>
        <time>2019-04-15T02:57:02Z</time>
      </trkpt>
      <trkpt lat="45.77684" lon="4.8438">
        <ele>173.4</ele>
        <time>2019-04-15T02:57:06Z</time>
      </trkpt>
      <trkpt lat="45.77684" lon="4.8438">
        <ele>173.4</ele>
        <time>2019-04-15T02:57:10Z</time>
      </trkpt>
      <trkpt lat="45.77684" lon="4.8438">
        <ele>173.4</ele>
        <time>2019-04-15T02:57:14Z</time>
      </trkpt>
      <trkpt lat="45.77684" lon="4.8438">
        <ele>173.4</ele>
        <time>2019-04-15T02:57:18Z</time>
      </trkpt>
      <trkpt lat="45.77684" lon="4.8438">
        <ele>173.4</ele>
        <time>2019-04-15T02:57:22Z</time>
      </trkpt>
      <trkpt lat="45.77684" lon="4.8438">
        <ele>173.4</ele>
        <time>2019-04-15T02:57:26Z</time>
      </trkpt>
      <trkpt lat="45.77684" lon="4.8438">
        <ele>173.4</ele>
        <time>2019-04-15T02:57:30Z</time>
      </trkpt>
      <trkpt lat="45.7768" lon="4.84377">
        <ele>173.4</ele>
        <time>2019-04-15T02:57:34Z</time>
      </trkpt>
      <trkpt lat="45.77688" lon="4.84378">
        <ele>173.2</ele>
        <time>2019-04-15T02:57:38Z</time>
      </trkpt>
      <trkpt lat="45.77707" lon="4.84384">
        <ele>172.2</ele>
        <time>2019-04-15T02:57:42Z</time>
      </trkpt>
      <trkpt lat="45.77731" lon="4.84391">
        <ele>171.6</ele>
        <time>2019-04-15T02:57:46Z</time>
      </trkpt>
      <trkpt lat="45.77751" lon="4.84398">
        <ele>170.2</ele>
        <time>2019-04-15T02:57:50Z</time>
      </trkpt>
      <trkpt lat="45.77758" lon="4.84393">
        <ele>169.6</ele>
        <time>2019-04-15T02:57:54Z</time>
      </trkpt>
      <trkpt lat="45.77751" lon="4.8439">
        <ele>169.6</ele>
        <time>2019-04-15T02:57:58Z</time>
      </trkpt>
      <trkpt lat="45.77737" lon="4.84386">
        <ele>169.8</ele>
        <time>2019-04-15T02:58:02Z</time>
      </trkpt>
      <trkpt lat="45.77717" lon="4.84379">
        <ele>170.6</ele>
        <time>2019-04-15T02:58:06Z</time>
      </trkpt>
      <trkpt lat="45.77694" lon="4.84366">
        <ele>170</ele>
        <time>2019-04-15T02:58:10Z</time>
      </trkpt>
      <trkpt lat="45.7767" lon="4.8435">
        <ele>169.4</ele>
        <time>2019-04-15T02:58:14Z</time>
      </trkpt>
      <trkpt lat="45.77645" lon="4.84332">
        <ele>169.6</ele>
        <time>2019-04-15T02:58:18Z</time>
      </trkpt>
      <trkpt lat="45.77622" lon="4.84314">
        <ele>169.6</ele>
        <time>2019-04-15T02:58:22Z</time>
      </trkpt>
      <trkpt lat="45.77597" lon="4.84298">
        <ele>169.4</ele>
        <time>2019-04-15T02:58:26Z</time>
      </trkpt>
      <trkpt lat="45.77572" lon="4.84281">
        <ele>170</ele>
        <time>2019-04-15T02:58:30Z</time>
      </trkpt>
      <trkpt lat="45.77548" lon="4.84266">
        <ele>169.8</ele>
        <time>2019-04-15T02:58:34Z</time>
      </trkpt>
      <trkpt lat="45.77525" lon="4.84248">
        <ele>170.2</ele>
        <time>2019-04-15T02:58:38Z</time>
      </trkpt>
      <trkpt lat="45.775" lon="4.84231">
        <ele>170.4</ele>
        <time>2019-04-15T02:58:42Z</time>
      </trkpt>
      <trkpt lat="45.77473" lon="4.84215">
        <ele>170.4</ele>
        <time>2019-04-15T02:58:46Z</time>
      </trkpt>
      <trkpt lat="45.77447" lon="4.84198">
        <ele>170.2</ele>
        <time>2019-04-15T02:58:50Z</time>
      </trkpt>
      <trkpt lat="45.77421" lon="4.84181">
        <ele>170.2</ele>
        <time>2019-04-15T02:58:54Z</time>
      </trkpt>
      <trkpt lat="45.77395" lon="4.84163">
        <ele>169.8</ele>
        <time>2019-04-15T02:58:58Z</time>
      </trkpt>
      <trkpt lat="45.77369" lon="4.84145">
        <ele>170</ele>
        <time>2019-04-15T02:59:02Z</time>
      </trkpt>
      <trkpt lat="45.77343" lon="4.84127">
        <ele>170.2</ele>
        <time>2019-04-15T02:59:06Z</time>
      </trkpt>
      <trkpt lat="45.77318" lon="4.8411">
        <ele>170.2</ele>
        <time>2019-04-15T02:59:10Z</time>
      </trkpt>
      <trkpt lat="45.77292" lon="4.84091">
        <ele>170</ele>
        <time>2019-04-15T02:59:14Z</time>
      </trkpt>
      <trkpt lat="45.77264" lon="4.8408">
        <ele>170.2</ele>
        <time>2019-04-15T02:59:18Z</time>
      </trkpt>
      <trkpt lat="45.77237" lon="4.84075">
        <ele>170.6</ele>
        <time>2019-04-15T02:59:22Z</time>
      </trkpt>
      <trkpt lat="45.77206" lon="4.84073">
        <ele>169.6</ele>
        <time>2019-04-15T02:59:26Z</time>
      </trkpt>
      <trkpt lat="45.77176" lon="4.84076">
        <ele>169.6</ele>
        <time>2019-04-15T02:59:30Z</time>
      </trkpt>
      <trkpt lat="45.77147" lon="4.84073">
        <ele>169.6</ele>
        <time>2019-04-15T02:59:34Z</time>
      </trkpt>
      <trkpt lat="45.77117" lon="4.84072">
        <ele>169.6</ele>
        <time>2019-04-15T02:59:38Z</time>
      </trkpt>
      <trkpt lat="45.77089" lon="4.8407">
        <ele>169.6</ele>
        <time>2019-04-15T02:59:42Z</time>
      </trkpt>
      <trkpt lat="45.7706" lon="4.84069">
        <ele>169.2</ele>
        <time>2019-04-15T02:59:46Z</time>
      </trkpt>
      <trkpt lat="45.77031" lon="4.84067">
        <ele>169.2</ele>
        <time>2019-04-15T02:59:50Z</time>
      </trkpt>
      <trkpt lat="45.77001" lon="4.84067">
        <ele>169.2</ele>
        <time>2019-04-15T02:59:54Z</time>
      </trkpt>
      <trkpt lat="45.76971" lon="4.84065">
        <ele>169.4</ele>
        <time>2019-04-15T02:59:58Z</time>
      </trkpt>
      <trkpt lat="45.76942" lon="4.84065">
        <ele>169.2</ele>
        <time>2019-04-15T03:00:02Z</time>
      </trkpt>
      <trkpt lat="45.76913" lon="4.84067">
        <ele>169.2</ele>
        <time>2019-04-15T03:00:06Z</time>
      </trkpt>
      <trkpt lat="45.76882" lon="4.84069">
        <ele>168.4</ele>
        <time>2019-04-15T03:00:10Z</time>
      </trkpt>
      <trkpt lat="45.76852" lon="4.84071">
        <ele>168.2</ele>
        <time>2019-04-15T03:00:14Z</time>
      </trkpt>
      <trkpt lat="45.76822" lon="4.84073">
        <ele>168.6</ele>
        <time>2019-04-15T03:00:18Z</time>
      </trkpt>
      <trkpt lat="45.76792" lon="4.84075">
        <ele>169.2</ele>
        <time>2019-04-15T03:00:22Z</time>
      </trkpt>
      <trkpt lat="45.76763" lon="4.84076">
        <ele>168.6</ele>
        <time>2019-04-15T03:00:26Z</time>
      </trkpt>
      <trkpt lat="45.76732" lon="4.84079">
        <ele>168.4</ele>
        <time>2019-04-15T03:00:30Z</time>
      </trkpt>
      <trkpt lat="45.76702" lon="4.84082">
        <ele>168.6</ele>
        <time>2019-04-15T03:00:34Z</time>
      </trkpt>
      <trkpt lat="45.76671" lon="4.84086">
        <ele>168.2</ele>
        <time>2019-04-15T03:00:38Z</time>
      </trkpt>
      <trkpt lat="45.76641" lon="4.8409">
        <ele>168.2</ele>
        <time>2019-04-15T03:00:42Z</time>
      </trkpt>
      <trkpt lat="45.7661" lon="4.84095">
        <ele>168</ele>
        <time>2019-04-15T03:00:46Z</time>
      </trkpt>
      <trkpt lat="45.76579" lon="4.84099">
        <ele>168.2</ele>
        <time>2019-04-15T03:00:50Z</time>
      </trkpt>
      <trkpt lat="45.76549" lon="4.841">
        <ele>168.4</ele>
        <time>2019-04-15T03:00:54Z</time>
      </trkpt>
      <trkpt lat="45.76518" lon="4.84099">
        <ele>168.2</ele>
        <time>2019-04-15T03:00:58Z</time>
      </trkpt>
      <trkpt lat="45.76488" lon="4.84098">
        <ele>168.6</ele>
        <time>2019-04-15T03:01:02Z</time>
      </trkpt>
      <trkpt lat="45.76458" lon="4.84097">
        <ele>168</ele>
        <time>2019-04-15T03:01:06Z</time>
      </trkpt>
      <trkpt lat="45.76427" lon="4.84095">
        <ele>168</ele>
        <time>2019-04-15T03:01:10Z</time>
      </trkpt>
      <trkpt lat="45.76398" lon="4.84095">
        <ele>167.8</ele>
        <time>2019-04-15T03:01:14Z</time>
      </trkpt>
      <trkpt lat="45.76368" lon="4.84094">
        <ele>168</ele>
        <time>2019-04-15T03:01:18Z</time>
      </trkpt>
      <trkpt lat="45.76339" lon="4.84097">
        <ele>168</ele>
        <time>2019-04-15T03:01:22Z</time>
      </trkpt>
      <trkpt lat="45.7631" lon="4.84097">
        <ele>169</ele>
        <time>2019-04-15T03:01:26Z</time>
      </trkpt>
      <trkpt lat="45.76281" lon="4.84094">
        <ele>169.4</ele>
        <time>2019-04-15T03:01:30Z</time>
      </trkpt>
      <trkpt lat="45.76252" lon="4.8409">
        <ele>169.2</ele>
        <time>2019-04-15T03:01:34Z</time>
      </trkpt>
      <trkpt lat="45.76222" lon="4.84086">
        <ele>169.2</ele>
        <time>2019-04-15T03:01:38Z</time>
      </trkpt>
      <trkpt lat="45.76193" lon="4.84084">
        <ele>168.6</ele>
        <time>2019-04-15T03:01:42Z</time>
      </trkpt>
      <trkpt lat="45.76163" lon="4.8408">
        <ele>169.2</ele>
        <time>2019-04-15T03:01:46Z</time>
      </trkpt>
      <trkpt lat="45.76134" lon="4.84077">
        <ele>169.2</ele>
        <time>2019-04-15T03:01:50Z</time>
      </trkpt>
      <trkpt lat="45.76105" lon="4.84075">
        <ele>169</ele>
        <time>2019-04-15T03:01:54Z</time>
      </trkpt>
      <trkpt lat="45.76076" lon="4.84073">
        <ele>169.4</ele>
        <time>2019-04-15T03:01:58Z</time>
      </trkpt>
      <trkpt lat="45.76046" lon="4.84071">
        <ele>169.8</ele>
        <time>2019-04-15T03:02:02Z</time>
      </trkpt>
      <trkpt lat="45.76016" lon="4.84069">
        <ele>168.6</ele>
        <time>2019-04-15T03:02:06Z</time>
      </trkpt>
      <trkpt lat="45.75985" lon="4.84067">
        <ele>169.6</ele>
        <time>2019-04-15T03:02:10Z</time>
      </trkpt>
      <trkpt lat="45.75954" lon="4.84061">
        <ele>169.4</ele>
        <time>2019-04-15T03:02:14Z</time>
      </trkpt>
      <trkpt lat="45.75923" lon="4.84055">
        <ele>169.8</ele>
        <time>2019-04-15T03:02:18Z</time>
      </trkpt>
      <trkpt lat="45.75893" lon="4.84048">
        <ele>169</ele>
        <time>2019-04-15T03:02:22Z</time>
      </trkpt>
      <trkpt lat="45.75862" lon="4.84038">
        <ele>168.6</ele>
        <time>2019-04-15T03:02:26Z</time>
      </trkpt>
      <trkpt lat="45.75832" lon="4.84028">
        <ele>168.6</ele>
        <time>2019-04-15T03:02:30Z</time>
      </trkpt>
      <trkpt lat="45.75802" lon="4.84017">
        <ele>168.4</ele>
        <time>2019-04-15T03:02:34Z</time>
      </trkpt>
      <trkpt lat="45.75771" lon="4.84005">
        <ele>168</ele>
        <time>2019-04-15T03:02:38Z</time>
      </trkpt>
      <trkpt lat="45.7574" lon="4.83991">
        <ele>168</ele>
        <time>2019-04-15T03:02:42Z</time>
      </trkpt>
      <trkpt lat="45.75711" lon="4.83977">
        <ele>168.2</ele>
        <time>2019-04-15T03:02:46Z</time>
      </trkpt>
      <trkpt lat="45.75681" lon="4.83962">
        <ele>168</ele>
        <time>2019-04-15T03:02:50Z</time>
      </trkpt>
      <trkpt lat="45.75653" lon="4.83947">
        <ele>168</ele>
        <time>2019-04-15T03:02:54Z</time>
      </trkpt>
      <trkpt lat="45.75624" lon="4.83936">
        <ele>168.2</ele>
        <time>2019-04-15T03:02:58Z</time>
      </trkpt>
      <trkpt lat="45.75595" lon="4.83918">
        <ele>168</ele>
        <time>2019-04-15T03:03:02Z</time>
      </trkpt>
      <trkpt lat="45.75567" lon="4.83902">
        <ele>168</ele>
        <time>2019-04-15T03:03:06Z</time>
      </trkpt>
      <trkpt lat="45.75543" lon="4.8388">
        <ele>168</ele>
        <time>2019-04-15T03:03:10Z</time>
      </trkpt>
      <trkpt lat="45.75518" lon="4.83861">
        <ele>168.2</ele>
        <time>2019-04-15T03:03:14Z</time>
      </trkpt>
      <trkpt lat="45.75491" lon="4.83843">
        <ele>168.2</ele>
        <time>2019-04-15T03:03:18Z</time>
      </trkpt>
      <trkpt lat="45.75464" lon="4.83826">
        <ele>168.4</ele>
        <time>2019-04-15T03:03:22Z</time>
      </trkpt>
      <trkpt lat="45.75437" lon="4.83807">
        <ele>168.4</ele>
        <time>2019-04-15T03:03:26Z</time>
      </trkpt>
      <trkpt lat="45.7541" lon="4.83788">
        <ele>168.2</ele>
        <time>2019-04-15T03:03:30Z</time>
      </trkpt>
      <trkpt lat="45.75384" lon="4.83768">
        <ele>168</ele>
        <time>2019-04-15T03:03:34Z</time>
      </trkpt>
      <trkpt lat="45.75357" lon="4.83749">
        <ele>168</ele>
        <time>2019-04-15T03:03:38Z</time>
      </trkpt>
      <trkpt lat="45.75331" lon="4.83729">
        <ele>168.8</ele>
        <time>2019-04-15T03:03:42Z</time>
      </trkpt>
      <trkpt lat="45.75305" lon="4.83708">
        <ele>168</ele>
        <time>2019-04-15T03:03:46Z</time>
      </trkpt>
      <trkpt lat="45.7528" lon="4.83688">
        <ele>168</ele>
        <time>2019-04-15T03:03:50Z</time>
      </trkpt>
      <trkpt lat="45.75256" lon="4.83672">
        <ele>168.2</ele>
        <time>2019-04-15T03:03:54Z</time>
      </trkpt>
      <trkpt lat="45.75231" lon="4.83674">
        <ele>168.2</ele>
        <time>2019-04-15T03:03:58Z</time>
      </trkpt>
      <trkpt lat="45.75206" lon="4.83676">
        <ele>168.2</ele>
        <time>2019-04-15T03:04:02Z</time>
      </trkpt>
      <trkpt lat="45.75182" lon="4.83662">
        <ele>168.6</ele>
        <time>2019-04-15T03:04:06Z</time>
      </trkpt>
      <trkpt lat="45.75164" lon="4.83632">
        <ele>168.4</ele>
        <time>2019-04-15T03:04:10Z</time>
      </trkpt>
      <trkpt lat="45.75142" lon="4.83609">
        <ele>168.2</ele>
        <time>2019-04-15T03:04:14Z</time>
      </trkpt>
      <trkpt lat="45.75118" lon="4.83591">
        <ele>168.2</ele>
        <time>2019-04-15T03:04:18Z</time>
      </trkpt>
      <trkpt lat="45.75094" lon="4.83572">
        <ele>168.2</ele>
        <time>2019-04-15T03:04:22Z</time>
      </trkpt>
      <trkpt lat="45.7507" lon="4.83553">
        <ele>168.2</ele>
        <time>2019-04-15T03:04:26Z</time>
      </trkpt>
      <trkpt lat="45.75047" lon="4.83531">
        <ele>168.2</ele>
        <time>2019-04-15T03:04:30Z</time>
      </trkpt>
      <trkpt lat="45.75026" lon="4.83506">
        <ele>168.2</ele>
        <time>2019-04-15T03:04:34Z</time>
      </trkpt>
      <trkpt lat="45.75001" lon="4.83484">
        <ele>167.8</ele>
        <time>2019-04-15T03:04:38Z</time>
      </trkpt>
      <trkpt lat="45.74976" lon="4.83464">
        <ele>168</ele>
        <time>2019-04-15T03:04:42Z</time>
      </trkpt>
      <trkpt lat="45.74951" lon="4.83445">
        <ele>168</ele>
        <time>2019-04-15T03:04:46Z</time>
      </trkpt>
      <trkpt lat="45.74926" lon="4.83425">
        <ele>167.4</ele>
        <time>2019-04-15T03:04:50Z</time>
      </trkpt>
      <trkpt lat="45.74901" lon="4.83405">
        <ele>168.2</ele>
        <time>2019-04-15T03:04:54Z</time>
      </trkpt>
      <trkpt lat="45.74875" lon="4.83385">
        <ele>168.6</ele>
        <time>2019-04-15T03:04:58Z</time>
      </trkpt>
      <trkpt lat="45.7485" lon="4.83365">
        <ele>168.4</ele>
        <time>2019-04-15T03:05:02Z</time>
      </trkpt>
      <trkpt lat="45.74825" lon="4.83346">
        <ele>167.8</ele>
        <time>2019-04-15T03:05:06Z</time>
      </trkpt>
      <trkpt lat="45.74798" lon="4.83328">
        <ele>167.2</ele>
        <time>2019-04-15T03:05:10Z</time>
      </trkpt>
      <trkpt lat="45.74773" lon="4.83312">
        <ele>167.4</ele>
        <time>2019-04-15T03:05:14Z</time>
      </trkpt>
      <trkpt lat="45.74748" lon="4.83292">
        <ele>167.8</ele>
        <time>2019-04-15T03:05:18Z</time>
      </trkpt>
      <trkpt lat="45.74724" lon="4.83271">
        <ele>168</ele>
        <time>2019-04-15T03:05:22Z</time>
      </trkpt>
      <trkpt lat="45.74698" lon="4.83252">
        <ele>168</ele>
        <time>2019-04-15T03:05:26Z</time>
      </trkpt>
      <trkpt lat="45.74673" lon="4.83231">
        <ele>168</ele>
        <time>2019-04-15T03:05:30Z</time>
      </trkpt>
      <trkpt lat="45.74648" lon="4.83208">
        <ele>168.2</ele>
        <time>2019-04-15T03:05:34Z</time>
      </trkpt>
      <trkpt lat="45.74624" lon="4.83186">
        <ele>167.6</ele>
        <time>2019-04-15T03:05:38Z</time>
      </trkpt>
      <trkpt lat="45.74601" lon="4.8317">
        <ele>168</ele>
        <time>2019-04-15T03:05:42Z</time>
      </trkpt>
      <trkpt lat="45.74573" lon="4.83147">
        <ele>168.2</ele>
        <time>2019-04-15T03:05:46Z</time>
      </trkpt>
      <trkpt lat="45.74549" lon="4.83119">
        <ele>168</ele>
        <time>2019-04-15T03:05:50Z</time>
      </trkpt>
      <trkpt lat="45.74526" lon="4.83094">
        <ele>168.4</ele>
        <time>2019-04-15T03:05:54Z</time>
      </trkpt>
      <trkpt lat="45.74504" lon="4.83069">
        <ele>168.2</ele>
        <time>2019-04-15T03:05:58Z</time>
      </trkpt>
      <trkpt lat="45.74481" lon="4.83044">
        <ele>168</ele>
        <time>2019-04-15T03:06:02Z</time>
      </trkpt>
      <trkpt lat="45.74459" lon="4.8302">
        <ele>168.2</ele>
        <time>2019-04-15T03:06:06Z</time>
      </trkpt>
      <trkpt lat="45.74436" lon="4.82996">
        <ele>168.2</ele>
        <time>2019-04-15T03:06:10Z</time>
      </trkpt>
      <trkpt lat="45.74412" lon="4.82974">
        <ele>168.4</ele>
        <time>2019-04-15T03:06:14Z</time>
      </trkpt>
      <trkpt lat="45.74387" lon="4.82955">
        <ele>168.8</ele>
        <time>2019-04-15T03:06:18Z</time>
      </trkpt>
      <trkpt lat="45.74362" lon="4.82937">
        <ele>168.4</ele>
        <time>2019-04-15T03:06:22Z</time>
      </trkpt>
      <trkpt lat="45.74339" lon="4.82917">
        <ele>168.8</ele>
        <time>2019-04-15T03:06:26Z</time>
      </trkpt>
      <trkpt lat="45.74315" lon="4.82892">
        <ele>168.4</ele>
        <time>2019-04-15T03:06:30Z</time>
      </trkpt>
      <trkpt lat="45.74292" lon="4.8287">
        <ele>168.4</ele>
        <time>2019-04-15T03:06:34Z</time>
      </trkpt>
      <trkpt lat="45.74267" lon="4.8285">
        <ele>168.2</ele>
        <time>2019-04-15T03:06:38Z</time>
      </trkpt>
      <trkpt lat="45.74244" lon="4.82829">
        <ele>168.4</ele>
        <time>2019-04-15T03:06:42Z</time>
      </trkpt>
      <trkpt lat="45.7422" lon="4.82808">
        <ele>168.2</ele>
        <time>2019-04-15T03:06:46Z</time>
      </trkpt>
      <trkpt lat="45.74196" lon="4.82788">
        <ele>168.2</ele>
        <time>2019-04-15T03:06:50Z</time>
      </trkpt>
      <trkpt lat="45.74172" lon="4.82767">
        <ele>168</ele>
        <time>2019-04-15T03:06:54Z</time>
      </trkpt>
      <trkpt lat="45.74148" lon="4.82746">
        <ele>168.2</ele>
        <time>2019-04-15T03:06:58Z</time>
      </trkpt>
      <trkpt lat="45.74123" lon="4.82725">
        <ele>168.6</ele>
        <time>2019-04-15T03:07:02Z</time>
      </trkpt>
      <trkpt lat="45.74097" lon="4.82704">
        <ele>168.8</ele>
        <time>2019-04-15T03:07:06Z</time>
      </trkpt>
      <trkpt lat="45.74072" lon="4.82685">
        <ele>169.2</ele>
        <time>2019-04-15T03:07:10Z</time>
      </trkpt>
      <trkpt lat="45.74048" lon="4.82667">
        <ele>168.8</ele>
        <time>2019-04-15T03:07:14Z</time>
      </trkpt>
      <trkpt lat="45.74024" lon="4.82647">
        <ele>168.4</ele>
        <time>2019-04-15T03:07:18Z</time>
      </trkpt>
      <trkpt lat="45.74" lon="4.82626">
        <ele>168.6</ele>
        <time>2019-04-15T03:07:22Z</time>
      </trkpt>
      <trkpt lat="45.73977" lon="4.82607">
        <ele>168.6</ele>
        <time>2019-04-15T03:07:26Z</time>
      </trkpt>
      <trkpt lat="45.73953" lon="4.82587">
        <ele>168.6</ele>
        <time>2019-04-15T03:07:30Z</time>
      </trkpt>
      <trkpt lat="45.73928" lon="4.82566">
        <ele>168</ele>
        <time>2019-04-15T03:07:34Z</time>
      </trkpt>
      <trkpt lat="45.73904" lon="4.82546">
        <ele>168.2</ele>
        <time>2019-04-15T03:07:38Z</time>
      </trkpt>
      <trkpt lat="45.7388" lon="4.82526">
        <ele>168.4</ele>
        <time>2019-04-15T03:07:42Z</time>
      </trkpt>
      <trkpt lat="45.73858" lon="4.82505">
        <ele>168.2</ele>
        <time>2019-04-15T03:07:46Z</time>
      </trkpt>
      <trkpt lat="45.73835" lon="4.82484">
        <ele>168.4</ele>
        <time>2019-04-15T03:07:50Z</time>
      </trkpt>
      <trkpt lat="45.7381" lon="4.82466">
        <ele>168.2</ele>
        <time>2019-04-15T03:07:54Z</time>
      </trkpt>
      <trkpt lat="45.73786" lon="4.8245">
        <ele>168.4</ele>
        <time>2019-04-15T03:07:58Z</time>
      </trkpt>
      <trkpt lat="45.73767" lon="4.82438">
        <ele>169.8</ele>
        <time>2019-04-15T03:08:02Z</time>
      </trkpt>
      <trkpt lat="45.73756" lon="4.82439">
        <ele>170.6</ele>
        <time>2019-04-15T03:08:06Z</time>
      </trkpt>
      <trkpt lat="45.73742" lon="4.82439">
        <ele>170</ele>
        <time>2019-04-15T03:08:10Z</time>
      </trkpt>
      <trkpt lat="45.73725" lon="4.82427">
        <ele>170</ele>
        <time>2019-04-15T03:08:14Z</time>
      </trkpt>
      <trkpt lat="45.73709" lon="4.82433">
        <ele>170.2</ele>
        <time>2019-04-15T03:08:18Z</time>
      </trkpt>
      <trkpt lat="45.73695" lon="4.82461">
        <ele>170.4</ele>
        <time>2019-04-15T03:08:22Z</time>
      </trkpt>
      <trkpt lat="45.73682" lon="4.82493">
        <ele>169.4</ele>
        <time>2019-04-15T03:08:26Z</time>
      </trkpt>
      <trkpt lat="45.73669" lon="4.82526">
        <ele>169.2</ele>
        <time>2019-04-15T03:08:30Z</time>
      </trkpt>
      <trkpt lat="45.73655" lon="4.8256">
        <ele>169.2</ele>
        <time>2019-04-15T03:08:34Z</time>
      </trkpt>
      <trkpt lat="45.73642" lon="4.82593">
        <ele>169.2</ele>
        <time>2019-04-15T03:08:38Z</time>
      </trkpt>
      <trkpt lat="45.73629" lon="4.82626">
        <ele>168.8</ele>
        <time>2019-04-15T03:08:42Z</time>
      </trkpt>
      <trkpt lat="45.73616" lon="4.8266">
        <ele>169.2</ele>
        <time>2019-04-15T03:08:46Z</time>
      </trkpt>
      <trkpt lat="45.73603" lon="4.82693">
        <ele>169</ele>
        <time>2019-04-15T03:08:50Z</time>
      </trkpt>
      <trkpt lat="45.73589" lon="4.82723">
        <ele>169.4</ele>
        <time>2019-04-15T03:08:54Z</time>
      </trkpt>
      <trkpt lat="45.73577" lon="4.82744">
        <ele>169</ele>
        <time>2019-04-15T03:08:58Z</time>
      </trkpt>
      <trkpt lat="45.73573" lon="4.82751">
        <ele>169</ele>
        <time>2019-04-15T03:09:02Z</time>
      </trkpt>
      <trkpt lat="45.73575" lon="4.82766">
        <ele>169</ele>
        <time>2019-04-15T03:09:06Z</time>
      </trkpt>
      <trkpt lat="45.73588" lon="4.82782">
        <ele>168.4</ele>
        <time>2019-04-15T03:09:10Z</time>
      </trkpt>
      <trkpt lat="45.73606" lon="4.82798">
        <ele>169.4</ele>
        <time>2019-04-15T03:09:14Z</time>
      </trkpt>
      <trkpt lat="45.73629" lon="4.82817">
        <ele>169.2</ele>
        <time>2019-04-15T03:09:18Z</time>
      </trkpt>
      <trkpt lat="45.7365" lon="4.82838">
        <ele>169.6</ele>
        <time>2019-04-15T03:09:22Z</time>
      </trkpt>
      <trkpt lat="45.73674" lon="4.82858">
        <ele>169.6</ele>
        <time>2019-04-15T03:09:26Z</time>
      </trkpt>
      <trkpt lat="45.73698" lon="4.82877">
        <ele>169.2</ele>
        <time>2019-04-15T03:09:30Z</time>
      </trkpt>
      <trkpt lat="45.73719" lon="4.829">
        <ele>169.2</ele>
        <time>2019-04-15T03:09:34Z</time>
      </trkpt>
      <trkpt lat="45.73744" lon="4.82925">
        <ele>169</ele>
        <time>2019-04-15T03:09:38Z</time>
      </trkpt>
      <trkpt lat="45.73769" lon="4.82946">
        <ele>168.8</ele>
        <time>2019-04-15T03:09:42Z</time>
      </trkpt>
      <trkpt lat="45.73789" lon="4.82961">
        <ele>169.4</ele>
        <time>2019-04-15T03:09:46Z</time>
      </trkpt>
      <trkpt lat="45.7381" lon="4.8298">
        <ele>169.4</ele>
        <time>2019-04-15T03:09:50Z</time>
      </trkpt>
      <trkpt lat="45.73825" lon="4.82994">
        <ele>169.4</ele>
        <time>2019-04-15T03:09:54Z</time>
      </trkpt>
      <trkpt lat="45.7383" lon="4.83012">
        <ele>169</ele>
        <time>2019-04-15T03:09:58Z</time>
      </trkpt>
      <trkpt lat="45.73823" lon="4.83041">
        <ele>169</ele>
        <time>2019-04-15T03:10:02Z</time>
      </trkpt>
      <trkpt lat="45.73815" lon="4.83077">
        <ele>169.4</ele>
        <time>2019-04-15T03:10:06Z</time>
      </trkpt>
      <trkpt lat="45.73807" lon="4.83116">
        <ele>169.4</ele>
        <time>2019-04-15T03:10:10Z</time>
      </trkpt>
      <trkpt lat="45.73798" lon="4.83153">
        <ele>169.2</ele>
        <time>2019-04-15T03:10:14Z</time>
      </trkpt>
      <trkpt lat="45.73787" lon="4.83187">
        <ele>169.2</ele>
        <time>2019-04-15T03:10:18Z</time>
      </trkpt>
      <trkpt lat="45.73766" lon="4.83199">
        <ele>169.6</ele>
        <time>2019-04-15T03:10:22Z</time>
      </trkpt>
      <trkpt lat="45.73749" lon="4.83215">
        <ele>169.4</ele>
        <time>2019-04-15T03:10:26Z</time>
      </trkpt>
      <trkpt lat="45.73741" lon="4.83251">
        <ele>169.4</ele>
        <time>2019-04-15T03:10:30Z</time>
      </trkpt>
      <trkpt lat="45.73732" lon="4.83285">
        <ele>169.8</ele>
        <time>2019-04-15T03:10:34Z</time>
      </trkpt>
      <trkpt lat="45.73719" lon="4.83322">
        <ele>169.4</ele>
        <time>2019-04-15T03:10:38Z</time>
      </trkpt>
      <trkpt lat="45.73707" lon="4.83358">
        <ele>169.6</ele>
        <time>2019-04-15T03:10:42Z</time>
      </trkpt>
      <trkpt lat="45.73692" lon="4.83394">
        <ele>170.2</ele>
        <time>2019-04-15T03:10:46Z</time>
      </trkpt>
      <trkpt lat="45.73681" lon="4.83431">
        <ele>170.2</ele>
        <time>2019-04-15T03:10:50Z</time>
      </trkpt>
      <trkpt lat="45.73669" lon="4.83468">
        <ele>170</ele>
        <time>2019-04-15T03:10:54Z</time>
      </trkpt>
      <trkpt lat="45.73656" lon="4.83504">
        <ele>169.8</ele>
        <time>2019-04-15T03:10:58Z</time>
      </trkpt>
      <trkpt lat="45.73644" lon="4.83541">
        <ele>170</ele>
        <time>2019-04-15T03:11:02Z</time>
      </trkpt>
      <trkpt lat="45.73632" lon="4.83576">
        <ele>169.8</ele>
        <time>2019-04-15T03:11:06Z</time>
      </trkpt>
      <trkpt lat="45.73621" lon="4.83608">
        <ele>169.6</ele>
        <time>2019-04-15T03:11:10Z</time>
      </trkpt>
      <trkpt lat="45.73614" lon="4.83631">
        <ele>169.8</ele>
        <time>2019-04-15T03:11:14Z</time>
      </trkpt>
      <trkpt lat="45.7361" lon="4.83645">
        <ele>170.2</ele>
        <time>2019-04-15T03:11:18Z</time>
      </trkpt>
      <trkpt lat="45.73603" lon="4.8367">
        <ele>170</ele>
        <time>2019-04-15T03:11:22Z</time>
      </trkpt>
      <trkpt lat="45.73591" lon="4.83702">
        <ele>169.2</ele>
        <time>2019-04-15T03:11:26Z</time>
      </trkpt>
      <trkpt lat="45.73578" lon="4.83736">
        <ele>169.8</ele>
        <time>2019-04-15T03:11:30Z</time>
      </trkpt>
      <trkpt lat="45.73567" lon="4.83771">
        <ele>169.2</ele>
        <time>2019-04-15T03:11:34Z</time>
      </trkpt>
      <trkpt lat="45.73556" lon="4.83808">
        <ele>169.4</ele>
        <time>2019-04-15T03:11:38Z</time>
      </trkpt>
      <trkpt lat="45.73544" lon="4.83846">
        <ele>169.2</ele>
        <time>2019-04-15T03:11:42Z</time>
      </trkpt>
      <trkpt lat="45.73533" lon="4.83884">
        <ele>169</ele>
        <time>2019-04-15T03:11:46Z</time>
      </trkpt>
      <trkpt lat="45.73528" lon="4.83919">
        <ele>168.6</ele>
        <time>2019-04-15T03:11:50Z</time>
      </trkpt>
      <trkpt lat="45.7353" lon="4.83948">
        <ele>168.8</ele>
        <time>2019-04-15T03:11:54Z</time>
      </trkpt>
      <trkpt lat="45.73536" lon="4.83959">
        <ele>168.6</ele>
        <time>2019-04-15T03:11:58Z</time>
      </trkpt>
      <trkpt lat="45.73556" lon="4.83964">
        <ele>168.4</ele>
        <time>2019-04-15T03:12:02Z</time>
      </trkpt>
      <trkpt lat="45.73579" lon="4.83966">
        <ele>169</ele>
        <time>2019-04-15T03:12:06Z</time>
      </trkpt>
      <trkpt lat="45.73606" lon="4.83968">
        <ele>169.4</ele>
        <time>2019-04-15T03:12:10Z</time>
      </trkpt>
      <trkpt lat="45.73632" lon="4.83971">
        <ele>169</ele>
        <time>2019-04-15T03:12:14Z</time>
      </trkpt>
      <trkpt lat="45.73658" lon="4.83974">
        <ele>168.8</ele>
        <time>2019-04-15T03:12:18Z</time>
      </trkpt>
      <trkpt lat="45.73677" lon="4.83986">
        <ele>169.2</ele>
        <time>2019-04-15T03:12:22Z</time>
      </trkpt>
      <trkpt lat="45.73676" lon="4.84015">
        <ele>169.2</ele>
        <time>2019-04-15T03:12:26Z</time>
      </trkpt>
      <trkpt lat="45.73675" lon="4.8405">
        <ele>168.8</ele>
        <time>2019-04-15T03:12:30Z</time>
      </trkpt>
      <trkpt lat="45.73673" lon="4.84089">
        <ele>169.2</ele>
        <time>2019-04-15T03:12:34Z</time>
      </trkpt>
      <trkpt lat="45.73672" lon="4.84129">
        <ele>169.4</ele>
        <time>2019-04-15T03:12:38Z</time>
      </trkpt>
      <trkpt lat="45.73671" lon="4.84169">
        <ele>170.2</ele>
        <time>2019-04-15T03:12:42Z</time>
      </trkpt>
      <trkpt lat="45.73668" lon="4.8421">
        <ele>170</ele>
        <time>2019-04-15T03:12:46Z</time>
      </trkpt>
      <trkpt lat="45.73668" lon="4.84248">
        <ele>170.6</ele>
        <time>2019-04-15T03:12:50Z</time>
      </trkpt>
      <trkpt lat="45.73666" lon="4.84283">
        <ele>171.2</ele>
        <time>2019-04-15T03:12:54Z</time>
      </trkpt>
      <trkpt lat="45.73667" lon="4.84318">
        <ele>171.6</ele>
        <time>2019-04-15T03:12:58Z</time>
      </trkpt>
      <trkpt lat="45.73667" lon="4.84354">
        <ele>172.2</ele>
        <time>2019-04-15T03:13:02Z</time>
      </trkpt>
      <trkpt lat="45.73668" lon="4.8439">
        <ele>172.4</ele>
        <time>2019-04-15T03:13:06Z</time>
      </trkpt>
      <trkpt lat="45.73668" lon="4.84425">
        <ele>173.2</ele>
        <time>2019-04-15T03:13:10Z</time>
      </trkpt>
      <trkpt lat="45.73669" lon="4.84461">
        <ele>173.8</ele>
        <time>2019-04-15T03:13:14Z</time>
      </trkpt>
      <trkpt lat="45.7367" lon="4.84496">
        <ele>174.2</ele>
        <time>2019-04-15T03:13:18Z</time>
      </trkpt>
      <trkpt lat="45.73672" lon="4.84532">
        <ele>175.2</ele>
        <time>2019-04-15T03:13:22Z</time>
      </trkpt>
      <trkpt lat="45.73674" lon="4.84567">
        <ele>175.8</ele>
        <time>2019-04-15T03:13:26Z</time>
      </trkpt>
      <trkpt lat="45.73676" lon="4.84601">
        <ele>176.6</ele>
        <time>2019-04-15T03:13:30Z</time>
      </trkpt>
      <trkpt lat="45.73678" lon="4.84633">
        <ele>178</ele>
        <time>2019-04-15T03:13:34Z</time>
      </trkpt>
      <trkpt lat="45.7368" lon="4.84665">
        <ele>179.4</ele>
        <time>2019-04-15T03:13:38Z</time>
      </trkpt>
      <trkpt lat="45.73682" lon="4.84696">
        <ele>180.4</ele>
        <time>2019-04-15T03:13:42Z</time>
      </trkpt>
      <trkpt lat="45.73685" lon="4.8473">
        <ele>180.2</ele>
        <time>2019-04-15T03:13:46Z</time>
      </trkpt>
      <trkpt lat="45.73689" lon="4.84766">
        <ele>180</ele>
        <time>2019-04-15T03:13:50Z</time>
      </trkpt>
      <trkpt lat="45.73691" lon="4.84804">
        <ele>181</ele>
        <time>2019-04-15T03:13:54Z</time>
      </trkpt>
      <trkpt lat="45.73694" lon="4.84841">
        <ele>180.8</ele>
        <time>2019-04-15T03:13:58Z</time>
      </trkpt>
      <trkpt lat="45.73698" lon="4.84875">
        <ele>180.6</ele>
        <time>2019-04-15T03:14:02Z</time>
      </trkpt>
      <trkpt lat="45.737" lon="4.84918">
        <ele>179.4</ele>
        <time>2019-04-15T03:14:06Z</time>
      </trkpt>
      <trkpt lat="45.73704" lon="4.84965">
        <ele>177.6</ele>
        <time>2019-04-15T03:14:10Z</time>
      </trkpt>
      <trkpt lat="45.73708" lon="4.85009">
        <ele>176</ele>
        <time>2019-04-15T03:14:14Z</time>
      </trkpt>
      <trkpt lat="45.73707" lon="4.85028">
        <ele>174.8</ele>
        <time>2019-04-15T03:14:18Z</time>
      </trkpt>
      <trkpt lat="45.73695" lon="4.85034">
        <ele>174.8</ele>
        <time>2019-04-15T03:14:22Z</time>
      </trkpt>
      <trkpt lat="45.73675" lon="4.85039">
        <ele>174.6</ele>
        <time>2019-04-15T03:14:26Z</time>
      </trkpt>
      <trkpt lat="45.73651" lon="4.85041">
        <ele>174.8</ele>
        <time>2019-04-15T03:14:30Z</time>
      </trkpt>
      <trkpt lat="45.73624" lon="4.85044">
        <ele>174.8</ele>
        <time>2019-04-15T03:14:34Z</time>
      </trkpt>
      <trkpt lat="45.73597" lon="4.85047">
        <ele>175</ele>
        <time>2019-04-15T03:14:38Z</time>
      </trkpt>
      <trkpt lat="45.7357" lon="4.85046">
        <ele>174.8</ele>
        <time>2019-04-15T03:14:42Z</time>
      </trkpt>
      <trkpt lat="45.73542" lon="4.85045">
        <ele>174.8</ele>
        <time>2019-04-15T03:14:46Z</time>
      </trkpt>
      <trkpt lat="45.73515" lon="4.85043">
        <ele>174.4</ele>
        <time>2019-04-15T03:14:50Z</time>
      </trkpt>
      <trkpt lat="45.73487" lon="4.85041">
        <ele>175.2</ele>
        <time>2019-04-15T03:14:54Z</time>
      </trkpt>
      <trkpt lat="45.7346" lon="4.85039">
        <ele>175.2</ele>
        <time>2019-04-15T03:14:58Z</time>
      </trkpt>
      <trkpt lat="45.73432" lon="4.85037">
        <ele>175</ele>
        <time>2019-04-15T03:15:02Z</time>
      </trkpt>
      <trkpt lat="45.73405" lon="4.85035">
        <ele>175.2</ele>
        <time>2019-04-15T03:15:06Z</time>
      </trkpt>
      <trkpt lat="45.73378" lon="4.85034">
        <ele>174.8</ele>
        <time>2019-04-15T03:15:10Z</time>
      </trkpt>
      <trkpt lat="45.73352" lon="4.85032">
        <ele>175.4</ele>
        <time>2019-04-15T03:15:14Z</time>
      </trkpt>
      <trkpt lat="45.73325" lon="4.8503">
        <ele>175.4</ele>
        <time>2019-04-15T03:15:18Z</time>
      </trkpt>
      <trkpt lat="45.73297" lon="4.85031">
        <ele>175</ele>
        <time>2019-04-15T03:15:22Z</time>
      </trkpt>
      <trkpt lat="45.7327" lon="4.85035">
        <ele>175.2</ele>
        <time>2019-04-15T03:15:26Z</time>
      </trkpt>
      <trkpt lat="45.73247" lon="4.85054">
        <ele>174.8</ele>
        <time>2019-04-15T03:15:30Z</time>
      </trkpt>
      <trkpt lat="45.73231" lon="4.85086">
        <ele>174.8</ele>
        <time>2019-04-15T03:15:34Z</time>
      </trkpt>
      <trkpt lat="45.73216" lon="4.85119">
        <ele>175</ele>
        <time>2019-04-15T03:15:38Z</time>
      </trkpt>
      <trkpt lat="45.73201" lon="4.85151">
        <ele>174.8</ele>
        <time>2019-04-15T03:15:42Z</time>
      </trkpt>
      <trkpt lat="45.73187" lon="4.85185">
        <ele>174.6</ele>
        <time>2019-04-15T03:15:46Z</time>
      </trkpt>
      <trkpt lat="45.7318" lon="4.8522">
        <ele>174.6</ele>
        <time>2019-04-15T03:15:50Z</time>
      </trkpt>
      <trkpt lat="45.73184" lon="4.85257">
        <ele>174.6</ele>
        <time>2019-04-15T03:15:54Z</time>
      </trkpt>
      <trkpt lat="45.7319" lon="4.85291">
        <ele>174.6</ele>
        <time>2019-04-15T03:15:58Z</time>
      </trkpt>
      <trkpt lat="45.73196" lon="4.85324">
        <ele>173.8</ele>
        <time>2019-04-15T03:16:02Z</time>
      </trkpt>
      <trkpt lat="45.73195" lon="4.85349">
        <ele>174.8</ele>
        <time>2019-04-15T03:16:06Z</time>
      </trkpt>
      <trkpt lat="45.73176" lon="4.85349">
        <ele>174.2</ele>
        <time>2019-04-15T03:16:10Z</time>
      </trkpt>
      <trkpt lat="45.73153" lon="4.85354">
        <ele>175</ele>
        <time>2019-04-15T03:16:14Z</time>
      </trkpt>
      <trkpt lat="45.73127" lon="4.85359">
        <ele>175</ele>
        <time>2019-04-15T03:16:18Z</time>
      </trkpt>
      <trkpt lat="45.73099" lon="4.85362">
        <ele>175.2</ele>
        <time>2019-04-15T03:16:22Z</time>
      </trkpt>
      <trkpt lat="45.73071" lon="4.85365">
        <ele>175.6</ele>
        <time>2019-04-15T03:16:26Z</time>
      </trkpt>
      <trkpt lat="45.73045" lon="4.85364">
        <ele>175.8</ele>
        <time>2019-04-15T03:16:30Z</time>
      </trkpt>
      <trkpt lat="45.73019" lon="4.85366">
        <ele>176.4</ele>
        <time>2019-04-15T03:16:34Z</time>
      </trkpt>
      <trkpt lat="45.72996" lon="4.85368">
        <ele>177</ele>
        <time>2019-04-15T03:16:38Z</time>
      </trkpt>
      <trkpt lat="45.72973" lon="4.8537">
        <ele>177.6</ele>
        <time>2019-04-15T03:16:42Z</time>
      </trkpt>
      <trkpt lat="45.7295" lon="4.85369">
        <ele>178</ele>
        <time>2019-04-15T03:16:46Z</time>
      </trkpt>
      <trkpt lat="45.72924" lon="4.85372">
        <ele>177.6</ele>
        <time>2019-04-15T03:16:50Z</time>
      </trkpt>
      <trkpt lat="45.72895" lon="4.85374">
        <ele>177.6</ele>
        <time>2019-04-15T03:16:54Z</time>
      </trkpt>
      <trkpt lat="45.72866" lon="4.85374">
        <ele>177.6</ele>
        <time>2019-04-15T03:16:58Z</time>
      </trkpt>
      <trkpt lat="45.72836" lon="4.85375">
        <ele>177.4</ele>
        <time>2019-04-15T03:17:02Z</time>
      </trkpt>
      <trkpt lat="45.72806" lon="4.85377">
        <ele>176.8</ele>
        <time>2019-04-15T03:17:06Z</time>
      </trkpt>
      <trkpt lat="45.72777" lon="4.85379">
        <ele>176.6</ele>
        <time>2019-04-15T03:17:10Z</time>
      </trkpt>
      <trkpt lat="45.72747" lon="4.8538">
        <ele>176.6</ele>
        <time>2019-04-15T03:17:14Z</time>
      </trkpt>
      <trkpt lat="45.72718" lon="4.85382">
        <ele>176.8</ele>
        <time>2019-04-15T03:17:18Z</time>
      </trkpt>
      <trkpt lat="45.7269" lon="4.85385">
        <ele>177.2</ele>
        <time>2019-04-15T03:17:22Z</time>
      </trkpt>
      <trkpt lat="45.72666" lon="4.85387">
        <ele>176.2</ele>
        <time>2019-04-15T03:17:26Z</time>
      </trkpt>
      <trkpt lat="45.72638" lon="4.85386">
        <ele>176.6</ele>
        <time>2019-04-15T03:17:30Z</time>
      </trkpt>
      <trkpt lat="45.72609" lon="4.85388">
        <ele>176.8</ele>
        <time>2019-04-15T03:17:34Z</time>
      </trkpt>
      <trkpt lat="45.72579" lon="4.8539">
        <ele>176.4</ele>
        <time>2019-04-15T03:17:38Z</time>
      </trkpt>
      <trkpt lat="45.7255" lon="4.85392">
        <ele>176.4</ele>
        <time>2019-04-15T03:17:42Z</time>
      </trkpt>
      <trkpt lat="45.72521" lon="4.85394">
        <ele>176.4</ele>
        <time>2019-04-15T03:17:46Z</time>
      </trkpt>
      <trkpt lat="45.72492" lon="4.85396">
        <ele>176.4</ele>
        <time>2019-04-15T03:17:50Z</time>
      </trkpt>
      <trkpt lat="45.72462" lon="4.85399">
        <ele>176.8</ele>
        <time>2019-04-15T03:17:54Z</time>
      </trkpt>
      <trkpt lat="45.72433" lon="4.854">
        <ele>176.6</ele>
        <time>2019-04-15T03:17:58Z</time>
      </trkpt>
      <trkpt lat="45.72403" lon="4.85402">
        <ele>176.4</ele>
        <time>2019-04-15T03:18:02Z</time>
      </trkpt>
      <trkpt lat="45.72374" lon="4.85405">
        <ele>176.4</ele>
        <time>2019-04-15T03:18:06Z</time>
      </trkpt>
      <trkpt lat="45.72345" lon="4.85407">
        <ele>176.4</ele>
        <time>2019-04-15T03:18:10Z</time>
      </trkpt>
      <trkpt lat="45.72316" lon="4.85409">
        <ele>176.6</ele>
        <time>2019-04-15T03:18:14Z</time>
      </trkpt>
      <trkpt lat="45.72288" lon="4.85411">
        <ele>176.4</ele>
        <time>2019-04-15T03:18:18Z</time>
      </trkpt>
      <trkpt lat="45.7226" lon="4.85412">
        <ele>176.8</ele>
        <time>2019-04-15T03:18:22Z</time>
      </trkpt>
      <trkpt lat="45.72232" lon="4.85414">
        <ele>176.8</ele>
        <time>2019-04-15T03:18:26Z</time>
      </trkpt>
      <trkpt lat="45.72204" lon="4.85415">
        <ele>176.8</ele>
        <time>2019-04-15T03:18:30Z</time>
      </trkpt>
      <trkpt lat="45.72175" lon="4.85417">
        <ele>177</ele>
        <time>2019-04-15T03:18:34Z</time>
      </trkpt>
      <trkpt lat="45.72147" lon="4.8542">
        <ele>176.8</ele>
        <time>2019-04-15T03:18:38Z</time>
      </trkpt>
      <trkpt lat="45.72118" lon="4.85423">
        <ele>177.4</ele>
        <time>2019-04-15T03:18:42Z</time>
      </trkpt>
      <trkpt lat="45.7209" lon="4.85425">
        <ele>177.4</ele>
        <time>2019-04-15T03:18:46Z</time>
      </trkpt>
      <trkpt lat="45.72061" lon="4.85429">
        <ele>177.4</ele>
        <time>2019-04-15T03:18:50Z</time>
      </trkpt>
      <trkpt lat="45.72033" lon="4.85431">
        <ele>177.4</ele>
        <time>2019-04-15T03:18:54Z</time>
      </trkpt>
      <trkpt lat="45.72005" lon="4.85434">
        <ele>177.4</ele>
        <time>2019-04-15T03:18:58Z</time>
      </trkpt>
      <trkpt lat="45.71978" lon="4.85436">
        <ele>177.6</ele>
        <time>2019-04-15T03:19:02Z</time>
      </trkpt>
      <trkpt lat="45.71953" lon="4.85438">
        <ele>177.6</ele>
        <time>2019-04-15T03:19:06Z</time>
      </trkpt>
      <trkpt lat="45.71944" lon="4.85439">
        <ele>177.4</ele>
        <time>2019-04-15T03:19:10Z</time>
      </trkpt>
      <trkpt lat="45.71938" lon="4.85437">
        <ele>177.4</ele>
        <time>2019-04-15T03:19:14Z</time>
      </trkpt>
      <trkpt lat="45.71922" lon="4.85442">
        <ele>177.6</ele>
        <time>2019-04-15T03:19:18Z</time>
      </trkpt>
      <trkpt lat="45.719" lon="4.85441">
        <ele>177.4</ele>
        <time>2019-04-15T03:19:22Z</time>
      </trkpt>
      <trkpt lat="45.71876" lon="4.85443">
        <ele>177.6</ele>
        <time>2019-04-15T03:19:26Z</time>
      </trkpt>
      <trkpt lat="45.71851" lon="4.85447">
        <ele>178</ele>
        <time>2019-04-15T03:19:30Z</time>
      </trkpt>
      <trkpt lat="45.71825" lon="4.8545">
        <ele>178.2</ele>
        <time>2019-04-15T03:19:34Z</time>
      </trkpt>
      <trkpt lat="45.71799" lon="4.85453">
        <ele>178.4</ele>
        <time>2019-04-15T03:19:38Z</time>
      </trkpt>
      <trkpt lat="45.71774" lon="4.85455">
        <ele>178.4</ele>
        <time>2019-04-15T03:19:42Z</time>
      </trkpt>
      <trkpt lat="45.7175" lon="4.85455">
        <ele>178.2</ele>
        <time>2019-04-15T03:19:46Z</time>
      </trkpt>
      <trkpt lat="45.71732" lon="4.85455">
        <ele>178.4</ele>
        <time>2019-04-15T03:19:50Z</time>
      </trkpt>
      <trkpt lat="45.71717" lon="4.85457">
        <ele>178.6</ele>
        <time>2019-04-15T03:19:54Z</time>
      </trkpt>
      <trkpt lat="45.71696" lon="4.8546">
        <ele>179.4</ele>
        <time>2019-04-15T03:19:58Z</time>
      </trkpt>
      <trkpt lat="45.71675" lon="4.85464">
        <ele>178.6</ele>
        <time>2019-04-15T03:20:02Z</time>
      </trkpt>
      <trkpt lat="45.7165" lon="4.85465">
        <ele>179.4</ele>
        <time>2019-04-15T03:20:06Z</time>
      </trkpt>
      <trkpt lat="45.71624" lon="4.8547">
        <ele>179.6</ele>
        <time>2019-04-15T03:20:10Z</time>
      </trkpt>
      <trkpt lat="45.71599" lon="4.85473">
        <ele>180</ele>
        <time>2019-04-15T03:20:14Z</time>
      </trkpt>
      <trkpt lat="45.71574" lon="4.85477">
        <ele>181</ele>
        <time>2019-04-15T03:20:18Z</time>
      </trkpt>
      <trkpt lat="45.71548" lon="4.8548">
        <ele>180.4</ele>
        <time>2019-04-15T03:20:22Z</time>
      </trkpt>
      <trkpt lat="45.7152" lon="4.85483">
        <ele>180.8</ele>
        <time>2019-04-15T03:20:26Z</time>
      </trkpt>
      <trkpt lat="45.71488" lon="4.85486">
        <ele>179.4</ele>
        <time>2019-04-15T03:20:30Z</time>
      </trkpt>
      <trkpt lat="45.71456" lon="4.85489">
        <ele>179.8</ele>
        <time>2019-04-15T03:20:34Z</time>
      </trkpt>
      <trkpt lat="45.71424" lon="4.85492">
        <ele>179.2</ele>
        <time>2019-04-15T03:20:38Z</time>
      </trkpt>
      <trkpt lat="45.71392" lon="4.85495">
        <ele>179.6</ele>
        <time>2019-04-15T03:20:42Z</time>
      </trkpt>
      <trkpt lat="45.71362" lon="4.85497">
        <ele>178.8</ele>
        <time>2019-04-15T03:20:46Z</time>
      </trkpt>
      <trkpt lat="45.71332" lon="4.85499">
        <ele>179.4</ele>
        <time>2019-04-15T03:20:50Z</time>
      </trkpt>
      <trkpt lat="45.71303" lon="4.85501">
        <ele>179.2</ele>
        <time>2019-04-15T03:20:54Z</time>
      </trkpt>
      <trkpt lat="45.71274" lon="4.85502">
        <ele>179.4</ele>
        <time>2019-04-15T03:20:58Z</time>
      </trkpt>
      <trkpt lat="45.71246" lon="4.85505">
        <ele>179.2</ele>
        <time>2019-04-15T03:21:02Z</time>
      </trkpt>
      <trkpt lat="45.71226" lon="4.85506">
        <ele>179</ele>
        <time>2019-04-15T03:21:06Z</time>
      </trkpt>
      <trkpt lat="45.71216" lon="4.85506">
        <ele>178.4</ele>
        <time>2019-04-15T03:21:10Z</time>
      </trkpt>
      <trkpt lat="45.712" lon="4.85507">
        <ele>178.4</ele>
        <time>2019-04-15T03:21:14Z</time>
      </trkpt>
      <trkpt lat="45.71178" lon="4.85509">
        <ele>178.4</ele>
        <time>2019-04-15T03:21:18Z</time>
      </trkpt>
      <trkpt lat="45.71151" lon="4.85511">
        <ele>178.6</ele>
        <time>2019-04-15T03:21:22Z</time>
      </trkpt>
      <trkpt lat="45.71124" lon="4.8551">
        <ele>178.4</ele>
        <time>2019-04-15T03:21:26Z</time>
      </trkpt>
      <trkpt lat="45.71096" lon="4.85513">
        <ele>178.8</ele>
        <time>2019-04-15T03:21:30Z</time>
      </trkpt>
      <trkpt lat="45.71068" lon="4.85514">
        <ele>178.2</ele>
        <time>2019-04-15T03:21:34Z</time>
      </trkpt>
      <trkpt lat="45.71039" lon="4.85515">
        <ele>178</ele>
        <time>2019-04-15T03:21:38Z</time>
      </trkpt>
      <trkpt lat="45.71009" lon="4.85516">
        <ele>178</ele>
        <time>2019-04-15T03:21:42Z</time>
      </trkpt>
      <trkpt lat="45.70979" lon="4.85517">
        <ele>177.6</ele>
        <time>2019-04-15T03:21:46Z</time>
      </trkpt>
      <trkpt lat="45.70949" lon="4.85519">
        <ele>177.8</ele>
        <time>2019-04-15T03:21:50Z</time>
      </trkpt>
      <trkpt lat="45.7092" lon="4.85521">
        <ele>177.4</ele>
        <time>2019-04-15T03:21:54Z</time>
      </trkpt>
      <trkpt lat="45.70892" lon="4.85523">
        <ele>177.2</ele>
        <time>2019-04-15T03:21:58Z</time>
      </trkpt>
      <trkpt lat="45.70865" lon="4.85523">
        <ele>177.4</ele>
        <time>2019-04-15T03:22:02Z</time>
      </trkpt>
      <trkpt lat="45.70849" lon="4.85522">
        <ele>177.4</ele>
        <time>2019-04-15T03:22:06Z</time>
      </trkpt>
      <trkpt lat="45.7083" lon="4.85525">
        <ele>177.4</ele>
        <time>2019-04-15T03:22:10Z</time>
      </trkpt>
      <trkpt lat="45.70806" lon="4.85528">
        <ele>177.6</ele>
        <time>2019-04-15T03:22:14Z</time>
      </trkpt>
      <trkpt lat="45.70781" lon="4.85528">
        <ele>178.6</ele>
        <time>2019-04-15T03:22:18Z</time>
      </trkpt>
      <trkpt lat="45.70755" lon="4.85528">
        <ele>179</ele>
        <time>2019-04-15T03:22:22Z</time>
      </trkpt>
      <trkpt lat="45.70728" lon="4.85529">
        <ele>178.8</ele>
        <time>2019-04-15T03:22:26Z</time>
      </trkpt>
      <trkpt lat="45.70702" lon="4.85529">
        <ele>179.4</ele>
        <time>2019-04-15T03:22:30Z</time>
      </trkpt>
      <trkpt lat="45.70675" lon="4.85531">
        <ele>179</ele>
        <time>2019-04-15T03:22:34Z</time>
      </trkpt>
      <trkpt lat="45.70647" lon="4.85532">
        <ele>178.4</ele>
        <time>2019-04-15T03:22:38Z</time>
      </trkpt>
      <trkpt lat="45.70622" lon="4.85535">
        <ele>178.4</ele>
        <time>2019-04-15T03:22:42Z</time>
      </trkpt>
      <trkpt lat="45.70598" lon="4.85535">
        <ele>178.2</ele>
        <time>2019-04-15T03:22:46Z</time>
      </trkpt>
      <trkpt lat="45.70579" lon="4.85535">
        <ele>177.4</ele>
        <time>2019-04-15T03:22:50Z</time>
      </trkpt>
      <trkpt lat="45.70579" lon="4.85535">
        <ele>177.4</ele>
        <time>2019-04-15T03:22:54Z</time>
      </trkpt>
      <trkpt lat="45.70579" lon="4.85535">
        <ele>177.4</ele>
        <time>2019-04-15T03:22:58Z</time>
      </trkpt>
      <trkpt lat="45.70579" lon="4.85535">
        <ele>177.4</ele>
        <time>2019-04-15T03:23:02Z</time>
      </trkpt>
      <trkpt lat="45.70579" lon="4.85535">
        <ele>177.4</ele>
        <time>2019-04-15T03:23:06Z</time>
      </trkpt>
      <trkpt lat="45.70579" lon="4.85535">
        <ele>177.4</ele>
        <time>2019-04-15T03:23:10Z</time>
      </trkpt>
      <trkpt lat="45.70574" lon="4.85541">
        <ele>177.4</ele>
        <time>2019-04-15T03:23:14Z</time>
      </trkpt>
      <trkpt lat="45.70563" lon="4.85542">
        <ele>178.2</ele>
        <time>2019-04-15T03:23:18Z</time>
      </trkpt>
      <trkpt lat="45.70552" lon="4.85562">
        <ele>178.8</ele>
        <time>2019-04-15T03:23:22Z</time>
      </trkpt>
      <trkpt lat="45.7055" lon="4.85589">
        <ele>179.2</ele>
        <time>2019-04-15T03:23:26Z</time>
      </trkpt>
      <trkpt lat="45.7055" lon="4.85617">
        <ele>180.6</ele>
        <time>2019-04-15T03:23:30Z</time>
      </trkpt>
      <trkpt lat="45.70547" lon="4.85633">
        <ele>181.2</ele>
        <time>2019-04-15T03:23:34Z</time>
      </trkpt>
      <trkpt lat="45.70538" lon="4.85648">
        <ele>182</ele>
        <time>2019-04-15T03:23:38Z</time>
      </trkpt>
      <trkpt lat="45.70524" lon="4.85662">
        <ele>182.4</ele>
        <time>2019-04-15T03:23:42Z</time>
      </trkpt>
      <trkpt lat="45.70505" lon="4.85674">
        <ele>182.8</ele>
        <time>2019-04-15T03:23:46Z</time>
      </trkpt>
      <trkpt lat="45.70483" lon="4.85677">
        <ele>184.4</ele>
        <time>2019-04-15T03:23:50Z</time>
      </trkpt>
      <trkpt lat="45.70462" lon="4.85677">
        <ele>186</ele>
        <time>2019-04-15T03:23:54Z</time>
      </trkpt>
      <trkpt lat="45.70441" lon="4.85671">
        <ele>186</ele>
        <time>2019-04-15T03:23:58Z</time>
      </trkpt>
      <trkpt lat="45.70422" lon="4.85658">
        <ele>187.4</ele>
        <time>2019-04-15T03:24:02Z</time>
      </trkpt>
      <trkpt lat="45.70402" lon="4.85647">
        <ele>188.6</ele>
        <time>2019-04-15T03:24:06Z</time>
      </trkpt>
      <trkpt lat="45.70382" lon="4.85634">
        <ele>189.6</ele>
        <time>2019-04-15T03:24:10Z</time>
      </trkpt>
      <trkpt lat="45.70362" lon="4.85623">
        <ele>190.6</ele>
        <time>2019-04-15T03:24:14Z</time>
      </trkpt>
      <trkpt lat="45.70342" lon="4.8561">
        <ele>190.8</ele>
        <time>2019-04-15T03:24:18Z</time>
      </trkpt>
      <trkpt lat="45.70323" lon="4.85598">
        <ele>192.4</ele>
        <time>2019-04-15T03:24:22Z</time>
      </trkpt>
      <trkpt lat="45.70304" lon="4.85585">
        <ele>193</ele>
        <time>2019-04-15T03:24:26Z</time>
      </trkpt>
      <trkpt lat="45.70284" lon="4.85572">
        <ele>194</ele>
        <time>2019-04-15T03:24:30Z</time>
      </trkpt>
      <trkpt lat="45.70265" lon="4.8556">
        <ele>195</ele>
        <time>2019-04-15T03:24:34Z</time>
      </trkpt>
      <trkpt lat="45.70245" lon="4.85548">
        <ele>195.2</ele>
        <time>2019-04-15T03:24:38Z</time>
      </trkpt>
      <trkpt lat="45.70224" lon="4.85542">
        <ele>196.2</ele>
        <time>2019-04-15T03:24:42Z</time>
      </trkpt>
      <trkpt lat="45.70202" lon="4.85541">
        <ele>197.2</ele>
        <time>2019-04-15T03:24:46Z</time>
      </trkpt>
      <trkpt lat="45.70181" lon="4.85546">
        <ele>197.8</ele>
        <time>2019-04-15T03:24:50Z</time>
      </trkpt>
      <trkpt lat="45.7016" lon="4.85556">
        <ele>197.8</ele>
        <time>2019-04-15T03:24:54Z</time>
      </trkpt>
      <trkpt lat="45.70139" lon="4.85568">
        <ele>198.8</ele>
        <time>2019-04-15T03:24:58Z</time>
      </trkpt>
      <trkpt lat="45.70119" lon="4.85579">
        <ele>199.4</ele>
        <time>2019-04-15T03:25:02Z</time>
      </trkpt>
      <trkpt lat="45.70099" lon="4.85591">
        <ele>200</ele>
        <time>2019-04-15T03:25:06Z</time>
      </trkpt>
      <trkpt lat="45.70079" lon="4.85601">
        <ele>201</ele>
        <time>2019-04-15T03:25:10Z</time>
      </trkpt>
      <trkpt lat="45.70058" lon="4.85613">
        <ele>202.4</ele>
        <time>2019-04-15T03:25:14Z</time>
      </trkpt>
      <trkpt lat="45.70038" lon="4.85624">
        <ele>203</ele>
        <time>2019-04-15T03:25:18Z</time>
      </trkpt>
      <trkpt lat="45.70018" lon="4.85635">
        <ele>203.8</ele>
        <time>2019-04-15T03:25:22Z</time>
      </trkpt>
      <trkpt lat="45.69998" lon="4.85647">
        <ele>205.2</ele>
        <time>2019-04-15T03:25:26Z</time>
      </trkpt>
      <trkpt lat="45.69978" lon="4.85659">
        <ele>205.8</ele>
        <time>2019-04-15T03:25:30Z</time>
      </trkpt>
      <trkpt lat="45.69959" lon="4.85673">
        <ele>206.8</ele>
        <time>2019-04-15T03:25:34Z</time>
      </trkpt>
      <trkpt lat="45.69939" lon="4.85687">
        <ele>207.8</ele>
        <time>2019-04-15T03:25:38Z</time>
      </trkpt>
      <trkpt lat="45.6992" lon="4.85701">
        <ele>208</ele>
        <time>2019-04-15T03:25:42Z</time>
      </trkpt>
      <trkpt lat="45.699" lon="4.85715">
        <ele>209</ele>
        <time>2019-04-15T03:25:46Z</time>
      </trkpt>
      <trkpt lat="45.69881" lon="4.85729">
        <ele>209.6</ele>
        <time>2019-04-15T03:25:50Z</time>
      </trkpt>
      <trkpt lat="45.69862" lon="4.85743">
        <ele>210.4</ele>
        <time>2019-04-15T03:25:54Z</time>
      </trkpt>
      <trkpt lat="45.69843" lon="4.85757">
        <ele>211.8</ele>
        <time>2019-04-15T03:25:58Z</time>
      </trkpt>
      <trkpt lat="45.69823" lon="4.8577">
        <ele>212.4</ele>
        <time>2019-04-15T03:26:02Z</time>
      </trkpt>
      <trkpt lat="45.69803" lon="4.85781">
        <ele>213.4</ele>
        <time>2019-04-15T03:26:06Z</time>
      </trkpt>
      <trkpt lat="45.69782" lon="4.85791">
        <ele>214</ele>
        <time>2019-04-15T03:26:10Z</time>
      </trkpt>
      <trkpt lat="45.69761" lon="4.85801">
        <ele>215.2</ele>
        <time>2019-04-15T03:26:14Z</time>
      </trkpt>
      <trkpt lat="45.69736" lon="4.85812">
        <ele>216</ele>
        <time>2019-04-15T03:26:18Z</time>
      </trkpt>
      <trkpt lat="45.6971" lon="4.85824">
        <ele>215.8</ele>
        <time>2019-04-15T03:26:22Z</time>
      </trkpt>
      <trkpt lat="45.69681" lon="4.85838">
        <ele>214.6</ele>
        <time>2019-04-15T03:26:26Z</time>
      </trkpt>
      <trkpt lat="45.69651" lon="4.85853">
        <ele>213.8</ele>
        <time>2019-04-15T03:26:30Z</time>
      </trkpt>
      <trkpt lat="45.69622" lon="4.85867">
        <ele>213</ele>
        <time>2019-04-15T03:26:34Z</time>
      </trkpt>
      <trkpt lat="45.69592" lon="4.8588">
        <ele>212.4</ele>
        <time>2019-04-15T03:26:38Z</time>
      </trkpt>
      <trkpt lat="45.6957" lon="4.85891">
        <ele>211.4</ele>
        <time>2019-04-15T03:26:42Z</time>
      </trkpt>
      <trkpt lat="45.69558" lon="4.85894">
        <ele>210.6</ele>
        <time>2019-04-15T03:26:46Z</time>
      </trkpt>
      <trkpt lat="45.6954" lon="4.85904">
        <ele>210.2</ele>
        <time>2019-04-15T03:26:50Z</time>
      </trkpt>
      <trkpt lat="45.69514" lon="4.85916">
        <ele>209.4</ele>
        <time>2019-04-15T03:26:54Z</time>
      </trkpt>
      <trkpt lat="45.69486" lon="4.85929">
        <ele>209.6</ele>
        <time>2019-04-15T03:26:58Z</time>
      </trkpt>
      <trkpt lat="45.69458" lon="4.85942">
        <ele>208.6</ele>
        <time>2019-04-15T03:27:02Z</time>
      </trkpt>
      <trkpt lat="45.69429" lon="4.85955">
        <ele>208.2</ele>
        <time>2019-04-15T03:27:06Z</time>
      </trkpt>
      <trkpt lat="45.69399" lon="4.85969">
        <ele>207.4</ele>
        <time>2019-04-15T03:27:10Z</time>
      </trkpt>
      <trkpt lat="45.69368" lon="4.85982">
        <ele>207.4</ele>
        <time>2019-04-15T03:27:14Z</time>
      </trkpt>
      <trkpt lat="45.69339" lon="4.85996">
        <ele>207.6</ele>
        <time>2019-04-15T03:27:18Z</time>
      </trkpt>
      <trkpt lat="45.6931" lon="4.86011">
        <ele>206.8</ele>
        <time>2019-04-15T03:27:22Z</time>
      </trkpt>
      <trkpt lat="45.69283" lon="4.86026">
        <ele>207.2</ele>
        <time>2019-04-15T03:27:26Z</time>
      </trkpt>
      <trkpt lat="45.69254" lon="4.86042">
        <ele>207.4</ele>
        <time>2019-04-15T03:27:30Z</time>
      </trkpt>
      <trkpt lat="45.69227" lon="4.86057">
        <ele>207.6</ele>
        <time>2019-04-15T03:27:34Z</time>
      </trkpt>
      <trkpt lat="45.692" lon="4.86072">
        <ele>207.8</ele>
        <time>2019-04-15T03:27:38Z</time>
      </trkpt>
      <trkpt lat="45.69173" lon="4.86088">
        <ele>207.6</ele>
        <time>2019-04-15T03:27:42Z</time>
      </trkpt>
      <trkpt lat="45.69148" lon="4.86104">
        <ele>208.8</ele>
        <time>2019-04-15T03:27:46Z</time>
      </trkpt>
      <trkpt lat="45.69121" lon="4.86122">
        <ele>208</ele>
        <time>2019-04-15T03:27:50Z</time>
      </trkpt>
      <trkpt lat="45.69093" lon="4.86141">
        <ele>207.2</ele>
        <time>2019-04-15T03:27:54Z</time>
      </trkpt>
      <trkpt lat="45.69061" lon="4.86155">
        <ele>206.2</ele>
        <time>2019-04-15T03:27:58Z</time>
      </trkpt>
      <trkpt lat="45.69028" lon="4.86163">
        <ele>204.8</ele>
        <time>2019-04-15T03:28:02Z</time>
      </trkpt>
      <trkpt lat="45.68993" lon="4.86167">
        <ele>204</ele>
        <time>2019-04-15T03:28:06Z</time>
      </trkpt>
      <trkpt lat="45.68958" lon="4.86168">
        <ele>203</ele>
        <time>2019-04-15T03:28:10Z</time>
      </trkpt>
      <trkpt lat="45.68922" lon="4.86167">
        <ele>202.4</ele>
        <time>2019-04-15T03:28:14Z</time>
      </trkpt>
      <trkpt lat="45.68885" lon="4.86164">
        <ele>200.8</ele>
        <time>2019-04-15T03:28:18Z</time>
      </trkpt>
      <trkpt lat="45.68848" lon="4.8616">
        <ele>200.2</ele>
        <time>2019-04-15T03:28:22Z</time>
      </trkpt>
      <trkpt lat="45.68813" lon="4.86156">
        <ele>199</ele>
        <time>2019-04-15T03:28:26Z</time>
      </trkpt>
      <trkpt lat="45.68779" lon="4.8615">
        <ele>198.2</ele>
        <time>2019-04-15T03:28:30Z</time>
      </trkpt>
      <trkpt lat="45.68746" lon="4.86142">
        <ele>197.8</ele>
        <time>2019-04-15T03:28:34Z</time>
      </trkpt>
      <trkpt lat="45.68718" lon="4.86131">
        <ele>197.8</ele>
        <time>2019-04-15T03:28:38Z</time>
      </trkpt>
      <trkpt lat="45.68694" lon="4.86114">
        <ele>198.2</ele>
        <time>2019-04-15T03:28:42Z</time>
      </trkpt>
      <trkpt lat="45.68669" lon="4.86108">
        <ele>198.2</ele>
        <time>2019-04-15T03:28:46Z</time>
      </trkpt>
      <trkpt lat="45.68642" lon="4.86102">
        <ele>198.6</ele>
        <time>2019-04-15T03:28:50Z</time>
      </trkpt>
      <trkpt lat="45.68615" lon="4.86099">
        <ele>198.4</ele>
        <time>2019-04-15T03:28:54Z</time>
      </trkpt>
      <trkpt lat="45.68589" lon="4.86096">
        <ele>198.8</ele>
        <time>2019-04-15T03:28:58Z</time>
      </trkpt>
      <trkpt lat="45.68564" lon="4.86085">
        <ele>198.4</ele>
        <time>2019-04-15T03:29:02Z</time>
      </trkpt>
      <trkpt lat="45.68539" lon="4.86087">
        <ele>198.4</ele>
        <time>2019-04-15T03:29:06Z</time>
      </trkpt>
      <trkpt lat="45.68513" lon="4.86099">
        <ele>199.2</ele>
        <time>2019-04-15T03:29:10Z</time>
      </trkpt>
      <trkpt lat="45.68487" lon="4.86106">
        <ele>198.8</ele>
        <time>2019-04-15T03:29:14Z</time>
      </trkpt>
      <trkpt lat="45.6846" lon="4.86114">
        <ele>199.2</ele>
        <time>2019-04-15T03:29:18Z</time>
      </trkpt>
      <trkpt lat="45.68433" lon="4.86119">
        <ele>199.2</ele>
        <time>2019-04-15T03:29:22Z</time>
      </trkpt>
      <trkpt lat="45.68405" lon="4.8612">
        <ele>199.4</ele>
        <time>2019-04-15T03:29:26Z</time>
      </trkpt>
      <trkpt lat="45.68377" lon="4.86122">
        <ele>199.4</ele>
        <time>2019-04-15T03:29:30Z</time>
      </trkpt>
      <trkpt lat="45.6835" lon="4.86128">
        <ele>199.4</ele>
        <time>2019-04-15T03:29:34Z</time>
      </trkpt>
      <trkpt lat="45.68323" lon="4.86133">
        <ele>200.2</ele>
        <time>2019-04-15T03:29:38Z</time>
      </trkpt>
      <trkpt lat="45.68295" lon="4.86138">
        <ele>200.2</ele>
        <time>2019-04-15T03:29:42Z</time>
      </trkpt>
      <trkpt lat="45.68267" lon="4.86145">
        <ele>200.4</ele>
        <time>2019-04-15T03:29:46Z</time>
      </trkpt>
      <trkpt lat="45.6824" lon="4.86151">
        <ele>201</ele>
        <time>2019-04-15T03:29:50Z</time>
      </trkpt>
      <trkpt lat="45.68212" lon="4.86154">
        <ele>202</ele>
        <time>2019-04-15T03:29:54Z</time>
      </trkpt>
      <trkpt lat="45.68185" lon="4.86153">
        <ele>202</ele>
        <time>2019-04-15T03:29:58Z</time>
      </trkpt>
      <trkpt lat="45.68157" lon="4.8615">
        <ele>203</ele>
        <time>2019-04-15T03:30:02Z</time>
      </trkpt>
      <trkpt lat="45.68132" lon="4.86144">
        <ele>203.6</ele>
        <time>2019-04-15T03:30:06Z</time>
      </trkpt>
      <trkpt lat="45.68107" lon="4.86138">
        <ele>203.8</ele>
        <time>2019-04-15T03:30:10Z</time>
      </trkpt>
      <trkpt lat="45.68082" lon="4.86131">
        <ele>204.4</ele>
        <time>2019-04-15T03:30:14Z</time>
      </trkpt>
      <trkpt lat="45.68058" lon="4.86125">
        <ele>204.4</ele>
        <time>2019-04-15T03:30:18Z</time>
      </trkpt>
      <trkpt lat="45.68034" lon="4.8612">
        <ele>205.4</ele>
        <time>2019-04-15T03:30:22Z</time>
      </trkpt>
      <trkpt lat="45.6801" lon="4.86118">
        <ele>206.4</ele>
        <time>2019-04-15T03:30:26Z</time>
      </trkpt>
      <trkpt lat="45.67987" lon="4.86117">
        <ele>207.2</ele>
        <time>2019-04-15T03:30:30Z</time>
      </trkpt>
      <trkpt lat="45.67963" lon="4.86116">
        <ele>207.4</ele>
        <time>2019-04-15T03:30:34Z</time>
      </trkpt>
      <trkpt lat="45.6794" lon="4.86114">
        <ele>208</ele>
        <time>2019-04-15T03:30:38Z</time>
      </trkpt>
      <trkpt lat="45.67917" lon="4.86112">
        <ele>209.2</ele>
        <time>2019-04-15T03:30:42Z</time>
      </trkpt>
      <trkpt lat="45.67894" lon="4.86111">
        <ele>210.2</ele>
        <time>2019-04-15T03:30:46Z</time>
      </trkpt>
      <trkpt lat="45.67872" lon="4.86109">
        <ele>211</ele>
        <time>2019-04-15T03:30:50Z</time>
      </trkpt>
      <trkpt lat="45.67852" lon="4.86108">
        <ele>212.6</ele>
        <time>2019-04-15T03:30:54Z</time>
      </trkpt>
      <trkpt lat="45.67831" lon="4.86107">
        <ele>212.6</ele>
        <time>2019-04-15T03:30:58Z</time>
      </trkpt>
      <trkpt lat="45.6781" lon="4.86106">
        <ele>214.6</ele>
        <time>2019-04-15T03:31:02Z</time>
      </trkpt>
      <trkpt lat="45.6779" lon="4.86105">
        <ele>215.4</ele>
        <time>2019-04-15T03:31:06Z</time>
      </trkpt>
      <trkpt lat="45.67777" lon="4.86105">
        <ele>216.2</ele>
        <time>2019-04-15T03:31:10Z</time>
      </trkpt>
      <trkpt lat="45.6777" lon="4.86104">
        <ele>216.8</ele>
        <time>2019-04-15T03:31:14Z</time>
      </trkpt>
      <trkpt lat="45.67762" lon="4.86102">
        <ele>217.2</ele>
        <time>2019-04-15T03:31:18Z</time>
      </trkpt>
      <trkpt lat="45.67748" lon="4.86101">
        <ele>217.4</ele>
        <time>2019-04-15T03:31:22Z</time>
      </trkpt>
      <trkpt lat="45.67731" lon="4.86099">
        <ele>218.4</ele>
        <time>2019-04-15T03:31:26Z</time>
      </trkpt>
      <trkpt lat="45.67712" lon="4.86098">
        <ele>218.8</ele>
        <time>2019-04-15T03:31:30Z</time>
      </trkpt>
      <trkpt lat="45.67692" lon="4.86096">
        <ele>219.6</ele>
        <time>2019-04-15T03:31:34Z</time>
      </trkpt>
      <trkpt lat="45.67671" lon="4.86092">
        <ele>220.2</ele>
        <time>2019-04-15T03:31:38Z</time>
      </trkpt>
      <trkpt lat="45.6765" lon="4.8609">
        <ele>221.4</ele>
        <time>2019-04-15T03:31:42Z</time>
      </trkpt>
      <trkpt lat="45.6763" lon="4.86088">
        <ele>221.6</ele>
        <time>2019-04-15T03:31:46Z</time>
      </trkpt>
      <trkpt lat="45.67609" lon="4.86085">
        <ele>222.2</ele>
        <time>2019-04-15T03:31:50Z</time>
      </trkpt>
      <trkpt lat="45.67589" lon="4.86085">
        <ele>224.2</ele>
        <time>2019-04-15T03:31:54Z</time>
      </trkpt>
      <trkpt lat="45.67569" lon="4.86082">
        <ele>224.4</ele>
        <time>2019-04-15T03:31:58Z</time>
      </trkpt>
      <trkpt lat="45.67549" lon="4.8608">
        <ele>224.8</ele>
        <time>2019-04-15T03:32:02Z</time>
      </trkpt>
      <trkpt lat="45.67528" lon="4.86077">
        <ele>225.6</ele>
        <time>2019-04-15T03:32:06Z</time>
      </trkpt>
      <trkpt lat="45.67507" lon="4.86076">
        <ele>226.2</ele>
        <time>2019-04-15T03:32:10Z</time>
      </trkpt>
      <trkpt lat="45.67487" lon="4.86074">
        <ele>227.4</ele>
        <time>2019-04-15T03:32:14Z</time>
      </trkpt>
      <trkpt lat="45.67467" lon="4.86069">
        <ele>228.6</ele>
        <time>2019-04-15T03:32:18Z</time>
      </trkpt>
      <trkpt lat="45.67447" lon="4.86065">
        <ele>228.6</ele>
        <time>2019-04-15T03:32:22Z</time>
      </trkpt>
      <trkpt lat="45.67427" lon="4.8606">
        <ele>230</ele>
        <time>2019-04-15T03:32:26Z</time>
      </trkpt>
      <trkpt lat="45.67406" lon="4.86051">
        <ele>229.4</ele>
        <time>2019-04-15T03:32:30Z</time>
      </trkpt>
      <trkpt lat="45.67384" lon="4.86042">
        <ele>230.6</ele>
        <time>2019-04-15T03:32:34Z</time>
      </trkpt>
      <trkpt lat="45.67363" lon="4.86035">
        <ele>231.2</ele>
        <time>2019-04-15T03:32:38Z</time>
      </trkpt>
      <trkpt lat="45.67341" lon="4.86032">
        <ele>232.2</ele>
        <time>2019-04-15T03:32:42Z</time>
      </trkpt>
      <trkpt lat="45.67319" lon="4.86026">
        <ele>232.2</ele>
        <time>2019-04-15T03:32:46Z</time>
      </trkpt>
      <trkpt lat="45.67296" lon="4.8602">
        <ele>232.8</ele>
        <time>2019-04-15T03:32:50Z</time>
      </trkpt>
      <trkpt lat="45.67272" lon="4.86015">
        <ele>233</ele>
        <time>2019-04-15T03:32:54Z</time>
      </trkpt>
      <trkpt lat="45.67246" lon="4.86009">
        <ele>232.2</ele>
        <time>2019-04-15T03:32:58Z</time>
      </trkpt>
      <trkpt lat="45.67218" lon="4.86006">
        <ele>231.2</ele>
        <time>2019-04-15T03:33:02Z</time>
      </trkpt>
      <trkpt lat="45.67188" lon="4.86001">
        <ele>229.6</ele>
        <time>2019-04-15T03:33:06Z</time>
      </trkpt>
      <trkpt lat="45.67155" lon="4.85998">
        <ele>227.8</ele>
        <time>2019-04-15T03:33:10Z</time>
      </trkpt>
      <trkpt lat="45.67117" lon="4.85994">
        <ele>224.8</ele>
        <time>2019-04-15T03:33:14Z</time>
      </trkpt>
      <trkpt lat="45.67076" lon="4.85996">
        <ele>222</ele>
        <time>2019-04-15T03:33:18Z</time>
      </trkpt>
      <trkpt lat="45.67037" lon="4.85999">
        <ele>218.4</ele>
        <time>2019-04-15T03:33:22Z</time>
      </trkpt>
      <trkpt lat="45.66994" lon="4.8599">
        <ele>215</ele>
        <time>2019-04-15T03:33:26Z</time>
      </trkpt>
      <trkpt lat="45.6695" lon="4.85973">
        <ele>212</ele>
        <time>2019-04-15T03:33:30Z</time>
      </trkpt>
      <trkpt lat="45.66905" lon="4.85956">
        <ele>207.8</ele>
        <time>2019-04-15T03:33:34Z</time>
      </trkpt>
      <trkpt lat="45.66865" lon="4.85942">
        <ele>205.2</ele>
        <time>2019-04-15T03:33:38Z</time>
      </trkpt>
      <trkpt lat="45.66821" lon="4.85929">
        <ele>201.6</ele>
        <time>2019-04-15T03:33:42Z</time>
      </trkpt>
      <trkpt lat="45.66775" lon="4.85915">
        <ele>198</ele>
        <time>2019-04-15T03:33:46Z</time>
      </trkpt>
      <trkpt lat="45.66728" lon="4.859">
        <ele>195.2</ele>
        <time>2019-04-15T03:33:50Z</time>
      </trkpt>
      <trkpt lat="45.66683" lon="4.85884">
        <ele>190.4</ele>
        <time>2019-04-15T03:33:54Z</time>
      </trkpt>
      <trkpt lat="45.66656" lon="4.85873">
        <ele>187.2</ele>
        <time>2019-04-15T03:33:58Z</time>
      </trkpt>
      <trkpt lat="45.6663" lon="4.85863">
        <ele>186.2</ele>
        <time>2019-04-15T03:34:02Z</time>
      </trkpt>
      <trkpt lat="45.66602" lon="4.85851">
        <ele>184.6</ele>
        <time>2019-04-15T03:34:06Z</time>
      </trkpt>
      <trkpt lat="45.66573" lon="4.8584">
        <ele>184.2</ele>
        <time>2019-04-15T03:34:10Z</time>
      </trkpt>
      <trkpt lat="45.66542" lon="4.85824">
        <ele>183.4</ele>
        <time>2019-04-15T03:34:14Z</time>
      </trkpt>
      <trkpt lat="45.66512" lon="4.85804">
        <ele>183.2</ele>
        <time>2019-04-15T03:34:18Z</time>
      </trkpt>
      <trkpt lat="45.66481" lon="4.85785">
        <ele>182.6</ele>
        <time>2019-04-15T03:34:22Z</time>
      </trkpt>
      <trkpt lat="45.6645" lon="4.85774">
        <ele>182.8</ele>
        <time>2019-04-15T03:34:26Z</time>
      </trkpt>
      <trkpt lat="45.66421" lon="4.85768">
        <ele>183</ele>
        <time>2019-04-15T03:34:30Z</time>
      </trkpt>
      <trkpt lat="45.66391" lon="4.85761">
        <ele>182.6</ele>
        <time>2019-04-15T03:34:34Z</time>
      </trkpt>
      <trkpt lat="45.66363" lon="4.85758">
        <ele>184.2</ele>
        <time>2019-04-15T03:34:38Z</time>
      </trkpt>
      <trkpt lat="45.66337" lon="4.85756">
        <ele>184.2</ele>
        <time>2019-04-15T03:34:42Z</time>
      </trkpt>
      <trkpt lat="45.66311" lon="4.85753">
        <ele>184.8</ele>
        <time>2019-04-15T03:34:46Z</time>
      </trkpt>
      <trkpt lat="45.66284" lon="4.8575">
        <ele>185</ele>
        <time>2019-04-15T03:34:50Z</time>
      </trkpt>
      <trkpt lat="45.66259" lon="4.85748">
        <ele>186.2</ele>
        <time>2019-04-15T03:34:54Z</time>
      </trkpt>
      <trkpt lat="45.66234" lon="4.85745">
        <ele>186.8</ele>
        <time>2019-04-15T03:34:58Z</time>
      </trkpt>
      <trkpt lat="45.66209" lon="4.85742">
        <ele>187.6</ele>
        <time>2019-04-15T03:35:02Z</time>
      </trkpt>
      <trkpt lat="45.66185" lon="4.85742">
        <ele>187.8</ele>
        <time>2019-04-15T03:35:06Z</time>
      </trkpt>
      <trkpt lat="45.66163" lon="4.85747">
        <ele>188.8</ele>
        <time>2019-04-15T03:35:10Z</time>
      </trkpt>
      <trkpt lat="45.66141" lon="4.85753">
        <ele>190.6</ele>
        <time>2019-04-15T03:35:14Z</time>
      </trkpt>
      <trkpt lat="45.6612" lon="4.85757">
        <ele>192.4</ele>
        <time>2019-04-15T03:35:18Z</time>
      </trkpt>
      <trkpt lat="45.66101" lon="4.85758">
        <ele>194.4</ele>
        <time>2019-04-15T03:35:22Z</time>
      </trkpt>
      <trkpt lat="45.66083" lon="4.85757">
        <ele>195.4</ele>
        <time>2019-04-15T03:35:26Z</time>
      </trkpt>
      <trkpt lat="45.66065" lon="4.85753">
        <ele>197</ele>
        <time>2019-04-15T03:35:30Z</time>
      </trkpt>
      <trkpt lat="45.66045" lon="4.8575">
        <ele>198</ele>
        <time>2019-04-15T03:35:34Z</time>
      </trkpt>
      <trkpt lat="45.66026" lon="4.85747">
        <ele>199.8</ele>
        <time>2019-04-15T03:35:38Z</time>
      </trkpt>
      <trkpt lat="45.66007" lon="4.85743">
        <ele>201.6</ele>
        <time>2019-04-15T03:35:42Z</time>
      </trkpt>
      <trkpt lat="45.65988" lon="4.85739">
        <ele>202.4</ele>
        <time>2019-04-15T03:35:46Z</time>
      </trkpt>
      <trkpt lat="45.65968" lon="4.85737">
        <ele>203.2</ele>
        <time>2019-04-15T03:35:50Z</time>
      </trkpt>
      <trkpt lat="45.65949" lon="4.85734">
        <ele>204.4</ele>
        <time>2019-04-15T03:35:54Z</time>
      </trkpt>
      <trkpt lat="45.6593" lon="4.85732">
        <ele>205.2</ele>
        <time>2019-04-15T03:35:58Z</time>
      </trkpt>
      <trkpt lat="45.65911" lon="4.85732">
        <ele>206.2</ele>
        <time>2019-04-15T03:36:02Z</time>
      </trkpt>
      <trkpt lat="45.6589" lon="4.85731">
        <ele>207</ele>
        <time>2019-04-15T03:36:06Z</time>
      </trkpt>
      <trkpt lat="45.65871" lon="4.85727">
        <ele>208</ele>
        <time>2019-04-15T03:36:10Z</time>
      </trkpt>
      <trkpt lat="45.65851" lon="4.85724">
        <ele>209.2</ele>
        <time>2019-04-15T03:36:14Z</time>
      </trkpt>
      <trkpt lat="45.65831" lon="4.85721">
        <ele>210.2</ele>
        <time>2019-04-15T03:36:18Z</time>
      </trkpt>
      <trkpt lat="45.65811" lon="4.85717">
        <ele>211</ele>
        <time>2019-04-15T03:36:22Z</time>
      </trkpt>
      <trkpt lat="45.65792" lon="4.85713">
        <ele>212</ele>
        <time>2019-04-15T03:36:26Z</time>
      </trkpt>
      <trkpt lat="45.65772" lon="4.8571">
        <ele>213.2</ele>
        <time>2019-04-15T03:36:30Z</time>
      </trkpt>
      <trkpt lat="45.65752" lon="4.85707">
        <ele>214</ele>
        <time>2019-04-15T03:36:34Z</time>
      </trkpt>
      <trkpt lat="45.65732" lon="4.85703">
        <ele>215.2</ele>
        <time>2019-04-15T03:36:38Z</time>
      </trkpt>
      <trkpt lat="45.65712" lon="4.857">
        <ele>216.8</ele>
        <time>2019-04-15T03:36:42Z</time>
      </trkpt>
      <trkpt lat="45.65692" lon="4.85695">
        <ele>217.4</ele>
        <time>2019-04-15T03:36:46Z</time>
      </trkpt>
      <trkpt lat="45.65672" lon="4.85693">
        <ele>218.6</ele>
        <time>2019-04-15T03:36:50Z</time>
      </trkpt>
      <trkpt lat="45.65652" lon="4.85691">
        <ele>219.4</ele>
        <time>2019-04-15T03:36:54Z</time>
      </trkpt>
      <trkpt lat="45.65632" lon="4.85688">
        <ele>220.6</ele>
        <time>2019-04-15T03:36:58Z</time>
      </trkpt>
      <trkpt lat="45.65612" lon="4.85686">
        <ele>221.2</ele>
        <time>2019-04-15T03:37:02Z</time>
      </trkpt>
      <trkpt lat="45.65592" lon="4.85684">
        <ele>222.4</ele>
        <time>2019-04-15T03:37:06Z</time>
      </trkpt>
      <trkpt lat="45.65572" lon="4.85682">
        <ele>223</ele>
        <time>2019-04-15T03:37:10Z</time>
      </trkpt>
      <trkpt lat="45.65552" lon="4.85679">
        <ele>223.6</ele>
        <time>2019-04-15T03:37:14Z</time>
      </trkpt>
      <trkpt lat="45.65532" lon="4.85677">
        <ele>224.8</ele>
        <time>2019-04-15T03:37:18Z</time>
      </trkpt>
      <trkpt lat="45.65512" lon="4.85675">
        <ele>225.2</ele>
        <time>2019-04-15T03:37:22Z</time>
      </trkpt>
      <trkpt lat="45.65491" lon="4.85673">
        <ele>226.4</ele>
        <time>2019-04-15T03:37:26Z</time>
      </trkpt>
      <trkpt lat="45.6547" lon="4.85671">
        <ele>226.8</ele>
        <time>2019-04-15T03:37:30Z</time>
      </trkpt>
      <trkpt lat="45.65449" lon="4.85669">
        <ele>227</ele>
        <time>2019-04-15T03:37:34Z</time>
      </trkpt>
      <trkpt lat="45.65428" lon="4.85667">
        <ele>227.4</ele>
        <time>2019-04-15T03:37:38Z</time>
      </trkpt>
      <trkpt lat="45.65407" lon="4.85664">
        <ele>228.4</ele>
        <time>2019-04-15T03:37:42Z</time>
      </trkpt>
      <trkpt lat="45.65386" lon="4.85662">
        <ele>229</ele>
        <time>2019-04-15T03:37:46Z</time>
      </trkpt>
      <trkpt lat="45.65365" lon="4.8566">
        <ele>229.4</ele>
        <time>2019-04-15T03:37:50Z</time>
      </trkpt>
      <trkpt lat="45.65343" lon="4.85658">
        <ele>229.6</ele>
        <time>2019-04-15T03:37:54Z</time>
      </trkpt>
      <trkpt lat="45.6532" lon="4.85656">
        <ele>229.6</ele>
        <time>2019-04-15T03:37:58Z</time>
      </trkpt>
      <trkpt lat="45.65298" lon="4.85653">
        <ele>230.2</ele>
        <time>2019-04-15T03:38:02Z</time>
      </trkpt>
      <trkpt lat="45.65275" lon="4.85651">
        <ele>230.2</ele>
        <time>2019-04-15T03:38:06Z</time>
      </trkpt>
      <trkpt lat="45.65252" lon="4.85649">
        <ele>230.8</ele>
        <time>2019-04-15T03:38:10Z</time>
      </trkpt>
      <trkpt lat="45.65229" lon="4.85646">
        <ele>230.4</ele>
        <time>2019-04-15T03:38:14Z</time>
      </trkpt>
      <trkpt lat="45.65206" lon="4.85644">
        <ele>231.2</ele>
        <time>2019-04-15T03:38:18Z</time>
      </trkpt>
      <trkpt lat="45.65183" lon="4.85642">
        <ele>231.4</ele>
        <time>2019-04-15T03:38:22Z</time>
      </trkpt>
      <trkpt lat="45.65159" lon="4.8564">
        <ele>231.8</ele>
        <time>2019-04-15T03:38:26Z</time>
      </trkpt>
      <trkpt lat="45.65134" lon="4.85639">
        <ele>231.6</ele>
        <time>2019-04-15T03:38:30Z</time>
      </trkpt>
      <trkpt lat="45.65109" lon="4.85638">
        <ele>231.4</ele>
        <time>2019-04-15T03:38:34Z</time>
      </trkpt>
      <trkpt lat="45.65083" lon="4.85637">
        <ele>231.6</ele>
        <time>2019-04-15T03:38:38Z</time>
      </trkpt>
      <trkpt lat="45.65058" lon="4.85636">
        <ele>231.8</ele>
        <time>2019-04-15T03:38:42Z</time>
      </trkpt>
      <trkpt lat="45.65032" lon="4.85634">
        <ele>231.8</ele>
        <time>2019-04-15T03:38:46Z</time>
      </trkpt>
      <trkpt lat="45.65006" lon="4.85633">
        <ele>232.2</ele>
        <time>2019-04-15T03:38:50Z</time>
      </trkpt>
      <trkpt lat="45.6498" lon="4.85632">
        <ele>232</ele>
        <time>2019-04-15T03:38:54Z</time>
      </trkpt>
      <trkpt lat="45.64954" lon="4.85631">
        <ele>231.8</ele>
        <time>2019-04-15T03:38:58Z</time>
      </trkpt>
      <trkpt lat="45.64928" lon="4.8563">
        <ele>233</ele>
        <time>2019-04-15T03:39:02Z</time>
      </trkpt>
      <trkpt lat="45.64903" lon="4.85629">
        <ele>233.2</ele>
        <time>2019-04-15T03:39:06Z</time>
      </trkpt>
      <trkpt lat="45.64878" lon="4.85629">
        <ele>233.4</ele>
        <time>2019-04-15T03:39:10Z</time>
      </trkpt>
      <trkpt lat="45.64854" lon="4.85628">
        <ele>234</ele>
        <time>2019-04-15T03:39:14Z</time>
      </trkpt>
      <trkpt lat="45.6483" lon="4.85628">
        <ele>235.2</ele>
        <time>2019-04-15T03:39:18Z</time>
      </trkpt>
      <trkpt lat="45.64807" lon="4.85627">
        <ele>235.6</ele>
        <time>2019-04-15T03:39:22Z</time>
      </trkpt>
      <trkpt lat="45.64785" lon="4.85627">
        <ele>236.4</ele>
        <time>2019-04-15T03:39:26Z</time>
      </trkpt>
      <trkpt lat="45.64762" lon="4.85627">
        <ele>237.8</ele>
        <time>2019-04-15T03:39:30Z</time>
      </trkpt>
      <trkpt lat="45.64741" lon="4.85627">
        <ele>238.4</ele>
        <time>2019-04-15T03:39:34Z</time>
      </trkpt>
      <trkpt lat="45.64719" lon="4.85626">
        <ele>238.6</ele>
        <time>2019-04-15T03:39:38Z</time>
      </trkpt>
      <trkpt lat="45.64697" lon="4.85625">
        <ele>240.6</ele>
        <time>2019-04-15T03:39:42Z</time>
      </trkpt>
      <trkpt lat="45.64675" lon="4.85626">
        <ele>241</ele>
        <time>2019-04-15T03:39:46Z</time>
      </trkpt>
      <trkpt lat="45.64654" lon="4.85626">
        <ele>242.4</ele>
        <time>2019-04-15T03:39:50Z</time>
      </trkpt>
      <trkpt lat="45.64633" lon="4.85626">
        <ele>243</ele>
        <time>2019-04-15T03:39:54Z</time>
      </trkpt>
      <trkpt lat="45.64612" lon="4.85625">
        <ele>244</ele>
        <time>2019-04-15T03:39:58Z</time>
      </trkpt>
      <trkpt lat="45.64591" lon="4.85625">
        <ele>244.4</ele>
        <time>2019-04-15T03:40:02Z</time>
      </trkpt>
      <trkpt lat="45.64569" lon="4.85625">
        <ele>244.6</ele>
        <time>2019-04-15T03:40:06Z</time>
      </trkpt>
      <trkpt lat="45.64547" lon="4.85625">
        <ele>245</ele>
        <time>2019-04-15T03:40:10Z</time>
      </trkpt>
      <trkpt lat="45.64524" lon="4.85625">
        <ele>245.2</ele>
        <time>2019-04-15T03:40:14Z</time>
      </trkpt>
      <trkpt lat="45.64498" lon="4.85626">
        <ele>244</ele>
        <time>2019-04-15T03:40:18Z</time>
      </trkpt>
      <trkpt lat="45.64469" lon="4.85626">
        <ele>242.4</ele>
        <time>2019-04-15T03:40:22Z</time>
      </trkpt>
      <trkpt lat="45.64437" lon="4.85624">
        <ele>240.8</ele>
        <time>2019-04-15T03:40:26Z</time>
      </trkpt>
      <trkpt lat="45.64399" lon="4.85622">
        <ele>238</ele>
        <time>2019-04-15T03:40:30Z</time>
      </trkpt>
      <trkpt lat="45.64359" lon="4.8562">
        <ele>236.2</ele>
        <time>2019-04-15T03:40:34Z</time>
      </trkpt>
      <trkpt lat="45.64318" lon="4.85619">
        <ele>233.8</ele>
        <time>2019-04-15T03:40:38Z</time>
      </trkpt>
      <trkpt lat="45.64278" lon="4.85617">
        <ele>232</ele>
        <time>2019-04-15T03:40:42Z</time>
      </trkpt>
      <trkpt lat="45.64238" lon="4.85615">
        <ele>229.6</ele>
        <time>2019-04-15T03:40:46Z</time>
      </trkpt>
      <trkpt lat="45.64197" lon="4.85617">
        <ele>226.6</ele>
        <time>2019-04-15T03:40:50Z</time>
      </trkpt>
      <trkpt lat="45.64155" lon="4.85625">
        <ele>224.6</ele>
        <time>2019-04-15T03:40:54Z</time>
      </trkpt>
      <trkpt lat="45.64113" lon="4.85639">
        <ele>221.4</ele>
        <time>2019-04-15T03:40:58Z</time>
      </trkpt>
      <trkpt lat="45.64069" lon="4.85657">
        <ele>218.4</ele>
        <time>2019-04-15T03:41:02Z</time>
      </trkpt>
      <trkpt lat="45.64024" lon="4.85676">
        <ele>214.6</ele>
        <time>2019-04-15T03:41:06Z</time>
      </trkpt>
      <trkpt lat="45.63978" lon="4.85696">
        <ele>211.4</ele>
        <time>2019-04-15T03:41:10Z</time>
      </trkpt>
      <trkpt lat="45.63932" lon="4.85715">
        <ele>209.2</ele>
        <time>2019-04-15T03:41:14Z</time>
      </trkpt>
      <trkpt lat="45.63888" lon="4.85734">
        <ele>207</ele>
        <time>2019-04-15T03:41:18Z</time>
      </trkpt>
      <trkpt lat="45.63847" lon="4.85752">
        <ele>206.4</ele>
        <time>2019-04-15T03:41:22Z</time>
      </trkpt>
      <trkpt lat="45.63808" lon="4.85768">
        <ele>204.8</ele>
        <time>2019-04-15T03:41:26Z</time>
      </trkpt>
      <trkpt lat="45.63769" lon="4.85784">
        <ele>204</ele>
        <time>2019-04-15T03:41:30Z</time>
      </trkpt>
      <trkpt lat="45.63731" lon="4.858">
        <ele>203.2</ele>
        <time>2019-04-15T03:41:34Z</time>
      </trkpt>
      <trkpt lat="45.63693" lon="4.85817">
        <ele>202.4</ele>
        <time>2019-04-15T03:41:38Z</time>
      </trkpt>
      <trkpt lat="45.63656" lon="4.85836">
        <ele>200.2</ele>
        <time>2019-04-15T03:41:42Z</time>
      </trkpt>
      <trkpt lat="45.6362" lon="4.85859">
        <ele>198.6</ele>
        <time>2019-04-15T03:41:46Z</time>
      </trkpt>
      <trkpt lat="45.63586" lon="4.85886">
        <ele>198.2</ele>
        <time>2019-04-15T03:41:50Z</time>
      </trkpt>
      <trkpt lat="45.63553" lon="4.85915">
        <ele>196.2</ele>
        <time>2019-04-15T03:41:54Z</time>
      </trkpt>
      <trkpt lat="45.63521" lon="4.85944">
        <ele>195.6</ele>
        <time>2019-04-15T03:41:58Z</time>
      </trkpt>
      <trkpt lat="45.63489" lon="4.85968">
        <ele>194</ele>
        <time>2019-04-15T03:42:02Z</time>
      </trkpt>
      <trkpt lat="45.63456" lon="4.85991">
        <ele>192.8</ele>
        <time>2019-04-15T03:42:06Z</time>
      </trkpt>
      <trkpt lat="45.63423" lon="4.8601">
        <ele>191</ele>
        <time>2019-04-15T03:42:10Z</time>
      </trkpt>
      <trkpt lat="45.63389" lon="4.86028">
        <ele>190</ele>
        <time>2019-04-15T03:42:14Z</time>
      </trkpt>
      <trkpt lat="45.63354" lon="4.86043">
        <ele>188.8</ele>
        <time>2019-04-15T03:42:18Z</time>
      </trkpt>
      <trkpt lat="45.63318" lon="4.86054">
        <ele>187.8</ele>
        <time>2019-04-15T03:42:22Z</time>
      </trkpt>
      <trkpt lat="45.63281" lon="4.86063">
        <ele>187.2</ele>
        <time>2019-04-15T03:42:26Z</time>
      </trkpt>
      <trkpt lat="45.63244" lon="4.86068">
        <ele>185.6</ele>
        <time>2019-04-15T03:42:30Z</time>
      </trkpt>
      <trkpt lat="45.63207" lon="4.8607">
        <ele>185</ele>
        <time>2019-04-15T03:42:34Z</time>
      </trkpt>
      <trkpt lat="45.63171" lon="4.86068">
        <ele>185.2</ele>
        <time>2019-04-15T03:42:38Z</time>
      </trkpt>
      <trkpt lat="45.63138" lon="4.86064">
        <ele>185.2</ele>
        <time>2019-04-15T03:42:42Z</time>
      </trkpt>
      <trkpt lat="45.63107" lon="4.86058">
        <ele>184.6</ele>
        <time>2019-04-15T03:42:46Z</time>
      </trkpt>
      <trkpt lat="45.63077" lon="4.86051">
        <ele>184.8</ele>
        <time>2019-04-15T03:42:50Z</time>
      </trkpt>
      <trkpt lat="45.63049" lon="4.86041">
        <ele>185.6</ele>
        <time>2019-04-15T03:42:54Z</time>
      </trkpt>
      <trkpt lat="45.63022" lon="4.86029">
        <ele>185.8</ele>
        <time>2019-04-15T03:42:58Z</time>
      </trkpt>
      <trkpt lat="45.62996" lon="4.86015">
        <ele>186</ele>
        <time>2019-04-15T03:43:02Z</time>
      </trkpt>
      <trkpt lat="45.6297" lon="4.85999">
        <ele>186.2</ele>
        <time>2019-04-15T03:43:06Z</time>
      </trkpt>
      <trkpt lat="45.62946" lon="4.85981">
        <ele>187.2</ele>
        <time>2019-04-15T03:43:10Z</time>
      </trkpt>
      <trkpt lat="45.62923" lon="4.85963">
        <ele>188</ele>
        <time>2019-04-15T03:43:14Z</time>
      </trkpt>
      <trkpt lat="45.62904" lon="4.85946">
        <ele>189.2</ele>
        <time>2019-04-15T03:43:18Z</time>
      </trkpt>
      <trkpt lat="45.62887" lon="4.85928">
        <ele>189.8</ele>
        <time>2019-04-15T03:43:22Z</time>
      </trkpt>
      <trkpt lat="45.62871" lon="4.85911">
        <ele>191.2</ele>
        <time>2019-04-15T03:43:26Z</time>
      </trkpt>
      <trkpt lat="45.62855" lon="4.85894">
        <ele>193.6</ele>
        <time>2019-04-15T03:43:30Z</time>
      </trkpt>
      <trkpt lat="45.62839" lon="4.85876">
        <ele>194.2</ele>
        <time>2019-04-15T03:43:34Z</time>
      </trkpt>
      <trkpt lat="45.62826" lon="4.85858">
        <ele>196.6</ele>
        <time>2019-04-15T03:43:38Z</time>
      </trkpt>
      <trkpt lat="45.62813" lon="4.85842">
        <ele>198.8</ele>
        <time>2019-04-15T03:43:42Z</time>
      </trkpt>
      <trkpt lat="45.62803" lon="4.85828">
        <ele>200</ele>
        <time>2019-04-15T03:43:46Z</time>
      </trkpt>
      <trkpt lat="45.62792" lon="4.85813">
        <ele>201</ele>
        <time>2019-04-15T03:43:50Z</time>
      </trkpt>
      <trkpt lat="45.62781" lon="4.85798">
        <ele>202.2</ele>
        <time>2019-04-15T03:43:54Z</time>
      </trkpt>
      <trkpt lat="45.6277" lon="4.85784">
        <ele>203.6</ele>
        <time>2019-04-15T03:43:58Z</time>
      </trkpt>
      <trkpt lat="45.62759" lon="4.85769">
        <ele>204.2</ele>
        <time>2019-04-15T03:44:02Z</time>
      </trkpt>
      <trkpt lat="45.62748" lon="4.85755">
        <ele>206</ele>
        <time>2019-04-15T03:44:06Z</time>
      </trkpt>
      <trkpt lat="45.62736" lon="4.85741">
        <ele>207.4</ele>
        <time>2019-04-15T03:44:10Z</time>
      </trkpt>
      <trkpt lat="45.62725" lon="4.85727">
        <ele>208.8</ele>
        <time>2019-04-15T03:44:14Z</time>
      </trkpt>
      <trkpt lat="45.62713" lon="4.85714">
        <ele>210</ele>
        <time>2019-04-15T03:44:18Z</time>
      </trkpt>
      <trkpt lat="45.627" lon="4.85701">
        <ele>211.4</ele>
        <time>2019-04-15T03:44:22Z</time>
      </trkpt>
      <trkpt lat="45.62688" lon="4.85688">
        <ele>212.6</ele>
        <time>2019-04-15T03:44:26Z</time>
      </trkpt>
      <trkpt lat="45.62675" lon="4.85676">
        <ele>213.6</ele>
        <time>2019-04-15T03:44:30Z</time>
      </trkpt>
      <trkpt lat="45.62662" lon="4.85665">
        <ele>214.2</ele>
        <time>2019-04-15T03:44:34Z</time>
      </trkpt>
      <trkpt lat="45.62648" lon="4.85653">
        <ele>216.6</ele>
        <time>2019-04-15T03:44:38Z</time>
      </trkpt>
      <trkpt lat="45.62635" lon="4.85642">
        <ele>217.6</ele>
        <time>2019-04-15T03:44:42Z</time>
      </trkpt>
      <trkpt lat="45.62621" lon="4.85632">
        <ele>218.8</ele>
        <time>2019-04-15T03:44:46Z</time>
      </trkpt>
      <trkpt lat="45.62606" lon="4.85622">
        <ele>220.2</ele>
        <time>2019-04-15T03:44:50Z</time>
      </trkpt>
      <trkpt lat="45.62592" lon="4.85612">
        <ele>221.6</ele>
        <time>2019-04-15T03:44:54Z</time>
      </trkpt>
      <trkpt lat="45.62578" lon="4.85602">
        <ele>222.6</ele>
        <time>2019-04-15T03:44:58Z</time>
      </trkpt>
      <trkpt lat="45.62563" lon="4.85594">
        <ele>224</ele>
        <time>2019-04-15T03:45:02Z</time>
      </trkpt>
      <trkpt lat="45.62548" lon="4.85586">
        <ele>224.8</ele>
        <time>2019-04-15T03:45:06Z</time>
      </trkpt>
      <trkpt lat="45.62533" lon="4.85578">
        <ele>226.6</ele>
        <time>2019-04-15T03:45:10Z</time>
      </trkpt>
      <trkpt lat="45.62518" lon="4.8557">
        <ele>227.8</ele>
        <time>2019-04-15T03:45:14Z</time>
      </trkpt>
      <trkpt lat="45.62504" lon="4.85563">
        <ele>229.2</ele>
        <time>2019-04-15T03:45:18Z</time>
      </trkpt>
      <trkpt lat="45.62489" lon="4.85556">
        <ele>230.6</ele>
        <time>2019-04-15T03:45:22Z</time>
      </trkpt>
      <trkpt lat="45.62474" lon="4.85549">
        <ele>232</ele>
        <time>2019-04-15T03:45:26Z</time>
      </trkpt>
      <trkpt lat="45.62458" lon="4.85543">
        <ele>232.2</ele>
        <time>2019-04-15T03:45:30Z</time>
      </trkpt>
      <trkpt lat="45.62443" lon="4.85538">
        <ele>234.2</ele>
        <time>2019-04-15T03:45:34Z</time>
      </trkpt>
      <trkpt lat="45.62427" lon="4.85533">
        <ele>235.4</ele>
        <time>2019-04-15T03:45:38Z</time>
      </trkpt>
      <trkpt lat="45.62412" lon="4.85528">
        <ele>236.6</ele>
        <time>2019-04-15T03:45:42Z</time>
      </trkpt>
      <trkpt lat="45.62397" lon="4.85523">
        <ele>237.8</ele>
        <time>2019-04-15T03:45:46Z</time>
      </trkpt>
      <trkpt lat="45.62381" lon="4.8552">
        <ele>239.2</ele>
        <time>2019-04-15T03:45:50Z</time>
      </trkpt>
      <trkpt lat="45.62365" lon="4.85518">
        <ele>239.8</ele>
        <time>2019-04-15T03:45:54Z</time>
      </trkpt>
      <trkpt lat="45.62349" lon="4.85515">
        <ele>241.4</ele>
        <time>2019-04-15T03:45:58Z</time>
      </trkpt>
      <trkpt lat="45.62334" lon="4.85511">
        <ele>242.6</ele>
        <time>2019-04-15T03:46:02Z</time>
      </trkpt>
      <trkpt lat="45.62317" lon="4.8551">
        <ele>243.6</ele>
        <time>2019-04-15T03:46:06Z</time>
      </trkpt>
      <trkpt lat="45.62302" lon="4.85508">
        <ele>245</ele>
        <time>2019-04-15T03:46:10Z</time>
      </trkpt>
      <trkpt lat="45.62286" lon="4.85506">
        <ele>245.4</ele>
        <time>2019-04-15T03:46:14Z</time>
      </trkpt>
      <trkpt lat="45.62271" lon="4.85504">
        <ele>246.8</ele>
        <time>2019-04-15T03:46:18Z</time>
      </trkpt>
      <trkpt lat="45.62256" lon="4.85501">
        <ele>248</ele>
        <time>2019-04-15T03:46:22Z</time>
      </trkpt>
      <trkpt lat="45.62241" lon="4.85499">
        <ele>249</ele>
        <time>2019-04-15T03:46:26Z</time>
      </trkpt>
      <trkpt lat="45.62225" lon="4.85497">
        <ele>250</ele>
        <time>2019-04-15T03:46:30Z</time>
      </trkpt>
      <trkpt lat="45.62209" lon="4.85495">
        <ele>250.6</ele>
        <time>2019-04-15T03:46:34Z</time>
      </trkpt>
      <trkpt lat="45.62192" lon="4.85494">
        <ele>251.2</ele>
        <time>2019-04-15T03:46:38Z</time>
      </trkpt>
      <trkpt lat="45.62175" lon="4.85494">
        <ele>251.8</ele>
        <time>2019-04-15T03:46:42Z</time>
      </trkpt>
      <trkpt lat="45.62157" lon="4.85495">
        <ele>252.8</ele>
        <time>2019-04-15T03:46:46Z</time>
      </trkpt>
      <trkpt lat="45.62138" lon="4.85496">
        <ele>252.6</ele>
        <time>2019-04-15T03:46:50Z</time>
      </trkpt>
      <trkpt lat="45.62118" lon="4.85498">
        <ele>252.2</ele>
        <time>2019-04-15T03:46:54Z</time>
      </trkpt>
      <trkpt lat="45.62094" lon="4.855">
        <ele>252.2</ele>
        <time>2019-04-15T03:46:58Z</time>
      </trkpt>
      <trkpt lat="45.62067" lon="4.85502">
        <ele>252.2</ele>
        <time>2019-04-15T03:47:02Z</time>
      </trkpt>
      <trkpt lat="45.62036" lon="4.85503">
        <ele>250.6</ele>
        <time>2019-04-15T03:47:06Z</time>
      </trkpt>
      <trkpt lat="45.62003" lon="4.85501">
        <ele>249.8</ele>
        <time>2019-04-15T03:47:10Z</time>
      </trkpt>
      <trkpt lat="45.6197" lon="4.85497">
        <ele>248</ele>
        <time>2019-04-15T03:47:14Z</time>
      </trkpt>
      <trkpt lat="45.61937" lon="4.85493">
        <ele>247.4</ele>
        <time>2019-04-15T03:47:18Z</time>
      </trkpt>
      <trkpt lat="45.61905" lon="4.8549">
        <ele>246.8</ele>
        <time>2019-04-15T03:47:22Z</time>
      </trkpt>
      <trkpt lat="45.61873" lon="4.85486">
        <ele>245.8</ele>
        <time>2019-04-15T03:47:26Z</time>
      </trkpt>
      <trkpt lat="45.61839" lon="4.85483">
        <ele>245</ele>
        <time>2019-04-15T03:47:30Z</time>
      </trkpt>
      <trkpt lat="45.61803" lon="4.8548">
        <ele>243.4</ele>
        <time>2019-04-15T03:47:34Z</time>
      </trkpt>
      <trkpt lat="45.61767" lon="4.85477">
        <ele>242.2</ele>
        <time>2019-04-15T03:47:38Z</time>
      </trkpt>
      <trkpt lat="45.61729" lon="4.85475">
        <ele>240.4</ele>
        <time>2019-04-15T03:47:42Z</time>
      </trkpt>
      <trkpt lat="45.61689" lon="4.85471">
        <ele>238.2</ele>
        <time>2019-04-15T03:47:46Z</time>
      </trkpt>
      <trkpt lat="45.61649" lon="4.85466">
        <ele>236.2</ele>
        <time>2019-04-15T03:47:50Z</time>
      </trkpt>
      <trkpt lat="45.61608" lon="4.8546">
        <ele>234</ele>
        <time>2019-04-15T03:47:54Z</time>
      </trkpt>
      <trkpt lat="45.61566" lon="4.85449">
        <ele>231.8</ele>
        <time>2019-04-15T03:47:58Z</time>
      </trkpt>
      <trkpt lat="45.61524" lon="4.85433">
        <ele>229.2</ele>
        <time>2019-04-15T03:48:02Z</time>
      </trkpt>
      <trkpt lat="45.61483" lon="4.85415">
        <ele>227.4</ele>
        <time>2019-04-15T03:48:06Z</time>
      </trkpt>
      <trkpt lat="45.61442" lon="4.85397">
        <ele>225.6</ele>
        <time>2019-04-15T03:48:10Z</time>
      </trkpt>
      <trkpt lat="45.61401" lon="4.8538">
        <ele>223.2</ele>
        <time>2019-04-15T03:48:14Z</time>
      </trkpt>
      <trkpt lat="45.61362" lon="4.85364">
        <ele>221.8</ele>
        <time>2019-04-15T03:48:18Z</time>
      </trkpt>
      <trkpt lat="45.61325" lon="4.85349">
        <ele>221.2</ele>
        <time>2019-04-15T03:48:22Z</time>
      </trkpt>
      <trkpt lat="45.6129" lon="4.85334">
        <ele>220.6</ele>
        <time>2019-04-15T03:48:26Z</time>
      </trkpt>
      <trkpt lat="45.61257" lon="4.85321">
        <ele>220.8</ele>
        <time>2019-04-15T03:48:30Z</time>
      </trkpt>
      <trkpt lat="45.61224" lon="4.8531">
        <ele>220.2</ele>
        <time>2019-04-15T03:48:34Z</time>
      </trkpt>
      <trkpt lat="45.61192" lon="4.85305">
        <ele>220</ele>
        <time>2019-04-15T03:48:38Z</time>
      </trkpt>
      <trkpt lat="45.61159" lon="4.85305">
        <ele>219.2</ele>
        <time>2019-04-15T03:48:42Z</time>
      </trkpt>
      <trkpt lat="45.61126" lon="4.85307">
        <ele>218</ele>
        <time>2019-04-15T03:48:46Z</time>
      </trkpt>
      <trkpt lat="45.61092" lon="4.85308">
        <ele>217.8</ele>
        <time>2019-04-15T03:48:50Z</time>
      </trkpt>
      <trkpt lat="45.61059" lon="4.85309">
        <ele>217.4</ele>
        <time>2019-04-15T03:48:54Z</time>
      </trkpt>
      <trkpt lat="45.61026" lon="4.85312">
        <ele>217.4</ele>
        <time>2019-04-15T03:48:58Z</time>
      </trkpt>
      <trkpt lat="45.60995" lon="4.85313">
        <ele>217.2</ele>
        <time>2019-04-15T03:49:02Z</time>
      </trkpt>
      <trkpt lat="45.60965" lon="4.85316">
        <ele>218.4</ele>
        <time>2019-04-15T03:49:06Z</time>
      </trkpt>
      <trkpt lat="45.60938" lon="4.85317">
        <ele>218.2</ele>
        <time>2019-04-15T03:49:10Z</time>
      </trkpt>
      <trkpt lat="45.60911" lon="4.85319">
        <ele>218.8</ele>
        <time>2019-04-15T03:49:14Z</time>
      </trkpt>
      <trkpt lat="45.60885" lon="4.85321">
        <ele>219</ele>
        <time>2019-04-15T03:49:18Z</time>
      </trkpt>
      <trkpt lat="45.60858" lon="4.85322">
        <ele>219.4</ele>
        <time>2019-04-15T03:49:22Z</time>
      </trkpt>
      <trkpt lat="45.60832" lon="4.85324">
        <ele>219.4</ele>
        <time>2019-04-15T03:49:26Z</time>
      </trkpt>
      <trkpt lat="45.60806" lon="4.85325">
        <ele>219.8</ele>
        <time>2019-04-15T03:49:30Z</time>
      </trkpt>
      <trkpt lat="45.6078" lon="4.85327">
        <ele>220.2</ele>
        <time>2019-04-15T03:49:34Z</time>
      </trkpt>
      <trkpt lat="45.60755" lon="4.85328">
        <ele>220.4</ele>
        <time>2019-04-15T03:49:38Z</time>
      </trkpt>
      <trkpt lat="45.6073" lon="4.85329">
        <ele>220.4</ele>
        <time>2019-04-15T03:49:42Z</time>
      </trkpt>
      <trkpt lat="45.60706" lon="4.85329">
        <ele>221.4</ele>
        <time>2019-04-15T03:49:46Z</time>
      </trkpt>
      <trkpt lat="45.60682" lon="4.85328">
        <ele>221.6</ele>
        <time>2019-04-15T03:49:50Z</time>
      </trkpt>
      <trkpt lat="45.60659" lon="4.85327">
        <ele>223.4</ele>
        <time>2019-04-15T03:49:54Z</time>
      </trkpt>
      <trkpt lat="45.60636" lon="4.85326">
        <ele>222.8</ele>
        <time>2019-04-15T03:49:58Z</time>
      </trkpt>
      <trkpt lat="45.60614" lon="4.85325">
        <ele>223.6</ele>
        <time>2019-04-15T03:50:02Z</time>
      </trkpt>
      <trkpt lat="45.60592" lon="4.85319">
        <ele>224.8</ele>
        <time>2019-04-15T03:50:06Z</time>
      </trkpt>
      <trkpt lat="45.6057" lon="4.85313">
        <ele>225.2</ele>
        <time>2019-04-15T03:50:10Z</time>
      </trkpt>
      <trkpt lat="45.60554" lon="4.85316">
        <ele>224.8</ele>
        <time>2019-04-15T03:50:14Z</time>
      </trkpt>
      <trkpt lat="45.60549" lon="4.85329">
        <ele>224.6</ele>
        <time>2019-04-15T03:50:18Z</time>
      </trkpt>
      <trkpt lat="45.60551" lon="4.85349">
        <ele>225.2</ele>
        <time>2019-04-15T03:50:22Z</time>
      </trkpt>
      <trkpt lat="45.60567" lon="4.85365">
        <ele>224.8</ele>
        <time>2019-04-15T03:50:26Z</time>
      </trkpt>
      <trkpt lat="45.60585" lon="4.85353">
        <ele>224.6</ele>
        <time>2019-04-15T03:50:30Z</time>
      </trkpt>
      <trkpt lat="45.60583" lon="4.85325">
        <ele>224.8</ele>
        <time>2019-04-15T03:50:34Z</time>
      </trkpt>
      <trkpt lat="45.60562" lon="4.85315">
        <ele>224.6</ele>
        <time>2019-04-15T03:50:38Z</time>
      </trkpt>
      <trkpt lat="45.60536" lon="4.85322">
        <ele>225</ele>
        <time>2019-04-15T03:50:42Z</time>
      </trkpt>
      <trkpt lat="45.6051" lon="4.85329">
        <ele>224.4</ele>
        <time>2019-04-15T03:50:46Z</time>
      </trkpt>
      <trkpt lat="45.60483" lon="4.85338">
        <ele>224.6</ele>
        <time>2019-04-15T03:50:50Z</time>
      </trkpt>
      <trkpt lat="45.60458" lon="4.85346">
        <ele>224.8</ele>
        <time>2019-04-15T03:50:54Z</time>
      </trkpt>
      <trkpt lat="45.60431" lon="4.85351">
        <ele>224.2</ele>
        <time>2019-04-15T03:50:58Z</time>
      </trkpt>
      <trkpt lat="45.60404" lon="4.85354">
        <ele>224.2</ele>
        <time>2019-04-15T03:51:02Z</time>
      </trkpt>
      <trkpt lat="45.60377" lon="4.85357">
        <ele>224.4</ele>
        <time>2019-04-15T03:51:06Z</time>
      </trkpt>
      <trkpt lat="45.6035" lon="4.85359">
        <ele>224.4</ele>
        <time>2019-04-15T03:51:10Z</time>
      </trkpt>
      <trkpt lat="45.60323" lon="4.85362">
        <ele>224.8</ele>
        <time>2019-04-15T03:51:14Z</time>
      </trkpt>
      <trkpt lat="45.60297" lon="4.85364">
        <ele>224.8</ele>
        <time>2019-04-15T03:51:18Z</time>
      </trkpt>
      <trkpt lat="45.60271" lon="4.85366">
        <ele>225</ele>
        <time>2019-04-15T03:51:22Z</time>
      </trkpt>
      <trkpt lat="45.60245" lon="4.85368">
        <ele>225.2</ele>
        <time>2019-04-15T03:51:26Z</time>
      </trkpt>
      <trkpt lat="45.60219" lon="4.85367">
        <ele>225.2</ele>
        <time>2019-04-15T03:51:30Z</time>
      </trkpt>
      <trkpt lat="45.60193" lon="4.85363">
        <ele>225.8</ele>
        <time>2019-04-15T03:51:34Z</time>
      </trkpt>
      <trkpt lat="45.60168" lon="4.85356">
        <ele>226</ele>
        <time>2019-04-15T03:51:38Z</time>
      </trkpt>
      <trkpt lat="45.60144" lon="4.85347">
        <ele>226.4</ele>
        <time>2019-04-15T03:51:42Z</time>
      </trkpt>
      <trkpt lat="45.60119" lon="4.8534">
        <ele>226.8</ele>
        <time>2019-04-15T03:51:46Z</time>
      </trkpt>
      <trkpt lat="45.60095" lon="4.8533">
        <ele>227.2</ele>
        <time>2019-04-15T03:51:50Z</time>
      </trkpt>
      <trkpt lat="45.60072" lon="4.85317">
        <ele>227.4</ele>
        <time>2019-04-15T03:51:54Z</time>
      </trkpt>
      <trkpt lat="45.60051" lon="4.85301">
        <ele>227.8</ele>
        <time>2019-04-15T03:51:58Z</time>
      </trkpt>
      <trkpt lat="45.60033" lon="4.85283">
        <ele>229.4</ele>
        <time>2019-04-15T03:52:02Z</time>
      </trkpt>
      <trkpt lat="45.60017" lon="4.85265">
        <ele>229.6</ele>
        <time>2019-04-15T03:52:06Z</time>
      </trkpt>
      <trkpt lat="45.60002" lon="4.85247">
        <ele>230.8</ele>
        <time>2019-04-15T03:52:10Z</time>
      </trkpt>
      <trkpt lat="45.59984" lon="4.85231">
        <ele>231.4</ele>
        <time>2019-04-15T03:52:14Z</time>
      </trkpt>
      <trkpt lat="45.59969" lon="4.85221">
        <ele>232.6</ele>
        <time>2019-04-15T03:52:18Z</time>
      </trkpt>
      <trkpt lat="45.59957" lon="4.85199">
        <ele>232.2</ele>
        <time>2019-04-15T03:52:22Z</time>
      </trkpt>
      <trkpt lat="45.59939" lon="4.85186">
        <ele>232.4</ele>
        <time>2019-04-15T03:52:26Z</time>
      </trkpt>
      <trkpt lat="45.59921" lon="4.852">
        <ele>232.8</ele>
        <time>2019-04-15T03:52:30Z</time>
      </trkpt>
      <trkpt lat="45.59904" lon="4.8522">
        <ele>232.4</ele>
        <time>2019-04-15T03:52:34Z</time>
      </trkpt>
      <trkpt lat="45.59877" lon="4.85227">
        <ele>231.4</ele>
        <time>2019-04-15T03:52:38Z</time>
      </trkpt>
      <trkpt lat="45.5985" lon="4.85231">
        <ele>231.2</ele>
        <time>2019-04-15T03:52:42Z</time>
      </trkpt>
      <trkpt lat="45.59823" lon="4.85236">
        <ele>231.2</ele>
        <time>2019-04-15T03:52:46Z</time>
      </trkpt>
      <trkpt lat="45.59799" lon="4.85241">
        <ele>232.6</ele>
        <time>2019-04-15T03:52:50Z</time>
      </trkpt>
      <trkpt lat="45.59776" lon="4.85245">
        <ele>233.4</ele>
        <time>2019-04-15T03:52:54Z</time>
      </trkpt>
      <trkpt lat="45.5976" lon="4.8525">
        <ele>234.4</ele>
        <time>2019-04-15T03:52:58Z</time>
      </trkpt>
      <trkpt lat="45.5976" lon="4.85253">
        <ele>235.8</ele>
        <time>2019-04-15T03:53:02Z</time>
      </trkpt>
      <trkpt lat="45.59715" lon="4.85257">
        <ele>236.8</ele>
        <time>2019-04-15T03:53:06Z</time>
      </trkpt>
      <trkpt lat="45.59694" lon="4.8526">
        <ele>237.8</ele>
        <time>2019-04-15T03:53:10Z</time>
      </trkpt>
      <trkpt lat="45.59674" lon="4.85263">
        <ele>239</ele>
        <time>2019-04-15T03:53:14Z</time>
      </trkpt>
      <trkpt lat="45.59653" lon="4.85267">
        <ele>240.2</ele>
        <time>2019-04-15T03:53:18Z</time>
      </trkpt>
      <trkpt lat="45.59634" lon="4.85271">
        <ele>241.4</ele>
        <time>2019-04-15T03:53:22Z</time>
      </trkpt>
      <trkpt lat="45.59614" lon="4.85275">
        <ele>242.4</ele>
        <time>2019-04-15T03:53:26Z</time>
      </trkpt>
      <trkpt lat="45.59595" lon="4.85279">
        <ele>244.4</ele>
        <time>2019-04-15T03:53:30Z</time>
      </trkpt>
      <trkpt lat="45.59576" lon="4.8528">
        <ele>244.6</ele>
        <time>2019-04-15T03:53:34Z</time>
      </trkpt>
      <trkpt lat="45.59557" lon="4.85273">
        <ele>245.4</ele>
        <time>2019-04-15T03:53:38Z</time>
      </trkpt>
      <trkpt lat="45.59537" lon="4.85273">
        <ele>246</ele>
        <time>2019-04-15T03:53:42Z</time>
      </trkpt>
      <trkpt lat="45.59522" lon="4.85292">
        <ele>246.8</ele>
        <time>2019-04-15T03:53:46Z</time>
      </trkpt>
      <trkpt lat="45.59508" lon="4.85314">
        <ele>246.8</ele>
        <time>2019-04-15T03:53:50Z</time>
      </trkpt>
      <trkpt lat="45.59491" lon="4.85331">
        <ele>248</ele>
        <time>2019-04-15T03:53:54Z</time>
      </trkpt>
      <trkpt lat="45.59475" lon="4.85347">
        <ele>248.6</ele>
        <time>2019-04-15T03:53:58Z</time>
      </trkpt>
      <trkpt lat="45.59457" lon="4.85363">
        <ele>250</ele>
        <time>2019-04-15T03:54:02Z</time>
      </trkpt>
      <trkpt lat="45.59439" lon="4.85378">
        <ele>250</ele>
        <time>2019-04-15T03:54:06Z</time>
      </trkpt>
      <trkpt lat="45.59422" lon="4.85394">
        <ele>250.8</ele>
        <time>2019-04-15T03:54:10Z</time>
      </trkpt>
      <trkpt lat="45.59405" lon="4.85411">
        <ele>251.6</ele>
        <time>2019-04-15T03:54:14Z</time>
      </trkpt>
      <trkpt lat="45.59388" lon="4.85429">
        <ele>252</ele>
        <time>2019-04-15T03:54:18Z</time>
      </trkpt>
      <trkpt lat="45.59372" lon="4.85449">
        <ele>252.6</ele>
        <time>2019-04-15T03:54:22Z</time>
      </trkpt>
      <trkpt lat="45.59356" lon="4.85469">
        <ele>253.4</ele>
        <time>2019-04-15T03:54:26Z</time>
      </trkpt>
      <trkpt lat="45.59341" lon="4.8549">
        <ele>254.2</ele>
        <time>2019-04-15T03:54:30Z</time>
      </trkpt>
      <trkpt lat="45.59328" lon="4.85513">
        <ele>254.6</ele>
        <time>2019-04-15T03:54:34Z</time>
      </trkpt>
      <trkpt lat="45.59315" lon="4.85537">
        <ele>255.4</ele>
        <time>2019-04-15T03:54:38Z</time>
      </trkpt>
      <trkpt lat="45.59305" lon="4.85562">
        <ele>255.6</ele>
        <time>2019-04-15T03:54:42Z</time>
      </trkpt>
      <trkpt lat="45.59294" lon="4.85588">
        <ele>256.4</ele>
        <time>2019-04-15T03:54:46Z</time>
      </trkpt>
      <trkpt lat="45.59286" lon="4.85614">
        <ele>257.2</ele>
        <time>2019-04-15T03:54:50Z</time>
      </trkpt>
      <trkpt lat="45.59277" lon="4.85642">
        <ele>257.6</ele>
        <time>2019-04-15T03:54:54Z</time>
      </trkpt>
      <trkpt lat="45.59268" lon="4.8567">
        <ele>258.2</ele>
        <time>2019-04-15T03:54:58Z</time>
      </trkpt>
      <trkpt lat="45.59259" lon="4.85699">
        <ele>258.4</ele>
        <time>2019-04-15T03:55:02Z</time>
      </trkpt>
      <trkpt lat="45.59249" lon="4.85727">
        <ele>258.8</ele>
        <time>2019-04-15T03:55:06Z</time>
      </trkpt>
      <trkpt lat="45.59237" lon="4.85755">
        <ele>259.2</ele>
        <time>2019-04-15T03:55:10Z</time>
      </trkpt>
      <trkpt lat="45.59225" lon="4.85781">
        <ele>260</ele>
        <time>2019-04-15T03:55:14Z</time>
      </trkpt>
      <trkpt lat="45.59212" lon="4.85806">
        <ele>259.8</ele>
        <time>2019-04-15T03:55:18Z</time>
      </trkpt>
      <trkpt lat="45.59198" lon="4.85831">
        <ele>260.8</ele>
        <time>2019-04-15T03:55:22Z</time>
      </trkpt>
      <trkpt lat="45.59183" lon="4.85854">
        <ele>261.4</ele>
        <time>2019-04-15T03:55:26Z</time>
      </trkpt>
      <trkpt lat="45.59167" lon="4.85875">
        <ele>261.6</ele>
        <time>2019-04-15T03:55:30Z</time>
      </trkpt>
      <trkpt lat="45.59151" lon="4.85895">
        <ele>262</ele>
        <time>2019-04-15T03:55:34Z</time>
      </trkpt>
      <trkpt lat="45.59135" lon="4.85915">
        <ele>262.8</ele>
        <time>2019-04-15T03:55:38Z</time>
      </trkpt>
      <trkpt lat="45.59118" lon="4.85936">
        <ele>263.4</ele>
        <time>2019-04-15T03:55:42Z</time>
      </trkpt>
      <trkpt lat="45.59102" lon="4.85957">
        <ele>264.2</ele>
        <time>2019-04-15T03:55:46Z</time>
      </trkpt>
      <trkpt lat="45.59085" lon="4.85977">
        <ele>264.8</ele>
        <time>2019-04-15T03:55:50Z</time>
      </trkpt>
      <trkpt lat="45.59069" lon="4.85997">
        <ele>265.2</ele>
        <time>2019-04-15T03:55:54Z</time>
      </trkpt>
      <trkpt lat="45.59053" lon="4.86016">
        <ele>266.2</ele>
        <time>2019-04-15T03:55:58Z</time>
      </trkpt>
      <trkpt lat="45.59037" lon="4.86033">
        <ele>267</ele>
        <time>2019-04-15T03:56:02Z</time>
      </trkpt>
      <trkpt lat="45.59021" lon="4.86049">
        <ele>268.8</ele>
        <time>2019-04-15T03:56:06Z</time>
      </trkpt>
      <trkpt lat="45.59006" lon="4.86065">
        <ele>269.4</ele>
        <time>2019-04-15T03:56:10Z</time>
      </trkpt>
      <trkpt lat="45.58992" lon="4.86082">
        <ele>270</ele>
        <time>2019-04-15T03:56:14Z</time>
      </trkpt>
      <trkpt lat="45.58977" lon="4.86097">
        <ele>271</ele>
        <time>2019-04-15T03:56:18Z</time>
      </trkpt>
      <trkpt lat="45.58962" lon="4.86109">
        <ele>272.8</ele>
        <time>2019-04-15T03:56:22Z</time>
      </trkpt>
      <trkpt lat="45.58956" lon="4.86132">
        <ele>274</ele>
        <time>2019-04-15T03:56:26Z</time>
      </trkpt>
      <trkpt lat="45.58956" lon="4.86163">
        <ele>274.2</ele>
        <time>2019-04-15T03:56:30Z</time>
      </trkpt>
      <trkpt lat="45.58956" lon="4.86195">
        <ele>274</ele>
        <time>2019-04-15T03:56:34Z</time>
      </trkpt>
      <trkpt lat="45.58957" lon="4.86228">
        <ele>275</ele>
        <time>2019-04-15T03:56:38Z</time>
      </trkpt>
      <trkpt lat="45.58958" lon="4.86261">
        <ele>274.8</ele>
        <time>2019-04-15T03:56:42Z</time>
      </trkpt>
      <trkpt lat="45.58958" lon="4.86295">
        <ele>275</ele>
        <time>2019-04-15T03:56:46Z</time>
      </trkpt>
      <trkpt lat="45.58958" lon="4.86328">
        <ele>275.2</ele>
        <time>2019-04-15T03:56:50Z</time>
      </trkpt>
      <trkpt lat="45.58954" lon="4.86362">
        <ele>275.8</ele>
        <time>2019-04-15T03:56:54Z</time>
      </trkpt>
      <trkpt lat="45.58944" lon="4.86393">
        <ele>275.8</ele>
        <time>2019-04-15T03:56:58Z</time>
      </trkpt>
      <trkpt lat="45.58928" lon="4.86421">
        <ele>275.8</ele>
        <time>2019-04-15T03:57:02Z</time>
      </trkpt>
      <trkpt lat="45.58911" lon="4.86448">
        <ele>275.6</ele>
        <time>2019-04-15T03:57:06Z</time>
      </trkpt>
      <trkpt lat="45.58893" lon="4.86477">
        <ele>275.4</ele>
        <time>2019-04-15T03:57:10Z</time>
      </trkpt>
      <trkpt lat="45.58875" lon="4.86505">
        <ele>275.2</ele>
        <time>2019-04-15T03:57:14Z</time>
      </trkpt>
      <trkpt lat="45.58857" lon="4.86534">
        <ele>275.4</ele>
        <time>2019-04-15T03:57:18Z</time>
      </trkpt>
      <trkpt lat="45.58841" lon="4.86565">
        <ele>275.6</ele>
        <time>2019-04-15T03:57:22Z</time>
      </trkpt>
      <trkpt lat="45.58828" lon="4.86599">
        <ele>275.4</ele>
        <time>2019-04-15T03:57:26Z</time>
      </trkpt>
      <trkpt lat="45.58817" lon="4.86637">
        <ele>274.8</ele>
        <time>2019-04-15T03:57:30Z</time>
      </trkpt>
      <trkpt lat="45.58809" lon="4.86677">
        <ele>274</ele>
        <time>2019-04-15T03:57:34Z</time>
      </trkpt>
      <trkpt lat="45.58802" lon="4.86716">
        <ele>275.2</ele>
        <time>2019-04-15T03:57:38Z</time>
      </trkpt>
      <trkpt lat="45.58794" lon="4.86755">
        <ele>274.6</ele>
        <time>2019-04-15T03:57:42Z</time>
      </trkpt>
      <trkpt lat="45.58784" lon="4.86793">
        <ele>274</ele>
        <time>2019-04-15T03:57:46Z</time>
      </trkpt>
      <trkpt lat="45.58767" lon="4.8683">
        <ele>272.2</ele>
        <time>2019-04-15T03:57:50Z</time>
      </trkpt>
      <trkpt lat="45.58744" lon="4.86865">
        <ele>271.4</ele>
        <time>2019-04-15T03:57:54Z</time>
      </trkpt>
      <trkpt lat="45.58719" lon="4.86899">
        <ele>270.8</ele>
        <time>2019-04-15T03:57:58Z</time>
      </trkpt>
      <trkpt lat="45.58694" lon="4.86934">
        <ele>269.8</ele>
        <time>2019-04-15T03:58:02Z</time>
      </trkpt>
      <trkpt lat="45.58667" lon="4.8697">
        <ele>268.2</ele>
        <time>2019-04-15T03:58:06Z</time>
      </trkpt>
      <trkpt lat="45.58635" lon="4.87002">
        <ele>266.6</ele>
        <time>2019-04-15T03:58:10Z</time>
      </trkpt>
      <trkpt lat="45.58601" lon="4.8703">
        <ele>265.2</ele>
        <time>2019-04-15T03:58:14Z</time>
      </trkpt>
      <trkpt lat="45.58578" lon="4.87072">
        <ele>264.4</ele>
        <time>2019-04-15T03:58:18Z</time>
      </trkpt>
      <trkpt lat="45.58566" lon="4.87124">
        <ele>263.2</ele>
        <time>2019-04-15T03:58:22Z</time>
      </trkpt>
      <trkpt lat="45.58558" lon="4.87179">
        <ele>261</ele>
        <time>2019-04-15T03:58:26Z</time>
      </trkpt>
      <trkpt lat="45.58551" lon="4.87234">
        <ele>259.2</ele>
        <time>2019-04-15T03:58:30Z</time>
      </trkpt>
      <trkpt lat="45.58548" lon="4.8729">
        <ele>257.8</ele>
        <time>2019-04-15T03:58:34Z</time>
      </trkpt>
      <trkpt lat="45.58556" lon="4.87344">
        <ele>256.4</ele>
        <time>2019-04-15T03:58:38Z</time>
      </trkpt>
      <trkpt lat="45.58566" lon="4.87398">
        <ele>255.4</ele>
        <time>2019-04-15T03:58:42Z</time>
      </trkpt>
      <trkpt lat="45.58568" lon="4.87453">
        <ele>254.4</ele>
        <time>2019-04-15T03:58:46Z</time>
      </trkpt>
      <trkpt lat="45.58567" lon="4.87508">
        <ele>254</ele>
        <time>2019-04-15T03:58:50Z</time>
      </trkpt>
      <trkpt lat="45.58567" lon="4.87562">
        <ele>252</ele>
        <time>2019-04-15T03:58:54Z</time>
      </trkpt>
      <trkpt lat="45.58568" lon="4.87617">
        <ele>251.2</ele>
        <time>2019-04-15T03:58:58Z</time>
      </trkpt>
      <trkpt lat="45.58566" lon="4.87672">
        <ele>249.2</ele>
        <time>2019-04-15T03:59:02Z</time>
      </trkpt>
      <trkpt lat="45.58564" lon="4.87726">
        <ele>247.8</ele>
        <time>2019-04-15T03:59:06Z</time>
      </trkpt>
      <trkpt lat="45.58557" lon="4.87774">
        <ele>246.4</ele>
        <time>2019-04-15T03:59:10Z</time>
      </trkpt>
      <trkpt lat="45.58553" lon="4.87795">
        <ele>245.4</ele>
        <time>2019-04-15T03:59:14Z</time>
      </trkpt>
      <trkpt lat="45.58551" lon="4.87801">
        <ele>245.4</ele>
        <time>2019-04-15T03:59:18Z</time>
      </trkpt>
      <trkpt lat="45.58551" lon="4.87822">
        <ele>245.4</ele>
        <time>2019-04-15T03:59:22Z</time>
      </trkpt>
      <trkpt lat="45.58554" lon="4.87853">
        <ele>244.6</ele>
        <time>2019-04-15T03:59:26Z</time>
      </trkpt>
      <trkpt lat="45.58559" lon="4.87885">
        <ele>246.2</ele>
        <time>2019-04-15T03:59:30Z</time>
      </trkpt>
      <trkpt lat="45.58564" lon="4.87917">
        <ele>246</ele>
        <time>2019-04-15T03:59:34Z</time>
      </trkpt>
      <trkpt lat="45.58572" lon="4.87952">
        <ele>245.4</ele>
        <time>2019-04-15T03:59:38Z</time>
      </trkpt>
      <trkpt lat="45.5858" lon="4.87994">
        <ele>245.8</ele>
        <time>2019-04-15T03:59:42Z</time>
      </trkpt>
      <trkpt lat="45.58587" lon="4.88041">
        <ele>244</ele>
        <time>2019-04-15T03:59:46Z</time>
      </trkpt>
      <trkpt lat="45.58586" lon="4.88091">
        <ele>242.2</ele>
        <time>2019-04-15T03:59:50Z</time>
      </trkpt>
      <trkpt lat="45.58562" lon="4.88133">
        <ele>239.6</ele>
        <time>2019-04-15T03:59:54Z</time>
      </trkpt>
      <trkpt lat="45.58537" lon="4.88176">
        <ele>238</ele>
        <time>2019-04-15T03:59:58Z</time>
      </trkpt>
      <trkpt lat="45.5851" lon="4.88221">
        <ele>235.6</ele>
        <time>2019-04-15T04:00:02Z</time>
      </trkpt>
      <trkpt lat="45.58483" lon="4.88267">
        <ele>233</ele>
        <time>2019-04-15T04:00:06Z</time>
      </trkpt>
      <trkpt lat="45.58457" lon="4.88315">
        <ele>230.6</ele>
        <time>2019-04-15T04:00:10Z</time>
      </trkpt>
      <trkpt lat="45.58433" lon="4.88366">
        <ele>228.4</ele>
        <time>2019-04-15T04:00:14Z</time>
      </trkpt>
      <trkpt lat="45.58412" lon="4.88421">
        <ele>225.8</ele>
        <time>2019-04-15T04:00:18Z</time>
      </trkpt>
      <trkpt lat="45.58391" lon="4.88473">
        <ele>224.8</ele>
        <time>2019-04-15T04:00:22Z</time>
      </trkpt>
      <trkpt lat="45.58369" lon="4.8852">
        <ele>224.4</ele>
        <time>2019-04-15T04:00:26Z</time>
      </trkpt>
      <trkpt lat="45.58343" lon="4.88559">
        <ele>224.4</ele>
        <time>2019-04-15T04:00:30Z</time>
      </trkpt>
      <trkpt lat="45.58323" lon="4.88597">
        <ele>224.2</ele>
        <time>2019-04-15T04:00:34Z</time>
      </trkpt>
      <trkpt lat="45.58326" lon="4.88635">
        <ele>223.2</ele>
        <time>2019-04-15T04:00:38Z</time>
      </trkpt>
      <trkpt lat="45.58342" lon="4.88673">
        <ele>222.6</ele>
        <time>2019-04-15T04:00:42Z</time>
      </trkpt>
      <trkpt lat="45.58356" lon="4.88718">
        <ele>221</ele>
        <time>2019-04-15T04:00:46Z</time>
      </trkpt>
      <trkpt lat="45.58365" lon="4.88768">
        <ele>220.4</ele>
        <time>2019-04-15T04:00:50Z</time>
      </trkpt>
      <trkpt lat="45.58375" lon="4.88819">
        <ele>219.4</ele>
        <time>2019-04-15T04:00:54Z</time>
      </trkpt>
      <trkpt lat="45.58385" lon="4.88871">
        <ele>216.8</ele>
        <time>2019-04-15T04:00:58Z</time>
      </trkpt>
      <trkpt lat="45.58396" lon="4.88922">
        <ele>215.8</ele>
        <time>2019-04-15T04:01:02Z</time>
      </trkpt>
      <trkpt lat="45.58408" lon="4.8897">
        <ele>215</ele>
        <time>2019-04-15T04:01:06Z</time>
      </trkpt>
      <trkpt lat="45.58419" lon="4.89018">
        <ele>214.6</ele>
        <time>2019-04-15T04:01:10Z</time>
      </trkpt>
      <trkpt lat="45.58432" lon="4.89065">
        <ele>213.4</ele>
        <time>2019-04-15T04:01:14Z</time>
      </trkpt>
      <trkpt lat="45.58445" lon="4.8911">
        <ele>213.4</ele>
        <time>2019-04-15T04:01:18Z</time>
      </trkpt>
      <trkpt lat="45.58459" lon="4.89152">
        <ele>213.4</ele>
        <time>2019-04-15T04:01:22Z</time>
      </trkpt>
      <trkpt lat="45.58473" lon="4.89193">
        <ele>214</ele>
        <time>2019-04-15T04:01:26Z</time>
      </trkpt>
      <trkpt lat="45.58486" lon="4.89232">
        <ele>214</ele>
        <time>2019-04-15T04:01:30Z</time>
      </trkpt>
      <trkpt lat="45.585" lon="4.89269">
        <ele>214</ele>
        <time>2019-04-15T04:01:34Z</time>
      </trkpt>
      <trkpt lat="45.58514" lon="4.89306">
        <ele>214</ele>
        <time>2019-04-15T04:01:38Z</time>
      </trkpt>
      <trkpt lat="45.58528" lon="4.89343">
        <ele>214</ele>
        <time>2019-04-15T04:01:42Z</time>
      </trkpt>
      <trkpt lat="45.58541" lon="4.8938">
        <ele>214</ele>
        <time>2019-04-15T04:01:46Z</time>
      </trkpt>
      <trkpt lat="45.58553" lon="4.89419">
        <ele>214</ele>
        <time>2019-04-15T04:01:50Z</time>
      </trkpt>
      <trkpt lat="45.58563" lon="4.89458">
        <ele>214.2</ele>
        <time>2019-04-15T04:01:54Z</time>
      </trkpt>
      <trkpt lat="45.58571" lon="4.89497">
        <ele>214.6</ele>
        <time>2019-04-15T04:01:58Z</time>
      </trkpt>
      <trkpt lat="45.58579" lon="4.89534">
        <ele>214.6</ele>
        <time>2019-04-15T04:02:02Z</time>
      </trkpt>
      <trkpt lat="45.58588" lon="4.89572">
        <ele>215.4</ele>
        <time>2019-04-15T04:02:06Z</time>
      </trkpt>
      <trkpt lat="45.58594" lon="4.8961">
        <ele>215.4</ele>
        <time>2019-04-15T04:02:10Z</time>
      </trkpt>
      <trkpt lat="45.586" lon="4.89648">
        <ele>216.2</ele>
        <time>2019-04-15T04:02:14Z</time>
      </trkpt>
      <trkpt lat="45.58605" lon="4.89687">
        <ele>216.4</ele>
        <time>2019-04-15T04:02:18Z</time>
      </trkpt>
      <trkpt lat="45.5861" lon="4.89729">
        <ele>217</ele>
        <time>2019-04-15T04:02:22Z</time>
      </trkpt>
      <trkpt lat="45.58615" lon="4.89772">
        <ele>216.4</ele>
        <time>2019-04-15T04:02:26Z</time>
      </trkpt>
      <trkpt lat="45.58617" lon="4.89816">
        <ele>215.6</ele>
        <time>2019-04-15T04:02:30Z</time>
      </trkpt>
      <trkpt lat="45.58617" lon="4.89858">
        <ele>215.8</ele>
        <time>2019-04-15T04:02:34Z</time>
      </trkpt>
      <trkpt lat="45.58616" lon="4.89901">
        <ele>215.8</ele>
        <time>2019-04-15T04:02:38Z</time>
      </trkpt>
      <trkpt lat="45.58615" lon="4.89942">
        <ele>215.8</ele>
        <time>2019-04-15T04:02:42Z</time>
      </trkpt>
      <trkpt lat="45.58614" lon="4.89982">
        <ele>216.4</ele>
        <time>2019-04-15T04:02:46Z</time>
      </trkpt>
      <trkpt lat="45.58614" lon="4.90022">
        <ele>216.2</ele>
        <time>2019-04-15T04:02:50Z</time>
      </trkpt>
      <trkpt lat="45.58614" lon="4.90061">
        <ele>216.8</ele>
        <time>2019-04-15T04:02:54Z</time>
      </trkpt>
      <trkpt lat="45.58614" lon="4.90101">
        <ele>216.8</ele>
        <time>2019-04-15T04:02:58Z</time>
      </trkpt>
      <trkpt lat="45.58613" lon="4.90142">
        <ele>216.8</ele>
        <time>2019-04-15T04:03:02Z</time>
      </trkpt>
      <trkpt lat="45.58613" lon="4.90183">
        <ele>216.8</ele>
        <time>2019-04-15T04:03:06Z</time>
      </trkpt>
      <trkpt lat="45.58613" lon="4.90224">
        <ele>216.6</ele>
        <time>2019-04-15T04:03:10Z</time>
      </trkpt>
      <trkpt lat="45.58612" lon="4.90265">
        <ele>216.8</ele>
        <time>2019-04-15T04:03:14Z</time>
      </trkpt>
      <trkpt lat="45.58612" lon="4.90306">
        <ele>217</ele>
        <time>2019-04-15T04:03:18Z</time>
      </trkpt>
      <trkpt lat="45.58612" lon="4.90347">
        <ele>217.2</ele>
        <time>2019-04-15T04:03:22Z</time>
      </trkpt>
      <trkpt lat="45.58613" lon="4.90387">
        <ele>217.2</ele>
        <time>2019-04-15T04:03:26Z</time>
      </trkpt>
      <trkpt lat="45.58615" lon="4.90428">
        <ele>217.4</ele>
        <time>2019-04-15T04:03:30Z</time>
      </trkpt>
      <trkpt lat="45.58618" lon="4.90468">
        <ele>217.4</ele>
        <time>2019-04-15T04:03:34Z</time>
      </trkpt>
      <trkpt lat="45.58621" lon="4.90508">
        <ele>217.4</ele>
        <time>2019-04-15T04:03:38Z</time>
      </trkpt>
      <trkpt lat="45.58625" lon="4.90551">
        <ele>217.2</ele>
        <time>2019-04-15T04:03:42Z</time>
      </trkpt>
      <trkpt lat="45.58628" lon="4.90594">
        <ele>217</ele>
        <time>2019-04-15T04:03:46Z</time>
      </trkpt>
      <trkpt lat="45.58629" lon="4.90637">
        <ele>216.8</ele>
        <time>2019-04-15T04:03:50Z</time>
      </trkpt>
      <trkpt lat="45.58631" lon="4.9068">
        <ele>216.2</ele>
        <time>2019-04-15T04:03:54Z</time>
      </trkpt>
      <trkpt lat="45.58637" lon="4.90721">
        <ele>216.2</ele>
        <time>2019-04-15T04:03:58Z</time>
      </trkpt>
      <trkpt lat="45.58638" lon="4.90762">
        <ele>216.6</ele>
        <time>2019-04-15T04:04:02Z</time>
      </trkpt>
      <trkpt lat="45.58638" lon="4.90803">
        <ele>216.2</ele>
        <time>2019-04-15T04:04:06Z</time>
      </trkpt>
      <trkpt lat="45.58635" lon="4.90844">
        <ele>216.6</ele>
        <time>2019-04-15T04:04:10Z</time>
      </trkpt>
      <trkpt lat="45.58629" lon="4.90885">
        <ele>217.2</ele>
        <time>2019-04-15T04:04:14Z</time>
      </trkpt>
      <trkpt lat="45.58621" lon="4.90926">
        <ele>217</ele>
        <time>2019-04-15T04:04:18Z</time>
      </trkpt>
      <trkpt lat="45.58612" lon="4.90965">
        <ele>217.4</ele>
        <time>2019-04-15T04:04:22Z</time>
      </trkpt>
      <trkpt lat="45.58601" lon="4.91001">
        <ele>217.8</ele>
        <time>2019-04-15T04:04:26Z</time>
      </trkpt>
      <trkpt lat="45.5859" lon="4.91038">
        <ele>217.8</ele>
        <time>2019-04-15T04:04:30Z</time>
      </trkpt>
      <trkpt lat="45.58579" lon="4.91074">
        <ele>218.2</ele>
        <time>2019-04-15T04:04:34Z</time>
      </trkpt>
      <trkpt lat="45.58568" lon="4.91111">
        <ele>218</ele>
        <time>2019-04-15T04:04:38Z</time>
      </trkpt>
      <trkpt lat="45.58559" lon="4.9115">
        <ele>218.6</ele>
        <time>2019-04-15T04:04:42Z</time>
      </trkpt>
      <trkpt lat="45.58551" lon="4.91189">
        <ele>218.8</ele>
        <time>2019-04-15T04:04:46Z</time>
      </trkpt>
      <trkpt lat="45.58547" lon="4.91229">
        <ele>218.8</ele>
        <time>2019-04-15T04:04:50Z</time>
      </trkpt>
      <trkpt lat="45.5854" lon="4.91271">
        <ele>218.4</ele>
        <time>2019-04-15T04:04:54Z</time>
      </trkpt>
      <trkpt lat="45.58535" lon="4.91312">
        <ele>218.4</ele>
        <time>2019-04-15T04:04:58Z</time>
      </trkpt>
      <trkpt lat="45.58531" lon="4.91352">
        <ele>218.4</ele>
        <time>2019-04-15T04:05:02Z</time>
      </trkpt>
      <trkpt lat="45.58521" lon="4.91388">
        <ele>218</ele>
        <time>2019-04-15T04:05:06Z</time>
      </trkpt>
      <trkpt lat="45.58516" lon="4.91428">
        <ele>216.8</ele>
        <time>2019-04-15T04:05:10Z</time>
      </trkpt>
      <trkpt lat="45.58524" lon="4.91467">
        <ele>215.8</ele>
        <time>2019-04-15T04:05:14Z</time>
      </trkpt>
      <trkpt lat="45.58549" lon="4.91476">
        <ele>216.2</ele>
        <time>2019-04-15T04:05:18Z</time>
      </trkpt>
      <trkpt lat="45.58572" lon="4.91495">
        <ele>216.6</ele>
        <time>2019-04-15T04:05:22Z</time>
      </trkpt>
      <trkpt lat="45.58586" lon="4.91528">
        <ele>217</ele>
        <time>2019-04-15T04:05:26Z</time>
      </trkpt>
      <trkpt lat="45.58592" lon="4.91564">
        <ele>217.4</ele>
        <time>2019-04-15T04:05:30Z</time>
      </trkpt>
      <trkpt lat="45.58592" lon="4.91601">
        <ele>217.2</ele>
        <time>2019-04-15T04:05:34Z</time>
      </trkpt>
      <trkpt lat="45.58588" lon="4.91638">
        <ele>219.2</ele>
        <time>2019-04-15T04:05:38Z</time>
      </trkpt>
      <trkpt lat="45.58585" lon="4.91674">
        <ele>219.2</ele>
        <time>2019-04-15T04:05:42Z</time>
      </trkpt>
      <trkpt lat="45.58583" lon="4.9171">
        <ele>220.2</ele>
        <time>2019-04-15T04:05:46Z</time>
      </trkpt>
      <trkpt lat="45.58583" lon="4.91746">
        <ele>220.6</ele>
        <time>2019-04-15T04:05:50Z</time>
      </trkpt>
      <trkpt lat="45.58582" lon="4.91782">
        <ele>221.2</ele>
        <time>2019-04-15T04:05:54Z</time>
      </trkpt>
      <trkpt lat="45.5858" lon="4.91818">
        <ele>221.6</ele>
        <time>2019-04-15T04:05:58Z</time>
      </trkpt>
      <trkpt lat="45.58579" lon="4.91857">
        <ele>221.4</ele>
        <time>2019-04-15T04:06:02Z</time>
      </trkpt>
      <trkpt lat="45.5858" lon="4.91898">
        <ele>221</ele>
        <time>2019-04-15T04:06:06Z</time>
      </trkpt>
      <trkpt lat="45.58582" lon="4.91939">
        <ele>220.6</ele>
        <time>2019-04-15T04:06:10Z</time>
      </trkpt>
      <trkpt lat="45.58586" lon="4.91981">
        <ele>220.2</ele>
        <time>2019-04-15T04:06:14Z</time>
      </trkpt>
      <trkpt lat="45.58593" lon="4.9202">
        <ele>219.8</ele>
        <time>2019-04-15T04:06:18Z</time>
      </trkpt>
      <trkpt lat="45.58602" lon="4.92058">
        <ele>219.8</ele>
        <time>2019-04-15T04:06:22Z</time>
      </trkpt>
      <trkpt lat="45.58612" lon="4.92096">
        <ele>219.8</ele>
        <time>2019-04-15T04:06:26Z</time>
      </trkpt>
      <trkpt lat="45.58618" lon="4.92135">
        <ele>219.6</ele>
        <time>2019-04-15T04:06:30Z</time>
      </trkpt>
      <trkpt lat="45.5862" lon="4.92175">
        <ele>219.6</ele>
        <time>2019-04-15T04:06:34Z</time>
      </trkpt>
      <trkpt lat="45.58619" lon="4.92216">
        <ele>219</ele>
        <time>2019-04-15T04:06:38Z</time>
      </trkpt>
      <trkpt lat="45.58616" lon="4.92256">
        <ele>219</ele>
        <time>2019-04-15T04:06:42Z</time>
      </trkpt>
      <trkpt lat="45.58619" lon="4.92296">
        <ele>219.2</ele>
        <time>2019-04-15T04:06:46Z</time>
      </trkpt>
      <trkpt lat="45.58627" lon="4.92336">
        <ele>219.2</ele>
        <time>2019-04-15T04:06:50Z</time>
      </trkpt>
      <trkpt lat="45.58638" lon="4.92375">
        <ele>219</ele>
        <time>2019-04-15T04:06:54Z</time>
      </trkpt>
      <trkpt lat="45.58647" lon="4.92417">
        <ele>218.6</ele>
        <time>2019-04-15T04:06:58Z</time>
      </trkpt>
      <trkpt lat="45.58652" lon="4.92458">
        <ele>218.6</ele>
        <time>2019-04-15T04:07:02Z</time>
      </trkpt>
      <trkpt lat="45.58659" lon="4.92498">
        <ele>218.4</ele>
        <time>2019-04-15T04:07:06Z</time>
      </trkpt>
      <trkpt lat="45.58666" lon="4.92535">
        <ele>218.8</ele>
        <time>2019-04-15T04:07:10Z</time>
      </trkpt>
      <trkpt lat="45.58673" lon="4.92572">
        <ele>219.2</ele>
        <time>2019-04-15T04:07:14Z</time>
      </trkpt>
      <trkpt lat="45.58681" lon="4.92607">
        <ele>220.2</ele>
        <time>2019-04-15T04:07:18Z</time>
      </trkpt>
      <trkpt lat="45.58692" lon="4.9264">
        <ele>221</ele>
        <time>2019-04-15T04:07:22Z</time>
      </trkpt>
      <trkpt lat="45.58706" lon="4.92672">
        <ele>221.4</ele>
        <time>2019-04-15T04:07:26Z</time>
      </trkpt>
      <trkpt lat="45.5872" lon="4.92705">
        <ele>222</ele>
        <time>2019-04-15T04:07:30Z</time>
      </trkpt>
      <trkpt lat="45.58731" lon="4.92743">
        <ele>222</ele>
        <time>2019-04-15T04:07:34Z</time>
      </trkpt>
      <trkpt lat="45.58739" lon="4.92785">
        <ele>220.8</ele>
        <time>2019-04-15T04:07:38Z</time>
      </trkpt>
      <trkpt lat="45.58746" lon="4.92831">
        <ele>220.6</ele>
        <time>2019-04-15T04:07:42Z</time>
      </trkpt>
      <trkpt lat="45.58752" lon="4.92878">
        <ele>219.6</ele>
        <time>2019-04-15T04:07:46Z</time>
      </trkpt>
      <trkpt lat="45.58758" lon="4.92923">
        <ele>219.8</ele>
        <time>2019-04-15T04:07:50Z</time>
      </trkpt>
      <trkpt lat="45.58764" lon="4.92966">
        <ele>219.6</ele>
        <time>2019-04-15T04:07:54Z</time>
      </trkpt>
      <trkpt lat="45.58769" lon="4.93007">
        <ele>219.8</ele>
        <time>2019-04-15T04:07:58Z</time>
      </trkpt>
      <trkpt lat="45.58774" lon="4.93047">
        <ele>220</ele>
        <time>2019-04-15T04:08:02Z</time>
      </trkpt>
      <trkpt lat="45.58779" lon="4.93087">
        <ele>219.8</ele>
        <time>2019-04-15T04:08:06Z</time>
      </trkpt>
      <trkpt lat="45.58784" lon="4.93126">
        <ele>220</ele>
        <time>2019-04-15T04:08:10Z</time>
      </trkpt>
      <trkpt lat="45.5879" lon="4.93165">
        <ele>220</ele>
        <time>2019-04-15T04:08:14Z</time>
      </trkpt>
      <trkpt lat="45.58795" lon="4.93205">
        <ele>220.4</ele>
        <time>2019-04-15T04:08:18Z</time>
      </trkpt>
      <trkpt lat="45.58801" lon="4.93243">
        <ele>220.4</ele>
        <time>2019-04-15T04:08:22Z</time>
      </trkpt>
      <trkpt lat="45.58808" lon="4.9328">
        <ele>221.2</ele>
        <time>2019-04-15T04:08:26Z</time>
      </trkpt>
      <trkpt lat="45.58817" lon="4.93316">
        <ele>221.6</ele>
        <time>2019-04-15T04:08:30Z</time>
      </trkpt>
      <trkpt lat="45.58826" lon="4.93351">
        <ele>221.8</ele>
        <time>2019-04-15T04:08:34Z</time>
      </trkpt>
      <trkpt lat="45.58835" lon="4.93386">
        <ele>222.2</ele>
        <time>2019-04-15T04:08:38Z</time>
      </trkpt>
      <trkpt lat="45.58845" lon="4.9342">
        <ele>222.6</ele>
        <time>2019-04-15T04:08:42Z</time>
      </trkpt>
      <trkpt lat="45.58854" lon="4.93455">
        <ele>222.8</ele>
        <time>2019-04-15T04:08:46Z</time>
      </trkpt>
      <trkpt lat="45.58864" lon="4.93489">
        <ele>223.2</ele>
        <time>2019-04-15T04:08:50Z</time>
      </trkpt>
      <trkpt lat="45.58873" lon="4.93522">
        <ele>223.6</ele>
        <time>2019-04-15T04:08:54Z</time>
      </trkpt>
      <trkpt lat="45.58882" lon="4.93556">
        <ele>224.2</ele>
        <time>2019-04-15T04:08:58Z</time>
      </trkpt>
      <trkpt lat="45.58892" lon="4.93588">
        <ele>224.8</ele>
        <time>2019-04-15T04:09:02Z</time>
      </trkpt>
      <trkpt lat="45.58901" lon="4.93621">
        <ele>225</ele>
        <time>2019-04-15T04:09:06Z</time>
      </trkpt>
      <trkpt lat="45.58911" lon="4.93652">
        <ele>226</ele>
        <time>2019-04-15T04:09:10Z</time>
      </trkpt>
      <trkpt lat="45.58921" lon="4.93682">
        <ele>226.6</ele>
        <time>2019-04-15T04:09:14Z</time>
      </trkpt>
      <trkpt lat="45.58931" lon="4.93712">
        <ele>227</ele>
        <time>2019-04-15T04:09:18Z</time>
      </trkpt>
      <trkpt lat="45.58941" lon="4.93741">
        <ele>228.8</ele>
        <time>2019-04-15T04:09:22Z</time>
      </trkpt>
      <trkpt lat="45.58949" lon="4.93773">
        <ele>229.6</ele>
        <time>2019-04-15T04:09:26Z</time>
      </trkpt>
      <trkpt lat="45.58956" lon="4.93805">
        <ele>230</ele>
        <time>2019-04-15T04:09:30Z</time>
      </trkpt>
      <trkpt lat="45.58963" lon="4.93838">
        <ele>231.2</ele>
        <time>2019-04-15T04:09:34Z</time>
      </trkpt>
      <trkpt lat="45.5897" lon="4.9387">
        <ele>231.6</ele>
        <time>2019-04-15T04:09:38Z</time>
      </trkpt>
      <trkpt lat="45.58976" lon="4.93902">
        <ele>232.4</ele>
        <time>2019-04-15T04:09:42Z</time>
      </trkpt>
      <trkpt lat="45.58981" lon="4.93934">
        <ele>233</ele>
        <time>2019-04-15T04:09:46Z</time>
      </trkpt>
      <trkpt lat="45.58984" lon="4.93968">
        <ele>233.2</ele>
        <time>2019-04-15T04:09:50Z</time>
      </trkpt>
      <trkpt lat="45.58987" lon="4.94003">
        <ele>233.2</ele>
        <time>2019-04-15T04:09:54Z</time>
      </trkpt>
      <trkpt lat="45.5899" lon="4.9404">
        <ele>233.4</ele>
        <time>2019-04-15T04:09:58Z</time>
      </trkpt>
      <trkpt lat="45.58994" lon="4.94077">
        <ele>232.4</ele>
        <time>2019-04-15T04:10:02Z</time>
      </trkpt>
      <trkpt lat="45.58998" lon="4.94115">
        <ele>233.4</ele>
        <time>2019-04-15T04:10:06Z</time>
      </trkpt>
      <trkpt lat="45.59" lon="4.94153">
        <ele>232.8</ele>
        <time>2019-04-15T04:10:10Z</time>
      </trkpt>
      <trkpt lat="45.59" lon="4.94192">
        <ele>232.6</ele>
        <time>2019-04-15T04:10:14Z</time>
      </trkpt>
      <trkpt lat="45.58999" lon="4.9423">
        <ele>232.6</ele>
        <time>2019-04-15T04:10:18Z</time>
      </trkpt>
      <trkpt lat="45.58995" lon="4.94267">
        <ele>232</ele>
        <time>2019-04-15T04:10:22Z</time>
      </trkpt>
      <trkpt lat="45.5899" lon="4.94306">
        <ele>232.2</ele>
        <time>2019-04-15T04:10:26Z</time>
      </trkpt>
      <trkpt lat="45.58984" lon="4.94347">
        <ele>231.6</ele>
        <time>2019-04-15T04:10:30Z</time>
      </trkpt>
      <trkpt lat="45.58977" lon="4.94388">
        <ele>231</ele>
        <time>2019-04-15T04:10:34Z</time>
      </trkpt>
      <trkpt lat="45.58966" lon="4.94429">
        <ele>230</ele>
        <time>2019-04-15T04:10:38Z</time>
      </trkpt>
      <trkpt lat="45.58952" lon="4.94469">
        <ele>229.6</ele>
        <time>2019-04-15T04:10:42Z</time>
      </trkpt>
      <trkpt lat="45.58934" lon="4.94505">
        <ele>229.8</ele>
        <time>2019-04-15T04:10:46Z</time>
      </trkpt>
      <trkpt lat="45.58914" lon="4.94538">
        <ele>229.6</ele>
        <time>2019-04-15T04:10:50Z</time>
      </trkpt>
      <trkpt lat="45.58893" lon="4.94566">
        <ele>229.2</ele>
        <time>2019-04-15T04:10:54Z</time>
      </trkpt>
      <trkpt lat="45.58871" lon="4.94591">
        <ele>229.2</ele>
        <time>2019-04-15T04:10:58Z</time>
      </trkpt>
      <trkpt lat="45.58846" lon="4.94611">
        <ele>229.2</ele>
        <time>2019-04-15T04:11:02Z</time>
      </trkpt>
      <trkpt lat="45.58821" lon="4.94628">
        <ele>229.2</ele>
        <time>2019-04-15T04:11:06Z</time>
      </trkpt>
      <trkpt lat="45.58796" lon="4.94645">
        <ele>229.2</ele>
        <time>2019-04-15T04:11:10Z</time>
      </trkpt>
      <trkpt lat="45.58772" lon="4.94665">
        <ele>228.6</ele>
        <time>2019-04-15T04:11:14Z</time>
      </trkpt>
      <trkpt lat="45.5875" lon="4.9469">
        <ele>228.6</ele>
        <time>2019-04-15T04:11:18Z</time>
      </trkpt>
      <trkpt lat="45.58733" lon="4.9472">
        <ele>229.2</ele>
        <time>2019-04-15T04:11:22Z</time>
      </trkpt>
      <trkpt lat="45.5872" lon="4.94754">
        <ele>228.6</ele>
        <time>2019-04-15T04:11:26Z</time>
      </trkpt>
      <trkpt lat="45.58711" lon="4.94791">
        <ele>228.4</ele>
        <time>2019-04-15T04:11:30Z</time>
      </trkpt>
      <trkpt lat="45.58706" lon="4.94829">
        <ele>228</ele>
        <time>2019-04-15T04:11:34Z</time>
      </trkpt>
      <trkpt lat="45.58701" lon="4.94868">
        <ele>227.6</ele>
        <time>2019-04-15T04:11:38Z</time>
      </trkpt>
      <trkpt lat="45.58698" lon="4.94906">
        <ele>228</ele>
        <time>2019-04-15T04:11:42Z</time>
      </trkpt>
      <trkpt lat="45.58694" lon="4.94945">
        <ele>226.8</ele>
        <time>2019-04-15T04:11:46Z</time>
      </trkpt>
      <trkpt lat="45.5869" lon="4.94984">
        <ele>227</ele>
        <time>2019-04-15T04:11:50Z</time>
      </trkpt>
      <trkpt lat="45.58686" lon="4.95022">
        <ele>227.4</ele>
        <time>2019-04-15T04:11:54Z</time>
      </trkpt>
      <trkpt lat="45.58682" lon="4.9506">
        <ele>226.8</ele>
        <time>2019-04-15T04:11:58Z</time>
      </trkpt>
      <trkpt lat="45.58677" lon="4.95097">
        <ele>226.8</ele>
        <time>2019-04-15T04:12:02Z</time>
      </trkpt>
      <trkpt lat="45.58672" lon="4.95134">
        <ele>226.8</ele>
        <time>2019-04-15T04:12:06Z</time>
      </trkpt>
      <trkpt lat="45.58667" lon="4.95171">
        <ele>226.6</ele>
        <time>2019-04-15T04:12:10Z</time>
      </trkpt>
      <trkpt lat="45.58664" lon="4.95208">
        <ele>226.8</ele>
        <time>2019-04-15T04:12:14Z</time>
      </trkpt>
      <trkpt lat="45.5866" lon="4.95244">
        <ele>226.4</ele>
        <time>2019-04-15T04:12:18Z</time>
      </trkpt>
      <trkpt lat="45.58656" lon="4.9528">
        <ele>227.4</ele>
        <time>2019-04-15T04:12:22Z</time>
      </trkpt>
      <trkpt lat="45.58653" lon="4.95317">
        <ele>227.6</ele>
        <time>2019-04-15T04:12:26Z</time>
      </trkpt>
      <trkpt lat="45.58649" lon="4.95354">
        <ele>227.4</ele>
        <time>2019-04-15T04:12:30Z</time>
      </trkpt>
      <trkpt lat="45.58645" lon="4.95391">
        <ele>227.4</ele>
        <time>2019-04-15T04:12:34Z</time>
      </trkpt>
      <trkpt lat="45.58642" lon="4.95428">
        <ele>227.4</ele>
        <time>2019-04-15T04:12:38Z</time>
      </trkpt>
      <trkpt lat="45.58638" lon="4.95465">
        <ele>228</ele>
        <time>2019-04-15T04:12:42Z</time>
      </trkpt>
      <trkpt lat="45.58635" lon="4.95503">
        <ele>228.2</ele>
        <time>2019-04-15T04:12:46Z</time>
      </trkpt>
      <trkpt lat="45.58632" lon="4.95541">
        <ele>228.6</ele>
        <time>2019-04-15T04:12:50Z</time>
      </trkpt>
      <trkpt lat="45.58629" lon="4.95578">
        <ele>228.6</ele>
        <time>2019-04-15T04:12:54Z</time>
      </trkpt>
      <trkpt lat="45.58626" lon="4.95616">
        <ele>228.6</ele>
        <time>2019-04-15T04:12:58Z</time>
      </trkpt>
      <trkpt lat="45.58622" lon="4.95653">
        <ele>228.4</ele>
        <time>2019-04-15T04:13:02Z</time>
      </trkpt>
      <trkpt lat="45.58618" lon="4.95691">
        <ele>228.8</ele>
        <time>2019-04-15T04:13:06Z</time>
      </trkpt>
      <trkpt lat="45.58614" lon="4.95728">
        <ele>229.2</ele>
        <time>2019-04-15T04:13:10Z</time>
      </trkpt>
      <trkpt lat="45.5861" lon="4.95765">
        <ele>228.8</ele>
        <time>2019-04-15T04:13:14Z</time>
      </trkpt>
      <trkpt lat="45.58607" lon="4.95801">
        <ele>229</ele>
        <time>2019-04-15T04:13:18Z</time>
      </trkpt>
      <trkpt lat="45.58603" lon="4.95837">
        <ele>229.2</ele>
        <time>2019-04-15T04:13:22Z</time>
      </trkpt>
      <trkpt lat="45.58599" lon="4.95873">
        <ele>229.2</ele>
        <time>2019-04-15T04:13:26Z</time>
      </trkpt>
      <trkpt lat="45.58594" lon="4.95909">
        <ele>229.6</ele>
        <time>2019-04-15T04:13:30Z</time>
      </trkpt>
      <trkpt lat="45.58588" lon="4.95944">
        <ele>229.6</ele>
        <time>2019-04-15T04:13:34Z</time>
      </trkpt>
      <trkpt lat="45.58582" lon="4.95979">
        <ele>229.8</ele>
        <time>2019-04-15T04:13:38Z</time>
      </trkpt>
      <trkpt lat="45.58581" lon="4.96014">
        <ele>230.2</ele>
        <time>2019-04-15T04:13:42Z</time>
      </trkpt>
      <trkpt lat="45.58571" lon="4.96043">
        <ele>231</ele>
        <time>2019-04-15T04:13:46Z</time>
      </trkpt>
      <trkpt lat="45.58548" lon="4.96059">
        <ele>230.8</ele>
        <time>2019-04-15T04:13:50Z</time>
      </trkpt>
      <trkpt lat="45.58521" lon="4.96057">
        <ele>230.2</ele>
        <time>2019-04-15T04:13:54Z</time>
      </trkpt>
      <trkpt lat="45.58492" lon="4.96053">
        <ele>230.2</ele>
        <time>2019-04-15T04:13:58Z</time>
      </trkpt>
      <trkpt lat="45.58463" lon="4.96048">
        <ele>229.6</ele>
        <time>2019-04-15T04:14:02Z</time>
      </trkpt>
      <trkpt lat="45.58434" lon="4.96043">
        <ele>229.6</ele>
        <time>2019-04-15T04:14:06Z</time>
      </trkpt>
      <trkpt lat="45.58406" lon="4.96038">
        <ele>229</ele>
        <time>2019-04-15T04:14:10Z</time>
      </trkpt>
      <trkpt lat="45.58377" lon="4.96032">
        <ele>228.6</ele>
        <time>2019-04-15T04:14:14Z</time>
      </trkpt>
      <trkpt lat="45.58347" lon="4.96027">
        <ele>228</ele>
        <time>2019-04-15T04:14:18Z</time>
      </trkpt>
      <trkpt lat="45.58317" lon="4.96021">
        <ele>227.4</ele>
        <time>2019-04-15T04:14:22Z</time>
      </trkpt>
      <trkpt lat="45.58287" lon="4.96015">
        <ele>226.6</ele>
        <time>2019-04-15T04:14:26Z</time>
      </trkpt>
      <trkpt lat="45.58257" lon="4.96009">
        <ele>226.4</ele>
        <time>2019-04-15T04:14:30Z</time>
      </trkpt>
      <trkpt lat="45.58227" lon="4.96003">
        <ele>226.2</ele>
        <time>2019-04-15T04:14:34Z</time>
      </trkpt>
      <trkpt lat="45.58198" lon="4.95996">
        <ele>226</ele>
        <time>2019-04-15T04:14:38Z</time>
      </trkpt>
      <trkpt lat="45.58168" lon="4.95991">
        <ele>225.2</ele>
        <time>2019-04-15T04:14:42Z</time>
      </trkpt>
      <trkpt lat="45.58139" lon="4.95985">
        <ele>225.2</ele>
        <time>2019-04-15T04:14:46Z</time>
      </trkpt>
      <trkpt lat="45.5811" lon="4.95979">
        <ele>224.8</ele>
        <time>2019-04-15T04:14:50Z</time>
      </trkpt>
      <trkpt lat="45.5808" lon="4.95973">
        <ele>224.4</ele>
        <time>2019-04-15T04:14:54Z</time>
      </trkpt>
      <trkpt lat="45.58049" lon="4.95967">
        <ele>224</ele>
        <time>2019-04-15T04:14:58Z</time>
      </trkpt>
      <trkpt lat="45.58019" lon="4.95961">
        <ele>223.4</ele>
        <time>2019-04-15T04:15:02Z</time>
      </trkpt>
      <trkpt lat="45.57989" lon="4.95955">
        <ele>223.4</ele>
        <time>2019-04-15T04:15:06Z</time>
      </trkpt>
      <trkpt lat="45.5796" lon="4.95949">
        <ele>222.8</ele>
        <time>2019-04-15T04:15:10Z</time>
      </trkpt>
      <trkpt lat="45.57931" lon="4.95944">
        <ele>222.6</ele>
        <time>2019-04-15T04:15:14Z</time>
      </trkpt>
      <trkpt lat="45.57902" lon="4.95938">
        <ele>223</ele>
        <time>2019-04-15T04:15:18Z</time>
      </trkpt>
      <trkpt lat="45.57874" lon="4.95934">
        <ele>223</ele>
        <time>2019-04-15T04:15:22Z</time>
      </trkpt>
      <trkpt lat="45.57846" lon="4.95929">
        <ele>222.6</ele>
        <time>2019-04-15T04:15:26Z</time>
      </trkpt>
      <trkpt lat="45.57818" lon="4.95924">
        <ele>222.8</ele>
        <time>2019-04-15T04:15:30Z</time>
      </trkpt>
      <trkpt lat="45.5779" lon="4.95919">
        <ele>222.8</ele>
        <time>2019-04-15T04:15:34Z</time>
      </trkpt>
      <trkpt lat="45.57763" lon="4.95914">
        <ele>223.2</ele>
        <time>2019-04-15T04:15:38Z</time>
      </trkpt>
      <trkpt lat="45.57736" lon="4.9591">
        <ele>223.2</ele>
        <time>2019-04-15T04:15:42Z</time>
      </trkpt>
      <trkpt lat="45.57709" lon="4.95905">
        <ele>223.2</ele>
        <time>2019-04-15T04:15:46Z</time>
      </trkpt>
      <trkpt lat="45.57682" lon="4.95899">
        <ele>223.2</ele>
        <time>2019-04-15T04:15:50Z</time>
      </trkpt>
      <trkpt lat="45.57655" lon="4.95893">
        <ele>223</ele>
        <time>2019-04-15T04:15:54Z</time>
      </trkpt>
      <trkpt lat="45.57629" lon="4.95886">
        <ele>223.2</ele>
        <time>2019-04-15T04:15:58Z</time>
      </trkpt>
      <trkpt lat="45.57603" lon="4.95878">
        <ele>223.2</ele>
        <time>2019-04-15T04:16:02Z</time>
      </trkpt>
      <trkpt lat="45.57577" lon="4.9587">
        <ele>223.2</ele>
        <time>2019-04-15T04:16:06Z</time>
      </trkpt>
      <trkpt lat="45.57552" lon="4.95862">
        <ele>223.8</ele>
        <time>2019-04-15T04:16:10Z</time>
      </trkpt>
      <trkpt lat="45.57526" lon="4.95854">
        <ele>223.8</ele>
        <time>2019-04-15T04:16:14Z</time>
      </trkpt>
      <trkpt lat="45.57501" lon="4.95846">
        <ele>224.4</ele>
        <time>2019-04-15T04:16:18Z</time>
      </trkpt>
      <trkpt lat="45.57475" lon="4.95838">
        <ele>224.6</ele>
        <time>2019-04-15T04:16:22Z</time>
      </trkpt>
      <trkpt lat="45.57451" lon="4.95828">
        <ele>224.6</ele>
        <time>2019-04-15T04:16:26Z</time>
      </trkpt>
      <trkpt lat="45.57427" lon="4.95816">
        <ele>224.8</ele>
        <time>2019-04-15T04:16:30Z</time>
      </trkpt>
      <trkpt lat="45.57403" lon="4.95803">
        <ele>225.4</ele>
        <time>2019-04-15T04:16:34Z</time>
      </trkpt>
      <trkpt lat="45.5738" lon="4.95789">
        <ele>226</ele>
        <time>2019-04-15T04:16:38Z</time>
      </trkpt>
      <trkpt lat="45.57358" lon="4.95777">
        <ele>226.6</ele>
        <time>2019-04-15T04:16:42Z</time>
      </trkpt>
      <trkpt lat="45.57336" lon="4.95765">
        <ele>226.8</ele>
        <time>2019-04-15T04:16:46Z</time>
      </trkpt>
      <trkpt lat="45.57315" lon="4.95753">
        <ele>227.4</ele>
        <time>2019-04-15T04:16:50Z</time>
      </trkpt>
      <trkpt lat="45.57294" lon="4.95741">
        <ele>228.8</ele>
        <time>2019-04-15T04:16:54Z</time>
      </trkpt>
      <trkpt lat="45.57272" lon="4.95735">
        <ele>228.6</ele>
        <time>2019-04-15T04:16:58Z</time>
      </trkpt>
      <trkpt lat="45.57252" lon="4.95739">
        <ele>229.6</ele>
        <time>2019-04-15T04:17:02Z</time>
      </trkpt>
      <trkpt lat="45.57232" lon="4.95746">
        <ele>230.6</ele>
        <time>2019-04-15T04:17:06Z</time>
      </trkpt>
      <trkpt lat="45.57214" lon="4.95753">
        <ele>230.6</ele>
        <time>2019-04-15T04:17:10Z</time>
      </trkpt>
      <trkpt lat="45.57196" lon="4.95759">
        <ele>232.2</ele>
        <time>2019-04-15T04:17:14Z</time>
      </trkpt>
      <trkpt lat="45.57178" lon="4.95761">
        <ele>232.8</ele>
        <time>2019-04-15T04:17:18Z</time>
      </trkpt>
      <trkpt lat="45.57163" lon="4.95749">
        <ele>234.4</ele>
        <time>2019-04-15T04:17:22Z</time>
      </trkpt>
      <trkpt lat="45.57152" lon="4.9573">
        <ele>236</ele>
        <time>2019-04-15T04:17:26Z</time>
      </trkpt>
      <trkpt lat="45.57145" lon="4.95708">
        <ele>237.8</ele>
        <time>2019-04-15T04:17:30Z</time>
      </trkpt>
      <trkpt lat="45.57135" lon="4.9569">
        <ele>239.2</ele>
        <time>2019-04-15T04:17:34Z</time>
      </trkpt>
      <trkpt lat="45.57119" lon="4.9568">
        <ele>240.4</ele>
        <time>2019-04-15T04:17:38Z</time>
      </trkpt>
      <trkpt lat="45.57102" lon="4.95676">
        <ele>240.2</ele>
        <time>2019-04-15T04:17:42Z</time>
      </trkpt>
      <trkpt lat="45.57086" lon="4.95682">
        <ele>242</ele>
        <time>2019-04-15T04:17:46Z</time>
      </trkpt>
      <trkpt lat="45.57071" lon="4.9569">
        <ele>243</ele>
        <time>2019-04-15T04:17:50Z</time>
      </trkpt>
      <trkpt lat="45.57055" lon="4.95703">
        <ele>244.4</ele>
        <time>2019-04-15T04:17:54Z</time>
      </trkpt>
      <trkpt lat="45.57041" lon="4.95713">
        <ele>245.8</ele>
        <time>2019-04-15T04:17:58Z</time>
      </trkpt>
      <trkpt lat="45.57026" lon="4.95708">
        <ele>246.8</ele>
        <time>2019-04-15T04:18:02Z</time>
      </trkpt>
      <trkpt lat="45.57016" lon="4.95689">
        <ele>247.4</ele>
        <time>2019-04-15T04:18:06Z</time>
      </trkpt>
      <trkpt lat="45.57019" lon="4.95663">
        <ele>247.2</ele>
        <time>2019-04-15T04:18:10Z</time>
      </trkpt>
      <trkpt lat="45.57032" lon="4.95645">
        <ele>248.8</ele>
        <time>2019-04-15T04:18:14Z</time>
      </trkpt>
      <trkpt lat="45.57047" lon="4.9563">
        <ele>249</ele>
        <time>2019-04-15T04:18:18Z</time>
      </trkpt>
      <trkpt lat="45.57057" lon="4.95611">
        <ele>250.2</ele>
        <time>2019-04-15T04:18:22Z</time>
      </trkpt>
      <trkpt lat="45.57057" lon="4.95587">
        <ele>250.8</ele>
        <time>2019-04-15T04:18:26Z</time>
      </trkpt>
      <trkpt lat="45.57046" lon="4.95565">
        <ele>252.2</ele>
        <time>2019-04-15T04:18:30Z</time>
      </trkpt>
      <trkpt lat="45.5703" lon="4.95555">
        <ele>252.6</ele>
        <time>2019-04-15T04:18:34Z</time>
      </trkpt>
      <trkpt lat="45.57014" lon="4.95548">
        <ele>253.8</ele>
        <time>2019-04-15T04:18:38Z</time>
      </trkpt>
      <trkpt lat="45.56997" lon="4.95544">
        <ele>255</ele>
        <time>2019-04-15T04:18:42Z</time>
      </trkpt>
      <trkpt lat="45.56983" lon="4.95539">
        <ele>256</ele>
        <time>2019-04-15T04:18:46Z</time>
      </trkpt>
      <trkpt lat="45.56965" lon="4.95541">
        <ele>257</ele>
        <time>2019-04-15T04:18:50Z</time>
      </trkpt>
      <trkpt lat="45.56949" lon="4.95545">
        <ele>257.8</ele>
        <time>2019-04-15T04:18:54Z</time>
      </trkpt>
      <trkpt lat="45.56933" lon="4.95553">
        <ele>259.4</ele>
        <time>2019-04-15T04:18:58Z</time>
      </trkpt>
      <trkpt lat="45.56919" lon="4.95561">
        <ele>260.6</ele>
        <time>2019-04-15T04:19:02Z</time>
      </trkpt>
      <trkpt lat="45.56904" lon="4.95571">
        <ele>262</ele>
        <time>2019-04-15T04:19:06Z</time>
      </trkpt>
      <trkpt lat="45.56891" lon="4.95584">
        <ele>263.6</ele>
        <time>2019-04-15T04:19:10Z</time>
      </trkpt>
      <trkpt lat="45.56878" lon="4.95596">
        <ele>264.6</ele>
        <time>2019-04-15T04:19:14Z</time>
      </trkpt>
      <trkpt lat="45.56864" lon="4.9561">
        <ele>266</ele>
        <time>2019-04-15T04:19:18Z</time>
      </trkpt>
      <trkpt lat="45.56849" lon="4.95625">
        <ele>266.8</ele>
        <time>2019-04-15T04:19:22Z</time>
      </trkpt>
      <trkpt lat="45.56834" lon="4.95636">
        <ele>268</ele>
        <time>2019-04-15T04:19:26Z</time>
      </trkpt>
      <trkpt lat="45.56817" lon="4.95648">
        <ele>268.6</ele>
        <time>2019-04-15T04:19:30Z</time>
      </trkpt>
      <trkpt lat="45.56801" lon="4.9566">
        <ele>270.6</ele>
        <time>2019-04-15T04:19:34Z</time>
      </trkpt>
      <trkpt lat="45.56786" lon="4.9567">
        <ele>272</ele>
        <time>2019-04-15T04:19:38Z</time>
      </trkpt>
      <trkpt lat="45.56772" lon="4.9568">
        <ele>273</ele>
        <time>2019-04-15T04:19:42Z</time>
      </trkpt>
      <trkpt lat="45.56758" lon="4.9569">
        <ele>273.8</ele>
        <time>2019-04-15T04:19:46Z</time>
      </trkpt>
      <trkpt lat="45.56743" lon="4.95701">
        <ele>275</ele>
        <time>2019-04-15T04:19:50Z</time>
      </trkpt>
      <trkpt lat="45.56728" lon="4.95713">
        <ele>275.6</ele>
        <time>2019-04-15T04:19:54Z</time>
      </trkpt>
      <trkpt lat="45.56714" lon="4.95725">
        <ele>277.4</ele>
        <time>2019-04-15T04:19:58Z</time>
      </trkpt>
      <trkpt lat="45.56699" lon="4.95738">
        <ele>278.8</ele>
        <time>2019-04-15T04:20:02Z</time>
      </trkpt>
      <trkpt lat="45.56686" lon="4.95751">
        <ele>279.6</ele>
        <time>2019-04-15T04:20:06Z</time>
      </trkpt>
      <trkpt lat="45.56672" lon="4.95765">
        <ele>281.2</ele>
        <time>2019-04-15T04:20:10Z</time>
      </trkpt>
      <trkpt lat="45.56657" lon="4.95775">
        <ele>281.4</ele>
        <time>2019-04-15T04:20:14Z</time>
      </trkpt>
      <trkpt lat="45.56639" lon="4.95773">
        <ele>281.8</ele>
        <time>2019-04-15T04:20:18Z</time>
      </trkpt>
      <trkpt lat="45.56628" lon="4.95754">
        <ele>282.4</ele>
        <time>2019-04-15T04:20:22Z</time>
      </trkpt>
      <trkpt lat="45.56625" lon="4.95728">
        <ele>283.4</ele>
        <time>2019-04-15T04:20:26Z</time>
      </trkpt>
      <trkpt lat="45.56621" lon="4.95703">
        <ele>283.6</ele>
        <time>2019-04-15T04:20:30Z</time>
      </trkpt>
      <trkpt lat="45.56611" lon="4.95678">
        <ele>284.2</ele>
        <time>2019-04-15T04:20:34Z</time>
      </trkpt>
      <trkpt lat="45.56596" lon="4.95658">
        <ele>284.4</ele>
        <time>2019-04-15T04:20:38Z</time>
      </trkpt>
      <trkpt lat="45.56577" lon="4.95643">
        <ele>284.4</ele>
        <time>2019-04-15T04:20:42Z</time>
      </trkpt>
      <trkpt lat="45.56554" lon="4.95645">
        <ele>284.2</ele>
        <time>2019-04-15T04:20:46Z</time>
      </trkpt>
      <trkpt lat="45.56532" lon="4.95668">
        <ele>282.2</ele>
        <time>2019-04-15T04:20:50Z</time>
      </trkpt>
      <trkpt lat="45.56502" lon="4.95681">
        <ele>279.8</ele>
        <time>2019-04-15T04:20:54Z</time>
      </trkpt>
      <trkpt lat="45.56467" lon="4.95679">
        <ele>278.2</ele>
        <time>2019-04-15T04:20:58Z</time>
      </trkpt>
      <trkpt lat="45.56432" lon="4.95673">
        <ele>276.6</ele>
        <time>2019-04-15T04:21:02Z</time>
      </trkpt>
      <trkpt lat="45.56393" lon="4.95668">
        <ele>274</ele>
        <time>2019-04-15T04:21:06Z</time>
      </trkpt>
      <trkpt lat="45.56353" lon="4.95665">
        <ele>271.8</ele>
        <time>2019-04-15T04:21:10Z</time>
      </trkpt>
      <trkpt lat="45.56314" lon="4.95671">
        <ele>269.2</ele>
        <time>2019-04-15T04:21:14Z</time>
      </trkpt>
      <trkpt lat="45.56287" lon="4.95697">
        <ele>266.6</ele>
        <time>2019-04-15T04:21:18Z</time>
      </trkpt>
      <trkpt lat="45.56267" lon="4.95703">
        <ele>265.4</ele>
        <time>2019-04-15T04:21:22Z</time>
      </trkpt>
      <trkpt lat="45.56257" lon="4.95672">
        <ele>264.2</ele>
        <time>2019-04-15T04:21:26Z</time>
      </trkpt>
      <trkpt lat="45.56251" lon="4.95631">
        <ele>263</ele>
        <time>2019-04-15T04:21:30Z</time>
      </trkpt>
      <trkpt lat="45.56236" lon="4.95592">
        <ele>261</ele>
        <time>2019-04-15T04:21:34Z</time>
      </trkpt>
      <trkpt lat="45.56205" lon="4.95564">
        <ele>258.8</ele>
        <time>2019-04-15T04:21:38Z</time>
      </trkpt>
      <trkpt lat="45.5617" lon="4.95544">
        <ele>256.2</ele>
        <time>2019-04-15T04:21:42Z</time>
      </trkpt>
      <trkpt lat="45.56129" lon="4.95525">
        <ele>253.6</ele>
        <time>2019-04-15T04:21:46Z</time>
      </trkpt>
      <trkpt lat="45.56087" lon="4.95511">
        <ele>250.2</ele>
        <time>2019-04-15T04:21:50Z</time>
      </trkpt>
      <trkpt lat="45.56043" lon="4.95495">
        <ele>247</ele>
        <time>2019-04-15T04:21:54Z</time>
      </trkpt>
      <trkpt lat="45.55998" lon="4.95494">
        <ele>244.2</ele>
        <time>2019-04-15T04:21:58Z</time>
      </trkpt>
      <trkpt lat="45.55953" lon="4.95498">
        <ele>241.4</ele>
        <time>2019-04-15T04:22:02Z</time>
      </trkpt>
      <trkpt lat="45.55906" lon="4.95496">
        <ele>238</ele>
        <time>2019-04-15T04:22:06Z</time>
      </trkpt>
      <trkpt lat="45.5586" lon="4.95486">
        <ele>234.8</ele>
        <time>2019-04-15T04:22:10Z</time>
      </trkpt>
      <trkpt lat="45.55817" lon="4.9547">
        <ele>231</ele>
        <time>2019-04-15T04:22:14Z</time>
      </trkpt>
      <trkpt lat="45.55775" lon="4.95468">
        <ele>228.2</ele>
        <time>2019-04-15T04:22:18Z</time>
      </trkpt>
      <trkpt lat="45.5574" lon="4.95473">
        <ele>225.2</ele>
        <time>2019-04-15T04:22:22Z</time>
      </trkpt>
      <trkpt lat="45.55719" lon="4.95477">
        <ele>222.6</ele>
        <time>2019-04-15T04:22:26Z</time>
      </trkpt>
      <trkpt lat="45.55709" lon="4.95489">
        <ele>221</ele>
        <time>2019-04-15T04:22:30Z</time>
      </trkpt>
      <trkpt lat="45.55711" lon="4.95517">
        <ele>221</ele>
        <time>2019-04-15T04:22:34Z</time>
      </trkpt>
      <trkpt lat="45.55718" lon="4.9555">
        <ele>220.8</ele>
        <time>2019-04-15T04:22:38Z</time>
      </trkpt>
      <trkpt lat="45.55726" lon="4.95587">
        <ele>221.8</ele>
        <time>2019-04-15T04:22:42Z</time>
      </trkpt>
      <trkpt lat="45.55737" lon="4.95624">
        <ele>221</ele>
        <time>2019-04-15T04:22:46Z</time>
      </trkpt>
      <trkpt lat="45.55747" lon="4.95662">
        <ele>221</ele>
        <time>2019-04-15T04:22:50Z</time>
      </trkpt>
      <trkpt lat="45.55756" lon="4.957">
        <ele>220.8</ele>
        <time>2019-04-15T04:22:54Z</time>
      </trkpt>
      <trkpt lat="45.55766" lon="4.95738">
        <ele>220.8</ele>
        <time>2019-04-15T04:22:58Z</time>
      </trkpt>
      <trkpt lat="45.55775" lon="4.95774">
        <ele>221</ele>
        <time>2019-04-15T04:23:02Z</time>
      </trkpt>
      <trkpt lat="45.55784" lon="4.95811">
        <ele>220.8</ele>
        <time>2019-04-15T04:23:06Z</time>
      </trkpt>
      <trkpt lat="45.55791" lon="4.95849">
        <ele>221.2</ele>
        <time>2019-04-15T04:23:10Z</time>
      </trkpt>
      <trkpt lat="45.55796" lon="4.95886">
        <ele>221.6</ele>
        <time>2019-04-15T04:23:14Z</time>
      </trkpt>
      <trkpt lat="45.55797" lon="4.95925">
        <ele>222</ele>
        <time>2019-04-15T04:23:18Z</time>
      </trkpt>
      <trkpt lat="45.55796" lon="4.95964">
        <ele>222</ele>
        <time>2019-04-15T04:23:22Z</time>
      </trkpt>
      <trkpt lat="45.55795" lon="4.96003">
        <ele>222</ele>
        <time>2019-04-15T04:23:26Z</time>
      </trkpt>
      <trkpt lat="45.55793" lon="4.96044">
        <ele>222.2</ele>
        <time>2019-04-15T04:23:30Z</time>
      </trkpt>
      <trkpt lat="45.5579" lon="4.96085">
        <ele>223</ele>
        <time>2019-04-15T04:23:34Z</time>
      </trkpt>
      <trkpt lat="45.55788" lon="4.96127">
        <ele>221.2</ele>
        <time>2019-04-15T04:23:38Z</time>
      </trkpt>
      <trkpt lat="45.55785" lon="4.96171">
        <ele>220.6</ele>
        <time>2019-04-15T04:23:42Z</time>
      </trkpt>
      <trkpt lat="45.55783" lon="4.96215">
        <ele>220.8</ele>
        <time>2019-04-15T04:23:46Z</time>
      </trkpt>
      <trkpt lat="45.55783" lon="4.9626">
        <ele>220.4</ele>
        <time>2019-04-15T04:23:50Z</time>
      </trkpt>
      <trkpt lat="45.55788" lon="4.96305">
        <ele>220</ele>
        <time>2019-04-15T04:23:54Z</time>
      </trkpt>
      <trkpt lat="45.55798" lon="4.96348">
        <ele>219.8</ele>
        <time>2019-04-15T04:23:58Z</time>
      </trkpt>
      <trkpt lat="45.55812" lon="4.96388">
        <ele>219.2</ele>
        <time>2019-04-15T04:24:02Z</time>
      </trkpt>
      <trkpt lat="45.55827" lon="4.96424">
        <ele>219.2</ele>
        <time>2019-04-15T04:24:06Z</time>
      </trkpt>
      <trkpt lat="45.55843" lon="4.9646">
        <ele>219.4</ele>
        <time>2019-04-15T04:24:10Z</time>
      </trkpt>
      <trkpt lat="45.55857" lon="4.96494">
        <ele>219.8</ele>
        <time>2019-04-15T04:24:14Z</time>
      </trkpt>
      <trkpt lat="45.55872" lon="4.96528">
        <ele>220</ele>
        <time>2019-04-15T04:24:18Z</time>
      </trkpt>
      <trkpt lat="45.55885" lon="4.96561">
        <ele>220.4</ele>
        <time>2019-04-15T04:24:22Z</time>
      </trkpt>
      <trkpt lat="45.55898" lon="4.96592">
        <ele>220.6</ele>
        <time>2019-04-15T04:24:26Z</time>
      </trkpt>
      <trkpt lat="45.55908" lon="4.96625">
        <ele>221</ele>
        <time>2019-04-15T04:24:30Z</time>
      </trkpt>
      <trkpt lat="45.55917" lon="4.96658">
        <ele>222</ele>
        <time>2019-04-15T04:24:34Z</time>
      </trkpt>
      <trkpt lat="45.55926" lon="4.9669">
        <ele>223.2</ele>
        <time>2019-04-15T04:24:38Z</time>
      </trkpt>
      <trkpt lat="45.55934" lon="4.96724">
        <ele>223.8</ele>
        <time>2019-04-15T04:24:42Z</time>
      </trkpt>
      <trkpt lat="45.55943" lon="4.96757">
        <ele>224</ele>
        <time>2019-04-15T04:24:46Z</time>
      </trkpt>
      <trkpt lat="45.55952" lon="4.96791">
        <ele>224.2</ele>
        <time>2019-04-15T04:24:50Z</time>
      </trkpt>
      <trkpt lat="45.55961" lon="4.96826">
        <ele>225.2</ele>
        <time>2019-04-15T04:24:54Z</time>
      </trkpt>
      <trkpt lat="45.5597" lon="4.9686">
        <ele>225.2</ele>
        <time>2019-04-15T04:24:58Z</time>
      </trkpt>
      <trkpt lat="45.55979" lon="4.96895">
        <ele>224.8</ele>
        <time>2019-04-15T04:25:02Z</time>
      </trkpt>
      <trkpt lat="45.55988" lon="4.9693">
        <ele>224.8</ele>
        <time>2019-04-15T04:25:06Z</time>
      </trkpt>
      <trkpt lat="45.55996" lon="4.96965">
        <ele>225.4</ele>
        <time>2019-04-15T04:25:10Z</time>
      </trkpt>
      <trkpt lat="45.56005" lon="4.96999">
        <ele>225.8</ele>
        <time>2019-04-15T04:25:14Z</time>
      </trkpt>
      <trkpt lat="45.56014" lon="4.97033">
        <ele>225.8</ele>
        <time>2019-04-15T04:25:18Z</time>
      </trkpt>
      <trkpt lat="45.56022" lon="4.97067">
        <ele>226.4</ele>
        <time>2019-04-15T04:25:22Z</time>
      </trkpt>
      <trkpt lat="45.56031" lon="4.971">
        <ele>227.4</ele>
        <time>2019-04-15T04:25:26Z</time>
      </trkpt>
      <trkpt lat="45.56041" lon="4.97133">
        <ele>227.6</ele>
        <time>2019-04-15T04:25:30Z</time>
      </trkpt>
      <trkpt lat="45.56052" lon="4.97164">
        <ele>228.4</ele>
        <time>2019-04-15T04:25:34Z</time>
      </trkpt>
      <trkpt lat="45.56063" lon="4.97197">
        <ele>228.4</ele>
        <time>2019-04-15T04:25:38Z</time>
      </trkpt>
      <trkpt lat="45.56073" lon="4.97229">
        <ele>229</ele>
        <time>2019-04-15T04:25:42Z</time>
      </trkpt>
      <trkpt lat="45.56082" lon="4.97263">
        <ele>229.4</ele>
        <time>2019-04-15T04:25:46Z</time>
      </trkpt>
      <trkpt lat="45.5609" lon="4.97299">
        <ele>229.6</ele>
        <time>2019-04-15T04:25:50Z</time>
      </trkpt>
      <trkpt lat="45.56096" lon="4.97335">
        <ele>228.4</ele>
        <time>2019-04-15T04:25:54Z</time>
      </trkpt>
      <trkpt lat="45.56101" lon="4.97372">
        <ele>229.8</ele>
        <time>2019-04-15T04:25:58Z</time>
      </trkpt>
      <trkpt lat="45.56106" lon="4.97409">
        <ele>230.6</ele>
        <time>2019-04-15T04:26:02Z</time>
      </trkpt>
      <trkpt lat="45.56111" lon="4.97445">
        <ele>230.8</ele>
        <time>2019-04-15T04:26:06Z</time>
      </trkpt>
      <trkpt lat="45.56117" lon="4.9748">
        <ele>231.2</ele>
        <time>2019-04-15T04:26:10Z</time>
      </trkpt>
      <trkpt lat="45.56124" lon="4.97515">
        <ele>232.6</ele>
        <time>2019-04-15T04:26:14Z</time>
      </trkpt>
      <trkpt lat="45.56129" lon="4.97551">
        <ele>232.8</ele>
        <time>2019-04-15T04:26:18Z</time>
      </trkpt>
      <trkpt lat="45.56134" lon="4.97588">
        <ele>233.8</ele>
        <time>2019-04-15T04:26:22Z</time>
      </trkpt>
      <trkpt lat="45.56138" lon="4.97624">
        <ele>233.8</ele>
        <time>2019-04-15T04:26:26Z</time>
      </trkpt>
      <trkpt lat="45.56142" lon="4.9766">
        <ele>235.2</ele>
        <time>2019-04-15T04:26:30Z</time>
      </trkpt>
      <trkpt lat="45.56143" lon="4.97697">
        <ele>234.8</ele>
        <time>2019-04-15T04:26:34Z</time>
      </trkpt>
      <trkpt lat="45.56141" lon="4.97734">
        <ele>236</ele>
        <time>2019-04-15T04:26:38Z</time>
      </trkpt>
      <trkpt lat="45.5614" lon="4.97771">
        <ele>235.8</ele>
        <time>2019-04-15T04:26:42Z</time>
      </trkpt>
      <trkpt lat="45.5614" lon="4.97809">
        <ele>235.6</ele>
        <time>2019-04-15T04:26:46Z</time>
      </trkpt>
      <trkpt lat="45.56142" lon="4.97846">
        <ele>236</ele>
        <time>2019-04-15T04:26:50Z</time>
      </trkpt>
      <trkpt lat="45.56143" lon="4.97883">
        <ele>236</ele>
        <time>2019-04-15T04:26:54Z</time>
      </trkpt>
      <trkpt lat="45.56144" lon="4.97921">
        <ele>236</ele>
        <time>2019-04-15T04:26:58Z</time>
      </trkpt>
      <trkpt lat="45.56146" lon="4.97957">
        <ele>236.6</ele>
        <time>2019-04-15T04:27:02Z</time>
      </trkpt>
      <trkpt lat="45.56146" lon="4.97994">
        <ele>236.8</ele>
        <time>2019-04-15T04:27:06Z</time>
      </trkpt>
      <trkpt lat="45.56146" lon="4.98033">
        <ele>237.6</ele>
        <time>2019-04-15T04:27:10Z</time>
      </trkpt>
      <trkpt lat="45.56148" lon="4.98073">
        <ele>237</ele>
        <time>2019-04-15T04:27:14Z</time>
      </trkpt>
      <trkpt lat="45.56151" lon="4.98114">
        <ele>237.4</ele>
        <time>2019-04-15T04:27:18Z</time>
      </trkpt>
      <trkpt lat="45.56155" lon="4.98154">
        <ele>237</ele>
        <time>2019-04-15T04:27:22Z</time>
      </trkpt>
      <trkpt lat="45.56161" lon="4.98193">
        <ele>236.8</ele>
        <time>2019-04-15T04:27:26Z</time>
      </trkpt>
      <trkpt lat="45.56169" lon="4.98232">
        <ele>237.4</ele>
        <time>2019-04-15T04:27:30Z</time>
      </trkpt>
      <trkpt lat="45.56179" lon="4.98269">
        <ele>236.8</ele>
        <time>2019-04-15T04:27:34Z</time>
      </trkpt>
      <trkpt lat="45.5619" lon="4.98306">
        <ele>237.2</ele>
        <time>2019-04-15T04:27:38Z</time>
      </trkpt>
      <trkpt lat="45.56203" lon="4.98341">
        <ele>237.6</ele>
        <time>2019-04-15T04:27:42Z</time>
      </trkpt>
      <trkpt lat="45.56217" lon="4.98377">
        <ele>237.4</ele>
        <time>2019-04-15T04:27:46Z</time>
      </trkpt>
      <trkpt lat="45.56229" lon="4.98412">
        <ele>237.6</ele>
        <time>2019-04-15T04:27:50Z</time>
      </trkpt>
      <trkpt lat="45.56241" lon="4.98446">
        <ele>238.4</ele>
        <time>2019-04-15T04:27:54Z</time>
      </trkpt>
      <trkpt lat="45.56253" lon="4.98478">
        <ele>238.6</ele>
        <time>2019-04-15T04:27:58Z</time>
      </trkpt>
      <trkpt lat="45.56265" lon="4.9851">
        <ele>240.6</ele>
        <time>2019-04-15T04:28:02Z</time>
      </trkpt>
      <trkpt lat="45.56274" lon="4.98544">
        <ele>240.2</ele>
        <time>2019-04-15T04:28:06Z</time>
      </trkpt>
      <trkpt lat="45.5628" lon="4.98581">
        <ele>241</ele>
        <time>2019-04-15T04:28:10Z</time>
      </trkpt>
      <trkpt lat="45.56287" lon="4.98621">
        <ele>241</ele>
        <time>2019-04-15T04:28:14Z</time>
      </trkpt>
      <trkpt lat="45.56293" lon="4.98661">
        <ele>240.6</ele>
        <time>2019-04-15T04:28:18Z</time>
      </trkpt>
      <trkpt lat="45.56298" lon="4.98701">
        <ele>240.2</ele>
        <time>2019-04-15T04:28:22Z</time>
      </trkpt>
      <trkpt lat="45.56302" lon="4.98741">
        <ele>240</ele>
        <time>2019-04-15T04:28:26Z</time>
      </trkpt>
      <trkpt lat="45.56307" lon="4.98781">
        <ele>240.4</ele>
        <time>2019-04-15T04:28:30Z</time>
      </trkpt>
      <trkpt lat="45.56311" lon="4.98819">
        <ele>240</ele>
        <time>2019-04-15T04:28:34Z</time>
      </trkpt>
      <trkpt lat="45.56315" lon="4.98857">
        <ele>240.2</ele>
        <time>2019-04-15T04:28:38Z</time>
      </trkpt>
      <trkpt lat="45.5632" lon="4.98896">
        <ele>240.8</ele>
        <time>2019-04-15T04:28:42Z</time>
      </trkpt>
      <trkpt lat="45.56324" lon="4.98937">
        <ele>239.8</ele>
        <time>2019-04-15T04:28:46Z</time>
      </trkpt>
      <trkpt lat="45.56329" lon="4.98978">
        <ele>239.4</ele>
        <time>2019-04-15T04:28:50Z</time>
      </trkpt>
      <trkpt lat="45.56334" lon="4.99018">
        <ele>239.6</ele>
        <time>2019-04-15T04:28:54Z</time>
      </trkpt>
      <trkpt lat="45.56339" lon="4.99057">
        <ele>239.8</ele>
        <time>2019-04-15T04:28:58Z</time>
      </trkpt>
      <trkpt lat="45.56344" lon="4.99097">
        <ele>239.6</ele>
        <time>2019-04-15T04:29:02Z</time>
      </trkpt>
      <trkpt lat="45.56349" lon="4.99137">
        <ele>241</ele>
        <time>2019-04-15T04:29:06Z</time>
      </trkpt>
      <trkpt lat="45.56354" lon="4.99177">
        <ele>240.8</ele>
        <time>2019-04-15T04:29:10Z</time>
      </trkpt>
      <trkpt lat="45.56359" lon="4.99217">
        <ele>239</ele>
        <time>2019-04-15T04:29:14Z</time>
      </trkpt>
      <trkpt lat="45.56363" lon="4.99257">
        <ele>239</ele>
        <time>2019-04-15T04:29:18Z</time>
      </trkpt>
      <trkpt lat="45.56368" lon="4.99296">
        <ele>239.2</ele>
        <time>2019-04-15T04:29:22Z</time>
      </trkpt>
      <trkpt lat="45.56372" lon="4.99334">
        <ele>239.4</ele>
        <time>2019-04-15T04:29:26Z</time>
      </trkpt>
      <trkpt lat="45.56377" lon="4.99372">
        <ele>241.8</ele>
        <time>2019-04-15T04:29:30Z</time>
      </trkpt>
      <trkpt lat="45.56382" lon="4.99411">
        <ele>240.6</ele>
        <time>2019-04-15T04:29:34Z</time>
      </trkpt>
      <trkpt lat="45.56386" lon="4.9945">
        <ele>241.2</ele>
        <time>2019-04-15T04:29:38Z</time>
      </trkpt>
      <trkpt lat="45.56391" lon="4.99489">
        <ele>241.4</ele>
        <time>2019-04-15T04:29:42Z</time>
      </trkpt>
      <trkpt lat="45.56395" lon="4.99526">
        <ele>241.8</ele>
        <time>2019-04-15T04:29:46Z</time>
      </trkpt>
      <trkpt lat="45.564" lon="4.99565">
        <ele>242</ele>
        <time>2019-04-15T04:29:50Z</time>
      </trkpt>
      <trkpt lat="45.56405" lon="4.99605">
        <ele>242.4</ele>
        <time>2019-04-15T04:29:54Z</time>
      </trkpt>
      <trkpt lat="45.5641" lon="4.99644">
        <ele>242</ele>
        <time>2019-04-15T04:29:58Z</time>
      </trkpt>
      <trkpt lat="45.56414" lon="4.99683">
        <ele>242.6</ele>
        <time>2019-04-15T04:30:02Z</time>
      </trkpt>
      <trkpt lat="45.56419" lon="4.99721">
        <ele>242.6</ele>
        <time>2019-04-15T04:30:06Z</time>
      </trkpt>
      <trkpt lat="45.56423" lon="4.9976">
        <ele>243.2</ele>
        <time>2019-04-15T04:30:10Z</time>
      </trkpt>
      <trkpt lat="45.56426" lon="4.99798">
        <ele>243.2</ele>
        <time>2019-04-15T04:30:14Z</time>
      </trkpt>
      <trkpt lat="45.56428" lon="4.99836">
        <ele>243.8</ele>
        <time>2019-04-15T04:30:18Z</time>
      </trkpt>
      <trkpt lat="45.56428" lon="4.9987">
        <ele>244</ele>
        <time>2019-04-15T04:30:22Z</time>
      </trkpt>
      <trkpt lat="45.56412" lon="4.999">
        <ele>243</ele>
        <time>2019-04-15T04:30:26Z</time>
      </trkpt>
      <trkpt lat="45.56386" lon="4.99917">
        <ele>242.4</ele>
        <time>2019-04-15T04:30:30Z</time>
      </trkpt>
      <trkpt lat="45.56357" lon="4.9993">
        <ele>241.6</ele>
        <time>2019-04-15T04:30:34Z</time>
      </trkpt>
      <trkpt lat="45.56327" lon="4.99942">
        <ele>241</ele>
        <time>2019-04-15T04:30:38Z</time>
      </trkpt>
      <trkpt lat="45.56297" lon="4.99955">
        <ele>240.6</ele>
        <time>2019-04-15T04:30:42Z</time>
      </trkpt>
      <trkpt lat="45.56268" lon="4.99969">
        <ele>240</ele>
        <time>2019-04-15T04:30:46Z</time>
      </trkpt>
      <trkpt lat="45.56239" lon="4.9998">
        <ele>240</ele>
        <time>2019-04-15T04:30:50Z</time>
      </trkpt>
      <trkpt lat="45.56211" lon="4.99992">
        <ele>240.6</ele>
        <time>2019-04-15T04:30:54Z</time>
      </trkpt>
      <trkpt lat="45.56183" lon="5.00004">
        <ele>239.8</ele>
        <time>2019-04-15T04:30:58Z</time>
      </trkpt>
      <trkpt lat="45.56156" lon="5.00016">
        <ele>239.8</ele>
        <time>2019-04-15T04:31:02Z</time>
      </trkpt>
      <trkpt lat="45.56129" lon="5.00029">
        <ele>240</ele>
        <time>2019-04-15T04:31:06Z</time>
      </trkpt>
      <trkpt lat="45.56101" lon="5.0004">
        <ele>240.6</ele>
        <time>2019-04-15T04:31:10Z</time>
      </trkpt>
      <trkpt lat="45.56074" lon="5.00051">
        <ele>239.6</ele>
        <time>2019-04-15T04:31:14Z</time>
      </trkpt>
      <trkpt lat="45.56047" lon="5.00063">
        <ele>239.4</ele>
        <time>2019-04-15T04:31:18Z</time>
      </trkpt>
      <trkpt lat="45.56019" lon="5.00074">
        <ele>239.2</ele>
        <time>2019-04-15T04:31:22Z</time>
      </trkpt>
      <trkpt lat="45.55993" lon="5.00085">
        <ele>239.4</ele>
        <time>2019-04-15T04:31:26Z</time>
      </trkpt>
      <trkpt lat="45.55966" lon="5.00097">
        <ele>240</ele>
        <time>2019-04-15T04:31:30Z</time>
      </trkpt>
      <trkpt lat="45.5594" lon="5.00108">
        <ele>240.2</ele>
        <time>2019-04-15T04:31:34Z</time>
      </trkpt>
      <trkpt lat="45.55915" lon="5.0012">
        <ele>240.4</ele>
        <time>2019-04-15T04:31:38Z</time>
      </trkpt>
      <trkpt lat="45.55889" lon="5.00132">
        <ele>240.4</ele>
        <time>2019-04-15T04:31:42Z</time>
      </trkpt>
      <trkpt lat="45.55864" lon="5.00144">
        <ele>240.4</ele>
        <time>2019-04-15T04:31:46Z</time>
      </trkpt>
      <trkpt lat="45.55838" lon="5.00156">
        <ele>241</ele>
        <time>2019-04-15T04:31:50Z</time>
      </trkpt>
      <trkpt lat="45.55813" lon="5.00168">
        <ele>241.2</ele>
        <time>2019-04-15T04:31:54Z</time>
      </trkpt>
      <trkpt lat="45.55788" lon="5.00179">
        <ele>241</ele>
        <time>2019-04-15T04:31:58Z</time>
      </trkpt>
      <trkpt lat="45.55762" lon="5.00191">
        <ele>241</ele>
        <time>2019-04-15T04:32:02Z</time>
      </trkpt>
      <trkpt lat="45.55738" lon="5.00202">
        <ele>241.4</ele>
        <time>2019-04-15T04:32:06Z</time>
      </trkpt>
      <trkpt lat="45.55714" lon="5.00214">
        <ele>241.6</ele>
        <time>2019-04-15T04:32:10Z</time>
      </trkpt>
      <trkpt lat="45.5569" lon="5.00225">
        <ele>241.6</ele>
        <time>2019-04-15T04:32:14Z</time>
      </trkpt>
      <trkpt lat="45.55666" lon="5.00237">
        <ele>241.8</ele>
        <time>2019-04-15T04:32:18Z</time>
      </trkpt>
      <trkpt lat="45.55642" lon="5.00249">
        <ele>242.2</ele>
        <time>2019-04-15T04:32:22Z</time>
      </trkpt>
      <trkpt lat="45.55619" lon="5.00261">
        <ele>242.6</ele>
        <time>2019-04-15T04:32:26Z</time>
      </trkpt>
      <trkpt lat="45.55595" lon="5.00273">
        <ele>242.6</ele>
        <time>2019-04-15T04:32:30Z</time>
      </trkpt>
      <trkpt lat="45.55572" lon="5.00284">
        <ele>243</ele>
        <time>2019-04-15T04:32:34Z</time>
      </trkpt>
      <trkpt lat="45.55547" lon="5.00297">
        <ele>243.4</ele>
        <time>2019-04-15T04:32:38Z</time>
      </trkpt>
      <trkpt lat="45.55524" lon="5.00309">
        <ele>243.4</ele>
        <time>2019-04-15T04:32:42Z</time>
      </trkpt>
      <trkpt lat="45.55501" lon="5.0032">
        <ele>244.4</ele>
        <time>2019-04-15T04:32:46Z</time>
      </trkpt>
      <trkpt lat="45.55478" lon="5.00332">
        <ele>244.8</ele>
        <time>2019-04-15T04:32:50Z</time>
      </trkpt>
      <trkpt lat="45.55454" lon="5.00343">
        <ele>244.8</ele>
        <time>2019-04-15T04:32:54Z</time>
      </trkpt>
      <trkpt lat="45.55431" lon="5.00355">
        <ele>244.8</ele>
        <time>2019-04-15T04:32:58Z</time>
      </trkpt>
      <trkpt lat="45.55408" lon="5.00366">
        <ele>245</ele>
        <time>2019-04-15T04:33:02Z</time>
      </trkpt>
      <trkpt lat="45.55386" lon="5.00378">
        <ele>245.6</ele>
        <time>2019-04-15T04:33:06Z</time>
      </trkpt>
      <trkpt lat="45.55363" lon="5.0039">
        <ele>245.8</ele>
        <time>2019-04-15T04:33:10Z</time>
      </trkpt>
      <trkpt lat="45.55341" lon="5.00401">
        <ele>246.2</ele>
        <time>2019-04-15T04:33:14Z</time>
      </trkpt>
      <trkpt lat="45.55319" lon="5.00413">
        <ele>246.8</ele>
        <time>2019-04-15T04:33:18Z</time>
      </trkpt>
      <trkpt lat="45.553" lon="5.00426">
        <ele>246.2</ele>
        <time>2019-04-15T04:33:22Z</time>
      </trkpt>
      <trkpt lat="45.55292" lon="5.00454">
        <ele>246.8</ele>
        <time>2019-04-15T04:33:26Z</time>
      </trkpt>
      <trkpt lat="45.55275" lon="5.00475">
        <ele>246.8</ele>
        <time>2019-04-15T04:33:30Z</time>
      </trkpt>
      <trkpt lat="45.55256" lon="5.00493">
        <ele>247.4</ele>
        <time>2019-04-15T04:33:34Z</time>
      </trkpt>
      <trkpt lat="45.55242" lon="5.00504">
        <ele>248.6</ele>
        <time>2019-04-15T04:33:38Z</time>
      </trkpt>
      <trkpt lat="45.55227" lon="5.00516">
        <ele>250</ele>
        <time>2019-04-15T04:33:42Z</time>
      </trkpt>
      <trkpt lat="45.55213" lon="5.00529">
        <ele>251.4</ele>
        <time>2019-04-15T04:33:46Z</time>
      </trkpt>
      <trkpt lat="45.55199" lon="5.0054">
        <ele>252.6</ele>
        <time>2019-04-15T04:33:50Z</time>
      </trkpt>
      <trkpt lat="45.55185" lon="5.00552">
        <ele>253.8</ele>
        <time>2019-04-15T04:33:54Z</time>
      </trkpt>
      <trkpt lat="45.5517" lon="5.00563">
        <ele>254.8</ele>
        <time>2019-04-15T04:33:58Z</time>
      </trkpt>
      <trkpt lat="45.55156" lon="5.00575">
        <ele>256.6</ele>
        <time>2019-04-15T04:34:02Z</time>
      </trkpt>
      <trkpt lat="45.55142" lon="5.00585">
        <ele>258</ele>
        <time>2019-04-15T04:34:06Z</time>
      </trkpt>
      <trkpt lat="45.55129" lon="5.00597">
        <ele>258.6</ele>
        <time>2019-04-15T04:34:10Z</time>
      </trkpt>
      <trkpt lat="45.55117" lon="5.0061">
        <ele>260</ele>
        <time>2019-04-15T04:34:14Z</time>
      </trkpt>
      <trkpt lat="45.55106" lon="5.00621">
        <ele>261.2</ele>
        <time>2019-04-15T04:34:18Z</time>
      </trkpt>
      <trkpt lat="45.55097" lon="5.00626">
        <ele>262.6</ele>
        <time>2019-04-15T04:34:22Z</time>
      </trkpt>
      <trkpt lat="45.55083" lon="5.00638">
        <ele>263.6</ele>
        <time>2019-04-15T04:34:26Z</time>
      </trkpt>
      <trkpt lat="45.55073" lon="5.00648">
        <ele>265</ele>
        <time>2019-04-15T04:34:30Z</time>
      </trkpt>
      <trkpt lat="45.55061" lon="5.0066">
        <ele>266.4</ele>
        <time>2019-04-15T04:34:34Z</time>
      </trkpt>
      <trkpt lat="45.55049" lon="5.00671">
        <ele>267.8</ele>
        <time>2019-04-15T04:34:38Z</time>
      </trkpt>
      <trkpt lat="45.55037" lon="5.0068">
        <ele>269</ele>
        <time>2019-04-15T04:34:42Z</time>
      </trkpt>
      <trkpt lat="45.55023" lon="5.00692">
        <ele>270</ele>
        <time>2019-04-15T04:34:46Z</time>
      </trkpt>
      <trkpt lat="45.55009" lon="5.00705">
        <ele>270.6</ele>
        <time>2019-04-15T04:34:50Z</time>
      </trkpt>
      <trkpt lat="45.54994" lon="5.00717">
        <ele>271.8</ele>
        <time>2019-04-15T04:34:54Z</time>
      </trkpt>
      <trkpt lat="45.5498" lon="5.00731">
        <ele>273.2</ele>
        <time>2019-04-15T04:34:58Z</time>
      </trkpt>
      <trkpt lat="45.54967" lon="5.00745">
        <ele>273.8</ele>
        <time>2019-04-15T04:35:02Z</time>
      </trkpt>
      <trkpt lat="45.54953" lon="5.00758">
        <ele>275.2</ele>
        <time>2019-04-15T04:35:06Z</time>
      </trkpt>
      <trkpt lat="45.54939" lon="5.00769">
        <ele>277.2</ele>
        <time>2019-04-15T04:35:10Z</time>
      </trkpt>
      <trkpt lat="45.54925" lon="5.0078">
        <ele>278</ele>
        <time>2019-04-15T04:35:14Z</time>
      </trkpt>
      <trkpt lat="45.5491" lon="5.00789">
        <ele>279</ele>
        <time>2019-04-15T04:35:18Z</time>
      </trkpt>
      <trkpt lat="45.54896" lon="5.00799">
        <ele>280.4</ele>
        <time>2019-04-15T04:35:22Z</time>
      </trkpt>
      <trkpt lat="45.54881" lon="5.00809">
        <ele>281.2</ele>
        <time>2019-04-15T04:35:26Z</time>
      </trkpt>
      <trkpt lat="45.54871" lon="5.00819">
        <ele>281.8</ele>
        <time>2019-04-15T04:35:30Z</time>
      </trkpt>
      <trkpt lat="45.54857" lon="5.00826">
        <ele>283.8</ele>
        <time>2019-04-15T04:35:34Z</time>
      </trkpt>
      <trkpt lat="45.54844" lon="5.00834">
        <ele>285.6</ele>
        <time>2019-04-15T04:35:38Z</time>
      </trkpt>
      <trkpt lat="45.54829" lon="5.00842">
        <ele>286.8</ele>
        <time>2019-04-15T04:35:42Z</time>
      </trkpt>
      <trkpt lat="45.5481" lon="5.00847">
        <ele>287.8</ele>
        <time>2019-04-15T04:35:46Z</time>
      </trkpt>
      <trkpt lat="45.54795" lon="5.00847">
        <ele>289</ele>
        <time>2019-04-15T04:35:50Z</time>
      </trkpt>
      <trkpt lat="45.54781" lon="5.00847">
        <ele>290.4</ele>
        <time>2019-04-15T04:35:54Z</time>
      </trkpt>
      <trkpt lat="45.54767" lon="5.00846">
        <ele>292</ele>
        <time>2019-04-15T04:35:58Z</time>
      </trkpt>
      <trkpt lat="45.54753" lon="5.00846">
        <ele>292.4</ele>
        <time>2019-04-15T04:36:02Z</time>
      </trkpt>
      <trkpt lat="45.5474" lon="5.00844">
        <ele>293</ele>
        <time>2019-04-15T04:36:06Z</time>
      </trkpt>
      <trkpt lat="45.54725" lon="5.00845">
        <ele>294</ele>
        <time>2019-04-15T04:36:10Z</time>
      </trkpt>
      <trkpt lat="45.5471" lon="5.00845">
        <ele>295.6</ele>
        <time>2019-04-15T04:36:14Z</time>
      </trkpt>
      <trkpt lat="45.54695" lon="5.00845">
        <ele>296.8</ele>
        <time>2019-04-15T04:36:18Z</time>
      </trkpt>
      <trkpt lat="45.54681" lon="5.00846">
        <ele>296.8</ele>
        <time>2019-04-15T04:36:22Z</time>
      </trkpt>
      <trkpt lat="45.54667" lon="5.00846">
        <ele>298</ele>
        <time>2019-04-15T04:36:26Z</time>
      </trkpt>
      <trkpt lat="45.54653" lon="5.00847">
        <ele>299.6</ele>
        <time>2019-04-15T04:36:30Z</time>
      </trkpt>
      <trkpt lat="45.54639" lon="5.00847">
        <ele>300.8</ele>
        <time>2019-04-15T04:36:34Z</time>
      </trkpt>
      <trkpt lat="45.54624" lon="5.00845">
        <ele>301.8</ele>
        <time>2019-04-15T04:36:38Z</time>
      </trkpt>
      <trkpt lat="45.5461" lon="5.00843">
        <ele>303.4</ele>
        <time>2019-04-15T04:36:42Z</time>
      </trkpt>
      <trkpt lat="45.54596" lon="5.00841">
        <ele>304.8</ele>
        <time>2019-04-15T04:36:46Z</time>
      </trkpt>
      <trkpt lat="45.54582" lon="5.0084">
        <ele>306</ele>
        <time>2019-04-15T04:36:50Z</time>
      </trkpt>
      <trkpt lat="45.54569" lon="5.00838">
        <ele>307.2</ele>
        <time>2019-04-15T04:36:54Z</time>
      </trkpt>
      <trkpt lat="45.54556" lon="5.00836">
        <ele>308.6</ele>
        <time>2019-04-15T04:36:58Z</time>
      </trkpt>
      <trkpt lat="45.54542" lon="5.00834">
        <ele>308.8</ele>
        <time>2019-04-15T04:37:02Z</time>
      </trkpt>
      <trkpt lat="45.54529" lon="5.0083">
        <ele>310.6</ele>
        <time>2019-04-15T04:37:06Z</time>
      </trkpt>
      <trkpt lat="45.54517" lon="5.00825">
        <ele>312.6</ele>
        <time>2019-04-15T04:37:10Z</time>
      </trkpt>
      <trkpt lat="45.54504" lon="5.00818">
        <ele>313.4</ele>
        <time>2019-04-15T04:37:14Z</time>
      </trkpt>
      <trkpt lat="45.54492" lon="5.00811">
        <ele>314.6</ele>
        <time>2019-04-15T04:37:18Z</time>
      </trkpt>
      <trkpt lat="45.5448" lon="5.00806">
        <ele>316</ele>
        <time>2019-04-15T04:37:22Z</time>
      </trkpt>
      <trkpt lat="45.54467" lon="5.008">
        <ele>317.4</ele>
        <time>2019-04-15T04:37:26Z</time>
      </trkpt>
      <trkpt lat="45.54455" lon="5.00793">
        <ele>317.8</ele>
        <time>2019-04-15T04:37:30Z</time>
      </trkpt>
      <trkpt lat="45.54443" lon="5.00787">
        <ele>319.2</ele>
        <time>2019-04-15T04:37:34Z</time>
      </trkpt>
      <trkpt lat="45.5443" lon="5.00782">
        <ele>320.8</ele>
        <time>2019-04-15T04:37:38Z</time>
      </trkpt>
      <trkpt lat="45.54418" lon="5.00773">
        <ele>321.8</ele>
        <time>2019-04-15T04:37:42Z</time>
      </trkpt>
      <trkpt lat="45.54407" lon="5.00761">
        <ele>323</ele>
        <time>2019-04-15T04:37:46Z</time>
      </trkpt>
      <trkpt lat="45.54397" lon="5.00748">
        <ele>324.2</ele>
        <time>2019-04-15T04:37:50Z</time>
      </trkpt>
      <trkpt lat="45.54388" lon="5.00735">
        <ele>325</ele>
        <time>2019-04-15T04:37:54Z</time>
      </trkpt>
      <trkpt lat="45.54378" lon="5.00723">
        <ele>326.4</ele>
        <time>2019-04-15T04:37:58Z</time>
      </trkpt>
      <trkpt lat="45.54366" lon="5.00713">
        <ele>328.2</ele>
        <time>2019-04-15T04:38:02Z</time>
      </trkpt>
      <trkpt lat="45.54354" lon="5.00706">
        <ele>329.4</ele>
        <time>2019-04-15T04:38:06Z</time>
      </trkpt>
      <trkpt lat="45.54341" lon="5.00701">
        <ele>330.8</ele>
        <time>2019-04-15T04:38:10Z</time>
      </trkpt>
      <trkpt lat="45.54329" lon="5.00695">
        <ele>332</ele>
        <time>2019-04-15T04:38:14Z</time>
      </trkpt>
      <trkpt lat="45.54315" lon="5.0069">
        <ele>332.6</ele>
        <time>2019-04-15T04:38:18Z</time>
      </trkpt>
      <trkpt lat="45.54302" lon="5.00685">
        <ele>334</ele>
        <time>2019-04-15T04:38:22Z</time>
      </trkpt>
      <trkpt lat="45.54287" lon="5.00683">
        <ele>334</ele>
        <time>2019-04-15T04:38:26Z</time>
      </trkpt>
      <trkpt lat="45.54273" lon="5.0068">
        <ele>334.6</ele>
        <time>2019-04-15T04:38:30Z</time>
      </trkpt>
      <trkpt lat="45.54258" lon="5.00677">
        <ele>336</ele>
        <time>2019-04-15T04:38:34Z</time>
      </trkpt>
      <trkpt lat="45.54244" lon="5.00675">
        <ele>337</ele>
        <time>2019-04-15T04:38:38Z</time>
      </trkpt>
      <trkpt lat="45.54229" lon="5.00672">
        <ele>337.6</ele>
        <time>2019-04-15T04:38:42Z</time>
      </trkpt>
      <trkpt lat="45.54214" lon="5.0067">
        <ele>339.6</ele>
        <time>2019-04-15T04:38:46Z</time>
      </trkpt>
      <trkpt lat="45.54199" lon="5.00668">
        <ele>340.4</ele>
        <time>2019-04-15T04:38:50Z</time>
      </trkpt>
      <trkpt lat="45.54183" lon="5.00666">
        <ele>341.6</ele>
        <time>2019-04-15T04:38:54Z</time>
      </trkpt>
      <trkpt lat="45.54167" lon="5.00665">
        <ele>342</ele>
        <time>2019-04-15T04:38:58Z</time>
      </trkpt>
      <trkpt lat="45.54153" lon="5.00663">
        <ele>343.4</ele>
        <time>2019-04-15T04:39:02Z</time>
      </trkpt>
      <trkpt lat="45.54137" lon="5.0066">
        <ele>344</ele>
        <time>2019-04-15T04:39:06Z</time>
      </trkpt>
      <trkpt lat="45.5412" lon="5.00658">
        <ele>345.6</ele>
        <time>2019-04-15T04:39:10Z</time>
      </trkpt>
      <trkpt lat="45.54104" lon="5.00655">
        <ele>345.8</ele>
        <time>2019-04-15T04:39:14Z</time>
      </trkpt>
      <trkpt lat="45.54087" lon="5.00653">
        <ele>346.6</ele>
        <time>2019-04-15T04:39:18Z</time>
      </trkpt>
      <trkpt lat="45.5407" lon="5.0065">
        <ele>346.6</ele>
        <time>2019-04-15T04:39:22Z</time>
      </trkpt>
      <trkpt lat="45.54054" lon="5.00649">
        <ele>348</ele>
        <time>2019-04-15T04:39:26Z</time>
      </trkpt>
      <trkpt lat="45.54037" lon="5.00648">
        <ele>348.4</ele>
        <time>2019-04-15T04:39:30Z</time>
      </trkpt>
      <trkpt lat="45.54021" lon="5.00647">
        <ele>349.4</ele>
        <time>2019-04-15T04:39:34Z</time>
      </trkpt>
      <trkpt lat="45.54005" lon="5.00646">
        <ele>350</ele>
        <time>2019-04-15T04:39:38Z</time>
      </trkpt>
      <trkpt lat="45.53993" lon="5.00642">
        <ele>350.2</ele>
        <time>2019-04-15T04:39:42Z</time>
      </trkpt>
      <trkpt lat="45.53993" lon="5.00642">
        <ele>350.2</ele>
        <time>2019-04-15T04:39:46Z</time>
      </trkpt>
      <trkpt lat="45.53993" lon="5.00642">
        <ele>350.2</ele>
        <time>2019-04-15T04:39:50Z</time>
      </trkpt>
      <trkpt lat="45.53993" lon="5.00642">
        <ele>350.2</ele>
        <time>2019-04-15T04:39:54Z</time>
      </trkpt>
      <trkpt lat="45.53989" lon="5.00639">
        <ele>350.2</ele>
        <time>2019-04-15T04:39:58Z</time>
      </trkpt>
      <trkpt lat="45.53989" lon="5.00639">
        <ele>350.2</ele>
        <time>2019-04-15T04:40:02Z</time>
      </trkpt>
      <trkpt lat="45.53989" lon="5.00639">
        <ele>350.2</ele>
        <time>2019-04-15T04:40:06Z</time>
      </trkpt>
      <trkpt lat="45.53989" lon="5.00639">
        <ele>350.2</ele>
        <time>2019-04-15T04:40:10Z</time>
      </trkpt>
      <trkpt lat="45.53989" lon="5.00639">
        <ele>350.2</ele>
        <time>2019-04-15T04:40:14Z</time>
      </trkpt>
      <trkpt lat="45.53989" lon="5.00639">
        <ele>350.2</ele>
        <time>2019-04-15T04:40:18Z</time>
      </trkpt>
      <trkpt lat="45.53989" lon="5.00639">
        <ele>350.2</ele>
        <time>2019-04-15T04:40:22Z</time>
      </trkpt>
      <trkpt lat="45.53989" lon="5.00639">
        <ele>350.2</ele>
        <time>2019-04-15T04:40:26Z</time>
      </trkpt>
      <trkpt lat="45.53989" lon="5.00639">
        <ele>350.2</ele>
        <time>2019-04-15T04:40:30Z</time>
      </trkpt>
      <trkpt lat="45.53989" lon="5.00639">
        <ele>350.2</ele>
        <time>2019-04-15T04:40:34Z</time>
      </trkpt>
      <trkpt lat="45.53989" lon="5.00639">
        <ele>350.2</ele>
        <time>2019-04-15T04:40:38Z</time>
      </trkpt>
      <trkpt lat="45.53989" lon="5.00639">
        <ele>350.2</ele>
        <time>2019-04-15T04:40:42Z</time>
      </trkpt>
      <trkpt lat="45.53989" lon="5.00639">
        <ele>350.2</ele>
        <time>2019-04-15T04:40:46Z</time>
      </trkpt>
      <trkpt lat="45.53989" lon="5.00639">
        <ele>350.2</ele>
        <time>2019-04-15T04:40:50Z</time>
      </trkpt>
      <trkpt lat="45.53989" lon="5.00639">
        <ele>350.2</ele>
        <time>2019-04-15T04:40:54Z</time>
      </trkpt>
      <trkpt lat="45.53989" lon="5.00639">
        <ele>350.2</ele>
        <time>2019-04-15T04:40:58Z</time>
      </trkpt>
      <trkpt lat="45.53989" lon="5.00639">
        <ele>350.2</ele>
        <time>2019-04-15T04:41:02Z</time>
      </trkpt>
      <trkpt lat="45.53989" lon="5.00639">
        <ele>350.2</ele>
        <time>2019-04-15T04:41:06Z</time>
      </trkpt>
      <trkpt lat="45.53989" lon="5.00639">
        <ele>350.2</ele>
        <time>2019-04-15T04:41:10Z</time>
      </trkpt>
      <trkpt lat="45.53989" lon="5.00639">
        <ele>350.2</ele>
        <time>2019-04-15T04:41:14Z</time>
      </trkpt>
      <trkpt lat="45.53989" lon="5.00639">
        <ele>350.2</ele>
        <time>2019-04-15T04:41:18Z</time>
      </trkpt>
      <trkpt lat="45.53989" lon="5.00639">
        <ele>350.2</ele>
        <time>2019-04-15T04:41:22Z</time>
      </trkpt>
      <trkpt lat="45.53989" lon="5.00639">
        <ele>350.2</ele>
        <time>2019-04-15T04:41:26Z</time>
      </trkpt>
      <trkpt lat="45.53989" lon="5.00639">
        <ele>350.2</ele>
        <time>2019-04-15T04:41:30Z</time>
      </trkpt>
      <trkpt lat="45.53989" lon="5.00639">
        <ele>350.2</ele>
        <time>2019-04-15T04:41:34Z</time>
      </trkpt>
      <trkpt lat="45.53989" lon="5.00639">
        <ele>350.2</ele>
        <time>2019-04-15T04:41:38Z</time>
      </trkpt>
      <trkpt lat="45.53989" lon="5.00639">
        <ele>350.2</ele>
        <time>2019-04-15T04:41:42Z</time>
      </trkpt>
      <trkpt lat="45.53989" lon="5.00639">
        <ele>350.2</ele>
        <time>2019-04-15T04:41:46Z</time>
      </trkpt>
      <trkpt lat="45.53989" lon="5.00639">
        <ele>350.2</ele>
        <time>2019-04-15T04:41:50Z</time>
      </trkpt>
      <trkpt lat="45.53989" lon="5.00639">
        <ele>350.2</ele>
        <time>2019-04-15T04:41:54Z</time>
      </trkpt>
      <trkpt lat="45.53989" lon="5.00639">
        <ele>350.2</ele>
        <time>2019-04-15T04:41:58Z</time>
      </trkpt>
      <trkpt lat="45.53989" lon="5.00639">
        <ele>350.2</ele>
        <time>2019-04-15T04:42:02Z</time>
      </trkpt>
      <trkpt lat="45.53989" lon="5.00639">
        <ele>350.2</ele>
        <time>2019-04-15T04:42:06Z</time>
      </trkpt>
      <trkpt lat="45.53988" lon="5.00643">
        <ele>349.6</ele>
        <time>2019-04-15T04:42:10Z</time>
      </trkpt>
      <trkpt lat="45.53982" lon="5.00646">
        <ele>350.4</ele>
        <time>2019-04-15T04:42:14Z</time>
      </trkpt>
      <trkpt lat="45.5397" lon="5.00648">
        <ele>350.8</ele>
        <time>2019-04-15T04:42:18Z</time>
      </trkpt>
      <trkpt lat="45.53953" lon="5.0065">
        <ele>351</ele>
        <time>2019-04-15T04:42:22Z</time>
      </trkpt>
      <trkpt lat="45.53936" lon="5.00651">
        <ele>351.8</ele>
        <time>2019-04-15T04:42:26Z</time>
      </trkpt>
      <trkpt lat="45.53918" lon="5.00653">
        <ele>352.2</ele>
        <time>2019-04-15T04:42:30Z</time>
      </trkpt>
      <trkpt lat="45.539" lon="5.00658">
        <ele>352.2</ele>
        <time>2019-04-15T04:42:34Z</time>
      </trkpt>
      <trkpt lat="45.53881" lon="5.00667">
        <ele>352.6</ele>
        <time>2019-04-15T04:42:38Z</time>
      </trkpt>
      <trkpt lat="45.53862" lon="5.00675">
        <ele>353</ele>
        <time>2019-04-15T04:42:42Z</time>
      </trkpt>
      <trkpt lat="45.53844" lon="5.00683">
        <ele>353</ele>
        <time>2019-04-15T04:42:46Z</time>
      </trkpt>
      <trkpt lat="45.53825" lon="5.00693">
        <ele>353.6</ele>
        <time>2019-04-15T04:42:50Z</time>
      </trkpt>
      <trkpt lat="45.53809" lon="5.0071">
        <ele>353.6</ele>
        <time>2019-04-15T04:42:54Z</time>
      </trkpt>
      <trkpt lat="45.538" lon="5.00736">
        <ele>354</ele>
        <time>2019-04-15T04:42:58Z</time>
      </trkpt>
      <trkpt lat="45.53796" lon="5.00764">
        <ele>354.6</ele>
        <time>2019-04-15T04:43:02Z</time>
      </trkpt>
      <trkpt lat="45.53793" lon="5.00791">
        <ele>355</ele>
        <time>2019-04-15T04:43:06Z</time>
      </trkpt>
      <trkpt lat="45.53788" lon="5.00816">
        <ele>356</ele>
        <time>2019-04-15T04:43:10Z</time>
      </trkpt>
      <trkpt lat="45.5378" lon="5.0084">
        <ele>356.8</ele>
        <time>2019-04-15T04:43:14Z</time>
      </trkpt>
      <trkpt lat="45.53771" lon="5.00862">
        <ele>358</ele>
        <time>2019-04-15T04:43:18Z</time>
      </trkpt>
      <trkpt lat="45.53762" lon="5.00883">
        <ele>358.4</ele>
        <time>2019-04-15T04:43:22Z</time>
      </trkpt>
      <trkpt lat="45.53755" lon="5.00902">
        <ele>360</ele>
        <time>2019-04-15T04:43:26Z</time>
      </trkpt>
      <trkpt lat="45.53745" lon="5.00922">
        <ele>360.6</ele>
        <time>2019-04-15T04:43:30Z</time>
      </trkpt>
      <trkpt lat="45.53733" lon="5.0094">
        <ele>362.4</ele>
        <time>2019-04-15T04:43:34Z</time>
      </trkpt>
      <trkpt lat="45.53719" lon="5.00956">
        <ele>363</ele>
        <time>2019-04-15T04:43:38Z</time>
      </trkpt>
      <trkpt lat="45.53705" lon="5.00974">
        <ele>363.8</ele>
        <time>2019-04-15T04:43:42Z</time>
      </trkpt>
      <trkpt lat="45.5369" lon="5.00989">
        <ele>364.4</ele>
        <time>2019-04-15T04:43:46Z</time>
      </trkpt>
      <trkpt lat="45.53674" lon="5.01006">
        <ele>364.8</ele>
        <time>2019-04-15T04:43:50Z</time>
      </trkpt>
      <trkpt lat="45.5366" lon="5.01025">
        <ele>365</ele>
        <time>2019-04-15T04:43:54Z</time>
      </trkpt>
      <trkpt lat="45.53646" lon="5.01045">
        <ele>365.2</ele>
        <time>2019-04-15T04:43:58Z</time>
      </trkpt>
      <trkpt lat="45.53635" lon="5.01067">
        <ele>365.4</ele>
        <time>2019-04-15T04:44:02Z</time>
      </trkpt>
      <trkpt lat="45.53622" lon="5.01089">
        <ele>365.8</ele>
        <time>2019-04-15T04:44:06Z</time>
      </trkpt>
      <trkpt lat="45.5361" lon="5.01111">
        <ele>365.8</ele>
        <time>2019-04-15T04:44:10Z</time>
      </trkpt>
      <trkpt lat="45.53597" lon="5.01132">
        <ele>366.4</ele>
        <time>2019-04-15T04:44:14Z</time>
      </trkpt>
      <trkpt lat="45.53584" lon="5.01153">
        <ele>367</ele>
        <time>2019-04-15T04:44:18Z</time>
      </trkpt>
      <trkpt lat="45.53571" lon="5.01173">
        <ele>367.6</ele>
        <time>2019-04-15T04:44:22Z</time>
      </trkpt>
      <trkpt lat="45.53559" lon="5.01194">
        <ele>368.2</ele>
        <time>2019-04-15T04:44:26Z</time>
      </trkpt>
      <trkpt lat="45.53546" lon="5.01214">
        <ele>368.2</ele>
        <time>2019-04-15T04:44:30Z</time>
      </trkpt>
      <trkpt lat="45.53533" lon="5.01234">
        <ele>368.8</ele>
        <time>2019-04-15T04:44:34Z</time>
      </trkpt>
      <trkpt lat="45.53517" lon="5.01253">
        <ele>368.4</ele>
        <time>2019-04-15T04:44:38Z</time>
      </trkpt>
      <trkpt lat="45.535" lon="5.0127">
        <ele>368.4</ele>
        <time>2019-04-15T04:44:42Z</time>
      </trkpt>
      <trkpt lat="45.53483" lon="5.01281">
        <ele>368.2</ele>
        <time>2019-04-15T04:44:46Z</time>
      </trkpt>
      <trkpt lat="45.53462" lon="5.01293">
        <ele>368.4</ele>
        <time>2019-04-15T04:44:50Z</time>
      </trkpt>
      <trkpt lat="45.53438" lon="5.01305">
        <ele>368.8</ele>
        <time>2019-04-15T04:44:54Z</time>
      </trkpt>
      <trkpt lat="45.53413" lon="5.01316">
        <ele>368.4</ele>
        <time>2019-04-15T04:44:58Z</time>
      </trkpt>
      <trkpt lat="45.53391" lon="5.01326">
        <ele>367.8</ele>
        <time>2019-04-15T04:45:02Z</time>
      </trkpt>
      <trkpt lat="45.53368" lon="5.01336">
        <ele>367.8</ele>
        <time>2019-04-15T04:45:06Z</time>
      </trkpt>
      <trkpt lat="45.53342" lon="5.01347">
        <ele>366.8</ele>
        <time>2019-04-15T04:45:10Z</time>
      </trkpt>
      <trkpt lat="45.53315" lon="5.0136">
        <ele>367</ele>
        <time>2019-04-15T04:45:14Z</time>
      </trkpt>
      <trkpt lat="45.53288" lon="5.01373">
        <ele>366.8</ele>
        <time>2019-04-15T04:45:18Z</time>
      </trkpt>
      <trkpt lat="45.53264" lon="5.01387">
        <ele>367.6</ele>
        <time>2019-04-15T04:45:22Z</time>
      </trkpt>
      <trkpt lat="45.53242" lon="5.01403">
        <ele>368.2</ele>
        <time>2019-04-15T04:45:26Z</time>
      </trkpt>
      <trkpt lat="45.53222" lon="5.01421">
        <ele>367.8</ele>
        <time>2019-04-15T04:45:30Z</time>
      </trkpt>
      <trkpt lat="45.53201" lon="5.01441">
        <ele>368.2</ele>
        <time>2019-04-15T04:45:34Z</time>
      </trkpt>
      <trkpt lat="45.5318" lon="5.01462">
        <ele>369.6</ele>
        <time>2019-04-15T04:45:38Z</time>
      </trkpt>
      <trkpt lat="45.5316" lon="5.01483">
        <ele>368.2</ele>
        <time>2019-04-15T04:45:42Z</time>
      </trkpt>
      <trkpt lat="45.53138" lon="5.01504">
        <ele>367.8</ele>
        <time>2019-04-15T04:45:46Z</time>
      </trkpt>
      <trkpt lat="45.53116" lon="5.01526">
        <ele>368.2</ele>
        <time>2019-04-15T04:45:50Z</time>
      </trkpt>
      <trkpt lat="45.53094" lon="5.01549">
        <ele>367.8</ele>
        <time>2019-04-15T04:45:54Z</time>
      </trkpt>
      <trkpt lat="45.53072" lon="5.01571">
        <ele>368</ele>
        <time>2019-04-15T04:45:58Z</time>
      </trkpt>
      <trkpt lat="45.5305" lon="5.01594">
        <ele>367.8</ele>
        <time>2019-04-15T04:46:02Z</time>
      </trkpt>
      <trkpt lat="45.53027" lon="5.01614">
        <ele>367.6</ele>
        <time>2019-04-15T04:46:06Z</time>
      </trkpt>
      <trkpt lat="45.53001" lon="5.01622">
        <ele>368.2</ele>
        <time>2019-04-15T04:46:10Z</time>
      </trkpt>
      <trkpt lat="45.52976" lon="5.01613">
        <ele>369</ele>
        <time>2019-04-15T04:46:14Z</time>
      </trkpt>
      <trkpt lat="45.52953" lon="5.01599">
        <ele>369.6</ele>
        <time>2019-04-15T04:46:18Z</time>
      </trkpt>
      <trkpt lat="45.5293" lon="5.01584">
        <ele>369.8</ele>
        <time>2019-04-15T04:46:22Z</time>
      </trkpt>
      <trkpt lat="45.52908" lon="5.01568">
        <ele>370.2</ele>
        <time>2019-04-15T04:46:26Z</time>
      </trkpt>
      <trkpt lat="45.52885" lon="5.01552">
        <ele>369.8</ele>
        <time>2019-04-15T04:46:30Z</time>
      </trkpt>
      <trkpt lat="45.5286" lon="5.01533">
        <ele>369.2</ele>
        <time>2019-04-15T04:46:34Z</time>
      </trkpt>
      <trkpt lat="45.52833" lon="5.01513">
        <ele>368.2</ele>
        <time>2019-04-15T04:46:38Z</time>
      </trkpt>
      <trkpt lat="45.52804" lon="5.0149">
        <ele>367</ele>
        <time>2019-04-15T04:46:42Z</time>
      </trkpt>
      <trkpt lat="45.52774" lon="5.01466">
        <ele>366.2</ele>
        <time>2019-04-15T04:46:46Z</time>
      </trkpt>
      <trkpt lat="45.52744" lon="5.01442">
        <ele>365.8</ele>
        <time>2019-04-15T04:46:50Z</time>
      </trkpt>
      <trkpt lat="45.52715" lon="5.01419">
        <ele>365.8</ele>
        <time>2019-04-15T04:46:54Z</time>
      </trkpt>
      <trkpt lat="45.52687" lon="5.01396">
        <ele>364.8</ele>
        <time>2019-04-15T04:46:58Z</time>
      </trkpt>
      <trkpt lat="45.52659" lon="5.01373">
        <ele>364.2</ele>
        <time>2019-04-15T04:47:02Z</time>
      </trkpt>
      <trkpt lat="45.52631" lon="5.0135">
        <ele>364</ele>
        <time>2019-04-15T04:47:06Z</time>
      </trkpt>
      <trkpt lat="45.52603" lon="5.01327">
        <ele>363.4</ele>
        <time>2019-04-15T04:47:10Z</time>
      </trkpt>
      <trkpt lat="45.52575" lon="5.01304">
        <ele>362.2</ele>
        <time>2019-04-15T04:47:14Z</time>
      </trkpt>
      <trkpt lat="45.52544" lon="5.01275">
        <ele>359.2</ele>
        <time>2019-04-15T04:47:18Z</time>
      </trkpt>
      <trkpt lat="45.52516" lon="5.0123">
        <ele>355.4</ele>
        <time>2019-04-15T04:47:22Z</time>
      </trkpt>
      <trkpt lat="45.52493" lon="5.01176">
        <ele>352</ele>
        <time>2019-04-15T04:47:26Z</time>
      </trkpt>
      <trkpt lat="45.52465" lon="5.01119">
        <ele>347.6</ele>
        <time>2019-04-15T04:47:30Z</time>
      </trkpt>
      <trkpt lat="45.52427" lon="5.01071">
        <ele>343.8</ele>
        <time>2019-04-15T04:47:34Z</time>
      </trkpt>
      <trkpt lat="45.5239" lon="5.01035">
        <ele>340.8</ele>
        <time>2019-04-15T04:47:38Z</time>
      </trkpt>
      <trkpt lat="45.52344" lon="5.01">
        <ele>337.4</ele>
        <time>2019-04-15T04:47:42Z</time>
      </trkpt>
      <trkpt lat="45.52302" lon="5.00996">
        <ele>334.4</ele>
        <time>2019-04-15T04:47:46Z</time>
      </trkpt>
      <trkpt lat="45.52278" lon="5.01043">
        <ele>331.8</ele>
        <time>2019-04-15T04:47:50Z</time>
      </trkpt>
      <trkpt lat="45.52262" lon="5.01097">
        <ele>329.8</ele>
        <time>2019-04-15T04:47:54Z</time>
      </trkpt>
      <trkpt lat="45.52244" lon="5.01151">
        <ele>327.8</ele>
        <time>2019-04-15T04:47:58Z</time>
      </trkpt>
      <trkpt lat="45.52219" lon="5.01201">
        <ele>325</ele>
        <time>2019-04-15T04:48:02Z</time>
      </trkpt>
      <trkpt lat="45.52188" lon="5.01249">
        <ele>321.4</ele>
        <time>2019-04-15T04:48:06Z</time>
      </trkpt>
      <trkpt lat="45.52156" lon="5.0128">
        <ele>318.6</ele>
        <time>2019-04-15T04:48:10Z</time>
      </trkpt>
      <trkpt lat="45.52116" lon="5.01275">
        <ele>317</ele>
        <time>2019-04-15T04:48:14Z</time>
      </trkpt>
      <trkpt lat="45.52075" lon="5.01267">
        <ele>315.6</ele>
        <time>2019-04-15T04:48:18Z</time>
      </trkpt>
      <trkpt lat="45.52035" lon="5.01259">
        <ele>314.8</ele>
        <time>2019-04-15T04:48:22Z</time>
      </trkpt>
      <trkpt lat="45.51995" lon="5.01252">
        <ele>313.4</ele>
        <time>2019-04-15T04:48:26Z</time>
      </trkpt>
      <trkpt lat="45.51956" lon="5.01245">
        <ele>312.6</ele>
        <time>2019-04-15T04:48:30Z</time>
      </trkpt>
      <trkpt lat="45.51918" lon="5.01238">
        <ele>311.8</ele>
        <time>2019-04-15T04:48:34Z</time>
      </trkpt>
      <trkpt lat="45.51881" lon="5.01228">
        <ele>310.8</ele>
        <time>2019-04-15T04:48:38Z</time>
      </trkpt>
      <trkpt lat="45.51844" lon="5.01214">
        <ele>310.2</ele>
        <time>2019-04-15T04:48:42Z</time>
      </trkpt>
      <trkpt lat="45.51807" lon="5.01199">
        <ele>308.6</ele>
        <time>2019-04-15T04:48:46Z</time>
      </trkpt>
      <trkpt lat="45.5177" lon="5.01187">
        <ele>307.4</ele>
        <time>2019-04-15T04:48:50Z</time>
      </trkpt>
      <trkpt lat="45.51733" lon="5.01185">
        <ele>305.8</ele>
        <time>2019-04-15T04:48:54Z</time>
      </trkpt>
      <trkpt lat="45.51694" lon="5.01196">
        <ele>304.4</ele>
        <time>2019-04-15T04:48:58Z</time>
      </trkpt>
      <trkpt lat="45.51659" lon="5.01229">
        <ele>299.2</ele>
        <time>2019-04-15T04:49:02Z</time>
      </trkpt>
      <trkpt lat="45.51635" lon="5.01281">
        <ele>295.6</ele>
        <time>2019-04-15T04:49:06Z</time>
      </trkpt>
      <trkpt lat="45.51634" lon="5.01345">
        <ele>291.8</ele>
        <time>2019-04-15T04:49:10Z</time>
      </trkpt>
      <trkpt lat="45.51659" lon="5.014">
        <ele>288</ele>
        <time>2019-04-15T04:49:14Z</time>
      </trkpt>
      <trkpt lat="45.51668" lon="5.01461">
        <ele>284.4</ele>
        <time>2019-04-15T04:49:18Z</time>
      </trkpt>
      <trkpt lat="45.51649" lon="5.01524">
        <ele>280.4</ele>
        <time>2019-04-15T04:49:22Z</time>
      </trkpt>
      <trkpt lat="45.51623" lon="5.01584">
        <ele>276.6</ele>
        <time>2019-04-15T04:49:26Z</time>
      </trkpt>
      <trkpt lat="45.51586" lon="5.01633">
        <ele>273</ele>
        <time>2019-04-15T04:49:30Z</time>
      </trkpt>
      <trkpt lat="45.51542" lon="5.01667">
        <ele>270.4</ele>
        <time>2019-04-15T04:49:34Z</time>
      </trkpt>
      <trkpt lat="45.51498" lon="5.01683">
        <ele>269.8</ele>
        <time>2019-04-15T04:49:38Z</time>
      </trkpt>
      <trkpt lat="45.51456" lon="5.0169">
        <ele>270.2</ele>
        <time>2019-04-15T04:49:42Z</time>
      </trkpt>
      <trkpt lat="45.51419" lon="5.01694">
        <ele>270.4</ele>
        <time>2019-04-15T04:49:46Z</time>
      </trkpt>
      <trkpt lat="45.51384" lon="5.01692">
        <ele>269.2</ele>
        <time>2019-04-15T04:49:50Z</time>
      </trkpt>
      <trkpt lat="45.51349" lon="5.01682">
        <ele>270.2</ele>
        <time>2019-04-15T04:49:54Z</time>
      </trkpt>
      <trkpt lat="45.51316" lon="5.01671">
        <ele>270.4</ele>
        <time>2019-04-15T04:49:58Z</time>
      </trkpt>
      <trkpt lat="45.51286" lon="5.01662">
        <ele>270.8</ele>
        <time>2019-04-15T04:50:02Z</time>
      </trkpt>
      <trkpt lat="45.51259" lon="5.01657">
        <ele>271</ele>
        <time>2019-04-15T04:50:06Z</time>
      </trkpt>
      <trkpt lat="45.51233" lon="5.01652">
        <ele>271</ele>
        <time>2019-04-15T04:50:10Z</time>
      </trkpt>
      <trkpt lat="45.51211" lon="5.01656">
        <ele>271.6</ele>
        <time>2019-04-15T04:50:14Z</time>
      </trkpt>
      <trkpt lat="45.51189" lon="5.01651">
        <ele>270.2</ele>
        <time>2019-04-15T04:50:18Z</time>
      </trkpt>
      <trkpt lat="45.51162" lon="5.01634">
        <ele>268.4</ele>
        <time>2019-04-15T04:50:22Z</time>
      </trkpt>
      <trkpt lat="45.51134" lon="5.01614">
        <ele>267.6</ele>
        <time>2019-04-15T04:50:26Z</time>
      </trkpt>
      <trkpt lat="45.51104" lon="5.016">
        <ele>267.8</ele>
        <time>2019-04-15T04:50:30Z</time>
      </trkpt>
      <trkpt lat="45.51073" lon="5.01589">
        <ele>267.2</ele>
        <time>2019-04-15T04:50:34Z</time>
      </trkpt>
      <trkpt lat="45.51042" lon="5.0158">
        <ele>267</ele>
        <time>2019-04-15T04:50:38Z</time>
      </trkpt>
      <trkpt lat="45.51012" lon="5.01572">
        <ele>266.8</ele>
        <time>2019-04-15T04:50:42Z</time>
      </trkpt>
      <trkpt lat="45.50982" lon="5.01564">
        <ele>266.8</ele>
        <time>2019-04-15T04:50:46Z</time>
      </trkpt>
      <trkpt lat="45.50954" lon="5.01554">
        <ele>265.8</ele>
        <time>2019-04-15T04:50:50Z</time>
      </trkpt>
      <trkpt lat="45.50924" lon="5.01544">
        <ele>265.6</ele>
        <time>2019-04-15T04:50:54Z</time>
      </trkpt>
      <trkpt lat="45.50894" lon="5.01532">
        <ele>265.6</ele>
        <time>2019-04-15T04:50:58Z</time>
      </trkpt>
      <trkpt lat="45.50865" lon="5.01519">
        <ele>265.6</ele>
        <time>2019-04-15T04:51:02Z</time>
      </trkpt>
      <trkpt lat="45.50838" lon="5.01504">
        <ele>265.8</ele>
        <time>2019-04-15T04:51:06Z</time>
      </trkpt>
      <trkpt lat="45.50813" lon="5.01487">
        <ele>266.2</ele>
        <time>2019-04-15T04:51:10Z</time>
      </trkpt>
      <trkpt lat="45.50789" lon="5.01469">
        <ele>266.4</ele>
        <time>2019-04-15T04:51:14Z</time>
      </trkpt>
      <trkpt lat="45.50764" lon="5.01453">
        <ele>267.8</ele>
        <time>2019-04-15T04:51:18Z</time>
      </trkpt>
      <trkpt lat="45.50741" lon="5.01437">
        <ele>268</ele>
        <time>2019-04-15T04:51:22Z</time>
      </trkpt>
      <trkpt lat="45.50715" lon="5.01419">
        <ele>267.2</ele>
        <time>2019-04-15T04:51:26Z</time>
      </trkpt>
      <trkpt lat="45.50689" lon="5.01401">
        <ele>267.8</ele>
        <time>2019-04-15T04:51:30Z</time>
      </trkpt>
      <trkpt lat="45.50663" lon="5.01384">
        <ele>267.6</ele>
        <time>2019-04-15T04:51:34Z</time>
      </trkpt>
      <trkpt lat="45.50638" lon="5.01367">
        <ele>268</ele>
        <time>2019-04-15T04:51:38Z</time>
      </trkpt>
      <trkpt lat="45.50613" lon="5.01352">
        <ele>268</ele>
        <time>2019-04-15T04:51:42Z</time>
      </trkpt>
      <trkpt lat="45.50588" lon="5.01336">
        <ele>268.6</ele>
        <time>2019-04-15T04:51:46Z</time>
      </trkpt>
      <trkpt lat="45.50564" lon="5.0132">
        <ele>268.8</ele>
        <time>2019-04-15T04:51:50Z</time>
      </trkpt>
      <trkpt lat="45.50538" lon="5.01305">
        <ele>269</ele>
        <time>2019-04-15T04:51:54Z</time>
      </trkpt>
      <trkpt lat="45.50514" lon="5.0129">
        <ele>269</ele>
        <time>2019-04-15T04:51:58Z</time>
      </trkpt>
      <trkpt lat="45.50489" lon="5.01275">
        <ele>269.4</ele>
        <time>2019-04-15T04:52:02Z</time>
      </trkpt>
      <trkpt lat="45.50464" lon="5.01259">
        <ele>269.4</ele>
        <time>2019-04-15T04:52:06Z</time>
      </trkpt>
      <trkpt lat="45.50438" lon="5.01244">
        <ele>269.2</ele>
        <time>2019-04-15T04:52:10Z</time>
      </trkpt>
      <trkpt lat="45.50411" lon="5.01229">
        <ele>269.6</ele>
        <time>2019-04-15T04:52:14Z</time>
      </trkpt>
      <trkpt lat="45.50386" lon="5.01214">
        <ele>269.2</ele>
        <time>2019-04-15T04:52:18Z</time>
      </trkpt>
      <trkpt lat="45.5036" lon="5.01199">
        <ele>269.2</ele>
        <time>2019-04-15T04:52:22Z</time>
      </trkpt>
      <trkpt lat="45.50334" lon="5.01184">
        <ele>268.8</ele>
        <time>2019-04-15T04:52:26Z</time>
      </trkpt>
      <trkpt lat="45.50309" lon="5.01172">
        <ele>269.4</ele>
        <time>2019-04-15T04:52:30Z</time>
      </trkpt>
      <trkpt lat="45.50284" lon="5.0116">
        <ele>270</ele>
        <time>2019-04-15T04:52:34Z</time>
      </trkpt>
      <trkpt lat="45.50258" lon="5.01149">
        <ele>269.8</ele>
        <time>2019-04-15T04:52:38Z</time>
      </trkpt>
      <trkpt lat="45.50232" lon="5.01139">
        <ele>269.6</ele>
        <time>2019-04-15T04:52:42Z</time>
      </trkpt>
      <trkpt lat="45.50206" lon="5.0113">
        <ele>269.6</ele>
        <time>2019-04-15T04:52:46Z</time>
      </trkpt>
      <trkpt lat="45.5018" lon="5.01126">
        <ele>269.8</ele>
        <time>2019-04-15T04:52:50Z</time>
      </trkpt>
      <trkpt lat="45.50155" lon="5.01127">
        <ele>269.8</ele>
        <time>2019-04-15T04:52:54Z</time>
      </trkpt>
      <trkpt lat="45.50132" lon="5.01127">
        <ele>269.6</ele>
        <time>2019-04-15T04:52:58Z</time>
      </trkpt>
      <trkpt lat="45.50116" lon="5.01117">
        <ele>269.6</ele>
        <time>2019-04-15T04:53:02Z</time>
      </trkpt>
      <trkpt lat="45.50113" lon="5.01093">
        <ele>269.8</ele>
        <time>2019-04-15T04:53:06Z</time>
      </trkpt>
      <trkpt lat="45.50119" lon="5.01059">
        <ele>269</ele>
        <time>2019-04-15T04:53:10Z</time>
      </trkpt>
      <trkpt lat="45.50127" lon="5.01021">
        <ele>269.8</ele>
        <time>2019-04-15T04:53:14Z</time>
      </trkpt>
      <trkpt lat="45.50135" lon="5.0098">
        <ele>269</ele>
        <time>2019-04-15T04:53:18Z</time>
      </trkpt>
      <trkpt lat="45.50144" lon="5.00938">
        <ele>269</ele>
        <time>2019-04-15T04:53:22Z</time>
      </trkpt>
      <trkpt lat="45.50153" lon="5.00896">
        <ele>268.6</ele>
        <time>2019-04-15T04:53:26Z</time>
      </trkpt>
      <trkpt lat="45.50162" lon="5.00855">
        <ele>268</ele>
        <time>2019-04-15T04:53:30Z</time>
      </trkpt>
      <trkpt lat="45.5017" lon="5.00813">
        <ele>267.6</ele>
        <time>2019-04-15T04:53:34Z</time>
      </trkpt>
      <trkpt lat="45.50179" lon="5.00771">
        <ele>267</ele>
        <time>2019-04-15T04:53:38Z</time>
      </trkpt>
      <trkpt lat="45.50187" lon="5.00729">
        <ele>267.4</ele>
        <time>2019-04-15T04:53:42Z</time>
      </trkpt>
      <trkpt lat="45.50196" lon="5.00687">
        <ele>266.6</ele>
        <time>2019-04-15T04:53:46Z</time>
      </trkpt>
      <trkpt lat="45.50204" lon="5.00643">
        <ele>267</ele>
        <time>2019-04-15T04:53:50Z</time>
      </trkpt>
      <trkpt lat="45.50212" lon="5.00597">
        <ele>265.8</ele>
        <time>2019-04-15T04:53:54Z</time>
      </trkpt>
      <trkpt lat="45.50221" lon="5.00552">
        <ele>265.8</ele>
        <time>2019-04-15T04:53:58Z</time>
      </trkpt>
      <trkpt lat="45.50231" lon="5.00507">
        <ele>265.4</ele>
        <time>2019-04-15T04:54:02Z</time>
      </trkpt>
      <trkpt lat="45.5024" lon="5.00461">
        <ele>265</ele>
        <time>2019-04-15T04:54:06Z</time>
      </trkpt>
      <trkpt lat="45.50249" lon="5.00416">
        <ele>264.2</ele>
        <time>2019-04-15T04:54:10Z</time>
      </trkpt>
      <trkpt lat="45.50258" lon="5.00372">
        <ele>263.8</ele>
        <time>2019-04-15T04:54:14Z</time>
      </trkpt>
      <trkpt lat="45.50263" lon="5.00329">
        <ele>263.6</ele>
        <time>2019-04-15T04:54:18Z</time>
      </trkpt>
      <trkpt lat="45.50243" lon="5.00304">
        <ele>263.2</ele>
        <time>2019-04-15T04:54:22Z</time>
      </trkpt>
      <trkpt lat="45.50215" lon="5.00295">
        <ele>263</ele>
        <time>2019-04-15T04:54:26Z</time>
      </trkpt>
      <trkpt lat="45.50188" lon="5.00284">
        <ele>262.8</ele>
        <time>2019-04-15T04:54:30Z</time>
      </trkpt>
      <trkpt lat="45.50161" lon="5.00273">
        <ele>262.8</ele>
        <time>2019-04-15T04:54:34Z</time>
      </trkpt>
      <trkpt lat="45.50135" lon="5.00261">
        <ele>263</ele>
        <time>2019-04-15T04:54:38Z</time>
      </trkpt>
      <trkpt lat="45.50108" lon="5.0025">
        <ele>263.2</ele>
        <time>2019-04-15T04:54:42Z</time>
      </trkpt>
      <trkpt lat="45.50081" lon="5.00239">
        <ele>263.4</ele>
        <time>2019-04-15T04:54:46Z</time>
      </trkpt>
      <trkpt lat="45.50054" lon="5.00228">
        <ele>263</ele>
        <time>2019-04-15T04:54:50Z</time>
      </trkpt>
      <trkpt lat="45.50027" lon="5.00217">
        <ele>263.2</ele>
        <time>2019-04-15T04:54:54Z</time>
      </trkpt>
      <trkpt lat="45.50001" lon="5.00205">
        <ele>263</ele>
        <time>2019-04-15T04:54:58Z</time>
      </trkpt>
      <trkpt lat="45.49974" lon="5.00194">
        <ele>263.4</ele>
        <time>2019-04-15T04:55:02Z</time>
      </trkpt>
      <trkpt lat="45.49947" lon="5.00183">
        <ele>263.6</ele>
        <time>2019-04-15T04:55:06Z</time>
      </trkpt>
      <trkpt lat="45.49921" lon="5.00171">
        <ele>263.4</ele>
        <time>2019-04-15T04:55:10Z</time>
      </trkpt>
      <trkpt lat="45.49894" lon="5.0016">
        <ele>263</ele>
        <time>2019-04-15T04:55:14Z</time>
      </trkpt>
      <trkpt lat="45.49866" lon="5.00148">
        <ele>263.2</ele>
        <time>2019-04-15T04:55:18Z</time>
      </trkpt>
      <trkpt lat="45.49839" lon="5.00137">
        <ele>263</ele>
        <time>2019-04-15T04:55:22Z</time>
      </trkpt>
      <trkpt lat="45.49811" lon="5.00125">
        <ele>263</ele>
        <time>2019-04-15T04:55:26Z</time>
      </trkpt>
      <trkpt lat="45.49784" lon="5.00113">
        <ele>263</ele>
        <time>2019-04-15T04:55:30Z</time>
      </trkpt>
      <trkpt lat="45.49756" lon="5.00102">
        <ele>263.2</ele>
        <time>2019-04-15T04:55:34Z</time>
      </trkpt>
      <trkpt lat="45.49729" lon="5.0009">
        <ele>263.4</ele>
        <time>2019-04-15T04:55:38Z</time>
      </trkpt>
      <trkpt lat="45.49702" lon="5.00079">
        <ele>263.4</ele>
        <time>2019-04-15T04:55:42Z</time>
      </trkpt>
      <trkpt lat="45.49675" lon="5.00067">
        <ele>263.2</ele>
        <time>2019-04-15T04:55:46Z</time>
      </trkpt>
      <trkpt lat="45.49648" lon="5.00056">
        <ele>263.4</ele>
        <time>2019-04-15T04:55:50Z</time>
      </trkpt>
      <trkpt lat="45.49621" lon="5.00045">
        <ele>263.6</ele>
        <time>2019-04-15T04:55:54Z</time>
      </trkpt>
      <trkpt lat="45.49594" lon="5.00034">
        <ele>263.6</ele>
        <time>2019-04-15T04:55:58Z</time>
      </trkpt>
      <trkpt lat="45.49567" lon="5.00023">
        <ele>263.4</ele>
        <time>2019-04-15T04:56:02Z</time>
      </trkpt>
      <trkpt lat="45.4954" lon="5.00011">
        <ele>263.6</ele>
        <time>2019-04-15T04:56:06Z</time>
      </trkpt>
      <trkpt lat="45.49513" lon="5">
        <ele>263.6</ele>
        <time>2019-04-15T04:56:10Z</time>
      </trkpt>
      <trkpt lat="45.49486" lon="4.99988">
        <ele>263.2</ele>
        <time>2019-04-15T04:56:14Z</time>
      </trkpt>
      <trkpt lat="45.49458" lon="4.99975">
        <ele>263</ele>
        <time>2019-04-15T04:56:18Z</time>
      </trkpt>
      <trkpt lat="45.49431" lon="4.99956">
        <ele>262.2</ele>
        <time>2019-04-15T04:56:22Z</time>
      </trkpt>
      <trkpt lat="45.49406" lon="4.99933">
        <ele>262</ele>
        <time>2019-04-15T04:56:26Z</time>
      </trkpt>
      <trkpt lat="45.49381" lon="4.9991">
        <ele>262</ele>
        <time>2019-04-15T04:56:30Z</time>
      </trkpt>
      <trkpt lat="45.49356" lon="4.99887">
        <ele>261.6</ele>
        <time>2019-04-15T04:56:34Z</time>
      </trkpt>
      <trkpt lat="45.49332" lon="4.99864">
        <ele>261.8</ele>
        <time>2019-04-15T04:56:38Z</time>
      </trkpt>
      <trkpt lat="45.49309" lon="4.99841">
        <ele>261.6</ele>
        <time>2019-04-15T04:56:42Z</time>
      </trkpt>
      <trkpt lat="45.49286" lon="4.9982">
        <ele>262.2</ele>
        <time>2019-04-15T04:56:46Z</time>
      </trkpt>
      <trkpt lat="45.49264" lon="4.99799">
        <ele>262.4</ele>
        <time>2019-04-15T04:56:50Z</time>
      </trkpt>
      <trkpt lat="45.49243" lon="4.99779">
        <ele>263.2</ele>
        <time>2019-04-15T04:56:54Z</time>
      </trkpt>
      <trkpt lat="45.49223" lon="4.99761">
        <ele>263.8</ele>
        <time>2019-04-15T04:56:58Z</time>
      </trkpt>
      <trkpt lat="45.49204" lon="4.99748">
        <ele>264.8</ele>
        <time>2019-04-15T04:57:02Z</time>
      </trkpt>
      <trkpt lat="45.49185" lon="4.99745">
        <ele>266.4</ele>
        <time>2019-04-15T04:57:06Z</time>
      </trkpt>
      <trkpt lat="45.49167" lon="4.99748">
        <ele>268</ele>
        <time>2019-04-15T04:57:10Z</time>
      </trkpt>
      <trkpt lat="45.4915" lon="4.99748">
        <ele>269.8</ele>
        <time>2019-04-15T04:57:14Z</time>
      </trkpt>
      <trkpt lat="45.49138" lon="4.9975">
        <ele>271.2</ele>
        <time>2019-04-15T04:57:18Z</time>
      </trkpt>
      <trkpt lat="45.49122" lon="4.99754">
        <ele>272.8</ele>
        <time>2019-04-15T04:57:22Z</time>
      </trkpt>
      <trkpt lat="45.49105" lon="4.99762">
        <ele>273.4</ele>
        <time>2019-04-15T04:57:26Z</time>
      </trkpt>
      <trkpt lat="45.49088" lon="4.99762">
        <ele>275.4</ele>
        <time>2019-04-15T04:57:30Z</time>
      </trkpt>
      <trkpt lat="45.49067" lon="4.9976">
        <ele>275.4</ele>
        <time>2019-04-15T04:57:34Z</time>
      </trkpt>
      <trkpt lat="45.49047" lon="4.99758">
        <ele>276.4</ele>
        <time>2019-04-15T04:57:38Z</time>
      </trkpt>
      <trkpt lat="45.49017" lon="4.9976">
        <ele>275.8</ele>
        <time>2019-04-15T04:57:42Z</time>
      </trkpt>
      <trkpt lat="45.48992" lon="4.99766">
        <ele>274.4</ele>
        <time>2019-04-15T04:57:46Z</time>
      </trkpt>
      <trkpt lat="45.48963" lon="4.99776">
        <ele>273</ele>
        <time>2019-04-15T04:57:50Z</time>
      </trkpt>
      <trkpt lat="45.48932" lon="4.9979">
        <ele>271</ele>
        <time>2019-04-15T04:57:54Z</time>
      </trkpt>
      <trkpt lat="45.489" lon="4.99809">
        <ele>268.8</ele>
        <time>2019-04-15T04:57:58Z</time>
      </trkpt>
      <trkpt lat="45.48869" lon="4.99832">
        <ele>267.6</ele>
        <time>2019-04-15T04:58:02Z</time>
      </trkpt>
      <trkpt lat="45.48834" lon="4.99854">
        <ele>265.2</ele>
        <time>2019-04-15T04:58:06Z</time>
      </trkpt>
      <trkpt lat="45.48796" lon="4.9987">
        <ele>263.2</ele>
        <time>2019-04-15T04:58:10Z</time>
      </trkpt>
      <trkpt lat="45.4876" lon="4.99885">
        <ele>262.6</ele>
        <time>2019-04-15T04:58:14Z</time>
      </trkpt>
      <trkpt lat="45.48725" lon="4.99897">
        <ele>261.6</ele>
        <time>2019-04-15T04:58:18Z</time>
      </trkpt>
      <trkpt lat="45.48692" lon="4.99906">
        <ele>261.8</ele>
        <time>2019-04-15T04:58:22Z</time>
      </trkpt>
      <trkpt lat="45.48661" lon="4.99915">
        <ele>261.4</ele>
        <time>2019-04-15T04:58:26Z</time>
      </trkpt>
      <trkpt lat="45.48632" lon="4.99923">
        <ele>261.8</ele>
        <time>2019-04-15T04:58:30Z</time>
      </trkpt>
      <trkpt lat="45.48605" lon="4.9993">
        <ele>262.2</ele>
        <time>2019-04-15T04:58:34Z</time>
      </trkpt>
      <trkpt lat="45.48577" lon="4.99937">
        <ele>261.2</ele>
        <time>2019-04-15T04:58:38Z</time>
      </trkpt>
      <trkpt lat="45.4855" lon="4.99944">
        <ele>263.6</ele>
        <time>2019-04-15T04:58:42Z</time>
      </trkpt>
      <trkpt lat="45.48522" lon="4.99953">
        <ele>263.4</ele>
        <time>2019-04-15T04:58:46Z</time>
      </trkpt>
      <trkpt lat="45.48494" lon="4.99962">
        <ele>262.8</ele>
        <time>2019-04-15T04:58:50Z</time>
      </trkpt>
      <trkpt lat="45.48465" lon="4.99971">
        <ele>263.6</ele>
        <time>2019-04-15T04:58:54Z</time>
      </trkpt>
      <trkpt lat="45.48436" lon="4.9998">
        <ele>263</ele>
        <time>2019-04-15T04:58:58Z</time>
      </trkpt>
      <trkpt lat="45.48408" lon="4.99989">
        <ele>263.2</ele>
        <time>2019-04-15T04:59:02Z</time>
      </trkpt>
      <trkpt lat="45.4838" lon="4.99998">
        <ele>263.6</ele>
        <time>2019-04-15T04:59:06Z</time>
      </trkpt>
      <trkpt lat="45.48352" lon="5.00008">
        <ele>263.6</ele>
        <time>2019-04-15T04:59:10Z</time>
      </trkpt>
      <trkpt lat="45.48325" lon="5.00017">
        <ele>263.6</ele>
        <time>2019-04-15T04:59:14Z</time>
      </trkpt>
      <trkpt lat="45.48299" lon="5.00026">
        <ele>264.2</ele>
        <time>2019-04-15T04:59:18Z</time>
      </trkpt>
      <trkpt lat="45.48272" lon="5.00034">
        <ele>264.4</ele>
        <time>2019-04-15T04:59:22Z</time>
      </trkpt>
      <trkpt lat="45.48246" lon="5.00043">
        <ele>264.6</ele>
        <time>2019-04-15T04:59:26Z</time>
      </trkpt>
      <trkpt lat="45.4822" lon="5.00051">
        <ele>264.8</ele>
        <time>2019-04-15T04:59:30Z</time>
      </trkpt>
      <trkpt lat="45.48194" lon="5.0006">
        <ele>265.4</ele>
        <time>2019-04-15T04:59:34Z</time>
      </trkpt>
      <trkpt lat="45.48168" lon="5.00069">
        <ele>265.2</ele>
        <time>2019-04-15T04:59:38Z</time>
      </trkpt>
      <trkpt lat="45.48142" lon="5.00078">
        <ele>265.2</ele>
        <time>2019-04-15T04:59:42Z</time>
      </trkpt>
      <trkpt lat="45.48116" lon="5.00088">
        <ele>266</ele>
        <time>2019-04-15T04:59:46Z</time>
      </trkpt>
      <trkpt lat="45.48089" lon="5.00098">
        <ele>265.8</ele>
        <time>2019-04-15T04:59:50Z</time>
      </trkpt>
      <trkpt lat="45.48064" lon="5.00108">
        <ele>266.8</ele>
        <time>2019-04-15T04:59:54Z</time>
      </trkpt>
      <trkpt lat="45.48036" lon="5.00105">
        <ele>266</ele>
        <time>2019-04-15T04:59:58Z</time>
      </trkpt>
      <trkpt lat="45.48006" lon="5.00094">
        <ele>265</ele>
        <time>2019-04-15T05:00:02Z</time>
      </trkpt>
      <trkpt lat="45.47976" lon="5.00084">
        <ele>265</ele>
        <time>2019-04-15T05:00:06Z</time>
      </trkpt>
      <trkpt lat="45.47948" lon="5.00073">
        <ele>265.2</ele>
        <time>2019-04-15T05:00:10Z</time>
      </trkpt>
      <trkpt lat="45.4792" lon="5.00057">
        <ele>264.8</ele>
        <time>2019-04-15T05:00:14Z</time>
      </trkpt>
      <trkpt lat="45.47894" lon="5.00035">
        <ele>264</ele>
        <time>2019-04-15T05:00:18Z</time>
      </trkpt>
      <trkpt lat="45.4787" lon="5.0001">
        <ele>264</ele>
        <time>2019-04-15T05:00:22Z</time>
      </trkpt>
      <trkpt lat="45.47847" lon="4.99982">
        <ele>263.8</ele>
        <time>2019-04-15T05:00:26Z</time>
      </trkpt>
      <trkpt lat="45.47826" lon="4.99953">
        <ele>263.6</ele>
        <time>2019-04-15T05:00:30Z</time>
      </trkpt>
      <trkpt lat="45.47805" lon="4.99922">
        <ele>263.2</ele>
        <time>2019-04-15T05:00:34Z</time>
      </trkpt>
      <trkpt lat="45.47782" lon="4.99893">
        <ele>263</ele>
        <time>2019-04-15T05:00:38Z</time>
      </trkpt>
      <trkpt lat="45.47757" lon="4.99871">
        <ele>263</ele>
        <time>2019-04-15T05:00:42Z</time>
      </trkpt>
      <trkpt lat="45.47731" lon="4.99856">
        <ele>263.6</ele>
        <time>2019-04-15T05:00:46Z</time>
      </trkpt>
      <trkpt lat="45.47703" lon="4.99846">
        <ele>263</ele>
        <time>2019-04-15T05:00:50Z</time>
      </trkpt>
      <trkpt lat="45.47674" lon="4.99845">
        <ele>263.6</ele>
        <time>2019-04-15T05:00:54Z</time>
      </trkpt>
      <trkpt lat="45.47646" lon="4.99846">
        <ele>264</ele>
        <time>2019-04-15T05:00:58Z</time>
      </trkpt>
      <trkpt lat="45.47619" lon="4.99845">
        <ele>264.4</ele>
        <time>2019-04-15T05:01:02Z</time>
      </trkpt>
      <trkpt lat="45.47594" lon="4.99847">
        <ele>265.2</ele>
        <time>2019-04-15T05:01:06Z</time>
      </trkpt>
      <trkpt lat="45.4757" lon="4.99852">
        <ele>266.2</ele>
        <time>2019-04-15T05:01:10Z</time>
      </trkpt>
      <trkpt lat="45.47546" lon="4.9986">
        <ele>266.4</ele>
        <time>2019-04-15T05:01:14Z</time>
      </trkpt>
      <trkpt lat="45.47522" lon="4.9987">
        <ele>266.6</ele>
        <time>2019-04-15T05:01:18Z</time>
      </trkpt>
      <trkpt lat="45.475" lon="4.99881">
        <ele>267.6</ele>
        <time>2019-04-15T05:01:22Z</time>
      </trkpt>
      <trkpt lat="45.47477" lon="4.99892">
        <ele>267.4</ele>
        <time>2019-04-15T05:01:26Z</time>
      </trkpt>
      <trkpt lat="45.47454" lon="4.99903">
        <ele>268.2</ele>
        <time>2019-04-15T05:01:30Z</time>
      </trkpt>
      <trkpt lat="45.47432" lon="4.99914">
        <ele>268.2</ele>
        <time>2019-04-15T05:01:34Z</time>
      </trkpt>
      <trkpt lat="45.47411" lon="4.99925">
        <ele>269</ele>
        <time>2019-04-15T05:01:38Z</time>
      </trkpt>
      <trkpt lat="45.4739" lon="4.99935">
        <ele>269.8</ele>
        <time>2019-04-15T05:01:42Z</time>
      </trkpt>
      <trkpt lat="45.47371" lon="4.9994">
        <ele>270.2</ele>
        <time>2019-04-15T05:01:46Z</time>
      </trkpt>
      <trkpt lat="45.47353" lon="4.99942">
        <ele>270.8</ele>
        <time>2019-04-15T05:01:50Z</time>
      </trkpt>
      <trkpt lat="45.4734" lon="4.99959">
        <ele>271.4</ele>
        <time>2019-04-15T05:01:54Z</time>
      </trkpt>
      <trkpt lat="45.47327" lon="4.99988">
        <ele>271.4</ele>
        <time>2019-04-15T05:01:58Z</time>
      </trkpt>
      <trkpt lat="45.47319" lon="5.00012">
        <ele>272.8</ele>
        <time>2019-04-15T05:02:02Z</time>
      </trkpt>
      <trkpt lat="45.47308" lon="5.00033">
        <ele>273.2</ele>
        <time>2019-04-15T05:02:06Z</time>
      </trkpt>
      <trkpt lat="45.47288" lon="5.00046">
        <ele>275.2</ele>
        <time>2019-04-15T05:02:10Z</time>
      </trkpt>
      <trkpt lat="45.47274" lon="5.00053">
        <ele>275.8</ele>
        <time>2019-04-15T05:02:14Z</time>
      </trkpt>
      <trkpt lat="45.47261" lon="5.00057">
        <ele>277.2</ele>
        <time>2019-04-15T05:02:18Z</time>
      </trkpt>
      <trkpt lat="45.47246" lon="5.00064">
        <ele>277.8</ele>
        <time>2019-04-15T05:02:22Z</time>
      </trkpt>
      <trkpt lat="45.47232" lon="5.00071">
        <ele>278.8</ele>
        <time>2019-04-15T05:02:26Z</time>
      </trkpt>
      <trkpt lat="45.47218" lon="5.00081">
        <ele>280</ele>
        <time>2019-04-15T05:02:30Z</time>
      </trkpt>
      <trkpt lat="45.47205" lon="5.00092">
        <ele>280.2</ele>
        <time>2019-04-15T05:02:34Z</time>
      </trkpt>
      <trkpt lat="45.47193" lon="5.00105">
        <ele>282.4</ele>
        <time>2019-04-15T05:02:38Z</time>
      </trkpt>
      <trkpt lat="45.4718" lon="5.00117">
        <ele>282.8</ele>
        <time>2019-04-15T05:02:42Z</time>
      </trkpt>
      <trkpt lat="45.47167" lon="5.00129">
        <ele>284</ele>
        <time>2019-04-15T05:02:46Z</time>
      </trkpt>
      <trkpt lat="45.47154" lon="5.0014">
        <ele>285.4</ele>
        <time>2019-04-15T05:02:50Z</time>
      </trkpt>
      <trkpt lat="45.47142" lon="5.00152">
        <ele>286.2</ele>
        <time>2019-04-15T05:02:54Z</time>
      </trkpt>
      <trkpt lat="45.47129" lon="5.00164">
        <ele>287.4</ele>
        <time>2019-04-15T05:02:58Z</time>
      </trkpt>
      <trkpt lat="45.47117" lon="5.00176">
        <ele>288.6</ele>
        <time>2019-04-15T05:03:02Z</time>
      </trkpt>
      <trkpt lat="45.47105" lon="5.00188">
        <ele>290</ele>
        <time>2019-04-15T05:03:06Z</time>
      </trkpt>
      <trkpt lat="45.47093" lon="5.00202">
        <ele>291.4</ele>
        <time>2019-04-15T05:03:10Z</time>
      </trkpt>
      <trkpt lat="45.47082" lon="5.00217">
        <ele>292.4</ele>
        <time>2019-04-15T05:03:14Z</time>
      </trkpt>
      <trkpt lat="45.47072" lon="5.00233">
        <ele>293.8</ele>
        <time>2019-04-15T05:03:18Z</time>
      </trkpt>
      <trkpt lat="45.47062" lon="5.00248">
        <ele>295.6</ele>
        <time>2019-04-15T05:03:22Z</time>
      </trkpt>
      <trkpt lat="45.47048" lon="5.00256">
        <ele>296.2</ele>
        <time>2019-04-15T05:03:26Z</time>
      </trkpt>
      <trkpt lat="45.47035" lon="5.00248">
        <ele>297.2</ele>
        <time>2019-04-15T05:03:30Z</time>
      </trkpt>
      <trkpt lat="45.4703" lon="5.0023">
        <ele>298.2</ele>
        <time>2019-04-15T05:03:34Z</time>
      </trkpt>
      <trkpt lat="45.47033" lon="5.00208">
        <ele>299.8</ele>
        <time>2019-04-15T05:03:38Z</time>
      </trkpt>
      <trkpt lat="45.47037" lon="5.00189">
        <ele>299.8</ele>
        <time>2019-04-15T05:03:42Z</time>
      </trkpt>
      <trkpt lat="45.47044" lon="5.00169">
        <ele>301.4</ele>
        <time>2019-04-15T05:03:46Z</time>
      </trkpt>
      <trkpt lat="45.47051" lon="5.00149">
        <ele>302.4</ele>
        <time>2019-04-15T05:03:50Z</time>
      </trkpt>
      <trkpt lat="45.47055" lon="5.00129">
        <ele>303.2</ele>
        <time>2019-04-15T05:03:54Z</time>
      </trkpt>
      <trkpt lat="45.47059" lon="5.00105">
        <ele>304.2</ele>
        <time>2019-04-15T05:03:58Z</time>
      </trkpt>
      <trkpt lat="45.47063" lon="5.00082">
        <ele>305.6</ele>
        <time>2019-04-15T05:04:02Z</time>
      </trkpt>
      <trkpt lat="45.47065" lon="5.0006">
        <ele>306.4</ele>
        <time>2019-04-15T05:04:06Z</time>
      </trkpt>
      <trkpt lat="45.47069" lon="5.00039">
        <ele>308</ele>
        <time>2019-04-15T05:04:10Z</time>
      </trkpt>
      <trkpt lat="45.47073" lon="5.00017">
        <ele>309.6</ele>
        <time>2019-04-15T05:04:14Z</time>
      </trkpt>
      <trkpt lat="45.47075" lon="4.99996">
        <ele>310.8</ele>
        <time>2019-04-15T05:04:18Z</time>
      </trkpt>
      <trkpt lat="45.47078" lon="4.99975">
        <ele>311.8</ele>
        <time>2019-04-15T05:04:22Z</time>
      </trkpt>
      <trkpt lat="45.47081" lon="4.99953">
        <ele>313.4</ele>
        <time>2019-04-15T05:04:26Z</time>
      </trkpt>
      <trkpt lat="45.47081" lon="4.99933">
        <ele>314.2</ele>
        <time>2019-04-15T05:04:30Z</time>
      </trkpt>
      <trkpt lat="45.47079" lon="4.99912">
        <ele>314.8</ele>
        <time>2019-04-15T05:04:34Z</time>
      </trkpt>
      <trkpt lat="45.47073" lon="4.99893">
        <ele>316</ele>
        <time>2019-04-15T05:04:38Z</time>
      </trkpt>
      <trkpt lat="45.47064" lon="4.99877">
        <ele>318</ele>
        <time>2019-04-15T05:04:42Z</time>
      </trkpt>
      <trkpt lat="45.47053" lon="4.99863">
        <ele>318.8</ele>
        <time>2019-04-15T05:04:46Z</time>
      </trkpt>
      <trkpt lat="45.47041" lon="4.99854">
        <ele>320.2</ele>
        <time>2019-04-15T05:04:50Z</time>
      </trkpt>
      <trkpt lat="45.47028" lon="4.99848">
        <ele>321</ele>
        <time>2019-04-15T05:04:54Z</time>
      </trkpt>
      <trkpt lat="45.47014" lon="4.99843">
        <ele>322.2</ele>
        <time>2019-04-15T05:04:58Z</time>
      </trkpt>
      <trkpt lat="45.47" lon="4.99837">
        <ele>323.6</ele>
        <time>2019-04-15T05:05:02Z</time>
      </trkpt>
      <trkpt lat="45.46987" lon="4.99833">
        <ele>324</ele>
        <time>2019-04-15T05:05:06Z</time>
      </trkpt>
      <trkpt lat="45.46974" lon="4.99829">
        <ele>325.6</ele>
        <time>2019-04-15T05:05:10Z</time>
      </trkpt>
      <trkpt lat="45.46962" lon="4.99824">
        <ele>326.6</ele>
        <time>2019-04-15T05:05:14Z</time>
      </trkpt>
      <trkpt lat="45.4695" lon="4.9982">
        <ele>327.8</ele>
        <time>2019-04-15T05:05:18Z</time>
      </trkpt>
      <trkpt lat="45.46934" lon="4.99812">
        <ele>328.4</ele>
        <time>2019-04-15T05:05:22Z</time>
      </trkpt>
      <trkpt lat="45.46921" lon="4.99809">
        <ele>329.8</ele>
        <time>2019-04-15T05:05:26Z</time>
      </trkpt>
      <trkpt lat="45.46904" lon="4.99805">
        <ele>330.8</ele>
        <time>2019-04-15T05:05:30Z</time>
      </trkpt>
      <trkpt lat="45.4689" lon="4.99802">
        <ele>332</ele>
        <time>2019-04-15T05:05:34Z</time>
      </trkpt>
      <trkpt lat="45.46873" lon="4.99803">
        <ele>333</ele>
        <time>2019-04-15T05:05:38Z</time>
      </trkpt>
      <trkpt lat="45.46857" lon="4.99807">
        <ele>334</ele>
        <time>2019-04-15T05:05:42Z</time>
      </trkpt>
      <trkpt lat="45.4684" lon="4.99814">
        <ele>335.2</ele>
        <time>2019-04-15T05:05:46Z</time>
      </trkpt>
      <trkpt lat="45.46827" lon="4.99821">
        <ele>336.8</ele>
        <time>2019-04-15T05:05:50Z</time>
      </trkpt>
      <trkpt lat="45.46815" lon="4.99831">
        <ele>337.6</ele>
        <time>2019-04-15T05:05:54Z</time>
      </trkpt>
      <trkpt lat="45.46801" lon="4.99842">
        <ele>338.8</ele>
        <time>2019-04-15T05:05:58Z</time>
      </trkpt>
      <trkpt lat="45.46788" lon="4.99853">
        <ele>339.6</ele>
        <time>2019-04-15T05:06:02Z</time>
      </trkpt>
      <trkpt lat="45.46777" lon="4.99865">
        <ele>341</ele>
        <time>2019-04-15T05:06:06Z</time>
      </trkpt>
      <trkpt lat="45.46766" lon="4.99882">
        <ele>341.8</ele>
        <time>2019-04-15T05:06:10Z</time>
      </trkpt>
      <trkpt lat="45.46759" lon="4.99902">
        <ele>343.4</ele>
        <time>2019-04-15T05:06:14Z</time>
      </trkpt>
      <trkpt lat="45.46757" lon="4.99924">
        <ele>345.2</ele>
        <time>2019-04-15T05:06:18Z</time>
      </trkpt>
      <trkpt lat="45.46759" lon="4.99945">
        <ele>346</ele>
        <time>2019-04-15T05:06:22Z</time>
      </trkpt>
      <trkpt lat="45.46761" lon="4.99966">
        <ele>347</ele>
        <time>2019-04-15T05:06:26Z</time>
      </trkpt>
      <trkpt lat="45.46764" lon="4.99988">
        <ele>348.4</ele>
        <time>2019-04-15T05:06:30Z</time>
      </trkpt>
      <trkpt lat="45.46766" lon="5.00009">
        <ele>349.8</ele>
        <time>2019-04-15T05:06:34Z</time>
      </trkpt>
      <trkpt lat="45.46769" lon="5.0003">
        <ele>351</ele>
        <time>2019-04-15T05:06:38Z</time>
      </trkpt>
      <trkpt lat="45.4677" lon="5.00051">
        <ele>351.6</ele>
        <time>2019-04-15T05:06:42Z</time>
      </trkpt>
      <trkpt lat="45.46767" lon="5.00073">
        <ele>352.6</ele>
        <time>2019-04-15T05:06:46Z</time>
      </trkpt>
      <trkpt lat="45.46759" lon="5.00091">
        <ele>353.6</ele>
        <time>2019-04-15T05:06:50Z</time>
      </trkpt>
      <trkpt lat="45.46747" lon="5.00103">
        <ele>355.4</ele>
        <time>2019-04-15T05:06:54Z</time>
      </trkpt>
      <trkpt lat="45.46736" lon="5.00108">
        <ele>356.8</ele>
        <time>2019-04-15T05:06:58Z</time>
      </trkpt>
      <trkpt lat="45.46723" lon="5.0011">
        <ele>358.4</ele>
        <time>2019-04-15T05:07:02Z</time>
      </trkpt>
      <trkpt lat="45.46709" lon="5.00114">
        <ele>359.4</ele>
        <time>2019-04-15T05:07:06Z</time>
      </trkpt>
      <trkpt lat="45.46695" lon="5.00122">
        <ele>360.4</ele>
        <time>2019-04-15T05:07:10Z</time>
      </trkpt>
      <trkpt lat="45.46685" lon="5.00135">
        <ele>362.4</ele>
        <time>2019-04-15T05:07:14Z</time>
      </trkpt>
      <trkpt lat="45.46679" lon="5.0015">
        <ele>363</ele>
        <time>2019-04-15T05:07:18Z</time>
      </trkpt>
      <trkpt lat="45.46676" lon="5.00168">
        <ele>364.6</ele>
        <time>2019-04-15T05:07:22Z</time>
      </trkpt>
      <trkpt lat="45.46672" lon="5.00183">
        <ele>365.6</ele>
        <time>2019-04-15T05:07:26Z</time>
      </trkpt>
      <trkpt lat="45.46668" lon="5.002">
        <ele>367</ele>
        <time>2019-04-15T05:07:30Z</time>
      </trkpt>
      <trkpt lat="45.46663" lon="5.00213">
        <ele>368.2</ele>
        <time>2019-04-15T05:07:34Z</time>
      </trkpt>
      <trkpt lat="45.46657" lon="5.0023">
        <ele>369.4</ele>
        <time>2019-04-15T05:07:38Z</time>
      </trkpt>
      <trkpt lat="45.46645" lon="5.0025">
        <ele>370.6</ele>
        <time>2019-04-15T05:07:42Z</time>
      </trkpt>
      <trkpt lat="45.46637" lon="5.00266">
        <ele>371.6</ele>
        <time>2019-04-15T05:07:46Z</time>
      </trkpt>
      <trkpt lat="45.46628" lon="5.0028">
        <ele>372.6</ele>
        <time>2019-04-15T05:07:50Z</time>
      </trkpt>
      <trkpt lat="45.46613" lon="5.00291">
        <ele>373.6</ele>
        <time>2019-04-15T05:07:54Z</time>
      </trkpt>
      <trkpt lat="45.46599" lon="5.00295">
        <ele>375.4</ele>
        <time>2019-04-15T05:07:58Z</time>
      </trkpt>
      <trkpt lat="45.46584" lon="5.00296">
        <ele>376.4</ele>
        <time>2019-04-15T05:08:02Z</time>
      </trkpt>
      <trkpt lat="45.46571" lon="5.00291">
        <ele>377.6</ele>
        <time>2019-04-15T05:08:06Z</time>
      </trkpt>
      <trkpt lat="45.46557" lon="5.00284">
        <ele>379</ele>
        <time>2019-04-15T05:08:10Z</time>
      </trkpt>
      <trkpt lat="45.46545" lon="5.00275">
        <ele>380</ele>
        <time>2019-04-15T05:08:14Z</time>
      </trkpt>
      <trkpt lat="45.46533" lon="5.00268">
        <ele>381.2</ele>
        <time>2019-04-15T05:08:18Z</time>
      </trkpt>
      <trkpt lat="45.46524" lon="5.00262">
        <ele>382.8</ele>
        <time>2019-04-15T05:08:22Z</time>
      </trkpt>
      <trkpt lat="45.46512" lon="5.00257">
        <ele>384</ele>
        <time>2019-04-15T05:08:26Z</time>
      </trkpt>
      <trkpt lat="45.46502" lon="5.00251">
        <ele>384.6</ele>
        <time>2019-04-15T05:08:30Z</time>
      </trkpt>
      <trkpt lat="45.46494" lon="5.00245">
        <ele>386.2</ele>
        <time>2019-04-15T05:08:34Z</time>
      </trkpt>
      <trkpt lat="45.4648" lon="5.00239">
        <ele>387</ele>
        <time>2019-04-15T05:08:38Z</time>
      </trkpt>
      <trkpt lat="45.46467" lon="5.00229">
        <ele>388</ele>
        <time>2019-04-15T05:08:42Z</time>
      </trkpt>
      <trkpt lat="45.46456" lon="5.00222">
        <ele>389</ele>
        <time>2019-04-15T05:08:46Z</time>
      </trkpt>
      <trkpt lat="45.46445" lon="5.00215">
        <ele>391</ele>
        <time>2019-04-15T05:08:50Z</time>
      </trkpt>
      <trkpt lat="45.46431" lon="5.00208">
        <ele>391.8</ele>
        <time>2019-04-15T05:08:54Z</time>
      </trkpt>
      <trkpt lat="45.46418" lon="5.00202">
        <ele>393.6</ele>
        <time>2019-04-15T05:08:58Z</time>
      </trkpt>
      <trkpt lat="45.46406" lon="5.00193">
        <ele>394.4</ele>
        <time>2019-04-15T05:09:02Z</time>
      </trkpt>
      <trkpt lat="45.46396" lon="5.0018">
        <ele>395.2</ele>
        <time>2019-04-15T05:09:06Z</time>
      </trkpt>
      <trkpt lat="45.46384" lon="5.00172">
        <ele>396.4</ele>
        <time>2019-04-15T05:09:10Z</time>
      </trkpt>
      <trkpt lat="45.46371" lon="5.00165">
        <ele>397.2</ele>
        <time>2019-04-15T05:09:14Z</time>
      </trkpt>
      <trkpt lat="45.46357" lon="5.00162">
        <ele>398.2</ele>
        <time>2019-04-15T05:09:18Z</time>
      </trkpt>
      <trkpt lat="45.46344" lon="5.00158">
        <ele>399</ele>
        <time>2019-04-15T05:09:22Z</time>
      </trkpt>
      <trkpt lat="45.46331" lon="5.00156">
        <ele>400</ele>
        <time>2019-04-15T05:09:26Z</time>
      </trkpt>
      <trkpt lat="45.46319" lon="5.00153">
        <ele>400.8</ele>
        <time>2019-04-15T05:09:30Z</time>
      </trkpt>
      <trkpt lat="45.46306" lon="5.00148">
        <ele>401.4</ele>
        <time>2019-04-15T05:09:34Z</time>
      </trkpt>
      <trkpt lat="45.46293" lon="5.0014">
        <ele>402.6</ele>
        <time>2019-04-15T05:09:38Z</time>
      </trkpt>
      <trkpt lat="45.46281" lon="5.00132">
        <ele>404.2</ele>
        <time>2019-04-15T05:09:42Z</time>
      </trkpt>
      <trkpt lat="45.46269" lon="5.00125">
        <ele>405.8</ele>
        <time>2019-04-15T05:09:46Z</time>
      </trkpt>
      <trkpt lat="45.46258" lon="5.00116">
        <ele>407.2</ele>
        <time>2019-04-15T05:09:50Z</time>
      </trkpt>
      <trkpt lat="45.46246" lon="5.00111">
        <ele>408.4</ele>
        <time>2019-04-15T05:09:54Z</time>
      </trkpt>
      <trkpt lat="45.46234" lon="5.00103">
        <ele>409.2</ele>
        <time>2019-04-15T05:09:58Z</time>
      </trkpt>
      <trkpt lat="45.46219" lon="5.00098">
        <ele>410.4</ele>
        <time>2019-04-15T05:10:02Z</time>
      </trkpt>
      <trkpt lat="45.46206" lon="5.00093">
        <ele>411</ele>
        <time>2019-04-15T05:10:06Z</time>
      </trkpt>
      <trkpt lat="45.46194" lon="5.00089">
        <ele>412</ele>
        <time>2019-04-15T05:10:10Z</time>
      </trkpt>
      <trkpt lat="45.46181" lon="5.00082">
        <ele>413</ele>
        <time>2019-04-15T05:10:14Z</time>
      </trkpt>
      <trkpt lat="45.46168" lon="5.00077">
        <ele>414</ele>
        <time>2019-04-15T05:10:18Z</time>
      </trkpt>
      <trkpt lat="45.46156" lon="5.00072">
        <ele>415.2</ele>
        <time>2019-04-15T05:10:22Z</time>
      </trkpt>
      <trkpt lat="45.46142" lon="5.00064">
        <ele>416.2</ele>
        <time>2019-04-15T05:10:26Z</time>
      </trkpt>
      <trkpt lat="45.46129" lon="5.00055">
        <ele>417</ele>
        <time>2019-04-15T05:10:30Z</time>
      </trkpt>
      <trkpt lat="45.46116" lon="5.00047">
        <ele>418.4</ele>
        <time>2019-04-15T05:10:34Z</time>
      </trkpt>
      <trkpt lat="45.46104" lon="5.0004">
        <ele>419.4</ele>
        <time>2019-04-15T05:10:38Z</time>
      </trkpt>
      <trkpt lat="45.46092" lon="5.00032">
        <ele>420.2</ele>
        <time>2019-04-15T05:10:42Z</time>
      </trkpt>
      <trkpt lat="45.4608" lon="5.00024">
        <ele>421.6</ele>
        <time>2019-04-15T05:10:46Z</time>
      </trkpt>
      <trkpt lat="45.46068" lon="5.00015">
        <ele>422.8</ele>
        <time>2019-04-15T05:10:50Z</time>
      </trkpt>
      <trkpt lat="45.46056" lon="5.00006">
        <ele>423.4</ele>
        <time>2019-04-15T05:10:54Z</time>
      </trkpt>
      <trkpt lat="45.46045" lon="4.99996">
        <ele>424.4</ele>
        <time>2019-04-15T05:10:58Z</time>
      </trkpt>
      <trkpt lat="45.46033" lon="4.99986">
        <ele>425.2</ele>
        <time>2019-04-15T05:11:02Z</time>
      </trkpt>
      <trkpt lat="45.46023" lon="4.99976">
        <ele>426</ele>
        <time>2019-04-15T05:11:06Z</time>
      </trkpt>
      <trkpt lat="45.4601" lon="4.99968">
        <ele>427.2</ele>
        <time>2019-04-15T05:11:10Z</time>
      </trkpt>
      <trkpt lat="45.45998" lon="4.99961">
        <ele>428.6</ele>
        <time>2019-04-15T05:11:14Z</time>
      </trkpt>
      <trkpt lat="45.45984" lon="4.99956">
        <ele>429.8</ele>
        <time>2019-04-15T05:11:18Z</time>
      </trkpt>
      <trkpt lat="45.4597" lon="4.99953">
        <ele>431</ele>
        <time>2019-04-15T05:11:22Z</time>
      </trkpt>
      <trkpt lat="45.45957" lon="4.99951">
        <ele>432</ele>
        <time>2019-04-15T05:11:26Z</time>
      </trkpt>
      <trkpt lat="45.45944" lon="4.9995">
        <ele>433</ele>
        <time>2019-04-15T05:11:30Z</time>
      </trkpt>
      <trkpt lat="45.4593" lon="4.99953">
        <ele>434</ele>
        <time>2019-04-15T05:11:34Z</time>
      </trkpt>
      <trkpt lat="45.45917" lon="4.99956">
        <ele>434.6</ele>
        <time>2019-04-15T05:11:38Z</time>
      </trkpt>
      <trkpt lat="45.45903" lon="4.99959">
        <ele>435.4</ele>
        <time>2019-04-15T05:11:42Z</time>
      </trkpt>
      <trkpt lat="45.45888" lon="4.99962">
        <ele>436.6</ele>
        <time>2019-04-15T05:11:46Z</time>
      </trkpt>
      <trkpt lat="45.45874" lon="4.99966">
        <ele>438.2</ele>
        <time>2019-04-15T05:11:50Z</time>
      </trkpt>
      <trkpt lat="45.45859" lon="4.99966">
        <ele>439.2</ele>
        <time>2019-04-15T05:11:54Z</time>
      </trkpt>
      <trkpt lat="45.45845" lon="4.99963">
        <ele>440.6</ele>
        <time>2019-04-15T05:11:58Z</time>
      </trkpt>
      <trkpt lat="45.45831" lon="4.99959">
        <ele>441.2</ele>
        <time>2019-04-15T05:12:02Z</time>
      </trkpt>
      <trkpt lat="45.45818" lon="4.99951">
        <ele>442.2</ele>
        <time>2019-04-15T05:12:06Z</time>
      </trkpt>
      <trkpt lat="45.45805" lon="4.9994">
        <ele>442.8</ele>
        <time>2019-04-15T05:12:10Z</time>
      </trkpt>
      <trkpt lat="45.45792" lon="4.99927">
        <ele>443.6</ele>
        <time>2019-04-15T05:12:14Z</time>
      </trkpt>
      <trkpt lat="45.4578" lon="4.99913">
        <ele>444</ele>
        <time>2019-04-15T05:12:18Z</time>
      </trkpt>
      <trkpt lat="45.45769" lon="4.99896">
        <ele>444.8</ele>
        <time>2019-04-15T05:12:22Z</time>
      </trkpt>
      <trkpt lat="45.45758" lon="4.99881">
        <ele>445.4</ele>
        <time>2019-04-15T05:12:26Z</time>
      </trkpt>
      <trkpt lat="45.45746" lon="4.99866">
        <ele>445.8</ele>
        <time>2019-04-15T05:12:30Z</time>
      </trkpt>
      <trkpt lat="45.45734" lon="4.99852">
        <ele>446.6</ele>
        <time>2019-04-15T05:12:34Z</time>
      </trkpt>
      <trkpt lat="45.45721" lon="4.99838">
        <ele>447</ele>
        <time>2019-04-15T05:12:38Z</time>
      </trkpt>
      <trkpt lat="45.45706" lon="4.99825">
        <ele>447</ele>
        <time>2019-04-15T05:12:42Z</time>
      </trkpt>
      <trkpt lat="45.4569" lon="4.99812">
        <ele>446.4</ele>
        <time>2019-04-15T05:12:46Z</time>
      </trkpt>
      <trkpt lat="45.45673" lon="4.99797">
        <ele>446.6</ele>
        <time>2019-04-15T05:12:50Z</time>
      </trkpt>
      <trkpt lat="45.45654" lon="4.9978">
        <ele>445.6</ele>
        <time>2019-04-15T05:12:54Z</time>
      </trkpt>
      <trkpt lat="45.45632" lon="4.9976">
        <ele>444.4</ele>
        <time>2019-04-15T05:12:58Z</time>
      </trkpt>
      <trkpt lat="45.45608" lon="4.99738">
        <ele>443.2</ele>
        <time>2019-04-15T05:13:02Z</time>
      </trkpt>
      <trkpt lat="45.45582" lon="4.99714">
        <ele>441.2</ele>
        <time>2019-04-15T05:13:06Z</time>
      </trkpt>
      <trkpt lat="45.45555" lon="4.99684">
        <ele>438.6</ele>
        <time>2019-04-15T05:13:10Z</time>
      </trkpt>
      <trkpt lat="45.45522" lon="4.99656">
        <ele>434</ele>
        <time>2019-04-15T05:13:14Z</time>
      </trkpt>
      <trkpt lat="45.45495" lon="4.99634">
        <ele>431.8</ele>
        <time>2019-04-15T05:13:18Z</time>
      </trkpt>
      <trkpt lat="45.45479" lon="4.99622">
        <ele>430.4</ele>
        <time>2019-04-15T05:13:22Z</time>
      </trkpt>
      <trkpt lat="45.45472" lon="4.99616">
        <ele>430.2</ele>
        <time>2019-04-15T05:13:26Z</time>
      </trkpt>
      <trkpt lat="45.45472" lon="4.99616">
        <ele>430.2</ele>
        <time>2019-04-15T05:13:30Z</time>
      </trkpt>
      <trkpt lat="45.45472" lon="4.99616">
        <ele>430.2</ele>
        <time>2019-04-15T05:13:34Z</time>
      </trkpt>
      <trkpt lat="45.4547" lon="4.99612">
        <ele>430.4</ele>
        <time>2019-04-15T05:13:38Z</time>
      </trkpt>
      <trkpt lat="45.45461" lon="4.99606">
        <ele>429.6</ele>
        <time>2019-04-15T05:13:42Z</time>
      </trkpt>
      <trkpt lat="45.45443" lon="4.99598">
        <ele>429.6</ele>
        <time>2019-04-15T05:13:46Z</time>
      </trkpt>
      <trkpt lat="45.45416" lon="4.99585">
        <ele>428</ele>
        <time>2019-04-15T05:13:50Z</time>
      </trkpt>
      <trkpt lat="45.45384" lon="4.99572">
        <ele>426.2</ele>
        <time>2019-04-15T05:13:54Z</time>
      </trkpt>
      <trkpt lat="45.45349" lon="4.99564">
        <ele>424.8</ele>
        <time>2019-04-15T05:13:58Z</time>
      </trkpt>
      <trkpt lat="45.45311" lon="4.99559">
        <ele>422.4</ele>
        <time>2019-04-15T05:14:02Z</time>
      </trkpt>
      <trkpt lat="45.45271" lon="4.99554">
        <ele>420.2</ele>
        <time>2019-04-15T05:14:06Z</time>
      </trkpt>
      <trkpt lat="45.45229" lon="4.99549">
        <ele>417.2</ele>
        <time>2019-04-15T05:14:10Z</time>
      </trkpt>
      <trkpt lat="45.45188" lon="4.99543">
        <ele>415.2</ele>
        <time>2019-04-15T05:14:14Z</time>
      </trkpt>
      <trkpt lat="45.45139" lon="4.99531">
        <ele>412.4</ele>
        <time>2019-04-15T05:14:18Z</time>
      </trkpt>
      <trkpt lat="45.45094" lon="4.99514">
        <ele>410.2</ele>
        <time>2019-04-15T05:14:22Z</time>
      </trkpt>
      <trkpt lat="45.4505" lon="4.99494">
        <ele>407.4</ele>
        <time>2019-04-15T05:14:26Z</time>
      </trkpt>
      <trkpt lat="45.45007" lon="4.99467">
        <ele>405</ele>
        <time>2019-04-15T05:14:30Z</time>
      </trkpt>
      <trkpt lat="45.44964" lon="4.99441">
        <ele>402.2</ele>
        <time>2019-04-15T05:14:34Z</time>
      </trkpt>
      <trkpt lat="45.4492" lon="4.99415">
        <ele>399.6</ele>
        <time>2019-04-15T05:14:38Z</time>
      </trkpt>
      <trkpt lat="45.44876" lon="4.9939">
        <ele>396.4</ele>
        <time>2019-04-15T05:14:42Z</time>
      </trkpt>
      <trkpt lat="45.44832" lon="4.99366">
        <ele>393.8</ele>
        <time>2019-04-15T05:14:46Z</time>
      </trkpt>
      <trkpt lat="45.44788" lon="4.99345">
        <ele>391.6</ele>
        <time>2019-04-15T05:14:50Z</time>
      </trkpt>
      <trkpt lat="45.44741" lon="4.99333">
        <ele>389.2</ele>
        <time>2019-04-15T05:14:54Z</time>
      </trkpt>
      <trkpt lat="45.44694" lon="4.99332">
        <ele>386</ele>
        <time>2019-04-15T05:14:58Z</time>
      </trkpt>
      <trkpt lat="45.44648" lon="4.9935">
        <ele>383.4</ele>
        <time>2019-04-15T05:15:02Z</time>
      </trkpt>
      <trkpt lat="45.44604" lon="4.9938">
        <ele>380.4</ele>
        <time>2019-04-15T05:15:06Z</time>
      </trkpt>
      <trkpt lat="45.44562" lon="4.9941">
        <ele>377</ele>
        <time>2019-04-15T05:15:10Z</time>
      </trkpt>
      <trkpt lat="45.44526" lon="4.99449">
        <ele>374.4</ele>
        <time>2019-04-15T05:15:14Z</time>
      </trkpt>
      <trkpt lat="45.44509" lon="4.99507">
        <ele>371.8</ele>
        <time>2019-04-15T05:15:18Z</time>
      </trkpt>
      <trkpt lat="45.44499" lon="4.99571">
        <ele>369.4</ele>
        <time>2019-04-15T05:15:22Z</time>
      </trkpt>
      <trkpt lat="45.44491" lon="4.99636">
        <ele>366</ele>
        <time>2019-04-15T05:15:26Z</time>
      </trkpt>
      <trkpt lat="45.44477" lon="4.997">
        <ele>363.2</ele>
        <time>2019-04-15T05:15:30Z</time>
      </trkpt>
      <trkpt lat="45.44462" lon="4.99761">
        <ele>360.4</ele>
        <time>2019-04-15T05:15:34Z</time>
      </trkpt>
      <trkpt lat="45.4445" lon="4.99823">
        <ele>358.6</ele>
        <time>2019-04-15T05:15:38Z</time>
      </trkpt>
      <trkpt lat="45.4444" lon="4.99886">
        <ele>356.8</ele>
        <time>2019-04-15T05:15:42Z</time>
      </trkpt>
      <trkpt lat="45.44429" lon="4.99947">
        <ele>354.2</ele>
        <time>2019-04-15T05:15:46Z</time>
      </trkpt>
      <trkpt lat="45.44407" lon="4.9999">
        <ele>351.8</ele>
        <time>2019-04-15T05:15:50Z</time>
      </trkpt>
      <trkpt lat="45.44382" lon="5.00007">
        <ele>348.6</ele>
        <time>2019-04-15T05:15:54Z</time>
      </trkpt>
      <trkpt lat="45.44377" lon="5.00045">
        <ele>347</ele>
        <time>2019-04-15T05:15:58Z</time>
      </trkpt>
      <trkpt lat="45.4436" lon="5.00079">
        <ele>346</ele>
        <time>2019-04-15T05:16:02Z</time>
      </trkpt>
      <trkpt lat="45.44336" lon="5.00113">
        <ele>344.4</ele>
        <time>2019-04-15T05:16:06Z</time>
      </trkpt>
      <trkpt lat="45.44313" lon="5.00145">
        <ele>343.8</ele>
        <time>2019-04-15T05:16:10Z</time>
      </trkpt>
      <trkpt lat="45.4429" lon="5.00176">
        <ele>343.4</ele>
        <time>2019-04-15T05:16:14Z</time>
      </trkpt>
      <trkpt lat="45.44269" lon="5.00206">
        <ele>343.8</ele>
        <time>2019-04-15T05:16:18Z</time>
      </trkpt>
      <trkpt lat="45.44249" lon="5.00234">
        <ele>344.2</ele>
        <time>2019-04-15T05:16:22Z</time>
      </trkpt>
      <trkpt lat="45.44228" lon="5.00261">
        <ele>344</ele>
        <time>2019-04-15T05:16:26Z</time>
      </trkpt>
      <trkpt lat="45.44209" lon="5.00289">
        <ele>343.2</ele>
        <time>2019-04-15T05:16:30Z</time>
      </trkpt>
      <trkpt lat="45.44191" lon="5.00313">
        <ele>343.8</ele>
        <time>2019-04-15T05:16:34Z</time>
      </trkpt>
      <trkpt lat="45.44174" lon="5.00336">
        <ele>344.6</ele>
        <time>2019-04-15T05:16:38Z</time>
      </trkpt>
      <trkpt lat="45.44158" lon="5.00357">
        <ele>346.2</ele>
        <time>2019-04-15T05:16:42Z</time>
      </trkpt>
      <trkpt lat="45.44144" lon="5.00378">
        <ele>347.4</ele>
        <time>2019-04-15T05:16:46Z</time>
      </trkpt>
      <trkpt lat="45.44129" lon="5.004">
        <ele>347.4</ele>
        <time>2019-04-15T05:16:50Z</time>
      </trkpt>
      <trkpt lat="45.44112" lon="5.00418">
        <ele>348.6</ele>
        <time>2019-04-15T05:16:54Z</time>
      </trkpt>
      <trkpt lat="45.44097" lon="5.0043">
        <ele>349.8</ele>
        <time>2019-04-15T05:16:58Z</time>
      </trkpt>
      <trkpt lat="45.44085" lon="5.00438">
        <ele>350</ele>
        <time>2019-04-15T05:17:02Z</time>
      </trkpt>
      <trkpt lat="45.44072" lon="5.00448">
        <ele>350.8</ele>
        <time>2019-04-15T05:17:06Z</time>
      </trkpt>
      <trkpt lat="45.44055" lon="5.00455">
        <ele>351.6</ele>
        <time>2019-04-15T05:17:10Z</time>
      </trkpt>
      <trkpt lat="45.44039" lon="5.00455">
        <ele>351.6</ele>
        <time>2019-04-15T05:17:14Z</time>
      </trkpt>
      <trkpt lat="45.4402" lon="5.00458">
        <ele>352.6</ele>
        <time>2019-04-15T05:17:18Z</time>
      </trkpt>
      <trkpt lat="45.43999" lon="5.0046">
        <ele>353.6</ele>
        <time>2019-04-15T05:17:22Z</time>
      </trkpt>
      <trkpt lat="45.43981" lon="5.00465">
        <ele>354.2</ele>
        <time>2019-04-15T05:17:26Z</time>
      </trkpt>
      <trkpt lat="45.43962" lon="5.00468">
        <ele>355.2</ele>
        <time>2019-04-15T05:17:30Z</time>
      </trkpt>
      <trkpt lat="45.43944" lon="5.00472">
        <ele>356.8</ele>
        <time>2019-04-15T05:17:34Z</time>
      </trkpt>
      <trkpt lat="45.43926" lon="5.00476">
        <ele>358</ele>
        <time>2019-04-15T05:17:38Z</time>
      </trkpt>
      <trkpt lat="45.4391" lon="5.00478">
        <ele>359</ele>
        <time>2019-04-15T05:17:42Z</time>
      </trkpt>
      <trkpt lat="45.43892" lon="5.00484">
        <ele>359.2</ele>
        <time>2019-04-15T05:17:46Z</time>
      </trkpt>
      <trkpt lat="45.43876" lon="5.00492">
        <ele>361</ele>
        <time>2019-04-15T05:17:50Z</time>
      </trkpt>
      <trkpt lat="45.4386" lon="5.00506">
        <ele>362</ele>
        <time>2019-04-15T05:17:54Z</time>
      </trkpt>
      <trkpt lat="45.43846" lon="5.00521">
        <ele>362.8</ele>
        <time>2019-04-15T05:17:58Z</time>
      </trkpt>
      <trkpt lat="45.43832" lon="5.00537">
        <ele>364.2</ele>
        <time>2019-04-15T05:18:02Z</time>
      </trkpt>
      <trkpt lat="45.43818" lon="5.00552">
        <ele>365</ele>
        <time>2019-04-15T05:18:06Z</time>
      </trkpt>
      <trkpt lat="45.43807" lon="5.00568">
        <ele>365.8</ele>
        <time>2019-04-15T05:18:10Z</time>
      </trkpt>
      <trkpt lat="45.43793" lon="5.00584">
        <ele>366.6</ele>
        <time>2019-04-15T05:18:14Z</time>
      </trkpt>
      <trkpt lat="45.43778" lon="5.00599">
        <ele>368.2</ele>
        <time>2019-04-15T05:18:18Z</time>
      </trkpt>
      <trkpt lat="45.43762" lon="5.00612">
        <ele>368.8</ele>
        <time>2019-04-15T05:18:22Z</time>
      </trkpt>
      <trkpt lat="45.43746" lon="5.00623">
        <ele>369.4</ele>
        <time>2019-04-15T05:18:26Z</time>
      </trkpt>
      <trkpt lat="45.4373" lon="5.00635">
        <ele>370.2</ele>
        <time>2019-04-15T05:18:30Z</time>
      </trkpt>
      <trkpt lat="45.43714" lon="5.00647">
        <ele>371.4</ele>
        <time>2019-04-15T05:18:34Z</time>
      </trkpt>
      <trkpt lat="45.43697" lon="5.00657">
        <ele>372.2</ele>
        <time>2019-04-15T05:18:38Z</time>
      </trkpt>
      <trkpt lat="45.43679" lon="5.00662">
        <ele>373.2</ele>
        <time>2019-04-15T05:18:42Z</time>
      </trkpt>
      <trkpt lat="45.43662" lon="5.00667">
        <ele>374.6</ele>
        <time>2019-04-15T05:18:46Z</time>
      </trkpt>
      <trkpt lat="45.43645" lon="5.00671">
        <ele>375.4</ele>
        <time>2019-04-15T05:18:50Z</time>
      </trkpt>
      <trkpt lat="45.43627" lon="5.00676">
        <ele>376.4</ele>
        <time>2019-04-15T05:18:54Z</time>
      </trkpt>
      <trkpt lat="45.4361" lon="5.00681">
        <ele>376.6</ele>
        <time>2019-04-15T05:18:58Z</time>
      </trkpt>
      <trkpt lat="45.43593" lon="5.00685">
        <ele>377.6</ele>
        <time>2019-04-15T05:19:02Z</time>
      </trkpt>
      <trkpt lat="45.43575" lon="5.00689">
        <ele>378.8</ele>
        <time>2019-04-15T05:19:06Z</time>
      </trkpt>
      <trkpt lat="45.43556" lon="5.0069">
        <ele>380</ele>
        <time>2019-04-15T05:19:10Z</time>
      </trkpt>
      <trkpt lat="45.43538" lon="5.00691">
        <ele>380</ele>
        <time>2019-04-15T05:19:14Z</time>
      </trkpt>
      <trkpt lat="45.4352" lon="5.00692">
        <ele>382.2</ele>
        <time>2019-04-15T05:19:18Z</time>
      </trkpt>
      <trkpt lat="45.43502" lon="5.00696">
        <ele>383.2</ele>
        <time>2019-04-15T05:19:22Z</time>
      </trkpt>
      <trkpt lat="45.43485" lon="5.00705">
        <ele>384.4</ele>
        <time>2019-04-15T05:19:26Z</time>
      </trkpt>
      <trkpt lat="45.4347" lon="5.00717">
        <ele>385.4</ele>
        <time>2019-04-15T05:19:30Z</time>
      </trkpt>
      <trkpt lat="45.43456" lon="5.00731">
        <ele>386.4</ele>
        <time>2019-04-15T05:19:34Z</time>
      </trkpt>
      <trkpt lat="45.43443" lon="5.00748">
        <ele>387.6</ele>
        <time>2019-04-15T05:19:38Z</time>
      </trkpt>
      <trkpt lat="45.43431" lon="5.00767">
        <ele>388.8</ele>
        <time>2019-04-15T05:19:42Z</time>
      </trkpt>
      <trkpt lat="45.43419" lon="5.00787">
        <ele>389.6</ele>
        <time>2019-04-15T05:19:46Z</time>
      </trkpt>
      <trkpt lat="45.43407" lon="5.00805">
        <ele>390.4</ele>
        <time>2019-04-15T05:19:50Z</time>
      </trkpt>
      <trkpt lat="45.43393" lon="5.00821">
        <ele>391.8</ele>
        <time>2019-04-15T05:19:54Z</time>
      </trkpt>
      <trkpt lat="45.43378" lon="5.00836">
        <ele>392.2</ele>
        <time>2019-04-15T05:19:58Z</time>
      </trkpt>
      <trkpt lat="45.43364" lon="5.00851">
        <ele>393.6</ele>
        <time>2019-04-15T05:20:02Z</time>
      </trkpt>
      <trkpt lat="45.43349" lon="5.00867">
        <ele>394.4</ele>
        <time>2019-04-15T05:20:06Z</time>
      </trkpt>
      <trkpt lat="45.43334" lon="5.00881">
        <ele>395.4</ele>
        <time>2019-04-15T05:20:10Z</time>
      </trkpt>
      <trkpt lat="45.4332" lon="5.00897">
        <ele>397.2</ele>
        <time>2019-04-15T05:20:14Z</time>
      </trkpt>
      <trkpt lat="45.43305" lon="5.00912">
        <ele>397.4</ele>
        <time>2019-04-15T05:20:18Z</time>
      </trkpt>
      <trkpt lat="45.43291" lon="5.00927">
        <ele>398</ele>
        <time>2019-04-15T05:20:22Z</time>
      </trkpt>
      <trkpt lat="45.43278" lon="5.00941">
        <ele>399.2</ele>
        <time>2019-04-15T05:20:26Z</time>
      </trkpt>
      <trkpt lat="45.43264" lon="5.00955">
        <ele>400.4</ele>
        <time>2019-04-15T05:20:30Z</time>
      </trkpt>
      <trkpt lat="45.43254" lon="5.00968">
        <ele>401.2</ele>
        <time>2019-04-15T05:20:34Z</time>
      </trkpt>
      <trkpt lat="45.43243" lon="5.00983">
        <ele>402</ele>
        <time>2019-04-15T05:20:38Z</time>
      </trkpt>
      <trkpt lat="45.43229" lon="5.01003">
        <ele>402.6</ele>
        <time>2019-04-15T05:20:42Z</time>
      </trkpt>
      <trkpt lat="45.43217" lon="5.01022">
        <ele>403.8</ele>
        <time>2019-04-15T05:20:46Z</time>
      </trkpt>
      <trkpt lat="45.43204" lon="5.01041">
        <ele>404.6</ele>
        <time>2019-04-15T05:20:50Z</time>
      </trkpt>
      <trkpt lat="45.43189" lon="5.01062">
        <ele>405.4</ele>
        <time>2019-04-15T05:20:54Z</time>
      </trkpt>
      <trkpt lat="45.43176" lon="5.0108">
        <ele>406</ele>
        <time>2019-04-15T05:20:58Z</time>
      </trkpt>
      <trkpt lat="45.4316" lon="5.01096">
        <ele>407</ele>
        <time>2019-04-15T05:21:02Z</time>
      </trkpt>
      <trkpt lat="45.43144" lon="5.01109">
        <ele>408</ele>
        <time>2019-04-15T05:21:06Z</time>
      </trkpt>
      <trkpt lat="45.43128" lon="5.01122">
        <ele>409.2</ele>
        <time>2019-04-15T05:21:10Z</time>
      </trkpt>
      <trkpt lat="45.43111" lon="5.01133">
        <ele>410.2</ele>
        <time>2019-04-15T05:21:14Z</time>
      </trkpt>
      <trkpt lat="45.43093" lon="5.01142">
        <ele>411</ele>
        <time>2019-04-15T05:21:18Z</time>
      </trkpt>
      <trkpt lat="45.43076" lon="5.01149">
        <ele>412.2</ele>
        <time>2019-04-15T05:21:22Z</time>
      </trkpt>
      <trkpt lat="45.43058" lon="5.01154">
        <ele>413</ele>
        <time>2019-04-15T05:21:26Z</time>
      </trkpt>
      <trkpt lat="45.4304" lon="5.01156">
        <ele>413.8</ele>
        <time>2019-04-15T05:21:30Z</time>
      </trkpt>
      <trkpt lat="45.43022" lon="5.01156">
        <ele>415.2</ele>
        <time>2019-04-15T05:21:34Z</time>
      </trkpt>
      <trkpt lat="45.43003" lon="5.01155">
        <ele>415.8</ele>
        <time>2019-04-15T05:21:38Z</time>
      </trkpt>
      <trkpt lat="45.42985" lon="5.01155">
        <ele>416.6</ele>
        <time>2019-04-15T05:21:42Z</time>
      </trkpt>
      <trkpt lat="45.42968" lon="5.01156">
        <ele>417.6</ele>
        <time>2019-04-15T05:21:46Z</time>
      </trkpt>
      <trkpt lat="45.4295" lon="5.0116">
        <ele>419.4</ele>
        <time>2019-04-15T05:21:50Z</time>
      </trkpt>
      <trkpt lat="45.42932" lon="5.01164">
        <ele>420.8</ele>
        <time>2019-04-15T05:21:54Z</time>
      </trkpt>
      <trkpt lat="45.42914" lon="5.01167">
        <ele>420.8</ele>
        <time>2019-04-15T05:21:58Z</time>
      </trkpt>
      <trkpt lat="45.42896" lon="5.01168">
        <ele>421.6</ele>
        <time>2019-04-15T05:22:02Z</time>
      </trkpt>
      <trkpt lat="45.42879" lon="5.01166">
        <ele>422.8</ele>
        <time>2019-04-15T05:22:06Z</time>
      </trkpt>
      <trkpt lat="45.4286" lon="5.01164">
        <ele>423.6</ele>
        <time>2019-04-15T05:22:10Z</time>
      </trkpt>
      <trkpt lat="45.42842" lon="5.01163">
        <ele>424.2</ele>
        <time>2019-04-15T05:22:14Z</time>
      </trkpt>
      <trkpt lat="45.42824" lon="5.01162">
        <ele>425.4</ele>
        <time>2019-04-15T05:22:18Z</time>
      </trkpt>
      <trkpt lat="45.42806" lon="5.0116">
        <ele>426.2</ele>
        <time>2019-04-15T05:22:22Z</time>
      </trkpt>
      <trkpt lat="45.42788" lon="5.01158">
        <ele>427.2</ele>
        <time>2019-04-15T05:22:26Z</time>
      </trkpt>
      <trkpt lat="45.4277" lon="5.01158">
        <ele>428.2</ele>
        <time>2019-04-15T05:22:30Z</time>
      </trkpt>
      <trkpt lat="45.42752" lon="5.01156">
        <ele>429.2</ele>
        <time>2019-04-15T05:22:34Z</time>
      </trkpt>
      <trkpt lat="45.42734" lon="5.01159">
        <ele>430.2</ele>
        <time>2019-04-15T05:22:38Z</time>
      </trkpt>
      <trkpt lat="45.42717" lon="5.01164">
        <ele>431</ele>
        <time>2019-04-15T05:22:42Z</time>
      </trkpt>
      <trkpt lat="45.42702" lon="5.01171">
        <ele>432.2</ele>
        <time>2019-04-15T05:22:46Z</time>
      </trkpt>
      <trkpt lat="45.42688" lon="5.0118">
        <ele>432.8</ele>
        <time>2019-04-15T05:22:50Z</time>
      </trkpt>
      <trkpt lat="45.42675" lon="5.01187">
        <ele>433.4</ele>
        <time>2019-04-15T05:22:54Z</time>
      </trkpt>
      <trkpt lat="45.42657" lon="5.01197">
        <ele>434.6</ele>
        <time>2019-04-15T05:22:58Z</time>
      </trkpt>
      <trkpt lat="45.42641" lon="5.01208">
        <ele>435.6</ele>
        <time>2019-04-15T05:23:02Z</time>
      </trkpt>
      <trkpt lat="45.42627" lon="5.0122">
        <ele>437</ele>
        <time>2019-04-15T05:23:06Z</time>
      </trkpt>
      <trkpt lat="45.42609" lon="5.01233">
        <ele>437.6</ele>
        <time>2019-04-15T05:23:10Z</time>
      </trkpt>
      <trkpt lat="45.42595" lon="5.01246">
        <ele>439</ele>
        <time>2019-04-15T05:23:14Z</time>
      </trkpt>
      <trkpt lat="45.42578" lon="5.01259">
        <ele>440</ele>
        <time>2019-04-15T05:23:18Z</time>
      </trkpt>
      <trkpt lat="45.42562" lon="5.0127">
        <ele>439.6</ele>
        <time>2019-04-15T05:23:22Z</time>
      </trkpt>
      <trkpt lat="45.42544" lon="5.01282">
        <ele>441.4</ele>
        <time>2019-04-15T05:23:26Z</time>
      </trkpt>
      <trkpt lat="45.42528" lon="5.01295">
        <ele>441.4</ele>
        <time>2019-04-15T05:23:30Z</time>
      </trkpt>
      <trkpt lat="45.42511" lon="5.01306">
        <ele>443</ele>
        <time>2019-04-15T05:23:34Z</time>
      </trkpt>
      <trkpt lat="45.42495" lon="5.01319">
        <ele>443.6</ele>
        <time>2019-04-15T05:23:38Z</time>
      </trkpt>
      <trkpt lat="45.42479" lon="5.01331">
        <ele>444.6</ele>
        <time>2019-04-15T05:23:42Z</time>
      </trkpt>
      <trkpt lat="45.42463" lon="5.01344">
        <ele>445.8</ele>
        <time>2019-04-15T05:23:46Z</time>
      </trkpt>
      <trkpt lat="45.42448" lon="5.01356">
        <ele>446.6</ele>
        <time>2019-04-15T05:23:50Z</time>
      </trkpt>
      <trkpt lat="45.42433" lon="5.01369">
        <ele>448.4</ele>
        <time>2019-04-15T05:23:54Z</time>
      </trkpt>
      <trkpt lat="45.42417" lon="5.01382">
        <ele>449.4</ele>
        <time>2019-04-15T05:23:58Z</time>
      </trkpt>
      <trkpt lat="45.42401" lon="5.01394">
        <ele>449.8</ele>
        <time>2019-04-15T05:24:02Z</time>
      </trkpt>
      <trkpt lat="45.42385" lon="5.01406">
        <ele>450.6</ele>
        <time>2019-04-15T05:24:06Z</time>
      </trkpt>
      <trkpt lat="45.4237" lon="5.01418">
        <ele>451.2</ele>
        <time>2019-04-15T05:24:10Z</time>
      </trkpt>
      <trkpt lat="45.42353" lon="5.01427">
        <ele>453</ele>
        <time>2019-04-15T05:24:14Z</time>
      </trkpt>
      <trkpt lat="45.42336" lon="5.01437">
        <ele>453.2</ele>
        <time>2019-04-15T05:24:18Z</time>
      </trkpt>
      <trkpt lat="45.42319" lon="5.01445">
        <ele>454.2</ele>
        <time>2019-04-15T05:24:22Z</time>
      </trkpt>
      <trkpt lat="45.42302" lon="5.01453">
        <ele>455.2</ele>
        <time>2019-04-15T05:24:26Z</time>
      </trkpt>
      <trkpt lat="45.42285" lon="5.01461">
        <ele>455.2</ele>
        <time>2019-04-15T05:24:30Z</time>
      </trkpt>
      <trkpt lat="45.42268" lon="5.0147">
        <ele>457</ele>
        <time>2019-04-15T05:24:34Z</time>
      </trkpt>
      <trkpt lat="45.42251" lon="5.0148">
        <ele>457.8</ele>
        <time>2019-04-15T05:24:38Z</time>
      </trkpt>
      <trkpt lat="45.42233" lon="5.01488">
        <ele>458.6</ele>
        <time>2019-04-15T05:24:42Z</time>
      </trkpt>
      <trkpt lat="45.42216" lon="5.01494">
        <ele>459.4</ele>
        <time>2019-04-15T05:24:46Z</time>
      </trkpt>
      <trkpt lat="45.42198" lon="5.01502">
        <ele>460.2</ele>
        <time>2019-04-15T05:24:50Z</time>
      </trkpt>
      <trkpt lat="45.42179" lon="5.01508">
        <ele>461.4</ele>
        <time>2019-04-15T05:24:54Z</time>
      </trkpt>
      <trkpt lat="45.42161" lon="5.01515">
        <ele>462.4</ele>
        <time>2019-04-15T05:24:58Z</time>
      </trkpt>
      <trkpt lat="45.42143" lon="5.0152">
        <ele>463.8</ele>
        <time>2019-04-15T05:25:02Z</time>
      </trkpt>
      <trkpt lat="45.42125" lon="5.01524">
        <ele>464.6</ele>
        <time>2019-04-15T05:25:06Z</time>
      </trkpt>
      <trkpt lat="45.42106" lon="5.01529">
        <ele>465.6</ele>
        <time>2019-04-15T05:25:10Z</time>
      </trkpt>
      <trkpt lat="45.42087" lon="5.01531">
        <ele>466.2</ele>
        <time>2019-04-15T05:25:14Z</time>
      </trkpt>
      <trkpt lat="45.42068" lon="5.01533">
        <ele>466.8</ele>
        <time>2019-04-15T05:25:18Z</time>
      </trkpt>
      <trkpt lat="45.4205" lon="5.01534">
        <ele>468.2</ele>
        <time>2019-04-15T05:25:22Z</time>
      </trkpt>
      <trkpt lat="45.42031" lon="5.01535">
        <ele>469.4</ele>
        <time>2019-04-15T05:25:26Z</time>
      </trkpt>
      <trkpt lat="45.42012" lon="5.01536">
        <ele>469.8</ele>
        <time>2019-04-15T05:25:30Z</time>
      </trkpt>
      <trkpt lat="45.41993" lon="5.01536">
        <ele>470.8</ele>
        <time>2019-04-15T05:25:34Z</time>
      </trkpt>
      <trkpt lat="45.41973" lon="5.01537">
        <ele>471</ele>
        <time>2019-04-15T05:25:38Z</time>
      </trkpt>
      <trkpt lat="45.41954" lon="5.01538">
        <ele>471.8</ele>
        <time>2019-04-15T05:25:42Z</time>
      </trkpt>
      <trkpt lat="45.41935" lon="5.01539">
        <ele>473</ele>
        <time>2019-04-15T05:25:46Z</time>
      </trkpt>
      <trkpt lat="45.41915" lon="5.0154">
        <ele>473.4</ele>
        <time>2019-04-15T05:25:50Z</time>
      </trkpt>
      <trkpt lat="45.41894" lon="5.01542">
        <ele>474.2</ele>
        <time>2019-04-15T05:25:54Z</time>
      </trkpt>
      <trkpt lat="45.41874" lon="5.01544">
        <ele>474.6</ele>
        <time>2019-04-15T05:25:58Z</time>
      </trkpt>
      <trkpt lat="45.41854" lon="5.01548">
        <ele>475.2</ele>
        <time>2019-04-15T05:26:02Z</time>
      </trkpt>
      <trkpt lat="45.41832" lon="5.01552">
        <ele>476</ele>
        <time>2019-04-15T05:26:06Z</time>
      </trkpt>
      <trkpt lat="45.41811" lon="5.01557">
        <ele>476.4</ele>
        <time>2019-04-15T05:26:10Z</time>
      </trkpt>
      <trkpt lat="45.41789" lon="5.01562">
        <ele>476.4</ele>
        <time>2019-04-15T05:26:14Z</time>
      </trkpt>
      <trkpt lat="45.41766" lon="5.01567">
        <ele>476.4</ele>
        <time>2019-04-15T05:26:18Z</time>
      </trkpt>
      <trkpt lat="45.41742" lon="5.01572">
        <ele>477</ele>
        <time>2019-04-15T05:26:22Z</time>
      </trkpt>
      <trkpt lat="45.41718" lon="5.01578">
        <ele>477</ele>
        <time>2019-04-15T05:26:26Z</time>
      </trkpt>
      <trkpt lat="45.41693" lon="5.01584">
        <ele>477.4</ele>
        <time>2019-04-15T05:26:30Z</time>
      </trkpt>
      <trkpt lat="45.41667" lon="5.01589">
        <ele>477.2</ele>
        <time>2019-04-15T05:26:34Z</time>
      </trkpt>
      <trkpt lat="45.4164" lon="5.01595">
        <ele>477.2</ele>
        <time>2019-04-15T05:26:38Z</time>
      </trkpt>
      <trkpt lat="45.41613" lon="5.01601">
        <ele>477</ele>
        <time>2019-04-15T05:26:42Z</time>
      </trkpt>
      <trkpt lat="45.41586" lon="5.01608">
        <ele>478</ele>
        <time>2019-04-15T05:26:46Z</time>
      </trkpt>
      <trkpt lat="45.41557" lon="5.01614">
        <ele>477</ele>
        <time>2019-04-15T05:26:50Z</time>
      </trkpt>
      <trkpt lat="45.41529" lon="5.01621">
        <ele>476.4</ele>
        <time>2019-04-15T05:26:54Z</time>
      </trkpt>
      <trkpt lat="45.41498" lon="5.01628">
        <ele>476.6</ele>
        <time>2019-04-15T05:26:58Z</time>
      </trkpt>
      <trkpt lat="45.41467" lon="5.01636">
        <ele>476.2</ele>
        <time>2019-04-15T05:27:02Z</time>
      </trkpt>
      <trkpt lat="45.41435" lon="5.01644">
        <ele>476.2</ele>
        <time>2019-04-15T05:27:06Z</time>
      </trkpt>
      <trkpt lat="45.41403" lon="5.01651">
        <ele>475.6</ele>
        <time>2019-04-15T05:27:10Z</time>
      </trkpt>
      <trkpt lat="45.41372" lon="5.01658">
        <ele>475.6</ele>
        <time>2019-04-15T05:27:14Z</time>
      </trkpt>
      <trkpt lat="45.4134" lon="5.01666">
        <ele>475.8</ele>
        <time>2019-04-15T05:27:18Z</time>
      </trkpt>
      <trkpt lat="45.41309" lon="5.01673">
        <ele>475.4</ele>
        <time>2019-04-15T05:27:22Z</time>
      </trkpt>
      <trkpt lat="45.41278" lon="5.01678">
        <ele>475.4</ele>
        <time>2019-04-15T05:27:26Z</time>
      </trkpt>
      <trkpt lat="45.41247" lon="5.01682">
        <ele>475</ele>
        <time>2019-04-15T05:27:30Z</time>
      </trkpt>
      <trkpt lat="45.41215" lon="5.01684">
        <ele>474.8</ele>
        <time>2019-04-15T05:27:34Z</time>
      </trkpt>
      <trkpt lat="45.41184" lon="5.01684">
        <ele>474.4</ele>
        <time>2019-04-15T05:27:38Z</time>
      </trkpt>
      <trkpt lat="45.41152" lon="5.01683">
        <ele>474.4</ele>
        <time>2019-04-15T05:27:42Z</time>
      </trkpt>
      <trkpt lat="45.41119" lon="5.0168">
        <ele>474</ele>
        <time>2019-04-15T05:27:46Z</time>
      </trkpt>
      <trkpt lat="45.41086" lon="5.01676">
        <ele>474</ele>
        <time>2019-04-15T05:27:50Z</time>
      </trkpt>
      <trkpt lat="45.41051" lon="5.0167">
        <ele>472.4</ele>
        <time>2019-04-15T05:27:54Z</time>
      </trkpt>
      <trkpt lat="45.41014" lon="5.01664">
        <ele>471</ele>
        <time>2019-04-15T05:27:58Z</time>
      </trkpt>
      <trkpt lat="45.40976" lon="5.01656">
        <ele>470</ele>
        <time>2019-04-15T05:28:02Z</time>
      </trkpt>
      <trkpt lat="45.40936" lon="5.01649">
        <ele>467.8</ele>
        <time>2019-04-15T05:28:06Z</time>
      </trkpt>
      <trkpt lat="45.40895" lon="5.0165">
        <ele>465.8</ele>
        <time>2019-04-15T05:28:10Z</time>
      </trkpt>
      <trkpt lat="45.40852" lon="5.0166">
        <ele>463.4</ele>
        <time>2019-04-15T05:28:14Z</time>
      </trkpt>
      <trkpt lat="45.4081" lon="5.01678">
        <ele>461</ele>
        <time>2019-04-15T05:28:18Z</time>
      </trkpt>
      <trkpt lat="45.40767" lon="5.01704">
        <ele>457.8</ele>
        <time>2019-04-15T05:28:22Z</time>
      </trkpt>
      <trkpt lat="45.40723" lon="5.0173">
        <ele>454.6</ele>
        <time>2019-04-15T05:28:26Z</time>
      </trkpt>
      <trkpt lat="45.40675" lon="5.01742">
        <ele>451.8</ele>
        <time>2019-04-15T05:28:30Z</time>
      </trkpt>
      <trkpt lat="45.40627" lon="5.01753">
        <ele>449</ele>
        <time>2019-04-15T05:28:34Z</time>
      </trkpt>
      <trkpt lat="45.40581" lon="5.01777">
        <ele>446.8</ele>
        <time>2019-04-15T05:28:38Z</time>
      </trkpt>
      <trkpt lat="45.4054" lon="5.01816">
        <ele>443.6</ele>
        <time>2019-04-15T05:28:42Z</time>
      </trkpt>
      <trkpt lat="45.40506" lon="5.01868">
        <ele>439</ele>
        <time>2019-04-15T05:28:46Z</time>
      </trkpt>
      <trkpt lat="45.40467" lon="5.01923">
        <ele>436.6</ele>
        <time>2019-04-15T05:28:50Z</time>
      </trkpt>
      <trkpt lat="45.4042" lon="5.01958">
        <ele>433.6</ele>
        <time>2019-04-15T05:28:54Z</time>
      </trkpt>
      <trkpt lat="45.4037" lon="5.01989">
        <ele>430.2</ele>
        <time>2019-04-15T05:28:58Z</time>
      </trkpt>
      <trkpt lat="45.4032" lon="5.0202">
        <ele>426.6</ele>
        <time>2019-04-15T05:29:02Z</time>
      </trkpt>
      <trkpt lat="45.4027" lon="5.02053">
        <ele>423.6</ele>
        <time>2019-04-15T05:29:06Z</time>
      </trkpt>
      <trkpt lat="45.4023" lon="5.021">
        <ele>421.4</ele>
        <time>2019-04-15T05:29:10Z</time>
      </trkpt>
      <trkpt lat="45.40207" lon="5.02168">
        <ele>416.8</ele>
        <time>2019-04-15T05:29:14Z</time>
      </trkpt>
      <trkpt lat="45.40174" lon="5.02232">
        <ele>412.2</ele>
        <time>2019-04-15T05:29:18Z</time>
      </trkpt>
      <trkpt lat="45.40124" lon="5.02269">
        <ele>407.4</ele>
        <time>2019-04-15T05:29:22Z</time>
      </trkpt>
      <trkpt lat="45.40067" lon="5.02273">
        <ele>404</ele>
        <time>2019-04-15T05:29:26Z</time>
      </trkpt>
      <trkpt lat="45.40011" lon="5.02271">
        <ele>400.6</ele>
        <time>2019-04-15T05:29:30Z</time>
      </trkpt>
      <trkpt lat="45.39957" lon="5.02283">
        <ele>397.8</ele>
        <time>2019-04-15T05:29:34Z</time>
      </trkpt>
      <trkpt lat="45.39904" lon="5.02308">
        <ele>394.4</ele>
        <time>2019-04-15T05:29:38Z</time>
      </trkpt>
      <trkpt lat="45.39852" lon="5.02333">
        <ele>391.2</ele>
        <time>2019-04-15T05:29:42Z</time>
      </trkpt>
      <trkpt lat="45.39798" lon="5.02348">
        <ele>387.8</ele>
        <time>2019-04-15T05:29:46Z</time>
      </trkpt>
      <trkpt lat="45.39744" lon="5.02359">
        <ele>384.4</ele>
        <time>2019-04-15T05:29:50Z</time>
      </trkpt>
      <trkpt lat="45.3969" lon="5.02367">
        <ele>381</ele>
        <time>2019-04-15T05:29:54Z</time>
      </trkpt>
      <trkpt lat="45.39634" lon="5.02365">
        <ele>377.8</ele>
        <time>2019-04-15T05:29:58Z</time>
      </trkpt>
      <trkpt lat="45.3958" lon="5.02357">
        <ele>375.2</ele>
        <time>2019-04-15T05:30:02Z</time>
      </trkpt>
      <trkpt lat="45.39526" lon="5.02348">
        <ele>372.2</ele>
        <time>2019-04-15T05:30:06Z</time>
      </trkpt>
      <trkpt lat="45.39473" lon="5.0234">
        <ele>368.4</ele>
        <time>2019-04-15T05:30:10Z</time>
      </trkpt>
      <trkpt lat="45.3942" lon="5.02332">
        <ele>368.4</ele>
        <time>2019-04-15T05:30:14Z</time>
      </trkpt>
      <trkpt lat="45.39368" lon="5.02324">
        <ele>364.8</ele>
        <time>2019-04-15T05:30:18Z</time>
      </trkpt>
      <trkpt lat="45.39316" lon="5.02316">
        <ele>362.4</ele>
        <time>2019-04-15T05:30:22Z</time>
      </trkpt>
      <trkpt lat="45.39265" lon="5.02308">
        <ele>359.4</ele>
        <time>2019-04-15T05:30:26Z</time>
      </trkpt>
      <trkpt lat="45.39213" lon="5.023">
        <ele>356.8</ele>
        <time>2019-04-15T05:30:30Z</time>
      </trkpt>
      <trkpt lat="45.39162" lon="5.02293">
        <ele>354.2</ele>
        <time>2019-04-15T05:30:34Z</time>
      </trkpt>
      <trkpt lat="45.39113" lon="5.02286">
        <ele>351.6</ele>
        <time>2019-04-15T05:30:38Z</time>
      </trkpt>
      <trkpt lat="45.39065" lon="5.02289">
        <ele>349.8</ele>
        <time>2019-04-15T05:30:42Z</time>
      </trkpt>
      <trkpt lat="45.39019" lon="5.02297">
        <ele>348.2</ele>
        <time>2019-04-15T05:30:46Z</time>
      </trkpt>
      <trkpt lat="45.38972" lon="5.02306">
        <ele>346.2</ele>
        <time>2019-04-15T05:30:50Z</time>
      </trkpt>
      <trkpt lat="45.38926" lon="5.02315">
        <ele>345</ele>
        <time>2019-04-15T05:30:54Z</time>
      </trkpt>
      <trkpt lat="45.38881" lon="5.02325">
        <ele>343.8</ele>
        <time>2019-04-15T05:30:58Z</time>
      </trkpt>
      <trkpt lat="45.38837" lon="5.02333">
        <ele>342.6</ele>
        <time>2019-04-15T05:31:02Z</time>
      </trkpt>
      <trkpt lat="45.38795" lon="5.02341">
        <ele>341.2</ele>
        <time>2019-04-15T05:31:06Z</time>
      </trkpt>
      <trkpt lat="45.38753" lon="5.02348">
        <ele>341</ele>
        <time>2019-04-15T05:31:10Z</time>
      </trkpt>
      <trkpt lat="45.38713" lon="5.02356">
        <ele>339.6</ele>
        <time>2019-04-15T05:31:14Z</time>
      </trkpt>
      <trkpt lat="45.38673" lon="5.02362">
        <ele>338.2</ele>
        <time>2019-04-15T05:31:18Z</time>
      </trkpt>
      <trkpt lat="45.38634" lon="5.02361">
        <ele>337.6</ele>
        <time>2019-04-15T05:31:22Z</time>
      </trkpt>
      <trkpt lat="45.38598" lon="5.02369">
        <ele>337</ele>
        <time>2019-04-15T05:31:26Z</time>
      </trkpt>
      <trkpt lat="45.38565" lon="5.02372">
        <ele>335.4</ele>
        <time>2019-04-15T05:31:30Z</time>
      </trkpt>
      <trkpt lat="45.38534" lon="5.02389">
        <ele>335.2</ele>
        <time>2019-04-15T05:31:34Z</time>
      </trkpt>
      <trkpt lat="45.385" lon="5.02397">
        <ele>334.8</ele>
        <time>2019-04-15T05:31:38Z</time>
      </trkpt>
      <trkpt lat="45.38465" lon="5.02405">
        <ele>334.4</ele>
        <time>2019-04-15T05:31:42Z</time>
      </trkpt>
      <trkpt lat="45.38429" lon="5.02411">
        <ele>333.2</ele>
        <time>2019-04-15T05:31:46Z</time>
      </trkpt>
      <trkpt lat="45.38393" lon="5.02418">
        <ele>332.4</ele>
        <time>2019-04-15T05:31:50Z</time>
      </trkpt>
      <trkpt lat="45.38359" lon="5.02424">
        <ele>332.2</ele>
        <time>2019-04-15T05:31:54Z</time>
      </trkpt>
      <trkpt lat="45.38326" lon="5.02431">
        <ele>332</ele>
        <time>2019-04-15T05:31:58Z</time>
      </trkpt>
      <trkpt lat="45.38294" lon="5.02436">
        <ele>332.2</ele>
        <time>2019-04-15T05:32:02Z</time>
      </trkpt>
      <trkpt lat="45.38263" lon="5.02442">
        <ele>332.2</ele>
        <time>2019-04-15T05:32:06Z</time>
      </trkpt>
      <trkpt lat="45.38233" lon="5.02448">
        <ele>331.8</ele>
        <time>2019-04-15T05:32:10Z</time>
      </trkpt>
      <trkpt lat="45.38203" lon="5.02454">
        <ele>332</ele>
        <time>2019-04-15T05:32:14Z</time>
      </trkpt>
      <trkpt lat="45.38172" lon="5.0246">
        <ele>332</ele>
        <time>2019-04-15T05:32:18Z</time>
      </trkpt>
      <trkpt lat="45.38142" lon="5.02466">
        <ele>331.8</ele>
        <time>2019-04-15T05:32:22Z</time>
      </trkpt>
      <trkpt lat="45.38111" lon="5.02471">
        <ele>332.2</ele>
        <time>2019-04-15T05:32:26Z</time>
      </trkpt>
      <trkpt lat="45.38084" lon="5.02476">
        <ele>332.6</ele>
        <time>2019-04-15T05:32:30Z</time>
      </trkpt>
      <trkpt lat="45.38058" lon="5.02481">
        <ele>333.2</ele>
        <time>2019-04-15T05:32:34Z</time>
      </trkpt>
      <trkpt lat="45.38031" lon="5.02486">
        <ele>335.2</ele>
        <time>2019-04-15T05:32:38Z</time>
      </trkpt>
      <trkpt lat="45.38004" lon="5.02493">
        <ele>336.6</ele>
        <time>2019-04-15T05:32:42Z</time>
      </trkpt>
      <trkpt lat="45.37976" lon="5.02499">
        <ele>337</ele>
        <time>2019-04-15T05:32:46Z</time>
      </trkpt>
      <trkpt lat="45.37949" lon="5.02508">
        <ele>338.2</ele>
        <time>2019-04-15T05:32:50Z</time>
      </trkpt>
      <trkpt lat="45.3792" lon="5.02516">
        <ele>337</ele>
        <time>2019-04-15T05:32:54Z</time>
      </trkpt>
      <trkpt lat="45.37887" lon="5.02523">
        <ele>336.2</ele>
        <time>2019-04-15T05:32:58Z</time>
      </trkpt>
      <trkpt lat="45.3785" lon="5.02532">
        <ele>334.4</ele>
        <time>2019-04-15T05:33:02Z</time>
      </trkpt>
      <trkpt lat="45.3781" lon="5.0254">
        <ele>332.8</ele>
        <time>2019-04-15T05:33:06Z</time>
      </trkpt>
      <trkpt lat="45.37768" lon="5.0255">
        <ele>331.6</ele>
        <time>2019-04-15T05:33:10Z</time>
      </trkpt>
      <trkpt lat="45.37725" lon="5.02561">
        <ele>329.8</ele>
        <time>2019-04-15T05:33:14Z</time>
      </trkpt>
      <trkpt lat="45.3768" lon="5.02571">
        <ele>328.6</ele>
        <time>2019-04-15T05:33:18Z</time>
      </trkpt>
      <trkpt lat="45.37635" lon="5.02582">
        <ele>326.6</ele>
        <time>2019-04-15T05:33:22Z</time>
      </trkpt>
      <trkpt lat="45.3759" lon="5.02594">
        <ele>325.8</ele>
        <time>2019-04-15T05:33:26Z</time>
      </trkpt>
      <trkpt lat="45.37545" lon="5.02604">
        <ele>325</ele>
        <time>2019-04-15T05:33:30Z</time>
      </trkpt>
      <trkpt lat="45.37502" lon="5.02615">
        <ele>324</ele>
        <time>2019-04-15T05:33:34Z</time>
      </trkpt>
      <trkpt lat="45.37459" lon="5.02625">
        <ele>323.6</ele>
        <time>2019-04-15T05:33:38Z</time>
      </trkpt>
      <trkpt lat="45.37418" lon="5.02635">
        <ele>323.4</ele>
        <time>2019-04-15T05:33:42Z</time>
      </trkpt>
      <trkpt lat="45.37379" lon="5.02645">
        <ele>324</ele>
        <time>2019-04-15T05:33:46Z</time>
      </trkpt>
      <trkpt lat="45.37341" lon="5.02653">
        <ele>324.4</ele>
        <time>2019-04-15T05:33:50Z</time>
      </trkpt>
      <trkpt lat="45.37303" lon="5.02659">
        <ele>323.8</ele>
        <time>2019-04-15T05:33:54Z</time>
      </trkpt>
      <trkpt lat="45.37266" lon="5.02667">
        <ele>324</ele>
        <time>2019-04-15T05:33:58Z</time>
      </trkpt>
      <trkpt lat="45.37231" lon="5.02675">
        <ele>324</ele>
        <time>2019-04-15T05:34:02Z</time>
      </trkpt>
      <trkpt lat="45.37196" lon="5.02683">
        <ele>323.8</ele>
        <time>2019-04-15T05:34:06Z</time>
      </trkpt>
      <trkpt lat="45.37161" lon="5.02692">
        <ele>324</ele>
        <time>2019-04-15T05:34:10Z</time>
      </trkpt>
      <trkpt lat="45.37127" lon="5.027">
        <ele>324</ele>
        <time>2019-04-15T05:34:14Z</time>
      </trkpt>
      <trkpt lat="45.37093" lon="5.02709">
        <ele>324</ele>
        <time>2019-04-15T05:34:18Z</time>
      </trkpt>
      <trkpt lat="45.3706" lon="5.02717">
        <ele>324.2</ele>
        <time>2019-04-15T05:34:22Z</time>
      </trkpt>
      <trkpt lat="45.37027" lon="5.02725">
        <ele>324.2</ele>
        <time>2019-04-15T05:34:26Z</time>
      </trkpt>
      <trkpt lat="45.36994" lon="5.02733">
        <ele>324.2</ele>
        <time>2019-04-15T05:34:30Z</time>
      </trkpt>
      <trkpt lat="45.36961" lon="5.02741">
        <ele>324.2</ele>
        <time>2019-04-15T05:34:34Z</time>
      </trkpt>
      <trkpt lat="45.36929" lon="5.02749">
        <ele>324.4</ele>
        <time>2019-04-15T05:34:38Z</time>
      </trkpt>
      <trkpt lat="45.36897" lon="5.02757">
        <ele>324.4</ele>
        <time>2019-04-15T05:34:42Z</time>
      </trkpt>
      <trkpt lat="45.36864" lon="5.02765">
        <ele>324</ele>
        <time>2019-04-15T05:34:46Z</time>
      </trkpt>
      <trkpt lat="45.36831" lon="5.02773">
        <ele>324</ele>
        <time>2019-04-15T05:34:50Z</time>
      </trkpt>
      <trkpt lat="45.36799" lon="5.02783">
        <ele>323.8</ele>
        <time>2019-04-15T05:34:54Z</time>
      </trkpt>
      <trkpt lat="45.36766" lon="5.02794">
        <ele>323.4</ele>
        <time>2019-04-15T05:34:58Z</time>
      </trkpt>
      <trkpt lat="45.36734" lon="5.02803">
        <ele>323.4</ele>
        <time>2019-04-15T05:35:02Z</time>
      </trkpt>
      <trkpt lat="45.36702" lon="5.02811">
        <ele>323</ele>
        <time>2019-04-15T05:35:06Z</time>
      </trkpt>
      <trkpt lat="45.3667" lon="5.02819">
        <ele>322.8</ele>
        <time>2019-04-15T05:35:10Z</time>
      </trkpt>
      <trkpt lat="45.36638" lon="5.02827">
        <ele>322.4</ele>
        <time>2019-04-15T05:35:14Z</time>
      </trkpt>
      <trkpt lat="45.36606" lon="5.02835">
        <ele>322.4</ele>
        <time>2019-04-15T05:35:18Z</time>
      </trkpt>
      <trkpt lat="45.36574" lon="5.02843">
        <ele>322.6</ele>
        <time>2019-04-15T05:35:22Z</time>
      </trkpt>
      <trkpt lat="45.36543" lon="5.02851">
        <ele>322.4</ele>
        <time>2019-04-15T05:35:26Z</time>
      </trkpt>
      <trkpt lat="45.36512" lon="5.02858">
        <ele>322.4</ele>
        <time>2019-04-15T05:35:30Z</time>
      </trkpt>
      <trkpt lat="45.36481" lon="5.02866">
        <ele>322.2</ele>
        <time>2019-04-15T05:35:34Z</time>
      </trkpt>
      <trkpt lat="45.36451" lon="5.02873">
        <ele>322</ele>
        <time>2019-04-15T05:35:38Z</time>
      </trkpt>
      <trkpt lat="45.3642" lon="5.0288">
        <ele>321.8</ele>
        <time>2019-04-15T05:35:42Z</time>
      </trkpt>
      <trkpt lat="45.3639" lon="5.02888">
        <ele>321.6</ele>
        <time>2019-04-15T05:35:46Z</time>
      </trkpt>
      <trkpt lat="45.36359" lon="5.02895">
        <ele>321</ele>
        <time>2019-04-15T05:35:50Z</time>
      </trkpt>
      <trkpt lat="45.36329" lon="5.02903">
        <ele>321.8</ele>
        <time>2019-04-15T05:35:54Z</time>
      </trkpt>
      <trkpt lat="45.36298" lon="5.0291">
        <ele>321.6</ele>
        <time>2019-04-15T05:35:58Z</time>
      </trkpt>
      <trkpt lat="45.36266" lon="5.02917">
        <ele>321</ele>
        <time>2019-04-15T05:36:02Z</time>
      </trkpt>
      <trkpt lat="45.36231" lon="5.02918">
        <ele>319.2</ele>
        <time>2019-04-15T05:36:06Z</time>
      </trkpt>
      <trkpt lat="45.36196" lon="5.02917">
        <ele>318.2</ele>
        <time>2019-04-15T05:36:10Z</time>
      </trkpt>
      <trkpt lat="45.36158" lon="5.02916">
        <ele>316.2</ele>
        <time>2019-04-15T05:36:14Z</time>
      </trkpt>
      <trkpt lat="45.36118" lon="5.02916">
        <ele>314.8</ele>
        <time>2019-04-15T05:36:18Z</time>
      </trkpt>
      <trkpt lat="45.36079" lon="5.02915">
        <ele>312.8</ele>
        <time>2019-04-15T05:36:22Z</time>
      </trkpt>
      <trkpt lat="45.36038" lon="5.02915">
        <ele>310.8</ele>
        <time>2019-04-15T05:36:26Z</time>
      </trkpt>
      <trkpt lat="45.35997" lon="5.02914">
        <ele>308.2</ele>
        <time>2019-04-15T05:36:30Z</time>
      </trkpt>
      <trkpt lat="45.35956" lon="5.02913">
        <ele>305.8</ele>
        <time>2019-04-15T05:36:34Z</time>
      </trkpt>
      <trkpt lat="45.35914" lon="5.02915">
        <ele>304.2</ele>
        <time>2019-04-15T05:36:38Z</time>
      </trkpt>
      <trkpt lat="45.35873" lon="5.02923">
        <ele>302.4</ele>
        <time>2019-04-15T05:36:42Z</time>
      </trkpt>
      <trkpt lat="45.35834" lon="5.0294">
        <ele>300.4</ele>
        <time>2019-04-15T05:36:46Z</time>
      </trkpt>
      <trkpt lat="45.35799" lon="5.02962">
        <ele>299.2</ele>
        <time>2019-04-15T05:36:50Z</time>
      </trkpt>
      <trkpt lat="45.35766" lon="5.02991">
        <ele>298.8</ele>
        <time>2019-04-15T05:36:54Z</time>
      </trkpt>
      <trkpt lat="45.35737" lon="5.03023">
        <ele>298</ele>
        <time>2019-04-15T05:36:58Z</time>
      </trkpt>
      <trkpt lat="45.35708" lon="5.03055">
        <ele>296.6</ele>
        <time>2019-04-15T05:37:02Z</time>
      </trkpt>
      <trkpt lat="45.35679" lon="5.03087">
        <ele>296.2</ele>
        <time>2019-04-15T05:37:06Z</time>
      </trkpt>
      <trkpt lat="45.3565" lon="5.03118">
        <ele>294.6</ele>
        <time>2019-04-15T05:37:10Z</time>
      </trkpt>
      <trkpt lat="45.35622" lon="5.03149">
        <ele>294.6</ele>
        <time>2019-04-15T05:37:14Z</time>
      </trkpt>
      <trkpt lat="45.35595" lon="5.03178">
        <ele>293.8</ele>
        <time>2019-04-15T05:37:18Z</time>
      </trkpt>
      <trkpt lat="45.35569" lon="5.03206">
        <ele>293.4</ele>
        <time>2019-04-15T05:37:22Z</time>
      </trkpt>
      <trkpt lat="45.35544" lon="5.03234">
        <ele>293.4</ele>
        <time>2019-04-15T05:37:26Z</time>
      </trkpt>
      <trkpt lat="45.3552" lon="5.03261">
        <ele>293.4</ele>
        <time>2019-04-15T05:37:30Z</time>
      </trkpt>
      <trkpt lat="45.35496" lon="5.03287">
        <ele>293.4</ele>
        <time>2019-04-15T05:37:34Z</time>
      </trkpt>
      <trkpt lat="45.35472" lon="5.03314">
        <ele>293.4</ele>
        <time>2019-04-15T05:37:38Z</time>
      </trkpt>
      <trkpt lat="45.35448" lon="5.0334">
        <ele>293.6</ele>
        <time>2019-04-15T05:37:42Z</time>
      </trkpt>
      <trkpt lat="45.35424" lon="5.03366">
        <ele>294</ele>
        <time>2019-04-15T05:37:46Z</time>
      </trkpt>
      <trkpt lat="45.35399" lon="5.03392">
        <ele>294.2</ele>
        <time>2019-04-15T05:37:50Z</time>
      </trkpt>
      <trkpt lat="45.35376" lon="5.03418">
        <ele>294.6</ele>
        <time>2019-04-15T05:37:54Z</time>
      </trkpt>
      <trkpt lat="45.35351" lon="5.03442">
        <ele>295</ele>
        <time>2019-04-15T05:37:58Z</time>
      </trkpt>
      <trkpt lat="45.35326" lon="5.03466">
        <ele>294.4</ele>
        <time>2019-04-15T05:38:02Z</time>
      </trkpt>
      <trkpt lat="45.35303" lon="5.03493">
        <ele>295.2</ele>
        <time>2019-04-15T05:38:06Z</time>
      </trkpt>
      <trkpt lat="45.35281" lon="5.03522">
        <ele>294.8</ele>
        <time>2019-04-15T05:38:10Z</time>
      </trkpt>
      <trkpt lat="45.35259" lon="5.03547">
        <ele>296.6</ele>
        <time>2019-04-15T05:38:14Z</time>
      </trkpt>
      <trkpt lat="45.35236" lon="5.03572">
        <ele>296.2</ele>
        <time>2019-04-15T05:38:18Z</time>
      </trkpt>
      <trkpt lat="45.35213" lon="5.03597">
        <ele>296</ele>
        <time>2019-04-15T05:38:22Z</time>
      </trkpt>
      <trkpt lat="45.35191" lon="5.03623">
        <ele>295.8</ele>
        <time>2019-04-15T05:38:26Z</time>
      </trkpt>
      <trkpt lat="45.35168" lon="5.0365">
        <ele>296.2</ele>
        <time>2019-04-15T05:38:30Z</time>
      </trkpt>
      <trkpt lat="45.35144" lon="5.03673">
        <ele>296.2</ele>
        <time>2019-04-15T05:38:34Z</time>
      </trkpt>
      <trkpt lat="45.35121" lon="5.03698">
        <ele>296.2</ele>
        <time>2019-04-15T05:38:38Z</time>
      </trkpt>
      <trkpt lat="45.35097" lon="5.03724">
        <ele>296</ele>
        <time>2019-04-15T05:38:42Z</time>
      </trkpt>
      <trkpt lat="45.35073" lon="5.0375">
        <ele>296.8</ele>
        <time>2019-04-15T05:38:46Z</time>
      </trkpt>
      <trkpt lat="45.3505" lon="5.03775">
        <ele>296</ele>
        <time>2019-04-15T05:38:50Z</time>
      </trkpt>
      <trkpt lat="45.35026" lon="5.03801">
        <ele>296.8</ele>
        <time>2019-04-15T05:38:54Z</time>
      </trkpt>
      <trkpt lat="45.35002" lon="5.03825">
        <ele>297</ele>
        <time>2019-04-15T05:38:58Z</time>
      </trkpt>
      <trkpt lat="45.3498" lon="5.03852">
        <ele>297.6</ele>
        <time>2019-04-15T05:39:02Z</time>
      </trkpt>
      <trkpt lat="45.34956" lon="5.03877">
        <ele>297.4</ele>
        <time>2019-04-15T05:39:06Z</time>
      </trkpt>
      <trkpt lat="45.34933" lon="5.03902">
        <ele>297.4</ele>
        <time>2019-04-15T05:39:10Z</time>
      </trkpt>
      <trkpt lat="45.34911" lon="5.03927">
        <ele>298</ele>
        <time>2019-04-15T05:39:14Z</time>
      </trkpt>
      <trkpt lat="45.34888" lon="5.03952">
        <ele>298.6</ele>
        <time>2019-04-15T05:39:18Z</time>
      </trkpt>
      <trkpt lat="45.34865" lon="5.03976">
        <ele>298.2</ele>
        <time>2019-04-15T05:39:22Z</time>
      </trkpt>
      <trkpt lat="45.34843" lon="5.04">
        <ele>298.6</ele>
        <time>2019-04-15T05:39:26Z</time>
      </trkpt>
      <trkpt lat="45.34821" lon="5.04024">
        <ele>298.8</ele>
        <time>2019-04-15T05:39:30Z</time>
      </trkpt>
      <trkpt lat="45.34799" lon="5.04049">
        <ele>299.4</ele>
        <time>2019-04-15T05:39:34Z</time>
      </trkpt>
      <trkpt lat="45.34775" lon="5.0407">
        <ele>299.4</ele>
        <time>2019-04-15T05:39:38Z</time>
      </trkpt>
      <trkpt lat="45.34753" lon="5.04097">
        <ele>299.2</ele>
        <time>2019-04-15T05:39:42Z</time>
      </trkpt>
      <trkpt lat="45.34732" lon="5.04122">
        <ele>299.2</ele>
        <time>2019-04-15T05:39:46Z</time>
      </trkpt>
      <trkpt lat="45.34707" lon="5.04141">
        <ele>299.4</ele>
        <time>2019-04-15T05:39:50Z</time>
      </trkpt>
      <trkpt lat="45.3468" lon="5.04154">
        <ele>300</ele>
        <time>2019-04-15T05:39:54Z</time>
      </trkpt>
      <trkpt lat="45.34655" lon="5.04171">
        <ele>299.8</ele>
        <time>2019-04-15T05:39:58Z</time>
      </trkpt>
      <trkpt lat="45.34638" lon="5.04203">
        <ele>299.8</ele>
        <time>2019-04-15T05:40:02Z</time>
      </trkpt>
      <trkpt lat="45.34623" lon="5.04237">
        <ele>299.4</ele>
        <time>2019-04-15T05:40:06Z</time>
      </trkpt>
      <trkpt lat="45.34602" lon="5.04265">
        <ele>299.8</ele>
        <time>2019-04-15T05:40:10Z</time>
      </trkpt>
      <trkpt lat="45.34579" lon="5.0429">
        <ele>300.4</ele>
        <time>2019-04-15T05:40:14Z</time>
      </trkpt>
      <trkpt lat="45.34556" lon="5.04315">
        <ele>300</ele>
        <time>2019-04-15T05:40:18Z</time>
      </trkpt>
      <trkpt lat="45.34535" lon="5.04339">
        <ele>300.2</ele>
        <time>2019-04-15T05:40:22Z</time>
      </trkpt>
      <trkpt lat="45.34513" lon="5.04363">
        <ele>300.4</ele>
        <time>2019-04-15T05:40:26Z</time>
      </trkpt>
      <trkpt lat="45.3449" lon="5.04387">
        <ele>300.6</ele>
        <time>2019-04-15T05:40:30Z</time>
      </trkpt>
      <trkpt lat="45.34468" lon="5.04411">
        <ele>301</ele>
        <time>2019-04-15T05:40:34Z</time>
      </trkpt>
      <trkpt lat="45.34446" lon="5.04436">
        <ele>300.8</ele>
        <time>2019-04-15T05:40:38Z</time>
      </trkpt>
      <trkpt lat="45.34423" lon="5.0446">
        <ele>301</ele>
        <time>2019-04-15T05:40:42Z</time>
      </trkpt>
      <trkpt lat="45.34401" lon="5.04485">
        <ele>301</ele>
        <time>2019-04-15T05:40:46Z</time>
      </trkpt>
      <trkpt lat="45.34378" lon="5.0451">
        <ele>300.8</ele>
        <time>2019-04-15T05:40:50Z</time>
      </trkpt>
      <trkpt lat="45.34356" lon="5.04535">
        <ele>301</ele>
        <time>2019-04-15T05:40:54Z</time>
      </trkpt>
      <trkpt lat="45.34333" lon="5.04559">
        <ele>301</ele>
        <time>2019-04-15T05:40:58Z</time>
      </trkpt>
      <trkpt lat="45.34311" lon="5.04584">
        <ele>301.2</ele>
        <time>2019-04-15T05:41:02Z</time>
      </trkpt>
      <trkpt lat="45.34289" lon="5.04608">
        <ele>301.6</ele>
        <time>2019-04-15T05:41:06Z</time>
      </trkpt>
      <trkpt lat="45.34267" lon="5.04633">
        <ele>301.2</ele>
        <time>2019-04-15T05:41:10Z</time>
      </trkpt>
      <trkpt lat="45.34244" lon="5.04657">
        <ele>301.6</ele>
        <time>2019-04-15T05:41:14Z</time>
      </trkpt>
      <trkpt lat="45.34221" lon="5.04682">
        <ele>301.6</ele>
        <time>2019-04-15T05:41:18Z</time>
      </trkpt>
      <trkpt lat="45.34199" lon="5.04706">
        <ele>301.2</ele>
        <time>2019-04-15T05:41:22Z</time>
      </trkpt>
      <trkpt lat="45.34176" lon="5.04731">
        <ele>301.2</ele>
        <time>2019-04-15T05:41:26Z</time>
      </trkpt>
      <trkpt lat="45.34154" lon="5.04755">
        <ele>301.8</ele>
        <time>2019-04-15T05:41:30Z</time>
      </trkpt>
      <trkpt lat="45.34132" lon="5.0478">
        <ele>301.8</ele>
        <time>2019-04-15T05:41:34Z</time>
      </trkpt>
      <trkpt lat="45.34109" lon="5.04804">
        <ele>302.4</ele>
        <time>2019-04-15T05:41:38Z</time>
      </trkpt>
      <trkpt lat="45.34086" lon="5.04829">
        <ele>301.8</ele>
        <time>2019-04-15T05:41:42Z</time>
      </trkpt>
      <trkpt lat="45.34063" lon="5.04853">
        <ele>302</ele>
        <time>2019-04-15T05:41:46Z</time>
      </trkpt>
      <trkpt lat="45.34041" lon="5.04877">
        <ele>301.8</ele>
        <time>2019-04-15T05:41:50Z</time>
      </trkpt>
      <trkpt lat="45.3402" lon="5.04901">
        <ele>301.2</ele>
        <time>2019-04-15T05:41:54Z</time>
      </trkpt>
      <trkpt lat="45.3401" lon="5.0491">
        <ele>301</ele>
        <time>2019-04-15T05:41:58Z</time>
      </trkpt>
      <trkpt lat="45.34" lon="5.04924">
        <ele>301.2</ele>
        <time>2019-04-15T05:42:02Z</time>
      </trkpt>
      <trkpt lat="45.33986" lon="5.04947">
        <ele>300.8</ele>
        <time>2019-04-15T05:42:06Z</time>
      </trkpt>
      <trkpt lat="45.33968" lon="5.04976">
        <ele>299.8</ele>
        <time>2019-04-15T05:42:10Z</time>
      </trkpt>
      <trkpt lat="45.33952" lon="5.05014">
        <ele>297.8</ele>
        <time>2019-04-15T05:42:14Z</time>
      </trkpt>
      <trkpt lat="45.33953" lon="5.05065">
        <ele>295.6</ele>
        <time>2019-04-15T05:42:18Z</time>
      </trkpt>
      <trkpt lat="45.33961" lon="5.05121">
        <ele>292.2</ele>
        <time>2019-04-15T05:42:22Z</time>
      </trkpt>
      <trkpt lat="45.33993" lon="5.05161">
        <ele>289</ele>
        <time>2019-04-15T05:42:26Z</time>
      </trkpt>
      <trkpt lat="45.34021" lon="5.05198">
        <ele>286</ele>
        <time>2019-04-15T05:42:30Z</time>
      </trkpt>
      <trkpt lat="45.34006" lon="5.05238">
        <ele>283.4</ele>
        <time>2019-04-15T05:42:34Z</time>
      </trkpt>
      <trkpt lat="45.33973" lon="5.05266">
        <ele>280.6</ele>
        <time>2019-04-15T05:42:38Z</time>
      </trkpt>
      <trkpt lat="45.33934" lon="5.05286">
        <ele>276.8</ele>
        <time>2019-04-15T05:42:42Z</time>
      </trkpt>
      <trkpt lat="45.33911" lon="5.05298">
        <ele>274.2</ele>
        <time>2019-04-15T05:42:46Z</time>
      </trkpt>
      <trkpt lat="45.33898" lon="5.05304">
        <ele>272.6</ele>
        <time>2019-04-15T05:42:50Z</time>
      </trkpt>
      <trkpt lat="45.33878" lon="5.05313">
        <ele>271.4</ele>
        <time>2019-04-15T05:42:54Z</time>
      </trkpt>
      <trkpt lat="45.33858" lon="5.0532">
        <ele>270.2</ele>
        <time>2019-04-15T05:42:58Z</time>
      </trkpt>
      <trkpt lat="45.33837" lon="5.05326">
        <ele>269.2</ele>
        <time>2019-04-15T05:43:02Z</time>
      </trkpt>
      <trkpt lat="45.33819" lon="5.05328">
        <ele>267.8</ele>
        <time>2019-04-15T05:43:06Z</time>
      </trkpt>
      <trkpt lat="45.33798" lon="5.05329">
        <ele>267.2</ele>
        <time>2019-04-15T05:43:10Z</time>
      </trkpt>
      <trkpt lat="45.3377" lon="5.05339">
        <ele>265.8</ele>
        <time>2019-04-15T05:43:14Z</time>
      </trkpt>
      <trkpt lat="45.3374" lon="5.05351">
        <ele>265.2</ele>
        <time>2019-04-15T05:43:18Z</time>
      </trkpt>
      <trkpt lat="45.33712" lon="5.05365">
        <ele>264.6</ele>
        <time>2019-04-15T05:43:22Z</time>
      </trkpt>
      <trkpt lat="45.33697" lon="5.05396">
        <ele>264.8</ele>
        <time>2019-04-15T05:43:26Z</time>
      </trkpt>
      <trkpt lat="45.33699" lon="5.05434">
        <ele>264.6</ele>
        <time>2019-04-15T05:43:30Z</time>
      </trkpt>
      <trkpt lat="45.33708" lon="5.05472">
        <ele>264.8</ele>
        <time>2019-04-15T05:43:34Z</time>
      </trkpt>
      <trkpt lat="45.33715" lon="5.0551">
        <ele>265.2</ele>
        <time>2019-04-15T05:43:38Z</time>
      </trkpt>
      <trkpt lat="45.33718" lon="5.05547">
        <ele>265.2</ele>
        <time>2019-04-15T05:43:42Z</time>
      </trkpt>
      <trkpt lat="45.33724" lon="5.05568">
        <ele>264.8</ele>
        <time>2019-04-15T05:43:46Z</time>
      </trkpt>
      <trkpt lat="45.33725" lon="5.05562">
        <ele>264.4</ele>
        <time>2019-04-15T05:43:50Z</time>
      </trkpt>
      <trkpt lat="45.33722" lon="5.05553">
        <ele>264.4</ele>
        <time>2019-04-15T05:43:54Z</time>
      </trkpt>
      <trkpt lat="45.33722" lon="5.05553">
        <ele>264.4</ele>
        <time>2019-04-15T05:43:58Z</time>
      </trkpt>
      <trkpt lat="45.33721" lon="5.05546">
        <ele>264.4</ele>
        <time>2019-04-15T05:44:02Z</time>
      </trkpt>
      <trkpt lat="45.33716" lon="5.05541">
        <ele>264.4</ele>
        <time>2019-04-15T05:44:06Z</time>
      </trkpt>
      <trkpt lat="45.33704" lon="5.05539">
        <ele>264.4</ele>
        <time>2019-04-15T05:44:10Z</time>
      </trkpt>
      <trkpt lat="45.33684" lon="5.05546">
        <ele>264.4</ele>
        <time>2019-04-15T05:44:14Z</time>
      </trkpt>
      <trkpt lat="45.33659" lon="5.05553">
        <ele>264.2</ele>
        <time>2019-04-15T05:44:18Z</time>
      </trkpt>
      <trkpt lat="45.33633" lon="5.0556">
        <ele>264.2</ele>
        <time>2019-04-15T05:44:22Z</time>
      </trkpt>
      <trkpt lat="45.33606" lon="5.05567">
        <ele>264.4</ele>
        <time>2019-04-15T05:44:26Z</time>
      </trkpt>
      <trkpt lat="45.33578" lon="5.05573">
        <ele>264</ele>
        <time>2019-04-15T05:44:30Z</time>
      </trkpt>
      <trkpt lat="45.33549" lon="5.05582">
        <ele>264.2</ele>
        <time>2019-04-15T05:44:34Z</time>
      </trkpt>
      <trkpt lat="45.3352" lon="5.05589">
        <ele>264.2</ele>
        <time>2019-04-15T05:44:38Z</time>
      </trkpt>
      <trkpt lat="45.33492" lon="5.05597">
        <ele>264.4</ele>
        <time>2019-04-15T05:44:42Z</time>
      </trkpt>
      <trkpt lat="45.33464" lon="5.05605">
        <ele>264.2</ele>
        <time>2019-04-15T05:44:46Z</time>
      </trkpt>
      <trkpt lat="45.33437" lon="5.05616">
        <ele>264.2</ele>
        <time>2019-04-15T05:44:50Z</time>
      </trkpt>
      <trkpt lat="45.3341" lon="5.05623">
        <ele>264.8</ele>
        <time>2019-04-15T05:44:54Z</time>
      </trkpt>
      <trkpt lat="45.33383" lon="5.0563">
        <ele>264.6</ele>
        <time>2019-04-15T05:44:58Z</time>
      </trkpt>
      <trkpt lat="45.33356" lon="5.05639">
        <ele>264.2</ele>
        <time>2019-04-15T05:45:02Z</time>
      </trkpt>
      <trkpt lat="45.33326" lon="5.05647">
        <ele>264.2</ele>
        <time>2019-04-15T05:45:06Z</time>
      </trkpt>
      <trkpt lat="45.33297" lon="5.05656">
        <ele>264.2</ele>
        <time>2019-04-15T05:45:10Z</time>
      </trkpt>
      <trkpt lat="45.33269" lon="5.05665">
        <ele>263.6</ele>
        <time>2019-04-15T05:45:14Z</time>
      </trkpt>
      <trkpt lat="45.3324" lon="5.05673">
        <ele>263.6</ele>
        <time>2019-04-15T05:45:18Z</time>
      </trkpt>
      <trkpt lat="45.33212" lon="5.05681">
        <ele>263.6</ele>
        <time>2019-04-15T05:45:22Z</time>
      </trkpt>
      <trkpt lat="45.33185" lon="5.05689">
        <ele>263.6</ele>
        <time>2019-04-15T05:45:26Z</time>
      </trkpt>
      <trkpt lat="45.33157" lon="5.05698">
        <ele>263.4</ele>
        <time>2019-04-15T05:45:30Z</time>
      </trkpt>
      <trkpt lat="45.33131" lon="5.05698">
        <ele>263.6</ele>
        <time>2019-04-15T05:45:34Z</time>
      </trkpt>
      <trkpt lat="45.33103" lon="5.05688">
        <ele>263.4</ele>
        <time>2019-04-15T05:45:38Z</time>
      </trkpt>
      <trkpt lat="45.33073" lon="5.05678">
        <ele>263.6</ele>
        <time>2019-04-15T05:45:42Z</time>
      </trkpt>
      <trkpt lat="45.33043" lon="5.05668">
        <ele>264.8</ele>
        <time>2019-04-15T05:45:46Z</time>
      </trkpt>
      <trkpt lat="45.33014" lon="5.05659">
        <ele>264.2</ele>
        <time>2019-04-15T05:45:50Z</time>
      </trkpt>
      <trkpt lat="45.32984" lon="5.05649">
        <ele>263.4</ele>
        <time>2019-04-15T05:45:54Z</time>
      </trkpt>
      <trkpt lat="45.32954" lon="5.05639">
        <ele>263.2</ele>
        <time>2019-04-15T05:45:58Z</time>
      </trkpt>
      <trkpt lat="45.32925" lon="5.05631">
        <ele>263</ele>
        <time>2019-04-15T05:46:02Z</time>
      </trkpt>
      <trkpt lat="45.32896" lon="5.05627">
        <ele>262.6</ele>
        <time>2019-04-15T05:46:06Z</time>
      </trkpt>
      <trkpt lat="45.32867" lon="5.05623">
        <ele>262.6</ele>
        <time>2019-04-15T05:46:10Z</time>
      </trkpt>
      <trkpt lat="45.32839" lon="5.05619">
        <ele>262.8</ele>
        <time>2019-04-15T05:46:14Z</time>
      </trkpt>
      <trkpt lat="45.3281" lon="5.05615">
        <ele>262.8</ele>
        <time>2019-04-15T05:46:18Z</time>
      </trkpt>
      <trkpt lat="45.32782" lon="5.05612">
        <ele>262.6</ele>
        <time>2019-04-15T05:46:22Z</time>
      </trkpt>
      <trkpt lat="45.32753" lon="5.05607">
        <ele>263.6</ele>
        <time>2019-04-15T05:46:26Z</time>
      </trkpt>
      <trkpt lat="45.32726" lon="5.05602">
        <ele>263.6</ele>
        <time>2019-04-15T05:46:30Z</time>
      </trkpt>
      <trkpt lat="45.32701" lon="5.05595">
        <ele>264.2</ele>
        <time>2019-04-15T05:46:34Z</time>
      </trkpt>
      <trkpt lat="45.32678" lon="5.05585">
        <ele>265.4</ele>
        <time>2019-04-15T05:46:38Z</time>
      </trkpt>
      <trkpt lat="45.32657" lon="5.05573">
        <ele>265.8</ele>
        <time>2019-04-15T05:46:42Z</time>
      </trkpt>
      <trkpt lat="45.32638" lon="5.05561">
        <ele>267.8</ele>
        <time>2019-04-15T05:46:46Z</time>
      </trkpt>
      <trkpt lat="45.32618" lon="5.05548">
        <ele>268</ele>
        <time>2019-04-15T05:46:50Z</time>
      </trkpt>
      <trkpt lat="45.32601" lon="5.05533">
        <ele>270.2</ele>
        <time>2019-04-15T05:46:54Z</time>
      </trkpt>
      <trkpt lat="45.32584" lon="5.05516">
        <ele>270.8</ele>
        <time>2019-04-15T05:46:58Z</time>
      </trkpt>
      <trkpt lat="45.32567" lon="5.05498">
        <ele>272.2</ele>
        <time>2019-04-15T05:47:02Z</time>
      </trkpt>
      <trkpt lat="45.32552" lon="5.05481">
        <ele>273</ele>
        <time>2019-04-15T05:47:06Z</time>
      </trkpt>
      <trkpt lat="45.32535" lon="5.05464">
        <ele>274</ele>
        <time>2019-04-15T05:47:10Z</time>
      </trkpt>
      <trkpt lat="45.32519" lon="5.05447">
        <ele>275.2</ele>
        <time>2019-04-15T05:47:14Z</time>
      </trkpt>
      <trkpt lat="45.32502" lon="5.0543">
        <ele>276</ele>
        <time>2019-04-15T05:47:18Z</time>
      </trkpt>
      <trkpt lat="45.32482" lon="5.05414">
        <ele>276.2</ele>
        <time>2019-04-15T05:47:22Z</time>
      </trkpt>
      <trkpt lat="45.3246" lon="5.05405">
        <ele>276.6</ele>
        <time>2019-04-15T05:47:26Z</time>
      </trkpt>
      <trkpt lat="45.32435" lon="5.05403">
        <ele>276.4</ele>
        <time>2019-04-15T05:47:30Z</time>
      </trkpt>
      <trkpt lat="45.32412" lon="5.05396">
        <ele>276.6</ele>
        <time>2019-04-15T05:47:34Z</time>
      </trkpt>
      <trkpt lat="45.32405" lon="5.05368">
        <ele>276.8</ele>
        <time>2019-04-15T05:47:38Z</time>
      </trkpt>
      <trkpt lat="45.32398" lon="5.05336">
        <ele>276.2</ele>
        <time>2019-04-15T05:47:42Z</time>
      </trkpt>
      <trkpt lat="45.32378" lon="5.05318">
        <ele>277</ele>
        <time>2019-04-15T05:47:46Z</time>
      </trkpt>
      <trkpt lat="45.32355" lon="5.05315">
        <ele>277</ele>
        <time>2019-04-15T05:47:50Z</time>
      </trkpt>
      <trkpt lat="45.32331" lon="5.05304">
        <ele>277.4</ele>
        <time>2019-04-15T05:47:54Z</time>
      </trkpt>
      <trkpt lat="45.32309" lon="5.05302">
        <ele>278</ele>
        <time>2019-04-15T05:47:58Z</time>
      </trkpt>
      <trkpt lat="45.32288" lon="5.05303">
        <ele>279.6</ele>
        <time>2019-04-15T05:48:02Z</time>
      </trkpt>
      <trkpt lat="45.32266" lon="5.05301">
        <ele>280.6</ele>
        <time>2019-04-15T05:48:06Z</time>
      </trkpt>
      <trkpt lat="45.32246" lon="5.05294">
        <ele>281</ele>
        <time>2019-04-15T05:48:10Z</time>
      </trkpt>
      <trkpt lat="45.32224" lon="5.05286">
        <ele>282.4</ele>
        <time>2019-04-15T05:48:14Z</time>
      </trkpt>
      <trkpt lat="45.32202" lon="5.05276">
        <ele>283.4</ele>
        <time>2019-04-15T05:48:18Z</time>
      </trkpt>
      <trkpt lat="45.32178" lon="5.05266">
        <ele>283</ele>
        <time>2019-04-15T05:48:22Z</time>
      </trkpt>
      <trkpt lat="45.32154" lon="5.05256">
        <ele>283.2</ele>
        <time>2019-04-15T05:48:26Z</time>
      </trkpt>
      <trkpt lat="45.32129" lon="5.05246">
        <ele>283.4</ele>
        <time>2019-04-15T05:48:30Z</time>
      </trkpt>
      <trkpt lat="45.32104" lon="5.05236">
        <ele>283.4</ele>
        <time>2019-04-15T05:48:34Z</time>
      </trkpt>
      <trkpt lat="45.32079" lon="5.05225">
        <ele>283.4</ele>
        <time>2019-04-15T05:48:38Z</time>
      </trkpt>
      <trkpt lat="45.32054" lon="5.05214">
        <ele>283.4</ele>
        <time>2019-04-15T05:48:42Z</time>
      </trkpt>
      <trkpt lat="45.32028" lon="5.05204">
        <ele>283.2</ele>
        <time>2019-04-15T05:48:46Z</time>
      </trkpt>
      <trkpt lat="45.32003" lon="5.05193">
        <ele>283.8</ele>
        <time>2019-04-15T05:48:50Z</time>
      </trkpt>
      <trkpt lat="45.31977" lon="5.05182">
        <ele>283.8</ele>
        <time>2019-04-15T05:48:54Z</time>
      </trkpt>
      <trkpt lat="45.31952" lon="5.05172">
        <ele>284</ele>
        <time>2019-04-15T05:48:58Z</time>
      </trkpt>
      <trkpt lat="45.31926" lon="5.05161">
        <ele>284.4</ele>
        <time>2019-04-15T05:49:02Z</time>
      </trkpt>
      <trkpt lat="45.31901" lon="5.05151">
        <ele>284.2</ele>
        <time>2019-04-15T05:49:06Z</time>
      </trkpt>
      <trkpt lat="45.31876" lon="5.0514">
        <ele>284.8</ele>
        <time>2019-04-15T05:49:10Z</time>
      </trkpt>
      <trkpt lat="45.31852" lon="5.0513">
        <ele>285.2</ele>
        <time>2019-04-15T05:49:14Z</time>
      </trkpt>
      <trkpt lat="45.31827" lon="5.05119">
        <ele>285</ele>
        <time>2019-04-15T05:49:18Z</time>
      </trkpt>
      <trkpt lat="45.31802" lon="5.05108">
        <ele>285</ele>
        <time>2019-04-15T05:49:22Z</time>
      </trkpt>
      <trkpt lat="45.31777" lon="5.05097">
        <ele>285.8</ele>
        <time>2019-04-15T05:49:26Z</time>
      </trkpt>
      <trkpt lat="45.31751" lon="5.05087">
        <ele>286.2</ele>
        <time>2019-04-15T05:49:30Z</time>
      </trkpt>
      <trkpt lat="45.31725" lon="5.05076">
        <ele>285.2</ele>
        <time>2019-04-15T05:49:34Z</time>
      </trkpt>
      <trkpt lat="45.31699" lon="5.05065">
        <ele>285.6</ele>
        <time>2019-04-15T05:49:38Z</time>
      </trkpt>
      <trkpt lat="45.31673" lon="5.05054">
        <ele>285.6</ele>
        <time>2019-04-15T05:49:42Z</time>
      </trkpt>
      <trkpt lat="45.31646" lon="5.05044">
        <ele>285.2</ele>
        <time>2019-04-15T05:49:46Z</time>
      </trkpt>
      <trkpt lat="45.3162" lon="5.05032">
        <ele>285.4</ele>
        <time>2019-04-15T05:49:50Z</time>
      </trkpt>
      <trkpt lat="45.31593" lon="5.05021">
        <ele>285.6</ele>
        <time>2019-04-15T05:49:54Z</time>
      </trkpt>
      <trkpt lat="45.31566" lon="5.0501">
        <ele>285.6</ele>
        <time>2019-04-15T05:49:58Z</time>
      </trkpt>
      <trkpt lat="45.31539" lon="5.04998">
        <ele>286.8</ele>
        <time>2019-04-15T05:50:02Z</time>
      </trkpt>
      <trkpt lat="45.31511" lon="5.04987">
        <ele>285.4</ele>
        <time>2019-04-15T05:50:06Z</time>
      </trkpt>
      <trkpt lat="45.31483" lon="5.04975">
        <ele>285.4</ele>
        <time>2019-04-15T05:50:10Z</time>
      </trkpt>
      <trkpt lat="45.31454" lon="5.04963">
        <ele>285.2</ele>
        <time>2019-04-15T05:50:14Z</time>
      </trkpt>
      <trkpt lat="45.31426" lon="5.04952">
        <ele>285.4</ele>
        <time>2019-04-15T05:50:18Z</time>
      </trkpt>
      <trkpt lat="45.31398" lon="5.0494">
        <ele>285.2</ele>
        <time>2019-04-15T05:50:22Z</time>
      </trkpt>
      <trkpt lat="45.3137" lon="5.04928">
        <ele>285</ele>
        <time>2019-04-15T05:50:26Z</time>
      </trkpt>
      <trkpt lat="45.31342" lon="5.04916">
        <ele>285</ele>
        <time>2019-04-15T05:50:30Z</time>
      </trkpt>
      <trkpt lat="45.31314" lon="5.04904">
        <ele>285</ele>
        <time>2019-04-15T05:50:34Z</time>
      </trkpt>
      <trkpt lat="45.31286" lon="5.04892">
        <ele>285</ele>
        <time>2019-04-15T05:50:38Z</time>
      </trkpt>
      <trkpt lat="45.31257" lon="5.0488">
        <ele>285.2</ele>
        <time>2019-04-15T05:50:42Z</time>
      </trkpt>
      <trkpt lat="45.31228" lon="5.04868">
        <ele>284.8</ele>
        <time>2019-04-15T05:50:46Z</time>
      </trkpt>
      <trkpt lat="45.312" lon="5.04856">
        <ele>285.6</ele>
        <time>2019-04-15T05:50:50Z</time>
      </trkpt>
      <trkpt lat="45.31171" lon="5.04845">
        <ele>284.4</ele>
        <time>2019-04-15T05:50:54Z</time>
      </trkpt>
      <trkpt lat="45.31143" lon="5.04832">
        <ele>284.2</ele>
        <time>2019-04-15T05:50:58Z</time>
      </trkpt>
      <trkpt lat="45.31114" lon="5.04821">
        <ele>284</ele>
        <time>2019-04-15T05:51:02Z</time>
      </trkpt>
      <trkpt lat="45.31085" lon="5.04808">
        <ele>284</ele>
        <time>2019-04-15T05:51:06Z</time>
      </trkpt>
      <trkpt lat="45.31057" lon="5.04796">
        <ele>284.2</ele>
        <time>2019-04-15T05:51:10Z</time>
      </trkpt>
      <trkpt lat="45.31029" lon="5.04784">
        <ele>284.2</ele>
        <time>2019-04-15T05:51:14Z</time>
      </trkpt>
      <trkpt lat="45.31" lon="5.04772">
        <ele>284.4</ele>
        <time>2019-04-15T05:51:18Z</time>
      </trkpt>
      <trkpt lat="45.30972" lon="5.0476">
        <ele>284</ele>
        <time>2019-04-15T05:51:22Z</time>
      </trkpt>
      <trkpt lat="45.30944" lon="5.04748">
        <ele>284</ele>
        <time>2019-04-15T05:51:26Z</time>
      </trkpt>
      <trkpt lat="45.30915" lon="5.04737">
        <ele>284.2</ele>
        <time>2019-04-15T05:51:30Z</time>
      </trkpt>
      <trkpt lat="45.30887" lon="5.04725">
        <ele>284</ele>
        <time>2019-04-15T05:51:34Z</time>
      </trkpt>
      <trkpt lat="45.3086" lon="5.04714">
        <ele>284</ele>
        <time>2019-04-15T05:51:38Z</time>
      </trkpt>
      <trkpt lat="45.30832" lon="5.04702">
        <ele>284</ele>
        <time>2019-04-15T05:51:42Z</time>
      </trkpt>
      <trkpt lat="45.30804" lon="5.0469">
        <ele>284.2</ele>
        <time>2019-04-15T05:51:46Z</time>
      </trkpt>
      <trkpt lat="45.30776" lon="5.04679">
        <ele>284</ele>
        <time>2019-04-15T05:51:50Z</time>
      </trkpt>
      <trkpt lat="45.30748" lon="5.04664">
        <ele>284</ele>
        <time>2019-04-15T05:51:54Z</time>
      </trkpt>
      <trkpt lat="45.3072" lon="5.04649">
        <ele>284</ele>
        <time>2019-04-15T05:51:58Z</time>
      </trkpt>
      <trkpt lat="45.30692" lon="5.04635">
        <ele>283.8</ele>
        <time>2019-04-15T05:52:02Z</time>
      </trkpt>
      <trkpt lat="45.30664" lon="5.0462">
        <ele>283.8</ele>
        <time>2019-04-15T05:52:06Z</time>
      </trkpt>
      <trkpt lat="45.30636" lon="5.04605">
        <ele>284</ele>
        <time>2019-04-15T05:52:10Z</time>
      </trkpt>
      <trkpt lat="45.30609" lon="5.04591">
        <ele>284.2</ele>
        <time>2019-04-15T05:52:14Z</time>
      </trkpt>
      <trkpt lat="45.30581" lon="5.04576">
        <ele>284.2</ele>
        <time>2019-04-15T05:52:18Z</time>
      </trkpt>
      <trkpt lat="45.30554" lon="5.04562">
        <ele>284</ele>
        <time>2019-04-15T05:52:22Z</time>
      </trkpt>
      <trkpt lat="45.30526" lon="5.04548">
        <ele>283.8</ele>
        <time>2019-04-15T05:52:26Z</time>
      </trkpt>
      <trkpt lat="45.30498" lon="5.04533">
        <ele>283.8</ele>
        <time>2019-04-15T05:52:30Z</time>
      </trkpt>
      <trkpt lat="45.30471" lon="5.04518">
        <ele>283.4</ele>
        <time>2019-04-15T05:52:34Z</time>
      </trkpt>
      <trkpt lat="45.30443" lon="5.04503">
        <ele>283.4</ele>
        <time>2019-04-15T05:52:38Z</time>
      </trkpt>
      <trkpt lat="45.30416" lon="5.04487">
        <ele>283</ele>
        <time>2019-04-15T05:52:42Z</time>
      </trkpt>
      <trkpt lat="45.30389" lon="5.0447">
        <ele>283.2</ele>
        <time>2019-04-15T05:52:46Z</time>
      </trkpt>
      <trkpt lat="45.30363" lon="5.04449">
        <ele>282.6</ele>
        <time>2019-04-15T05:52:50Z</time>
      </trkpt>
      <trkpt lat="45.30337" lon="5.04424">
        <ele>281.4</ele>
        <time>2019-04-15T05:52:54Z</time>
      </trkpt>
      <trkpt lat="45.30311" lon="5.04394">
        <ele>279.8</ele>
        <time>2019-04-15T05:52:58Z</time>
      </trkpt>
      <trkpt lat="45.30285" lon="5.04358">
        <ele>278</ele>
        <time>2019-04-15T05:53:02Z</time>
      </trkpt>
      <trkpt lat="45.30261" lon="5.04318">
        <ele>276.8</ele>
        <time>2019-04-15T05:53:06Z</time>
      </trkpt>
      <trkpt lat="45.30241" lon="5.04278">
        <ele>277.2</ele>
        <time>2019-04-15T05:53:10Z</time>
      </trkpt>
      <trkpt lat="45.30223" lon="5.04243">
        <ele>278.6</ele>
        <time>2019-04-15T05:53:14Z</time>
      </trkpt>
      <trkpt lat="45.3021" lon="5.04213">
        <ele>279</ele>
        <time>2019-04-15T05:53:18Z</time>
      </trkpt>
      <trkpt lat="45.30199" lon="5.04186">
        <ele>280.6</ele>
        <time>2019-04-15T05:53:22Z</time>
      </trkpt>
      <trkpt lat="45.30187" lon="5.04159">
        <ele>282.2</ele>
        <time>2019-04-15T05:53:26Z</time>
      </trkpt>
      <trkpt lat="45.30175" lon="5.04132">
        <ele>283.4</ele>
        <time>2019-04-15T05:53:30Z</time>
      </trkpt>
      <trkpt lat="45.30162" lon="5.04104">
        <ele>284</ele>
        <time>2019-04-15T05:53:34Z</time>
      </trkpt>
      <trkpt lat="45.30149" lon="5.04076">
        <ele>284</ele>
        <time>2019-04-15T05:53:38Z</time>
      </trkpt>
      <trkpt lat="45.30134" lon="5.04052">
        <ele>284.2</ele>
        <time>2019-04-15T05:53:42Z</time>
      </trkpt>
      <trkpt lat="45.30115" lon="5.04033">
        <ele>284.8</ele>
        <time>2019-04-15T05:53:46Z</time>
      </trkpt>
      <trkpt lat="45.30094" lon="5.04021">
        <ele>286</ele>
        <time>2019-04-15T05:53:50Z</time>
      </trkpt>
      <trkpt lat="45.30077" lon="5.04005">
        <ele>286.4</ele>
        <time>2019-04-15T05:53:54Z</time>
      </trkpt>
      <trkpt lat="45.30056" lon="5.03997">
        <ele>287.4</ele>
        <time>2019-04-15T05:53:58Z</time>
      </trkpt>
      <trkpt lat="45.30036" lon="5.04008">
        <ele>288.6</ele>
        <time>2019-04-15T05:54:02Z</time>
      </trkpt>
      <trkpt lat="45.30014" lon="5.0401">
        <ele>289</ele>
        <time>2019-04-15T05:54:06Z</time>
      </trkpt>
      <trkpt lat="45.29992" lon="5.04005">
        <ele>289.6</ele>
        <time>2019-04-15T05:54:10Z</time>
      </trkpt>
      <trkpt lat="45.2997" lon="5.03997">
        <ele>290.6</ele>
        <time>2019-04-15T05:54:14Z</time>
      </trkpt>
      <trkpt lat="45.29949" lon="5.03989">
        <ele>291.4</ele>
        <time>2019-04-15T05:54:18Z</time>
      </trkpt>
      <trkpt lat="45.29928" lon="5.03982">
        <ele>292.2</ele>
        <time>2019-04-15T05:54:22Z</time>
      </trkpt>
      <trkpt lat="45.29907" lon="5.03975">
        <ele>292.6</ele>
        <time>2019-04-15T05:54:26Z</time>
      </trkpt>
      <trkpt lat="45.29886" lon="5.03967">
        <ele>293.4</ele>
        <time>2019-04-15T05:54:30Z</time>
      </trkpt>
      <trkpt lat="45.29864" lon="5.03958">
        <ele>293.8</ele>
        <time>2019-04-15T05:54:34Z</time>
      </trkpt>
      <trkpt lat="45.29842" lon="5.03951">
        <ele>294</ele>
        <time>2019-04-15T05:54:38Z</time>
      </trkpt>
      <trkpt lat="45.29819" lon="5.03945">
        <ele>294.8</ele>
        <time>2019-04-15T05:54:42Z</time>
      </trkpt>
      <trkpt lat="45.29796" lon="5.03942">
        <ele>295</ele>
        <time>2019-04-15T05:54:46Z</time>
      </trkpt>
      <trkpt lat="45.29773" lon="5.03944">
        <ele>295.2</ele>
        <time>2019-04-15T05:54:50Z</time>
      </trkpt>
      <trkpt lat="45.29751" lon="5.03948">
        <ele>295.4</ele>
        <time>2019-04-15T05:54:54Z</time>
      </trkpt>
      <trkpt lat="45.29729" lon="5.03958">
        <ele>295.8</ele>
        <time>2019-04-15T05:54:58Z</time>
      </trkpt>
      <trkpt lat="45.29707" lon="5.03971">
        <ele>296</ele>
        <time>2019-04-15T05:55:02Z</time>
      </trkpt>
      <trkpt lat="45.29688" lon="5.03987">
        <ele>295.6</ele>
        <time>2019-04-15T05:55:06Z</time>
      </trkpt>
      <trkpt lat="45.29669" lon="5.04003">
        <ele>296.4</ele>
        <time>2019-04-15T05:55:10Z</time>
      </trkpt>
      <trkpt lat="45.2965" lon="5.04023">
        <ele>296.2</ele>
        <time>2019-04-15T05:55:14Z</time>
      </trkpt>
      <trkpt lat="45.29632" lon="5.04042">
        <ele>297</ele>
        <time>2019-04-15T05:55:18Z</time>
      </trkpt>
      <trkpt lat="45.29614" lon="5.04062">
        <ele>296.8</ele>
        <time>2019-04-15T05:55:22Z</time>
      </trkpt>
      <trkpt lat="45.29594" lon="5.04079">
        <ele>297.4</ele>
        <time>2019-04-15T05:55:26Z</time>
      </trkpt>
      <trkpt lat="45.29575" lon="5.041">
        <ele>298</ele>
        <time>2019-04-15T05:55:30Z</time>
      </trkpt>
      <trkpt lat="45.29556" lon="5.04119">
        <ele>298.4</ele>
        <time>2019-04-15T05:55:34Z</time>
      </trkpt>
      <trkpt lat="45.29536" lon="5.04139">
        <ele>298.4</ele>
        <time>2019-04-15T05:55:38Z</time>
      </trkpt>
      <trkpt lat="45.29517" lon="5.04158">
        <ele>298.4</ele>
        <time>2019-04-15T05:55:42Z</time>
      </trkpt>
      <trkpt lat="45.29498" lon="5.04176">
        <ele>298.8</ele>
        <time>2019-04-15T05:55:46Z</time>
      </trkpt>
      <trkpt lat="45.29478" lon="5.04193">
        <ele>299.6</ele>
        <time>2019-04-15T05:55:50Z</time>
      </trkpt>
      <trkpt lat="45.29458" lon="5.04206">
        <ele>300.6</ele>
        <time>2019-04-15T05:55:54Z</time>
      </trkpt>
      <trkpt lat="45.29438" lon="5.04215">
        <ele>301.2</ele>
        <time>2019-04-15T05:55:58Z</time>
      </trkpt>
      <trkpt lat="45.29418" lon="5.04221">
        <ele>302.4</ele>
        <time>2019-04-15T05:56:02Z</time>
      </trkpt>
      <trkpt lat="45.29398" lon="5.04225">
        <ele>303.6</ele>
        <time>2019-04-15T05:56:06Z</time>
      </trkpt>
      <trkpt lat="45.29379" lon="5.04227">
        <ele>303.8</ele>
        <time>2019-04-15T05:56:10Z</time>
      </trkpt>
      <trkpt lat="45.2936" lon="5.04227">
        <ele>305.4</ele>
        <time>2019-04-15T05:56:14Z</time>
      </trkpt>
      <trkpt lat="45.29341" lon="5.04226">
        <ele>306.2</ele>
        <time>2019-04-15T05:56:18Z</time>
      </trkpt>
      <trkpt lat="45.29321" lon="5.04226">
        <ele>307.4</ele>
        <time>2019-04-15T05:56:22Z</time>
      </trkpt>
      <trkpt lat="45.29304" lon="5.04227">
        <ele>307.8</ele>
        <time>2019-04-15T05:56:26Z</time>
      </trkpt>
      <trkpt lat="45.29288" lon="5.0423">
        <ele>308.6</ele>
        <time>2019-04-15T05:56:30Z</time>
      </trkpt>
      <trkpt lat="45.29276" lon="5.04227">
        <ele>309.6</ele>
        <time>2019-04-15T05:56:34Z</time>
      </trkpt>
      <trkpt lat="45.29271" lon="5.04213">
        <ele>309.4</ele>
        <time>2019-04-15T05:56:38Z</time>
      </trkpt>
      <trkpt lat="45.29266" lon="5.04192">
        <ele>310</ele>
        <time>2019-04-15T05:56:42Z</time>
      </trkpt>
      <trkpt lat="45.29254" lon="5.04183">
        <ele>310.4</ele>
        <time>2019-04-15T05:56:46Z</time>
      </trkpt>
      <trkpt lat="45.29239" lon="5.04178">
        <ele>311</ele>
        <time>2019-04-15T05:56:50Z</time>
      </trkpt>
      <trkpt lat="45.29227" lon="5.04171">
        <ele>311.8</ele>
        <time>2019-04-15T05:56:54Z</time>
      </trkpt>
      <trkpt lat="45.2921" lon="5.04162">
        <ele>312.4</ele>
        <time>2019-04-15T05:56:58Z</time>
      </trkpt>
      <trkpt lat="45.2921" lon="5.04162">
        <ele>312.4</ele>
        <time>2019-04-15T05:57:02Z</time>
      </trkpt>
      <trkpt lat="45.29196" lon="5.04159">
        <ele>313.2</ele>
        <time>2019-04-15T05:57:06Z</time>
      </trkpt>
      <trkpt lat="45.29192" lon="5.04163">
        <ele>313.8</ele>
        <time>2019-04-15T05:57:10Z</time>
      </trkpt>
      <trkpt lat="45.29185" lon="5.04176">
        <ele>314.4</ele>
        <time>2019-04-15T05:57:14Z</time>
      </trkpt>
      <trkpt lat="45.29178" lon="5.0419">
        <ele>314.2</ele>
        <time>2019-04-15T05:57:18Z</time>
      </trkpt>
      <trkpt lat="45.29167" lon="5.04214">
        <ele>314.6</ele>
        <time>2019-04-15T05:57:22Z</time>
      </trkpt>
      <trkpt lat="45.29165" lon="5.0424">
        <ele>315</ele>
        <time>2019-04-15T05:57:26Z</time>
      </trkpt>
      <trkpt lat="45.29156" lon="5.04261">
        <ele>316</ele>
        <time>2019-04-15T05:57:30Z</time>
      </trkpt>
      <trkpt lat="45.29143" lon="5.04268">
        <ele>317</ele>
        <time>2019-04-15T05:57:34Z</time>
      </trkpt>
      <trkpt lat="45.29126" lon="5.04266">
        <ele>318.2</ele>
        <time>2019-04-15T05:57:38Z</time>
      </trkpt>
      <trkpt lat="45.29109" lon="5.04267">
        <ele>319.8</ele>
        <time>2019-04-15T05:57:42Z</time>
      </trkpt>
      <trkpt lat="45.29093" lon="5.04269">
        <ele>321.4</ele>
        <time>2019-04-15T05:57:46Z</time>
      </trkpt>
      <trkpt lat="45.29075" lon="5.04271">
        <ele>321.8</ele>
        <time>2019-04-15T05:57:50Z</time>
      </trkpt>
      <trkpt lat="45.29057" lon="5.04274">
        <ele>322.6</ele>
        <time>2019-04-15T05:57:54Z</time>
      </trkpt>
      <trkpt lat="45.2904" lon="5.04277">
        <ele>323.6</ele>
        <time>2019-04-15T05:57:58Z</time>
      </trkpt>
      <trkpt lat="45.29023" lon="5.04284">
        <ele>325</ele>
        <time>2019-04-15T05:58:02Z</time>
      </trkpt>
      <trkpt lat="45.29007" lon="5.0429">
        <ele>326.4</ele>
        <time>2019-04-15T05:58:06Z</time>
      </trkpt>
      <trkpt lat="45.2899" lon="5.04294">
        <ele>327.2</ele>
        <time>2019-04-15T05:58:10Z</time>
      </trkpt>
      <trkpt lat="45.28973" lon="5.04302">
        <ele>328.6</ele>
        <time>2019-04-15T05:58:14Z</time>
      </trkpt>
      <trkpt lat="45.28956" lon="5.04307">
        <ele>329</ele>
        <time>2019-04-15T05:58:18Z</time>
      </trkpt>
      <trkpt lat="45.2894" lon="5.04314">
        <ele>329.8</ele>
        <time>2019-04-15T05:58:22Z</time>
      </trkpt>
      <trkpt lat="45.28923" lon="5.04319">
        <ele>330.4</ele>
        <time>2019-04-15T05:58:26Z</time>
      </trkpt>
      <trkpt lat="45.28908" lon="5.04327">
        <ele>331.6</ele>
        <time>2019-04-15T05:58:30Z</time>
      </trkpt>
      <trkpt lat="45.28891" lon="5.04332">
        <ele>332.8</ele>
        <time>2019-04-15T05:58:34Z</time>
      </trkpt>
      <trkpt lat="45.28875" lon="5.04339">
        <ele>333.6</ele>
        <time>2019-04-15T05:58:38Z</time>
      </trkpt>
      <trkpt lat="45.2886" lon="5.04346">
        <ele>335.4</ele>
        <time>2019-04-15T05:58:42Z</time>
      </trkpt>
      <trkpt lat="45.28844" lon="5.04351">
        <ele>335.8</ele>
        <time>2019-04-15T05:58:46Z</time>
      </trkpt>
      <trkpt lat="45.28827" lon="5.04357">
        <ele>337.2</ele>
        <time>2019-04-15T05:58:50Z</time>
      </trkpt>
      <trkpt lat="45.2881" lon="5.04364">
        <ele>338.4</ele>
        <time>2019-04-15T05:58:54Z</time>
      </trkpt>
      <trkpt lat="45.28791" lon="5.04367">
        <ele>339.2</ele>
        <time>2019-04-15T05:58:58Z</time>
      </trkpt>
      <trkpt lat="45.28774" lon="5.04366">
        <ele>340.6</ele>
        <time>2019-04-15T05:59:02Z</time>
      </trkpt>
      <trkpt lat="45.28759" lon="5.04354">
        <ele>341.2</ele>
        <time>2019-04-15T05:59:06Z</time>
      </trkpt>
      <trkpt lat="45.28751" lon="5.04332">
        <ele>341.6</ele>
        <time>2019-04-15T05:59:10Z</time>
      </trkpt>
      <trkpt lat="45.28754" lon="5.04306">
        <ele>342.6</ele>
        <time>2019-04-15T05:59:14Z</time>
      </trkpt>
      <trkpt lat="45.28769" lon="5.04291">
        <ele>343.2</ele>
        <time>2019-04-15T05:59:18Z</time>
      </trkpt>
      <trkpt lat="45.28786" lon="5.04286">
        <ele>344.4</ele>
        <time>2019-04-15T05:59:22Z</time>
      </trkpt>
      <trkpt lat="45.28804" lon="5.04281">
        <ele>345</ele>
        <time>2019-04-15T05:59:26Z</time>
      </trkpt>
      <trkpt lat="45.2882" lon="5.04275">
        <ele>346.2</ele>
        <time>2019-04-15T05:59:30Z</time>
      </trkpt>
      <trkpt lat="45.28836" lon="5.04265">
        <ele>347.2</ele>
        <time>2019-04-15T05:59:34Z</time>
      </trkpt>
      <trkpt lat="45.2885" lon="5.04252">
        <ele>349</ele>
        <time>2019-04-15T05:59:38Z</time>
      </trkpt>
      <trkpt lat="45.28863" lon="5.04236">
        <ele>350.2</ele>
        <time>2019-04-15T05:59:42Z</time>
      </trkpt>
      <trkpt lat="45.28877" lon="5.04221">
        <ele>350.8</ele>
        <time>2019-04-15T05:59:46Z</time>
      </trkpt>
      <trkpt lat="45.28891" lon="5.04204">
        <ele>352</ele>
        <time>2019-04-15T05:59:50Z</time>
      </trkpt>
      <trkpt lat="45.28903" lon="5.04187">
        <ele>352.6</ele>
        <time>2019-04-15T05:59:54Z</time>
      </trkpt>
      <trkpt lat="45.28917" lon="5.0417">
        <ele>353.8</ele>
        <time>2019-04-15T05:59:58Z</time>
      </trkpt>
      <trkpt lat="45.2893" lon="5.04153">
        <ele>354.6</ele>
        <time>2019-04-15T06:00:02Z</time>
      </trkpt>
      <trkpt lat="45.28943" lon="5.04137">
        <ele>356</ele>
        <time>2019-04-15T06:00:06Z</time>
      </trkpt>
      <trkpt lat="45.28955" lon="5.0412">
        <ele>357.4</ele>
        <time>2019-04-15T06:00:10Z</time>
      </trkpt>
      <trkpt lat="45.28965" lon="5.04101">
        <ele>358.2</ele>
        <time>2019-04-15T06:00:14Z</time>
      </trkpt>
      <trkpt lat="45.28973" lon="5.04079">
        <ele>359</ele>
        <time>2019-04-15T06:00:18Z</time>
      </trkpt>
      <trkpt lat="45.28979" lon="5.04055">
        <ele>360</ele>
        <time>2019-04-15T06:00:22Z</time>
      </trkpt>
      <trkpt lat="45.28982" lon="5.04031">
        <ele>361</ele>
        <time>2019-04-15T06:00:26Z</time>
      </trkpt>
      <trkpt lat="45.28981" lon="5.04007">
        <ele>362</ele>
        <time>2019-04-15T06:00:30Z</time>
      </trkpt>
      <trkpt lat="45.28977" lon="5.03982">
        <ele>363.2</ele>
        <time>2019-04-15T06:00:34Z</time>
      </trkpt>
      <trkpt lat="45.28971" lon="5.0396">
        <ele>364</ele>
        <time>2019-04-15T06:00:38Z</time>
      </trkpt>
      <trkpt lat="45.28962" lon="5.03938">
        <ele>365.4</ele>
        <time>2019-04-15T06:00:42Z</time>
      </trkpt>
      <trkpt lat="45.28951" lon="5.03916">
        <ele>366</ele>
        <time>2019-04-15T06:00:46Z</time>
      </trkpt>
      <trkpt lat="45.28939" lon="5.03897">
        <ele>366.4</ele>
        <time>2019-04-15T06:00:50Z</time>
      </trkpt>
      <trkpt lat="45.28927" lon="5.03876">
        <ele>367.8</ele>
        <time>2019-04-15T06:00:54Z</time>
      </trkpt>
      <trkpt lat="45.28918" lon="5.03854">
        <ele>369.2</ele>
        <time>2019-04-15T06:00:58Z</time>
      </trkpt>
      <trkpt lat="45.28909" lon="5.03832">
        <ele>370</ele>
        <time>2019-04-15T06:01:02Z</time>
      </trkpt>
      <trkpt lat="45.28898" lon="5.03812">
        <ele>371.2</ele>
        <time>2019-04-15T06:01:06Z</time>
      </trkpt>
      <trkpt lat="45.28884" lon="5.03796">
        <ele>372.6</ele>
        <time>2019-04-15T06:01:10Z</time>
      </trkpt>
      <trkpt lat="45.28868" lon="5.03787">
        <ele>373.4</ele>
        <time>2019-04-15T06:01:14Z</time>
      </trkpt>
      <trkpt lat="45.28851" lon="5.03783">
        <ele>374.8</ele>
        <time>2019-04-15T06:01:18Z</time>
      </trkpt>
      <trkpt lat="45.28834" lon="5.03781">
        <ele>375.6</ele>
        <time>2019-04-15T06:01:22Z</time>
      </trkpt>
      <trkpt lat="45.28816" lon="5.03785">
        <ele>376.8</ele>
        <time>2019-04-15T06:01:26Z</time>
      </trkpt>
      <trkpt lat="45.28799" lon="5.03792">
        <ele>378</ele>
        <time>2019-04-15T06:01:30Z</time>
      </trkpt>
      <trkpt lat="45.28783" lon="5.038">
        <ele>379.2</ele>
        <time>2019-04-15T06:01:34Z</time>
      </trkpt>
      <trkpt lat="45.28766" lon="5.03808">
        <ele>380.2</ele>
        <time>2019-04-15T06:01:38Z</time>
      </trkpt>
      <trkpt lat="45.28749" lon="5.03817">
        <ele>380.6</ele>
        <time>2019-04-15T06:01:42Z</time>
      </trkpt>
      <trkpt lat="45.28733" lon="5.03826">
        <ele>381.4</ele>
        <time>2019-04-15T06:01:46Z</time>
      </trkpt>
      <trkpt lat="45.28716" lon="5.03833">
        <ele>382.6</ele>
        <time>2019-04-15T06:01:50Z</time>
      </trkpt>
      <trkpt lat="45.287" lon="5.0384">
        <ele>384</ele>
        <time>2019-04-15T06:01:54Z</time>
      </trkpt>
      <trkpt lat="45.28682" lon="5.03846">
        <ele>384.6</ele>
        <time>2019-04-15T06:01:58Z</time>
      </trkpt>
      <trkpt lat="45.28666" lon="5.03852">
        <ele>385.6</ele>
        <time>2019-04-15T06:02:02Z</time>
      </trkpt>
      <trkpt lat="45.28648" lon="5.03856">
        <ele>386.4</ele>
        <time>2019-04-15T06:02:06Z</time>
      </trkpt>
      <trkpt lat="45.28632" lon="5.0386">
        <ele>387.6</ele>
        <time>2019-04-15T06:02:10Z</time>
      </trkpt>
      <trkpt lat="45.28616" lon="5.03865">
        <ele>388.6</ele>
        <time>2019-04-15T06:02:14Z</time>
      </trkpt>
      <trkpt lat="45.286" lon="5.0387">
        <ele>390</ele>
        <time>2019-04-15T06:02:18Z</time>
      </trkpt>
      <trkpt lat="45.28583" lon="5.03878">
        <ele>390.6</ele>
        <time>2019-04-15T06:02:22Z</time>
      </trkpt>
      <trkpt lat="45.28566" lon="5.03887">
        <ele>392.4</ele>
        <time>2019-04-15T06:02:26Z</time>
      </trkpt>
      <trkpt lat="45.28549" lon="5.03898">
        <ele>392.8</ele>
        <time>2019-04-15T06:02:30Z</time>
      </trkpt>
      <trkpt lat="45.28533" lon="5.03907">
        <ele>394</ele>
        <time>2019-04-15T06:02:34Z</time>
      </trkpt>
      <trkpt lat="45.28515" lon="5.03909">
        <ele>395.2</ele>
        <time>2019-04-15T06:02:38Z</time>
      </trkpt>
      <trkpt lat="45.28506" lon="5.0389">
        <ele>396.4</ele>
        <time>2019-04-15T06:02:42Z</time>
      </trkpt>
      <trkpt lat="45.28513" lon="5.03867">
        <ele>397</ele>
        <time>2019-04-15T06:02:46Z</time>
      </trkpt>
      <trkpt lat="45.28524" lon="5.0385">
        <ele>398.2</ele>
        <time>2019-04-15T06:02:50Z</time>
      </trkpt>
      <trkpt lat="45.28534" lon="5.03833">
        <ele>399.8</ele>
        <time>2019-04-15T06:02:54Z</time>
      </trkpt>
      <trkpt lat="45.28543" lon="5.03813">
        <ele>400.4</ele>
        <time>2019-04-15T06:02:58Z</time>
      </trkpt>
      <trkpt lat="45.2855" lon="5.03794">
        <ele>401.2</ele>
        <time>2019-04-15T06:03:02Z</time>
      </trkpt>
      <trkpt lat="45.28558" lon="5.03772">
        <ele>402.6</ele>
        <time>2019-04-15T06:03:06Z</time>
      </trkpt>
      <trkpt lat="45.28569" lon="5.03751">
        <ele>403.2</ele>
        <time>2019-04-15T06:03:10Z</time>
      </trkpt>
      <trkpt lat="45.2858" lon="5.0373">
        <ele>404.2</ele>
        <time>2019-04-15T06:03:14Z</time>
      </trkpt>
      <trkpt lat="45.28593" lon="5.03711">
        <ele>405.2</ele>
        <time>2019-04-15T06:03:18Z</time>
      </trkpt>
      <trkpt lat="45.28604" lon="5.03691">
        <ele>406.4</ele>
        <time>2019-04-15T06:03:22Z</time>
      </trkpt>
      <trkpt lat="45.28615" lon="5.03671">
        <ele>407.2</ele>
        <time>2019-04-15T06:03:26Z</time>
      </trkpt>
      <trkpt lat="45.28621" lon="5.03648">
        <ele>407.8</ele>
        <time>2019-04-15T06:03:30Z</time>
      </trkpt>
      <trkpt lat="45.28623" lon="5.03622">
        <ele>409.4</ele>
        <time>2019-04-15T06:03:34Z</time>
      </trkpt>
      <trkpt lat="45.28618" lon="5.03597">
        <ele>410.4</ele>
        <time>2019-04-15T06:03:38Z</time>
      </trkpt>
      <trkpt lat="45.28608" lon="5.03577">
        <ele>411.6</ele>
        <time>2019-04-15T06:03:42Z</time>
      </trkpt>
      <trkpt lat="45.28593" lon="5.03563">
        <ele>412.2</ele>
        <time>2019-04-15T06:03:46Z</time>
      </trkpt>
      <trkpt lat="45.28576" lon="5.03554">
        <ele>413.2</ele>
        <time>2019-04-15T06:03:50Z</time>
      </trkpt>
      <trkpt lat="45.28558" lon="5.0355">
        <ele>414.6</ele>
        <time>2019-04-15T06:03:54Z</time>
      </trkpt>
      <trkpt lat="45.2854" lon="5.03547">
        <ele>415</ele>
        <time>2019-04-15T06:03:58Z</time>
      </trkpt>
      <trkpt lat="45.28522" lon="5.03543">
        <ele>416</ele>
        <time>2019-04-15T06:04:02Z</time>
      </trkpt>
      <trkpt lat="45.28504" lon="5.03541">
        <ele>417.6</ele>
        <time>2019-04-15T06:04:06Z</time>
      </trkpt>
      <trkpt lat="45.28486" lon="5.03536">
        <ele>418.4</ele>
        <time>2019-04-15T06:04:10Z</time>
      </trkpt>
      <trkpt lat="45.28468" lon="5.03532">
        <ele>419.2</ele>
        <time>2019-04-15T06:04:14Z</time>
      </trkpt>
      <trkpt lat="45.28451" lon="5.03529">
        <ele>420</ele>
        <time>2019-04-15T06:04:18Z</time>
      </trkpt>
      <trkpt lat="45.28434" lon="5.03525">
        <ele>421.4</ele>
        <time>2019-04-15T06:04:22Z</time>
      </trkpt>
      <trkpt lat="45.28416" lon="5.03522">
        <ele>422.2</ele>
        <time>2019-04-15T06:04:26Z</time>
      </trkpt>
      <trkpt lat="45.28399" lon="5.03518">
        <ele>423.2</ele>
        <time>2019-04-15T06:04:30Z</time>
      </trkpt>
      <trkpt lat="45.28381" lon="5.03514">
        <ele>424.6</ele>
        <time>2019-04-15T06:04:34Z</time>
      </trkpt>
      <trkpt lat="45.28364" lon="5.03511">
        <ele>425.6</ele>
        <time>2019-04-15T06:04:38Z</time>
      </trkpt>
      <trkpt lat="45.28347" lon="5.03507">
        <ele>426.8</ele>
        <time>2019-04-15T06:04:42Z</time>
      </trkpt>
      <trkpt lat="45.28329" lon="5.03501">
        <ele>427.8</ele>
        <time>2019-04-15T06:04:46Z</time>
      </trkpt>
      <trkpt lat="45.28312" lon="5.03493">
        <ele>428.8</ele>
        <time>2019-04-15T06:04:50Z</time>
      </trkpt>
      <trkpt lat="45.28296" lon="5.03483">
        <ele>429.4</ele>
        <time>2019-04-15T06:04:54Z</time>
      </trkpt>
      <trkpt lat="45.28281" lon="5.03471">
        <ele>430.4</ele>
        <time>2019-04-15T06:04:58Z</time>
      </trkpt>
      <trkpt lat="45.28266" lon="5.03457">
        <ele>431.4</ele>
        <time>2019-04-15T06:05:02Z</time>
      </trkpt>
      <trkpt lat="45.28252" lon="5.03443">
        <ele>432.4</ele>
        <time>2019-04-15T06:05:06Z</time>
      </trkpt>
      <trkpt lat="45.28236" lon="5.03431">
        <ele>433.4</ele>
        <time>2019-04-15T06:05:10Z</time>
      </trkpt>
      <trkpt lat="45.28219" lon="5.03422">
        <ele>433.8</ele>
        <time>2019-04-15T06:05:14Z</time>
      </trkpt>
      <trkpt lat="45.28201" lon="5.03414">
        <ele>434.6</ele>
        <time>2019-04-15T06:05:18Z</time>
      </trkpt>
      <trkpt lat="45.28182" lon="5.03411">
        <ele>435</ele>
        <time>2019-04-15T06:05:22Z</time>
      </trkpt>
      <trkpt lat="45.28161" lon="5.03411">
        <ele>434.8</ele>
        <time>2019-04-15T06:05:26Z</time>
      </trkpt>
      <trkpt lat="45.2814" lon="5.03412">
        <ele>435.4</ele>
        <time>2019-04-15T06:05:30Z</time>
      </trkpt>
      <trkpt lat="45.28119" lon="5.03415">
        <ele>435.2</ele>
        <time>2019-04-15T06:05:34Z</time>
      </trkpt>
      <trkpt lat="45.28097" lon="5.03418">
        <ele>435.8</ele>
        <time>2019-04-15T06:05:38Z</time>
      </trkpt>
      <trkpt lat="45.28075" lon="5.03421">
        <ele>435.8</ele>
        <time>2019-04-15T06:05:42Z</time>
      </trkpt>
      <trkpt lat="45.28052" lon="5.03423">
        <ele>436</ele>
        <time>2019-04-15T06:05:46Z</time>
      </trkpt>
      <trkpt lat="45.28026" lon="5.03426">
        <ele>435.8</ele>
        <time>2019-04-15T06:05:50Z</time>
      </trkpt>
      <trkpt lat="45.27999" lon="5.0343">
        <ele>435</ele>
        <time>2019-04-15T06:05:54Z</time>
      </trkpt>
      <trkpt lat="45.27969" lon="5.03433">
        <ele>434</ele>
        <time>2019-04-15T06:05:58Z</time>
      </trkpt>
      <trkpt lat="45.27937" lon="5.03437">
        <ele>433</ele>
        <time>2019-04-15T06:06:02Z</time>
      </trkpt>
      <trkpt lat="45.27903" lon="5.0344">
        <ele>431.8</ele>
        <time>2019-04-15T06:06:06Z</time>
      </trkpt>
      <trkpt lat="45.27868" lon="5.03444">
        <ele>432</ele>
        <time>2019-04-15T06:06:10Z</time>
      </trkpt>
      <trkpt lat="45.27835" lon="5.03448">
        <ele>432.6</ele>
        <time>2019-04-15T06:06:14Z</time>
      </trkpt>
      <trkpt lat="45.27804" lon="5.03451">
        <ele>433.2</ele>
        <time>2019-04-15T06:06:18Z</time>
      </trkpt>
      <trkpt lat="45.27776" lon="5.03454">
        <ele>433.8</ele>
        <time>2019-04-15T06:06:22Z</time>
      </trkpt>
      <trkpt lat="45.27751" lon="5.03457">
        <ele>434</ele>
        <time>2019-04-15T06:06:26Z</time>
      </trkpt>
      <trkpt lat="45.27725" lon="5.0346">
        <ele>434.8</ele>
        <time>2019-04-15T06:06:30Z</time>
      </trkpt>
      <trkpt lat="45.277" lon="5.03463">
        <ele>436.4</ele>
        <time>2019-04-15T06:06:34Z</time>
      </trkpt>
      <trkpt lat="45.27675" lon="5.03465">
        <ele>436.8</ele>
        <time>2019-04-15T06:06:38Z</time>
      </trkpt>
      <trkpt lat="45.27649" lon="5.03468">
        <ele>438.8</ele>
        <time>2019-04-15T06:06:42Z</time>
      </trkpt>
      <trkpt lat="45.27624" lon="5.0347">
        <ele>438.2</ele>
        <time>2019-04-15T06:06:46Z</time>
      </trkpt>
      <trkpt lat="45.27598" lon="5.03474">
        <ele>439.6</ele>
        <time>2019-04-15T06:06:50Z</time>
      </trkpt>
      <trkpt lat="45.27572" lon="5.03477">
        <ele>439.8</ele>
        <time>2019-04-15T06:06:54Z</time>
      </trkpt>
      <trkpt lat="45.27546" lon="5.0348">
        <ele>440.2</ele>
        <time>2019-04-15T06:06:58Z</time>
      </trkpt>
      <trkpt lat="45.27519" lon="5.03483">
        <ele>440.8</ele>
        <time>2019-04-15T06:07:02Z</time>
      </trkpt>
      <trkpt lat="45.27493" lon="5.03485">
        <ele>441.2</ele>
        <time>2019-04-15T06:07:06Z</time>
      </trkpt>
      <trkpt lat="45.27466" lon="5.03488">
        <ele>441</ele>
        <time>2019-04-15T06:07:10Z</time>
      </trkpt>
      <trkpt lat="45.27437" lon="5.03492">
        <ele>440.4</ele>
        <time>2019-04-15T06:07:14Z</time>
      </trkpt>
      <trkpt lat="45.27404" lon="5.03493">
        <ele>438.2</ele>
        <time>2019-04-15T06:07:18Z</time>
      </trkpt>
      <trkpt lat="45.27369" lon="5.03484">
        <ele>435.8</ele>
        <time>2019-04-15T06:07:22Z</time>
      </trkpt>
      <trkpt lat="45.27333" lon="5.03465">
        <ele>433.2</ele>
        <time>2019-04-15T06:07:26Z</time>
      </trkpt>
      <trkpt lat="45.27295" lon="5.03438">
        <ele>429</ele>
        <time>2019-04-15T06:07:30Z</time>
      </trkpt>
      <trkpt lat="45.27256" lon="5.03402">
        <ele>426.4</ele>
        <time>2019-04-15T06:07:34Z</time>
      </trkpt>
      <trkpt lat="45.2723" lon="5.03347">
        <ele>424.2</ele>
        <time>2019-04-15T06:07:38Z</time>
      </trkpt>
      <trkpt lat="45.27213" lon="5.03286">
        <ele>420.8</ele>
        <time>2019-04-15T06:07:42Z</time>
      </trkpt>
      <trkpt lat="45.27182" lon="5.03232">
        <ele>418</ele>
        <time>2019-04-15T06:07:46Z</time>
      </trkpt>
      <trkpt lat="45.27143" lon="5.0319">
        <ele>414</ele>
        <time>2019-04-15T06:07:50Z</time>
      </trkpt>
      <trkpt lat="45.27098" lon="5.03161">
        <ele>411</ele>
        <time>2019-04-15T06:07:54Z</time>
      </trkpt>
      <trkpt lat="45.27052" lon="5.03138">
        <ele>407.8</ele>
        <time>2019-04-15T06:07:58Z</time>
      </trkpt>
      <trkpt lat="45.27005" lon="5.03114">
        <ele>405.4</ele>
        <time>2019-04-15T06:08:02Z</time>
      </trkpt>
      <trkpt lat="45.26958" lon="5.0309">
        <ele>401.4</ele>
        <time>2019-04-15T06:08:06Z</time>
      </trkpt>
      <trkpt lat="45.26911" lon="5.03066">
        <ele>398.8</ele>
        <time>2019-04-15T06:08:10Z</time>
      </trkpt>
      <trkpt lat="45.26861" lon="5.03046">
        <ele>394.6</ele>
        <time>2019-04-15T06:08:14Z</time>
      </trkpt>
      <trkpt lat="45.26808" lon="5.03024">
        <ele>391</ele>
        <time>2019-04-15T06:08:18Z</time>
      </trkpt>
      <trkpt lat="45.26757" lon="5.02996">
        <ele>388.2</ele>
        <time>2019-04-15T06:08:22Z</time>
      </trkpt>
      <trkpt lat="45.26704" lon="5.02971">
        <ele>384.2</ele>
        <time>2019-04-15T06:08:26Z</time>
      </trkpt>
      <trkpt lat="45.2665" lon="5.02946">
        <ele>380</ele>
        <time>2019-04-15T06:08:30Z</time>
      </trkpt>
      <trkpt lat="45.26599" lon="5.02924">
        <ele>376.6</ele>
        <time>2019-04-15T06:08:34Z</time>
      </trkpt>
      <trkpt lat="45.26549" lon="5.02903">
        <ele>372.6</ele>
        <time>2019-04-15T06:08:38Z</time>
      </trkpt>
      <trkpt lat="45.26497" lon="5.029">
        <ele>371.6</ele>
        <time>2019-04-15T06:08:42Z</time>
      </trkpt>
      <trkpt lat="45.26445" lon="5.02906">
        <ele>368.6</ele>
        <time>2019-04-15T06:08:46Z</time>
      </trkpt>
      <trkpt lat="45.26395" lon="5.02916">
        <ele>364.8</ele>
        <time>2019-04-15T06:08:50Z</time>
      </trkpt>
      <trkpt lat="45.26345" lon="5.02929">
        <ele>361</ele>
        <time>2019-04-15T06:08:54Z</time>
      </trkpt>
      <trkpt lat="45.26294" lon="5.02942">
        <ele>358</ele>
        <time>2019-04-15T06:08:58Z</time>
      </trkpt>
      <trkpt lat="45.26245" lon="5.0293">
        <ele>353.6</ele>
        <time>2019-04-15T06:09:02Z</time>
      </trkpt>
      <trkpt lat="45.26198" lon="5.02912">
        <ele>350.4</ele>
        <time>2019-04-15T06:09:06Z</time>
      </trkpt>
      <trkpt lat="45.26151" lon="5.02889">
        <ele>347.4</ele>
        <time>2019-04-15T06:09:10Z</time>
      </trkpt>
      <trkpt lat="45.261" lon="5.02875">
        <ele>344.2</ele>
        <time>2019-04-15T06:09:14Z</time>
      </trkpt>
      <trkpt lat="45.2605" lon="5.02884">
        <ele>341</ele>
        <time>2019-04-15T06:09:18Z</time>
      </trkpt>
      <trkpt lat="45.26" lon="5.029">
        <ele>337.4</ele>
        <time>2019-04-15T06:09:22Z</time>
      </trkpt>
      <trkpt lat="45.25949" lon="5.02906">
        <ele>333.8</ele>
        <time>2019-04-15T06:09:26Z</time>
      </trkpt>
      <trkpt lat="45.259" lon="5.02894">
        <ele>330.2</ele>
        <time>2019-04-15T06:09:30Z</time>
      </trkpt>
      <trkpt lat="45.25852" lon="5.02879">
        <ele>327.4</ele>
        <time>2019-04-15T06:09:34Z</time>
      </trkpt>
      <trkpt lat="45.25803" lon="5.02852">
        <ele>323.6</ele>
        <time>2019-04-15T06:09:38Z</time>
      </trkpt>
      <trkpt lat="45.25763" lon="5.02822">
        <ele>320.2</ele>
        <time>2019-04-15T06:09:42Z</time>
      </trkpt>
      <trkpt lat="45.25736" lon="5.028">
        <ele>317.6</ele>
        <time>2019-04-15T06:09:46Z</time>
      </trkpt>
      <trkpt lat="45.25726" lon="5.02788">
        <ele>317.6</ele>
        <time>2019-04-15T06:09:50Z</time>
      </trkpt>
      <trkpt lat="45.25708" lon="5.0278">
        <ele>316</ele>
        <time>2019-04-15T06:09:54Z</time>
      </trkpt>
      <trkpt lat="45.25683" lon="5.02762">
        <ele>315.4</ele>
        <time>2019-04-15T06:09:58Z</time>
      </trkpt>
      <trkpt lat="45.25655" lon="5.02739">
        <ele>313.2</ele>
        <time>2019-04-15T06:10:02Z</time>
      </trkpt>
      <trkpt lat="45.25624" lon="5.02711">
        <ele>310.6</ele>
        <time>2019-04-15T06:10:06Z</time>
      </trkpt>
      <trkpt lat="45.25594" lon="5.02677">
        <ele>308.4</ele>
        <time>2019-04-15T06:10:10Z</time>
      </trkpt>
      <trkpt lat="45.25573" lon="5.02636">
        <ele>306.6</ele>
        <time>2019-04-15T06:10:14Z</time>
      </trkpt>
      <trkpt lat="45.25554" lon="5.02595">
        <ele>305.6</ele>
        <time>2019-04-15T06:10:18Z</time>
      </trkpt>
      <trkpt lat="45.25535" lon="5.02554">
        <ele>304.4</ele>
        <time>2019-04-15T06:10:22Z</time>
      </trkpt>
      <trkpt lat="45.25516" lon="5.02515">
        <ele>304.4</ele>
        <time>2019-04-15T06:10:26Z</time>
      </trkpt>
      <trkpt lat="45.25498" lon="5.0248">
        <ele>304.4</ele>
        <time>2019-04-15T06:10:30Z</time>
      </trkpt>
      <trkpt lat="45.25481" lon="5.02446">
        <ele>304.8</ele>
        <time>2019-04-15T06:10:34Z</time>
      </trkpt>
      <trkpt lat="45.25478" lon="5.02417">
        <ele>305.8</ele>
        <time>2019-04-15T06:10:38Z</time>
      </trkpt>
      <trkpt lat="45.25465" lon="5.02405">
        <ele>305.8</ele>
        <time>2019-04-15T06:10:42Z</time>
      </trkpt>
      <trkpt lat="45.25453" lon="5.02428">
        <ele>305</ele>
        <time>2019-04-15T06:10:46Z</time>
      </trkpt>
      <trkpt lat="45.25433" lon="5.0245">
        <ele>304.6</ele>
        <time>2019-04-15T06:10:50Z</time>
      </trkpt>
      <trkpt lat="45.25412" lon="5.02474">
        <ele>304.6</ele>
        <time>2019-04-15T06:10:54Z</time>
      </trkpt>
      <trkpt lat="45.25392" lon="5.02499">
        <ele>305.4</ele>
        <time>2019-04-15T06:10:58Z</time>
      </trkpt>
      <trkpt lat="45.2537" lon="5.02521">
        <ele>305.4</ele>
        <time>2019-04-15T06:11:02Z</time>
      </trkpt>
      <trkpt lat="45.2535" lon="5.02545">
        <ele>305.8</ele>
        <time>2019-04-15T06:11:06Z</time>
      </trkpt>
      <trkpt lat="45.25328" lon="5.0257">
        <ele>305.6</ele>
        <time>2019-04-15T06:11:10Z</time>
      </trkpt>
      <trkpt lat="45.25305" lon="5.02597">
        <ele>305.8</ele>
        <time>2019-04-15T06:11:14Z</time>
      </trkpt>
      <trkpt lat="45.25282" lon="5.02623">
        <ele>306</ele>
        <time>2019-04-15T06:11:18Z</time>
      </trkpt>
      <trkpt lat="45.2526" lon="5.02648">
        <ele>306.4</ele>
        <time>2019-04-15T06:11:22Z</time>
      </trkpt>
      <trkpt lat="45.25238" lon="5.02674">
        <ele>306.6</ele>
        <time>2019-04-15T06:11:26Z</time>
      </trkpt>
      <trkpt lat="45.25217" lon="5.02698">
        <ele>306.6</ele>
        <time>2019-04-15T06:11:30Z</time>
      </trkpt>
      <trkpt lat="45.25196" lon="5.02721">
        <ele>307</ele>
        <time>2019-04-15T06:11:34Z</time>
      </trkpt>
      <trkpt lat="45.25175" lon="5.02744">
        <ele>307.2</ele>
        <time>2019-04-15T06:11:38Z</time>
      </trkpt>
      <trkpt lat="45.25154" lon="5.02767">
        <ele>307</ele>
        <time>2019-04-15T06:11:42Z</time>
      </trkpt>
      <trkpt lat="45.25132" lon="5.02789">
        <ele>307.4</ele>
        <time>2019-04-15T06:11:46Z</time>
      </trkpt>
      <trkpt lat="45.25108" lon="5.02805">
        <ele>307.2</ele>
        <time>2019-04-15T06:11:50Z</time>
      </trkpt>
      <trkpt lat="45.25081" lon="5.02807">
        <ele>307.2</ele>
        <time>2019-04-15T06:11:54Z</time>
      </trkpt>
      <trkpt lat="45.25058" lon="5.02792">
        <ele>308.4</ele>
        <time>2019-04-15T06:11:58Z</time>
      </trkpt>
      <trkpt lat="45.25037" lon="5.02771">
        <ele>308.6</ele>
        <time>2019-04-15T06:12:02Z</time>
      </trkpt>
      <trkpt lat="45.25016" lon="5.0275">
        <ele>310.2</ele>
        <time>2019-04-15T06:12:06Z</time>
      </trkpt>
      <trkpt lat="45.24997" lon="5.0273">
        <ele>310.6</ele>
        <time>2019-04-15T06:12:10Z</time>
      </trkpt>
      <trkpt lat="45.2498" lon="5.02709">
        <ele>311.4</ele>
        <time>2019-04-15T06:12:14Z</time>
      </trkpt>
      <trkpt lat="45.24965" lon="5.02687">
        <ele>312.4</ele>
        <time>2019-04-15T06:12:18Z</time>
      </trkpt>
      <trkpt lat="45.24952" lon="5.02662">
        <ele>313.6</ele>
        <time>2019-04-15T06:12:22Z</time>
      </trkpt>
      <trkpt lat="45.24943" lon="5.02636">
        <ele>314.4</ele>
        <time>2019-04-15T06:12:26Z</time>
      </trkpt>
      <trkpt lat="45.24935" lon="5.02608">
        <ele>314.8</ele>
        <time>2019-04-15T06:12:30Z</time>
      </trkpt>
      <trkpt lat="45.24929" lon="5.0258">
        <ele>315.6</ele>
        <time>2019-04-15T06:12:34Z</time>
      </trkpt>
      <trkpt lat="45.24922" lon="5.02553">
        <ele>316.6</ele>
        <time>2019-04-15T06:12:38Z</time>
      </trkpt>
      <trkpt lat="45.24906" lon="5.02533">
        <ele>317.6</ele>
        <time>2019-04-15T06:12:42Z</time>
      </trkpt>
      <trkpt lat="45.24886" lon="5.02528">
        <ele>318.4</ele>
        <time>2019-04-15T06:12:46Z</time>
      </trkpt>
      <trkpt lat="45.24868" lon="5.02537">
        <ele>319.2</ele>
        <time>2019-04-15T06:12:50Z</time>
      </trkpt>
      <trkpt lat="45.24855" lon="5.02554">
        <ele>321.6</ele>
        <time>2019-04-15T06:12:54Z</time>
      </trkpt>
      <trkpt lat="45.24849" lon="5.02576">
        <ele>323</ele>
        <time>2019-04-15T06:12:58Z</time>
      </trkpt>
      <trkpt lat="45.24848" lon="5.02599">
        <ele>323.6</ele>
        <time>2019-04-15T06:13:02Z</time>
      </trkpt>
      <trkpt lat="45.24851" lon="5.02623">
        <ele>325.6</ele>
        <time>2019-04-15T06:13:06Z</time>
      </trkpt>
      <trkpt lat="45.24853" lon="5.02647">
        <ele>326.6</ele>
        <time>2019-04-15T06:13:10Z</time>
      </trkpt>
      <trkpt lat="45.24856" lon="5.02671">
        <ele>328.2</ele>
        <time>2019-04-15T06:13:14Z</time>
      </trkpt>
      <trkpt lat="45.24858" lon="5.02693">
        <ele>328.8</ele>
        <time>2019-04-15T06:13:18Z</time>
      </trkpt>
      <trkpt lat="45.2486" lon="5.02715">
        <ele>330</ele>
        <time>2019-04-15T06:13:22Z</time>
      </trkpt>
      <trkpt lat="45.24861" lon="5.02737">
        <ele>331.4</ele>
        <time>2019-04-15T06:13:26Z</time>
      </trkpt>
      <trkpt lat="45.24863" lon="5.0276">
        <ele>332.4</ele>
        <time>2019-04-15T06:13:30Z</time>
      </trkpt>
      <trkpt lat="45.2486" lon="5.02781">
        <ele>333.4</ele>
        <time>2019-04-15T06:13:34Z</time>
      </trkpt>
      <trkpt lat="45.24856" lon="5.02802">
        <ele>334.6</ele>
        <time>2019-04-15T06:13:38Z</time>
      </trkpt>
      <trkpt lat="45.24849" lon="5.0282">
        <ele>335.6</ele>
        <time>2019-04-15T06:13:42Z</time>
      </trkpt>
      <trkpt lat="45.24842" lon="5.02838">
        <ele>336.6</ele>
        <time>2019-04-15T06:13:46Z</time>
      </trkpt>
      <trkpt lat="45.24835" lon="5.02857">
        <ele>338.2</ele>
        <time>2019-04-15T06:13:50Z</time>
      </trkpt>
      <trkpt lat="45.24826" lon="5.02876">
        <ele>339.6</ele>
        <time>2019-04-15T06:13:54Z</time>
      </trkpt>
      <trkpt lat="45.24818" lon="5.02894">
        <ele>340.4</ele>
        <time>2019-04-15T06:13:58Z</time>
      </trkpt>
      <trkpt lat="45.24808" lon="5.02906">
        <ele>341.6</ele>
        <time>2019-04-15T06:14:02Z</time>
      </trkpt>
      <trkpt lat="45.24797" lon="5.02918">
        <ele>342.6</ele>
        <time>2019-04-15T06:14:06Z</time>
      </trkpt>
      <trkpt lat="45.24786" lon="5.02927">
        <ele>344</ele>
        <time>2019-04-15T06:14:10Z</time>
      </trkpt>
      <trkpt lat="45.24774" lon="5.02934">
        <ele>345</ele>
        <time>2019-04-15T06:14:14Z</time>
      </trkpt>
      <trkpt lat="45.24763" lon="5.02941">
        <ele>346.2</ele>
        <time>2019-04-15T06:14:18Z</time>
      </trkpt>
      <trkpt lat="45.2475" lon="5.02946">
        <ele>347</ele>
        <time>2019-04-15T06:14:22Z</time>
      </trkpt>
      <trkpt lat="45.24738" lon="5.02952">
        <ele>348.2</ele>
        <time>2019-04-15T06:14:26Z</time>
      </trkpt>
      <trkpt lat="45.24726" lon="5.02958">
        <ele>349.2</ele>
        <time>2019-04-15T06:14:30Z</time>
      </trkpt>
      <trkpt lat="45.24713" lon="5.02964">
        <ele>350.2</ele>
        <time>2019-04-15T06:14:34Z</time>
      </trkpt>
      <trkpt lat="45.24701" lon="5.0297">
        <ele>351.4</ele>
        <time>2019-04-15T06:14:38Z</time>
      </trkpt>
      <trkpt lat="45.24688" lon="5.02978">
        <ele>352.2</ele>
        <time>2019-04-15T06:14:42Z</time>
      </trkpt>
      <trkpt lat="45.24676" lon="5.02988">
        <ele>353.8</ele>
        <time>2019-04-15T06:14:46Z</time>
      </trkpt>
      <trkpt lat="45.24665" lon="5.02999">
        <ele>355.2</ele>
        <time>2019-04-15T06:14:50Z</time>
      </trkpt>
      <trkpt lat="45.24656" lon="5.03012">
        <ele>356</ele>
        <time>2019-04-15T06:14:54Z</time>
      </trkpt>
      <trkpt lat="45.24646" lon="5.03027">
        <ele>356.4</ele>
        <time>2019-04-15T06:14:58Z</time>
      </trkpt>
      <trkpt lat="45.24636" lon="5.03042">
        <ele>358.2</ele>
        <time>2019-04-15T06:15:02Z</time>
      </trkpt>
      <trkpt lat="45.24626" lon="5.03057">
        <ele>358.4</ele>
        <time>2019-04-15T06:15:06Z</time>
      </trkpt>
      <trkpt lat="45.24616" lon="5.03073">
        <ele>359.6</ele>
        <time>2019-04-15T06:15:10Z</time>
      </trkpt>
      <trkpt lat="45.24606" lon="5.03088">
        <ele>360.2</ele>
        <time>2019-04-15T06:15:14Z</time>
      </trkpt>
      <trkpt lat="45.24595" lon="5.03104">
        <ele>361.2</ele>
        <time>2019-04-15T06:15:18Z</time>
      </trkpt>
      <trkpt lat="45.24583" lon="5.03119">
        <ele>362.6</ele>
        <time>2019-04-15T06:15:22Z</time>
      </trkpt>
      <trkpt lat="45.2457" lon="5.03132">
        <ele>363.6</ele>
        <time>2019-04-15T06:15:26Z</time>
      </trkpt>
      <trkpt lat="45.24556" lon="5.03142">
        <ele>364.2</ele>
        <time>2019-04-15T06:15:30Z</time>
      </trkpt>
      <trkpt lat="45.24541" lon="5.03151">
        <ele>365.2</ele>
        <time>2019-04-15T06:15:34Z</time>
      </trkpt>
      <trkpt lat="45.24526" lon="5.03157">
        <ele>366</ele>
        <time>2019-04-15T06:15:38Z</time>
      </trkpt>
      <trkpt lat="45.24512" lon="5.03163">
        <ele>367.8</ele>
        <time>2019-04-15T06:15:42Z</time>
      </trkpt>
      <trkpt lat="45.24496" lon="5.03167">
        <ele>368.4</ele>
        <time>2019-04-15T06:15:46Z</time>
      </trkpt>
      <trkpt lat="45.24481" lon="5.03172">
        <ele>369</ele>
        <time>2019-04-15T06:15:50Z</time>
      </trkpt>
      <trkpt lat="45.24465" lon="5.03177">
        <ele>370.2</ele>
        <time>2019-04-15T06:15:54Z</time>
      </trkpt>
      <trkpt lat="45.24449" lon="5.03182">
        <ele>371.2</ele>
        <time>2019-04-15T06:15:58Z</time>
      </trkpt>
      <trkpt lat="45.24434" lon="5.03186">
        <ele>372</ele>
        <time>2019-04-15T06:16:02Z</time>
      </trkpt>
      <trkpt lat="45.24418" lon="5.03191">
        <ele>373.2</ele>
        <time>2019-04-15T06:16:06Z</time>
      </trkpt>
      <trkpt lat="45.24402" lon="5.03197">
        <ele>374</ele>
        <time>2019-04-15T06:16:10Z</time>
      </trkpt>
      <trkpt lat="45.24387" lon="5.03203">
        <ele>374.6</ele>
        <time>2019-04-15T06:16:14Z</time>
      </trkpt>
      <trkpt lat="45.24373" lon="5.03212">
        <ele>375.8</ele>
        <time>2019-04-15T06:16:18Z</time>
      </trkpt>
      <trkpt lat="45.24359" lon="5.03224">
        <ele>376.4</ele>
        <time>2019-04-15T06:16:22Z</time>
      </trkpt>
      <trkpt lat="45.24346" lon="5.03238">
        <ele>377.4</ele>
        <time>2019-04-15T06:16:26Z</time>
      </trkpt>
      <trkpt lat="45.24333" lon="5.03254">
        <ele>379</ele>
        <time>2019-04-15T06:16:30Z</time>
      </trkpt>
      <trkpt lat="45.24319" lon="5.0327">
        <ele>379.2</ele>
        <time>2019-04-15T06:16:34Z</time>
      </trkpt>
      <trkpt lat="45.24305" lon="5.03283">
        <ele>380.2</ele>
        <time>2019-04-15T06:16:38Z</time>
      </trkpt>
      <trkpt lat="45.24289" lon="5.03291">
        <ele>381.2</ele>
        <time>2019-04-15T06:16:42Z</time>
      </trkpt>
      <trkpt lat="45.24272" lon="5.03296">
        <ele>382.6</ele>
        <time>2019-04-15T06:16:46Z</time>
      </trkpt>
      <trkpt lat="45.24255" lon="5.03298">
        <ele>383.4</ele>
        <time>2019-04-15T06:16:50Z</time>
      </trkpt>
      <trkpt lat="45.24238" lon="5.03299">
        <ele>384.6</ele>
        <time>2019-04-15T06:16:54Z</time>
      </trkpt>
      <trkpt lat="45.24221" lon="5.033">
        <ele>386</ele>
        <time>2019-04-15T06:16:58Z</time>
      </trkpt>
      <trkpt lat="45.24203" lon="5.03301">
        <ele>386.8</ele>
        <time>2019-04-15T06:17:02Z</time>
      </trkpt>
      <trkpt lat="45.24186" lon="5.03303">
        <ele>387.8</ele>
        <time>2019-04-15T06:17:06Z</time>
      </trkpt>
      <trkpt lat="45.24169" lon="5.03304">
        <ele>388.8</ele>
        <time>2019-04-15T06:17:10Z</time>
      </trkpt>
      <trkpt lat="45.24152" lon="5.03305">
        <ele>389.2</ele>
        <time>2019-04-15T06:17:14Z</time>
      </trkpt>
      <trkpt lat="45.24134" lon="5.03307">
        <ele>389.8</ele>
        <time>2019-04-15T06:17:18Z</time>
      </trkpt>
      <trkpt lat="45.24115" lon="5.03309">
        <ele>390</ele>
        <time>2019-04-15T06:17:22Z</time>
      </trkpt>
      <trkpt lat="45.24096" lon="5.0331">
        <ele>390.4</ele>
        <time>2019-04-15T06:17:26Z</time>
      </trkpt>
      <trkpt lat="45.24077" lon="5.03311">
        <ele>390.6</ele>
        <time>2019-04-15T06:17:30Z</time>
      </trkpt>
      <trkpt lat="45.24057" lon="5.03313">
        <ele>390.4</ele>
        <time>2019-04-15T06:17:34Z</time>
      </trkpt>
      <trkpt lat="45.24034" lon="5.03315">
        <ele>391.6</ele>
        <time>2019-04-15T06:17:38Z</time>
      </trkpt>
      <trkpt lat="45.24008" lon="5.03314">
        <ele>391.4</ele>
        <time>2019-04-15T06:17:42Z</time>
      </trkpt>
      <trkpt lat="45.23983" lon="5.03306">
        <ele>391.6</ele>
        <time>2019-04-15T06:17:46Z</time>
      </trkpt>
      <trkpt lat="45.2396" lon="5.03292">
        <ele>392</ele>
        <time>2019-04-15T06:17:50Z</time>
      </trkpt>
      <trkpt lat="45.23938" lon="5.0328">
        <ele>392.6</ele>
        <time>2019-04-15T06:17:54Z</time>
      </trkpt>
      <trkpt lat="45.23915" lon="5.03274">
        <ele>393.6</ele>
        <time>2019-04-15T06:17:58Z</time>
      </trkpt>
      <trkpt lat="45.23892" lon="5.03276">
        <ele>393.8</ele>
        <time>2019-04-15T06:18:02Z</time>
      </trkpt>
      <trkpt lat="45.23869" lon="5.03279">
        <ele>393.8</ele>
        <time>2019-04-15T06:18:06Z</time>
      </trkpt>
      <trkpt lat="45.23846" lon="5.03278">
        <ele>394</ele>
        <time>2019-04-15T06:18:10Z</time>
      </trkpt>
      <trkpt lat="45.23823" lon="5.03272">
        <ele>395.6</ele>
        <time>2019-04-15T06:18:14Z</time>
      </trkpt>
      <trkpt lat="45.23804" lon="5.03262">
        <ele>396.6</ele>
        <time>2019-04-15T06:18:18Z</time>
      </trkpt>
      <trkpt lat="45.23786" lon="5.03248">
        <ele>397.2</ele>
        <time>2019-04-15T06:18:22Z</time>
      </trkpt>
      <trkpt lat="45.23769" lon="5.0323">
        <ele>398.4</ele>
        <time>2019-04-15T06:18:26Z</time>
      </trkpt>
      <trkpt lat="45.23754" lon="5.03207">
        <ele>400.4</ele>
        <time>2019-04-15T06:18:30Z</time>
      </trkpt>
      <trkpt lat="45.23741" lon="5.03185">
        <ele>401</ele>
        <time>2019-04-15T06:18:34Z</time>
      </trkpt>
      <trkpt lat="45.23729" lon="5.03164">
        <ele>402</ele>
        <time>2019-04-15T06:18:38Z</time>
      </trkpt>
      <trkpt lat="45.23716" lon="5.03143">
        <ele>403.4</ele>
        <time>2019-04-15T06:18:42Z</time>
      </trkpt>
      <trkpt lat="45.23701" lon="5.03124">
        <ele>405.2</ele>
        <time>2019-04-15T06:18:46Z</time>
      </trkpt>
      <trkpt lat="45.23685" lon="5.03109">
        <ele>406.2</ele>
        <time>2019-04-15T06:18:50Z</time>
      </trkpt>
      <trkpt lat="45.23669" lon="5.03096">
        <ele>406.6</ele>
        <time>2019-04-15T06:18:54Z</time>
      </trkpt>
      <trkpt lat="45.23653" lon="5.03084">
        <ele>408.2</ele>
        <time>2019-04-15T06:18:58Z</time>
      </trkpt>
      <trkpt lat="45.23637" lon="5.03072">
        <ele>409.6</ele>
        <time>2019-04-15T06:19:02Z</time>
      </trkpt>
      <trkpt lat="45.23622" lon="5.0306">
        <ele>410.4</ele>
        <time>2019-04-15T06:19:06Z</time>
      </trkpt>
      <trkpt lat="45.23607" lon="5.03047">
        <ele>411.6</ele>
        <time>2019-04-15T06:19:10Z</time>
      </trkpt>
      <trkpt lat="45.23592" lon="5.03034">
        <ele>412</ele>
        <time>2019-04-15T06:19:14Z</time>
      </trkpt>
      <trkpt lat="45.23578" lon="5.0302">
        <ele>413.6</ele>
        <time>2019-04-15T06:19:18Z</time>
      </trkpt>
      <trkpt lat="45.23565" lon="5.03005">
        <ele>414.4</ele>
        <time>2019-04-15T06:19:22Z</time>
      </trkpt>
      <trkpt lat="45.23552" lon="5.02988">
        <ele>415.2</ele>
        <time>2019-04-15T06:19:26Z</time>
      </trkpt>
      <trkpt lat="45.23539" lon="5.02971">
        <ele>416.2</ele>
        <time>2019-04-15T06:19:30Z</time>
      </trkpt>
      <trkpt lat="45.23526" lon="5.02954">
        <ele>417.4</ele>
        <time>2019-04-15T06:19:34Z</time>
      </trkpt>
      <trkpt lat="45.23514" lon="5.02938">
        <ele>418.4</ele>
        <time>2019-04-15T06:19:38Z</time>
      </trkpt>
      <trkpt lat="45.235" lon="5.02923">
        <ele>419</ele>
        <time>2019-04-15T06:19:42Z</time>
      </trkpt>
      <trkpt lat="45.23487" lon="5.02908">
        <ele>420.4</ele>
        <time>2019-04-15T06:19:46Z</time>
      </trkpt>
      <trkpt lat="45.23473" lon="5.02895">
        <ele>421.2</ele>
        <time>2019-04-15T06:19:50Z</time>
      </trkpt>
      <trkpt lat="45.2346" lon="5.02884">
        <ele>422.2</ele>
        <time>2019-04-15T06:19:54Z</time>
      </trkpt>
      <trkpt lat="45.23444" lon="5.02874">
        <ele>423</ele>
        <time>2019-04-15T06:19:58Z</time>
      </trkpt>
      <trkpt lat="45.23429" lon="5.02867">
        <ele>424.2</ele>
        <time>2019-04-15T06:20:02Z</time>
      </trkpt>
      <trkpt lat="45.23413" lon="5.02861">
        <ele>425</ele>
        <time>2019-04-15T06:20:06Z</time>
      </trkpt>
      <trkpt lat="45.23396" lon="5.02855">
        <ele>426.2</ele>
        <time>2019-04-15T06:20:10Z</time>
      </trkpt>
      <trkpt lat="45.23379" lon="5.02851">
        <ele>427.4</ele>
        <time>2019-04-15T06:20:14Z</time>
      </trkpt>
      <trkpt lat="45.23362" lon="5.02847">
        <ele>427.8</ele>
        <time>2019-04-15T06:20:18Z</time>
      </trkpt>
      <trkpt lat="45.23346" lon="5.02843">
        <ele>429</ele>
        <time>2019-04-15T06:20:22Z</time>
      </trkpt>
      <trkpt lat="45.23329" lon="5.02837">
        <ele>429.2</ele>
        <time>2019-04-15T06:20:26Z</time>
      </trkpt>
      <trkpt lat="45.23312" lon="5.02834">
        <ele>430.8</ele>
        <time>2019-04-15T06:20:30Z</time>
      </trkpt>
      <trkpt lat="45.23295" lon="5.02829">
        <ele>432</ele>
        <time>2019-04-15T06:20:34Z</time>
      </trkpt>
      <trkpt lat="45.23278" lon="5.02824">
        <ele>432.6</ele>
        <time>2019-04-15T06:20:38Z</time>
      </trkpt>
      <trkpt lat="45.23262" lon="5.02817">
        <ele>433.2</ele>
        <time>2019-04-15T06:20:42Z</time>
      </trkpt>
      <trkpt lat="45.23245" lon="5.02811">
        <ele>434.4</ele>
        <time>2019-04-15T06:20:46Z</time>
      </trkpt>
      <trkpt lat="45.23228" lon="5.02805">
        <ele>435.4</ele>
        <time>2019-04-15T06:20:50Z</time>
      </trkpt>
      <trkpt lat="45.23211" lon="5.02798">
        <ele>436.2</ele>
        <time>2019-04-15T06:20:54Z</time>
      </trkpt>
      <trkpt lat="45.23194" lon="5.02791">
        <ele>437.2</ele>
        <time>2019-04-15T06:20:58Z</time>
      </trkpt>
      <trkpt lat="45.23178" lon="5.02781">
        <ele>438.8</ele>
        <time>2019-04-15T06:21:02Z</time>
      </trkpt>
      <trkpt lat="45.23162" lon="5.0277">
        <ele>439.4</ele>
        <time>2019-04-15T06:21:06Z</time>
      </trkpt>
      <trkpt lat="45.23147" lon="5.02756">
        <ele>440.8</ele>
        <time>2019-04-15T06:21:10Z</time>
      </trkpt>
      <trkpt lat="45.23135" lon="5.0274">
        <ele>441</ele>
        <time>2019-04-15T06:21:14Z</time>
      </trkpt>
      <trkpt lat="45.23123" lon="5.02721">
        <ele>442</ele>
        <time>2019-04-15T06:21:18Z</time>
      </trkpt>
      <trkpt lat="45.23111" lon="5.02701">
        <ele>443.2</ele>
        <time>2019-04-15T06:21:22Z</time>
      </trkpt>
      <trkpt lat="45.231" lon="5.02682">
        <ele>444.4</ele>
        <time>2019-04-15T06:21:26Z</time>
      </trkpt>
      <trkpt lat="45.23089" lon="5.02664">
        <ele>445.2</ele>
        <time>2019-04-15T06:21:30Z</time>
      </trkpt>
      <trkpt lat="45.23076" lon="5.02648">
        <ele>446.2</ele>
        <time>2019-04-15T06:21:34Z</time>
      </trkpt>
      <trkpt lat="45.23063" lon="5.02633">
        <ele>447.4</ele>
        <time>2019-04-15T06:21:38Z</time>
      </trkpt>
      <trkpt lat="45.23048" lon="5.02619">
        <ele>448.2</ele>
        <time>2019-04-15T06:21:42Z</time>
      </trkpt>
      <trkpt lat="45.23033" lon="5.02606">
        <ele>449</ele>
        <time>2019-04-15T06:21:46Z</time>
      </trkpt>
      <trkpt lat="45.23018" lon="5.02594">
        <ele>450.4</ele>
        <time>2019-04-15T06:21:50Z</time>
      </trkpt>
      <trkpt lat="45.23003" lon="5.02582">
        <ele>451.2</ele>
        <time>2019-04-15T06:21:54Z</time>
      </trkpt>
      <trkpt lat="45.22988" lon="5.0257">
        <ele>452</ele>
        <time>2019-04-15T06:21:58Z</time>
      </trkpt>
      <trkpt lat="45.22973" lon="5.02559">
        <ele>453.4</ele>
        <time>2019-04-15T06:22:02Z</time>
      </trkpt>
      <trkpt lat="45.22957" lon="5.02548">
        <ele>454.4</ele>
        <time>2019-04-15T06:22:06Z</time>
      </trkpt>
      <trkpt lat="45.22941" lon="5.02541">
        <ele>455</ele>
        <time>2019-04-15T06:22:10Z</time>
      </trkpt>
      <trkpt lat="45.22924" lon="5.02533">
        <ele>455.8</ele>
        <time>2019-04-15T06:22:14Z</time>
      </trkpt>
      <trkpt lat="45.22907" lon="5.0253">
        <ele>456.6</ele>
        <time>2019-04-15T06:22:18Z</time>
      </trkpt>
      <trkpt lat="45.22889" lon="5.0253">
        <ele>458.6</ele>
        <time>2019-04-15T06:22:22Z</time>
      </trkpt>
      <trkpt lat="45.22871" lon="5.02532">
        <ele>459.4</ele>
        <time>2019-04-15T06:22:26Z</time>
      </trkpt>
      <trkpt lat="45.22853" lon="5.02537">
        <ele>459.8</ele>
        <time>2019-04-15T06:22:30Z</time>
      </trkpt>
      <trkpt lat="45.22836" lon="5.02541">
        <ele>460.8</ele>
        <time>2019-04-15T06:22:34Z</time>
      </trkpt>
      <trkpt lat="45.22819" lon="5.02546">
        <ele>462.2</ele>
        <time>2019-04-15T06:22:38Z</time>
      </trkpt>
      <trkpt lat="45.22802" lon="5.0255">
        <ele>463.2</ele>
        <time>2019-04-15T06:22:42Z</time>
      </trkpt>
      <trkpt lat="45.22784" lon="5.02555">
        <ele>464.2</ele>
        <time>2019-04-15T06:22:46Z</time>
      </trkpt>
      <trkpt lat="45.22767" lon="5.02559">
        <ele>464.8</ele>
        <time>2019-04-15T06:22:50Z</time>
      </trkpt>
      <trkpt lat="45.2275" lon="5.02563">
        <ele>466</ele>
        <time>2019-04-15T06:22:54Z</time>
      </trkpt>
      <trkpt lat="45.22732" lon="5.02567">
        <ele>467</ele>
        <time>2019-04-15T06:22:58Z</time>
      </trkpt>
      <trkpt lat="45.22714" lon="5.02569">
        <ele>467.8</ele>
        <time>2019-04-15T06:23:02Z</time>
      </trkpt>
      <trkpt lat="45.22696" lon="5.02572">
        <ele>468.6</ele>
        <time>2019-04-15T06:23:06Z</time>
      </trkpt>
      <trkpt lat="45.22678" lon="5.02574">
        <ele>469.8</ele>
        <time>2019-04-15T06:23:10Z</time>
      </trkpt>
      <trkpt lat="45.2266" lon="5.02576">
        <ele>470.6</ele>
        <time>2019-04-15T06:23:14Z</time>
      </trkpt>
      <trkpt lat="45.22643" lon="5.02578">
        <ele>471</ele>
        <time>2019-04-15T06:23:18Z</time>
      </trkpt>
      <trkpt lat="45.22625" lon="5.02583">
        <ele>473.2</ele>
        <time>2019-04-15T06:23:22Z</time>
      </trkpt>
      <trkpt lat="45.22608" lon="5.02591">
        <ele>474.2</ele>
        <time>2019-04-15T06:23:26Z</time>
      </trkpt>
      <trkpt lat="45.22592" lon="5.02603">
        <ele>474.8</ele>
        <time>2019-04-15T06:23:30Z</time>
      </trkpt>
      <trkpt lat="45.22578" lon="5.02618">
        <ele>476.2</ele>
        <time>2019-04-15T06:23:34Z</time>
      </trkpt>
      <trkpt lat="45.22565" lon="5.02637">
        <ele>476.8</ele>
        <time>2019-04-15T06:23:38Z</time>
      </trkpt>
      <trkpt lat="45.22553" lon="5.02658">
        <ele>477.8</ele>
        <time>2019-04-15T06:23:42Z</time>
      </trkpt>
      <trkpt lat="45.22542" lon="5.02679">
        <ele>478.6</ele>
        <time>2019-04-15T06:23:46Z</time>
      </trkpt>
      <trkpt lat="45.22531" lon="5.027">
        <ele>479.4</ele>
        <time>2019-04-15T06:23:50Z</time>
      </trkpt>
      <trkpt lat="45.2252" lon="5.0272">
        <ele>480.4</ele>
        <time>2019-04-15T06:23:54Z</time>
      </trkpt>
      <trkpt lat="45.22509" lon="5.02741">
        <ele>482</ele>
        <time>2019-04-15T06:23:58Z</time>
      </trkpt>
      <trkpt lat="45.22498" lon="5.02762">
        <ele>482.4</ele>
        <time>2019-04-15T06:24:02Z</time>
      </trkpt>
      <trkpt lat="45.22485" lon="5.02781">
        <ele>483.2</ele>
        <time>2019-04-15T06:24:06Z</time>
      </trkpt>
      <trkpt lat="45.22469" lon="5.02797">
        <ele>483.4</ele>
        <time>2019-04-15T06:24:10Z</time>
      </trkpt>
      <trkpt lat="45.22452" lon="5.02808">
        <ele>483.8</ele>
        <time>2019-04-15T06:24:14Z</time>
      </trkpt>
      <trkpt lat="45.22434" lon="5.02814">
        <ele>484.4</ele>
        <time>2019-04-15T06:24:18Z</time>
      </trkpt>
      <trkpt lat="45.22415" lon="5.02818">
        <ele>485.2</ele>
        <time>2019-04-15T06:24:22Z</time>
      </trkpt>
      <trkpt lat="45.22395" lon="5.02821">
        <ele>485.8</ele>
        <time>2019-04-15T06:24:26Z</time>
      </trkpt>
      <trkpt lat="45.22375" lon="5.02824">
        <ele>486.2</ele>
        <time>2019-04-15T06:24:30Z</time>
      </trkpt>
      <trkpt lat="45.22354" lon="5.02827">
        <ele>486.2</ele>
        <time>2019-04-15T06:24:34Z</time>
      </trkpt>
      <trkpt lat="45.22333" lon="5.0283">
        <ele>486.6</ele>
        <time>2019-04-15T06:24:38Z</time>
      </trkpt>
      <trkpt lat="45.22311" lon="5.02834">
        <ele>487</ele>
        <time>2019-04-15T06:24:42Z</time>
      </trkpt>
      <trkpt lat="45.22289" lon="5.02837">
        <ele>487</ele>
        <time>2019-04-15T06:24:46Z</time>
      </trkpt>
      <trkpt lat="45.22267" lon="5.02841">
        <ele>487.2</ele>
        <time>2019-04-15T06:24:50Z</time>
      </trkpt>
      <trkpt lat="45.22245" lon="5.02845">
        <ele>488.2</ele>
        <time>2019-04-15T06:24:54Z</time>
      </trkpt>
      <trkpt lat="45.22223" lon="5.0285">
        <ele>488.8</ele>
        <time>2019-04-15T06:24:58Z</time>
      </trkpt>
      <trkpt lat="45.22201" lon="5.02857">
        <ele>488.8</ele>
        <time>2019-04-15T06:25:02Z</time>
      </trkpt>
      <trkpt lat="45.2218" lon="5.02866">
        <ele>489</ele>
        <time>2019-04-15T06:25:06Z</time>
      </trkpt>
      <trkpt lat="45.22159" lon="5.02878">
        <ele>489.4</ele>
        <time>2019-04-15T06:25:10Z</time>
      </trkpt>
      <trkpt lat="45.22138" lon="5.02892">
        <ele>489.8</ele>
        <time>2019-04-15T06:25:14Z</time>
      </trkpt>
      <trkpt lat="45.22118" lon="5.0291">
        <ele>490</ele>
        <time>2019-04-15T06:25:18Z</time>
      </trkpt>
      <trkpt lat="45.22099" lon="5.02928">
        <ele>490.4</ele>
        <time>2019-04-15T06:25:22Z</time>
      </trkpt>
      <trkpt lat="45.2208" lon="5.02946">
        <ele>490.4</ele>
        <time>2019-04-15T06:25:26Z</time>
      </trkpt>
      <trkpt lat="45.22061" lon="5.02963">
        <ele>490.8</ele>
        <time>2019-04-15T06:25:30Z</time>
      </trkpt>
      <trkpt lat="45.22042" lon="5.02981">
        <ele>490.8</ele>
        <time>2019-04-15T06:25:34Z</time>
      </trkpt>
      <trkpt lat="45.22023" lon="5.02999">
        <ele>491.4</ele>
        <time>2019-04-15T06:25:38Z</time>
      </trkpt>
      <trkpt lat="45.22004" lon="5.03018">
        <ele>491.4</ele>
        <time>2019-04-15T06:25:42Z</time>
      </trkpt>
      <trkpt lat="45.21984" lon="5.03038">
        <ele>492</ele>
        <time>2019-04-15T06:25:46Z</time>
      </trkpt>
      <trkpt lat="45.21963" lon="5.03056">
        <ele>491.6</ele>
        <time>2019-04-15T06:25:50Z</time>
      </trkpt>
      <trkpt lat="45.21941" lon="5.03073">
        <ele>491.8</ele>
        <time>2019-04-15T06:25:54Z</time>
      </trkpt>
      <trkpt lat="45.21917" lon="5.03087">
        <ele>491.4</ele>
        <time>2019-04-15T06:25:58Z</time>
      </trkpt>
      <trkpt lat="45.21892" lon="5.03097">
        <ele>492</ele>
        <time>2019-04-15T06:26:02Z</time>
      </trkpt>
      <trkpt lat="45.21867" lon="5.03105">
        <ele>491.6</ele>
        <time>2019-04-15T06:26:06Z</time>
      </trkpt>
      <trkpt lat="45.21842" lon="5.03111">
        <ele>491.6</ele>
        <time>2019-04-15T06:26:10Z</time>
      </trkpt>
      <trkpt lat="45.21818" lon="5.03117">
        <ele>491.4</ele>
        <time>2019-04-15T06:26:14Z</time>
      </trkpt>
      <trkpt lat="45.21792" lon="5.03123">
        <ele>491.6</ele>
        <time>2019-04-15T06:26:18Z</time>
      </trkpt>
      <trkpt lat="45.21766" lon="5.0313">
        <ele>491.4</ele>
        <time>2019-04-15T06:26:22Z</time>
      </trkpt>
      <trkpt lat="45.2174" lon="5.03136">
        <ele>491.8</ele>
        <time>2019-04-15T06:26:26Z</time>
      </trkpt>
      <trkpt lat="45.21714" lon="5.03141">
        <ele>491.4</ele>
        <time>2019-04-15T06:26:30Z</time>
      </trkpt>
      <trkpt lat="45.21687" lon="5.0315">
        <ele>491.6</ele>
        <time>2019-04-15T06:26:34Z</time>
      </trkpt>
      <trkpt lat="45.21659" lon="5.03153">
        <ele>491.4</ele>
        <time>2019-04-15T06:26:38Z</time>
      </trkpt>
      <trkpt lat="45.21631" lon="5.0315">
        <ele>491.8</ele>
        <time>2019-04-15T06:26:42Z</time>
      </trkpt>
      <trkpt lat="45.21604" lon="5.03143">
        <ele>492.2</ele>
        <time>2019-04-15T06:26:46Z</time>
      </trkpt>
      <trkpt lat="45.21578" lon="5.03135">
        <ele>491.6</ele>
        <time>2019-04-15T06:26:50Z</time>
      </trkpt>
      <trkpt lat="45.21551" lon="5.03126">
        <ele>491.6</ele>
        <time>2019-04-15T06:26:54Z</time>
      </trkpt>
      <trkpt lat="45.21523" lon="5.03117">
        <ele>491.8</ele>
        <time>2019-04-15T06:26:58Z</time>
      </trkpt>
      <trkpt lat="45.21495" lon="5.03111">
        <ele>491</ele>
        <time>2019-04-15T06:27:02Z</time>
      </trkpt>
      <trkpt lat="45.21465" lon="5.03111">
        <ele>490.4</ele>
        <time>2019-04-15T06:27:06Z</time>
      </trkpt>
      <trkpt lat="45.21433" lon="5.03119">
        <ele>488.8</ele>
        <time>2019-04-15T06:27:10Z</time>
      </trkpt>
      <trkpt lat="45.21399" lon="5.03131">
        <ele>487.6</ele>
        <time>2019-04-15T06:27:14Z</time>
      </trkpt>
      <trkpt lat="45.21362" lon="5.03142">
        <ele>485.4</ele>
        <time>2019-04-15T06:27:18Z</time>
      </trkpt>
      <trkpt lat="45.21323" lon="5.03154">
        <ele>483</ele>
        <time>2019-04-15T06:27:22Z</time>
      </trkpt>
      <trkpt lat="45.2128" lon="5.03157">
        <ele>480.4</ele>
        <time>2019-04-15T06:27:26Z</time>
      </trkpt>
      <trkpt lat="45.21237" lon="5.03142">
        <ele>477.6</ele>
        <time>2019-04-15T06:27:30Z</time>
      </trkpt>
      <trkpt lat="45.21191" lon="5.03123">
        <ele>475.8</ele>
        <time>2019-04-15T06:27:34Z</time>
      </trkpt>
      <trkpt lat="45.21145" lon="5.03103">
        <ele>472.6</ele>
        <time>2019-04-15T06:27:38Z</time>
      </trkpt>
      <trkpt lat="45.21097" lon="5.03086">
        <ele>469.8</ele>
        <time>2019-04-15T06:27:42Z</time>
      </trkpt>
      <trkpt lat="45.21049" lon="5.0309">
        <ele>467</ele>
        <time>2019-04-15T06:27:46Z</time>
      </trkpt>
      <trkpt lat="45.21001" lon="5.03109">
        <ele>464.6</ele>
        <time>2019-04-15T06:27:50Z</time>
      </trkpt>
      <trkpt lat="45.20954" lon="5.03128">
        <ele>461.6</ele>
        <time>2019-04-15T06:27:54Z</time>
      </trkpt>
      <trkpt lat="45.20909" lon="5.03149">
        <ele>459</ele>
        <time>2019-04-15T06:27:58Z</time>
      </trkpt>
      <trkpt lat="45.20875" lon="5.03196">
        <ele>455.6</ele>
        <time>2019-04-15T06:28:02Z</time>
      </trkpt>
      <trkpt lat="45.20861" lon="5.03263">
        <ele>455.6</ele>
        <time>2019-04-15T06:28:06Z</time>
      </trkpt>
      <trkpt lat="45.20858" lon="5.03325">
        <ele>454.6</ele>
        <time>2019-04-15T06:28:10Z</time>
      </trkpt>
      <trkpt lat="45.20873" lon="5.03379">
        <ele>454</ele>
        <time>2019-04-15T06:28:14Z</time>
      </trkpt>
      <trkpt lat="45.20879" lon="5.03434">
        <ele>453.6</ele>
        <time>2019-04-15T06:28:18Z</time>
      </trkpt>
      <trkpt lat="45.20859" lon="5.03481">
        <ele>451.8</ele>
        <time>2019-04-15T06:28:22Z</time>
      </trkpt>
      <trkpt lat="45.20823" lon="5.03506">
        <ele>450.6</ele>
        <time>2019-04-15T06:28:26Z</time>
      </trkpt>
      <trkpt lat="45.20784" lon="5.03525">
        <ele>448.8</ele>
        <time>2019-04-15T06:28:30Z</time>
      </trkpt>
      <trkpt lat="45.20743" lon="5.03545">
        <ele>447.2</ele>
        <time>2019-04-15T06:28:34Z</time>
      </trkpt>
      <trkpt lat="45.20702" lon="5.03566">
        <ele>445.2</ele>
        <time>2019-04-15T06:28:38Z</time>
      </trkpt>
      <trkpt lat="45.2066" lon="5.03587">
        <ele>443.6</ele>
        <time>2019-04-15T06:28:42Z</time>
      </trkpt>
      <trkpt lat="45.20617" lon="5.03605">
        <ele>440.6</ele>
        <time>2019-04-15T06:28:46Z</time>
      </trkpt>
      <trkpt lat="45.20572" lon="5.03611">
        <ele>438.6</ele>
        <time>2019-04-15T06:28:50Z</time>
      </trkpt>
      <trkpt lat="45.20525" lon="5.03603">
        <ele>436.4</ele>
        <time>2019-04-15T06:28:54Z</time>
      </trkpt>
      <trkpt lat="45.20477" lon="5.03594">
        <ele>434.2</ele>
        <time>2019-04-15T06:28:58Z</time>
      </trkpt>
      <trkpt lat="45.20428" lon="5.03589">
        <ele>433</ele>
        <time>2019-04-15T06:29:02Z</time>
      </trkpt>
      <trkpt lat="45.20384" lon="5.03607">
        <ele>431</ele>
        <time>2019-04-15T06:29:06Z</time>
      </trkpt>
      <trkpt lat="45.20346" lon="5.03644">
        <ele>429.4</ele>
        <time>2019-04-15T06:29:10Z</time>
      </trkpt>
      <trkpt lat="45.20309" lon="5.0368">
        <ele>428.2</ele>
        <time>2019-04-15T06:29:14Z</time>
      </trkpt>
      <trkpt lat="45.20272" lon="5.03716">
        <ele>427.2</ele>
        <time>2019-04-15T06:29:18Z</time>
      </trkpt>
      <trkpt lat="45.20235" lon="5.03751">
        <ele>425.6</ele>
        <time>2019-04-15T06:29:22Z</time>
      </trkpt>
      <trkpt lat="45.20197" lon="5.03788">
        <ele>424.2</ele>
        <time>2019-04-15T06:29:26Z</time>
      </trkpt>
      <trkpt lat="45.20159" lon="5.03826">
        <ele>421.4</ele>
        <time>2019-04-15T06:29:30Z</time>
      </trkpt>
      <trkpt lat="45.20119" lon="5.03864">
        <ele>419.4</ele>
        <time>2019-04-15T06:29:34Z</time>
      </trkpt>
      <trkpt lat="45.2008" lon="5.03904">
        <ele>417.2</ele>
        <time>2019-04-15T06:29:38Z</time>
      </trkpt>
      <trkpt lat="45.2004" lon="5.03943">
        <ele>414.6</ele>
        <time>2019-04-15T06:29:42Z</time>
      </trkpt>
      <trkpt lat="45.20009" lon="5.03993">
        <ele>412.4</ele>
        <time>2019-04-15T06:29:46Z</time>
      </trkpt>
      <trkpt lat="45.20009" lon="5.04057">
        <ele>409.8</ele>
        <time>2019-04-15T06:29:50Z</time>
      </trkpt>
      <trkpt lat="45.20035" lon="5.04106">
        <ele>408.4</ele>
        <time>2019-04-15T06:29:54Z</time>
      </trkpt>
      <trkpt lat="45.20053" lon="5.04156">
        <ele>405.4</ele>
        <time>2019-04-15T06:29:58Z</time>
      </trkpt>
      <trkpt lat="45.20039" lon="5.04212">
        <ele>402.2</ele>
        <time>2019-04-15T06:30:02Z</time>
      </trkpt>
      <trkpt lat="45.19997" lon="5.04234">
        <ele>401.2</ele>
        <time>2019-04-15T06:30:06Z</time>
      </trkpt>
      <trkpt lat="45.19953" lon="5.04205">
        <ele>398.2</ele>
        <time>2019-04-15T06:30:10Z</time>
      </trkpt>
      <trkpt lat="45.19915" lon="5.04159">
        <ele>395.4</ele>
        <time>2019-04-15T06:30:14Z</time>
      </trkpt>
      <trkpt lat="45.19875" lon="5.04112">
        <ele>392</ele>
        <time>2019-04-15T06:30:18Z</time>
      </trkpt>
      <trkpt lat="45.19832" lon="5.04067">
        <ele>387.6</ele>
        <time>2019-04-15T06:30:22Z</time>
      </trkpt>
      <trkpt lat="45.19782" lon="5.04043">
        <ele>384.4</ele>
        <time>2019-04-15T06:30:26Z</time>
      </trkpt>
      <trkpt lat="45.19728" lon="5.04038">
        <ele>380.4</ele>
        <time>2019-04-15T06:30:30Z</time>
      </trkpt>
      <trkpt lat="45.19673" lon="5.04037">
        <ele>376.6</ele>
        <time>2019-04-15T06:30:34Z</time>
      </trkpt>
      <trkpt lat="45.19621" lon="5.04059">
        <ele>373.4</ele>
        <time>2019-04-15T06:30:38Z</time>
      </trkpt>
      <trkpt lat="45.19586" lon="5.04113">
        <ele>370.4</ele>
        <time>2019-04-15T06:30:42Z</time>
      </trkpt>
      <trkpt lat="45.19577" lon="5.04183">
        <ele>368.6</ele>
        <time>2019-04-15T06:30:46Z</time>
      </trkpt>
      <trkpt lat="45.19578" lon="5.04254">
        <ele>364.8</ele>
        <time>2019-04-15T06:30:50Z</time>
      </trkpt>
      <trkpt lat="45.19579" lon="5.04322">
        <ele>362</ele>
        <time>2019-04-15T06:30:54Z</time>
      </trkpt>
      <trkpt lat="45.19581" lon="5.04388">
        <ele>358.6</ele>
        <time>2019-04-15T06:30:58Z</time>
      </trkpt>
      <trkpt lat="45.19578" lon="5.04454">
        <ele>356.4</ele>
        <time>2019-04-15T06:31:02Z</time>
      </trkpt>
      <trkpt lat="45.19544" lon="5.04486">
        <ele>353.4</ele>
        <time>2019-04-15T06:31:06Z</time>
      </trkpt>
      <trkpt lat="45.195" lon="5.04473">
        <ele>350.8</ele>
        <time>2019-04-15T06:31:10Z</time>
      </trkpt>
      <trkpt lat="45.19456" lon="5.04455">
        <ele>348.2</ele>
        <time>2019-04-15T06:31:14Z</time>
      </trkpt>
      <trkpt lat="45.19409" lon="5.04446">
        <ele>346</ele>
        <time>2019-04-15T06:31:18Z</time>
      </trkpt>
      <trkpt lat="45.1937" lon="5.04478">
        <ele>344</ele>
        <time>2019-04-15T06:31:22Z</time>
      </trkpt>
      <trkpt lat="45.19343" lon="5.04531">
        <ele>341.6</ele>
        <time>2019-04-15T06:31:26Z</time>
      </trkpt>
      <trkpt lat="45.19317" lon="5.04585">
        <ele>340.2</ele>
        <time>2019-04-15T06:31:30Z</time>
      </trkpt>
      <trkpt lat="45.19292" lon="5.04638">
        <ele>338.4</ele>
        <time>2019-04-15T06:31:34Z</time>
      </trkpt>
      <trkpt lat="45.19266" lon="5.0469">
        <ele>338</ele>
        <time>2019-04-15T06:31:38Z</time>
      </trkpt>
      <trkpt lat="45.19241" lon="5.04742">
        <ele>335.4</ele>
        <time>2019-04-15T06:31:42Z</time>
      </trkpt>
      <trkpt lat="45.19215" lon="5.04795">
        <ele>334</ele>
        <time>2019-04-15T06:31:46Z</time>
      </trkpt>
      <trkpt lat="45.19179" lon="5.04835">
        <ele>330.8</ele>
        <time>2019-04-15T06:31:50Z</time>
      </trkpt>
      <trkpt lat="45.19131" lon="5.04839">
        <ele>328</ele>
        <time>2019-04-15T06:31:54Z</time>
      </trkpt>
      <trkpt lat="45.1909" lon="5.04806">
        <ele>325.6</ele>
        <time>2019-04-15T06:31:58Z</time>
      </trkpt>
      <trkpt lat="45.19065" lon="5.04747">
        <ele>323.6</ele>
        <time>2019-04-15T06:32:02Z</time>
      </trkpt>
      <trkpt lat="45.19044" lon="5.04685">
        <ele>321.2</ele>
        <time>2019-04-15T06:32:06Z</time>
      </trkpt>
      <trkpt lat="45.19011" lon="5.04633">
        <ele>318.8</ele>
        <time>2019-04-15T06:32:10Z</time>
      </trkpt>
      <trkpt lat="45.18965" lon="5.04618">
        <ele>315.6</ele>
        <time>2019-04-15T06:32:14Z</time>
      </trkpt>
      <trkpt lat="45.18918" lon="5.0463">
        <ele>314.4</ele>
        <time>2019-04-15T06:32:18Z</time>
      </trkpt>
      <trkpt lat="45.18873" lon="5.04641">
        <ele>312.8</ele>
        <time>2019-04-15T06:32:22Z</time>
      </trkpt>
      <trkpt lat="45.18829" lon="5.04646">
        <ele>311.6</ele>
        <time>2019-04-15T06:32:26Z</time>
      </trkpt>
      <trkpt lat="45.18786" lon="5.04643">
        <ele>311</ele>
        <time>2019-04-15T06:32:30Z</time>
      </trkpt>
      <trkpt lat="45.18743" lon="5.04634">
        <ele>310.2</ele>
        <time>2019-04-15T06:32:34Z</time>
      </trkpt>
      <trkpt lat="45.18702" lon="5.04619">
        <ele>310</ele>
        <time>2019-04-15T06:32:38Z</time>
      </trkpt>
      <trkpt lat="45.18663" lon="5.04602">
        <ele>309.2</ele>
        <time>2019-04-15T06:32:42Z</time>
      </trkpt>
      <trkpt lat="45.18624" lon="5.04583">
        <ele>309</ele>
        <time>2019-04-15T06:32:46Z</time>
      </trkpt>
      <trkpt lat="45.18587" lon="5.04564">
        <ele>308.4</ele>
        <time>2019-04-15T06:32:50Z</time>
      </trkpt>
      <trkpt lat="45.18549" lon="5.04547">
        <ele>308</ele>
        <time>2019-04-15T06:32:54Z</time>
      </trkpt>
      <trkpt lat="45.18513" lon="5.04529">
        <ele>307.2</ele>
        <time>2019-04-15T06:32:58Z</time>
      </trkpt>
      <trkpt lat="45.18477" lon="5.04511">
        <ele>306</ele>
        <time>2019-04-15T06:33:02Z</time>
      </trkpt>
      <trkpt lat="45.18441" lon="5.04494">
        <ele>305.4</ele>
        <time>2019-04-15T06:33:06Z</time>
      </trkpt>
      <trkpt lat="45.18406" lon="5.04477">
        <ele>305.2</ele>
        <time>2019-04-15T06:33:10Z</time>
      </trkpt>
      <trkpt lat="45.1837" lon="5.04459">
        <ele>305</ele>
        <time>2019-04-15T06:33:14Z</time>
      </trkpt>
      <trkpt lat="45.18336" lon="5.04442">
        <ele>304.6</ele>
        <time>2019-04-15T06:33:18Z</time>
      </trkpt>
      <trkpt lat="45.18301" lon="5.04426">
        <ele>304</ele>
        <time>2019-04-15T06:33:22Z</time>
      </trkpt>
      <trkpt lat="45.18267" lon="5.04408">
        <ele>303.6</ele>
        <time>2019-04-15T06:33:26Z</time>
      </trkpt>
      <trkpt lat="45.18233" lon="5.0439">
        <ele>303</ele>
        <time>2019-04-15T06:33:30Z</time>
      </trkpt>
      <trkpt lat="45.18199" lon="5.04372">
        <ele>302.4</ele>
        <time>2019-04-15T06:33:34Z</time>
      </trkpt>
      <trkpt lat="45.18166" lon="5.04354">
        <ele>302.2</ele>
        <time>2019-04-15T06:33:38Z</time>
      </trkpt>
      <trkpt lat="45.18133" lon="5.04338">
        <ele>301.8</ele>
        <time>2019-04-15T06:33:42Z</time>
      </trkpt>
      <trkpt lat="45.181" lon="5.0433">
        <ele>300.8</ele>
        <time>2019-04-15T06:33:46Z</time>
      </trkpt>
      <trkpt lat="45.18066" lon="5.04333">
        <ele>300.2</ele>
        <time>2019-04-15T06:33:50Z</time>
      </trkpt>
      <trkpt lat="45.18031" lon="5.04335">
        <ele>299.6</ele>
        <time>2019-04-15T06:33:54Z</time>
      </trkpt>
      <trkpt lat="45.17995" lon="5.04328">
        <ele>298.8</ele>
        <time>2019-04-15T06:33:58Z</time>
      </trkpt>
      <trkpt lat="45.1796" lon="5.04318">
        <ele>298.4</ele>
        <time>2019-04-15T06:34:02Z</time>
      </trkpt>
      <trkpt lat="45.17925" lon="5.04307">
        <ele>297.8</ele>
        <time>2019-04-15T06:34:06Z</time>
      </trkpt>
      <trkpt lat="45.1789" lon="5.04296">
        <ele>297.4</ele>
        <time>2019-04-15T06:34:10Z</time>
      </trkpt>
      <trkpt lat="45.17855" lon="5.04285">
        <ele>296.6</ele>
        <time>2019-04-15T06:34:14Z</time>
      </trkpt>
      <trkpt lat="45.17819" lon="5.04274">
        <ele>296.4</ele>
        <time>2019-04-15T06:34:18Z</time>
      </trkpt>
      <trkpt lat="45.17785" lon="5.04263">
        <ele>296</ele>
        <time>2019-04-15T06:34:22Z</time>
      </trkpt>
      <trkpt lat="45.1775" lon="5.04252">
        <ele>295.4</ele>
        <time>2019-04-15T06:34:26Z</time>
      </trkpt>
      <trkpt lat="45.17715" lon="5.04241">
        <ele>294.6</ele>
        <time>2019-04-15T06:34:30Z</time>
      </trkpt>
      <trkpt lat="45.1768" lon="5.04226">
        <ele>294</ele>
        <time>2019-04-15T06:34:34Z</time>
      </trkpt>
      <trkpt lat="45.17648" lon="5.042">
        <ele>294</ele>
        <time>2019-04-15T06:34:38Z</time>
      </trkpt>
      <trkpt lat="45.17617" lon="5.04176">
        <ele>293.6</ele>
        <time>2019-04-15T06:34:42Z</time>
      </trkpt>
      <trkpt lat="45.17584" lon="5.0416">
        <ele>292.6</ele>
        <time>2019-04-15T06:34:46Z</time>
      </trkpt>
      <trkpt lat="45.1755" lon="5.04147">
        <ele>292</ele>
        <time>2019-04-15T06:34:50Z</time>
      </trkpt>
      <trkpt lat="45.17515" lon="5.04134">
        <ele>291.6</ele>
        <time>2019-04-15T06:34:54Z</time>
      </trkpt>
      <trkpt lat="45.17481" lon="5.0412">
        <ele>290.6</ele>
        <time>2019-04-15T06:34:58Z</time>
      </trkpt>
      <trkpt lat="45.17446" lon="5.04107">
        <ele>290.2</ele>
        <time>2019-04-15T06:35:02Z</time>
      </trkpt>
      <trkpt lat="45.17411" lon="5.04093">
        <ele>290.8</ele>
        <time>2019-04-15T06:35:06Z</time>
      </trkpt>
      <trkpt lat="45.17377" lon="5.0408">
        <ele>289</ele>
        <time>2019-04-15T06:35:10Z</time>
      </trkpt>
      <trkpt lat="45.17341" lon="5.04066">
        <ele>288.4</ele>
        <time>2019-04-15T06:35:14Z</time>
      </trkpt>
      <trkpt lat="45.17306" lon="5.04053">
        <ele>288.2</ele>
        <time>2019-04-15T06:35:18Z</time>
      </trkpt>
      <trkpt lat="45.1727" lon="5.04038">
        <ele>287.6</ele>
        <time>2019-04-15T06:35:22Z</time>
      </trkpt>
      <trkpt lat="45.17235" lon="5.04024">
        <ele>287</ele>
        <time>2019-04-15T06:35:26Z</time>
      </trkpt>
      <trkpt lat="45.17201" lon="5.04011">
        <ele>287.2</ele>
        <time>2019-04-15T06:35:30Z</time>
      </trkpt>
      <trkpt lat="45.17166" lon="5.03997">
        <ele>286.8</ele>
        <time>2019-04-15T06:35:34Z</time>
      </trkpt>
      <trkpt lat="45.17132" lon="5.03984">
        <ele>286.6</ele>
        <time>2019-04-15T06:35:38Z</time>
      </trkpt>
      <trkpt lat="45.17097" lon="5.03971">
        <ele>286</ele>
        <time>2019-04-15T06:35:42Z</time>
      </trkpt>
      <trkpt lat="45.17063" lon="5.03957">
        <ele>285.8</ele>
        <time>2019-04-15T06:35:46Z</time>
      </trkpt>
      <trkpt lat="45.1703" lon="5.03944">
        <ele>285.2</ele>
        <time>2019-04-15T06:35:50Z</time>
      </trkpt>
      <trkpt lat="45.16997" lon="5.0393">
        <ele>285.2</ele>
        <time>2019-04-15T06:35:54Z</time>
      </trkpt>
      <trkpt lat="45.16964" lon="5.03918">
        <ele>284.6</ele>
        <time>2019-04-15T06:35:58Z</time>
      </trkpt>
      <trkpt lat="45.16931" lon="5.03905">
        <ele>284.6</ele>
        <time>2019-04-15T06:36:02Z</time>
      </trkpt>
      <trkpt lat="45.16898" lon="5.03893">
        <ele>284.8</ele>
        <time>2019-04-15T06:36:06Z</time>
      </trkpt>
      <trkpt lat="45.16866" lon="5.0388">
        <ele>284.6</ele>
        <time>2019-04-15T06:36:10Z</time>
      </trkpt>
      <trkpt lat="45.16834" lon="5.03867">
        <ele>284.6</ele>
        <time>2019-04-15T06:36:14Z</time>
      </trkpt>
      <trkpt lat="45.16802" lon="5.03854">
        <ele>284.4</ele>
        <time>2019-04-15T06:36:18Z</time>
      </trkpt>
      <trkpt lat="45.1677" lon="5.03842">
        <ele>284</ele>
        <time>2019-04-15T06:36:22Z</time>
      </trkpt>
      <trkpt lat="45.16738" lon="5.0383">
        <ele>283.8</ele>
        <time>2019-04-15T06:36:26Z</time>
      </trkpt>
      <trkpt lat="45.16705" lon="5.03816">
        <ele>283</ele>
        <time>2019-04-15T06:36:30Z</time>
      </trkpt>
      <trkpt lat="45.16671" lon="5.03801">
        <ele>282.4</ele>
        <time>2019-04-15T06:36:34Z</time>
      </trkpt>
      <trkpt lat="45.16635" lon="5.03788">
        <ele>281.2</ele>
        <time>2019-04-15T06:36:38Z</time>
      </trkpt>
      <trkpt lat="45.16599" lon="5.03773">
        <ele>280.2</ele>
        <time>2019-04-15T06:36:42Z</time>
      </trkpt>
      <trkpt lat="45.16561" lon="5.03761">
        <ele>279</ele>
        <time>2019-04-15T06:36:46Z</time>
      </trkpt>
      <trkpt lat="45.16522" lon="5.03757">
        <ele>278</ele>
        <time>2019-04-15T06:36:50Z</time>
      </trkpt>
      <trkpt lat="45.16484" lon="5.0376">
        <ele>277.4</ele>
        <time>2019-04-15T06:36:54Z</time>
      </trkpt>
      <trkpt lat="45.16447" lon="5.03762">
        <ele>276.4</ele>
        <time>2019-04-15T06:36:58Z</time>
      </trkpt>
      <trkpt lat="45.1641" lon="5.03766">
        <ele>275.6</ele>
        <time>2019-04-15T06:37:02Z</time>
      </trkpt>
      <trkpt lat="45.16372" lon="5.03769">
        <ele>274.6</ele>
        <time>2019-04-15T06:37:06Z</time>
      </trkpt>
      <trkpt lat="45.16334" lon="5.03772">
        <ele>273.6</ele>
        <time>2019-04-15T06:37:10Z</time>
      </trkpt>
      <trkpt lat="45.16297" lon="5.03776">
        <ele>273.2</ele>
        <time>2019-04-15T06:37:14Z</time>
      </trkpt>
      <trkpt lat="45.16261" lon="5.03788">
        <ele>272.8</ele>
        <time>2019-04-15T06:37:18Z</time>
      </trkpt>
      <trkpt lat="45.16228" lon="5.03812">
        <ele>272.2</ele>
        <time>2019-04-15T06:37:22Z</time>
      </trkpt>
      <trkpt lat="45.16201" lon="5.03844">
        <ele>273</ele>
        <time>2019-04-15T06:37:26Z</time>
      </trkpt>
      <trkpt lat="45.16177" lon="5.03878">
        <ele>272.6</ele>
        <time>2019-04-15T06:37:30Z</time>
      </trkpt>
      <trkpt lat="45.16151" lon="5.0391">
        <ele>272</ele>
        <time>2019-04-15T06:37:34Z</time>
      </trkpt>
      <trkpt lat="45.16123" lon="5.03935">
        <ele>271.8</ele>
        <time>2019-04-15T06:37:38Z</time>
      </trkpt>
      <trkpt lat="45.16094" lon="5.0396">
        <ele>269.8</ele>
        <time>2019-04-15T06:37:42Z</time>
      </trkpt>
      <trkpt lat="45.16062" lon="5.0398">
        <ele>269.6</ele>
        <time>2019-04-15T06:37:46Z</time>
      </trkpt>
      <trkpt lat="45.16029" lon="5.03994">
        <ele>269.2</ele>
        <time>2019-04-15T06:37:50Z</time>
      </trkpt>
      <trkpt lat="45.15995" lon="5.04002">
        <ele>268.4</ele>
        <time>2019-04-15T06:37:54Z</time>
      </trkpt>
      <trkpt lat="45.15961" lon="5.04005">
        <ele>268</ele>
        <time>2019-04-15T06:37:58Z</time>
      </trkpt>
      <trkpt lat="45.15928" lon="5.04005">
        <ele>267.8</ele>
        <time>2019-04-15T06:38:02Z</time>
      </trkpt>
      <trkpt lat="45.15895" lon="5.04004">
        <ele>267.6</ele>
        <time>2019-04-15T06:38:06Z</time>
      </trkpt>
      <trkpt lat="45.15863" lon="5.04004">
        <ele>267.8</ele>
        <time>2019-04-15T06:38:10Z</time>
      </trkpt>
      <trkpt lat="45.15832" lon="5.04004">
        <ele>267</ele>
        <time>2019-04-15T06:38:14Z</time>
      </trkpt>
      <trkpt lat="45.15802" lon="5.04004">
        <ele>267.6</ele>
        <time>2019-04-15T06:38:18Z</time>
      </trkpt>
      <trkpt lat="45.15772" lon="5.04004">
        <ele>268</ele>
        <time>2019-04-15T06:38:22Z</time>
      </trkpt>
      <trkpt lat="45.15742" lon="5.04003">
        <ele>268</ele>
        <time>2019-04-15T06:38:26Z</time>
      </trkpt>
      <trkpt lat="45.15712" lon="5.04003">
        <ele>268.6</ele>
        <time>2019-04-15T06:38:30Z</time>
      </trkpt>
      <trkpt lat="45.15682" lon="5.04003">
        <ele>268.6</ele>
        <time>2019-04-15T06:38:34Z</time>
      </trkpt>
      <trkpt lat="45.15653" lon="5.04002">
        <ele>268.6</ele>
        <time>2019-04-15T06:38:38Z</time>
      </trkpt>
      <trkpt lat="45.15622" lon="5.04001">
        <ele>268</ele>
        <time>2019-04-15T06:38:42Z</time>
      </trkpt>
      <trkpt lat="45.15591" lon="5.04001">
        <ele>268</ele>
        <time>2019-04-15T06:38:46Z</time>
      </trkpt>
      <trkpt lat="45.15559" lon="5.04001">
        <ele>268</ele>
        <time>2019-04-15T06:38:50Z</time>
      </trkpt>
      <trkpt lat="45.15528" lon="5.03999">
        <ele>267.8</ele>
        <time>2019-04-15T06:38:54Z</time>
      </trkpt>
      <trkpt lat="45.15496" lon="5.04">
        <ele>268</ele>
        <time>2019-04-15T06:38:58Z</time>
      </trkpt>
      <trkpt lat="45.15465" lon="5.04">
        <ele>268.4</ele>
        <time>2019-04-15T06:39:02Z</time>
      </trkpt>
      <trkpt lat="45.15435" lon="5.04">
        <ele>268.6</ele>
        <time>2019-04-15T06:39:06Z</time>
      </trkpt>
      <trkpt lat="45.15407" lon="5.03998">
        <ele>270</ele>
        <time>2019-04-15T06:39:10Z</time>
      </trkpt>
      <trkpt lat="45.1538" lon="5.03993">
        <ele>271</ele>
        <time>2019-04-15T06:39:14Z</time>
      </trkpt>
      <trkpt lat="45.15357" lon="5.03984">
        <ele>272.2</ele>
        <time>2019-04-15T06:39:18Z</time>
      </trkpt>
      <trkpt lat="45.15334" lon="5.0397">
        <ele>272.6</ele>
        <time>2019-04-15T06:39:22Z</time>
      </trkpt>
      <trkpt lat="45.15312" lon="5.03955">
        <ele>274</ele>
        <time>2019-04-15T06:39:26Z</time>
      </trkpt>
      <trkpt lat="45.15291" lon="5.0394">
        <ele>274.8</ele>
        <time>2019-04-15T06:39:30Z</time>
      </trkpt>
      <trkpt lat="45.15269" lon="5.03925">
        <ele>275.6</ele>
        <time>2019-04-15T06:39:34Z</time>
      </trkpt>
      <trkpt lat="45.15248" lon="5.0391">
        <ele>276.6</ele>
        <time>2019-04-15T06:39:38Z</time>
      </trkpt>
      <trkpt lat="45.15227" lon="5.03895">
        <ele>277</ele>
        <time>2019-04-15T06:39:42Z</time>
      </trkpt>
      <trkpt lat="45.15206" lon="5.03881">
        <ele>277.8</ele>
        <time>2019-04-15T06:39:46Z</time>
      </trkpt>
      <trkpt lat="45.15185" lon="5.03866">
        <ele>278.8</ele>
        <time>2019-04-15T06:39:50Z</time>
      </trkpt>
      <trkpt lat="45.15163" lon="5.03851">
        <ele>279.6</ele>
        <time>2019-04-15T06:39:54Z</time>
      </trkpt>
      <trkpt lat="45.15142" lon="5.03836">
        <ele>280.4</ele>
        <time>2019-04-15T06:39:58Z</time>
      </trkpt>
      <trkpt lat="45.15121" lon="5.03821">
        <ele>281.6</ele>
        <time>2019-04-15T06:40:02Z</time>
      </trkpt>
      <trkpt lat="45.15099" lon="5.03806">
        <ele>282.4</ele>
        <time>2019-04-15T06:40:06Z</time>
      </trkpt>
      <trkpt lat="45.15078" lon="5.03791">
        <ele>283</ele>
        <time>2019-04-15T06:40:10Z</time>
      </trkpt>
      <trkpt lat="45.15057" lon="5.03776">
        <ele>283.8</ele>
        <time>2019-04-15T06:40:14Z</time>
      </trkpt>
      <trkpt lat="45.15036" lon="5.03761">
        <ele>285</ele>
        <time>2019-04-15T06:40:18Z</time>
      </trkpt>
      <trkpt lat="45.15015" lon="5.03745">
        <ele>285.6</ele>
        <time>2019-04-15T06:40:22Z</time>
      </trkpt>
      <trkpt lat="45.14993" lon="5.03731">
        <ele>286.6</ele>
        <time>2019-04-15T06:40:26Z</time>
      </trkpt>
      <trkpt lat="45.14972" lon="5.0372">
        <ele>287</ele>
        <time>2019-04-15T06:40:30Z</time>
      </trkpt>
      <trkpt lat="45.1495" lon="5.03709">
        <ele>288</ele>
        <time>2019-04-15T06:40:34Z</time>
      </trkpt>
      <trkpt lat="45.14928" lon="5.037">
        <ele>288.2</ele>
        <time>2019-04-15T06:40:38Z</time>
      </trkpt>
      <trkpt lat="45.14905" lon="5.03693">
        <ele>289</ele>
        <time>2019-04-15T06:40:42Z</time>
      </trkpt>
      <trkpt lat="45.14882" lon="5.03685">
        <ele>290.2</ele>
        <time>2019-04-15T06:40:46Z</time>
      </trkpt>
      <trkpt lat="45.14858" lon="5.03678">
        <ele>290.2</ele>
        <time>2019-04-15T06:40:50Z</time>
      </trkpt>
      <trkpt lat="45.14833" lon="5.03679">
        <ele>290.2</ele>
        <time>2019-04-15T06:40:54Z</time>
      </trkpt>
      <trkpt lat="45.14808" lon="5.03684">
        <ele>290.4</ele>
        <time>2019-04-15T06:40:58Z</time>
      </trkpt>
      <trkpt lat="45.14781" lon="5.03688">
        <ele>290.8</ele>
        <time>2019-04-15T06:41:02Z</time>
      </trkpt>
      <trkpt lat="45.14754" lon="5.03692">
        <ele>291</ele>
        <time>2019-04-15T06:41:06Z</time>
      </trkpt>
      <trkpt lat="45.14727" lon="5.03701">
        <ele>291.2</ele>
        <time>2019-04-15T06:41:10Z</time>
      </trkpt>
      <trkpt lat="45.14701" lon="5.03714">
        <ele>291.4</ele>
        <time>2019-04-15T06:41:14Z</time>
      </trkpt>
      <trkpt lat="45.14675" lon="5.03727">
        <ele>291.2</ele>
        <time>2019-04-15T06:41:18Z</time>
      </trkpt>
      <trkpt lat="45.14649" lon="5.03741">
        <ele>291.8</ele>
        <time>2019-04-15T06:41:22Z</time>
      </trkpt>
      <trkpt lat="45.14625" lon="5.03757">
        <ele>292</ele>
        <time>2019-04-15T06:41:26Z</time>
      </trkpt>
      <trkpt lat="45.14601" lon="5.03775">
        <ele>292.2</ele>
        <time>2019-04-15T06:41:30Z</time>
      </trkpt>
      <trkpt lat="45.14577" lon="5.03792">
        <ele>292.8</ele>
        <time>2019-04-15T06:41:34Z</time>
      </trkpt>
      <trkpt lat="45.14553" lon="5.03809">
        <ele>293.6</ele>
        <time>2019-04-15T06:41:38Z</time>
      </trkpt>
      <trkpt lat="45.1453" lon="5.03825">
        <ele>293.8</ele>
        <time>2019-04-15T06:41:42Z</time>
      </trkpt>
      <trkpt lat="45.14507" lon="5.03835">
        <ele>294.6</ele>
        <time>2019-04-15T06:41:46Z</time>
      </trkpt>
      <trkpt lat="45.14482" lon="5.03848">
        <ele>294.6</ele>
        <time>2019-04-15T06:41:50Z</time>
      </trkpt>
      <trkpt lat="45.1446" lon="5.03872">
        <ele>294.6</ele>
        <time>2019-04-15T06:41:54Z</time>
      </trkpt>
      <trkpt lat="45.14436" lon="5.03892">
        <ele>295.8</ele>
        <time>2019-04-15T06:41:58Z</time>
      </trkpt>
      <trkpt lat="45.14411" lon="5.0391">
        <ele>296.6</ele>
        <time>2019-04-15T06:42:02Z</time>
      </trkpt>
      <trkpt lat="45.14386" lon="5.03927">
        <ele>296.2</ele>
        <time>2019-04-15T06:42:06Z</time>
      </trkpt>
      <trkpt lat="45.1436" lon="5.03946">
        <ele>295.6</ele>
        <time>2019-04-15T06:42:10Z</time>
      </trkpt>
      <trkpt lat="45.14332" lon="5.03966">
        <ele>295.6</ele>
        <time>2019-04-15T06:42:14Z</time>
      </trkpt>
      <trkpt lat="45.14303" lon="5.03988">
        <ele>293.6</ele>
        <time>2019-04-15T06:42:18Z</time>
      </trkpt>
      <trkpt lat="45.1427" lon="5.04012">
        <ele>293.4</ele>
        <time>2019-04-15T06:42:22Z</time>
      </trkpt>
      <trkpt lat="45.14236" lon="5.04036">
        <ele>294</ele>
        <time>2019-04-15T06:42:26Z</time>
      </trkpt>
      <trkpt lat="45.14201" lon="5.04061">
        <ele>290.2</ele>
        <time>2019-04-15T06:42:30Z</time>
      </trkpt>
      <trkpt lat="45.14165" lon="5.04088">
        <ele>289.6</ele>
        <time>2019-04-15T06:42:34Z</time>
      </trkpt>
      <trkpt lat="45.14126" lon="5.04115">
        <ele>288.4</ele>
        <time>2019-04-15T06:42:38Z</time>
      </trkpt>
      <trkpt lat="45.14086" lon="5.04144">
        <ele>286.2</ele>
        <time>2019-04-15T06:42:42Z</time>
      </trkpt>
      <trkpt lat="45.14045" lon="5.04174">
        <ele>285</ele>
        <time>2019-04-15T06:42:46Z</time>
      </trkpt>
      <trkpt lat="45.14004" lon="5.04203">
        <ele>283</ele>
        <time>2019-04-15T06:42:50Z</time>
      </trkpt>
      <trkpt lat="45.13963" lon="5.04233">
        <ele>282.8</ele>
        <time>2019-04-15T06:42:54Z</time>
      </trkpt>
      <trkpt lat="45.13922" lon="5.04262">
        <ele>281</ele>
        <time>2019-04-15T06:42:58Z</time>
      </trkpt>
      <trkpt lat="45.13881" lon="5.04292">
        <ele>279.6</ele>
        <time>2019-04-15T06:43:02Z</time>
      </trkpt>
      <trkpt lat="45.1384" lon="5.04321">
        <ele>278.4</ele>
        <time>2019-04-15T06:43:06Z</time>
      </trkpt>
      <trkpt lat="45.13799" lon="5.04351">
        <ele>276.6</ele>
        <time>2019-04-15T06:43:10Z</time>
      </trkpt>
      <trkpt lat="45.13759" lon="5.0438">
        <ele>276.4</ele>
        <time>2019-04-15T06:43:14Z</time>
      </trkpt>
      <trkpt lat="45.13722" lon="5.04407">
        <ele>277</ele>
        <time>2019-04-15T06:43:18Z</time>
      </trkpt>
      <trkpt lat="45.13687" lon="5.04432">
        <ele>278</ele>
        <time>2019-04-15T06:43:22Z</time>
      </trkpt>
      <trkpt lat="45.13655" lon="5.04455">
        <ele>279.4</ele>
        <time>2019-04-15T06:43:26Z</time>
      </trkpt>
      <trkpt lat="45.13627" lon="5.04476">
        <ele>280.6</ele>
        <time>2019-04-15T06:43:30Z</time>
      </trkpt>
      <trkpt lat="45.136" lon="5.04495">
        <ele>281.6</ele>
        <time>2019-04-15T06:43:34Z</time>
      </trkpt>
      <trkpt lat="45.13574" lon="5.04512">
        <ele>282.6</ele>
        <time>2019-04-15T06:43:38Z</time>
      </trkpt>
      <trkpt lat="45.13549" lon="5.04527">
        <ele>283.2</ele>
        <time>2019-04-15T06:43:42Z</time>
      </trkpt>
      <trkpt lat="45.13523" lon="5.04541">
        <ele>284.4</ele>
        <time>2019-04-15T06:43:46Z</time>
      </trkpt>
      <trkpt lat="45.13497" lon="5.04552">
        <ele>285.4</ele>
        <time>2019-04-15T06:43:50Z</time>
      </trkpt>
      <trkpt lat="45.1347" lon="5.04562">
        <ele>286.4</ele>
        <time>2019-04-15T06:43:54Z</time>
      </trkpt>
      <trkpt lat="45.13443" lon="5.04571">
        <ele>287.4</ele>
        <time>2019-04-15T06:43:58Z</time>
      </trkpt>
      <trkpt lat="45.13416" lon="5.04578">
        <ele>287.6</ele>
        <time>2019-04-15T06:44:02Z</time>
      </trkpt>
      <trkpt lat="45.13388" lon="5.04583">
        <ele>288.2</ele>
        <time>2019-04-15T06:44:06Z</time>
      </trkpt>
      <trkpt lat="45.1336" lon="5.04585">
        <ele>288.2</ele>
        <time>2019-04-15T06:44:10Z</time>
      </trkpt>
      <trkpt lat="45.13331" lon="5.04587">
        <ele>289</ele>
        <time>2019-04-15T06:44:14Z</time>
      </trkpt>
      <trkpt lat="45.13303" lon="5.04588">
        <ele>288.8</ele>
        <time>2019-04-15T06:44:18Z</time>
      </trkpt>
      <trkpt lat="45.13274" lon="5.0459">
        <ele>289.6</ele>
        <time>2019-04-15T06:44:22Z</time>
      </trkpt>
      <trkpt lat="45.13245" lon="5.04592">
        <ele>289</ele>
        <time>2019-04-15T06:44:26Z</time>
      </trkpt>
      <trkpt lat="45.13217" lon="5.04593">
        <ele>290</ele>
        <time>2019-04-15T06:44:30Z</time>
      </trkpt>
      <trkpt lat="45.13189" lon="5.04594">
        <ele>290.2</ele>
        <time>2019-04-15T06:44:34Z</time>
      </trkpt>
      <trkpt lat="45.1316" lon="5.04595">
        <ele>290.6</ele>
        <time>2019-04-15T06:44:38Z</time>
      </trkpt>
      <trkpt lat="45.13133" lon="5.04596">
        <ele>290.6</ele>
        <time>2019-04-15T06:44:42Z</time>
      </trkpt>
      <trkpt lat="45.13105" lon="5.04598">
        <ele>291.2</ele>
        <time>2019-04-15T06:44:46Z</time>
      </trkpt>
      <trkpt lat="45.13077" lon="5.04599">
        <ele>291.8</ele>
        <time>2019-04-15T06:44:50Z</time>
      </trkpt>
      <trkpt lat="45.13049" lon="5.04599">
        <ele>292</ele>
        <time>2019-04-15T06:44:54Z</time>
      </trkpt>
      <trkpt lat="45.13021" lon="5.04601">
        <ele>292.6</ele>
        <time>2019-04-15T06:44:58Z</time>
      </trkpt>
      <trkpt lat="45.12993" lon="5.04602">
        <ele>293.4</ele>
        <time>2019-04-15T06:45:02Z</time>
      </trkpt>
      <trkpt lat="45.12965" lon="5.04603">
        <ele>294</ele>
        <time>2019-04-15T06:45:06Z</time>
      </trkpt>
      <trkpt lat="45.12938" lon="5.04605">
        <ele>294.2</ele>
        <time>2019-04-15T06:45:10Z</time>
      </trkpt>
      <trkpt lat="45.12911" lon="5.04606">
        <ele>295.6</ele>
        <time>2019-04-15T06:45:14Z</time>
      </trkpt>
      <trkpt lat="45.12884" lon="5.04607">
        <ele>296.2</ele>
        <time>2019-04-15T06:45:18Z</time>
      </trkpt>
      <trkpt lat="45.12856" lon="5.04608">
        <ele>296.8</ele>
        <time>2019-04-15T06:45:22Z</time>
      </trkpt>
      <trkpt lat="45.12828" lon="5.04609">
        <ele>296.8</ele>
        <time>2019-04-15T06:45:26Z</time>
      </trkpt>
      <trkpt lat="45.128" lon="5.04611">
        <ele>296.8</ele>
        <time>2019-04-15T06:45:30Z</time>
      </trkpt>
      <trkpt lat="45.12771" lon="5.04612">
        <ele>296.8</ele>
        <time>2019-04-15T06:45:34Z</time>
      </trkpt>
      <trkpt lat="45.1274" lon="5.04613">
        <ele>296.2</ele>
        <time>2019-04-15T06:45:38Z</time>
      </trkpt>
      <trkpt lat="45.12709" lon="5.04614">
        <ele>295.8</ele>
        <time>2019-04-15T06:45:42Z</time>
      </trkpt>
      <trkpt lat="45.12676" lon="5.04615">
        <ele>296.2</ele>
        <time>2019-04-15T06:45:46Z</time>
      </trkpt>
      <trkpt lat="45.12643" lon="5.04617">
        <ele>296</ele>
        <time>2019-04-15T06:45:50Z</time>
      </trkpt>
      <trkpt lat="45.12611" lon="5.04619">
        <ele>295.6</ele>
        <time>2019-04-15T06:45:54Z</time>
      </trkpt>
      <trkpt lat="45.12578" lon="5.04623">
        <ele>295.6</ele>
        <time>2019-04-15T06:45:58Z</time>
      </trkpt>
      <trkpt lat="45.12545" lon="5.04628">
        <ele>294.8</ele>
        <time>2019-04-15T06:46:02Z</time>
      </trkpt>
      <trkpt lat="45.12512" lon="5.04635">
        <ele>295.2</ele>
        <time>2019-04-15T06:46:06Z</time>
      </trkpt>
      <trkpt lat="45.1248" lon="5.04641">
        <ele>294.8</ele>
        <time>2019-04-15T06:46:10Z</time>
      </trkpt>
      <trkpt lat="45.12446" lon="5.04648">
        <ele>294.4</ele>
        <time>2019-04-15T06:46:14Z</time>
      </trkpt>
      <trkpt lat="45.12412" lon="5.04654">
        <ele>294.4</ele>
        <time>2019-04-15T06:46:18Z</time>
      </trkpt>
      <trkpt lat="45.12378" lon="5.04662">
        <ele>294</ele>
        <time>2019-04-15T06:46:22Z</time>
      </trkpt>
      <trkpt lat="45.12344" lon="5.04669">
        <ele>294</ele>
        <time>2019-04-15T06:46:26Z</time>
      </trkpt>
      <trkpt lat="45.12311" lon="5.04676">
        <ele>293.4</ele>
        <time>2019-04-15T06:46:30Z</time>
      </trkpt>
      <trkpt lat="45.12278" lon="5.04683">
        <ele>293.8</ele>
        <time>2019-04-15T06:46:34Z</time>
      </trkpt>
      <trkpt lat="45.12244" lon="5.0469">
        <ele>293.8</ele>
        <time>2019-04-15T06:46:38Z</time>
      </trkpt>
      <trkpt lat="45.1221" lon="5.04697">
        <ele>293.8</ele>
        <time>2019-04-15T06:46:42Z</time>
      </trkpt>
      <trkpt lat="45.12177" lon="5.04703">
        <ele>293.4</ele>
        <time>2019-04-15T06:46:46Z</time>
      </trkpt>
      <trkpt lat="45.12145" lon="5.0471">
        <ele>294.2</ele>
        <time>2019-04-15T06:46:50Z</time>
      </trkpt>
      <trkpt lat="45.12114" lon="5.04718">
        <ele>294.8</ele>
        <time>2019-04-15T06:46:54Z</time>
      </trkpt>
      <trkpt lat="45.12083" lon="5.04726">
        <ele>294.6</ele>
        <time>2019-04-15T06:46:58Z</time>
      </trkpt>
      <trkpt lat="45.12052" lon="5.04735">
        <ele>295.2</ele>
        <time>2019-04-15T06:47:02Z</time>
      </trkpt>
      <trkpt lat="45.12022" lon="5.04746">
        <ele>295</ele>
        <time>2019-04-15T06:47:06Z</time>
      </trkpt>
      <trkpt lat="45.11991" lon="5.04757">
        <ele>295.6</ele>
        <time>2019-04-15T06:47:10Z</time>
      </trkpt>
      <trkpt lat="45.11961" lon="5.04768">
        <ele>295.6</ele>
        <time>2019-04-15T06:47:14Z</time>
      </trkpt>
      <trkpt lat="45.1193" lon="5.04779">
        <ele>295.8</ele>
        <time>2019-04-15T06:47:18Z</time>
      </trkpt>
      <trkpt lat="45.11899" lon="5.04786">
        <ele>295.8</ele>
        <time>2019-04-15T06:47:22Z</time>
      </trkpt>
      <trkpt lat="45.11867" lon="5.04788">
        <ele>295.6</ele>
        <time>2019-04-15T06:47:26Z</time>
      </trkpt>
      <trkpt lat="45.11834" lon="5.04788">
        <ele>295.2</ele>
        <time>2019-04-15T06:47:30Z</time>
      </trkpt>
      <trkpt lat="45.11798" lon="5.04779">
        <ele>293.2</ele>
        <time>2019-04-15T06:47:34Z</time>
      </trkpt>
      <trkpt lat="45.11763" lon="5.04754">
        <ele>291.8</ele>
        <time>2019-04-15T06:47:38Z</time>
      </trkpt>
      <trkpt lat="45.11727" lon="5.04724">
        <ele>289.6</ele>
        <time>2019-04-15T06:47:42Z</time>
      </trkpt>
      <trkpt lat="45.11691" lon="5.04693">
        <ele>288.2</ele>
        <time>2019-04-15T06:47:46Z</time>
      </trkpt>
      <trkpt lat="45.11655" lon="5.04663">
        <ele>287.6</ele>
        <time>2019-04-15T06:47:50Z</time>
      </trkpt>
      <trkpt lat="45.11619" lon="5.04635">
        <ele>285.6</ele>
        <time>2019-04-15T06:47:54Z</time>
      </trkpt>
      <trkpt lat="45.11582" lon="5.04613">
        <ele>284.8</ele>
        <time>2019-04-15T06:47:58Z</time>
      </trkpt>
      <trkpt lat="45.11543" lon="5.04599">
        <ele>283.6</ele>
        <time>2019-04-15T06:48:02Z</time>
      </trkpt>
      <trkpt lat="45.11503" lon="5.04589">
        <ele>281.8</ele>
        <time>2019-04-15T06:48:06Z</time>
      </trkpt>
      <trkpt lat="45.11462" lon="5.04584">
        <ele>279.2</ele>
        <time>2019-04-15T06:48:10Z</time>
      </trkpt>
      <trkpt lat="45.11417" lon="5.04588">
        <ele>277.4</ele>
        <time>2019-04-15T06:48:14Z</time>
      </trkpt>
      <trkpt lat="45.11371" lon="5.04601">
        <ele>275.2</ele>
        <time>2019-04-15T06:48:18Z</time>
      </trkpt>
      <trkpt lat="45.11325" lon="5.04617">
        <ele>272.8</ele>
        <time>2019-04-15T06:48:22Z</time>
      </trkpt>
      <trkpt lat="45.11279" lon="5.04633">
        <ele>270.4</ele>
        <time>2019-04-15T06:48:26Z</time>
      </trkpt>
      <trkpt lat="45.11233" lon="5.04649">
        <ele>268</ele>
        <time>2019-04-15T06:48:30Z</time>
      </trkpt>
      <trkpt lat="45.11185" lon="5.04662">
        <ele>265.6</ele>
        <time>2019-04-15T06:48:34Z</time>
      </trkpt>
      <trkpt lat="45.11137" lon="5.04657">
        <ele>264.2</ele>
        <time>2019-04-15T06:48:38Z</time>
      </trkpt>
      <trkpt lat="45.11091" lon="5.0465">
        <ele>261.8</ele>
        <time>2019-04-15T06:48:42Z</time>
      </trkpt>
      <trkpt lat="45.11045" lon="5.04654">
        <ele>259.2</ele>
        <time>2019-04-15T06:48:46Z</time>
      </trkpt>
      <trkpt lat="45.11" lon="5.0466">
        <ele>257</ele>
        <time>2019-04-15T06:48:50Z</time>
      </trkpt>
      <trkpt lat="45.10953" lon="5.04654">
        <ele>254.4</ele>
        <time>2019-04-15T06:48:54Z</time>
      </trkpt>
      <trkpt lat="45.10908" lon="5.04629">
        <ele>251</ele>
        <time>2019-04-15T06:48:58Z</time>
      </trkpt>
      <trkpt lat="45.10864" lon="5.04595">
        <ele>248.8</ele>
        <time>2019-04-15T06:49:02Z</time>
      </trkpt>
      <trkpt lat="45.1082" lon="5.0456">
        <ele>246.8</ele>
        <time>2019-04-15T06:49:06Z</time>
      </trkpt>
      <trkpt lat="45.10775" lon="5.04523">
        <ele>243.4</ele>
        <time>2019-04-15T06:49:10Z</time>
      </trkpt>
      <trkpt lat="45.10729" lon="5.04487">
        <ele>240.4</ele>
        <time>2019-04-15T06:49:14Z</time>
      </trkpt>
      <trkpt lat="45.1068" lon="5.04454">
        <ele>237.8</ele>
        <time>2019-04-15T06:49:18Z</time>
      </trkpt>
      <trkpt lat="45.1063" lon="5.04433">
        <ele>236.6</ele>
        <time>2019-04-15T06:49:22Z</time>
      </trkpt>
      <trkpt lat="45.10581" lon="5.04416">
        <ele>234.8</ele>
        <time>2019-04-15T06:49:26Z</time>
      </trkpt>
      <trkpt lat="45.10533" lon="5.04401">
        <ele>233.4</ele>
        <time>2019-04-15T06:49:30Z</time>
      </trkpt>
      <trkpt lat="45.10486" lon="5.04385">
        <ele>231.8</ele>
        <time>2019-04-15T06:49:34Z</time>
      </trkpt>
      <trkpt lat="45.1044" lon="5.04367">
        <ele>230.2</ele>
        <time>2019-04-15T06:49:38Z</time>
      </trkpt>
      <trkpt lat="45.10395" lon="5.04345">
        <ele>229.4</ele>
        <time>2019-04-15T06:49:42Z</time>
      </trkpt>
      <trkpt lat="45.1035" lon="5.04326">
        <ele>228.4</ele>
        <time>2019-04-15T06:49:46Z</time>
      </trkpt>
      <trkpt lat="45.10306" lon="5.04307">
        <ele>227.2</ele>
        <time>2019-04-15T06:49:50Z</time>
      </trkpt>
      <trkpt lat="45.10261" lon="5.04288">
        <ele>226.2</ele>
        <time>2019-04-15T06:49:54Z</time>
      </trkpt>
      <trkpt lat="45.10217" lon="5.04272">
        <ele>224.2</ele>
        <time>2019-04-15T06:49:58Z</time>
      </trkpt>
      <trkpt lat="45.10172" lon="5.0427">
        <ele>224.2</ele>
        <time>2019-04-15T06:50:02Z</time>
      </trkpt>
      <trkpt lat="45.10128" lon="5.04281">
        <ele>222.8</ele>
        <time>2019-04-15T06:50:06Z</time>
      </trkpt>
      <trkpt lat="45.10085" lon="5.04299">
        <ele>222.8</ele>
        <time>2019-04-15T06:50:10Z</time>
      </trkpt>
      <trkpt lat="45.10046" lon="5.04326">
        <ele>222.8</ele>
        <time>2019-04-15T06:50:14Z</time>
      </trkpt>
      <trkpt lat="45.10009" lon="5.04359">
        <ele>221.4</ele>
        <time>2019-04-15T06:50:18Z</time>
      </trkpt>
      <trkpt lat="45.09974" lon="5.04393">
        <ele>223.4</ele>
        <time>2019-04-15T06:50:22Z</time>
      </trkpt>
      <trkpt lat="45.09936" lon="5.04422">
        <ele>219.6</ele>
        <time>2019-04-15T06:50:26Z</time>
      </trkpt>
      <trkpt lat="45.09894" lon="5.04442">
        <ele>219.4</ele>
        <time>2019-04-15T06:50:30Z</time>
      </trkpt>
      <trkpt lat="45.0985" lon="5.04456">
        <ele>218.8</ele>
        <time>2019-04-15T06:50:34Z</time>
      </trkpt>
      <trkpt lat="45.09807" lon="5.04469">
        <ele>218.2</ele>
        <time>2019-04-15T06:50:38Z</time>
      </trkpt>
      <trkpt lat="45.09765" lon="5.04482">
        <ele>217.6</ele>
        <time>2019-04-15T06:50:42Z</time>
      </trkpt>
      <trkpt lat="45.09724" lon="5.04494">
        <ele>217.2</ele>
        <time>2019-04-15T06:50:46Z</time>
      </trkpt>
      <trkpt lat="45.09686" lon="5.04505">
        <ele>217</ele>
        <time>2019-04-15T06:50:50Z</time>
      </trkpt>
      <trkpt lat="45.0965" lon="5.04513">
        <ele>216.8</ele>
        <time>2019-04-15T06:50:54Z</time>
      </trkpt>
      <trkpt lat="45.09625" lon="5.04512">
        <ele>216.8</ele>
        <time>2019-04-15T06:50:58Z</time>
      </trkpt>
      <trkpt lat="45.09619" lon="5.04512">
        <ele>216.4</ele>
        <time>2019-04-15T06:51:02Z</time>
      </trkpt>
      <trkpt lat="45.0961" lon="5.04517">
        <ele>216.4</ele>
        <time>2019-04-15T06:51:06Z</time>
      </trkpt>
      <trkpt lat="45.09601" lon="5.04532">
        <ele>215.8</ele>
        <time>2019-04-15T06:51:10Z</time>
      </trkpt>
      <trkpt lat="45.09597" lon="5.04542">
        <ele>215.4</ele>
        <time>2019-04-15T06:51:14Z</time>
      </trkpt>
      <trkpt lat="45.09594" lon="5.0455">
        <ele>215.2</ele>
        <time>2019-04-15T06:51:18Z</time>
      </trkpt>
      <trkpt lat="45.09588" lon="5.04561">
        <ele>215.2</ele>
        <time>2019-04-15T06:51:22Z</time>
      </trkpt>
      <trkpt lat="45.09581" lon="5.04576">
        <ele>214.2</ele>
        <time>2019-04-15T06:51:26Z</time>
      </trkpt>
      <trkpt lat="45.09571" lon="5.04591">
        <ele>214</ele>
        <time>2019-04-15T06:51:30Z</time>
      </trkpt>
      <trkpt lat="45.09559" lon="5.04601">
        <ele>214.2</ele>
        <time>2019-04-15T06:51:34Z</time>
      </trkpt>
      <trkpt lat="45.09548" lon="5.04609">
        <ele>213.4</ele>
        <time>2019-04-15T06:51:38Z</time>
      </trkpt>
      <trkpt lat="45.09534" lon="5.04618">
        <ele>213.2</ele>
        <time>2019-04-15T06:51:42Z</time>
      </trkpt>
      <trkpt lat="45.09519" lon="5.04627">
        <ele>212.6</ele>
        <time>2019-04-15T06:51:46Z</time>
      </trkpt>
      <trkpt lat="45.09502" lon="5.04629">
        <ele>212.2</ele>
        <time>2019-04-15T06:51:50Z</time>
      </trkpt>
      <trkpt lat="45.09485" lon="5.04632">
        <ele>211.8</ele>
        <time>2019-04-15T06:51:54Z</time>
      </trkpt>
      <trkpt lat="45.09464" lon="5.0464">
        <ele>211.6</ele>
        <time>2019-04-15T06:51:58Z</time>
      </trkpt>
      <trkpt lat="45.09446" lon="5.04651">
        <ele>211.6</ele>
        <time>2019-04-15T06:52:02Z</time>
      </trkpt>
      <trkpt lat="45.09425" lon="5.04661">
        <ele>211</ele>
        <time>2019-04-15T06:52:06Z</time>
      </trkpt>
      <trkpt lat="45.0941" lon="5.04666">
        <ele>210.8</ele>
        <time>2019-04-15T06:52:10Z</time>
      </trkpt>
      <trkpt lat="45.09408" lon="5.0467">
        <ele>210.4</ele>
        <time>2019-04-15T06:52:14Z</time>
      </trkpt>
      <trkpt lat="45.09406" lon="5.0467">
        <ele>210.2</ele>
        <time>2019-04-15T06:52:18Z</time>
      </trkpt>
      <trkpt lat="45.09401" lon="5.04672">
        <ele>210</ele>
        <time>2019-04-15T06:52:22Z</time>
      </trkpt>
      <trkpt lat="45.09389" lon="5.04679">
        <ele>210</ele>
        <time>2019-04-15T06:52:26Z</time>
      </trkpt>
      <trkpt lat="45.09369" lon="5.04693">
        <ele>209</ele>
        <time>2019-04-15T06:52:30Z</time>
      </trkpt>
      <trkpt lat="45.09345" lon="5.04713">
        <ele>208.2</ele>
        <time>2019-04-15T06:52:34Z</time>
      </trkpt>
      <trkpt lat="45.0932" lon="5.04736">
        <ele>208.2</ele>
        <time>2019-04-15T06:52:38Z</time>
      </trkpt>
      <trkpt lat="45.09297" lon="5.04766">
        <ele>207.6</ele>
        <time>2019-04-15T06:52:42Z</time>
      </trkpt>
      <trkpt lat="45.09267" lon="5.04783">
        <ele>207</ele>
        <time>2019-04-15T06:52:46Z</time>
      </trkpt>
      <trkpt lat="45.09233" lon="5.04794">
        <ele>206.6</ele>
        <time>2019-04-15T06:52:50Z</time>
      </trkpt>
      <trkpt lat="45.09201" lon="5.048">
        <ele>206</ele>
        <time>2019-04-15T06:52:54Z</time>
      </trkpt>
      <trkpt lat="45.09179" lon="5.04784">
        <ele>205</ele>
        <time>2019-04-15T06:52:58Z</time>
      </trkpt>
      <trkpt lat="45.09168" lon="5.04752">
        <ele>205</ele>
        <time>2019-04-15T06:53:02Z</time>
      </trkpt>
      <trkpt lat="45.09149" lon="5.04729">
        <ele>206.2</ele>
        <time>2019-04-15T06:53:06Z</time>
      </trkpt>
      <trkpt lat="45.09121" lon="5.04724">
        <ele>206.2</ele>
        <time>2019-04-15T06:53:10Z</time>
      </trkpt>
      <trkpt lat="45.09088" lon="5.0472">
        <ele>206</ele>
        <time>2019-04-15T06:53:14Z</time>
      </trkpt>
      <trkpt lat="45.09052" lon="5.04714">
        <ele>204.2</ele>
        <time>2019-04-15T06:53:18Z</time>
      </trkpt>
      <trkpt lat="45.09012" lon="5.04715">
        <ele>203</ele>
        <time>2019-04-15T06:53:22Z</time>
      </trkpt>
      <trkpt lat="45.08972" lon="5.04722">
        <ele>201.8</ele>
        <time>2019-04-15T06:53:26Z</time>
      </trkpt>
      <trkpt lat="45.08932" lon="5.04727">
        <ele>201.6</ele>
        <time>2019-04-15T06:53:30Z</time>
      </trkpt>
      <trkpt lat="45.08894" lon="5.04732">
        <ele>201.6</ele>
        <time>2019-04-15T06:53:34Z</time>
      </trkpt>
      <trkpt lat="45.08858" lon="5.04736">
        <ele>201.4</ele>
        <time>2019-04-15T06:53:38Z</time>
      </trkpt>
      <trkpt lat="45.08824" lon="5.04741">
        <ele>201.4</ele>
        <time>2019-04-15T06:53:42Z</time>
      </trkpt>
      <trkpt lat="45.08792" lon="5.04744">
        <ele>201.4</ele>
        <time>2019-04-15T06:53:46Z</time>
      </trkpt>
      <trkpt lat="45.08761" lon="5.04746">
        <ele>200.8</ele>
        <time>2019-04-15T06:53:50Z</time>
      </trkpt>
      <trkpt lat="45.08732" lon="5.0475">
        <ele>200.6</ele>
        <time>2019-04-15T06:53:54Z</time>
      </trkpt>
      <trkpt lat="45.08712" lon="5.04752">
        <ele>200</ele>
        <time>2019-04-15T06:53:58Z</time>
      </trkpt>
      <trkpt lat="45.08696" lon="5.04753">
        <ele>199.6</ele>
        <time>2019-04-15T06:54:02Z</time>
      </trkpt>
      <trkpt lat="45.08679" lon="5.04757">
        <ele>199.4</ele>
        <time>2019-04-15T06:54:06Z</time>
      </trkpt>
      <trkpt lat="45.08657" lon="5.04761">
        <ele>198.4</ele>
        <time>2019-04-15T06:54:10Z</time>
      </trkpt>
      <trkpt lat="45.08631" lon="5.04766">
        <ele>198.6</ele>
        <time>2019-04-15T06:54:14Z</time>
      </trkpt>
      <trkpt lat="45.08605" lon="5.0477">
        <ele>198.2</ele>
        <time>2019-04-15T06:54:18Z</time>
      </trkpt>
      <trkpt lat="45.08577" lon="5.04771">
        <ele>197.2</ele>
        <time>2019-04-15T06:54:22Z</time>
      </trkpt>
      <trkpt lat="45.08551" lon="5.04774">
        <ele>196.6</ele>
        <time>2019-04-15T06:54:26Z</time>
      </trkpt>
      <trkpt lat="45.08527" lon="5.04777">
        <ele>196.4</ele>
        <time>2019-04-15T06:54:30Z</time>
      </trkpt>
      <trkpt lat="45.08501" lon="5.04781">
        <ele>196</ele>
        <time>2019-04-15T06:54:34Z</time>
      </trkpt>
      <trkpt lat="45.08474" lon="5.0478">
        <ele>195.8</ele>
        <time>2019-04-15T06:54:38Z</time>
      </trkpt>
      <trkpt lat="45.08447" lon="5.04786">
        <ele>196.2</ele>
        <time>2019-04-15T06:54:42Z</time>
      </trkpt>
      <trkpt lat="45.08416" lon="5.0479">
        <ele>195.8</ele>
        <time>2019-04-15T06:54:46Z</time>
      </trkpt>
      <trkpt lat="45.08382" lon="5.04794">
        <ele>195.6</ele>
        <time>2019-04-15T06:54:50Z</time>
      </trkpt>
      <trkpt lat="45.08348" lon="5.04798">
        <ele>195.8</ele>
        <time>2019-04-15T06:54:54Z</time>
      </trkpt>
      <trkpt lat="45.08314" lon="5.04802">
        <ele>195.2</ele>
        <time>2019-04-15T06:54:58Z</time>
      </trkpt>
      <trkpt lat="45.08279" lon="5.04807">
        <ele>194.8</ele>
        <time>2019-04-15T06:55:02Z</time>
      </trkpt>
      <trkpt lat="45.08246" lon="5.04811">
        <ele>195.6</ele>
        <time>2019-04-15T06:55:06Z</time>
      </trkpt>
      <trkpt lat="45.08212" lon="5.04815">
        <ele>195.6</ele>
        <time>2019-04-15T06:55:10Z</time>
      </trkpt>
      <trkpt lat="45.0818" lon="5.04818">
        <ele>196.2</ele>
        <time>2019-04-15T06:55:14Z</time>
      </trkpt>
      <trkpt lat="45.08147" lon="5.04822">
        <ele>197</ele>
        <time>2019-04-15T06:55:18Z</time>
      </trkpt>
      <trkpt lat="45.08116" lon="5.04827">
        <ele>198</ele>
        <time>2019-04-15T06:55:22Z</time>
      </trkpt>
      <trkpt lat="45.08084" lon="5.0483">
        <ele>197.6</ele>
        <time>2019-04-15T06:55:26Z</time>
      </trkpt>
      <trkpt lat="45.08052" lon="5.04835">
        <ele>199.4</ele>
        <time>2019-04-15T06:55:30Z</time>
      </trkpt>
      <trkpt lat="45.0802" lon="5.04839">
        <ele>199</ele>
        <time>2019-04-15T06:55:34Z</time>
      </trkpt>
      <trkpt lat="45.07988" lon="5.04842">
        <ele>199</ele>
        <time>2019-04-15T06:55:38Z</time>
      </trkpt>
      <trkpt lat="45.07956" lon="5.04846">
        <ele>198.6</ele>
        <time>2019-04-15T06:55:42Z</time>
      </trkpt>
      <trkpt lat="45.07922" lon="5.04849">
        <ele>198.4</ele>
        <time>2019-04-15T06:55:46Z</time>
      </trkpt>
      <trkpt lat="45.07888" lon="5.04853">
        <ele>198.2</ele>
        <time>2019-04-15T06:55:50Z</time>
      </trkpt>
      <trkpt lat="45.07853" lon="5.04857">
        <ele>197.6</ele>
        <time>2019-04-15T06:55:54Z</time>
      </trkpt>
      <trkpt lat="45.07818" lon="5.04861">
        <ele>197.2</ele>
        <time>2019-04-15T06:55:58Z</time>
      </trkpt>
      <trkpt lat="45.07783" lon="5.04866">
        <ele>197.2</ele>
        <time>2019-04-15T06:56:02Z</time>
      </trkpt>
      <trkpt lat="45.07749" lon="5.0487">
        <ele>197</ele>
        <time>2019-04-15T06:56:06Z</time>
      </trkpt>
      <trkpt lat="45.07714" lon="5.04873">
        <ele>196.4</ele>
        <time>2019-04-15T06:56:10Z</time>
      </trkpt>
      <trkpt lat="45.07681" lon="5.04877">
        <ele>197.4</ele>
        <time>2019-04-15T06:56:14Z</time>
      </trkpt>
      <trkpt lat="45.07647" lon="5.04881">
        <ele>197.4</ele>
        <time>2019-04-15T06:56:18Z</time>
      </trkpt>
      <trkpt lat="45.07613" lon="5.04885">
        <ele>197.2</ele>
        <time>2019-04-15T06:56:22Z</time>
      </trkpt>
      <trkpt lat="45.0758" lon="5.04889">
        <ele>196.8</ele>
        <time>2019-04-15T06:56:26Z</time>
      </trkpt>
      <trkpt lat="45.07547" lon="5.04892">
        <ele>196.4</ele>
        <time>2019-04-15T06:56:30Z</time>
      </trkpt>
      <trkpt lat="45.07514" lon="5.04896">
        <ele>197</ele>
        <time>2019-04-15T06:56:34Z</time>
      </trkpt>
      <trkpt lat="45.07482" lon="5.04899">
        <ele>197</ele>
        <time>2019-04-15T06:56:38Z</time>
      </trkpt>
      <trkpt lat="45.0745" lon="5.04906">
        <ele>197</ele>
        <time>2019-04-15T06:56:42Z</time>
      </trkpt>
      <trkpt lat="45.07419" lon="5.0492">
        <ele>197</ele>
        <time>2019-04-15T06:56:46Z</time>
      </trkpt>
      <trkpt lat="45.07389" lon="5.0494">
        <ele>196.6</ele>
        <time>2019-04-15T06:56:50Z</time>
      </trkpt>
      <trkpt lat="45.0736" lon="5.04966">
        <ele>195.8</ele>
        <time>2019-04-15T06:56:54Z</time>
      </trkpt>
      <trkpt lat="45.0733" lon="5.04991">
        <ele>195</ele>
        <time>2019-04-15T06:56:58Z</time>
      </trkpt>
      <trkpt lat="45.07297" lon="5.05013">
        <ele>195</ele>
        <time>2019-04-15T06:57:02Z</time>
      </trkpt>
      <trkpt lat="45.07261" lon="5.05029">
        <ele>193.6</ele>
        <time>2019-04-15T06:57:06Z</time>
      </trkpt>
      <trkpt lat="45.07221" lon="5.05042">
        <ele>191.4</ele>
        <time>2019-04-15T06:57:10Z</time>
      </trkpt>
      <trkpt lat="45.0718" lon="5.05054">
        <ele>189</ele>
        <time>2019-04-15T06:57:14Z</time>
      </trkpt>
      <trkpt lat="45.07136" lon="5.05067">
        <ele>185.6</ele>
        <time>2019-04-15T06:57:18Z</time>
      </trkpt>
      <trkpt lat="45.07095" lon="5.05079">
        <ele>184</ele>
        <time>2019-04-15T06:57:22Z</time>
      </trkpt>
      <trkpt lat="45.07063" lon="5.05088">
        <ele>181.8</ele>
        <time>2019-04-15T06:57:26Z</time>
      </trkpt>
      <trkpt lat="45.0704" lon="5.0509">
        <ele>180</ele>
        <time>2019-04-15T06:57:30Z</time>
      </trkpt>
      <trkpt lat="45.07032" lon="5.05087">
        <ele>179.6</ele>
        <time>2019-04-15T06:57:34Z</time>
      </trkpt>
      <trkpt lat="45.07017" lon="5.05093">
        <ele>178.6</ele>
        <time>2019-04-15T06:57:38Z</time>
      </trkpt>
      <trkpt lat="45.06995" lon="5.05107">
        <ele>178.2</ele>
        <time>2019-04-15T06:57:42Z</time>
      </trkpt>
      <trkpt lat="45.06964" lon="5.05116">
        <ele>176.6</ele>
        <time>2019-04-15T06:57:46Z</time>
      </trkpt>
      <trkpt lat="45.06929" lon="5.05124">
        <ele>175.8</ele>
        <time>2019-04-15T06:57:50Z</time>
      </trkpt>
      <trkpt lat="45.06894" lon="5.05136">
        <ele>175.2</ele>
        <time>2019-04-15T06:57:54Z</time>
      </trkpt>
      <trkpt lat="45.06858" lon="5.05146">
        <ele>175</ele>
        <time>2019-04-15T06:57:58Z</time>
      </trkpt>
      <trkpt lat="45.06823" lon="5.05156">
        <ele>174.6</ele>
        <time>2019-04-15T06:58:02Z</time>
      </trkpt>
      <trkpt lat="45.06789" lon="5.05166">
        <ele>174.2</ele>
        <time>2019-04-15T06:58:06Z</time>
      </trkpt>
      <trkpt lat="45.06757" lon="5.05175">
        <ele>174.4</ele>
        <time>2019-04-15T06:58:10Z</time>
      </trkpt>
      <trkpt lat="45.06739" lon="5.0518">
        <ele>174.4</ele>
        <time>2019-04-15T06:58:14Z</time>
      </trkpt>
      <trkpt lat="45.06724" lon="5.05181">
        <ele>174.2</ele>
        <time>2019-04-15T06:58:18Z</time>
      </trkpt>
      <trkpt lat="45.06701" lon="5.0519">
        <ele>174.6</ele>
        <time>2019-04-15T06:58:22Z</time>
      </trkpt>
      <trkpt lat="45.06674" lon="5.05198">
        <ele>174.6</ele>
        <time>2019-04-15T06:58:26Z</time>
      </trkpt>
      <trkpt lat="45.06645" lon="5.05209">
        <ele>174.6</ele>
        <time>2019-04-15T06:58:30Z</time>
      </trkpt>
      <trkpt lat="45.06615" lon="5.05217">
        <ele>174.4</ele>
        <time>2019-04-15T06:58:34Z</time>
      </trkpt>
      <trkpt lat="45.06584" lon="5.05224">
        <ele>174</ele>
        <time>2019-04-15T06:58:38Z</time>
      </trkpt>
      <trkpt lat="45.06553" lon="5.05232">
        <ele>174.2</ele>
        <time>2019-04-15T06:58:42Z</time>
      </trkpt>
      <trkpt lat="45.06521" lon="5.05241">
        <ele>173.8</ele>
        <time>2019-04-15T06:58:46Z</time>
      </trkpt>
      <trkpt lat="45.06489" lon="5.05246">
        <ele>174</ele>
        <time>2019-04-15T06:58:50Z</time>
      </trkpt>
      <trkpt lat="45.06458" lon="5.05247">
        <ele>174.2</ele>
        <time>2019-04-15T06:58:54Z</time>
      </trkpt>
      <trkpt lat="45.06426" lon="5.05243">
        <ele>174</ele>
        <time>2019-04-15T06:58:58Z</time>
      </trkpt>
      <trkpt lat="45.06397" lon="5.05236">
        <ele>174.2</ele>
        <time>2019-04-15T06:59:02Z</time>
      </trkpt>
      <trkpt lat="45.06368" lon="5.05223">
        <ele>174</ele>
        <time>2019-04-15T06:59:06Z</time>
      </trkpt>
      <trkpt lat="45.06338" lon="5.05208">
        <ele>174.2</ele>
        <time>2019-04-15T06:59:10Z</time>
      </trkpt>
      <trkpt lat="45.06311" lon="5.05194">
        <ele>174</ele>
        <time>2019-04-15T06:59:14Z</time>
      </trkpt>
      <trkpt lat="45.06289" lon="5.05184">
        <ele>174.2</ele>
        <time>2019-04-15T06:59:18Z</time>
      </trkpt>
      <trkpt lat="45.06276" lon="5.05177">
        <ele>173.8</ele>
        <time>2019-04-15T06:59:22Z</time>
      </trkpt>
      <trkpt lat="45.06263" lon="5.05169">
        <ele>173.6</ele>
        <time>2019-04-15T06:59:26Z</time>
      </trkpt>
      <trkpt lat="45.06245" lon="5.05157">
        <ele>174</ele>
        <time>2019-04-15T06:59:30Z</time>
      </trkpt>
      <trkpt lat="45.06227" lon="5.05145">
        <ele>173.2</ele>
        <time>2019-04-15T06:59:34Z</time>
      </trkpt>
      <trkpt lat="45.06213" lon="5.05138">
        <ele>172.8</ele>
        <time>2019-04-15T06:59:38Z</time>
      </trkpt>
      <trkpt lat="45.06199" lon="5.05132">
        <ele>173</ele>
        <time>2019-04-15T06:59:42Z</time>
      </trkpt>
      <trkpt lat="45.06176" lon="5.05122">
        <ele>173</ele>
        <time>2019-04-15T06:59:46Z</time>
      </trkpt>
      <trkpt lat="45.0615" lon="5.0511">
        <ele>172.6</ele>
        <time>2019-04-15T06:59:50Z</time>
      </trkpt>
      <trkpt lat="45.06125" lon="5.05098">
        <ele>171.8</ele>
        <time>2019-04-15T06:59:54Z</time>
      </trkpt>
      <trkpt lat="45.06101" lon="5.05083">
        <ele>171.8</ele>
        <time>2019-04-15T06:59:58Z</time>
      </trkpt>
      <trkpt lat="45.0608" lon="5.05091">
        <ele>172.2</ele>
        <time>2019-04-15T07:00:02Z</time>
      </trkpt>
      <trkpt lat="45.0608" lon="5.05124">
        <ele>172.4</ele>
        <time>2019-04-15T07:00:06Z</time>
      </trkpt>
      <trkpt lat="45.06084" lon="5.05164">
        <ele>171.2</ele>
        <time>2019-04-15T07:00:10Z</time>
      </trkpt>
      <trkpt lat="45.06077" lon="5.05207">
        <ele>170.6</ele>
        <time>2019-04-15T07:00:14Z</time>
      </trkpt>
      <trkpt lat="45.06068" lon="5.05249">
        <ele>171.4</ele>
        <time>2019-04-15T07:00:18Z</time>
      </trkpt>
      <trkpt lat="45.06059" lon="5.05292">
        <ele>171.2</ele>
        <time>2019-04-15T07:00:22Z</time>
      </trkpt>
      <trkpt lat="45.06051" lon="5.05335">
        <ele>171.4</ele>
        <time>2019-04-15T07:00:26Z</time>
      </trkpt>
      <trkpt lat="45.06042" lon="5.05378">
        <ele>172</ele>
        <time>2019-04-15T07:00:30Z</time>
      </trkpt>
      <trkpt lat="45.06033" lon="5.05421">
        <ele>172.4</ele>
        <time>2019-04-15T07:00:34Z</time>
      </trkpt>
      <trkpt lat="45.06024" lon="5.05462">
        <ele>172</ele>
        <time>2019-04-15T07:00:38Z</time>
      </trkpt>
      <trkpt lat="45.06016" lon="5.05504">
        <ele>172.4</ele>
        <time>2019-04-15T07:00:42Z</time>
      </trkpt>
      <trkpt lat="45.06007" lon="5.05546">
        <ele>172.2</ele>
        <time>2019-04-15T07:00:46Z</time>
      </trkpt>
      <trkpt lat="45.05999" lon="5.05588">
        <ele>172.2</ele>
        <time>2019-04-15T07:00:50Z</time>
      </trkpt>
      <trkpt lat="45.0599" lon="5.05629">
        <ele>172.2</ele>
        <time>2019-04-15T07:00:54Z</time>
      </trkpt>
      <trkpt lat="45.05982" lon="5.05671">
        <ele>172.2</ele>
        <time>2019-04-15T07:00:58Z</time>
      </trkpt>
      <trkpt lat="45.05973" lon="5.05712">
        <ele>172.2</ele>
        <time>2019-04-15T07:01:02Z</time>
      </trkpt>
      <trkpt lat="45.05964" lon="5.05753">
        <ele>172.4</ele>
        <time>2019-04-15T07:01:06Z</time>
      </trkpt>
      <trkpt lat="45.05953" lon="5.05793">
        <ele>172.4</ele>
        <time>2019-04-15T07:01:10Z</time>
      </trkpt>
      <trkpt lat="45.05942" lon="5.05832">
        <ele>171.6</ele>
        <time>2019-04-15T07:01:14Z</time>
      </trkpt>
      <trkpt lat="45.05931" lon="5.05871">
        <ele>172.8</ele>
        <time>2019-04-15T07:01:18Z</time>
      </trkpt>
      <trkpt lat="45.05918" lon="5.05909">
        <ele>172.8</ele>
        <time>2019-04-15T07:01:22Z</time>
      </trkpt>
      <trkpt lat="45.05904" lon="5.05949">
        <ele>173</ele>
        <time>2019-04-15T07:01:26Z</time>
      </trkpt>
      <trkpt lat="45.05891" lon="5.0599">
        <ele>173.4</ele>
        <time>2019-04-15T07:01:30Z</time>
      </trkpt>
      <trkpt lat="45.05877" lon="5.06031">
        <ele>173</ele>
        <time>2019-04-15T07:01:34Z</time>
      </trkpt>
      <trkpt lat="45.05863" lon="5.06072">
        <ele>173.2</ele>
        <time>2019-04-15T07:01:38Z</time>
      </trkpt>
      <trkpt lat="45.0585" lon="5.06113">
        <ele>173</ele>
        <time>2019-04-15T07:01:42Z</time>
      </trkpt>
      <trkpt lat="45.05836" lon="5.06154">
        <ele>173</ele>
        <time>2019-04-15T07:01:46Z</time>
      </trkpt>
      <trkpt lat="45.05822" lon="5.06195">
        <ele>173.2</ele>
        <time>2019-04-15T07:01:50Z</time>
      </trkpt>
      <trkpt lat="45.05809" lon="5.06234">
        <ele>173.4</ele>
        <time>2019-04-15T07:01:54Z</time>
      </trkpt>
      <trkpt lat="45.05796" lon="5.06274">
        <ele>173.4</ele>
        <time>2019-04-15T07:01:58Z</time>
      </trkpt>
      <trkpt lat="45.05782" lon="5.06313">
        <ele>173.2</ele>
        <time>2019-04-15T07:02:02Z</time>
      </trkpt>
      <trkpt lat="45.0577" lon="5.06353">
        <ele>173.6</ele>
        <time>2019-04-15T07:02:06Z</time>
      </trkpt>
      <trkpt lat="45.05756" lon="5.06392">
        <ele>173.6</ele>
        <time>2019-04-15T07:02:10Z</time>
      </trkpt>
      <trkpt lat="45.05742" lon="5.0643">
        <ele>173.8</ele>
        <time>2019-04-15T07:02:14Z</time>
      </trkpt>
      <trkpt lat="45.05722" lon="5.06454">
        <ele>173.8</ele>
        <time>2019-04-15T07:02:18Z</time>
      </trkpt>
      <trkpt lat="45.05705" lon="5.0646">
        <ele>173.4</ele>
        <time>2019-04-15T07:02:22Z</time>
      </trkpt>
      <trkpt lat="45.05702" lon="5.06465">
        <ele>173.8</ele>
        <time>2019-04-15T07:02:26Z</time>
      </trkpt>
      <trkpt lat="45.05707" lon="5.06464">
        <ele>173.4</ele>
        <time>2019-04-15T07:02:30Z</time>
      </trkpt>
      <trkpt lat="45.05716" lon="5.06462">
        <ele>173.2</ele>
        <time>2019-04-15T07:02:34Z</time>
      </trkpt>
      <trkpt lat="45.05723" lon="5.06463">
        <ele>173.2</ele>
        <time>2019-04-15T07:02:38Z</time>
      </trkpt>
      <trkpt lat="45.0573" lon="5.06471">
        <ele>173.6</ele>
        <time>2019-04-15T07:02:42Z</time>
      </trkpt>
      <trkpt lat="45.05725" lon="5.06479">
        <ele>173.4</ele>
        <time>2019-04-15T07:02:46Z</time>
      </trkpt>
      <trkpt lat="45.05718" lon="5.065">
        <ele>173.2</ele>
        <time>2019-04-15T07:02:50Z</time>
      </trkpt>
      <trkpt lat="45.05708" lon="5.0653">
        <ele>172</ele>
        <time>2019-04-15T07:02:54Z</time>
      </trkpt>
      <trkpt lat="45.05697" lon="5.06565">
        <ele>172.4</ele>
        <time>2019-04-15T07:02:58Z</time>
      </trkpt>
      <trkpt lat="45.05687" lon="5.06602">
        <ele>172.6</ele>
        <time>2019-04-15T07:03:02Z</time>
      </trkpt>
      <trkpt lat="45.05679" lon="5.06641">
        <ele>172.8</ele>
        <time>2019-04-15T07:03:06Z</time>
      </trkpt>
      <trkpt lat="45.0567" lon="5.06681">
        <ele>172.8</ele>
        <time>2019-04-15T07:03:10Z</time>
      </trkpt>
      <trkpt lat="45.05663" lon="5.06721">
        <ele>173.2</ele>
        <time>2019-04-15T07:03:14Z</time>
      </trkpt>
      <trkpt lat="45.05657" lon="5.06763">
        <ele>173.2</ele>
        <time>2019-04-15T07:03:18Z</time>
      </trkpt>
      <trkpt lat="45.05651" lon="5.06806">
        <ele>172.6</ele>
        <time>2019-04-15T07:03:22Z</time>
      </trkpt>
      <trkpt lat="45.05644" lon="5.06847">
        <ele>172.8</ele>
        <time>2019-04-15T07:03:26Z</time>
      </trkpt>
      <trkpt lat="45.05637" lon="5.06888">
        <ele>172.8</ele>
        <time>2019-04-15T07:03:30Z</time>
      </trkpt>
      <trkpt lat="45.05632" lon="5.06929">
        <ele>172.8</ele>
        <time>2019-04-15T07:03:34Z</time>
      </trkpt>
      <trkpt lat="45.05626" lon="5.06966">
        <ele>172.6</ele>
        <time>2019-04-15T07:03:38Z</time>
      </trkpt>
      <trkpt lat="45.05619" lon="5.07002">
        <ele>173.2</ele>
        <time>2019-04-15T07:03:42Z</time>
      </trkpt>
      <trkpt lat="45.05609" lon="5.07037">
        <ele>172.8</ele>
        <time>2019-04-15T07:03:46Z</time>
      </trkpt>
      <trkpt lat="45.05598" lon="5.0707">
        <ele>173.6</ele>
        <time>2019-04-15T07:03:50Z</time>
      </trkpt>
      <trkpt lat="45.05585" lon="5.07081">
        <ele>173.6</ele>
        <time>2019-04-15T07:03:54Z</time>
      </trkpt>
      <trkpt lat="45.05579" lon="5.071">
        <ele>174.2</ele>
        <time>2019-04-15T07:03:58Z</time>
      </trkpt>
      <trkpt lat="45.05573" lon="5.07113">
        <ele>174.2</ele>
        <time>2019-04-15T07:04:02Z</time>
      </trkpt>
      <trkpt lat="45.05563" lon="5.07121">
        <ele>173.8</ele>
        <time>2019-04-15T07:04:06Z</time>
      </trkpt>
      <trkpt lat="45.05555" lon="5.07142">
        <ele>174.2</ele>
        <time>2019-04-15T07:04:10Z</time>
      </trkpt>
      <trkpt lat="45.05556" lon="5.07174">
        <ele>174.2</ele>
        <time>2019-04-15T07:04:14Z</time>
      </trkpt>
      <trkpt lat="45.05544" lon="5.07206">
        <ele>173.8</ele>
        <time>2019-04-15T07:04:18Z</time>
      </trkpt>
      <trkpt lat="45.05528" lon="5.07238">
        <ele>174.6</ele>
        <time>2019-04-15T07:04:22Z</time>
      </trkpt>
      <trkpt lat="45.05512" lon="5.07271">
        <ele>175.6</ele>
        <time>2019-04-15T07:04:26Z</time>
      </trkpt>
      <trkpt lat="45.05495" lon="5.07305">
        <ele>175.8</ele>
        <time>2019-04-15T07:04:30Z</time>
      </trkpt>
      <trkpt lat="45.05479" lon="5.07339">
        <ele>175.6</ele>
        <time>2019-04-15T07:04:34Z</time>
      </trkpt>
      <trkpt lat="45.05462" lon="5.07372">
        <ele>175.8</ele>
        <time>2019-04-15T07:04:38Z</time>
      </trkpt>
      <trkpt lat="45.05446" lon="5.07406">
        <ele>175.8</ele>
        <time>2019-04-15T07:04:42Z</time>
      </trkpt>
      <trkpt lat="45.05428" lon="5.07441">
        <ele>176</ele>
        <time>2019-04-15T07:04:46Z</time>
      </trkpt>
      <trkpt lat="45.05411" lon="5.07476">
        <ele>176.8</ele>
        <time>2019-04-15T07:04:50Z</time>
      </trkpt>
      <trkpt lat="45.05394" lon="5.07512">
        <ele>176.4</ele>
        <time>2019-04-15T07:04:54Z</time>
      </trkpt>
      <trkpt lat="45.05375" lon="5.07547">
        <ele>176.4</ele>
        <time>2019-04-15T07:04:58Z</time>
      </trkpt>
      <trkpt lat="45.05355" lon="5.0758">
        <ele>177.2</ele>
        <time>2019-04-15T07:05:02Z</time>
      </trkpt>
      <trkpt lat="45.05333" lon="5.07611">
        <ele>176.6</ele>
        <time>2019-04-15T07:05:06Z</time>
      </trkpt>
      <trkpt lat="45.05311" lon="5.0764">
        <ele>177</ele>
        <time>2019-04-15T07:05:10Z</time>
      </trkpt>
      <trkpt lat="45.0529" lon="5.0767">
        <ele>176.8</ele>
        <time>2019-04-15T07:05:14Z</time>
      </trkpt>
      <trkpt lat="45.05263" lon="5.07688">
        <ele>175.6</ele>
        <time>2019-04-15T07:05:18Z</time>
      </trkpt>
      <trkpt lat="45.05236" lon="5.077">
        <ele>174.8</ele>
        <time>2019-04-15T07:05:22Z</time>
      </trkpt>
      <trkpt lat="45.05217" lon="5.07736">
        <ele>173.6</ele>
        <time>2019-04-15T07:05:26Z</time>
      </trkpt>
      <trkpt lat="45.05185" lon="5.07757">
        <ele>171.8</ele>
        <time>2019-04-15T07:05:30Z</time>
      </trkpt>
      <trkpt lat="45.0515" lon="5.07783">
        <ele>169.6</ele>
        <time>2019-04-15T07:05:34Z</time>
      </trkpt>
      <trkpt lat="45.05117" lon="5.07807">
        <ele>169.8</ele>
        <time>2019-04-15T07:05:38Z</time>
      </trkpt>
      <trkpt lat="45.05087" lon="5.07826">
        <ele>171.6</ele>
        <time>2019-04-15T07:05:42Z</time>
      </trkpt>
      <trkpt lat="45.05062" lon="5.07843">
        <ele>173</ele>
        <time>2019-04-15T07:05:46Z</time>
      </trkpt>
      <trkpt lat="45.0504" lon="5.07862">
        <ele>174.2</ele>
        <time>2019-04-15T07:05:50Z</time>
      </trkpt>
      <trkpt lat="45.05024" lon="5.07872">
        <ele>174.2</ele>
        <time>2019-04-15T07:05:54Z</time>
      </trkpt>
      <trkpt lat="45.05001" lon="5.07877">
        <ele>174.4</ele>
        <time>2019-04-15T07:05:58Z</time>
      </trkpt>
      <trkpt lat="45.04988" lon="5.07906">
        <ele>175</ele>
        <time>2019-04-15T07:06:02Z</time>
      </trkpt>
      <trkpt lat="45.05" lon="5.07939">
        <ele>175.2</ele>
        <time>2019-04-15T07:06:06Z</time>
      </trkpt>
      <trkpt lat="45.05028" lon="5.07939">
        <ele>175.4</ele>
        <time>2019-04-15T07:06:10Z</time>
      </trkpt>
      <trkpt lat="45.05038" lon="5.07904">
        <ele>175.4</ele>
        <time>2019-04-15T07:06:14Z</time>
      </trkpt>
      <trkpt lat="45.05019" lon="5.07872">
        <ele>174.4</ele>
        <time>2019-04-15T07:06:18Z</time>
      </trkpt>
      <trkpt lat="45.05005" lon="5.0783">
        <ele>175</ele>
        <time>2019-04-15T07:06:22Z</time>
      </trkpt>
      <trkpt lat="45.04994" lon="5.07786">
        <ele>174.4</ele>
        <time>2019-04-15T07:06:26Z</time>
      </trkpt>
      <trkpt lat="45.04978" lon="5.07747">
        <ele>174.2</ele>
        <time>2019-04-15T07:06:30Z</time>
      </trkpt>
      <trkpt lat="45.04963" lon="5.07708">
        <ele>173.8</ele>
        <time>2019-04-15T07:06:34Z</time>
      </trkpt>
      <trkpt lat="45.04948" lon="5.07669">
        <ele>173.6</ele>
        <time>2019-04-15T07:06:38Z</time>
      </trkpt>
      <trkpt lat="45.04934" lon="5.07631">
        <ele>173.6</ele>
        <time>2019-04-15T07:06:42Z</time>
      </trkpt>
      <trkpt lat="45.04924" lon="5.07594">
        <ele>173</ele>
        <time>2019-04-15T07:06:46Z</time>
      </trkpt>
      <trkpt lat="45.04916" lon="5.07554">
        <ele>173.2</ele>
        <time>2019-04-15T07:06:50Z</time>
      </trkpt>
      <trkpt lat="45.04895" lon="5.07524">
        <ele>173.2</ele>
        <time>2019-04-15T07:06:54Z</time>
      </trkpt>
      <trkpt lat="45.04879" lon="5.07488">
        <ele>173.8</ele>
        <time>2019-04-15T07:06:58Z</time>
      </trkpt>
      <trkpt lat="45.04865" lon="5.07451">
        <ele>173.8</ele>
        <time>2019-04-15T07:07:02Z</time>
      </trkpt>
      <trkpt lat="45.0485" lon="5.07413">
        <ele>173.6</ele>
        <time>2019-04-15T07:07:06Z</time>
      </trkpt>
      <trkpt lat="45.04835" lon="5.07373">
        <ele>173</ele>
        <time>2019-04-15T07:07:10Z</time>
      </trkpt>
      <trkpt lat="45.04819" lon="5.07334">
        <ele>173.2</ele>
        <time>2019-04-15T07:07:14Z</time>
      </trkpt>
      <trkpt lat="45.04805" lon="5.07295">
        <ele>173</ele>
        <time>2019-04-15T07:07:18Z</time>
      </trkpt>
      <trkpt lat="45.0479" lon="5.07257">
        <ele>173</ele>
        <time>2019-04-15T07:07:22Z</time>
      </trkpt>
      <trkpt lat="45.04772" lon="5.07222">
        <ele>172.8</ele>
        <time>2019-04-15T07:07:26Z</time>
      </trkpt>
      <trkpt lat="45.04756" lon="5.07187">
        <ele>173</ele>
        <time>2019-04-15T07:07:30Z</time>
      </trkpt>
      <trkpt lat="45.04745" lon="5.07147">
        <ele>172.6</ele>
        <time>2019-04-15T07:07:34Z</time>
      </trkpt>
      <trkpt lat="45.04731" lon="5.07108">
        <ele>172.8</ele>
        <time>2019-04-15T07:07:38Z</time>
      </trkpt>
      <trkpt lat="45.04712" lon="5.07072">
        <ele>172.2</ele>
        <time>2019-04-15T07:07:42Z</time>
      </trkpt>
      <trkpt lat="45.04696" lon="5.07036">
        <ele>171.8</ele>
        <time>2019-04-15T07:07:46Z</time>
      </trkpt>
      <trkpt lat="45.0468" lon="5.07">
        <ele>171.8</ele>
        <time>2019-04-15T07:07:50Z</time>
      </trkpt>
      <trkpt lat="45.04671" lon="5.06963">
        <ele>171.8</ele>
        <time>2019-04-15T07:07:54Z</time>
      </trkpt>
      <trkpt lat="45.04657" lon="5.06931">
        <ele>171.2</ele>
        <time>2019-04-15T07:07:58Z</time>
      </trkpt>
      <trkpt lat="45.04647" lon="5.06895">
        <ele>171</ele>
        <time>2019-04-15T07:08:02Z</time>
      </trkpt>
      <trkpt lat="45.04634" lon="5.06859">
        <ele>171.4</ele>
        <time>2019-04-15T07:08:06Z</time>
      </trkpt>
      <trkpt lat="45.0462" lon="5.06822">
        <ele>171.6</ele>
        <time>2019-04-15T07:08:10Z</time>
      </trkpt>
      <trkpt lat="45.04606" lon="5.06783">
        <ele>171.8</ele>
        <time>2019-04-15T07:08:14Z</time>
      </trkpt>
      <trkpt lat="45.04592" lon="5.06746">
        <ele>172.2</ele>
        <time>2019-04-15T07:08:18Z</time>
      </trkpt>
      <trkpt lat="45.04578" lon="5.0671">
        <ele>172</ele>
        <time>2019-04-15T07:08:22Z</time>
      </trkpt>
      <trkpt lat="45.04563" lon="5.06673">
        <ele>171.6</ele>
        <time>2019-04-15T07:08:26Z</time>
      </trkpt>
      <trkpt lat="45.04548" lon="5.06635">
        <ele>171.4</ele>
        <time>2019-04-15T07:08:30Z</time>
      </trkpt>
      <trkpt lat="45.04534" lon="5.06597">
        <ele>170.8</ele>
        <time>2019-04-15T07:08:34Z</time>
      </trkpt>
      <trkpt lat="45.0452" lon="5.06558">
        <ele>171.2</ele>
        <time>2019-04-15T07:08:38Z</time>
      </trkpt>
      <trkpt lat="45.04506" lon="5.06519">
        <ele>171</ele>
        <time>2019-04-15T07:08:42Z</time>
      </trkpt>
      <trkpt lat="45.0449" lon="5.06481">
        <ele>170.6</ele>
        <time>2019-04-15T07:08:46Z</time>
      </trkpt>
      <trkpt lat="45.04473" lon="5.06443">
        <ele>170.2</ele>
        <time>2019-04-15T07:08:50Z</time>
      </trkpt>
      <trkpt lat="45.04456" lon="5.06405">
        <ele>169.6</ele>
        <time>2019-04-15T07:08:54Z</time>
      </trkpt>
      <trkpt lat="45.04441" lon="5.06366">
        <ele>169.2</ele>
        <time>2019-04-15T07:08:58Z</time>
      </trkpt>
      <trkpt lat="45.04425" lon="5.06325">
        <ele>168.6</ele>
        <time>2019-04-15T07:09:02Z</time>
      </trkpt>
      <trkpt lat="45.04409" lon="5.06282">
        <ele>167.8</ele>
        <time>2019-04-15T07:09:06Z</time>
      </trkpt>
      <trkpt lat="45.04392" lon="5.06238">
        <ele>166</ele>
        <time>2019-04-15T07:09:10Z</time>
      </trkpt>
      <trkpt lat="45.04373" lon="5.06191">
        <ele>164.4</ele>
        <time>2019-04-15T07:09:14Z</time>
      </trkpt>
      <trkpt lat="45.04358" lon="5.06139">
        <ele>162.4</ele>
        <time>2019-04-15T07:09:18Z</time>
      </trkpt>
      <trkpt lat="45.04343" lon="5.06086">
        <ele>160.2</ele>
        <time>2019-04-15T07:09:22Z</time>
      </trkpt>
      <trkpt lat="45.04329" lon="5.06033">
        <ele>158</ele>
        <time>2019-04-15T07:09:26Z</time>
      </trkpt>
      <trkpt lat="45.04315" lon="5.05978">
        <ele>156.2</ele>
        <time>2019-04-15T07:09:30Z</time>
      </trkpt>
      <trkpt lat="45.04302" lon="5.05925">
        <ele>154.2</ele>
        <time>2019-04-15T07:09:34Z</time>
      </trkpt>
      <trkpt lat="45.04286" lon="5.05871">
        <ele>152.6</ele>
        <time>2019-04-15T07:09:38Z</time>
      </trkpt>
      <trkpt lat="45.04274" lon="5.05823">
        <ele>151</ele>
        <time>2019-04-15T07:09:42Z</time>
      </trkpt>
      <trkpt lat="45.04263" lon="5.05781">
        <ele>150</ele>
        <time>2019-04-15T07:09:46Z</time>
      </trkpt>
      <trkpt lat="45.04251" lon="5.05738">
        <ele>149.6</ele>
        <time>2019-04-15T07:09:50Z</time>
      </trkpt>
      <trkpt lat="45.0424" lon="5.05691">
        <ele>148.8</ele>
        <time>2019-04-15T07:09:54Z</time>
      </trkpt>
      <trkpt lat="45.04232" lon="5.05651">
        <ele>148.8</ele>
        <time>2019-04-15T07:09:58Z</time>
      </trkpt>
      <trkpt lat="45.04227" lon="5.05635">
        <ele>148.6</ele>
        <time>2019-04-15T07:10:02Z</time>
      </trkpt>
      <trkpt lat="45.04209" lon="5.05628">
        <ele>149.2</ele>
        <time>2019-04-15T07:10:06Z</time>
      </trkpt>
      <trkpt lat="45.04188" lon="5.05637">
        <ele>149.8</ele>
        <time>2019-04-15T07:10:10Z</time>
      </trkpt>
      <trkpt lat="45.04163" lon="5.05636">
        <ele>150.4</ele>
        <time>2019-04-15T07:10:14Z</time>
      </trkpt>
      <trkpt lat="45.04138" lon="5.05633">
        <ele>152.6</ele>
        <time>2019-04-15T07:10:18Z</time>
      </trkpt>
      <trkpt lat="45.04112" lon="5.0563">
        <ele>152.2</ele>
        <time>2019-04-15T07:10:22Z</time>
      </trkpt>
      <trkpt lat="45.04087" lon="5.05626">
        <ele>152.8</ele>
        <time>2019-04-15T07:10:26Z</time>
      </trkpt>
      <trkpt lat="45.04062" lon="5.05624">
        <ele>153.8</ele>
        <time>2019-04-15T07:10:30Z</time>
      </trkpt>
      <trkpt lat="45.04038" lon="5.05619">
        <ele>154.2</ele>
        <time>2019-04-15T07:10:34Z</time>
      </trkpt>
      <trkpt lat="45.04012" lon="5.05613">
        <ele>155</ele>
        <time>2019-04-15T07:10:38Z</time>
      </trkpt>
      <trkpt lat="45.03988" lon="5.05599">
        <ele>155.6</ele>
        <time>2019-04-15T07:10:42Z</time>
      </trkpt>
      <trkpt lat="45.03967" lon="5.05583">
        <ele>157.4</ele>
        <time>2019-04-15T07:10:46Z</time>
      </trkpt>
      <trkpt lat="45.03945" lon="5.05569">
        <ele>159.2</ele>
        <time>2019-04-15T07:10:50Z</time>
      </trkpt>
      <trkpt lat="45.03924" lon="5.05558">
        <ele>159.8</ele>
        <time>2019-04-15T07:10:54Z</time>
      </trkpt>
      <trkpt lat="45.03902" lon="5.05552">
        <ele>162.2</ele>
        <time>2019-04-15T07:10:58Z</time>
      </trkpt>
      <trkpt lat="45.03881" lon="5.05546">
        <ele>162.6</ele>
        <time>2019-04-15T07:11:02Z</time>
      </trkpt>
      <trkpt lat="45.03859" lon="5.0554">
        <ele>164.2</ele>
        <time>2019-04-15T07:11:06Z</time>
      </trkpt>
      <trkpt lat="45.03835" lon="5.05536">
        <ele>164.8</ele>
        <time>2019-04-15T07:11:10Z</time>
      </trkpt>
      <trkpt lat="45.03813" lon="5.05529">
        <ele>164.6</ele>
        <time>2019-04-15T07:11:14Z</time>
      </trkpt>
      <trkpt lat="45.03789" lon="5.05519">
        <ele>164.4</ele>
        <time>2019-04-15T07:11:18Z</time>
      </trkpt>
      <trkpt lat="45.03767" lon="5.05509">
        <ele>164.2</ele>
        <time>2019-04-15T07:11:22Z</time>
      </trkpt>
      <trkpt lat="45.0375" lon="5.05499">
        <ele>163.6</ele>
        <time>2019-04-15T07:11:26Z</time>
      </trkpt>
      <trkpt lat="45.0375" lon="5.05499">
        <ele>163.6</ele>
        <time>2019-04-15T07:11:30Z</time>
      </trkpt>
      <trkpt lat="45.0375" lon="5.05499">
        <ele>163.6</ele>
        <time>2019-04-15T07:11:34Z</time>
      </trkpt>
      <trkpt lat="45.0375" lon="5.05499">
        <ele>163.6</ele>
        <time>2019-04-15T07:11:38Z</time>
      </trkpt>
      <trkpt lat="45.0375" lon="5.05499">
        <ele>163.6</ele>
        <time>2019-04-15T07:11:42Z</time>
      </trkpt>
      <trkpt lat="45.0375" lon="5.05499">
        <ele>163.6</ele>
        <time>2019-04-15T07:11:46Z</time>
      </trkpt>
      <trkpt lat="45.0375" lon="5.05499">
        <ele>163.6</ele>
        <time>2019-04-15T07:11:50Z</time>
      </trkpt>
      <trkpt lat="45.0375" lon="5.05499">
        <ele>163.6</ele>
        <time>2019-04-15T07:11:54Z</time>
      </trkpt>
      <trkpt lat="45.0375" lon="5.05499">
        <ele>163.6</ele>
        <time>2019-04-15T07:11:58Z</time>
      </trkpt>
      <trkpt lat="45.0375" lon="5.05499">
        <ele>163.6</ele>
        <time>2019-04-15T07:12:02Z</time>
      </trkpt>
      <trkpt lat="45.0375" lon="5.05499">
        <ele>163.6</ele>
        <time>2019-04-15T07:12:06Z</time>
      </trkpt>
      <trkpt lat="45.0375" lon="5.05499">
        <ele>163.6</ele>
        <time>2019-04-15T07:12:10Z</time>
      </trkpt>
      <trkpt lat="45.0375" lon="5.05499">
        <ele>163.6</ele>
        <time>2019-04-15T07:12:14Z</time>
      </trkpt>
      <trkpt lat="45.0375" lon="5.05499">
        <ele>163.6</ele>
        <time>2019-04-15T07:12:18Z</time>
      </trkpt>
      <trkpt lat="45.0375" lon="5.05499">
        <ele>163.6</ele>
        <time>2019-04-15T07:12:22Z</time>
      </trkpt>
      <trkpt lat="45.0375" lon="5.05499">
        <ele>163.6</ele>
        <time>2019-04-15T07:12:26Z</time>
      </trkpt>
      <trkpt lat="45.0375" lon="5.05499">
        <ele>163.6</ele>
        <time>2019-04-15T07:12:30Z</time>
      </trkpt>
      <trkpt lat="45.0375" lon="5.05499">
        <ele>163.6</ele>
        <time>2019-04-15T07:12:34Z</time>
      </trkpt>
      <trkpt lat="45.0375" lon="5.05499">
        <ele>163.6</ele>
        <time>2019-04-15T07:12:38Z</time>
      </trkpt>
      <trkpt lat="45.03747" lon="5.05494">
        <ele>163.6</ele>
        <time>2019-04-15T07:12:42Z</time>
      </trkpt>
      <trkpt lat="45.03736" lon="5.05489">
        <ele>163.6</ele>
        <time>2019-04-15T07:12:46Z</time>
      </trkpt>
      <trkpt lat="45.03716" lon="5.05474">
        <ele>162.6</ele>
        <time>2019-04-15T07:12:50Z</time>
      </trkpt>
      <trkpt lat="45.03692" lon="5.05455">
        <ele>162.8</ele>
        <time>2019-04-15T07:12:54Z</time>
      </trkpt>
      <trkpt lat="45.03665" lon="5.05432">
        <ele>161.6</ele>
        <time>2019-04-15T07:12:58Z</time>
      </trkpt>
      <trkpt lat="45.03636" lon="5.05408">
        <ele>161.8</ele>
        <time>2019-04-15T07:13:02Z</time>
      </trkpt>
      <trkpt lat="45.03608" lon="5.05384">
        <ele>161.8</ele>
        <time>2019-04-15T07:13:06Z</time>
      </trkpt>
      <trkpt lat="45.03581" lon="5.05361">
        <ele>162</ele>
        <time>2019-04-15T07:13:10Z</time>
      </trkpt>
      <trkpt lat="45.03555" lon="5.05338">
        <ele>161.8</ele>
        <time>2019-04-15T07:13:14Z</time>
      </trkpt>
      <trkpt lat="45.0353" lon="5.05315">
        <ele>162.2</ele>
        <time>2019-04-15T07:13:18Z</time>
      </trkpt>
      <trkpt lat="45.03505" lon="5.05293">
        <ele>162.6</ele>
        <time>2019-04-15T07:13:22Z</time>
      </trkpt>
      <trkpt lat="45.03479" lon="5.05271">
        <ele>163</ele>
        <time>2019-04-15T07:13:26Z</time>
      </trkpt>
      <trkpt lat="45.03449" lon="5.05248">
        <ele>163.6</ele>
        <time>2019-04-15T07:13:30Z</time>
      </trkpt>
      <trkpt lat="45.0342" lon="5.05222">
        <ele>163.6</ele>
        <time>2019-04-15T07:13:34Z</time>
      </trkpt>
      <trkpt lat="45.03392" lon="5.05198">
        <ele>163.6</ele>
        <time>2019-04-15T07:13:38Z</time>
      </trkpt>
      <trkpt lat="45.03366" lon="5.05174">
        <ele>163.8</ele>
        <time>2019-04-15T07:13:42Z</time>
      </trkpt>
      <trkpt lat="45.0334" lon="5.05153">
        <ele>164</ele>
        <time>2019-04-15T07:13:46Z</time>
      </trkpt>
      <trkpt lat="45.03313" lon="5.05131">
        <ele>163.4</ele>
        <time>2019-04-15T07:13:50Z</time>
      </trkpt>
      <trkpt lat="45.03287" lon="5.05109">
        <ele>163</ele>
        <time>2019-04-15T07:13:54Z</time>
      </trkpt>
      <trkpt lat="45.0326" lon="5.05085">
        <ele>162</ele>
        <time>2019-04-15T07:13:58Z</time>
      </trkpt>
      <trkpt lat="45.03232" lon="5.05057">
        <ele>160.8</ele>
        <time>2019-04-15T07:14:02Z</time>
      </trkpt>
      <trkpt lat="45.03208" lon="5.05021">
        <ele>159.2</ele>
        <time>2019-04-15T07:14:06Z</time>
      </trkpt>
      <trkpt lat="45.03188" lon="5.04976">
        <ele>157.8</ele>
        <time>2019-04-15T07:14:10Z</time>
      </trkpt>
      <trkpt lat="45.03173" lon="5.04926">
        <ele>155.4</ele>
        <time>2019-04-15T07:14:14Z</time>
      </trkpt>
      <trkpt lat="45.03165" lon="5.04871">
        <ele>153.6</ele>
        <time>2019-04-15T07:14:18Z</time>
      </trkpt>
      <trkpt lat="45.03155" lon="5.04815">
        <ele>152.6</ele>
        <time>2019-04-15T07:14:22Z</time>
      </trkpt>
      <trkpt lat="45.03132" lon="5.04769">
        <ele>151</ele>
        <time>2019-04-15T07:14:26Z</time>
      </trkpt>
      <trkpt lat="45.031" lon="5.04739">
        <ele>150.4</ele>
        <time>2019-04-15T07:14:30Z</time>
      </trkpt>
      <trkpt lat="45.03063" lon="5.04731">
        <ele>150.6</ele>
        <time>2019-04-15T07:14:34Z</time>
      </trkpt>
      <trkpt lat="45.03027" lon="5.04733">
        <ele>151.8</ele>
        <time>2019-04-15T07:14:38Z</time>
      </trkpt>
      <trkpt lat="45.02996" lon="5.04733">
        <ele>152.8</ele>
        <time>2019-04-15T07:14:42Z</time>
      </trkpt>
      <trkpt lat="45.02969" lon="5.04728">
        <ele>153.2</ele>
        <time>2019-04-15T07:14:46Z</time>
      </trkpt>
      <trkpt lat="45.02944" lon="5.04723">
        <ele>155</ele>
        <time>2019-04-15T07:14:50Z</time>
      </trkpt>
      <trkpt lat="45.02921" lon="5.04715">
        <ele>156.2</ele>
        <time>2019-04-15T07:14:54Z</time>
      </trkpt>
      <trkpt lat="45.02899" lon="5.04704">
        <ele>157.8</ele>
        <time>2019-04-15T07:14:58Z</time>
      </trkpt>
      <trkpt lat="45.02878" lon="5.04691">
        <ele>158.4</ele>
        <time>2019-04-15T07:15:02Z</time>
      </trkpt>
      <trkpt lat="45.02858" lon="5.04676">
        <ele>160</ele>
        <time>2019-04-15T07:15:06Z</time>
      </trkpt>
      <trkpt lat="45.02837" lon="5.04661">
        <ele>161.2</ele>
        <time>2019-04-15T07:15:10Z</time>
      </trkpt>
      <trkpt lat="45.02818" lon="5.04644">
        <ele>162.6</ele>
        <time>2019-04-15T07:15:14Z</time>
      </trkpt>
      <trkpt lat="45.028" lon="5.04624">
        <ele>163.4</ele>
        <time>2019-04-15T07:15:18Z</time>
      </trkpt>
      <trkpt lat="45.02783" lon="5.04603">
        <ele>164</ele>
        <time>2019-04-15T07:15:22Z</time>
      </trkpt>
      <trkpt lat="45.02769" lon="5.04582">
        <ele>166</ele>
        <time>2019-04-15T07:15:26Z</time>
      </trkpt>
      <trkpt lat="45.02755" lon="5.04559">
        <ele>166.6</ele>
        <time>2019-04-15T07:15:30Z</time>
      </trkpt>
      <trkpt lat="45.02742" lon="5.04538">
        <ele>167.4</ele>
        <time>2019-04-15T07:15:34Z</time>
      </trkpt>
      <trkpt lat="45.02728" lon="5.04516">
        <ele>168.6</ele>
        <time>2019-04-15T07:15:38Z</time>
      </trkpt>
      <trkpt lat="45.02715" lon="5.04496">
        <ele>170.2</ele>
        <time>2019-04-15T07:15:42Z</time>
      </trkpt>
      <trkpt lat="45.02701" lon="5.04474">
        <ele>172.4</ele>
        <time>2019-04-15T07:15:46Z</time>
      </trkpt>
      <trkpt lat="45.02688" lon="5.04453">
        <ele>171.8</ele>
        <time>2019-04-15T07:15:50Z</time>
      </trkpt>
      <trkpt lat="45.02673" lon="5.04431">
        <ele>173</ele>
        <time>2019-04-15T07:15:54Z</time>
      </trkpt>
      <trkpt lat="45.02659" lon="5.0441">
        <ele>175</ele>
        <time>2019-04-15T07:15:58Z</time>
      </trkpt>
      <trkpt lat="45.02646" lon="5.04388">
        <ele>175.6</ele>
        <time>2019-04-15T07:16:02Z</time>
      </trkpt>
      <trkpt lat="45.02632" lon="5.04367">
        <ele>176</ele>
        <time>2019-04-15T07:16:06Z</time>
      </trkpt>
      <trkpt lat="45.02619" lon="5.04345">
        <ele>177</ele>
        <time>2019-04-15T07:16:10Z</time>
      </trkpt>
      <trkpt lat="45.02605" lon="5.04325">
        <ele>178.6</ele>
        <time>2019-04-15T07:16:14Z</time>
      </trkpt>
      <trkpt lat="45.02591" lon="5.04304">
        <ele>180.6</ele>
        <time>2019-04-15T07:16:18Z</time>
      </trkpt>
      <trkpt lat="45.02578" lon="5.04283">
        <ele>180.8</ele>
        <time>2019-04-15T07:16:22Z</time>
      </trkpt>
      <trkpt lat="45.02564" lon="5.04261">
        <ele>181.8</ele>
        <time>2019-04-15T07:16:26Z</time>
      </trkpt>
      <trkpt lat="45.02552" lon="5.04239">
        <ele>182.6</ele>
        <time>2019-04-15T07:16:30Z</time>
      </trkpt>
      <trkpt lat="45.02538" lon="5.04218">
        <ele>183.4</ele>
        <time>2019-04-15T07:16:34Z</time>
      </trkpt>
      <trkpt lat="45.02525" lon="5.04197">
        <ele>184.2</ele>
        <time>2019-04-15T07:16:38Z</time>
      </trkpt>
      <trkpt lat="45.02511" lon="5.04174">
        <ele>184.4</ele>
        <time>2019-04-15T07:16:42Z</time>
      </trkpt>
      <trkpt lat="45.02498" lon="5.04152">
        <ele>186.2</ele>
        <time>2019-04-15T07:16:46Z</time>
      </trkpt>
      <trkpt lat="45.02483" lon="5.04131">
        <ele>186</ele>
        <time>2019-04-15T07:16:50Z</time>
      </trkpt>
      <trkpt lat="45.02469" lon="5.04108">
        <ele>187.2</ele>
        <time>2019-04-15T07:16:54Z</time>
      </trkpt>
      <trkpt lat="45.02454" lon="5.04086">
        <ele>187.2</ele>
        <time>2019-04-15T07:16:58Z</time>
      </trkpt>
      <trkpt lat="45.02438" lon="5.04064">
        <ele>187.2</ele>
        <time>2019-04-15T07:17:02Z</time>
      </trkpt>
      <trkpt lat="45.02421" lon="5.04042">
        <ele>187.6</ele>
        <time>2019-04-15T07:17:06Z</time>
      </trkpt>
      <trkpt lat="45.02404" lon="5.0402">
        <ele>187.6</ele>
        <time>2019-04-15T07:17:10Z</time>
      </trkpt>
      <trkpt lat="45.02393" lon="5.03996">
        <ele>187.6</ele>
        <time>2019-04-15T07:17:14Z</time>
      </trkpt>
      <trkpt lat="45.02385" lon="5.03968">
        <ele>187.8</ele>
        <time>2019-04-15T07:17:18Z</time>
      </trkpt>
      <trkpt lat="45.02364" lon="5.03951">
        <ele>188</ele>
        <time>2019-04-15T07:17:22Z</time>
      </trkpt>
      <trkpt lat="45.02343" lon="5.03967">
        <ele>187.8</ele>
        <time>2019-04-15T07:17:26Z</time>
      </trkpt>
      <trkpt lat="45.0234" lon="5.04004">
        <ele>187.8</ele>
        <time>2019-04-15T07:17:30Z</time>
      </trkpt>
      <trkpt lat="45.02343" lon="5.04044">
        <ele>187.2</ele>
        <time>2019-04-15T07:17:34Z</time>
      </trkpt>
      <trkpt lat="45.02333" lon="5.04079">
        <ele>187.6</ele>
        <time>2019-04-15T07:17:38Z</time>
      </trkpt>
      <trkpt lat="45.02314" lon="5.04107">
        <ele>188.2</ele>
        <time>2019-04-15T07:17:42Z</time>
      </trkpt>
      <trkpt lat="45.02292" lon="5.04127">
        <ele>188.2</ele>
        <time>2019-04-15T07:17:46Z</time>
      </trkpt>
      <trkpt lat="45.02267" lon="5.04138">
        <ele>188.6</ele>
        <time>2019-04-15T07:17:50Z</time>
      </trkpt>
      <trkpt lat="45.02239" lon="5.04139">
        <ele>188.8</ele>
        <time>2019-04-15T07:17:54Z</time>
      </trkpt>
      <trkpt lat="45.02211" lon="5.04132">
        <ele>188.8</ele>
        <time>2019-04-15T07:17:58Z</time>
      </trkpt>
      <trkpt lat="45.02183" lon="5.04123">
        <ele>188.6</ele>
        <time>2019-04-15T07:18:02Z</time>
      </trkpt>
      <trkpt lat="45.02156" lon="5.04115">
        <ele>189.4</ele>
        <time>2019-04-15T07:18:06Z</time>
      </trkpt>
      <trkpt lat="45.02128" lon="5.04106">
        <ele>188.8</ele>
        <time>2019-04-15T07:18:10Z</time>
      </trkpt>
      <trkpt lat="45.02099" lon="5.04094">
        <ele>188.2</ele>
        <time>2019-04-15T07:18:14Z</time>
      </trkpt>
      <trkpt lat="45.02072" lon="5.04074">
        <ele>188.8</ele>
        <time>2019-04-15T07:18:18Z</time>
      </trkpt>
      <trkpt lat="45.02055" lon="5.04041">
        <ele>188.6</ele>
        <time>2019-04-15T07:18:22Z</time>
      </trkpt>
      <trkpt lat="45.02027" lon="5.04027">
        <ele>188.4</ele>
        <time>2019-04-15T07:18:26Z</time>
      </trkpt>
      <trkpt lat="45.02" lon="5.04046">
        <ele>188.2</ele>
        <time>2019-04-15T07:18:30Z</time>
      </trkpt>
      <trkpt lat="45.01979" lon="5.04079">
        <ele>188</ele>
        <time>2019-04-15T07:18:34Z</time>
      </trkpt>
      <trkpt lat="45.01948" lon="5.04082">
        <ele>188.2</ele>
        <time>2019-04-15T07:18:38Z</time>
      </trkpt>
      <trkpt lat="45.01918" lon="5.0407">
        <ele>188.6</ele>
        <time>2019-04-15T07:18:42Z</time>
      </trkpt>
      <trkpt lat="45.0189" lon="5.04054">
        <ele>188.4</ele>
        <time>2019-04-15T07:18:46Z</time>
      </trkpt>
      <trkpt lat="45.01863" lon="5.04038">
        <ele>188.8</ele>
        <time>2019-04-15T07:18:50Z</time>
      </trkpt>
      <trkpt lat="45.01836" lon="5.04024">
        <ele>188.8</ele>
        <time>2019-04-15T07:18:54Z</time>
      </trkpt>
      <trkpt lat="45.01808" lon="5.04013">
        <ele>188.8</ele>
        <time>2019-04-15T07:18:58Z</time>
      </trkpt>
      <trkpt lat="45.01779" lon="5.04003">
        <ele>188.4</ele>
        <time>2019-04-15T07:19:02Z</time>
      </trkpt>
      <trkpt lat="45.01749" lon="5.03993">
        <ele>188.8</ele>
        <time>2019-04-15T07:19:06Z</time>
      </trkpt>
      <trkpt lat="45.01723" lon="5.03976">
        <ele>189</ele>
        <time>2019-04-15T07:19:10Z</time>
      </trkpt>
      <trkpt lat="45.01693" lon="5.03977">
        <ele>188.4</ele>
        <time>2019-04-15T07:19:14Z</time>
      </trkpt>
      <trkpt lat="45.01663" lon="5.03971">
        <ele>188.4</ele>
        <time>2019-04-15T07:19:18Z</time>
      </trkpt>
      <trkpt lat="45.01633" lon="5.03963">
        <ele>188.8</ele>
        <time>2019-04-15T07:19:22Z</time>
      </trkpt>
      <trkpt lat="45.01603" lon="5.03954">
        <ele>188.6</ele>
        <time>2019-04-15T07:19:26Z</time>
      </trkpt>
      <trkpt lat="45.01573" lon="5.03945">
        <ele>188.8</ele>
        <time>2019-04-15T07:19:30Z</time>
      </trkpt>
      <trkpt lat="45.01544" lon="5.03936">
        <ele>188.8</ele>
        <time>2019-04-15T07:19:34Z</time>
      </trkpt>
      <trkpt lat="45.01514" lon="5.03927">
        <ele>189</ele>
        <time>2019-04-15T07:19:38Z</time>
      </trkpt>
      <trkpt lat="45.01484" lon="5.03918">
        <ele>188.8</ele>
        <time>2019-04-15T07:19:42Z</time>
      </trkpt>
      <trkpt lat="45.01454" lon="5.03909">
        <ele>189.2</ele>
        <time>2019-04-15T07:19:46Z</time>
      </trkpt>
      <trkpt lat="45.01423" lon="5.039">
        <ele>188.8</ele>
        <time>2019-04-15T07:19:50Z</time>
      </trkpt>
      <trkpt lat="45.01393" lon="5.0389">
        <ele>188.6</ele>
        <time>2019-04-15T07:19:54Z</time>
      </trkpt>
      <trkpt lat="45.01363" lon="5.03881">
        <ele>188.6</ele>
        <time>2019-04-15T07:19:58Z</time>
      </trkpt>
      <trkpt lat="45.01332" lon="5.03872">
        <ele>188.6</ele>
        <time>2019-04-15T07:20:02Z</time>
      </trkpt>
      <trkpt lat="45.01301" lon="5.03863">
        <ele>188.4</ele>
        <time>2019-04-15T07:20:06Z</time>
      </trkpt>
      <trkpt lat="45.01269" lon="5.03854">
        <ele>188.4</ele>
        <time>2019-04-15T07:20:10Z</time>
      </trkpt>
      <trkpt lat="45.01239" lon="5.03846">
        <ele>188.4</ele>
        <time>2019-04-15T07:20:14Z</time>
      </trkpt>
      <trkpt lat="45.01208" lon="5.03837">
        <ele>188</ele>
        <time>2019-04-15T07:20:18Z</time>
      </trkpt>
      <trkpt lat="45.01177" lon="5.03829">
        <ele>187.8</ele>
        <time>2019-04-15T07:20:22Z</time>
      </trkpt>
      <trkpt lat="45.01146" lon="5.0382">
        <ele>188</ele>
        <time>2019-04-15T07:20:26Z</time>
      </trkpt>
      <trkpt lat="45.01116" lon="5.03813">
        <ele>188.4</ele>
        <time>2019-04-15T07:20:30Z</time>
      </trkpt>
      <trkpt lat="45.01086" lon="5.03804">
        <ele>189.6</ele>
        <time>2019-04-15T07:20:34Z</time>
      </trkpt>
      <trkpt lat="45.01056" lon="5.03795">
        <ele>188.6</ele>
        <time>2019-04-15T07:20:38Z</time>
      </trkpt>
      <trkpt lat="45.01025" lon="5.03787">
        <ele>188.8</ele>
        <time>2019-04-15T07:20:42Z</time>
      </trkpt>
      <trkpt lat="45.00993" lon="5.03779">
        <ele>189.2</ele>
        <time>2019-04-15T07:20:46Z</time>
      </trkpt>
      <trkpt lat="45.00961" lon="5.0377">
        <ele>189.4</ele>
        <time>2019-04-15T07:20:50Z</time>
      </trkpt>
      <trkpt lat="45.0093" lon="5.03761">
        <ele>189.4</ele>
        <time>2019-04-15T07:20:54Z</time>
      </trkpt>
      <trkpt lat="45.00898" lon="5.03753">
        <ele>189.6</ele>
        <time>2019-04-15T07:20:58Z</time>
      </trkpt>
      <trkpt lat="45.00867" lon="5.03743">
        <ele>189.4</ele>
        <time>2019-04-15T07:21:02Z</time>
      </trkpt>
      <trkpt lat="45.00836" lon="5.03735">
        <ele>188.8</ele>
        <time>2019-04-15T07:21:06Z</time>
      </trkpt>
      <trkpt lat="45.00804" lon="5.03726">
        <ele>188.8</ele>
        <time>2019-04-15T07:21:10Z</time>
      </trkpt>
      <trkpt lat="45.00773" lon="5.03717">
        <ele>189</ele>
        <time>2019-04-15T07:21:14Z</time>
      </trkpt>
      <trkpt lat="45.00741" lon="5.03707">
        <ele>189</ele>
        <time>2019-04-15T07:21:18Z</time>
      </trkpt>
      <trkpt lat="45.0071" lon="5.03698">
        <ele>188.8</ele>
        <time>2019-04-15T07:21:22Z</time>
      </trkpt>
      <trkpt lat="45.00679" lon="5.03689">
        <ele>188.8</ele>
        <time>2019-04-15T07:21:26Z</time>
      </trkpt>
      <trkpt lat="45.00648" lon="5.0368">
        <ele>188.8</ele>
        <time>2019-04-15T07:21:30Z</time>
      </trkpt>
      <trkpt lat="45.00617" lon="5.0367">
        <ele>188.8</ele>
        <time>2019-04-15T07:21:34Z</time>
      </trkpt>
      <trkpt lat="45.00585" lon="5.03661">
        <ele>188.8</ele>
        <time>2019-04-15T07:21:38Z</time>
      </trkpt>
      <trkpt lat="45.00554" lon="5.03653">
        <ele>188.6</ele>
        <time>2019-04-15T07:21:42Z</time>
      </trkpt>
      <trkpt lat="45.00523" lon="5.03644">
        <ele>188.6</ele>
        <time>2019-04-15T07:21:46Z</time>
      </trkpt>
      <trkpt lat="45.00491" lon="5.03635">
        <ele>188.8</ele>
        <time>2019-04-15T07:21:50Z</time>
      </trkpt>
      <trkpt lat="45.0046" lon="5.03626">
        <ele>188.8</ele>
        <time>2019-04-15T07:21:54Z</time>
      </trkpt>
      <trkpt lat="45.00429" lon="5.03616">
        <ele>188.4</ele>
        <time>2019-04-15T07:21:58Z</time>
      </trkpt>
      <trkpt lat="45.00397" lon="5.03607">
        <ele>188.4</ele>
        <time>2019-04-15T07:22:02Z</time>
      </trkpt>
      <trkpt lat="45.00365" lon="5.03598">
        <ele>188.6</ele>
        <time>2019-04-15T07:22:06Z</time>
      </trkpt>
      <trkpt lat="45.00334" lon="5.03588">
        <ele>188.8</ele>
        <time>2019-04-15T07:22:10Z</time>
      </trkpt>
      <trkpt lat="45.00302" lon="5.03579">
        <ele>188.4</ele>
        <time>2019-04-15T07:22:14Z</time>
      </trkpt>
      <trkpt lat="45.0027" lon="5.03569">
        <ele>188.6</ele>
        <time>2019-04-15T07:22:18Z</time>
      </trkpt>
      <trkpt lat="45.00238" lon="5.0356">
        <ele>188</ele>
        <time>2019-04-15T07:22:22Z</time>
      </trkpt>
      <trkpt lat="45.00206" lon="5.03551">
        <ele>187.6</ele>
        <time>2019-04-15T07:22:26Z</time>
      </trkpt>
      <trkpt lat="45.00173" lon="5.03541">
        <ele>187.6</ele>
        <time>2019-04-15T07:22:30Z</time>
      </trkpt>
      <trkpt lat="45.0014" lon="5.03531">
        <ele>187.2</ele>
        <time>2019-04-15T07:22:34Z</time>
      </trkpt>
      <trkpt lat="45.00107" lon="5.03521">
        <ele>186.6</ele>
        <time>2019-04-15T07:22:38Z</time>
      </trkpt>
      <trkpt lat="45.00074" lon="5.03512">
        <ele>186.4</ele>
        <time>2019-04-15T07:22:42Z</time>
      </trkpt>
      <trkpt lat="45.00041" lon="5.03502">
        <ele>186.2</ele>
        <time>2019-04-15T07:22:46Z</time>
      </trkpt>
      <trkpt lat="45.00009" lon="5.03493">
        <ele>185.8</ele>
        <time>2019-04-15T07:22:50Z</time>
      </trkpt>
      <trkpt lat="44.99976" lon="5.03483">
        <ele>185.8</ele>
        <time>2019-04-15T07:22:54Z</time>
      </trkpt>
      <trkpt lat="44.99942" lon="5.03473">
        <ele>184.8</ele>
        <time>2019-04-15T07:22:58Z</time>
      </trkpt>
      <trkpt lat="44.99909" lon="5.03464">
        <ele>185.2</ele>
        <time>2019-04-15T07:23:02Z</time>
      </trkpt>
      <trkpt lat="44.99877" lon="5.03454">
        <ele>185.2</ele>
        <time>2019-04-15T07:23:06Z</time>
      </trkpt>
      <trkpt lat="44.99844" lon="5.03444">
        <ele>184.8</ele>
        <time>2019-04-15T07:23:10Z</time>
      </trkpt>
      <trkpt lat="44.99812" lon="5.03435">
        <ele>184.6</ele>
        <time>2019-04-15T07:23:14Z</time>
      </trkpt>
      <trkpt lat="44.9978" lon="5.03425">
        <ele>184</ele>
        <time>2019-04-15T07:23:18Z</time>
      </trkpt>
      <trkpt lat="44.99747" lon="5.03416">
        <ele>184.2</ele>
        <time>2019-04-15T07:23:22Z</time>
      </trkpt>
      <trkpt lat="44.99715" lon="5.03406">
        <ele>184</ele>
        <time>2019-04-15T07:23:26Z</time>
      </trkpt>
      <trkpt lat="44.99683" lon="5.03397">
        <ele>184.2</ele>
        <time>2019-04-15T07:23:30Z</time>
      </trkpt>
      <trkpt lat="44.99651" lon="5.03387">
        <ele>184.2</ele>
        <time>2019-04-15T07:23:34Z</time>
      </trkpt>
      <trkpt lat="44.99618" lon="5.03377">
        <ele>186.6</ele>
        <time>2019-04-15T07:23:38Z</time>
      </trkpt>
      <trkpt lat="44.99585" lon="5.03367">
        <ele>184.2</ele>
        <time>2019-04-15T07:23:42Z</time>
      </trkpt>
      <trkpt lat="44.99553" lon="5.03357">
        <ele>184.8</ele>
        <time>2019-04-15T07:23:46Z</time>
      </trkpt>
      <trkpt lat="44.99519" lon="5.03348">
        <ele>184.6</ele>
        <time>2019-04-15T07:23:50Z</time>
      </trkpt>
      <trkpt lat="44.99486" lon="5.03338">
        <ele>183.8</ele>
        <time>2019-04-15T07:23:54Z</time>
      </trkpt>
      <trkpt lat="44.99452" lon="5.03328">
        <ele>184.6</ele>
        <time>2019-04-15T07:23:58Z</time>
      </trkpt>
      <trkpt lat="44.99419" lon="5.03318">
        <ele>184.4</ele>
        <time>2019-04-15T07:24:02Z</time>
      </trkpt>
      <trkpt lat="44.99385" lon="5.03308">
        <ele>183.4</ele>
        <time>2019-04-15T07:24:06Z</time>
      </trkpt>
      <trkpt lat="44.99352" lon="5.03298">
        <ele>183.8</ele>
        <time>2019-04-15T07:24:10Z</time>
      </trkpt>
      <trkpt lat="44.99319" lon="5.03289">
        <ele>183.4</ele>
        <time>2019-04-15T07:24:14Z</time>
      </trkpt>
      <trkpt lat="44.99286" lon="5.03278">
        <ele>183.2</ele>
        <time>2019-04-15T07:24:18Z</time>
      </trkpt>
      <trkpt lat="44.99254" lon="5.03269">
        <ele>185</ele>
        <time>2019-04-15T07:24:22Z</time>
      </trkpt>
      <trkpt lat="44.99221" lon="5.03259">
        <ele>183.8</ele>
        <time>2019-04-15T07:24:26Z</time>
      </trkpt>
      <trkpt lat="44.99189" lon="5.0325">
        <ele>184.2</ele>
        <time>2019-04-15T07:24:30Z</time>
      </trkpt>
      <trkpt lat="44.99158" lon="5.03241">
        <ele>184.2</ele>
        <time>2019-04-15T07:24:34Z</time>
      </trkpt>
      <trkpt lat="44.99126" lon="5.03232">
        <ele>184.6</ele>
        <time>2019-04-15T07:24:38Z</time>
      </trkpt>
      <trkpt lat="44.99095" lon="5.03222">
        <ele>184.6</ele>
        <time>2019-04-15T07:24:42Z</time>
      </trkpt>
      <trkpt lat="44.99064" lon="5.03213">
        <ele>184.8</ele>
        <time>2019-04-15T07:24:46Z</time>
      </trkpt>
      <trkpt lat="44.99033" lon="5.03204">
        <ele>185.2</ele>
        <time>2019-04-15T07:24:50Z</time>
      </trkpt>
      <trkpt lat="44.99002" lon="5.03195">
        <ele>185.2</ele>
        <time>2019-04-15T07:24:54Z</time>
      </trkpt>
      <trkpt lat="44.98972" lon="5.03186">
        <ele>185.6</ele>
        <time>2019-04-15T07:24:58Z</time>
      </trkpt>
      <trkpt lat="44.98942" lon="5.03177">
        <ele>186.4</ele>
        <time>2019-04-15T07:25:02Z</time>
      </trkpt>
      <trkpt lat="44.98911" lon="5.03169">
        <ele>185.8</ele>
        <time>2019-04-15T07:25:06Z</time>
      </trkpt>
      <trkpt lat="44.98881" lon="5.0316">
        <ele>186</ele>
        <time>2019-04-15T07:25:10Z</time>
      </trkpt>
      <trkpt lat="44.9885" lon="5.0315">
        <ele>186.2</ele>
        <time>2019-04-15T07:25:14Z</time>
      </trkpt>
      <trkpt lat="44.98819" lon="5.03141">
        <ele>186</ele>
        <time>2019-04-15T07:25:18Z</time>
      </trkpt>
      <trkpt lat="44.98788" lon="5.03132">
        <ele>185.4</ele>
        <time>2019-04-15T07:25:22Z</time>
      </trkpt>
      <trkpt lat="44.98757" lon="5.03123">
        <ele>185.4</ele>
        <time>2019-04-15T07:25:26Z</time>
      </trkpt>
      <trkpt lat="44.98725" lon="5.03113">
        <ele>185.4</ele>
        <time>2019-04-15T07:25:30Z</time>
      </trkpt>
      <trkpt lat="44.98694" lon="5.03104">
        <ele>185.4</ele>
        <time>2019-04-15T07:25:34Z</time>
      </trkpt>
      <trkpt lat="44.98662" lon="5.03095">
        <ele>185.4</ele>
        <time>2019-04-15T07:25:38Z</time>
      </trkpt>
      <trkpt lat="44.98631" lon="5.03086">
        <ele>185.8</ele>
        <time>2019-04-15T07:25:42Z</time>
      </trkpt>
      <trkpt lat="44.98599" lon="5.03077">
        <ele>185.6</ele>
        <time>2019-04-15T07:25:46Z</time>
      </trkpt>
      <trkpt lat="44.98568" lon="5.03067">
        <ele>185.6</ele>
        <time>2019-04-15T07:25:50Z</time>
      </trkpt>
      <trkpt lat="44.98536" lon="5.03058">
        <ele>185.6</ele>
        <time>2019-04-15T07:25:54Z</time>
      </trkpt>
      <trkpt lat="44.98504" lon="5.03048">
        <ele>185.8</ele>
        <time>2019-04-15T07:25:58Z</time>
      </trkpt>
      <trkpt lat="44.98473" lon="5.0304">
        <ele>185.4</ele>
        <time>2019-04-15T07:26:02Z</time>
      </trkpt>
      <trkpt lat="44.98441" lon="5.03031">
        <ele>185.2</ele>
        <time>2019-04-15T07:26:06Z</time>
      </trkpt>
      <trkpt lat="44.9841" lon="5.03022">
        <ele>185.4</ele>
        <time>2019-04-15T07:26:10Z</time>
      </trkpt>
      <trkpt lat="44.98379" lon="5.03014">
        <ele>185.4</ele>
        <time>2019-04-15T07:26:14Z</time>
      </trkpt>
      <trkpt lat="44.98348" lon="5.03005">
        <ele>185.2</ele>
        <time>2019-04-15T07:26:18Z</time>
      </trkpt>
      <trkpt lat="44.98317" lon="5.02996">
        <ele>185.2</ele>
        <time>2019-04-15T07:26:22Z</time>
      </trkpt>
      <trkpt lat="44.98286" lon="5.02987">
        <ele>185.8</ele>
        <time>2019-04-15T07:26:26Z</time>
      </trkpt>
      <trkpt lat="44.98254" lon="5.02979">
        <ele>185.6</ele>
        <time>2019-04-15T07:26:30Z</time>
      </trkpt>
      <trkpt lat="44.98223" lon="5.0297">
        <ele>185.8</ele>
        <time>2019-04-15T07:26:34Z</time>
      </trkpt>
      <trkpt lat="44.98192" lon="5.02961">
        <ele>185.4</ele>
        <time>2019-04-15T07:26:38Z</time>
      </trkpt>
      <trkpt lat="44.98161" lon="5.02952">
        <ele>185.8</ele>
        <time>2019-04-15T07:26:42Z</time>
      </trkpt>
      <trkpt lat="44.98131" lon="5.02943">
        <ele>186.2</ele>
        <time>2019-04-15T07:26:46Z</time>
      </trkpt>
      <trkpt lat="44.981" lon="5.02934">
        <ele>186.6</ele>
        <time>2019-04-15T07:26:50Z</time>
      </trkpt>
      <trkpt lat="44.98071" lon="5.02925">
        <ele>186.8</ele>
        <time>2019-04-15T07:26:54Z</time>
      </trkpt>
      <trkpt lat="44.9804" lon="5.02915">
        <ele>186.8</ele>
        <time>2019-04-15T07:26:58Z</time>
      </trkpt>
      <trkpt lat="44.9801" lon="5.02907">
        <ele>187.4</ele>
        <time>2019-04-15T07:27:02Z</time>
      </trkpt>
      <trkpt lat="44.9798" lon="5.02899">
        <ele>188</ele>
        <time>2019-04-15T07:27:06Z</time>
      </trkpt>
      <trkpt lat="44.9795" lon="5.0289">
        <ele>187.6</ele>
        <time>2019-04-15T07:27:10Z</time>
      </trkpt>
      <trkpt lat="44.97919" lon="5.02881">
        <ele>188.2</ele>
        <time>2019-04-15T07:27:14Z</time>
      </trkpt>
      <trkpt lat="44.97889" lon="5.02872">
        <ele>188</ele>
        <time>2019-04-15T07:27:18Z</time>
      </trkpt>
      <trkpt lat="44.97858" lon="5.02863">
        <ele>188.4</ele>
        <time>2019-04-15T07:27:22Z</time>
      </trkpt>
      <trkpt lat="44.97828" lon="5.02854">
        <ele>188.4</ele>
        <time>2019-04-15T07:27:26Z</time>
      </trkpt>
      <trkpt lat="44.97798" lon="5.02845">
        <ele>188.4</ele>
        <time>2019-04-15T07:27:30Z</time>
      </trkpt>
      <trkpt lat="44.97767" lon="5.02837">
        <ele>188.6</ele>
        <time>2019-04-15T07:27:34Z</time>
      </trkpt>
      <trkpt lat="44.97736" lon="5.02828">
        <ele>188.8</ele>
        <time>2019-04-15T07:27:38Z</time>
      </trkpt>
      <trkpt lat="44.97705" lon="5.0282">
        <ele>188.4</ele>
        <time>2019-04-15T07:27:42Z</time>
      </trkpt>
      <trkpt lat="44.97674" lon="5.02811">
        <ele>188.4</ele>
        <time>2019-04-15T07:27:46Z</time>
      </trkpt>
      <trkpt lat="44.97643" lon="5.02802">
        <ele>188</ele>
        <time>2019-04-15T07:27:50Z</time>
      </trkpt>
      <trkpt lat="44.97613" lon="5.02793">
        <ele>188.6</ele>
        <time>2019-04-15T07:27:54Z</time>
      </trkpt>
      <trkpt lat="44.97582" lon="5.02785">
        <ele>188</ele>
        <time>2019-04-15T07:27:58Z</time>
      </trkpt>
      <trkpt lat="44.97551" lon="5.02777">
        <ele>188.4</ele>
        <time>2019-04-15T07:28:02Z</time>
      </trkpt>
      <trkpt lat="44.97523" lon="5.02768">
        <ele>188.4</ele>
        <time>2019-04-15T07:28:06Z</time>
      </trkpt>
      <trkpt lat="44.97496" lon="5.02759">
        <ele>188.4</ele>
        <time>2019-04-15T07:28:10Z</time>
      </trkpt>
      <trkpt lat="44.97468" lon="5.02748">
        <ele>188.8</ele>
        <time>2019-04-15T07:28:14Z</time>
      </trkpt>
      <trkpt lat="44.97439" lon="5.02731">
        <ele>188.8</ele>
        <time>2019-04-15T07:28:18Z</time>
      </trkpt>
      <trkpt lat="44.97411" lon="5.02715">
        <ele>188.6</ele>
        <time>2019-04-15T07:28:22Z</time>
      </trkpt>
      <trkpt lat="44.97383" lon="5.02697">
        <ele>189</ele>
        <time>2019-04-15T07:28:26Z</time>
      </trkpt>
      <trkpt lat="44.97354" lon="5.02679">
        <ele>189</ele>
        <time>2019-04-15T07:28:30Z</time>
      </trkpt>
      <trkpt lat="44.97326" lon="5.02663">
        <ele>190</ele>
        <time>2019-04-15T07:28:34Z</time>
      </trkpt>
      <trkpt lat="44.97298" lon="5.02646">
        <ele>189.8</ele>
        <time>2019-04-15T07:28:38Z</time>
      </trkpt>
      <trkpt lat="44.97271" lon="5.0263">
        <ele>190.2</ele>
        <time>2019-04-15T07:28:42Z</time>
      </trkpt>
      <trkpt lat="44.97244" lon="5.02614">
        <ele>189.8</ele>
        <time>2019-04-15T07:28:46Z</time>
      </trkpt>
      <trkpt lat="44.97216" lon="5.02597">
        <ele>189.4</ele>
        <time>2019-04-15T07:28:50Z</time>
      </trkpt>
      <trkpt lat="44.97187" lon="5.0258">
        <ele>189.4</ele>
        <time>2019-04-15T07:28:54Z</time>
      </trkpt>
      <trkpt lat="44.97158" lon="5.02563">
        <ele>189</ele>
        <time>2019-04-15T07:28:58Z</time>
      </trkpt>
      <trkpt lat="44.9713" lon="5.02545">
        <ele>189.2</ele>
        <time>2019-04-15T07:29:02Z</time>
      </trkpt>
      <trkpt lat="44.97101" lon="5.02529">
        <ele>188.8</ele>
        <time>2019-04-15T07:29:06Z</time>
      </trkpt>
      <trkpt lat="44.97073" lon="5.0251">
        <ele>189.2</ele>
        <time>2019-04-15T07:29:10Z</time>
      </trkpt>
      <trkpt lat="44.97045" lon="5.02493">
        <ele>189.8</ele>
        <time>2019-04-15T07:29:14Z</time>
      </trkpt>
      <trkpt lat="44.97018" lon="5.02476">
        <ele>189.6</ele>
        <time>2019-04-15T07:29:18Z</time>
      </trkpt>
      <trkpt lat="44.9699" lon="5.02459">
        <ele>189.6</ele>
        <time>2019-04-15T07:29:22Z</time>
      </trkpt>
      <trkpt lat="44.96962" lon="5.02442">
        <ele>189.6</ele>
        <time>2019-04-15T07:29:26Z</time>
      </trkpt>
      <trkpt lat="44.96934" lon="5.02427">
        <ele>190.2</ele>
        <time>2019-04-15T07:29:30Z</time>
      </trkpt>
      <trkpt lat="44.96906" lon="5.02411">
        <ele>190.2</ele>
        <time>2019-04-15T07:29:34Z</time>
      </trkpt>
      <trkpt lat="44.96877" lon="5.02397">
        <ele>190.4</ele>
        <time>2019-04-15T07:29:38Z</time>
      </trkpt>
      <trkpt lat="44.96847" lon="5.02387">
        <ele>190.4</ele>
        <time>2019-04-15T07:29:42Z</time>
      </trkpt>
      <trkpt lat="44.96816" lon="5.02382">
        <ele>190.2</ele>
        <time>2019-04-15T07:29:46Z</time>
      </trkpt>
      <trkpt lat="44.96785" lon="5.0238">
        <ele>190.2</ele>
        <time>2019-04-15T07:29:50Z</time>
      </trkpt>
      <trkpt lat="44.96753" lon="5.02377">
        <ele>190.4</ele>
        <time>2019-04-15T07:29:54Z</time>
      </trkpt>
      <trkpt lat="44.9672" lon="5.02375">
        <ele>190</ele>
        <time>2019-04-15T07:29:58Z</time>
      </trkpt>
      <trkpt lat="44.96688" lon="5.02371">
        <ele>189.8</ele>
        <time>2019-04-15T07:30:02Z</time>
      </trkpt>
      <trkpt lat="44.96656" lon="5.02367">
        <ele>189.8</ele>
        <time>2019-04-15T07:30:06Z</time>
      </trkpt>
      <trkpt lat="44.96623" lon="5.02365">
        <ele>190.2</ele>
        <time>2019-04-15T07:30:10Z</time>
      </trkpt>
      <trkpt lat="44.9659" lon="5.02362">
        <ele>190</ele>
        <time>2019-04-15T07:30:14Z</time>
      </trkpt>
      <trkpt lat="44.96558" lon="5.0236">
        <ele>189.8</ele>
        <time>2019-04-15T07:30:18Z</time>
      </trkpt>
      <trkpt lat="44.96526" lon="5.02357">
        <ele>189.4</ele>
        <time>2019-04-15T07:30:22Z</time>
      </trkpt>
      <trkpt lat="44.96493" lon="5.02355">
        <ele>189.6</ele>
        <time>2019-04-15T07:30:26Z</time>
      </trkpt>
      <trkpt lat="44.9646" lon="5.02353">
        <ele>189</ele>
        <time>2019-04-15T07:30:30Z</time>
      </trkpt>
      <trkpt lat="44.96426" lon="5.0235">
        <ele>188.8</ele>
        <time>2019-04-15T07:30:34Z</time>
      </trkpt>
      <trkpt lat="44.96392" lon="5.02347">
        <ele>188.6</ele>
        <time>2019-04-15T07:30:38Z</time>
      </trkpt>
      <trkpt lat="44.96359" lon="5.02345">
        <ele>189.4</ele>
        <time>2019-04-15T07:30:42Z</time>
      </trkpt>
      <trkpt lat="44.96326" lon="5.02342">
        <ele>189.2</ele>
        <time>2019-04-15T07:30:46Z</time>
      </trkpt>
      <trkpt lat="44.96295" lon="5.02339">
        <ele>189</ele>
        <time>2019-04-15T07:30:50Z</time>
      </trkpt>
      <trkpt lat="44.96263" lon="5.02337">
        <ele>189.4</ele>
        <time>2019-04-15T07:30:54Z</time>
      </trkpt>
      <trkpt lat="44.96232" lon="5.02335">
        <ele>189.4</ele>
        <time>2019-04-15T07:30:58Z</time>
      </trkpt>
      <trkpt lat="44.962" lon="5.02333">
        <ele>189.8</ele>
        <time>2019-04-15T07:31:02Z</time>
      </trkpt>
      <trkpt lat="44.96169" lon="5.0233">
        <ele>190.4</ele>
        <time>2019-04-15T07:31:06Z</time>
      </trkpt>
      <trkpt lat="44.96138" lon="5.02328">
        <ele>190.4</ele>
        <time>2019-04-15T07:31:10Z</time>
      </trkpt>
      <trkpt lat="44.96107" lon="5.02326">
        <ele>191.2</ele>
        <time>2019-04-15T07:31:14Z</time>
      </trkpt>
      <trkpt lat="44.96075" lon="5.02323">
        <ele>191</ele>
        <time>2019-04-15T07:31:18Z</time>
      </trkpt>
      <trkpt lat="44.96044" lon="5.02321">
        <ele>191.4</ele>
        <time>2019-04-15T07:31:22Z</time>
      </trkpt>
      <trkpt lat="44.96012" lon="5.02318">
        <ele>191.6</ele>
        <time>2019-04-15T07:31:26Z</time>
      </trkpt>
      <trkpt lat="44.95981" lon="5.02316">
        <ele>191.8</ele>
        <time>2019-04-15T07:31:30Z</time>
      </trkpt>
      <trkpt lat="44.9595" lon="5.02314">
        <ele>192</ele>
        <time>2019-04-15T07:31:34Z</time>
      </trkpt>
      <trkpt lat="44.95919" lon="5.02312">
        <ele>192</ele>
        <time>2019-04-15T07:31:38Z</time>
      </trkpt>
      <trkpt lat="44.95888" lon="5.02309">
        <ele>192.6</ele>
        <time>2019-04-15T07:31:42Z</time>
      </trkpt>
      <trkpt lat="44.95858" lon="5.02307">
        <ele>192.8</ele>
        <time>2019-04-15T07:31:46Z</time>
      </trkpt>
      <trkpt lat="44.95827" lon="5.02305">
        <ele>193.6</ele>
        <time>2019-04-15T07:31:50Z</time>
      </trkpt>
      <trkpt lat="44.95797" lon="5.02302">
        <ele>193.6</ele>
        <time>2019-04-15T07:31:54Z</time>
      </trkpt>
      <trkpt lat="44.95766" lon="5.023">
        <ele>194.4</ele>
        <time>2019-04-15T07:31:58Z</time>
      </trkpt>
      <trkpt lat="44.95737" lon="5.02298">
        <ele>195</ele>
        <time>2019-04-15T07:32:02Z</time>
      </trkpt>
      <trkpt lat="44.95707" lon="5.02296">
        <ele>195.8</ele>
        <time>2019-04-15T07:32:06Z</time>
      </trkpt>
      <trkpt lat="44.95677" lon="5.02295">
        <ele>195.6</ele>
        <time>2019-04-15T07:32:10Z</time>
      </trkpt>
      <trkpt lat="44.95648" lon="5.02295">
        <ele>196</ele>
        <time>2019-04-15T07:32:14Z</time>
      </trkpt>
      <trkpt lat="44.95617" lon="5.02298">
        <ele>196.2</ele>
        <time>2019-04-15T07:32:18Z</time>
      </trkpt>
      <trkpt lat="44.95587" lon="5.02302">
        <ele>196.2</ele>
        <time>2019-04-15T07:32:22Z</time>
      </trkpt>
      <trkpt lat="44.95556" lon="5.02307">
        <ele>196.2</ele>
        <time>2019-04-15T07:32:26Z</time>
      </trkpt>
      <trkpt lat="44.95525" lon="5.02315">
        <ele>196.2</ele>
        <time>2019-04-15T07:32:30Z</time>
      </trkpt>
      <trkpt lat="44.95494" lon="5.02324">
        <ele>196.2</ele>
        <time>2019-04-15T07:32:34Z</time>
      </trkpt>
      <trkpt lat="44.95464" lon="5.02335">
        <ele>195.6</ele>
        <time>2019-04-15T07:32:38Z</time>
      </trkpt>
      <trkpt lat="44.95434" lon="5.02347">
        <ele>195.8</ele>
        <time>2019-04-15T07:32:42Z</time>
      </trkpt>
      <trkpt lat="44.95404" lon="5.0236">
        <ele>196</ele>
        <time>2019-04-15T07:32:46Z</time>
      </trkpt>
      <trkpt lat="44.95374" lon="5.02373">
        <ele>196.4</ele>
        <time>2019-04-15T07:32:50Z</time>
      </trkpt>
      <trkpt lat="44.95345" lon="5.02386">
        <ele>197</ele>
        <time>2019-04-15T07:32:54Z</time>
      </trkpt>
      <trkpt lat="44.95316" lon="5.02399">
        <ele>197.2</ele>
        <time>2019-04-15T07:32:58Z</time>
      </trkpt>
      <trkpt lat="44.95287" lon="5.02411">
        <ele>198.6</ele>
        <time>2019-04-15T07:33:02Z</time>
      </trkpt>
      <trkpt lat="44.95259" lon="5.02423">
        <ele>199</ele>
        <time>2019-04-15T07:33:06Z</time>
      </trkpt>
      <trkpt lat="44.95231" lon="5.02435">
        <ele>199.6</ele>
        <time>2019-04-15T07:33:10Z</time>
      </trkpt>
      <trkpt lat="44.95205" lon="5.02447">
        <ele>200.4</ele>
        <time>2019-04-15T07:33:14Z</time>
      </trkpt>
      <trkpt lat="44.95179" lon="5.02458">
        <ele>200.6</ele>
        <time>2019-04-15T07:33:18Z</time>
      </trkpt>
      <trkpt lat="44.95153" lon="5.02469">
        <ele>201</ele>
        <time>2019-04-15T07:33:22Z</time>
      </trkpt>
      <trkpt lat="44.95127" lon="5.0248">
        <ele>201.4</ele>
        <time>2019-04-15T07:33:26Z</time>
      </trkpt>
      <trkpt lat="44.95101" lon="5.02492">
        <ele>202</ele>
        <time>2019-04-15T07:33:30Z</time>
      </trkpt>
      <trkpt lat="44.95074" lon="5.02504">
        <ele>203</ele>
        <time>2019-04-15T07:33:34Z</time>
      </trkpt>
      <trkpt lat="44.95049" lon="5.02515">
        <ele>203.6</ele>
        <time>2019-04-15T07:33:38Z</time>
      </trkpt>
      <trkpt lat="44.95023" lon="5.02527">
        <ele>204.2</ele>
        <time>2019-04-15T07:33:42Z</time>
      </trkpt>
      <trkpt lat="44.94997" lon="5.02537">
        <ele>204</ele>
        <time>2019-04-15T07:33:46Z</time>
      </trkpt>
      <trkpt lat="44.94972" lon="5.02548">
        <ele>205</ele>
        <time>2019-04-15T07:33:50Z</time>
      </trkpt>
      <trkpt lat="44.94946" lon="5.02559">
        <ele>205</ele>
        <time>2019-04-15T07:33:54Z</time>
      </trkpt>
      <trkpt lat="44.9492" lon="5.0257">
        <ele>205.2</ele>
        <time>2019-04-15T07:33:58Z</time>
      </trkpt>
      <trkpt lat="44.94893" lon="5.02582">
        <ele>205.4</ele>
        <time>2019-04-15T07:34:02Z</time>
      </trkpt>
      <trkpt lat="44.94865" lon="5.02593">
        <ele>206</ele>
        <time>2019-04-15T07:34:06Z</time>
      </trkpt>
      <trkpt lat="44.94839" lon="5.02605">
        <ele>206</ele>
        <time>2019-04-15T07:34:10Z</time>
      </trkpt>
      <trkpt lat="44.9481" lon="5.02618">
        <ele>206.2</ele>
        <time>2019-04-15T07:34:14Z</time>
      </trkpt>
      <trkpt lat="44.94782" lon="5.02631">
        <ele>205.8</ele>
        <time>2019-04-15T07:34:18Z</time>
      </trkpt>
      <trkpt lat="44.94753" lon="5.02643">
        <ele>205.8</ele>
        <time>2019-04-15T07:34:22Z</time>
      </trkpt>
      <trkpt lat="44.94723" lon="5.02655">
        <ele>205.8</ele>
        <time>2019-04-15T07:34:26Z</time>
      </trkpt>
      <trkpt lat="44.94694" lon="5.02669">
        <ele>206</ele>
        <time>2019-04-15T07:34:30Z</time>
      </trkpt>
      <trkpt lat="44.94664" lon="5.02681">
        <ele>205.6</ele>
        <time>2019-04-15T07:34:34Z</time>
      </trkpt>
      <trkpt lat="44.94634" lon="5.02694">
        <ele>206</ele>
        <time>2019-04-15T07:34:38Z</time>
      </trkpt>
      <trkpt lat="44.94605" lon="5.02707">
        <ele>206</ele>
        <time>2019-04-15T07:34:42Z</time>
      </trkpt>
      <trkpt lat="44.94575" lon="5.02719">
        <ele>206.6</ele>
        <time>2019-04-15T07:34:46Z</time>
      </trkpt>
      <trkpt lat="44.94546" lon="5.02731">
        <ele>206</ele>
        <time>2019-04-15T07:34:50Z</time>
      </trkpt>
      <trkpt lat="44.94518" lon="5.02744">
        <ele>206.6</ele>
        <time>2019-04-15T07:34:54Z</time>
      </trkpt>
      <trkpt lat="44.9449" lon="5.02756">
        <ele>207</ele>
        <time>2019-04-15T07:34:58Z</time>
      </trkpt>
      <trkpt lat="44.94463" lon="5.02768">
        <ele>207.8</ele>
        <time>2019-04-15T07:35:02Z</time>
      </trkpt>
      <trkpt lat="44.94436" lon="5.02779">
        <ele>208.6</ele>
        <time>2019-04-15T07:35:06Z</time>
      </trkpt>
      <trkpt lat="44.94409" lon="5.02789">
        <ele>209.4</ele>
        <time>2019-04-15T07:35:10Z</time>
      </trkpt>
      <trkpt lat="44.9438" lon="5.028">
        <ele>210</ele>
        <time>2019-04-15T07:35:14Z</time>
      </trkpt>
      <trkpt lat="44.94353" lon="5.02809">
        <ele>210.2</ele>
        <time>2019-04-15T07:35:18Z</time>
      </trkpt>
      <trkpt lat="44.94325" lon="5.02817">
        <ele>210.6</ele>
        <time>2019-04-15T07:35:22Z</time>
      </trkpt>
      <trkpt lat="44.94297" lon="5.02823">
        <ele>212</ele>
        <time>2019-04-15T07:35:26Z</time>
      </trkpt>
      <trkpt lat="44.94269" lon="5.02827">
        <ele>212.6</ele>
        <time>2019-04-15T07:35:30Z</time>
      </trkpt>
      <trkpt lat="44.94241" lon="5.02831">
        <ele>213.4</ele>
        <time>2019-04-15T07:35:34Z</time>
      </trkpt>
      <trkpt lat="44.94214" lon="5.02835">
        <ele>213.4</ele>
        <time>2019-04-15T07:35:38Z</time>
      </trkpt>
      <trkpt lat="44.94185" lon="5.02839">
        <ele>213.4</ele>
        <time>2019-04-15T07:35:42Z</time>
      </trkpt>
      <trkpt lat="44.94156" lon="5.02843">
        <ele>213.4</ele>
        <time>2019-04-15T07:35:46Z</time>
      </trkpt>
      <trkpt lat="44.94126" lon="5.02846">
        <ele>213</ele>
        <time>2019-04-15T07:35:50Z</time>
      </trkpt>
      <trkpt lat="44.94098" lon="5.02847">
        <ele>212.6</ele>
        <time>2019-04-15T07:35:54Z</time>
      </trkpt>
      <trkpt lat="44.94066" lon="5.0284">
        <ele>212.6</ele>
        <time>2019-04-15T07:35:58Z</time>
      </trkpt>
      <trkpt lat="44.94036" lon="5.02826">
        <ele>212.6</ele>
        <time>2019-04-15T07:36:02Z</time>
      </trkpt>
      <trkpt lat="44.94006" lon="5.02812">
        <ele>212</ele>
        <time>2019-04-15T07:36:06Z</time>
      </trkpt>
      <trkpt lat="44.93975" lon="5.02798">
        <ele>211.4</ele>
        <time>2019-04-15T07:36:10Z</time>
      </trkpt>
      <trkpt lat="44.93944" lon="5.02785">
        <ele>211</ele>
        <time>2019-04-15T07:36:14Z</time>
      </trkpt>
      <trkpt lat="44.93913" lon="5.02768">
        <ele>209.8</ele>
        <time>2019-04-15T07:36:18Z</time>
      </trkpt>
      <trkpt lat="44.93882" lon="5.0275">
        <ele>209.8</ele>
        <time>2019-04-15T07:36:22Z</time>
      </trkpt>
      <trkpt lat="44.9385" lon="5.02733">
        <ele>209.6</ele>
        <time>2019-04-15T07:36:26Z</time>
      </trkpt>
      <trkpt lat="44.93818" lon="5.02722">
        <ele>208.6</ele>
        <time>2019-04-15T07:36:30Z</time>
      </trkpt>
      <trkpt lat="44.93785" lon="5.02708">
        <ele>208.6</ele>
        <time>2019-04-15T07:36:34Z</time>
      </trkpt>
      <trkpt lat="44.93756" lon="5.02693">
        <ele>208.6</ele>
        <time>2019-04-15T07:36:38Z</time>
      </trkpt>
      <trkpt lat="44.93727" lon="5.0268">
        <ele>208.6</ele>
        <time>2019-04-15T07:36:42Z</time>
      </trkpt>
      <trkpt lat="44.937" lon="5.02665">
        <ele>209.6</ele>
        <time>2019-04-15T07:36:46Z</time>
      </trkpt>
      <trkpt lat="44.93674" lon="5.02654">
        <ele>210.8</ele>
        <time>2019-04-15T07:36:50Z</time>
      </trkpt>
      <trkpt lat="44.93647" lon="5.0264">
        <ele>209.6</ele>
        <time>2019-04-15T07:36:54Z</time>
      </trkpt>
      <trkpt lat="44.9362" lon="5.02627">
        <ele>210</ele>
        <time>2019-04-15T07:36:58Z</time>
      </trkpt>
      <trkpt lat="44.93591" lon="5.02612">
        <ele>210</ele>
        <time>2019-04-15T07:37:02Z</time>
      </trkpt>
      <trkpt lat="44.93561" lon="5.02595">
        <ele>209.4</ele>
        <time>2019-04-15T07:37:06Z</time>
      </trkpt>
      <trkpt lat="44.93546" lon="5.02582">
        <ele>209.2</ele>
        <time>2019-04-15T07:37:10Z</time>
      </trkpt>
      <trkpt lat="44.93528" lon="5.02571">
        <ele>209.4</ele>
        <time>2019-04-15T07:37:14Z</time>
      </trkpt>
      <trkpt lat="44.93504" lon="5.02568">
        <ele>209.8</ele>
        <time>2019-04-15T07:37:18Z</time>
      </trkpt>
      <trkpt lat="44.93479" lon="5.02559">
        <ele>209.4</ele>
        <time>2019-04-15T07:37:22Z</time>
      </trkpt>
      <trkpt lat="44.93455" lon="5.02546">
        <ele>210.2</ele>
        <time>2019-04-15T07:37:26Z</time>
      </trkpt>
      <trkpt lat="44.93428" lon="5.02533">
        <ele>210.2</ele>
        <time>2019-04-15T07:37:30Z</time>
      </trkpt>
      <trkpt lat="44.93402" lon="5.0252">
        <ele>210.6</ele>
        <time>2019-04-15T07:37:34Z</time>
      </trkpt>
      <trkpt lat="44.93375" lon="5.02506">
        <ele>210.6</ele>
        <time>2019-04-15T07:37:38Z</time>
      </trkpt>
      <trkpt lat="44.93347" lon="5.02493">
        <ele>210.6</ele>
        <time>2019-04-15T07:37:42Z</time>
      </trkpt>
      <trkpt lat="44.93318" lon="5.0248">
        <ele>211</ele>
        <time>2019-04-15T07:37:46Z</time>
      </trkpt>
      <trkpt lat="44.93291" lon="5.02466">
        <ele>211.2</ele>
        <time>2019-04-15T07:37:50Z</time>
      </trkpt>
      <trkpt lat="44.93264" lon="5.02453">
        <ele>211.6</ele>
        <time>2019-04-15T07:37:54Z</time>
      </trkpt>
      <trkpt lat="44.93238" lon="5.02441">
        <ele>212</ele>
        <time>2019-04-15T07:37:58Z</time>
      </trkpt>
      <trkpt lat="44.93212" lon="5.02428">
        <ele>212.2</ele>
        <time>2019-04-15T07:38:02Z</time>
      </trkpt>
      <trkpt lat="44.93186" lon="5.02415">
        <ele>212</ele>
        <time>2019-04-15T07:38:06Z</time>
      </trkpt>
      <trkpt lat="44.9316" lon="5.02403">
        <ele>212.2</ele>
        <time>2019-04-15T07:38:10Z</time>
      </trkpt>
      <trkpt lat="44.93133" lon="5.0239">
        <ele>212.6</ele>
        <time>2019-04-15T07:38:14Z</time>
      </trkpt>
      <trkpt lat="44.93107" lon="5.02378">
        <ele>213</ele>
        <time>2019-04-15T07:38:18Z</time>
      </trkpt>
      <trkpt lat="44.93079" lon="5.02364">
        <ele>213</ele>
        <time>2019-04-15T07:38:22Z</time>
      </trkpt>
      <trkpt lat="44.93052" lon="5.02352">
        <ele>213</ele>
        <time>2019-04-15T07:38:26Z</time>
      </trkpt>
      <trkpt lat="44.93024" lon="5.02338">
        <ele>213.6</ele>
        <time>2019-04-15T07:38:30Z</time>
      </trkpt>
      <trkpt lat="44.92995" lon="5.02324">
        <ele>213.6</ele>
        <time>2019-04-15T07:38:34Z</time>
      </trkpt>
      <trkpt lat="44.92968" lon="5.02311">
        <ele>213.2</ele>
        <time>2019-04-15T07:38:38Z</time>
      </trkpt>
      <trkpt lat="44.92941" lon="5.02298">
        <ele>214</ele>
        <time>2019-04-15T07:38:42Z</time>
      </trkpt>
      <trkpt lat="44.92922" lon="5.02276">
        <ele>214</ele>
        <time>2019-04-15T07:38:46Z</time>
      </trkpt>
      <trkpt lat="44.92896" lon="5.02273">
        <ele>213.6</ele>
        <time>2019-04-15T07:38:50Z</time>
      </trkpt>
      <trkpt lat="44.92869" lon="5.02262">
        <ele>214</ele>
        <time>2019-04-15T07:38:54Z</time>
      </trkpt>
      <trkpt lat="44.92841" lon="5.02248">
        <ele>214.2</ele>
        <time>2019-04-15T07:38:58Z</time>
      </trkpt>
      <trkpt lat="44.92813" lon="5.02235">
        <ele>214.2</ele>
        <time>2019-04-15T07:39:02Z</time>
      </trkpt>
      <trkpt lat="44.92785" lon="5.02222">
        <ele>214.4</ele>
        <time>2019-04-15T07:39:06Z</time>
      </trkpt>
      <trkpt lat="44.92758" lon="5.02209">
        <ele>214.6</ele>
        <time>2019-04-15T07:39:10Z</time>
      </trkpt>
      <trkpt lat="44.9273" lon="5.02196">
        <ele>214.6</ele>
        <time>2019-04-15T07:39:14Z</time>
      </trkpt>
      <trkpt lat="44.92702" lon="5.02181">
        <ele>214.6</ele>
        <time>2019-04-15T07:39:18Z</time>
      </trkpt>
      <trkpt lat="44.92673" lon="5.02168">
        <ele>215.2</ele>
        <time>2019-04-15T07:39:22Z</time>
      </trkpt>
      <trkpt lat="44.92644" lon="5.02153">
        <ele>214.8</ele>
        <time>2019-04-15T07:39:26Z</time>
      </trkpt>
      <trkpt lat="44.92614" lon="5.02139">
        <ele>215.2</ele>
        <time>2019-04-15T07:39:30Z</time>
      </trkpt>
      <trkpt lat="44.92585" lon="5.02125">
        <ele>215</ele>
        <time>2019-04-15T07:39:34Z</time>
      </trkpt>
      <trkpt lat="44.92555" lon="5.02111">
        <ele>215.2</ele>
        <time>2019-04-15T07:39:38Z</time>
      </trkpt>
      <trkpt lat="44.92526" lon="5.02097">
        <ele>215.2</ele>
        <time>2019-04-15T07:39:42Z</time>
      </trkpt>
      <trkpt lat="44.92496" lon="5.02083">
        <ele>215.6</ele>
        <time>2019-04-15T07:39:46Z</time>
      </trkpt>
      <trkpt lat="44.92467" lon="5.02071">
        <ele>215.2</ele>
        <time>2019-04-15T07:39:50Z</time>
      </trkpt>
      <trkpt lat="44.92437" lon="5.02061">
        <ele>216</ele>
        <time>2019-04-15T07:39:54Z</time>
      </trkpt>
      <trkpt lat="44.92407" lon="5.02052">
        <ele>215.8</ele>
        <time>2019-04-15T07:39:58Z</time>
      </trkpt>
      <trkpt lat="44.92376" lon="5.02043">
        <ele>216.2</ele>
        <time>2019-04-15T07:40:02Z</time>
      </trkpt>
      <trkpt lat="44.92347" lon="5.02033">
        <ele>216</ele>
        <time>2019-04-15T07:40:06Z</time>
      </trkpt>
      <trkpt lat="44.92317" lon="5.02024">
        <ele>216.6</ele>
        <time>2019-04-15T07:40:10Z</time>
      </trkpt>
      <trkpt lat="44.92287" lon="5.02017">
        <ele>216.4</ele>
        <time>2019-04-15T07:40:14Z</time>
      </trkpt>
      <trkpt lat="44.92257" lon="5.02011">
        <ele>216.8</ele>
        <time>2019-04-15T07:40:18Z</time>
      </trkpt>
      <trkpt lat="44.92226" lon="5.02006">
        <ele>217</ele>
        <time>2019-04-15T07:40:22Z</time>
      </trkpt>
      <trkpt lat="44.92196" lon="5.02001">
        <ele>216.8</ele>
        <time>2019-04-15T07:40:26Z</time>
      </trkpt>
      <trkpt lat="44.92165" lon="5.01995">
        <ele>217.4</ele>
        <time>2019-04-15T07:40:30Z</time>
      </trkpt>
      <trkpt lat="44.92135" lon="5.01991">
        <ele>217</ele>
        <time>2019-04-15T07:40:34Z</time>
      </trkpt>
      <trkpt lat="44.92104" lon="5.01986">
        <ele>217.4</ele>
        <time>2019-04-15T07:40:38Z</time>
      </trkpt>
      <trkpt lat="44.92072" lon="5.01985">
        <ele>217.8</ele>
        <time>2019-04-15T07:40:42Z</time>
      </trkpt>
      <trkpt lat="44.92041" lon="5.01984">
        <ele>217.8</ele>
        <time>2019-04-15T07:40:46Z</time>
      </trkpt>
      <trkpt lat="44.92011" lon="5.01983">
        <ele>217.4</ele>
        <time>2019-04-15T07:40:50Z</time>
      </trkpt>
      <trkpt lat="44.91981" lon="5.01983">
        <ele>217.8</ele>
        <time>2019-04-15T07:40:54Z</time>
      </trkpt>
      <trkpt lat="44.91951" lon="5.01983">
        <ele>218.4</ele>
        <time>2019-04-15T07:40:58Z</time>
      </trkpt>
      <trkpt lat="44.91921" lon="5.01982">
        <ele>218.6</ele>
        <time>2019-04-15T07:41:02Z</time>
      </trkpt>
      <trkpt lat="44.91892" lon="5.01982">
        <ele>218.8</ele>
        <time>2019-04-15T07:41:06Z</time>
      </trkpt>
      <trkpt lat="44.91863" lon="5.01981">
        <ele>219.4</ele>
        <time>2019-04-15T07:41:10Z</time>
      </trkpt>
      <trkpt lat="44.91834" lon="5.0198">
        <ele>220</ele>
        <time>2019-04-15T07:41:14Z</time>
      </trkpt>
      <trkpt lat="44.91805" lon="5.01979">
        <ele>220</ele>
        <time>2019-04-15T07:41:18Z</time>
      </trkpt>
      <trkpt lat="44.91776" lon="5.01978">
        <ele>220.4</ele>
        <time>2019-04-15T07:41:22Z</time>
      </trkpt>
      <trkpt lat="44.91747" lon="5.01977">
        <ele>220.6</ele>
        <time>2019-04-15T07:41:26Z</time>
      </trkpt>
      <trkpt lat="44.91717" lon="5.01975">
        <ele>220.6</ele>
        <time>2019-04-15T07:41:30Z</time>
      </trkpt>
      <trkpt lat="44.91687" lon="5.01974">
        <ele>221.2</ele>
        <time>2019-04-15T07:41:34Z</time>
      </trkpt>
      <trkpt lat="44.91657" lon="5.01974">
        <ele>220.6</ele>
        <time>2019-04-15T07:41:38Z</time>
      </trkpt>
      <trkpt lat="44.91626" lon="5.01974">
        <ele>220.6</ele>
        <time>2019-04-15T07:41:42Z</time>
      </trkpt>
      <trkpt lat="44.91595" lon="5.01974">
        <ele>220.6</ele>
        <time>2019-04-15T07:41:46Z</time>
      </trkpt>
      <trkpt lat="44.91565" lon="5.01974">
        <ele>221</ele>
        <time>2019-04-15T07:41:50Z</time>
      </trkpt>
      <trkpt lat="44.91534" lon="5.01974">
        <ele>221.4</ele>
        <time>2019-04-15T07:41:54Z</time>
      </trkpt>
      <trkpt lat="44.91504" lon="5.01975">
        <ele>221.2</ele>
        <time>2019-04-15T07:41:58Z</time>
      </trkpt>
      <trkpt lat="44.91474" lon="5.01975">
        <ele>221.4</ele>
        <time>2019-04-15T07:42:02Z</time>
      </trkpt>
      <trkpt lat="44.91444" lon="5.01974">
        <ele>221.6</ele>
        <time>2019-04-15T07:42:06Z</time>
      </trkpt>
      <trkpt lat="44.91414" lon="5.01973">
        <ele>221.8</ele>
        <time>2019-04-15T07:42:10Z</time>
      </trkpt>
      <trkpt lat="44.91385" lon="5.01969">
        <ele>221.8</ele>
        <time>2019-04-15T07:42:14Z</time>
      </trkpt>
      <trkpt lat="44.91362" lon="5.01946">
        <ele>221.4</ele>
        <time>2019-04-15T07:42:18Z</time>
      </trkpt>
      <trkpt lat="44.91335" lon="5.01936">
        <ele>221.2</ele>
        <time>2019-04-15T07:42:22Z</time>
      </trkpt>
      <trkpt lat="44.91315" lon="5.01944">
        <ele>221.4</ele>
        <time>2019-04-15T07:42:26Z</time>
      </trkpt>
      <trkpt lat="44.91315" lon="5.01944">
        <ele>221.4</ele>
        <time>2019-04-15T07:42:30Z</time>
      </trkpt>
      <trkpt lat="44.91315" lon="5.01944">
        <ele>221.4</ele>
        <time>2019-04-15T07:42:34Z</time>
      </trkpt>
      <trkpt lat="44.91315" lon="5.01944">
        <ele>221.4</ele>
        <time>2019-04-15T07:42:38Z</time>
      </trkpt>
      <trkpt lat="44.91315" lon="5.01944">
        <ele>221.4</ele>
        <time>2019-04-15T07:42:42Z</time>
      </trkpt>
      <trkpt lat="44.91315" lon="5.01944">
        <ele>221</ele>
        <time>2019-04-15T07:42:46Z</time>
      </trkpt>
      <trkpt lat="44.91317" lon="5.01942">
        <ele>221.2</ele>
        <time>2019-04-15T07:42:50Z</time>
      </trkpt>
      <trkpt lat="44.9132" lon="5.01938">
        <ele>220.6</ele>
        <time>2019-04-15T07:42:54Z</time>
      </trkpt>
      <trkpt lat="44.9132" lon="5.01932">
        <ele>220.8</ele>
        <time>2019-04-15T07:42:58Z</time>
      </trkpt>
      <trkpt lat="44.91318" lon="5.01928">
        <ele>220.4</ele>
        <time>2019-04-15T07:43:02Z</time>
      </trkpt>
      <trkpt lat="44.91318" lon="5.01928">
        <ele>220.4</ele>
        <time>2019-04-15T07:43:06Z</time>
      </trkpt>
      <trkpt lat="44.91318" lon="5.01928">
        <ele>220.4</ele>
        <time>2019-04-15T07:43:10Z</time>
      </trkpt>
      <trkpt lat="44.91318" lon="5.01928">
        <ele>220.4</ele>
        <time>2019-04-15T07:43:14Z</time>
      </trkpt>
      <trkpt lat="44.91318" lon="5.01928">
        <ele>220.4</ele>
        <time>2019-04-15T07:43:18Z</time>
      </trkpt>
      <trkpt lat="44.91318" lon="5.01928">
        <ele>220.4</ele>
        <time>2019-04-15T07:43:22Z</time>
      </trkpt>
      <trkpt lat="44.91318" lon="5.01928">
        <ele>220.4</ele>
        <time>2019-04-15T07:43:26Z</time>
      </trkpt>
      <trkpt lat="44.91318" lon="5.01928">
        <ele>220.4</ele>
        <time>2019-04-15T07:43:30Z</time>
      </trkpt>
      <trkpt lat="44.91318" lon="5.01928">
        <ele>220.4</ele>
        <time>2019-04-15T07:43:34Z</time>
      </trkpt>
      <trkpt lat="44.91318" lon="5.01928">
        <ele>220.4</ele>
        <time>2019-04-15T07:43:38Z</time>
      </trkpt>
      <trkpt lat="44.91318" lon="5.01928">
        <ele>220.4</ele>
        <time>2019-04-15T07:43:42Z</time>
      </trkpt>
      <trkpt lat="44.91318" lon="5.01928">
        <ele>220.4</ele>
        <time>2019-04-15T07:43:46Z</time>
      </trkpt>
      <trkpt lat="44.91318" lon="5.01928">
        <ele>220.4</ele>
        <time>2019-04-15T07:43:50Z</time>
      </trkpt>
      <trkpt lat="44.91318" lon="5.01928">
        <ele>220.4</ele>
        <time>2019-04-15T07:43:54Z</time>
      </trkpt>
      <trkpt lat="44.91318" lon="5.01928">
        <ele>220.4</ele>
        <time>2019-04-15T07:43:58Z</time>
      </trkpt>
      <trkpt lat="44.91318" lon="5.01928">
        <ele>220.4</ele>
        <time>2019-04-15T07:44:02Z</time>
      </trkpt>
      <trkpt lat="44.91318" lon="5.01928">
        <ele>220.4</ele>
        <time>2019-04-15T07:44:06Z</time>
      </trkpt>
      <trkpt lat="44.91318" lon="5.01928">
        <ele>220.4</ele>
        <time>2019-04-15T07:44:10Z</time>
      </trkpt>
      <trkpt lat="44.91318" lon="5.01928">
        <ele>220.4</ele>
        <time>2019-04-15T07:44:14Z</time>
      </trkpt>
      <trkpt lat="44.91318" lon="5.01928">
        <ele>220.4</ele>
        <time>2019-04-15T07:44:18Z</time>
      </trkpt>
      <trkpt lat="44.91318" lon="5.01928">
        <ele>220.4</ele>
        <time>2019-04-15T07:44:22Z</time>
      </trkpt>
      <trkpt lat="44.91318" lon="5.01928">
        <ele>220.4</ele>
        <time>2019-04-15T07:44:26Z</time>
      </trkpt>
      <trkpt lat="44.91318" lon="5.01928">
        <ele>220.4</ele>
        <time>2019-04-15T07:44:30Z</time>
      </trkpt>
      <trkpt lat="44.91318" lon="5.01928">
        <ele>220.4</ele>
        <time>2019-04-15T07:44:34Z</time>
      </trkpt>
      <trkpt lat="44.91318" lon="5.01928">
        <ele>220.4</ele>
        <time>2019-04-15T07:44:38Z</time>
      </trkpt>
      <trkpt lat="44.91318" lon="5.01928">
        <ele>220.4</ele>
        <time>2019-04-15T07:44:42Z</time>
      </trkpt>
      <trkpt lat="44.91318" lon="5.01928">
        <ele>220.4</ele>
        <time>2019-04-15T07:44:46Z</time>
      </trkpt>
      <trkpt lat="44.91318" lon="5.01928">
        <ele>220.4</ele>
        <time>2019-04-15T07:44:50Z</time>
      </trkpt>
      <trkpt lat="44.91318" lon="5.01928">
        <ele>220.4</ele>
        <time>2019-04-15T07:44:54Z</time>
      </trkpt>
      <trkpt lat="44.91318" lon="5.01928">
        <ele>220.4</ele>
        <time>2019-04-15T07:44:58Z</time>
      </trkpt>
      <trkpt lat="44.91318" lon="5.01928">
        <ele>220.4</ele>
        <time>2019-04-15T07:45:02Z</time>
      </trkpt>
      <trkpt lat="44.91318" lon="5.01928">
        <ele>220.4</ele>
        <time>2019-04-15T07:45:06Z</time>
      </trkpt>
      <trkpt lat="44.91318" lon="5.01928">
        <ele>220.4</ele>
        <time>2019-04-15T07:45:10Z</time>
      </trkpt>
      <trkpt lat="44.91318" lon="5.01928">
        <ele>220.4</ele>
        <time>2019-04-15T07:45:14Z</time>
      </trkpt>
      <trkpt lat="44.91318" lon="5.01928">
        <ele>220.4</ele>
        <time>2019-04-15T07:45:18Z</time>
      </trkpt>
      <trkpt lat="44.91318" lon="5.01928">
        <ele>220.4</ele>
        <time>2019-04-15T07:45:22Z</time>
      </trkpt>
      <trkpt lat="44.91318" lon="5.01928">
        <ele>220.4</ele>
        <time>2019-04-15T07:45:26Z</time>
      </trkpt>
      <trkpt lat="44.91318" lon="5.01928">
        <ele>220.4</ele>
        <time>2019-04-15T07:45:30Z</time>
      </trkpt>
      <trkpt lat="44.91318" lon="5.01928">
        <ele>220.4</ele>
        <time>2019-04-15T07:45:34Z</time>
      </trkpt>
      <trkpt lat="44.91318" lon="5.01928">
        <ele>220.4</ele>
        <time>2019-04-15T07:45:38Z</time>
      </trkpt>
      <trkpt lat="44.91318" lon="5.01928">
        <ele>220.4</ele>
        <time>2019-04-15T07:45:42Z</time>
      </trkpt>
      <trkpt lat="44.91318" lon="5.01928">
        <ele>220.4</ele>
        <time>2019-04-15T07:45:46Z</time>
      </trkpt>
      <trkpt lat="44.91318" lon="5.01928">
        <ele>220.4</ele>
        <time>2019-04-15T07:45:50Z</time>
      </trkpt>
      <trkpt lat="44.91318" lon="5.01928">
        <ele>220.4</ele>
        <time>2019-04-15T07:45:54Z</time>
      </trkpt>
      <trkpt lat="44.91318" lon="5.01928">
        <ele>220.4</ele>
        <time>2019-04-15T07:45:58Z</time>
      </trkpt>
      <trkpt lat="44.91318" lon="5.01928">
        <ele>220.4</ele>
        <time>2019-04-15T07:46:02Z</time>
      </trkpt>
      <trkpt lat="44.91318" lon="5.01928">
        <ele>220.4</ele>
        <time>2019-04-15T07:46:06Z</time>
      </trkpt>
      <trkpt lat="44.91318" lon="5.01928">
        <ele>220.4</ele>
        <time>2019-04-15T07:46:10Z</time>
      </trkpt>
      <trkpt lat="44.91318" lon="5.01928">
        <ele>220.4</ele>
        <time>2019-04-15T07:46:14Z</time>
      </trkpt>
      <trkpt lat="44.91318" lon="5.01928">
        <ele>220.4</ele>
        <time>2019-04-15T07:46:18Z</time>
      </trkpt>
      <trkpt lat="44.91318" lon="5.01928">
        <ele>220.4</ele>
        <time>2019-04-15T07:46:22Z</time>
      </trkpt>
      <trkpt lat="44.91318" lon="5.01928">
        <ele>220.4</ele>
        <time>2019-04-15T07:46:26Z</time>
      </trkpt>
      <trkpt lat="44.91318" lon="5.01928">
        <ele>220.4</ele>
        <time>2019-04-15T07:46:30Z</time>
      </trkpt>
      <trkpt lat="44.91318" lon="5.01928">
        <ele>220.4</ele>
        <time>2019-04-15T07:46:34Z</time>
      </trkpt>
      <trkpt lat="44.91318" lon="5.01928">
        <ele>220.4</ele>
        <time>2019-04-15T07:46:38Z</time>
      </trkpt>
      <trkpt lat="44.91318" lon="5.01928">
        <ele>220.4</ele>
        <time>2019-04-15T07:46:42Z</time>
      </trkpt>
      <trkpt lat="44.91318" lon="5.01928">
        <ele>220.4</ele>
        <time>2019-04-15T07:46:46Z</time>
      </trkpt>
      <trkpt lat="44.91318" lon="5.01928">
        <ele>220.4</ele>
        <time>2019-04-15T07:46:50Z</time>
      </trkpt>
      <trkpt lat="44.91318" lon="5.01928">
        <ele>220.4</ele>
        <time>2019-04-15T07:46:54Z</time>
      </trkpt>
      <trkpt lat="44.91318" lon="5.01928">
        <ele>220.4</ele>
        <time>2019-04-15T07:46:58Z</time>
      </trkpt>
      <trkpt lat="44.91318" lon="5.01928">
        <ele>220.4</ele>
        <time>2019-04-15T07:47:02Z</time>
      </trkpt>
      <trkpt lat="44.91318" lon="5.01928">
        <ele>220.4</ele>
        <time>2019-04-15T07:47:06Z</time>
      </trkpt>
      <trkpt lat="44.91318" lon="5.01928">
        <ele>220.4</ele>
        <time>2019-04-15T07:47:10Z</time>
      </trkpt>
      <trkpt lat="44.91318" lon="5.01928">
        <ele>220.4</ele>
        <time>2019-04-15T07:47:14Z</time>
      </trkpt>
      <trkpt lat="44.91318" lon="5.01928">
        <ele>220.4</ele>
        <time>2019-04-15T07:47:18Z</time>
      </trkpt>
      <trkpt lat="44.91318" lon="5.01928">
        <ele>220.4</ele>
        <time>2019-04-15T07:47:22Z</time>
      </trkpt>
      <trkpt lat="44.91318" lon="5.01928">
        <ele>220.4</ele>
        <time>2019-04-15T07:47:26Z</time>
      </trkpt>
      <trkpt lat="44.91318" lon="5.01928">
        <ele>220.4</ele>
        <time>2019-04-15T07:47:30Z</time>
      </trkpt>
      <trkpt lat="44.91318" lon="5.01928">
        <ele>220.4</ele>
        <time>2019-04-15T07:47:34Z</time>
      </trkpt>
      <trkpt lat="44.91318" lon="5.01928">
        <ele>220.4</ele>
        <time>2019-04-15T07:47:38Z</time>
      </trkpt>
      <trkpt lat="44.91318" lon="5.01928">
        <ele>220.4</ele>
        <time>2019-04-15T07:47:42Z</time>
      </trkpt>
      <trkpt lat="44.91318" lon="5.01928">
        <ele>220.4</ele>
        <time>2019-04-15T07:47:46Z</time>
      </trkpt>
      <trkpt lat="44.91318" lon="5.01928">
        <ele>220.4</ele>
        <time>2019-04-15T07:47:50Z</time>
      </trkpt>
      <trkpt lat="44.91318" lon="5.01928">
        <ele>220.4</ele>
        <time>2019-04-15T07:47:54Z</time>
      </trkpt>
      <trkpt lat="44.91318" lon="5.01928">
        <ele>220.4</ele>
        <time>2019-04-15T07:47:58Z</time>
      </trkpt>
      <trkpt lat="44.91318" lon="5.01928">
        <ele>220.4</ele>
        <time>2019-04-15T07:48:02Z</time>
      </trkpt>
      <trkpt lat="44.91318" lon="5.01928">
        <ele>220.4</ele>
        <time>2019-04-15T07:48:06Z</time>
      </trkpt>
      <trkpt lat="44.91318" lon="5.01928">
        <ele>220.4</ele>
        <time>2019-04-15T07:48:10Z</time>
      </trkpt>
      <trkpt lat="44.91318" lon="5.01928">
        <ele>220.4</ele>
        <time>2019-04-15T07:48:14Z</time>
      </trkpt>
      <trkpt lat="44.91318" lon="5.01928">
        <ele>220.4</ele>
        <time>2019-04-15T07:48:18Z</time>
      </trkpt>
      <trkpt lat="44.91318" lon="5.01928">
        <ele>220.4</ele>
        <time>2019-04-15T07:48:22Z</time>
      </trkpt>
      <trkpt lat="44.91318" lon="5.01928">
        <ele>220.4</ele>
        <time>2019-04-15T07:48:26Z</time>
      </trkpt>
      <trkpt lat="44.91318" lon="5.01928">
        <ele>220.4</ele>
        <time>2019-04-15T07:48:30Z</time>
      </trkpt>
      <trkpt lat="44.91318" lon="5.01928">
        <ele>220.4</ele>
        <time>2019-04-15T07:48:34Z</time>
      </trkpt>
      <trkpt lat="44.91318" lon="5.01928">
        <ele>220.4</ele>
        <time>2019-04-15T07:48:38Z</time>
      </trkpt>
      <trkpt lat="44.91318" lon="5.01928">
        <ele>220.4</ele>
        <time>2019-04-15T07:48:42Z</time>
      </trkpt>
      <trkpt lat="44.91318" lon="5.01928">
        <ele>220.4</ele>
        <time>2019-04-15T07:48:46Z</time>
      </trkpt>
      <trkpt lat="44.91318" lon="5.01928">
        <ele>220.4</ele>
        <time>2019-04-15T07:48:50Z</time>
      </trkpt>
      <trkpt lat="44.91318" lon="5.01928">
        <ele>220.4</ele>
        <time>2019-04-15T07:48:54Z</time>
      </trkpt>
      <trkpt lat="44.91318" lon="5.01928">
        <ele>220.4</ele>
        <time>2019-04-15T07:48:58Z</time>
      </trkpt>
      <trkpt lat="44.91318" lon="5.01928">
        <ele>220.4</ele>
        <time>2019-04-15T07:49:02Z</time>
      </trkpt>
      <trkpt lat="44.91318" lon="5.01928">
        <ele>220.4</ele>
        <time>2019-04-15T07:49:06Z</time>
      </trkpt>
      <trkpt lat="44.91318" lon="5.01928">
        <ele>220.4</ele>
        <time>2019-04-15T07:49:10Z</time>
      </trkpt>
      <trkpt lat="44.91318" lon="5.01928">
        <ele>220.4</ele>
        <time>2019-04-15T07:49:14Z</time>
      </trkpt>
      <trkpt lat="44.91318" lon="5.01928">
        <ele>220.4</ele>
        <time>2019-04-15T07:49:18Z</time>
      </trkpt>
      <trkpt lat="44.91318" lon="5.01928">
        <ele>220.4</ele>
        <time>2019-04-15T07:49:22Z</time>
      </trkpt>
      <trkpt lat="44.91316" lon="5.01928">
        <ele>221.6</ele>
        <time>2019-04-15T07:49:26Z</time>
      </trkpt>
      <trkpt lat="44.91319" lon="5.01929">
        <ele>221.2</ele>
        <time>2019-04-15T07:49:30Z</time>
      </trkpt>
      <trkpt lat="44.91319" lon="5.01929">
        <ele>221.2</ele>
        <time>2019-04-15T07:49:34Z</time>
      </trkpt>
      <trkpt lat="44.91319" lon="5.01931">
        <ele>221.6</ele>
        <time>2019-04-15T07:49:38Z</time>
      </trkpt>
      <trkpt lat="44.91318" lon="5.0194">
        <ele>221.8</ele>
        <time>2019-04-15T07:49:42Z</time>
      </trkpt>
      <trkpt lat="44.91307" lon="5.01949">
        <ele>221.4</ele>
        <time>2019-04-15T07:49:46Z</time>
      </trkpt>
      <trkpt lat="44.91289" lon="5.01955">
        <ele>221.6</ele>
        <time>2019-04-15T07:49:50Z</time>
      </trkpt>
      <trkpt lat="44.91265" lon="5.01957">
        <ele>221.6</ele>
        <time>2019-04-15T07:49:54Z</time>
      </trkpt>
      <trkpt lat="44.91238" lon="5.01957">
        <ele>222</ele>
        <time>2019-04-15T07:49:58Z</time>
      </trkpt>
      <trkpt lat="44.91211" lon="5.01958">
        <ele>222</ele>
        <time>2019-04-15T07:50:02Z</time>
      </trkpt>
      <trkpt lat="44.91183" lon="5.01958">
        <ele>222.4</ele>
        <time>2019-04-15T07:50:06Z</time>
      </trkpt>
      <trkpt lat="44.91155" lon="5.01957">
        <ele>222</ele>
        <time>2019-04-15T07:50:10Z</time>
      </trkpt>
      <trkpt lat="44.91127" lon="5.01957">
        <ele>222.6</ele>
        <time>2019-04-15T07:50:14Z</time>
      </trkpt>
      <trkpt lat="44.911" lon="5.01957">
        <ele>222.8</ele>
        <time>2019-04-15T07:50:18Z</time>
      </trkpt>
      <trkpt lat="44.91073" lon="5.01957">
        <ele>223.2</ele>
        <time>2019-04-15T07:50:22Z</time>
      </trkpt>
      <trkpt lat="44.91045" lon="5.01955">
        <ele>223.6</ele>
        <time>2019-04-15T07:50:26Z</time>
      </trkpt>
      <trkpt lat="44.91018" lon="5.01946">
        <ele>223.8</ele>
        <time>2019-04-15T07:50:30Z</time>
      </trkpt>
      <trkpt lat="44.90992" lon="5.01934">
        <ele>224</ele>
        <time>2019-04-15T07:50:34Z</time>
      </trkpt>
      <trkpt lat="44.90966" lon="5.01918">
        <ele>223</ele>
        <time>2019-04-15T07:50:38Z</time>
      </trkpt>
      <trkpt lat="44.90939" lon="5.019">
        <ele>223.2</ele>
        <time>2019-04-15T07:50:42Z</time>
      </trkpt>
      <trkpt lat="44.90911" lon="5.01882">
        <ele>222.8</ele>
        <time>2019-04-15T07:50:46Z</time>
      </trkpt>
      <trkpt lat="44.90881" lon="5.01863">
        <ele>222.4</ele>
        <time>2019-04-15T07:50:50Z</time>
      </trkpt>
      <trkpt lat="44.90851" lon="5.01842">
        <ele>221.8</ele>
        <time>2019-04-15T07:50:54Z</time>
      </trkpt>
      <trkpt lat="44.9082" lon="5.01818">
        <ele>221</ele>
        <time>2019-04-15T07:50:58Z</time>
      </trkpt>
      <trkpt lat="44.90793" lon="5.01787">
        <ele>221</ele>
        <time>2019-04-15T07:51:02Z</time>
      </trkpt>
      <trkpt lat="44.9077" lon="5.01749">
        <ele>220.2</ele>
        <time>2019-04-15T07:51:06Z</time>
      </trkpt>
      <trkpt lat="44.90751" lon="5.01708">
        <ele>219.8</ele>
        <time>2019-04-15T07:51:10Z</time>
      </trkpt>
      <trkpt lat="44.90737" lon="5.01664">
        <ele>219</ele>
        <time>2019-04-15T07:51:14Z</time>
      </trkpt>
      <trkpt lat="44.90725" lon="5.01618">
        <ele>219</ele>
        <time>2019-04-15T07:51:18Z</time>
      </trkpt>
      <trkpt lat="44.90713" lon="5.01573">
        <ele>218</ele>
        <time>2019-04-15T07:51:22Z</time>
      </trkpt>
      <trkpt lat="44.907" lon="5.01527">
        <ele>217.8</ele>
        <time>2019-04-15T07:51:26Z</time>
      </trkpt>
      <trkpt lat="44.90687" lon="5.01481">
        <ele>217.4</ele>
        <time>2019-04-15T07:51:30Z</time>
      </trkpt>
      <trkpt lat="44.90674" lon="5.01435">
        <ele>216.8</ele>
        <time>2019-04-15T07:51:34Z</time>
      </trkpt>
      <trkpt lat="44.9066" lon="5.01388">
        <ele>216.2</ele>
        <time>2019-04-15T07:51:38Z</time>
      </trkpt>
      <trkpt lat="44.90647" lon="5.0134">
        <ele>215.2</ele>
        <time>2019-04-15T07:51:42Z</time>
      </trkpt>
      <trkpt lat="44.90634" lon="5.01292">
        <ele>214.6</ele>
        <time>2019-04-15T07:51:46Z</time>
      </trkpt>
      <trkpt lat="44.90621" lon="5.01244">
        <ele>214</ele>
        <time>2019-04-15T07:51:50Z</time>
      </trkpt>
      <trkpt lat="44.90607" lon="5.01197">
        <ele>214</ele>
        <time>2019-04-15T07:51:54Z</time>
      </trkpt>
      <trkpt lat="44.9059" lon="5.01153">
        <ele>213.4</ele>
        <time>2019-04-15T07:51:58Z</time>
      </trkpt>
      <trkpt lat="44.90568" lon="5.01113">
        <ele>212</ele>
        <time>2019-04-15T07:52:02Z</time>
      </trkpt>
      <trkpt lat="44.90542" lon="5.01078">
        <ele>211.4</ele>
        <time>2019-04-15T07:52:06Z</time>
      </trkpt>
      <trkpt lat="44.90512" lon="5.01045">
        <ele>210.4</ele>
        <time>2019-04-15T07:52:10Z</time>
      </trkpt>
      <trkpt lat="44.90482" lon="5.01014">
        <ele>210.2</ele>
        <time>2019-04-15T07:52:14Z</time>
      </trkpt>
      <trkpt lat="44.90452" lon="5.00981">
        <ele>210</ele>
        <time>2019-04-15T07:52:18Z</time>
      </trkpt>
      <trkpt lat="44.90422" lon="5.00949">
        <ele>209.2</ele>
        <time>2019-04-15T07:52:22Z</time>
      </trkpt>
      <trkpt lat="44.90392" lon="5.00917">
        <ele>208.2</ele>
        <time>2019-04-15T07:52:26Z</time>
      </trkpt>
      <trkpt lat="44.90361" lon="5.00887">
        <ele>207.6</ele>
        <time>2019-04-15T07:52:30Z</time>
      </trkpt>
      <trkpt lat="44.9033" lon="5.00859">
        <ele>207.2</ele>
        <time>2019-04-15T07:52:34Z</time>
      </trkpt>
      <trkpt lat="44.90306" lon="5.00825">
        <ele>207.2</ele>
        <time>2019-04-15T07:52:38Z</time>
      </trkpt>
      <trkpt lat="44.90277" lon="5.00805">
        <ele>207</ele>
        <time>2019-04-15T07:52:42Z</time>
      </trkpt>
      <trkpt lat="44.90245" lon="5.00817">
        <ele>206.6</ele>
        <time>2019-04-15T07:52:46Z</time>
      </trkpt>
      <trkpt lat="44.90209" lon="5.00819">
        <ele>206.2</ele>
        <time>2019-04-15T07:52:50Z</time>
      </trkpt>
      <trkpt lat="44.90174" lon="5.00824">
        <ele>206.2</ele>
        <time>2019-04-15T07:52:54Z</time>
      </trkpt>
      <trkpt lat="44.90138" lon="5.00829">
        <ele>206.2</ele>
        <time>2019-04-15T07:52:58Z</time>
      </trkpt>
      <trkpt lat="44.90103" lon="5.00836">
        <ele>206</ele>
        <time>2019-04-15T07:53:02Z</time>
      </trkpt>
      <trkpt lat="44.90067" lon="5.00841">
        <ele>205.2</ele>
        <time>2019-04-15T07:53:06Z</time>
      </trkpt>
      <trkpt lat="44.90031" lon="5.00846">
        <ele>205</ele>
        <time>2019-04-15T07:53:10Z</time>
      </trkpt>
      <trkpt lat="44.89995" lon="5.00852">
        <ele>204.2</ele>
        <time>2019-04-15T07:53:14Z</time>
      </trkpt>
      <trkpt lat="44.89959" lon="5.00858">
        <ele>204</ele>
        <time>2019-04-15T07:53:18Z</time>
      </trkpt>
      <trkpt lat="44.89923" lon="5.00864">
        <ele>204</ele>
        <time>2019-04-15T07:53:22Z</time>
      </trkpt>
      <trkpt lat="44.89888" lon="5.0087">
        <ele>204</ele>
        <time>2019-04-15T07:53:26Z</time>
      </trkpt>
      <trkpt lat="44.89854" lon="5.00875">
        <ele>203.8</ele>
        <time>2019-04-15T07:53:30Z</time>
      </trkpt>
      <trkpt lat="44.8982" lon="5.00882">
        <ele>204</ele>
        <time>2019-04-15T07:53:34Z</time>
      </trkpt>
      <trkpt lat="44.89786" lon="5.00895">
        <ele>203</ele>
        <time>2019-04-15T07:53:38Z</time>
      </trkpt>
      <trkpt lat="44.89754" lon="5.00915">
        <ele>203.8</ele>
        <time>2019-04-15T07:53:42Z</time>
      </trkpt>
      <trkpt lat="44.89724" lon="5.00937">
        <ele>203.8</ele>
        <time>2019-04-15T07:53:46Z</time>
      </trkpt>
      <trkpt lat="44.89694" lon="5.0096">
        <ele>204.2</ele>
        <time>2019-04-15T07:53:50Z</time>
      </trkpt>
      <trkpt lat="44.89663" lon="5.00982">
        <ele>203.8</ele>
        <time>2019-04-15T07:53:54Z</time>
      </trkpt>
      <trkpt lat="44.89633" lon="5.01004">
        <ele>204</ele>
        <time>2019-04-15T07:53:58Z</time>
      </trkpt>
      <trkpt lat="44.89603" lon="5.01026">
        <ele>203.6</ele>
        <time>2019-04-15T07:54:02Z</time>
      </trkpt>
      <trkpt lat="44.89574" lon="5.01049">
        <ele>203.6</ele>
        <time>2019-04-15T07:54:06Z</time>
      </trkpt>
      <trkpt lat="44.89544" lon="5.01073">
        <ele>203.6</ele>
        <time>2019-04-15T07:54:10Z</time>
      </trkpt>
      <trkpt lat="44.89516" lon="5.01102">
        <ele>203</ele>
        <time>2019-04-15T07:54:14Z</time>
      </trkpt>
      <trkpt lat="44.8949" lon="5.01136">
        <ele>204.8</ele>
        <time>2019-04-15T07:54:18Z</time>
      </trkpt>
      <trkpt lat="44.89469" lon="5.01174">
        <ele>203.4</ele>
        <time>2019-04-15T07:54:22Z</time>
      </trkpt>
      <trkpt lat="44.89454" lon="5.01215">
        <ele>203.6</ele>
        <time>2019-04-15T07:54:26Z</time>
      </trkpt>
      <trkpt lat="44.8944" lon="5.01258">
        <ele>204</ele>
        <time>2019-04-15T07:54:30Z</time>
      </trkpt>
      <trkpt lat="44.89429" lon="5.01301">
        <ele>204.6</ele>
        <time>2019-04-15T07:54:34Z</time>
      </trkpt>
      <trkpt lat="44.89417" lon="5.01344">
        <ele>205.2</ele>
        <time>2019-04-15T07:54:38Z</time>
      </trkpt>
      <trkpt lat="44.89406" lon="5.01386">
        <ele>205.2</ele>
        <time>2019-04-15T07:54:42Z</time>
      </trkpt>
      <trkpt lat="44.89394" lon="5.01429">
        <ele>204.6</ele>
        <time>2019-04-15T07:54:46Z</time>
      </trkpt>
      <trkpt lat="44.89382" lon="5.0147">
        <ele>205.2</ele>
        <time>2019-04-15T07:54:50Z</time>
      </trkpt>
      <trkpt lat="44.89368" lon="5.01511">
        <ele>204.4</ele>
        <time>2019-04-15T07:54:54Z</time>
      </trkpt>
      <trkpt lat="44.8935" lon="5.0155">
        <ele>204.4</ele>
        <time>2019-04-15T07:54:58Z</time>
      </trkpt>
      <trkpt lat="44.89328" lon="5.01585">
        <ele>204.2</ele>
        <time>2019-04-15T07:55:02Z</time>
      </trkpt>
      <trkpt lat="44.89302" lon="5.01615">
        <ele>204</ele>
        <time>2019-04-15T07:55:06Z</time>
      </trkpt>
      <trkpt lat="44.89272" lon="5.01639">
        <ele>204</ele>
        <time>2019-04-15T07:55:10Z</time>
      </trkpt>
      <trkpt lat="44.89241" lon="5.01655">
        <ele>203.8</ele>
        <time>2019-04-15T07:55:14Z</time>
      </trkpt>
      <trkpt lat="44.89207" lon="5.01658">
        <ele>203.8</ele>
        <time>2019-04-15T07:55:18Z</time>
      </trkpt>
      <trkpt lat="44.89173" lon="5.01671">
        <ele>203.8</ele>
        <time>2019-04-15T07:55:22Z</time>
      </trkpt>
      <trkpt lat="44.89137" lon="5.01674">
        <ele>203</ele>
        <time>2019-04-15T07:55:26Z</time>
      </trkpt>
      <trkpt lat="44.891" lon="5.01669">
        <ele>201.8</ele>
        <time>2019-04-15T07:55:30Z</time>
      </trkpt>
      <trkpt lat="44.89063" lon="5.01659">
        <ele>201.2</ele>
        <time>2019-04-15T07:55:34Z</time>
      </trkpt>
      <trkpt lat="44.89027" lon="5.01644">
        <ele>200.4</ele>
        <time>2019-04-15T07:55:38Z</time>
      </trkpt>
      <trkpt lat="44.88992" lon="5.01626">
        <ele>199.8</ele>
        <time>2019-04-15T07:55:42Z</time>
      </trkpt>
      <trkpt lat="44.88958" lon="5.01607">
        <ele>199.6</ele>
        <time>2019-04-15T07:55:46Z</time>
      </trkpt>
      <trkpt lat="44.88922" lon="5.0159">
        <ele>198.8</ele>
        <time>2019-04-15T07:55:50Z</time>
      </trkpt>
      <trkpt lat="44.88886" lon="5.01577">
        <ele>198.4</ele>
        <time>2019-04-15T07:55:54Z</time>
      </trkpt>
      <trkpt lat="44.88849" lon="5.01567">
        <ele>198.2</ele>
        <time>2019-04-15T07:55:58Z</time>
      </trkpt>
      <trkpt lat="44.88812" lon="5.01561">
        <ele>198.2</ele>
        <time>2019-04-15T07:56:02Z</time>
      </trkpt>
      <trkpt lat="44.88775" lon="5.01555">
        <ele>197.8</ele>
        <time>2019-04-15T07:56:06Z</time>
      </trkpt>
      <trkpt lat="44.88738" lon="5.01544">
        <ele>197.8</ele>
        <time>2019-04-15T07:56:10Z</time>
      </trkpt>
      <trkpt lat="44.88702" lon="5.01531">
        <ele>197.2</ele>
        <time>2019-04-15T07:56:14Z</time>
      </trkpt>
      <trkpt lat="44.88665" lon="5.01519">
        <ele>196.8</ele>
        <time>2019-04-15T07:56:18Z</time>
      </trkpt>
      <trkpt lat="44.88629" lon="5.01506">
        <ele>195.8</ele>
        <time>2019-04-15T07:56:22Z</time>
      </trkpt>
      <trkpt lat="44.88592" lon="5.01493">
        <ele>195.2</ele>
        <time>2019-04-15T07:56:26Z</time>
      </trkpt>
      <trkpt lat="44.88554" lon="5.01479">
        <ele>194.4</ele>
        <time>2019-04-15T07:56:30Z</time>
      </trkpt>
      <trkpt lat="44.88517" lon="5.01466">
        <ele>193.8</ele>
        <time>2019-04-15T07:56:34Z</time>
      </trkpt>
      <trkpt lat="44.88479" lon="5.01453">
        <ele>194</ele>
        <time>2019-04-15T07:56:38Z</time>
      </trkpt>
      <trkpt lat="44.88441" lon="5.01439">
        <ele>193</ele>
        <time>2019-04-15T07:56:42Z</time>
      </trkpt>
      <trkpt lat="44.88404" lon="5.01425">
        <ele>193</ele>
        <time>2019-04-15T07:56:46Z</time>
      </trkpt>
      <trkpt lat="44.88368" lon="5.01412">
        <ele>192.2</ele>
        <time>2019-04-15T07:56:50Z</time>
      </trkpt>
      <trkpt lat="44.88332" lon="5.01398">
        <ele>192</ele>
        <time>2019-04-15T07:56:54Z</time>
      </trkpt>
      <trkpt lat="44.88298" lon="5.01385">
        <ele>192.8</ele>
        <time>2019-04-15T07:56:58Z</time>
      </trkpt>
      <trkpt lat="44.88263" lon="5.01373">
        <ele>192.2</ele>
        <time>2019-04-15T07:57:02Z</time>
      </trkpt>
      <trkpt lat="44.88228" lon="5.0136">
        <ele>192</ele>
        <time>2019-04-15T07:57:06Z</time>
      </trkpt>
      <trkpt lat="44.88193" lon="5.01348">
        <ele>192.4</ele>
        <time>2019-04-15T07:57:10Z</time>
      </trkpt>
      <trkpt lat="44.8816" lon="5.01334">
        <ele>192.2</ele>
        <time>2019-04-15T07:57:14Z</time>
      </trkpt>
      <trkpt lat="44.88127" lon="5.01322">
        <ele>192.6</ele>
        <time>2019-04-15T07:57:18Z</time>
      </trkpt>
      <trkpt lat="44.88094" lon="5.0131">
        <ele>193.4</ele>
        <time>2019-04-15T07:57:22Z</time>
      </trkpt>
      <trkpt lat="44.88062" lon="5.01298">
        <ele>193.8</ele>
        <time>2019-04-15T07:57:26Z</time>
      </trkpt>
      <trkpt lat="44.8803" lon="5.01286">
        <ele>194</ele>
        <time>2019-04-15T07:57:30Z</time>
      </trkpt>
      <trkpt lat="44.87999" lon="5.01275">
        <ele>194.4</ele>
        <time>2019-04-15T07:57:34Z</time>
      </trkpt>
      <trkpt lat="44.87967" lon="5.01264">
        <ele>194.4</ele>
        <time>2019-04-15T07:57:38Z</time>
      </trkpt>
      <trkpt lat="44.87935" lon="5.01253">
        <ele>195</ele>
        <time>2019-04-15T07:57:42Z</time>
      </trkpt>
      <trkpt lat="44.87903" lon="5.01243">
        <ele>194.8</ele>
        <time>2019-04-15T07:57:46Z</time>
      </trkpt>
      <trkpt lat="44.87871" lon="5.01233">
        <ele>195.2</ele>
        <time>2019-04-15T07:57:50Z</time>
      </trkpt>
      <trkpt lat="44.87837" lon="5.01227">
        <ele>194.2</ele>
        <time>2019-04-15T07:57:54Z</time>
      </trkpt>
      <trkpt lat="44.87803" lon="5.0122">
        <ele>193.6</ele>
        <time>2019-04-15T07:57:58Z</time>
      </trkpt>
      <trkpt lat="44.87769" lon="5.01214">
        <ele>193.8</ele>
        <time>2019-04-15T07:58:02Z</time>
      </trkpt>
      <trkpt lat="44.87735" lon="5.01207">
        <ele>193.8</ele>
        <time>2019-04-15T07:58:06Z</time>
      </trkpt>
      <trkpt lat="44.87703" lon="5.01201">
        <ele>194.2</ele>
        <time>2019-04-15T07:58:10Z</time>
      </trkpt>
      <trkpt lat="44.87671" lon="5.01195">
        <ele>194.6</ele>
        <time>2019-04-15T07:58:14Z</time>
      </trkpt>
      <trkpt lat="44.8764" lon="5.0118">
        <ele>194.6</ele>
        <time>2019-04-15T07:58:18Z</time>
      </trkpt>
      <trkpt lat="44.8761" lon="5.01173">
        <ele>195.2</ele>
        <time>2019-04-15T07:58:22Z</time>
      </trkpt>
      <trkpt lat="44.87578" lon="5.01176">
        <ele>195.2</ele>
        <time>2019-04-15T07:58:26Z</time>
      </trkpt>
      <trkpt lat="44.87547" lon="5.0117">
        <ele>195.2</ele>
        <time>2019-04-15T07:58:30Z</time>
      </trkpt>
      <trkpt lat="44.87515" lon="5.01164">
        <ele>195.2</ele>
        <time>2019-04-15T07:58:34Z</time>
      </trkpt>
      <trkpt lat="44.87482" lon="5.0116">
        <ele>195.2</ele>
        <time>2019-04-15T07:58:38Z</time>
      </trkpt>
      <trkpt lat="44.8745" lon="5.01156">
        <ele>195.2</ele>
        <time>2019-04-15T07:58:42Z</time>
      </trkpt>
      <trkpt lat="44.87418" lon="5.01152">
        <ele>194.8</ele>
        <time>2019-04-15T07:58:46Z</time>
      </trkpt>
      <trkpt lat="44.87386" lon="5.01147">
        <ele>195.6</ele>
        <time>2019-04-15T07:58:50Z</time>
      </trkpt>
      <trkpt lat="44.87355" lon="5.01143">
        <ele>195.4</ele>
        <time>2019-04-15T07:58:54Z</time>
      </trkpt>
      <trkpt lat="44.87325" lon="5.01137">
        <ele>195.6</ele>
        <time>2019-04-15T07:58:58Z</time>
      </trkpt>
      <trkpt lat="44.87295" lon="5.01131">
        <ele>196.2</ele>
        <time>2019-04-15T07:59:02Z</time>
      </trkpt>
      <trkpt lat="44.87265" lon="5.01126">
        <ele>196.8</ele>
        <time>2019-04-15T07:59:06Z</time>
      </trkpt>
      <trkpt lat="44.87235" lon="5.0112">
        <ele>197.8</ele>
        <time>2019-04-15T07:59:10Z</time>
      </trkpt>
      <trkpt lat="44.87206" lon="5.01115">
        <ele>197.8</ele>
        <time>2019-04-15T07:59:14Z</time>
      </trkpt>
      <trkpt lat="44.87176" lon="5.01109">
        <ele>198.2</ele>
        <time>2019-04-15T07:59:18Z</time>
      </trkpt>
      <trkpt lat="44.87146" lon="5.01104">
        <ele>198.4</ele>
        <time>2019-04-15T07:59:22Z</time>
      </trkpt>
      <trkpt lat="44.87116" lon="5.01098">
        <ele>198.4</ele>
        <time>2019-04-15T07:59:26Z</time>
      </trkpt>
      <trkpt lat="44.87085" lon="5.01092">
        <ele>198</ele>
        <time>2019-04-15T07:59:30Z</time>
      </trkpt>
      <trkpt lat="44.87054" lon="5.01087">
        <ele>198</ele>
        <time>2019-04-15T07:59:34Z</time>
      </trkpt>
      <trkpt lat="44.87021" lon="5.01081">
        <ele>197.8</ele>
        <time>2019-04-15T07:59:38Z</time>
      </trkpt>
      <trkpt lat="44.86989" lon="5.01075">
        <ele>197</ele>
        <time>2019-04-15T07:59:42Z</time>
      </trkpt>
      <trkpt lat="44.86956" lon="5.01068">
        <ele>197.2</ele>
        <time>2019-04-15T07:59:46Z</time>
      </trkpt>
      <trkpt lat="44.86923" lon="5.01059">
        <ele>196.8</ele>
        <time>2019-04-15T07:59:50Z</time>
      </trkpt>
      <trkpt lat="44.8689" lon="5.01048">
        <ele>196.8</ele>
        <time>2019-04-15T07:59:54Z</time>
      </trkpt>
      <trkpt lat="44.86857" lon="5.01035">
        <ele>196.4</ele>
        <time>2019-04-15T07:59:58Z</time>
      </trkpt>
      <trkpt lat="44.86824" lon="5.01023">
        <ele>196.2</ele>
        <time>2019-04-15T08:00:02Z</time>
      </trkpt>
      <trkpt lat="44.86792" lon="5.01009">
        <ele>195.6</ele>
        <time>2019-04-15T08:00:06Z</time>
      </trkpt>
      <trkpt lat="44.86759" lon="5.00997">
        <ele>196.4</ele>
        <time>2019-04-15T08:00:10Z</time>
      </trkpt>
      <trkpt lat="44.86727" lon="5.00983">
        <ele>196.2</ele>
        <time>2019-04-15T08:00:14Z</time>
      </trkpt>
      <trkpt lat="44.86694" lon="5.00968">
        <ele>196.6</ele>
        <time>2019-04-15T08:00:18Z</time>
      </trkpt>
      <trkpt lat="44.86662" lon="5.0095">
        <ele>196.2</ele>
        <time>2019-04-15T08:00:22Z</time>
      </trkpt>
      <trkpt lat="44.86631" lon="5.00927">
        <ele>196</ele>
        <time>2019-04-15T08:00:26Z</time>
      </trkpt>
      <trkpt lat="44.86602" lon="5.00901">
        <ele>195.8</ele>
        <time>2019-04-15T08:00:30Z</time>
      </trkpt>
      <trkpt lat="44.86574" lon="5.00871">
        <ele>196</ele>
        <time>2019-04-15T08:00:34Z</time>
      </trkpt>
      <trkpt lat="44.86548" lon="5.00841">
        <ele>195.2</ele>
        <time>2019-04-15T08:00:38Z</time>
      </trkpt>
      <trkpt lat="44.86521" lon="5.0081">
        <ele>195.8</ele>
        <time>2019-04-15T08:00:42Z</time>
      </trkpt>
      <trkpt lat="44.86495" lon="5.0078">
        <ele>196.2</ele>
        <time>2019-04-15T08:00:46Z</time>
      </trkpt>
      <trkpt lat="44.86469" lon="5.00752">
        <ele>196.4</ele>
        <time>2019-04-15T08:00:50Z</time>
      </trkpt>
      <trkpt lat="44.86442" lon="5.00726">
        <ele>196.8</ele>
        <time>2019-04-15T08:00:54Z</time>
      </trkpt>
      <trkpt lat="44.86413" lon="5.00705">
        <ele>196.8</ele>
        <time>2019-04-15T08:00:58Z</time>
      </trkpt>
      <trkpt lat="44.86383" lon="5.00691">
        <ele>197.2</ele>
        <time>2019-04-15T08:01:02Z</time>
      </trkpt>
      <trkpt lat="44.86352" lon="5.00682">
        <ele>197</ele>
        <time>2019-04-15T08:01:06Z</time>
      </trkpt>
      <trkpt lat="44.8632" lon="5.00678">
        <ele>197</ele>
        <time>2019-04-15T08:01:10Z</time>
      </trkpt>
      <trkpt lat="44.86288" lon="5.00678">
        <ele>197.2</ele>
        <time>2019-04-15T08:01:14Z</time>
      </trkpt>
      <trkpt lat="44.86257" lon="5.00678">
        <ele>197.4</ele>
        <time>2019-04-15T08:01:18Z</time>
      </trkpt>
      <trkpt lat="44.86226" lon="5.00679">
        <ele>197.8</ele>
        <time>2019-04-15T08:01:22Z</time>
      </trkpt>
      <trkpt lat="44.86195" lon="5.0068">
        <ele>198.2</ele>
        <time>2019-04-15T08:01:26Z</time>
      </trkpt>
      <trkpt lat="44.86164" lon="5.00683">
        <ele>198.4</ele>
        <time>2019-04-15T08:01:30Z</time>
      </trkpt>
      <trkpt lat="44.86133" lon="5.00685">
        <ele>198.6</ele>
        <time>2019-04-15T08:01:34Z</time>
      </trkpt>
      <trkpt lat="44.86103" lon="5.00687">
        <ele>199</ele>
        <time>2019-04-15T08:01:38Z</time>
      </trkpt>
      <trkpt lat="44.86072" lon="5.00687">
        <ele>198.6</ele>
        <time>2019-04-15T08:01:42Z</time>
      </trkpt>
      <trkpt lat="44.86041" lon="5.00687">
        <ele>198.6</ele>
        <time>2019-04-15T08:01:46Z</time>
      </trkpt>
      <trkpt lat="44.8601" lon="5.00688">
        <ele>199.2</ele>
        <time>2019-04-15T08:01:50Z</time>
      </trkpt>
      <trkpt lat="44.85978" lon="5.00689">
        <ele>199</ele>
        <time>2019-04-15T08:01:54Z</time>
      </trkpt>
      <trkpt lat="44.85946" lon="5.00689">
        <ele>198.8</ele>
        <time>2019-04-15T08:01:58Z</time>
      </trkpt>
      <trkpt lat="44.85914" lon="5.0069">
        <ele>199.4</ele>
        <time>2019-04-15T08:02:02Z</time>
      </trkpt>
      <trkpt lat="44.85881" lon="5.00691">
        <ele>199</ele>
        <time>2019-04-15T08:02:06Z</time>
      </trkpt>
      <trkpt lat="44.85849" lon="5.00692">
        <ele>199.2</ele>
        <time>2019-04-15T08:02:10Z</time>
      </trkpt>
      <trkpt lat="44.85817" lon="5.00693">
        <ele>200.2</ele>
        <time>2019-04-15T08:02:14Z</time>
      </trkpt>
      <trkpt lat="44.85786" lon="5.00694">
        <ele>200.4</ele>
        <time>2019-04-15T08:02:18Z</time>
      </trkpt>
      <trkpt lat="44.85755" lon="5.00695">
        <ele>200.4</ele>
        <time>2019-04-15T08:02:22Z</time>
      </trkpt>
      <trkpt lat="44.85723" lon="5.00696">
        <ele>201.2</ele>
        <time>2019-04-15T08:02:26Z</time>
      </trkpt>
      <trkpt lat="44.85692" lon="5.00697">
        <ele>202</ele>
        <time>2019-04-15T08:02:30Z</time>
      </trkpt>
      <trkpt lat="44.85661" lon="5.00697">
        <ele>202.4</ele>
        <time>2019-04-15T08:02:34Z</time>
      </trkpt>
      <trkpt lat="44.8563" lon="5.00698">
        <ele>203</ele>
        <time>2019-04-15T08:02:38Z</time>
      </trkpt>
      <trkpt lat="44.85599" lon="5.00699">
        <ele>204</ele>
        <time>2019-04-15T08:02:42Z</time>
      </trkpt>
      <trkpt lat="44.85569" lon="5.007">
        <ele>204.4</ele>
        <time>2019-04-15T08:02:46Z</time>
      </trkpt>
      <trkpt lat="44.85538" lon="5.00701">
        <ele>205</ele>
        <time>2019-04-15T08:02:50Z</time>
      </trkpt>
      <trkpt lat="44.85509" lon="5.00704">
        <ele>205.2</ele>
        <time>2019-04-15T08:02:54Z</time>
      </trkpt>
      <trkpt lat="44.8548" lon="5.00707">
        <ele>206.2</ele>
        <time>2019-04-15T08:02:58Z</time>
      </trkpt>
      <trkpt lat="44.8545" lon="5.0071">
        <ele>206.4</ele>
        <time>2019-04-15T08:03:02Z</time>
      </trkpt>
      <trkpt lat="44.85422" lon="5.00715">
        <ele>206.8</ele>
        <time>2019-04-15T08:03:06Z</time>
      </trkpt>
      <trkpt lat="44.85392" lon="5.00719">
        <ele>206.8</ele>
        <time>2019-04-15T08:03:10Z</time>
      </trkpt>
      <trkpt lat="44.85362" lon="5.00723">
        <ele>207</ele>
        <time>2019-04-15T08:03:14Z</time>
      </trkpt>
      <trkpt lat="44.85333" lon="5.00728">
        <ele>207.4</ele>
        <time>2019-04-15T08:03:18Z</time>
      </trkpt>
      <trkpt lat="44.85303" lon="5.00732">
        <ele>208.2</ele>
        <time>2019-04-15T08:03:22Z</time>
      </trkpt>
      <trkpt lat="44.85274" lon="5.00736">
        <ele>208.6</ele>
        <time>2019-04-15T08:03:26Z</time>
      </trkpt>
      <trkpt lat="44.85245" lon="5.0074">
        <ele>209.4</ele>
        <time>2019-04-15T08:03:30Z</time>
      </trkpt>
      <trkpt lat="44.85215" lon="5.00745">
        <ele>209.8</ele>
        <time>2019-04-15T08:03:34Z</time>
      </trkpt>
      <trkpt lat="44.85186" lon="5.00749">
        <ele>210.4</ele>
        <time>2019-04-15T08:03:38Z</time>
      </trkpt>
      <trkpt lat="44.85157" lon="5.00753">
        <ele>210.8</ele>
        <time>2019-04-15T08:03:42Z</time>
      </trkpt>
      <trkpt lat="44.85128" lon="5.00758">
        <ele>210.8</ele>
        <time>2019-04-15T08:03:46Z</time>
      </trkpt>
      <trkpt lat="44.85098" lon="5.00762">
        <ele>211.2</ele>
        <time>2019-04-15T08:03:50Z</time>
      </trkpt>
      <trkpt lat="44.85069" lon="5.00767">
        <ele>211.6</ele>
        <time>2019-04-15T08:03:54Z</time>
      </trkpt>
      <trkpt lat="44.85039" lon="5.00771">
        <ele>212.2</ele>
        <time>2019-04-15T08:03:58Z</time>
      </trkpt>
      <trkpt lat="44.8501" lon="5.00775">
        <ele>212.6</ele>
        <time>2019-04-15T08:04:02Z</time>
      </trkpt>
      <trkpt lat="44.8498" lon="5.0078">
        <ele>213</ele>
        <time>2019-04-15T08:04:06Z</time>
      </trkpt>
      <trkpt lat="44.84951" lon="5.00785">
        <ele>213.4</ele>
        <time>2019-04-15T08:04:10Z</time>
      </trkpt>
      <trkpt lat="44.8492" lon="5.00791">
        <ele>213</ele>
        <time>2019-04-15T08:04:14Z</time>
      </trkpt>
      <trkpt lat="44.8489" lon="5.00795">
        <ele>213.4</ele>
        <time>2019-04-15T08:04:18Z</time>
      </trkpt>
      <trkpt lat="44.8486" lon="5.00801">
        <ele>213.8</ele>
        <time>2019-04-15T08:04:22Z</time>
      </trkpt>
      <trkpt lat="44.84829" lon="5.00806">
        <ele>214</ele>
        <time>2019-04-15T08:04:26Z</time>
      </trkpt>
      <trkpt lat="44.84799" lon="5.00811">
        <ele>214</ele>
        <time>2019-04-15T08:04:30Z</time>
      </trkpt>
      <trkpt lat="44.84768" lon="5.00816">
        <ele>214.6</ele>
        <time>2019-04-15T08:04:34Z</time>
      </trkpt>
      <trkpt lat="44.84738" lon="5.00821">
        <ele>215.2</ele>
        <time>2019-04-15T08:04:38Z</time>
      </trkpt>
      <trkpt lat="44.84707" lon="5.00827">
        <ele>215.2</ele>
        <time>2019-04-15T08:04:42Z</time>
      </trkpt>
      <trkpt lat="44.84676" lon="5.00832">
        <ele>215.8</ele>
        <time>2019-04-15T08:04:46Z</time>
      </trkpt>
      <trkpt lat="44.84645" lon="5.00837">
        <ele>215.6</ele>
        <time>2019-04-15T08:04:50Z</time>
      </trkpt>
      <trkpt lat="44.84614" lon="5.00841">
        <ele>216.2</ele>
        <time>2019-04-15T08:04:54Z</time>
      </trkpt>
      <trkpt lat="44.84584" lon="5.00846">
        <ele>216.4</ele>
        <time>2019-04-15T08:04:58Z</time>
      </trkpt>
      <trkpt lat="44.84554" lon="5.00852">
        <ele>216.6</ele>
        <time>2019-04-15T08:05:02Z</time>
      </trkpt>
      <trkpt lat="44.84525" lon="5.00857">
        <ele>217</ele>
        <time>2019-04-15T08:05:06Z</time>
      </trkpt>
      <trkpt lat="44.84496" lon="5.00862">
        <ele>216.8</ele>
        <time>2019-04-15T08:05:10Z</time>
      </trkpt>
      <trkpt lat="44.84466" lon="5.00867">
        <ele>217</ele>
        <time>2019-04-15T08:05:14Z</time>
      </trkpt>
      <trkpt lat="44.84436" lon="5.00872">
        <ele>217.4</ele>
        <time>2019-04-15T08:05:18Z</time>
      </trkpt>
      <trkpt lat="44.84407" lon="5.00877">
        <ele>217.6</ele>
        <time>2019-04-15T08:05:22Z</time>
      </trkpt>
      <trkpt lat="44.84377" lon="5.00883">
        <ele>218</ele>
        <time>2019-04-15T08:05:26Z</time>
      </trkpt>
      <trkpt lat="44.84347" lon="5.00889">
        <ele>218.4</ele>
        <time>2019-04-15T08:05:30Z</time>
      </trkpt>
      <trkpt lat="44.84317" lon="5.00896">
        <ele>218</ele>
        <time>2019-04-15T08:05:34Z</time>
      </trkpt>
      <trkpt lat="44.84287" lon="5.00902">
        <ele>218.8</ele>
        <time>2019-04-15T08:05:38Z</time>
      </trkpt>
      <trkpt lat="44.84256" lon="5.00897">
        <ele>218.4</ele>
        <time>2019-04-15T08:05:42Z</time>
      </trkpt>
      <trkpt lat="44.84226" lon="5.00896">
        <ele>218.8</ele>
        <time>2019-04-15T08:05:46Z</time>
      </trkpt>
      <trkpt lat="44.84201" lon="5.00921">
        <ele>218.8</ele>
        <time>2019-04-15T08:05:50Z</time>
      </trkpt>
      <trkpt lat="44.84169" lon="5.00929">
        <ele>218.8</ele>
        <time>2019-04-15T08:05:54Z</time>
      </trkpt>
      <trkpt lat="44.84137" lon="5.00932">
        <ele>218.4</ele>
        <time>2019-04-15T08:05:58Z</time>
      </trkpt>
      <trkpt lat="44.84103" lon="5.00935">
        <ele>217.8</ele>
        <time>2019-04-15T08:06:02Z</time>
      </trkpt>
      <trkpt lat="44.84068" lon="5.0094">
        <ele>218</ele>
        <time>2019-04-15T08:06:06Z</time>
      </trkpt>
      <trkpt lat="44.84032" lon="5.00945">
        <ele>216.6</ele>
        <time>2019-04-15T08:06:10Z</time>
      </trkpt>
      <trkpt lat="44.83995" lon="5.00952">
        <ele>216.2</ele>
        <time>2019-04-15T08:06:14Z</time>
      </trkpt>
      <trkpt lat="44.83959" lon="5.00958">
        <ele>215.6</ele>
        <time>2019-04-15T08:06:18Z</time>
      </trkpt>
      <trkpt lat="44.83922" lon="5.00964">
        <ele>216.2</ele>
        <time>2019-04-15T08:06:22Z</time>
      </trkpt>
      <trkpt lat="44.83886" lon="5.0097">
        <ele>216.6</ele>
        <time>2019-04-15T08:06:26Z</time>
      </trkpt>
      <trkpt lat="44.83852" lon="5.00974">
        <ele>216.6</ele>
        <time>2019-04-15T08:06:30Z</time>
      </trkpt>
      <trkpt lat="44.83818" lon="5.00977">
        <ele>216.8</ele>
        <time>2019-04-15T08:06:34Z</time>
      </trkpt>
      <trkpt lat="44.83783" lon="5.00977">
        <ele>216.8</ele>
        <time>2019-04-15T08:06:38Z</time>
      </trkpt>
      <trkpt lat="44.83749" lon="5.00977">
        <ele>216.4</ele>
        <time>2019-04-15T08:06:42Z</time>
      </trkpt>
      <trkpt lat="44.83715" lon="5.00976">
        <ele>216.2</ele>
        <time>2019-04-15T08:06:46Z</time>
      </trkpt>
      <trkpt lat="44.83681" lon="5.00975">
        <ele>216.2</ele>
        <time>2019-04-15T08:06:50Z</time>
      </trkpt>
      <trkpt lat="44.83646" lon="5.00975">
        <ele>216</ele>
        <time>2019-04-15T08:06:54Z</time>
      </trkpt>
      <trkpt lat="44.83612" lon="5.00975">
        <ele>215.6</ele>
        <time>2019-04-15T08:06:58Z</time>
      </trkpt>
      <trkpt lat="44.83577" lon="5.00974">
        <ele>215.8</ele>
        <time>2019-04-15T08:07:02Z</time>
      </trkpt>
      <trkpt lat="44.83543" lon="5.00973">
        <ele>216.2</ele>
        <time>2019-04-15T08:07:06Z</time>
      </trkpt>
      <trkpt lat="44.8351" lon="5.00972">
        <ele>216.8</ele>
        <time>2019-04-15T08:07:10Z</time>
      </trkpt>
      <trkpt lat="44.8348" lon="5.00972">
        <ele>218</ele>
        <time>2019-04-15T08:07:14Z</time>
      </trkpt>
      <trkpt lat="44.8345" lon="5.00972">
        <ele>219</ele>
        <time>2019-04-15T08:07:18Z</time>
      </trkpt>
      <trkpt lat="44.8342" lon="5.00971">
        <ele>219.2</ele>
        <time>2019-04-15T08:07:22Z</time>
      </trkpt>
      <trkpt lat="44.83391" lon="5.00971">
        <ele>220</ele>
        <time>2019-04-15T08:07:26Z</time>
      </trkpt>
      <trkpt lat="44.83363" lon="5.00971">
        <ele>221.4</ele>
        <time>2019-04-15T08:07:30Z</time>
      </trkpt>
      <trkpt lat="44.83334" lon="5.00971">
        <ele>221.6</ele>
        <time>2019-04-15T08:07:34Z</time>
      </trkpt>
      <trkpt lat="44.83304" lon="5.00971">
        <ele>222.2</ele>
        <time>2019-04-15T08:07:38Z</time>
      </trkpt>
      <trkpt lat="44.83274" lon="5.0097">
        <ele>223</ele>
        <time>2019-04-15T08:07:42Z</time>
      </trkpt>
      <trkpt lat="44.83245" lon="5.0097">
        <ele>223.6</ele>
        <time>2019-04-15T08:07:46Z</time>
      </trkpt>
      <trkpt lat="44.83216" lon="5.0097">
        <ele>223.8</ele>
        <time>2019-04-15T08:07:50Z</time>
      </trkpt>
      <trkpt lat="44.83186" lon="5.00969">
        <ele>224.6</ele>
        <time>2019-04-15T08:07:54Z</time>
      </trkpt>
      <trkpt lat="44.83155" lon="5.00969">
        <ele>224</ele>
        <time>2019-04-15T08:07:58Z</time>
      </trkpt>
      <trkpt lat="44.83122" lon="5.00968">
        <ele>223</ele>
        <time>2019-04-15T08:08:02Z</time>
      </trkpt>
      <trkpt lat="44.83089" lon="5.00967">
        <ele>222.6</ele>
        <time>2019-04-15T08:08:06Z</time>
      </trkpt>
      <trkpt lat="44.83055" lon="5.00967">
        <ele>222.4</ele>
        <time>2019-04-15T08:08:10Z</time>
      </trkpt>
      <trkpt lat="44.8302" lon="5.00966">
        <ele>222</ele>
        <time>2019-04-15T08:08:14Z</time>
      </trkpt>
      <trkpt lat="44.82985" lon="5.00965">
        <ele>221.6</ele>
        <time>2019-04-15T08:08:18Z</time>
      </trkpt>
      <trkpt lat="44.82949" lon="5.00965">
        <ele>221.2</ele>
        <time>2019-04-15T08:08:22Z</time>
      </trkpt>
      <trkpt lat="44.82912" lon="5.00964">
        <ele>220.4</ele>
        <time>2019-04-15T08:08:26Z</time>
      </trkpt>
      <trkpt lat="44.82877" lon="5.00964">
        <ele>221.2</ele>
        <time>2019-04-15T08:08:30Z</time>
      </trkpt>
      <trkpt lat="44.82844" lon="5.00964">
        <ele>222</ele>
        <time>2019-04-15T08:08:34Z</time>
      </trkpt>
      <trkpt lat="44.82813" lon="5.00963">
        <ele>222.8</ele>
        <time>2019-04-15T08:08:38Z</time>
      </trkpt>
      <trkpt lat="44.82783" lon="5.00963">
        <ele>222.8</ele>
        <time>2019-04-15T08:08:42Z</time>
      </trkpt>
      <trkpt lat="44.82753" lon="5.00962">
        <ele>223.2</ele>
        <time>2019-04-15T08:08:46Z</time>
      </trkpt>
      <trkpt lat="44.82723" lon="5.00962">
        <ele>224.2</ele>
        <time>2019-04-15T08:08:50Z</time>
      </trkpt>
      <trkpt lat="44.82692" lon="5.00962">
        <ele>224.2</ele>
        <time>2019-04-15T08:08:54Z</time>
      </trkpt>
      <trkpt lat="44.82662" lon="5.00961">
        <ele>225</ele>
        <time>2019-04-15T08:08:58Z</time>
      </trkpt>
      <trkpt lat="44.82632" lon="5.00961">
        <ele>226.4</ele>
        <time>2019-04-15T08:09:02Z</time>
      </trkpt>
      <trkpt lat="44.82603" lon="5.00961">
        <ele>227</ele>
        <time>2019-04-15T08:09:06Z</time>
      </trkpt>
      <trkpt lat="44.82575" lon="5.0096">
        <ele>228.2</ele>
        <time>2019-04-15T08:09:10Z</time>
      </trkpt>
      <trkpt lat="44.82548" lon="5.0096">
        <ele>229.2</ele>
        <time>2019-04-15T08:09:14Z</time>
      </trkpt>
      <trkpt lat="44.82521" lon="5.00959">
        <ele>229.8</ele>
        <time>2019-04-15T08:09:18Z</time>
      </trkpt>
      <trkpt lat="44.82495" lon="5.00959">
        <ele>230.6</ele>
        <time>2019-04-15T08:09:22Z</time>
      </trkpt>
      <trkpt lat="44.82468" lon="5.00958">
        <ele>232.2</ele>
        <time>2019-04-15T08:09:26Z</time>
      </trkpt>
      <trkpt lat="44.82442" lon="5.00959">
        <ele>232.4</ele>
        <time>2019-04-15T08:09:30Z</time>
      </trkpt>
      <trkpt lat="44.82416" lon="5.00962">
        <ele>233.4</ele>
        <time>2019-04-15T08:09:34Z</time>
      </trkpt>
      <trkpt lat="44.8239" lon="5.00967">
        <ele>233.8</ele>
        <time>2019-04-15T08:09:38Z</time>
      </trkpt>
      <trkpt lat="44.82363" lon="5.00973">
        <ele>234.6</ele>
        <time>2019-04-15T08:09:42Z</time>
      </trkpt>
      <trkpt lat="44.82337" lon="5.00979">
        <ele>235.4</ele>
        <time>2019-04-15T08:09:46Z</time>
      </trkpt>
      <trkpt lat="44.82311" lon="5.00984">
        <ele>236</ele>
        <time>2019-04-15T08:09:50Z</time>
      </trkpt>
      <trkpt lat="44.82284" lon="5.0099">
        <ele>236.8</ele>
        <time>2019-04-15T08:09:54Z</time>
      </trkpt>
      <trkpt lat="44.82258" lon="5.00996">
        <ele>237.8</ele>
        <time>2019-04-15T08:09:58Z</time>
      </trkpt>
      <trkpt lat="44.82232" lon="5.01002">
        <ele>238.4</ele>
        <time>2019-04-15T08:10:02Z</time>
      </trkpt>
      <trkpt lat="44.82207" lon="5.01007">
        <ele>238.6</ele>
        <time>2019-04-15T08:10:06Z</time>
      </trkpt>
      <trkpt lat="44.82181" lon="5.01013">
        <ele>239.4</ele>
        <time>2019-04-15T08:10:10Z</time>
      </trkpt>
      <trkpt lat="44.82156" lon="5.01018">
        <ele>240.2</ele>
        <time>2019-04-15T08:10:14Z</time>
      </trkpt>
      <trkpt lat="44.8213" lon="5.01024">
        <ele>240.8</ele>
        <time>2019-04-15T08:10:18Z</time>
      </trkpt>
      <trkpt lat="44.82105" lon="5.01031">
        <ele>242.4</ele>
        <time>2019-04-15T08:10:22Z</time>
      </trkpt>
      <trkpt lat="44.8208" lon="5.01043">
        <ele>243</ele>
        <time>2019-04-15T08:10:26Z</time>
      </trkpt>
      <trkpt lat="44.82056" lon="5.01057">
        <ele>244.4</ele>
        <time>2019-04-15T08:10:30Z</time>
      </trkpt>
      <trkpt lat="44.82033" lon="5.01071">
        <ele>244.6</ele>
        <time>2019-04-15T08:10:34Z</time>
      </trkpt>
      <trkpt lat="44.82008" lon="5.01085">
        <ele>244.4</ele>
        <time>2019-04-15T08:10:38Z</time>
      </trkpt>
      <trkpt lat="44.81981" lon="5.01089">
        <ele>245</ele>
        <time>2019-04-15T08:10:42Z</time>
      </trkpt>
      <trkpt lat="44.81959" lon="5.01067">
        <ele>245.2</ele>
        <time>2019-04-15T08:10:46Z</time>
      </trkpt>
      <trkpt lat="44.81937" lon="5.01046">
        <ele>245.4</ele>
        <time>2019-04-15T08:10:50Z</time>
      </trkpt>
      <trkpt lat="44.8191" lon="5.01057">
        <ele>245.6</ele>
        <time>2019-04-15T08:10:54Z</time>
      </trkpt>
      <trkpt lat="44.81882" lon="5.01066">
        <ele>245.6</ele>
        <time>2019-04-15T08:10:58Z</time>
      </trkpt>
      <trkpt lat="44.81855" lon="5.01076">
        <ele>245.8</ele>
        <time>2019-04-15T08:11:02Z</time>
      </trkpt>
      <trkpt lat="44.81828" lon="5.01086">
        <ele>246</ele>
        <time>2019-04-15T08:11:06Z</time>
      </trkpt>
      <trkpt lat="44.81801" lon="5.01095">
        <ele>246.6</ele>
        <time>2019-04-15T08:11:10Z</time>
      </trkpt>
      <trkpt lat="44.81773" lon="5.01102">
        <ele>247.2</ele>
        <time>2019-04-15T08:11:14Z</time>
      </trkpt>
      <trkpt lat="44.81745" lon="5.01108">
        <ele>247.2</ele>
        <time>2019-04-15T08:11:18Z</time>
      </trkpt>
      <trkpt lat="44.81717" lon="5.01114">
        <ele>247</ele>
        <time>2019-04-15T08:11:22Z</time>
      </trkpt>
      <trkpt lat="44.81689" lon="5.0112">
        <ele>247.6</ele>
        <time>2019-04-15T08:11:26Z</time>
      </trkpt>
      <trkpt lat="44.8166" lon="5.01126">
        <ele>247.4</ele>
        <time>2019-04-15T08:11:30Z</time>
      </trkpt>
      <trkpt lat="44.81631" lon="5.01131">
        <ele>248</ele>
        <time>2019-04-15T08:11:34Z</time>
      </trkpt>
      <trkpt lat="44.81603" lon="5.01137">
        <ele>248</ele>
        <time>2019-04-15T08:11:38Z</time>
      </trkpt>
      <trkpt lat="44.81573" lon="5.01144">
        <ele>248</ele>
        <time>2019-04-15T08:11:42Z</time>
      </trkpt>
      <trkpt lat="44.81543" lon="5.0115">
        <ele>249</ele>
        <time>2019-04-15T08:11:46Z</time>
      </trkpt>
      <trkpt lat="44.81513" lon="5.01157">
        <ele>248.4</ele>
        <time>2019-04-15T08:11:50Z</time>
      </trkpt>
      <trkpt lat="44.81482" lon="5.01164">
        <ele>248.4</ele>
        <time>2019-04-15T08:11:54Z</time>
      </trkpt>
      <trkpt lat="44.8145" lon="5.01171">
        <ele>248.2</ele>
        <time>2019-04-15T08:11:58Z</time>
      </trkpt>
      <trkpt lat="44.81418" lon="5.01178">
        <ele>249</ele>
        <time>2019-04-15T08:12:02Z</time>
      </trkpt>
      <trkpt lat="44.81385" lon="5.01185">
        <ele>249</ele>
        <time>2019-04-15T08:12:06Z</time>
      </trkpt>
      <trkpt lat="44.81354" lon="5.01192">
        <ele>249.4</ele>
        <time>2019-04-15T08:12:10Z</time>
      </trkpt>
      <trkpt lat="44.81323" lon="5.01199">
        <ele>249.8</ele>
        <time>2019-04-15T08:12:14Z</time>
      </trkpt>
      <trkpt lat="44.81293" lon="5.01206">
        <ele>250.2</ele>
        <time>2019-04-15T08:12:18Z</time>
      </trkpt>
      <trkpt lat="44.81263" lon="5.01213">
        <ele>250.6</ele>
        <time>2019-04-15T08:12:22Z</time>
      </trkpt>
      <trkpt lat="44.81234" lon="5.0122">
        <ele>251.6</ele>
        <time>2019-04-15T08:12:26Z</time>
      </trkpt>
      <trkpt lat="44.81206" lon="5.01226">
        <ele>252.2</ele>
        <time>2019-04-15T08:12:30Z</time>
      </trkpt>
      <trkpt lat="44.81177" lon="5.01232">
        <ele>252.8</ele>
        <time>2019-04-15T08:12:34Z</time>
      </trkpt>
      <trkpt lat="44.81149" lon="5.01238">
        <ele>253</ele>
        <time>2019-04-15T08:12:38Z</time>
      </trkpt>
      <trkpt lat="44.8112" lon="5.01243">
        <ele>253.6</ele>
        <time>2019-04-15T08:12:42Z</time>
      </trkpt>
      <trkpt lat="44.81091" lon="5.01244">
        <ele>253.6</ele>
        <time>2019-04-15T08:12:46Z</time>
      </trkpt>
      <trkpt lat="44.81062" lon="5.01243">
        <ele>254.2</ele>
        <time>2019-04-15T08:12:50Z</time>
      </trkpt>
      <trkpt lat="44.81033" lon="5.01242">
        <ele>254.8</ele>
        <time>2019-04-15T08:12:54Z</time>
      </trkpt>
      <trkpt lat="44.81005" lon="5.01241">
        <ele>255.2</ele>
        <time>2019-04-15T08:12:58Z</time>
      </trkpt>
      <trkpt lat="44.80976" lon="5.01239">
        <ele>255.8</ele>
        <time>2019-04-15T08:13:02Z</time>
      </trkpt>
      <trkpt lat="44.80947" lon="5.01238">
        <ele>256.2</ele>
        <time>2019-04-15T08:13:06Z</time>
      </trkpt>
      <trkpt lat="44.80919" lon="5.01239">
        <ele>256.6</ele>
        <time>2019-04-15T08:13:10Z</time>
      </trkpt>
      <trkpt lat="44.8089" lon="5.01247">
        <ele>257.4</ele>
        <time>2019-04-15T08:13:14Z</time>
      </trkpt>
      <trkpt lat="44.80862" lon="5.01259">
        <ele>257.6</ele>
        <time>2019-04-15T08:13:18Z</time>
      </trkpt>
      <trkpt lat="44.80835" lon="5.01272">
        <ele>259.6</ele>
        <time>2019-04-15T08:13:22Z</time>
      </trkpt>
      <trkpt lat="44.80807" lon="5.01285">
        <ele>258.4</ele>
        <time>2019-04-15T08:13:26Z</time>
      </trkpt>
      <trkpt lat="44.8078" lon="5.01298">
        <ele>259.4</ele>
        <time>2019-04-15T08:13:30Z</time>
      </trkpt>
      <trkpt lat="44.80753" lon="5.01311">
        <ele>259</ele>
        <time>2019-04-15T08:13:34Z</time>
      </trkpt>
      <trkpt lat="44.80725" lon="5.01324">
        <ele>259.8</ele>
        <time>2019-04-15T08:13:38Z</time>
      </trkpt>
      <trkpt lat="44.80696" lon="5.01337">
        <ele>259.8</ele>
        <time>2019-04-15T08:13:42Z</time>
      </trkpt>
      <trkpt lat="44.80667" lon="5.01351">
        <ele>260.4</ele>
        <time>2019-04-15T08:13:46Z</time>
      </trkpt>
      <trkpt lat="44.80638" lon="5.01364">
        <ele>260.4</ele>
        <time>2019-04-15T08:13:50Z</time>
      </trkpt>
      <trkpt lat="44.80609" lon="5.01378">
        <ele>260.4</ele>
        <time>2019-04-15T08:13:54Z</time>
      </trkpt>
      <trkpt lat="44.80581" lon="5.01391">
        <ele>260.4</ele>
        <time>2019-04-15T08:13:58Z</time>
      </trkpt>
      <trkpt lat="44.80552" lon="5.01405">
        <ele>260.8</ele>
        <time>2019-04-15T08:14:02Z</time>
      </trkpt>
      <trkpt lat="44.80522" lon="5.01419">
        <ele>260.8</ele>
        <time>2019-04-15T08:14:06Z</time>
      </trkpt>
      <trkpt lat="44.80493" lon="5.01432">
        <ele>261</ele>
        <time>2019-04-15T08:14:10Z</time>
      </trkpt>
      <trkpt lat="44.80465" lon="5.01446">
        <ele>261.8</ele>
        <time>2019-04-15T08:14:14Z</time>
      </trkpt>
      <trkpt lat="44.80437" lon="5.01459">
        <ele>261.8</ele>
        <time>2019-04-15T08:14:18Z</time>
      </trkpt>
      <trkpt lat="44.80409" lon="5.01472">
        <ele>261.6</ele>
        <time>2019-04-15T08:14:22Z</time>
      </trkpt>
      <trkpt lat="44.8038" lon="5.01486">
        <ele>261.8</ele>
        <time>2019-04-15T08:14:26Z</time>
      </trkpt>
      <trkpt lat="44.80351" lon="5.015">
        <ele>262.2</ele>
        <time>2019-04-15T08:14:30Z</time>
      </trkpt>
      <trkpt lat="44.80322" lon="5.01513">
        <ele>262.4</ele>
        <time>2019-04-15T08:14:34Z</time>
      </trkpt>
      <trkpt lat="44.80294" lon="5.01526">
        <ele>262.6</ele>
        <time>2019-04-15T08:14:38Z</time>
      </trkpt>
      <trkpt lat="44.80267" lon="5.01539">
        <ele>263.2</ele>
        <time>2019-04-15T08:14:42Z</time>
      </trkpt>
      <trkpt lat="44.8024" lon="5.01552">
        <ele>263.4</ele>
        <time>2019-04-15T08:14:46Z</time>
      </trkpt>
      <trkpt lat="44.80214" lon="5.01564">
        <ele>263.6</ele>
        <time>2019-04-15T08:14:50Z</time>
      </trkpt>
      <trkpt lat="44.80188" lon="5.01576">
        <ele>264.4</ele>
        <time>2019-04-15T08:14:54Z</time>
      </trkpt>
      <trkpt lat="44.80163" lon="5.01588">
        <ele>265.2</ele>
        <time>2019-04-15T08:14:58Z</time>
      </trkpt>
      <trkpt lat="44.80138" lon="5.016">
        <ele>265.6</ele>
        <time>2019-04-15T08:15:02Z</time>
      </trkpt>
      <trkpt lat="44.80113" lon="5.01612">
        <ele>265.8</ele>
        <time>2019-04-15T08:15:06Z</time>
      </trkpt>
      <trkpt lat="44.80088" lon="5.01623">
        <ele>266.6</ele>
        <time>2019-04-15T08:15:10Z</time>
      </trkpt>
      <trkpt lat="44.80063" lon="5.01635">
        <ele>267.4</ele>
        <time>2019-04-15T08:15:14Z</time>
      </trkpt>
      <trkpt lat="44.80038" lon="5.01647">
        <ele>267.8</ele>
        <time>2019-04-15T08:15:18Z</time>
      </trkpt>
      <trkpt lat="44.80013" lon="5.01658">
        <ele>268.2</ele>
        <time>2019-04-15T08:15:22Z</time>
      </trkpt>
      <trkpt lat="44.79988" lon="5.0167">
        <ele>269</ele>
        <time>2019-04-15T08:15:26Z</time>
      </trkpt>
      <trkpt lat="44.79962" lon="5.01682">
        <ele>269.4</ele>
        <time>2019-04-15T08:15:30Z</time>
      </trkpt>
      <trkpt lat="44.79938" lon="5.01694">
        <ele>270.6</ele>
        <time>2019-04-15T08:15:34Z</time>
      </trkpt>
      <trkpt lat="44.79914" lon="5.01705">
        <ele>270.6</ele>
        <time>2019-04-15T08:15:38Z</time>
      </trkpt>
      <trkpt lat="44.7989" lon="5.01717">
        <ele>271.2</ele>
        <time>2019-04-15T08:15:42Z</time>
      </trkpt>
      <trkpt lat="44.79866" lon="5.01728">
        <ele>271.4</ele>
        <time>2019-04-15T08:15:46Z</time>
      </trkpt>
      <trkpt lat="44.79841" lon="5.0174">
        <ele>272.2</ele>
        <time>2019-04-15T08:15:50Z</time>
      </trkpt>
      <trkpt lat="44.79816" lon="5.0175">
        <ele>271.8</ele>
        <time>2019-04-15T08:15:54Z</time>
      </trkpt>
      <trkpt lat="44.79792" lon="5.01762">
        <ele>272.2</ele>
        <time>2019-04-15T08:15:58Z</time>
      </trkpt>
      <trkpt lat="44.79767" lon="5.01774">
        <ele>273</ele>
        <time>2019-04-15T08:16:02Z</time>
      </trkpt>
      <trkpt lat="44.79743" lon="5.01785">
        <ele>273.2</ele>
        <time>2019-04-15T08:16:06Z</time>
      </trkpt>
      <trkpt lat="44.79718" lon="5.01797">
        <ele>274.6</ele>
        <time>2019-04-15T08:16:10Z</time>
      </trkpt>
      <trkpt lat="44.79692" lon="5.01809">
        <ele>274.6</ele>
        <time>2019-04-15T08:16:14Z</time>
      </trkpt>
      <trkpt lat="44.79666" lon="5.01821">
        <ele>274.4</ele>
        <time>2019-04-15T08:16:18Z</time>
      </trkpt>
      <trkpt lat="44.7964" lon="5.01833">
        <ele>275.2</ele>
        <time>2019-04-15T08:16:22Z</time>
      </trkpt>
      <trkpt lat="44.79614" lon="5.01846">
        <ele>275.4</ele>
        <time>2019-04-15T08:16:26Z</time>
      </trkpt>
      <trkpt lat="44.79587" lon="5.01858">
        <ele>276</ele>
        <time>2019-04-15T08:16:30Z</time>
      </trkpt>
      <trkpt lat="44.79561" lon="5.0187">
        <ele>276.2</ele>
        <time>2019-04-15T08:16:34Z</time>
      </trkpt>
      <trkpt lat="44.79535" lon="5.01882">
        <ele>277</ele>
        <time>2019-04-15T08:16:38Z</time>
      </trkpt>
      <trkpt lat="44.7951" lon="5.01894">
        <ele>278</ele>
        <time>2019-04-15T08:16:42Z</time>
      </trkpt>
      <trkpt lat="44.79486" lon="5.01906">
        <ele>278.8</ele>
        <time>2019-04-15T08:16:46Z</time>
      </trkpt>
      <trkpt lat="44.79463" lon="5.01921">
        <ele>279.6</ele>
        <time>2019-04-15T08:16:50Z</time>
      </trkpt>
      <trkpt lat="44.79442" lon="5.01937">
        <ele>280.6</ele>
        <time>2019-04-15T08:16:54Z</time>
      </trkpt>
      <trkpt lat="44.7942" lon="5.01954">
        <ele>281</ele>
        <time>2019-04-15T08:16:58Z</time>
      </trkpt>
      <trkpt lat="44.794" lon="5.01975">
        <ele>281</ele>
        <time>2019-04-15T08:17:02Z</time>
      </trkpt>
      <trkpt lat="44.79379" lon="5.01996">
        <ele>281.4</ele>
        <time>2019-04-15T08:17:06Z</time>
      </trkpt>
      <trkpt lat="44.79357" lon="5.02018">
        <ele>280.6</ele>
        <time>2019-04-15T08:17:10Z</time>
      </trkpt>
      <trkpt lat="44.79335" lon="5.0204">
        <ele>281.2</ele>
        <time>2019-04-15T08:17:14Z</time>
      </trkpt>
      <trkpt lat="44.79313" lon="5.02062">
        <ele>281.6</ele>
        <time>2019-04-15T08:17:18Z</time>
      </trkpt>
      <trkpt lat="44.79291" lon="5.02084">
        <ele>281.8</ele>
        <time>2019-04-15T08:17:22Z</time>
      </trkpt>
      <trkpt lat="44.79269" lon="5.02105">
        <ele>281.8</ele>
        <time>2019-04-15T08:17:26Z</time>
      </trkpt>
      <trkpt lat="44.79245" lon="5.02127">
        <ele>281.8</ele>
        <time>2019-04-15T08:17:30Z</time>
      </trkpt>
      <trkpt lat="44.79221" lon="5.02147">
        <ele>282.2</ele>
        <time>2019-04-15T08:17:34Z</time>
      </trkpt>
      <trkpt lat="44.79196" lon="5.02167">
        <ele>282.4</ele>
        <time>2019-04-15T08:17:38Z</time>
      </trkpt>
      <trkpt lat="44.79172" lon="5.02185">
        <ele>282.8</ele>
        <time>2019-04-15T08:17:42Z</time>
      </trkpt>
      <trkpt lat="44.79148" lon="5.02201">
        <ele>283.2</ele>
        <time>2019-04-15T08:17:46Z</time>
      </trkpt>
      <trkpt lat="44.79125" lon="5.02217">
        <ele>283.8</ele>
        <time>2019-04-15T08:17:50Z</time>
      </trkpt>
      <trkpt lat="44.79102" lon="5.02229">
        <ele>285</ele>
        <time>2019-04-15T08:17:54Z</time>
      </trkpt>
      <trkpt lat="44.79079" lon="5.02242">
        <ele>286</ele>
        <time>2019-04-15T08:17:58Z</time>
      </trkpt>
      <trkpt lat="44.79058" lon="5.02254">
        <ele>287.4</ele>
        <time>2019-04-15T08:18:02Z</time>
      </trkpt>
      <trkpt lat="44.79037" lon="5.02263">
        <ele>288.8</ele>
        <time>2019-04-15T08:18:06Z</time>
      </trkpt>
      <trkpt lat="44.79017" lon="5.02273">
        <ele>289.8</ele>
        <time>2019-04-15T08:18:10Z</time>
      </trkpt>
      <trkpt lat="44.78996" lon="5.02282">
        <ele>290.6</ele>
        <time>2019-04-15T08:18:14Z</time>
      </trkpt>
      <trkpt lat="44.78976" lon="5.02291">
        <ele>292</ele>
        <time>2019-04-15T08:18:18Z</time>
      </trkpt>
      <trkpt lat="44.78955" lon="5.02301">
        <ele>292.4</ele>
        <time>2019-04-15T08:18:22Z</time>
      </trkpt>
      <trkpt lat="44.78933" lon="5.02311">
        <ele>292.8</ele>
        <time>2019-04-15T08:18:26Z</time>
      </trkpt>
      <trkpt lat="44.78911" lon="5.02322">
        <ele>292.8</ele>
        <time>2019-04-15T08:18:30Z</time>
      </trkpt>
      <trkpt lat="44.78889" lon="5.02333">
        <ele>293</ele>
        <time>2019-04-15T08:18:34Z</time>
      </trkpt>
      <trkpt lat="44.78865" lon="5.02344">
        <ele>292.8</ele>
        <time>2019-04-15T08:18:38Z</time>
      </trkpt>
      <trkpt lat="44.78839" lon="5.02356">
        <ele>292.8</ele>
        <time>2019-04-15T08:18:42Z</time>
      </trkpt>
      <trkpt lat="44.78812" lon="5.02368">
        <ele>292.2</ele>
        <time>2019-04-15T08:18:46Z</time>
      </trkpt>
      <trkpt lat="44.78783" lon="5.02379">
        <ele>291.8</ele>
        <time>2019-04-15T08:18:50Z</time>
      </trkpt>
      <trkpt lat="44.78752" lon="5.02388">
        <ele>290.8</ele>
        <time>2019-04-15T08:18:54Z</time>
      </trkpt>
      <trkpt lat="44.78716" lon="5.02393">
        <ele>288.8</ele>
        <time>2019-04-15T08:18:58Z</time>
      </trkpt>
      <trkpt lat="44.7868" lon="5.02398">
        <ele>286.8</ele>
        <time>2019-04-15T08:19:02Z</time>
      </trkpt>
      <trkpt lat="44.78642" lon="5.02405">
        <ele>285.4</ele>
        <time>2019-04-15T08:19:06Z</time>
      </trkpt>
      <trkpt lat="44.786" lon="5.02414">
        <ele>284.4</ele>
        <time>2019-04-15T08:19:10Z</time>
      </trkpt>
      <trkpt lat="44.78561" lon="5.0243">
        <ele>283.8</ele>
        <time>2019-04-15T08:19:14Z</time>
      </trkpt>
      <trkpt lat="44.78522" lon="5.02438">
        <ele>283.2</ele>
        <time>2019-04-15T08:19:18Z</time>
      </trkpt>
      <trkpt lat="44.78483" lon="5.02438">
        <ele>282.2</ele>
        <time>2019-04-15T08:19:22Z</time>
      </trkpt>
      <trkpt lat="44.78444" lon="5.02435">
        <ele>281.2</ele>
        <time>2019-04-15T08:19:26Z</time>
      </trkpt>
      <trkpt lat="44.78405" lon="5.02431">
        <ele>279.2</ele>
        <time>2019-04-15T08:19:30Z</time>
      </trkpt>
      <trkpt lat="44.78366" lon="5.02425">
        <ele>278.2</ele>
        <time>2019-04-15T08:19:34Z</time>
      </trkpt>
      <trkpt lat="44.78328" lon="5.02413">
        <ele>277.6</ele>
        <time>2019-04-15T08:19:38Z</time>
      </trkpt>
      <trkpt lat="44.78293" lon="5.02395">
        <ele>277.8</ele>
        <time>2019-04-15T08:19:42Z</time>
      </trkpt>
      <trkpt lat="44.78259" lon="5.02376">
        <ele>278</ele>
        <time>2019-04-15T08:19:46Z</time>
      </trkpt>
      <trkpt lat="44.78227" lon="5.02356">
        <ele>277.8</ele>
        <time>2019-04-15T08:19:50Z</time>
      </trkpt>
      <trkpt lat="44.78196" lon="5.02336">
        <ele>277.8</ele>
        <time>2019-04-15T08:19:54Z</time>
      </trkpt>
      <trkpt lat="44.78165" lon="5.02317">
        <ele>277</ele>
        <time>2019-04-15T08:19:58Z</time>
      </trkpt>
      <trkpt lat="44.78133" lon="5.02298">
        <ele>276.8</ele>
        <time>2019-04-15T08:20:02Z</time>
      </trkpt>
      <trkpt lat="44.78101" lon="5.0228">
        <ele>277.2</ele>
        <time>2019-04-15T08:20:06Z</time>
      </trkpt>
      <trkpt lat="44.7807" lon="5.0226">
        <ele>275.8</ele>
        <time>2019-04-15T08:20:10Z</time>
      </trkpt>
      <trkpt lat="44.78039" lon="5.02241">
        <ele>276</ele>
        <time>2019-04-15T08:20:14Z</time>
      </trkpt>
      <trkpt lat="44.78006" lon="5.02222">
        <ele>275.4</ele>
        <time>2019-04-15T08:20:18Z</time>
      </trkpt>
      <trkpt lat="44.77972" lon="5.02204">
        <ele>275.4</ele>
        <time>2019-04-15T08:20:22Z</time>
      </trkpt>
      <trkpt lat="44.77937" lon="5.02188">
        <ele>275.4</ele>
        <time>2019-04-15T08:20:26Z</time>
      </trkpt>
      <trkpt lat="44.77902" lon="5.0218">
        <ele>275.8</ele>
        <time>2019-04-15T08:20:30Z</time>
      </trkpt>
      <trkpt lat="44.77868" lon="5.02175">
        <ele>275.4</ele>
        <time>2019-04-15T08:20:34Z</time>
      </trkpt>
      <trkpt lat="44.77835" lon="5.02173">
        <ele>274.8</ele>
        <time>2019-04-15T08:20:38Z</time>
      </trkpt>
      <trkpt lat="44.778" lon="5.02171">
        <ele>273.4</ele>
        <time>2019-04-15T08:20:42Z</time>
      </trkpt>
      <trkpt lat="44.77761" lon="5.0217">
        <ele>271.6</ele>
        <time>2019-04-15T08:20:46Z</time>
      </trkpt>
      <trkpt lat="44.77717" lon="5.02169">
        <ele>268.8</ele>
        <time>2019-04-15T08:20:50Z</time>
      </trkpt>
      <trkpt lat="44.77671" lon="5.02169">
        <ele>266.4</ele>
        <time>2019-04-15T08:20:54Z</time>
      </trkpt>
      <trkpt lat="44.77624" lon="5.0217">
        <ele>267.8</ele>
        <time>2019-04-15T08:20:58Z</time>
      </trkpt>
      <trkpt lat="44.77579" lon="5.02175">
        <ele>264.6</ele>
        <time>2019-04-15T08:21:02Z</time>
      </trkpt>
      <trkpt lat="44.77536" lon="5.02188">
        <ele>263.6</ele>
        <time>2019-04-15T08:21:06Z</time>
      </trkpt>
      <trkpt lat="44.77495" lon="5.02203">
        <ele>262.8</ele>
        <time>2019-04-15T08:21:10Z</time>
      </trkpt>
      <trkpt lat="44.77456" lon="5.0222">
        <ele>261.6</ele>
        <time>2019-04-15T08:21:14Z</time>
      </trkpt>
      <trkpt lat="44.77428" lon="5.02234">
        <ele>261.2</ele>
        <time>2019-04-15T08:21:18Z</time>
      </trkpt>
      <trkpt lat="44.77412" lon="5.02237">
        <ele>261</ele>
        <time>2019-04-15T08:21:22Z</time>
      </trkpt>
      <trkpt lat="44.77398" lon="5.0223">
        <ele>261.2</ele>
        <time>2019-04-15T08:21:26Z</time>
      </trkpt>
      <trkpt lat="44.77375" lon="5.02236">
        <ele>260.6</ele>
        <time>2019-04-15T08:21:30Z</time>
      </trkpt>
      <trkpt lat="44.77348" lon="5.02252">
        <ele>260.6</ele>
        <time>2019-04-15T08:21:34Z</time>
      </trkpt>
      <trkpt lat="44.77316" lon="5.02257">
        <ele>260.2</ele>
        <time>2019-04-15T08:21:38Z</time>
      </trkpt>
      <trkpt lat="44.77281" lon="5.02262">
        <ele>260.2</ele>
        <time>2019-04-15T08:21:42Z</time>
      </trkpt>
      <trkpt lat="44.77244" lon="5.02264">
        <ele>258.6</ele>
        <time>2019-04-15T08:21:46Z</time>
      </trkpt>
      <trkpt lat="44.77205" lon="5.02265">
        <ele>257.8</ele>
        <time>2019-04-15T08:21:50Z</time>
      </trkpt>
      <trkpt lat="44.77165" lon="5.02265">
        <ele>257.2</ele>
        <time>2019-04-15T08:21:54Z</time>
      </trkpt>
      <trkpt lat="44.77123" lon="5.02265">
        <ele>255.8</ele>
        <time>2019-04-15T08:21:58Z</time>
      </trkpt>
      <trkpt lat="44.77081" lon="5.02266">
        <ele>255.4</ele>
        <time>2019-04-15T08:22:02Z</time>
      </trkpt>
      <trkpt lat="44.7704" lon="5.02267">
        <ele>255</ele>
        <time>2019-04-15T08:22:06Z</time>
      </trkpt>
      <trkpt lat="44.77" lon="5.02268">
        <ele>254.8</ele>
        <time>2019-04-15T08:22:10Z</time>
      </trkpt>
      <trkpt lat="44.76961" lon="5.02268">
        <ele>254.2</ele>
        <time>2019-04-15T08:22:14Z</time>
      </trkpt>
      <trkpt lat="44.76923" lon="5.02269">
        <ele>253.6</ele>
        <time>2019-04-15T08:22:18Z</time>
      </trkpt>
      <trkpt lat="44.76884" lon="5.02269">
        <ele>253.2</ele>
        <time>2019-04-15T08:22:22Z</time>
      </trkpt>
      <trkpt lat="44.76845" lon="5.0227">
        <ele>252.2</ele>
        <time>2019-04-15T08:22:26Z</time>
      </trkpt>
      <trkpt lat="44.76805" lon="5.0227">
        <ele>250.6</ele>
        <time>2019-04-15T08:22:30Z</time>
      </trkpt>
      <trkpt lat="44.76764" lon="5.02271">
        <ele>249.8</ele>
        <time>2019-04-15T08:22:34Z</time>
      </trkpt>
      <trkpt lat="44.76723" lon="5.02272">
        <ele>249</ele>
        <time>2019-04-15T08:22:38Z</time>
      </trkpt>
      <trkpt lat="44.76683" lon="5.02272">
        <ele>248.8</ele>
        <time>2019-04-15T08:22:42Z</time>
      </trkpt>
      <trkpt lat="44.76644" lon="5.02266">
        <ele>248.6</ele>
        <time>2019-04-15T08:22:46Z</time>
      </trkpt>
      <trkpt lat="44.76606" lon="5.02256">
        <ele>248.2</ele>
        <time>2019-04-15T08:22:50Z</time>
      </trkpt>
      <trkpt lat="44.76569" lon="5.02246">
        <ele>248</ele>
        <time>2019-04-15T08:22:54Z</time>
      </trkpt>
      <trkpt lat="44.76531" lon="5.02236">
        <ele>247.4</ele>
        <time>2019-04-15T08:22:58Z</time>
      </trkpt>
      <trkpt lat="44.76494" lon="5.02218">
        <ele>246.2</ele>
        <time>2019-04-15T08:23:02Z</time>
      </trkpt>
      <trkpt lat="44.76459" lon="5.02196">
        <ele>246.2</ele>
        <time>2019-04-15T08:23:06Z</time>
      </trkpt>
      <trkpt lat="44.76425" lon="5.02171">
        <ele>245.6</ele>
        <time>2019-04-15T08:23:10Z</time>
      </trkpt>
      <trkpt lat="44.76391" lon="5.02148">
        <ele>244.8</ele>
        <time>2019-04-15T08:23:14Z</time>
      </trkpt>
      <trkpt lat="44.76355" lon="5.02129">
        <ele>244.2</ele>
        <time>2019-04-15T08:23:18Z</time>
      </trkpt>
      <trkpt lat="44.76319" lon="5.02115">
        <ele>243.6</ele>
        <time>2019-04-15T08:23:22Z</time>
      </trkpt>
      <trkpt lat="44.76283" lon="5.02103">
        <ele>243</ele>
        <time>2019-04-15T08:23:26Z</time>
      </trkpt>
      <trkpt lat="44.76246" lon="5.0209">
        <ele>242.4</ele>
        <time>2019-04-15T08:23:30Z</time>
      </trkpt>
      <trkpt lat="44.7621" lon="5.02071">
        <ele>240.8</ele>
        <time>2019-04-15T08:23:34Z</time>
      </trkpt>
      <trkpt lat="44.76175" lon="5.02044">
        <ele>239.2</ele>
        <time>2019-04-15T08:23:38Z</time>
      </trkpt>
      <trkpt lat="44.76139" lon="5.02016">
        <ele>238.2</ele>
        <time>2019-04-15T08:23:42Z</time>
      </trkpt>
      <trkpt lat="44.76102" lon="5.01988">
        <ele>236.6</ele>
        <time>2019-04-15T08:23:46Z</time>
      </trkpt>
      <trkpt lat="44.76064" lon="5.01959">
        <ele>234.6</ele>
        <time>2019-04-15T08:23:50Z</time>
      </trkpt>
      <trkpt lat="44.76025" lon="5.0193">
        <ele>233.8</ele>
        <time>2019-04-15T08:23:54Z</time>
      </trkpt>
      <trkpt lat="44.75987" lon="5.01901">
        <ele>232</ele>
        <time>2019-04-15T08:23:58Z</time>
      </trkpt>
      <trkpt lat="44.75948" lon="5.01872">
        <ele>231.2</ele>
        <time>2019-04-15T08:24:02Z</time>
      </trkpt>
      <trkpt lat="44.7591" lon="5.01843">
        <ele>230.4</ele>
        <time>2019-04-15T08:24:06Z</time>
      </trkpt>
      <trkpt lat="44.75873" lon="5.01815">
        <ele>230.6</ele>
        <time>2019-04-15T08:24:10Z</time>
      </trkpt>
      <trkpt lat="44.75838" lon="5.01789">
        <ele>231</ele>
        <time>2019-04-15T08:24:14Z</time>
      </trkpt>
      <trkpt lat="44.75804" lon="5.01764">
        <ele>231.2</ele>
        <time>2019-04-15T08:24:18Z</time>
      </trkpt>
      <trkpt lat="44.75771" lon="5.0174">
        <ele>231.2</ele>
        <time>2019-04-15T08:24:22Z</time>
      </trkpt>
      <trkpt lat="44.75738" lon="5.01716">
        <ele>232</ele>
        <time>2019-04-15T08:24:26Z</time>
      </trkpt>
      <trkpt lat="44.75707" lon="5.01693">
        <ele>232.2</ele>
        <time>2019-04-15T08:24:30Z</time>
      </trkpt>
      <trkpt lat="44.75677" lon="5.01671">
        <ele>235.2</ele>
        <time>2019-04-15T08:24:34Z</time>
      </trkpt>
      <trkpt lat="44.75648" lon="5.01652">
        <ele>234.6</ele>
        <time>2019-04-15T08:24:38Z</time>
      </trkpt>
      <trkpt lat="44.75617" lon="5.01636">
        <ele>233.8</ele>
        <time>2019-04-15T08:24:42Z</time>
      </trkpt>
      <trkpt lat="44.75584" lon="5.01626">
        <ele>236.6</ele>
        <time>2019-04-15T08:24:46Z</time>
      </trkpt>
      <trkpt lat="44.75549" lon="5.01617">
        <ele>233.6</ele>
        <time>2019-04-15T08:24:50Z</time>
      </trkpt>
      <trkpt lat="44.75511" lon="5.01609">
        <ele>232.4</ele>
        <time>2019-04-15T08:24:54Z</time>
      </trkpt>
      <trkpt lat="44.75471" lon="5.016">
        <ele>231.8</ele>
        <time>2019-04-15T08:24:58Z</time>
      </trkpt>
      <trkpt lat="44.7543" lon="5.01592">
        <ele>229.4</ele>
        <time>2019-04-15T08:25:02Z</time>
      </trkpt>
      <trkpt lat="44.75387" lon="5.01584">
        <ele>227.2</ele>
        <time>2019-04-15T08:25:06Z</time>
      </trkpt>
      <trkpt lat="44.75343" lon="5.01575">
        <ele>224.8</ele>
        <time>2019-04-15T08:25:10Z</time>
      </trkpt>
      <trkpt lat="44.75297" lon="5.01567">
        <ele>223</ele>
        <time>2019-04-15T08:25:14Z</time>
      </trkpt>
      <trkpt lat="44.75249" lon="5.01558">
        <ele>219.8</ele>
        <time>2019-04-15T08:25:18Z</time>
      </trkpt>
      <trkpt lat="44.752" lon="5.0155">
        <ele>217.4</ele>
        <time>2019-04-15T08:25:22Z</time>
      </trkpt>
      <trkpt lat="44.75151" lon="5.01541">
        <ele>216</ele>
        <time>2019-04-15T08:25:26Z</time>
      </trkpt>
      <trkpt lat="44.75105" lon="5.01521">
        <ele>215.2</ele>
        <time>2019-04-15T08:25:30Z</time>
      </trkpt>
      <trkpt lat="44.75063" lon="5.0149">
        <ele>215</ele>
        <time>2019-04-15T08:25:34Z</time>
      </trkpt>
      <trkpt lat="44.75029" lon="5.01451">
        <ele>215.2</ele>
        <time>2019-04-15T08:25:38Z</time>
      </trkpt>
      <trkpt lat="44.74997" lon="5.01412">
        <ele>214.2</ele>
        <time>2019-04-15T08:25:42Z</time>
      </trkpt>
      <trkpt lat="44.74967" lon="5.01374">
        <ele>213.4</ele>
        <time>2019-04-15T08:25:46Z</time>
      </trkpt>
      <trkpt lat="44.74936" lon="5.01335">
        <ele>212.2</ele>
        <time>2019-04-15T08:25:50Z</time>
      </trkpt>
      <trkpt lat="44.74903" lon="5.01295">
        <ele>211</ele>
        <time>2019-04-15T08:25:54Z</time>
      </trkpt>
      <trkpt lat="44.74869" lon="5.01254">
        <ele>209.2</ele>
        <time>2019-04-15T08:25:58Z</time>
      </trkpt>
      <trkpt lat="44.74835" lon="5.01213">
        <ele>208</ele>
        <time>2019-04-15T08:26:02Z</time>
      </trkpt>
      <trkpt lat="44.74801" lon="5.01172">
        <ele>207</ele>
        <time>2019-04-15T08:26:06Z</time>
      </trkpt>
      <trkpt lat="44.74767" lon="5.0113">
        <ele>205</ele>
        <time>2019-04-15T08:26:10Z</time>
      </trkpt>
      <trkpt lat="44.74733" lon="5.01089">
        <ele>203.6</ele>
        <time>2019-04-15T08:26:14Z</time>
      </trkpt>
      <trkpt lat="44.74699" lon="5.01048">
        <ele>202.6</ele>
        <time>2019-04-15T08:26:18Z</time>
      </trkpt>
      <trkpt lat="44.74666" lon="5.01009">
        <ele>202.4</ele>
        <time>2019-04-15T08:26:22Z</time>
      </trkpt>
      <trkpt lat="44.74634" lon="5.00971">
        <ele>202</ele>
        <time>2019-04-15T08:26:26Z</time>
      </trkpt>
      <trkpt lat="44.74602" lon="5.00937">
        <ele>201.4</ele>
        <time>2019-04-15T08:26:30Z</time>
      </trkpt>
      <trkpt lat="44.74568" lon="5.00909">
        <ele>201</ele>
        <time>2019-04-15T08:26:34Z</time>
      </trkpt>
      <trkpt lat="44.74533" lon="5.00883">
        <ele>201</ele>
        <time>2019-04-15T08:26:38Z</time>
      </trkpt>
      <trkpt lat="44.74497" lon="5.00862">
        <ele>201</ele>
        <time>2019-04-15T08:26:42Z</time>
      </trkpt>
      <trkpt lat="44.74458" lon="5.00846">
        <ele>200.8</ele>
        <time>2019-04-15T08:26:46Z</time>
      </trkpt>
      <trkpt lat="44.74421" lon="5.00833">
        <ele>201</ele>
        <time>2019-04-15T08:26:50Z</time>
      </trkpt>
      <trkpt lat="44.74383" lon="5.00821">
        <ele>199.6</ele>
        <time>2019-04-15T08:26:54Z</time>
      </trkpt>
      <trkpt lat="44.74348" lon="5.00802">
        <ele>199.4</ele>
        <time>2019-04-15T08:26:58Z</time>
      </trkpt>
      <trkpt lat="44.74313" lon="5.00779">
        <ele>199.4</ele>
        <time>2019-04-15T08:27:02Z</time>
      </trkpt>
      <trkpt lat="44.74279" lon="5.00752">
        <ele>198.4</ele>
        <time>2019-04-15T08:27:06Z</time>
      </trkpt>
      <trkpt lat="44.74244" lon="5.00725">
        <ele>198.4</ele>
        <time>2019-04-15T08:27:10Z</time>
      </trkpt>
      <trkpt lat="44.74211" lon="5.00699">
        <ele>198</ele>
        <time>2019-04-15T08:27:14Z</time>
      </trkpt>
      <trkpt lat="44.74178" lon="5.00674">
        <ele>197.4</ele>
        <time>2019-04-15T08:27:18Z</time>
      </trkpt>
      <trkpt lat="44.74146" lon="5.00649">
        <ele>196.6</ele>
        <time>2019-04-15T08:27:22Z</time>
      </trkpt>
      <trkpt lat="44.74113" lon="5.00624">
        <ele>196</ele>
        <time>2019-04-15T08:27:26Z</time>
      </trkpt>
      <trkpt lat="44.74081" lon="5.00599">
        <ele>195.4</ele>
        <time>2019-04-15T08:27:30Z</time>
      </trkpt>
      <trkpt lat="44.74051" lon="5.00574">
        <ele>195.4</ele>
        <time>2019-04-15T08:27:34Z</time>
      </trkpt>
      <trkpt lat="44.7402" lon="5.00551">
        <ele>194.4</ele>
        <time>2019-04-15T08:27:38Z</time>
      </trkpt>
      <trkpt lat="44.73988" lon="5.00528">
        <ele>193.8</ele>
        <time>2019-04-15T08:27:42Z</time>
      </trkpt>
      <trkpt lat="44.73957" lon="5.005">
        <ele>192.8</ele>
        <time>2019-04-15T08:27:46Z</time>
      </trkpt>
      <trkpt lat="44.73928" lon="5.00469">
        <ele>192.8</ele>
        <time>2019-04-15T08:27:50Z</time>
      </trkpt>
      <trkpt lat="44.73913" lon="5.00428">
        <ele>192.4</ele>
        <time>2019-04-15T08:27:54Z</time>
      </trkpt>
      <trkpt lat="44.73902" lon="5.00388">
        <ele>192</ele>
        <time>2019-04-15T08:27:58Z</time>
      </trkpt>
      <trkpt lat="44.73883" lon="5.00376">
        <ele>182.6</ele>
        <time>2019-04-15T08:28:02Z</time>
      </trkpt>
      <trkpt lat="44.73866" lon="5.00394">
        <ele>183.2</ele>
        <time>2019-04-15T08:31:10Z</time>
      </trkpt>
      <trkpt lat="44.73861" lon="5.00423">
        <ele>191.6</ele>
        <time>2019-04-15T08:31:14Z</time>
      </trkpt>
      <trkpt lat="44.73873" lon="5.00444">
        <ele>184</ele>
      </trkpt>
      <trkpt lat="44.73869" lon="5.00464">
        <ele>183.1</ele>
        <time>2019-04-15T08:31:18Z</time>
      </trkpt>
      <trkpt lat="44.73936" lon="5.00369">
        <ele>183</ele>
      </trkpt>
      <trkpt lat="44.73847" lon="5.00489">
        <ele>191</ele>
        <time>2019-04-15T08:31:22Z</time>
      </trkpt>
      <trkpt lat="44.73824" lon="5.00516">
        <ele>190.8</ele>
        <time>2019-04-15T08:31:26Z</time>
      </trkpt>
      <trkpt lat="44.73802" lon="5.00541">
        <ele>190</ele>
        <time>2019-04-15T08:31:30Z</time>
      </trkpt>
      <trkpt lat="44.7378" lon="5.0057">
        <ele>189.8</ele>
        <time>2019-04-15T08:31:34Z</time>
      </trkpt>
      <trkpt lat="44.73758" lon="5.00603">
        <ele>189.2</ele>
        <time>2019-04-15T08:31:38Z</time>
      </trkpt>
      <trkpt lat="44.73736" lon="5.00638">
        <ele>189.2</ele>
        <time>2019-04-15T08:31:42Z</time>
      </trkpt>
      <trkpt lat="44.73715" lon="5.00673">
        <ele>189.2</ele>
        <time>2019-04-15T08:31:46Z</time>
      </trkpt>
      <trkpt lat="44.73695" lon="5.00707">
        <ele>189.2</ele>
        <time>2019-04-15T08:31:50Z</time>
      </trkpt>
      <trkpt lat="44.73674" lon="5.00741">
        <ele>189.2</ele>
        <time>2019-04-15T08:31:54Z</time>
      </trkpt>
      <trkpt lat="44.73654" lon="5.00774">
        <ele>189</ele>
        <time>2019-04-15T08:31:58Z</time>
      </trkpt>
      <trkpt lat="44.73634" lon="5.00807">
        <ele>189.2</ele>
        <time>2019-04-15T08:32:02Z</time>
      </trkpt>
      <trkpt lat="44.73616" lon="5.00841">
        <ele>189.6</ele>
        <time>2019-04-15T08:32:06Z</time>
      </trkpt>
      <trkpt lat="44.73598" lon="5.00874">
        <ele>189.8</ele>
        <time>2019-04-15T08:32:10Z</time>
      </trkpt>
      <trkpt lat="44.73579" lon="5.00906">
        <ele>189.8</ele>
        <time>2019-04-15T08:32:14Z</time>
      </trkpt>
      <trkpt lat="44.73559" lon="5.00936">
        <ele>190.4</ele>
        <time>2019-04-15T08:32:18Z</time>
      </trkpt>
      <trkpt lat="44.73539" lon="5.00966">
        <ele>190.4</ele>
        <time>2019-04-15T08:32:22Z</time>
      </trkpt>
      <trkpt lat="44.73519" lon="5.00997">
        <ele>190.8</ele>
        <time>2019-04-15T08:32:26Z</time>
      </trkpt>
      <trkpt lat="44.735" lon="5.01026">
        <ele>190.8</ele>
        <time>2019-04-15T08:32:30Z</time>
      </trkpt>
      <trkpt lat="44.7348" lon="5.01056">
        <ele>192</ele>
        <time>2019-04-15T08:32:34Z</time>
      </trkpt>
      <trkpt lat="44.73462" lon="5.01085">
        <ele>192.4</ele>
        <time>2019-04-15T08:32:38Z</time>
      </trkpt>
      <trkpt lat="44.73443" lon="5.01113">
        <ele>193</ele>
        <time>2019-04-15T08:32:42Z</time>
      </trkpt>
      <trkpt lat="44.73427" lon="5.01142">
        <ele>193.4</ele>
        <time>2019-04-15T08:32:46Z</time>
      </trkpt>
      <trkpt lat="44.73411" lon="5.01174">
        <ele>195</ele>
        <time>2019-04-15T08:32:50Z</time>
      </trkpt>
      <trkpt lat="44.73393" lon="5.01201">
        <ele>194.8</ele>
        <time>2019-04-15T08:32:54Z</time>
      </trkpt>
      <trkpt lat="44.73368" lon="5.01222">
        <ele>194.8</ele>
        <time>2019-04-15T08:32:58Z</time>
      </trkpt>
      <trkpt lat="44.73341" lon="5.0124">
        <ele>194.2</ele>
        <time>2019-04-15T08:33:02Z</time>
      </trkpt>
      <trkpt lat="44.73312" lon="5.01265">
        <ele>192.8</ele>
        <time>2019-04-15T08:33:06Z</time>
      </trkpt>
      <trkpt lat="44.73282" lon="5.01298">
        <ele>191.6</ele>
        <time>2019-04-15T08:33:10Z</time>
      </trkpt>
      <trkpt lat="44.73254" lon="5.01334">
        <ele>189.6</ele>
        <time>2019-04-15T08:33:14Z</time>
      </trkpt>
      <trkpt lat="44.73226" lon="5.0137">
        <ele>189.2</ele>
        <time>2019-04-15T08:33:18Z</time>
      </trkpt>
      <trkpt lat="44.73199" lon="5.01405">
        <ele>189.4</ele>
        <time>2019-04-15T08:33:22Z</time>
      </trkpt>
      <trkpt lat="44.73174" lon="5.01439">
        <ele>189</ele>
        <time>2019-04-15T08:33:26Z</time>
      </trkpt>
      <trkpt lat="44.7315" lon="5.01471">
        <ele>189.4</ele>
        <time>2019-04-15T08:33:30Z</time>
      </trkpt>
      <trkpt lat="44.73128" lon="5.015">
        <ele>191</ele>
        <time>2019-04-15T08:33:34Z</time>
      </trkpt>
      <trkpt lat="44.73108" lon="5.01527">
        <ele>191.2</ele>
        <time>2019-04-15T08:33:38Z</time>
      </trkpt>
      <trkpt lat="44.73087" lon="5.01553">
        <ele>192</ele>
        <time>2019-04-15T08:33:42Z</time>
      </trkpt>
      <trkpt lat="44.73068" lon="5.01578">
        <ele>192.2</ele>
        <time>2019-04-15T08:33:46Z</time>
      </trkpt>
      <trkpt lat="44.7305" lon="5.01604">
        <ele>192.6</ele>
        <time>2019-04-15T08:33:50Z</time>
      </trkpt>
      <trkpt lat="44.73031" lon="5.01627">
        <ele>193</ele>
        <time>2019-04-15T08:33:54Z</time>
      </trkpt>
      <trkpt lat="44.73009" lon="5.0165">
        <ele>193.6</ele>
        <time>2019-04-15T08:33:58Z</time>
      </trkpt>
      <trkpt lat="44.72986" lon="5.01669">
        <ele>192.6</ele>
        <time>2019-04-15T08:34:02Z</time>
      </trkpt>
      <trkpt lat="44.7296" lon="5.01689">
        <ele>193.2</ele>
        <time>2019-04-15T08:34:06Z</time>
      </trkpt>
      <trkpt lat="44.72935" lon="5.0171">
        <ele>193.2</ele>
        <time>2019-04-15T08:34:10Z</time>
      </trkpt>
      <trkpt lat="44.72909" lon="5.01729">
        <ele>193</ele>
        <time>2019-04-15T08:34:14Z</time>
      </trkpt>
      <trkpt lat="44.72884" lon="5.01751">
        <ele>193.4</ele>
        <time>2019-04-15T08:34:18Z</time>
      </trkpt>
      <trkpt lat="44.72858" lon="5.01772">
        <ele>193.2</ele>
        <time>2019-04-15T08:34:22Z</time>
      </trkpt>
      <trkpt lat="44.72833" lon="5.01797">
        <ele>192.6</ele>
        <time>2019-04-15T08:34:26Z</time>
      </trkpt>
      <trkpt lat="44.72813" lon="5.0183">
        <ele>192.2</ele>
        <time>2019-04-15T08:34:30Z</time>
      </trkpt>
      <trkpt lat="44.72804" lon="5.01871">
        <ele>192</ele>
        <time>2019-04-15T08:34:34Z</time>
      </trkpt>
      <trkpt lat="44.72799" lon="5.01915">
        <ele>192.2</ele>
        <time>2019-04-15T08:34:38Z</time>
      </trkpt>
      <trkpt lat="44.72795" lon="5.01952">
        <ele>192</ele>
        <time>2019-04-15T08:34:42Z</time>
      </trkpt>
      <trkpt lat="44.7279" lon="5.01993">
        <ele>192.6</ele>
        <time>2019-04-15T08:34:46Z</time>
      </trkpt>
      <trkpt lat="44.72782" lon="5.02035">
        <ele>193</ele>
        <time>2019-04-15T08:34:50Z</time>
      </trkpt>
      <trkpt lat="44.72774" lon="5.02071">
        <ele>193.4</ele>
        <time>2019-04-15T08:34:54Z</time>
      </trkpt>
      <trkpt lat="44.72767" lon="5.02104">
        <ele>194.4</ele>
        <time>2019-04-15T08:34:58Z</time>
      </trkpt>
      <trkpt lat="44.72759" lon="5.02131">
        <ele>195</ele>
        <time>2019-04-15T08:35:02Z</time>
      </trkpt>
      <trkpt lat="44.7275" lon="5.02144">
        <ele>195.4</ele>
        <time>2019-04-15T08:35:06Z</time>
      </trkpt>
      <trkpt lat="44.7275" lon="5.02144">
        <ele>195.4</ele>
        <time>2019-04-15T08:35:10Z</time>
      </trkpt>
      <trkpt lat="44.72746" lon="5.02145">
        <ele>196</ele>
        <time>2019-04-15T08:35:14Z</time>
      </trkpt>
      <trkpt lat="44.72744" lon="5.02144">
        <ele>196</ele>
        <time>2019-04-15T08:35:18Z</time>
      </trkpt>
      <trkpt lat="44.72741" lon="5.02144">
        <ele>195.8</ele>
        <time>2019-04-15T08:35:22Z</time>
      </trkpt>
      <trkpt lat="44.72738" lon="5.02142">
        <ele>196</ele>
        <time>2019-04-15T08:35:26Z</time>
      </trkpt>
      <trkpt lat="44.72734" lon="5.0214">
        <ele>196.2</ele>
        <time>2019-04-15T08:35:30Z</time>
      </trkpt>
      <trkpt lat="44.7273" lon="5.02138">
        <ele>196.2</ele>
        <time>2019-04-15T08:35:34Z</time>
      </trkpt>
      <trkpt lat="44.72725" lon="5.02135">
        <ele>195.8</ele>
        <time>2019-04-15T08:35:38Z</time>
      </trkpt>
      <trkpt lat="44.7272" lon="5.02133">
        <ele>195.8</ele>
        <time>2019-04-15T08:35:42Z</time>
      </trkpt>
      <trkpt lat="44.72715" lon="5.02131">
        <ele>196.2</ele>
        <time>2019-04-15T08:35:46Z</time>
      </trkpt>
      <trkpt lat="44.7271" lon="5.02129">
        <ele>196.2</ele>
        <time>2019-04-15T08:35:50Z</time>
      </trkpt>
      <trkpt lat="44.7271" lon="5.02129">
        <ele>196.2</ele>
        <time>2019-04-15T08:35:54Z</time>
      </trkpt>
      <trkpt lat="44.72707" lon="5.02127">
        <ele>196</ele>
        <time>2019-04-15T08:35:58Z</time>
      </trkpt>
      <trkpt lat="44.727" lon="5.02124">
        <ele>196.2</ele>
        <time>2019-04-15T08:36:02Z</time>
      </trkpt>
      <trkpt lat="44.72687" lon="5.02117">
        <ele>195.4</ele>
        <time>2019-04-15T08:36:06Z</time>
      </trkpt>
      <trkpt lat="44.72677" lon="5.02106">
        <ele>195</ele>
        <time>2019-04-15T08:36:10Z</time>
      </trkpt>
      <trkpt lat="44.7267" lon="5.02084">
        <ele>194.2</ele>
        <time>2019-04-15T08:36:14Z</time>
      </trkpt>
      <trkpt lat="44.72661" lon="5.02076">
        <ele>194</ele>
        <time>2019-04-15T08:36:18Z</time>
      </trkpt>
      <trkpt lat="44.72644" lon="5.02065">
        <ele>193.2</ele>
        <time>2019-04-15T08:36:22Z</time>
      </trkpt>
      <trkpt lat="44.72627" lon="5.02042">
        <ele>192.6</ele>
        <time>2019-04-15T08:36:26Z</time>
      </trkpt>
      <trkpt lat="44.72605" lon="5.02019">
        <ele>193.2</ele>
        <time>2019-04-15T08:36:30Z</time>
      </trkpt>
      <trkpt lat="44.72581" lon="5.01997">
        <ele>193</ele>
        <time>2019-04-15T08:36:34Z</time>
      </trkpt>
      <trkpt lat="44.72558" lon="5.01974">
        <ele>193.4</ele>
        <time>2019-04-15T08:36:38Z</time>
      </trkpt>
      <trkpt lat="44.72536" lon="5.01953">
        <ele>193.4</ele>
        <time>2019-04-15T08:36:42Z</time>
      </trkpt>
      <trkpt lat="44.72513" lon="5.01931">
        <ele>193.6</ele>
        <time>2019-04-15T08:36:46Z</time>
      </trkpt>
      <trkpt lat="44.72492" lon="5.0191">
        <ele>193.6</ele>
        <time>2019-04-15T08:36:50Z</time>
      </trkpt>
      <trkpt lat="44.72474" lon="5.01881">
        <ele>194</ele>
        <time>2019-04-15T08:36:54Z</time>
      </trkpt>
      <trkpt lat="44.72459" lon="5.01849">
        <ele>194.4</ele>
        <time>2019-04-15T08:36:58Z</time>
      </trkpt>
      <trkpt lat="44.72444" lon="5.01818">
        <ele>194.8</ele>
        <time>2019-04-15T08:37:02Z</time>
      </trkpt>
      <trkpt lat="44.72429" lon="5.01792">
        <ele>195.8</ele>
        <time>2019-04-15T08:37:06Z</time>
      </trkpt>
      <trkpt lat="44.72412" lon="5.01769">
        <ele>195.6</ele>
        <time>2019-04-15T08:37:10Z</time>
      </trkpt>
      <trkpt lat="44.72392" lon="5.01748">
        <ele>196</ele>
        <time>2019-04-15T08:37:14Z</time>
      </trkpt>
      <trkpt lat="44.72372" lon="5.0173">
        <ele>196.4</ele>
        <time>2019-04-15T08:37:18Z</time>
      </trkpt>
      <trkpt lat="44.72352" lon="5.01713">
        <ele>196.2</ele>
        <time>2019-04-15T08:37:22Z</time>
      </trkpt>
      <trkpt lat="44.72332" lon="5.01696">
        <ele>197.4</ele>
        <time>2019-04-15T08:37:26Z</time>
      </trkpt>
      <trkpt lat="44.72313" lon="5.01678">
        <ele>197.6</ele>
        <time>2019-04-15T08:37:30Z</time>
      </trkpt>
      <trkpt lat="44.72293" lon="5.0166">
        <ele>199.2</ele>
        <time>2019-04-15T08:37:34Z</time>
      </trkpt>
      <trkpt lat="44.72275" lon="5.01642">
        <ele>199.8</ele>
        <time>2019-04-15T08:37:38Z</time>
      </trkpt>
      <trkpt lat="44.7226" lon="5.01626">
        <ele>201.2</ele>
        <time>2019-04-15T08:37:42Z</time>
      </trkpt>
      <trkpt lat="44.72248" lon="5.01611">
        <ele>202</ele>
        <time>2019-04-15T08:37:46Z</time>
      </trkpt>
      <trkpt lat="44.72239" lon="5.016">
        <ele>202.4</ele>
        <time>2019-04-15T08:37:50Z</time>
      </trkpt>
      <trkpt lat="44.72225" lon="5.01582">
        <ele>202.4</ele>
        <time>2019-04-15T08:37:54Z</time>
      </trkpt>
      <trkpt lat="44.72208" lon="5.0156">
        <ele>203.6</ele>
        <time>2019-04-15T08:37:58Z</time>
      </trkpt>
      <trkpt lat="44.72194" lon="5.01539">
        <ele>204.6</ele>
        <time>2019-04-15T08:38:02Z</time>
      </trkpt>
      <trkpt lat="44.7218" lon="5.01519">
        <ele>206</ele>
        <time>2019-04-15T08:38:06Z</time>
      </trkpt>
      <trkpt lat="44.72166" lon="5.01498">
        <ele>206.2</ele>
        <time>2019-04-15T08:38:10Z</time>
      </trkpt>
      <trkpt lat="44.72152" lon="5.01477">
        <ele>207.2</ele>
        <time>2019-04-15T08:38:14Z</time>
      </trkpt>
      <trkpt lat="44.72138" lon="5.01456">
        <ele>208</ele>
        <time>2019-04-15T08:38:18Z</time>
      </trkpt>
      <trkpt lat="44.72122" lon="5.01437">
        <ele>209.4</ele>
        <time>2019-04-15T08:38:22Z</time>
      </trkpt>
      <trkpt lat="44.72106" lon="5.01418">
        <ele>209</ele>
        <time>2019-04-15T08:38:26Z</time>
      </trkpt>
      <trkpt lat="44.72089" lon="5.01399">
        <ele>210</ele>
        <time>2019-04-15T08:38:30Z</time>
      </trkpt>
      <trkpt lat="44.72074" lon="5.0138">
        <ele>211</ele>
        <time>2019-04-15T08:38:34Z</time>
      </trkpt>
      <trkpt lat="44.72057" lon="5.0136">
        <ele>211.6</ele>
        <time>2019-04-15T08:38:38Z</time>
      </trkpt>
      <trkpt lat="44.72041" lon="5.01338">
        <ele>212.2</ele>
        <time>2019-04-15T08:38:42Z</time>
      </trkpt>
      <trkpt lat="44.72024" lon="5.01317">
        <ele>212.6</ele>
        <time>2019-04-15T08:38:46Z</time>
      </trkpt>
      <trkpt lat="44.72007" lon="5.01296">
        <ele>213</ele>
        <time>2019-04-15T08:38:50Z</time>
      </trkpt>
      <trkpt lat="44.71988" lon="5.01277">
        <ele>214</ele>
        <time>2019-04-15T08:38:54Z</time>
      </trkpt>
      <trkpt lat="44.7197" lon="5.0126">
        <ele>213.8</ele>
        <time>2019-04-15T08:38:58Z</time>
      </trkpt>
      <trkpt lat="44.7195" lon="5.01241">
        <ele>214.4</ele>
        <time>2019-04-15T08:39:02Z</time>
      </trkpt>
      <trkpt lat="44.7193" lon="5.01223">
        <ele>214.8</ele>
        <time>2019-04-15T08:39:06Z</time>
      </trkpt>
      <trkpt lat="44.7191" lon="5.01205">
        <ele>215.6</ele>
        <time>2019-04-15T08:39:10Z</time>
      </trkpt>
      <trkpt lat="44.7189" lon="5.01186">
        <ele>215.8</ele>
        <time>2019-04-15T08:39:14Z</time>
      </trkpt>
      <trkpt lat="44.7187" lon="5.01167">
        <ele>216.8</ele>
        <time>2019-04-15T08:39:18Z</time>
      </trkpt>
      <trkpt lat="44.71849" lon="5.0115">
        <ele>217.8</ele>
        <time>2019-04-15T08:39:22Z</time>
      </trkpt>
      <trkpt lat="44.71828" lon="5.01133">
        <ele>218.2</ele>
        <time>2019-04-15T08:39:26Z</time>
      </trkpt>
      <trkpt lat="44.71805" lon="5.0112">
        <ele>218.8</ele>
        <time>2019-04-15T08:39:30Z</time>
      </trkpt>
      <trkpt lat="44.71783" lon="5.01105">
        <ele>219.2</ele>
        <time>2019-04-15T08:39:34Z</time>
      </trkpt>
      <trkpt lat="44.71761" lon="5.01091">
        <ele>219.4</ele>
        <time>2019-04-15T08:39:38Z</time>
      </trkpt>
      <trkpt lat="44.71738" lon="5.01077">
        <ele>220</ele>
        <time>2019-04-15T08:39:42Z</time>
      </trkpt>
      <trkpt lat="44.71715" lon="5.01063">
        <ele>219.8</ele>
        <time>2019-04-15T08:39:46Z</time>
      </trkpt>
      <trkpt lat="44.71692" lon="5.01048">
        <ele>220</ele>
        <time>2019-04-15T08:39:50Z</time>
      </trkpt>
      <trkpt lat="44.71669" lon="5.01032">
        <ele>220</ele>
        <time>2019-04-15T08:39:54Z</time>
      </trkpt>
      <trkpt lat="44.71646" lon="5.01014">
        <ele>220.2</ele>
        <time>2019-04-15T08:39:58Z</time>
      </trkpt>
      <trkpt lat="44.71624" lon="5.00992">
        <ele>220.6</ele>
        <time>2019-04-15T08:40:02Z</time>
      </trkpt>
      <trkpt lat="44.71602" lon="5.00969">
        <ele>220.4</ele>
        <time>2019-04-15T08:40:06Z</time>
      </trkpt>
      <trkpt lat="44.7158" lon="5.00947">
        <ele>221.2</ele>
        <time>2019-04-15T08:40:10Z</time>
      </trkpt>
      <trkpt lat="44.71558" lon="5.00925">
        <ele>221.4</ele>
        <time>2019-04-15T08:40:14Z</time>
      </trkpt>
      <trkpt lat="44.71537" lon="5.00902">
        <ele>221.2</ele>
        <time>2019-04-15T08:40:18Z</time>
      </trkpt>
      <trkpt lat="44.71515" lon="5.0088">
        <ele>221.6</ele>
        <time>2019-04-15T08:40:22Z</time>
      </trkpt>
      <trkpt lat="44.71493" lon="5.00858">
        <ele>221.8</ele>
        <time>2019-04-15T08:40:26Z</time>
      </trkpt>
      <trkpt lat="44.71471" lon="5.00837">
        <ele>222.4</ele>
        <time>2019-04-15T08:40:30Z</time>
      </trkpt>
      <trkpt lat="44.71448" lon="5.00817">
        <ele>222.2</ele>
        <time>2019-04-15T08:40:34Z</time>
      </trkpt>
      <trkpt lat="44.71423" lon="5.00802">
        <ele>222.6</ele>
        <time>2019-04-15T08:40:38Z</time>
      </trkpt>
      <trkpt lat="44.71398" lon="5.0079">
        <ele>223.2</ele>
        <time>2019-04-15T08:40:42Z</time>
      </trkpt>
      <trkpt lat="44.71373" lon="5.00777">
        <ele>223</ele>
        <time>2019-04-15T08:40:46Z</time>
      </trkpt>
      <trkpt lat="44.71348" lon="5.00764">
        <ele>223.2</ele>
        <time>2019-04-15T08:40:50Z</time>
      </trkpt>
      <trkpt lat="44.71322" lon="5.00751">
        <ele>224</ele>
        <time>2019-04-15T08:40:54Z</time>
      </trkpt>
      <trkpt lat="44.71297" lon="5.00738">
        <ele>224.4</ele>
        <time>2019-04-15T08:40:58Z</time>
      </trkpt>
      <trkpt lat="44.71272" lon="5.00725">
        <ele>224.2</ele>
        <time>2019-04-15T08:41:02Z</time>
      </trkpt>
      <trkpt lat="44.71247" lon="5.00712">
        <ele>225</ele>
        <time>2019-04-15T08:41:06Z</time>
      </trkpt>
      <trkpt lat="44.71221" lon="5.007">
        <ele>225.4</ele>
        <time>2019-04-15T08:41:10Z</time>
      </trkpt>
      <trkpt lat="44.71196" lon="5.00688">
        <ele>226.2</ele>
        <time>2019-04-15T08:41:14Z</time>
      </trkpt>
      <trkpt lat="44.7117" lon="5.00679">
        <ele>226.4</ele>
        <time>2019-04-15T08:41:18Z</time>
      </trkpt>
      <trkpt lat="44.71143" lon="5.00676">
        <ele>227.2</ele>
        <time>2019-04-15T08:41:22Z</time>
      </trkpt>
      <trkpt lat="44.71117" lon="5.00678">
        <ele>228</ele>
        <time>2019-04-15T08:41:26Z</time>
      </trkpt>
      <trkpt lat="44.71091" lon="5.00681">
        <ele>228.8</ele>
        <time>2019-04-15T08:41:30Z</time>
      </trkpt>
      <trkpt lat="44.71066" lon="5.00683">
        <ele>229.8</ele>
        <time>2019-04-15T08:41:34Z</time>
      </trkpt>
      <trkpt lat="44.71041" lon="5.00686">
        <ele>230.6</ele>
        <time>2019-04-15T08:41:38Z</time>
      </trkpt>
      <trkpt lat="44.71016" lon="5.00689">
        <ele>231.2</ele>
        <time>2019-04-15T08:41:42Z</time>
      </trkpt>
      <trkpt lat="44.7099" lon="5.00691">
        <ele>231.8</ele>
        <time>2019-04-15T08:41:46Z</time>
      </trkpt>
      <trkpt lat="44.70965" lon="5.00694">
        <ele>233</ele>
        <time>2019-04-15T08:41:50Z</time>
      </trkpt>
      <trkpt lat="44.70939" lon="5.00694">
        <ele>233.4</ele>
        <time>2019-04-15T08:41:54Z</time>
      </trkpt>
      <trkpt lat="44.70915" lon="5.00689">
        <ele>234</ele>
        <time>2019-04-15T08:41:58Z</time>
      </trkpt>
      <trkpt lat="44.70891" lon="5.00681">
        <ele>234.6</ele>
        <time>2019-04-15T08:42:02Z</time>
      </trkpt>
      <trkpt lat="44.70868" lon="5.00672">
        <ele>235.4</ele>
        <time>2019-04-15T08:42:06Z</time>
      </trkpt>
      <trkpt lat="44.70844" lon="5.00663">
        <ele>236.4</ele>
        <time>2019-04-15T08:42:10Z</time>
      </trkpt>
      <trkpt lat="44.7082" lon="5.00654">
        <ele>236.6</ele>
        <time>2019-04-15T08:42:14Z</time>
      </trkpt>
      <trkpt lat="44.70797" lon="5.00645">
        <ele>237.4</ele>
        <time>2019-04-15T08:42:18Z</time>
      </trkpt>
      <trkpt lat="44.70774" lon="5.00637">
        <ele>237.8</ele>
        <time>2019-04-15T08:42:22Z</time>
      </trkpt>
      <trkpt lat="44.7075" lon="5.00627">
        <ele>237.2</ele>
        <time>2019-04-15T08:42:26Z</time>
      </trkpt>
      <trkpt lat="44.70725" lon="5.00617">
        <ele>237.4</ele>
        <time>2019-04-15T08:42:30Z</time>
      </trkpt>
      <trkpt lat="44.70699" lon="5.00607">
        <ele>237.8</ele>
        <time>2019-04-15T08:42:34Z</time>
      </trkpt>
      <trkpt lat="44.70672" lon="5.00601">
        <ele>238.4</ele>
        <time>2019-04-15T08:42:38Z</time>
      </trkpt>
      <trkpt lat="44.70645" lon="5.006">
        <ele>238.4</ele>
        <time>2019-04-15T08:42:42Z</time>
      </trkpt>
      <trkpt lat="44.7062" lon="5.00601">
        <ele>239</ele>
        <time>2019-04-15T08:42:46Z</time>
      </trkpt>
      <trkpt lat="44.70595" lon="5.00602">
        <ele>239.8</ele>
        <time>2019-04-15T08:42:50Z</time>
      </trkpt>
      <trkpt lat="44.70571" lon="5.00603">
        <ele>240</ele>
        <time>2019-04-15T08:42:54Z</time>
      </trkpt>
      <trkpt lat="44.70547" lon="5.00606">
        <ele>240.8</ele>
        <time>2019-04-15T08:42:58Z</time>
      </trkpt>
      <trkpt lat="44.70522" lon="5.00613">
        <ele>240.8</ele>
        <time>2019-04-15T08:43:02Z</time>
      </trkpt>
      <trkpt lat="44.70499" lon="5.00628">
        <ele>241.2</ele>
        <time>2019-04-15T08:43:06Z</time>
      </trkpt>
      <trkpt lat="44.70476" lon="5.00645">
        <ele>241.6</ele>
        <time>2019-04-15T08:43:10Z</time>
      </trkpt>
      <trkpt lat="44.70452" lon="5.00662">
        <ele>241.6</ele>
        <time>2019-04-15T08:43:14Z</time>
      </trkpt>
      <trkpt lat="44.70429" lon="5.0068">
        <ele>242</ele>
        <time>2019-04-15T08:43:18Z</time>
      </trkpt>
      <trkpt lat="44.70405" lon="5.00697">
        <ele>241.6</ele>
        <time>2019-04-15T08:43:22Z</time>
      </trkpt>
      <trkpt lat="44.7038" lon="5.00715">
        <ele>242.4</ele>
        <time>2019-04-15T08:43:26Z</time>
      </trkpt>
      <trkpt lat="44.70356" lon="5.00733">
        <ele>242.4</ele>
        <time>2019-04-15T08:43:30Z</time>
      </trkpt>
      <trkpt lat="44.70331" lon="5.0075">
        <ele>242.6</ele>
        <time>2019-04-15T08:43:34Z</time>
      </trkpt>
      <trkpt lat="44.70308" lon="5.00769">
        <ele>242.8</ele>
        <time>2019-04-15T08:43:38Z</time>
      </trkpt>
      <trkpt lat="44.70283" lon="5.00787">
        <ele>242.4</ele>
        <time>2019-04-15T08:43:42Z</time>
      </trkpt>
      <trkpt lat="44.70259" lon="5.00805">
        <ele>243</ele>
        <time>2019-04-15T08:43:46Z</time>
      </trkpt>
      <trkpt lat="44.70236" lon="5.00824">
        <ele>243.4</ele>
        <time>2019-04-15T08:43:50Z</time>
      </trkpt>
      <trkpt lat="44.70214" lon="5.00848">
        <ele>244</ele>
        <time>2019-04-15T08:43:54Z</time>
      </trkpt>
      <trkpt lat="44.70195" lon="5.00875">
        <ele>244</ele>
        <time>2019-04-15T08:43:58Z</time>
      </trkpt>
      <trkpt lat="44.70175" lon="5.00902">
        <ele>243.6</ele>
        <time>2019-04-15T08:44:02Z</time>
      </trkpt>
      <trkpt lat="44.70148" lon="5.00916">
        <ele>244</ele>
        <time>2019-04-15T08:44:06Z</time>
      </trkpt>
      <trkpt lat="44.70122" lon="5.00902">
        <ele>244.4</ele>
        <time>2019-04-15T08:44:10Z</time>
      </trkpt>
      <trkpt lat="44.70105" lon="5.00871">
        <ele>246</ele>
        <time>2019-04-15T08:44:14Z</time>
      </trkpt>
      <trkpt lat="44.70092" lon="5.00838">
        <ele>246.8</ele>
        <time>2019-04-15T08:44:18Z</time>
      </trkpt>
      <trkpt lat="44.70084" lon="5.00807">
        <ele>247.8</ele>
        <time>2019-04-15T08:44:22Z</time>
      </trkpt>
      <trkpt lat="44.70075" lon="5.00776">
        <ele>247.8</ele>
        <time>2019-04-15T08:44:26Z</time>
      </trkpt>
      <trkpt lat="44.70066" lon="5.00745">
        <ele>249</ele>
        <time>2019-04-15T08:44:30Z</time>
      </trkpt>
      <trkpt lat="44.70053" lon="5.00716">
        <ele>250</ele>
        <time>2019-04-15T08:44:34Z</time>
      </trkpt>
      <trkpt lat="44.7004" lon="5.00689">
        <ele>251.2</ele>
        <time>2019-04-15T08:44:38Z</time>
      </trkpt>
      <trkpt lat="44.70025" lon="5.00662">
        <ele>252</ele>
        <time>2019-04-15T08:44:42Z</time>
      </trkpt>
      <trkpt lat="44.70012" lon="5.00637">
        <ele>252.6</ele>
        <time>2019-04-15T08:44:46Z</time>
      </trkpt>
      <trkpt lat="44.69997" lon="5.0061">
        <ele>253.4</ele>
        <time>2019-04-15T08:44:50Z</time>
      </trkpt>
      <trkpt lat="44.69983" lon="5.00585">
        <ele>255.2</ele>
        <time>2019-04-15T08:44:54Z</time>
      </trkpt>
      <trkpt lat="44.69969" lon="5.00561">
        <ele>255.6</ele>
        <time>2019-04-15T08:44:58Z</time>
      </trkpt>
      <trkpt lat="44.69954" lon="5.00538">
        <ele>256.6</ele>
        <time>2019-04-15T08:45:02Z</time>
      </trkpt>
      <trkpt lat="44.69937" lon="5.00517">
        <ele>256.8</ele>
        <time>2019-04-15T08:45:06Z</time>
      </trkpt>
      <trkpt lat="44.69917" lon="5.00498">
        <ele>257.6</ele>
        <time>2019-04-15T08:45:10Z</time>
      </trkpt>
      <trkpt lat="44.69896" lon="5.00483">
        <ele>257.8</ele>
        <time>2019-04-15T08:45:14Z</time>
      </trkpt>
      <trkpt lat="44.69875" lon="5.00471">
        <ele>258.2</ele>
        <time>2019-04-15T08:45:18Z</time>
      </trkpt>
      <trkpt lat="44.69852" lon="5.00463">
        <ele>258.4</ele>
        <time>2019-04-15T08:45:22Z</time>
      </trkpt>
      <trkpt lat="44.69829" lon="5.00457">
        <ele>258.8</ele>
        <time>2019-04-15T08:45:26Z</time>
      </trkpt>
      <trkpt lat="44.69804" lon="5.00453">
        <ele>258.6</ele>
        <time>2019-04-15T08:45:30Z</time>
      </trkpt>
      <trkpt lat="44.69779" lon="5.00449">
        <ele>259</ele>
        <time>2019-04-15T08:45:34Z</time>
      </trkpt>
      <trkpt lat="44.69754" lon="5.00446">
        <ele>258.8</ele>
        <time>2019-04-15T08:45:38Z</time>
      </trkpt>
      <trkpt lat="44.69726" lon="5.0044">
        <ele>258.4</ele>
        <time>2019-04-15T08:45:42Z</time>
      </trkpt>
      <trkpt lat="44.69699" lon="5.00434">
        <ele>258.6</ele>
        <time>2019-04-15T08:45:46Z</time>
      </trkpt>
      <trkpt lat="44.69672" lon="5.00428">
        <ele>258.2</ele>
        <time>2019-04-15T08:45:50Z</time>
      </trkpt>
      <trkpt lat="44.69644" lon="5.00424">
        <ele>258.2</ele>
        <time>2019-04-15T08:45:54Z</time>
      </trkpt>
      <trkpt lat="44.69615" lon="5.00423">
        <ele>257.2</ele>
        <time>2019-04-15T08:45:58Z</time>
      </trkpt>
      <trkpt lat="44.69583" lon="5.00428">
        <ele>255.6</ele>
        <time>2019-04-15T08:46:02Z</time>
      </trkpt>
      <trkpt lat="44.69549" lon="5.00437">
        <ele>254.4</ele>
        <time>2019-04-15T08:46:06Z</time>
      </trkpt>
      <trkpt lat="44.69513" lon="5.00444">
        <ele>255.2</ele>
        <time>2019-04-15T08:46:10Z</time>
      </trkpt>
      <trkpt lat="44.69481" lon="5.00452">
        <ele>255.4</ele>
        <time>2019-04-15T08:46:14Z</time>
      </trkpt>
      <trkpt lat="44.69452" lon="5.00461">
        <ele>256.6</ele>
        <time>2019-04-15T08:46:18Z</time>
      </trkpt>
      <trkpt lat="44.69425" lon="5.0047">
        <ele>257</ele>
        <time>2019-04-15T08:46:22Z</time>
      </trkpt>
      <trkpt lat="44.69398" lon="5.00479">
        <ele>257.4</ele>
        <time>2019-04-15T08:46:26Z</time>
      </trkpt>
      <trkpt lat="44.69373" lon="5.00493">
        <ele>258.8</ele>
        <time>2019-04-15T08:46:30Z</time>
      </trkpt>
      <trkpt lat="44.69348" lon="5.00507">
        <ele>258.8</ele>
        <time>2019-04-15T08:46:34Z</time>
      </trkpt>
      <trkpt lat="44.69324" lon="5.00523">
        <ele>259</ele>
        <time>2019-04-15T08:46:38Z</time>
      </trkpt>
      <trkpt lat="44.693" lon="5.00543">
        <ele>259.2</ele>
        <time>2019-04-15T08:46:42Z</time>
      </trkpt>
      <trkpt lat="44.69275" lon="5.00565">
        <ele>259.2</ele>
        <time>2019-04-15T08:46:46Z</time>
      </trkpt>
      <trkpt lat="44.6925" lon="5.00588">
        <ele>259.2</ele>
        <time>2019-04-15T08:46:50Z</time>
      </trkpt>
      <trkpt lat="44.69224" lon="5.0061">
        <ele>259.2</ele>
        <time>2019-04-15T08:46:54Z</time>
      </trkpt>
      <trkpt lat="44.69195" lon="5.00628">
        <ele>259.2</ele>
        <time>2019-04-15T08:46:58Z</time>
      </trkpt>
      <trkpt lat="44.69166" lon="5.00636">
        <ele>259.2</ele>
        <time>2019-04-15T08:47:02Z</time>
      </trkpt>
      <trkpt lat="44.69136" lon="5.0064">
        <ele>259.8</ele>
        <time>2019-04-15T08:47:06Z</time>
      </trkpt>
      <trkpt lat="44.69108" lon="5.00643">
        <ele>259.8</ele>
        <time>2019-04-15T08:47:10Z</time>
      </trkpt>
      <trkpt lat="44.6908" lon="5.00649">
        <ele>259.8</ele>
        <time>2019-04-15T08:47:14Z</time>
      </trkpt>
      <trkpt lat="44.69052" lon="5.00659">
        <ele>259.8</ele>
        <time>2019-04-15T08:47:18Z</time>
      </trkpt>
      <trkpt lat="44.69024" lon="5.00673">
        <ele>259.8</ele>
        <time>2019-04-15T08:47:22Z</time>
      </trkpt>
      <trkpt lat="44.68995" lon="5.00684">
        <ele>259.8</ele>
        <time>2019-04-15T08:47:26Z</time>
      </trkpt>
      <trkpt lat="44.68966" lon="5.00684">
        <ele>260.2</ele>
        <time>2019-04-15T08:47:30Z</time>
      </trkpt>
      <trkpt lat="44.68937" lon="5.00676">
        <ele>260.2</ele>
        <time>2019-04-15T08:47:34Z</time>
      </trkpt>
      <trkpt lat="44.68908" lon="5.00665">
        <ele>260.6</ele>
        <time>2019-04-15T08:47:38Z</time>
      </trkpt>
      <trkpt lat="44.68879" lon="5.00656">
        <ele>260.6</ele>
        <time>2019-04-15T08:47:42Z</time>
      </trkpt>
      <trkpt lat="44.6885" lon="5.00655">
        <ele>261</ele>
        <time>2019-04-15T08:47:46Z</time>
      </trkpt>
      <trkpt lat="44.68821" lon="5.00665">
        <ele>261.2</ele>
        <time>2019-04-15T08:47:50Z</time>
      </trkpt>
      <trkpt lat="44.68793" lon="5.0068">
        <ele>261.4</ele>
        <time>2019-04-15T08:47:54Z</time>
      </trkpt>
      <trkpt lat="44.68769" lon="5.00705">
        <ele>261.6</ele>
        <time>2019-04-15T08:47:58Z</time>
      </trkpt>
      <trkpt lat="44.6875" lon="5.00736">
        <ele>262.4</ele>
        <time>2019-04-15T08:48:02Z</time>
      </trkpt>
      <trkpt lat="44.68732" lon="5.00767">
        <ele>263.6</ele>
        <time>2019-04-15T08:48:06Z</time>
      </trkpt>
      <trkpt lat="44.68714" lon="5.00798">
        <ele>263.4</ele>
        <time>2019-04-15T08:48:10Z</time>
      </trkpt>
      <trkpt lat="44.68696" lon="5.00829">
        <ele>264.2</ele>
        <time>2019-04-15T08:48:14Z</time>
      </trkpt>
      <trkpt lat="44.68678" lon="5.0086">
        <ele>264.4</ele>
        <time>2019-04-15T08:48:18Z</time>
      </trkpt>
      <trkpt lat="44.6866" lon="5.0089">
        <ele>264.4</ele>
        <time>2019-04-15T08:48:22Z</time>
      </trkpt>
      <trkpt lat="44.68642" lon="5.00922">
        <ele>265.2</ele>
        <time>2019-04-15T08:48:26Z</time>
      </trkpt>
      <trkpt lat="44.68625" lon="5.00953">
        <ele>265.4</ele>
        <time>2019-04-15T08:48:30Z</time>
      </trkpt>
      <trkpt lat="44.68607" lon="5.00983">
        <ele>265.8</ele>
        <time>2019-04-15T08:48:34Z</time>
      </trkpt>
      <trkpt lat="44.6859" lon="5.01012">
        <ele>267.2</ele>
        <time>2019-04-15T08:48:38Z</time>
      </trkpt>
      <trkpt lat="44.68574" lon="5.01041">
        <ele>267.6</ele>
        <time>2019-04-15T08:48:42Z</time>
      </trkpt>
      <trkpt lat="44.68558" lon="5.01068">
        <ele>269</ele>
        <time>2019-04-15T08:48:46Z</time>
      </trkpt>
      <trkpt lat="44.68542" lon="5.01096">
        <ele>269.8</ele>
        <time>2019-04-15T08:48:50Z</time>
      </trkpt>
      <trkpt lat="44.68526" lon="5.01123">
        <ele>270.2</ele>
        <time>2019-04-15T08:48:54Z</time>
      </trkpt>
      <trkpt lat="44.6851" lon="5.0115">
        <ele>270.2</ele>
        <time>2019-04-15T08:48:58Z</time>
      </trkpt>
      <trkpt lat="44.68491" lon="5.01173">
        <ele>271.4</ele>
        <time>2019-04-15T08:49:02Z</time>
      </trkpt>
      <trkpt lat="44.6847" lon="5.0119">
        <ele>272.4</ele>
        <time>2019-04-15T08:49:06Z</time>
      </trkpt>
      <trkpt lat="44.68447" lon="5.01204">
        <ele>273</ele>
        <time>2019-04-15T08:49:10Z</time>
      </trkpt>
      <trkpt lat="44.68424" lon="5.01215">
        <ele>273.4</ele>
        <time>2019-04-15T08:49:14Z</time>
      </trkpt>
      <trkpt lat="44.68401" lon="5.01228">
        <ele>274.4</ele>
        <time>2019-04-15T08:49:18Z</time>
      </trkpt>
      <trkpt lat="44.68379" lon="5.0124">
        <ele>275.2</ele>
        <time>2019-04-15T08:49:22Z</time>
      </trkpt>
      <trkpt lat="44.68357" lon="5.01253">
        <ele>276</ele>
        <time>2019-04-15T08:49:26Z</time>
      </trkpt>
      <trkpt lat="44.68334" lon="5.01265">
        <ele>276.8</ele>
        <time>2019-04-15T08:49:30Z</time>
      </trkpt>
      <trkpt lat="44.68312" lon="5.01277">
        <ele>277.4</ele>
        <time>2019-04-15T08:49:34Z</time>
      </trkpt>
      <trkpt lat="44.6829" lon="5.0129">
        <ele>278.2</ele>
        <time>2019-04-15T08:49:38Z</time>
      </trkpt>
      <trkpt lat="44.68268" lon="5.01302">
        <ele>278.8</ele>
        <time>2019-04-15T08:49:42Z</time>
      </trkpt>
      <trkpt lat="44.68244" lon="5.01309">
        <ele>280.2</ele>
        <time>2019-04-15T08:49:46Z</time>
      </trkpt>
      <trkpt lat="44.6822" lon="5.01311">
        <ele>280.6</ele>
        <time>2019-04-15T08:49:50Z</time>
      </trkpt>
      <trkpt lat="44.68197" lon="5.01312">
        <ele>281.6</ele>
        <time>2019-04-15T08:49:54Z</time>
      </trkpt>
      <trkpt lat="44.68174" lon="5.01312">
        <ele>282.4</ele>
        <time>2019-04-15T08:49:58Z</time>
      </trkpt>
      <trkpt lat="44.6815" lon="5.01312">
        <ele>282.6</ele>
        <time>2019-04-15T08:50:02Z</time>
      </trkpt>
      <trkpt lat="44.68126" lon="5.01311">
        <ele>283.6</ele>
        <time>2019-04-15T08:50:06Z</time>
      </trkpt>
      <trkpt lat="44.68103" lon="5.01307">
        <ele>284.8</ele>
        <time>2019-04-15T08:50:10Z</time>
      </trkpt>
      <trkpt lat="44.6808" lon="5.01296">
        <ele>285.2</ele>
        <time>2019-04-15T08:50:14Z</time>
      </trkpt>
      <trkpt lat="44.68062" lon="5.01276">
        <ele>286.8</ele>
        <time>2019-04-15T08:50:18Z</time>
      </trkpt>
      <trkpt lat="44.68043" lon="5.01257">
        <ele>287</ele>
        <time>2019-04-15T08:50:22Z</time>
      </trkpt>
      <trkpt lat="44.6802" lon="5.01247">
        <ele>288.2</ele>
        <time>2019-04-15T08:50:26Z</time>
      </trkpt>
      <trkpt lat="44.67996" lon="5.01246">
        <ele>289</ele>
        <time>2019-04-15T08:50:30Z</time>
      </trkpt>
      <trkpt lat="44.67972" lon="5.01249">
        <ele>289.2</ele>
        <time>2019-04-15T08:50:34Z</time>
      </trkpt>
      <trkpt lat="44.67948" lon="5.01255">
        <ele>289.8</ele>
        <time>2019-04-15T08:50:38Z</time>
      </trkpt>
      <trkpt lat="44.67926" lon="5.01274">
        <ele>290.2</ele>
        <time>2019-04-15T08:50:42Z</time>
      </trkpt>
      <trkpt lat="44.6791" lon="5.01303">
        <ele>290.2</ele>
        <time>2019-04-15T08:50:46Z</time>
      </trkpt>
      <trkpt lat="44.67895" lon="5.01334">
        <ele>290.2</ele>
        <time>2019-04-15T08:50:50Z</time>
      </trkpt>
      <trkpt lat="44.6788" lon="5.01367">
        <ele>290</ele>
        <time>2019-04-15T08:50:54Z</time>
      </trkpt>
      <trkpt lat="44.67863" lon="5.01399">
        <ele>290.2</ele>
        <time>2019-04-15T08:50:58Z</time>
      </trkpt>
      <trkpt lat="44.67843" lon="5.01428">
        <ele>290.2</ele>
        <time>2019-04-15T08:51:02Z</time>
      </trkpt>
      <trkpt lat="44.67818" lon="5.01449">
        <ele>290.2</ele>
        <time>2019-04-15T08:51:06Z</time>
      </trkpt>
      <trkpt lat="44.67791" lon="5.01465">
        <ele>290.8</ele>
        <time>2019-04-15T08:51:10Z</time>
      </trkpt>
      <trkpt lat="44.67766" lon="5.01481">
        <ele>291</ele>
        <time>2019-04-15T08:51:14Z</time>
      </trkpt>
      <trkpt lat="44.67737" lon="5.01489">
        <ele>291</ele>
        <time>2019-04-15T08:51:18Z</time>
      </trkpt>
      <trkpt lat="44.67708" lon="5.01482">
        <ele>291</ele>
        <time>2019-04-15T08:51:22Z</time>
      </trkpt>
      <trkpt lat="44.6768" lon="5.01472">
        <ele>291.8</ele>
        <time>2019-04-15T08:51:26Z</time>
      </trkpt>
      <trkpt lat="44.67654" lon="5.01471">
        <ele>292.8</ele>
        <time>2019-04-15T08:51:30Z</time>
      </trkpt>
      <trkpt lat="44.6763" lon="5.01477">
        <ele>293.8</ele>
        <time>2019-04-15T08:51:34Z</time>
      </trkpt>
      <trkpt lat="44.67609" lon="5.0149">
        <ele>294</ele>
        <time>2019-04-15T08:51:38Z</time>
      </trkpt>
      <trkpt lat="44.67588" lon="5.01504">
        <ele>294.6</ele>
        <time>2019-04-15T08:51:42Z</time>
      </trkpt>
      <trkpt lat="44.67568" lon="5.01518">
        <ele>296</ele>
        <time>2019-04-15T08:51:46Z</time>
      </trkpt>
      <trkpt lat="44.67547" lon="5.01532">
        <ele>296.8</ele>
        <time>2019-04-15T08:51:50Z</time>
      </trkpt>
      <trkpt lat="44.67526" lon="5.01545">
        <ele>297.6</ele>
        <time>2019-04-15T08:51:54Z</time>
      </trkpt>
      <trkpt lat="44.67507" lon="5.01559">
        <ele>298.8</ele>
        <time>2019-04-15T08:51:58Z</time>
      </trkpt>
      <trkpt lat="44.67487" lon="5.01573">
        <ele>299.4</ele>
        <time>2019-04-15T08:52:02Z</time>
      </trkpt>
      <trkpt lat="44.67468" lon="5.01586">
        <ele>301.2</ele>
        <time>2019-04-15T08:52:06Z</time>
      </trkpt>
      <trkpt lat="44.67446" lon="5.01597">
        <ele>302</ele>
        <time>2019-04-15T08:52:10Z</time>
      </trkpt>
      <trkpt lat="44.67423" lon="5.016">
        <ele>303.6</ele>
        <time>2019-04-15T08:52:14Z</time>
      </trkpt>
      <trkpt lat="44.67399" lon="5.01598">
        <ele>304.2</ele>
        <time>2019-04-15T08:52:18Z</time>
      </trkpt>
      <trkpt lat="44.67377" lon="5.01595">
        <ele>305.2</ele>
        <time>2019-04-15T08:52:22Z</time>
      </trkpt>
      <trkpt lat="44.67354" lon="5.01593">
        <ele>306</ele>
        <time>2019-04-15T08:52:26Z</time>
      </trkpt>
      <trkpt lat="44.67332" lon="5.01589">
        <ele>307.8</ele>
        <time>2019-04-15T08:52:30Z</time>
      </trkpt>
      <trkpt lat="44.67311" lon="5.01581">
        <ele>308.8</ele>
        <time>2019-04-15T08:52:34Z</time>
      </trkpt>
      <trkpt lat="44.67291" lon="5.01566">
        <ele>310</ele>
        <time>2019-04-15T08:52:38Z</time>
      </trkpt>
      <trkpt lat="44.67273" lon="5.0155">
        <ele>310.8</ele>
        <time>2019-04-15T08:52:42Z</time>
      </trkpt>
      <trkpt lat="44.67254" lon="5.01533">
        <ele>311.2</ele>
        <time>2019-04-15T08:52:46Z</time>
      </trkpt>
      <trkpt lat="44.67235" lon="5.01517">
        <ele>312.6</ele>
        <time>2019-04-15T08:52:50Z</time>
      </trkpt>
      <trkpt lat="44.67217" lon="5.01501">
        <ele>313.4</ele>
        <time>2019-04-15T08:52:54Z</time>
      </trkpt>
      <trkpt lat="44.67198" lon="5.01486">
        <ele>314.4</ele>
        <time>2019-04-15T08:52:58Z</time>
      </trkpt>
      <trkpt lat="44.67179" lon="5.01469">
        <ele>315</ele>
        <time>2019-04-15T08:53:02Z</time>
      </trkpt>
      <trkpt lat="44.6716" lon="5.01454">
        <ele>316.4</ele>
        <time>2019-04-15T08:53:06Z</time>
      </trkpt>
      <trkpt lat="44.67141" lon="5.01438">
        <ele>317.2</ele>
        <time>2019-04-15T08:53:10Z</time>
      </trkpt>
      <trkpt lat="44.67123" lon="5.01421">
        <ele>317.6</ele>
        <time>2019-04-15T08:53:14Z</time>
      </trkpt>
      <trkpt lat="44.67105" lon="5.01403">
        <ele>318.8</ele>
        <time>2019-04-15T08:53:18Z</time>
      </trkpt>
      <trkpt lat="44.67088" lon="5.01385">
        <ele>320</ele>
        <time>2019-04-15T08:53:22Z</time>
      </trkpt>
      <trkpt lat="44.67072" lon="5.01366">
        <ele>321</ele>
        <time>2019-04-15T08:53:26Z</time>
      </trkpt>
      <trkpt lat="44.67055" lon="5.01347">
        <ele>321.6</ele>
        <time>2019-04-15T08:53:30Z</time>
      </trkpt>
      <trkpt lat="44.67039" lon="5.01327">
        <ele>322.8</ele>
        <time>2019-04-15T08:53:34Z</time>
      </trkpt>
      <trkpt lat="44.67023" lon="5.01307">
        <ele>323.6</ele>
        <time>2019-04-15T08:53:38Z</time>
      </trkpt>
      <trkpt lat="44.67005" lon="5.0129">
        <ele>324.6</ele>
        <time>2019-04-15T08:53:42Z</time>
      </trkpt>
      <trkpt lat="44.66989" lon="5.01271">
        <ele>325.4</ele>
        <time>2019-04-15T08:53:46Z</time>
      </trkpt>
      <trkpt lat="44.66975" lon="5.01248">
        <ele>326.4</ele>
        <time>2019-04-15T08:53:50Z</time>
      </trkpt>
      <trkpt lat="44.66958" lon="5.01232">
        <ele>327</ele>
        <time>2019-04-15T08:53:54Z</time>
      </trkpt>
      <trkpt lat="44.66938" lon="5.01236">
        <ele>327.6</ele>
        <time>2019-04-15T08:53:58Z</time>
      </trkpt>
      <trkpt lat="44.66916" lon="5.01243">
        <ele>328.4</ele>
        <time>2019-04-15T08:54:02Z</time>
      </trkpt>
      <trkpt lat="44.66896" lon="5.0125">
        <ele>329.8</ele>
        <time>2019-04-15T08:54:06Z</time>
      </trkpt>
      <trkpt lat="44.66875" lon="5.01258">
        <ele>330.6</ele>
        <time>2019-04-15T08:54:10Z</time>
      </trkpt>
      <trkpt lat="44.66855" lon="5.01267">
        <ele>331.8</ele>
        <time>2019-04-15T08:54:14Z</time>
      </trkpt>
      <trkpt lat="44.66834" lon="5.01276">
        <ele>332.2</ele>
        <time>2019-04-15T08:54:18Z</time>
      </trkpt>
      <trkpt lat="44.66813" lon="5.01284">
        <ele>333.6</ele>
        <time>2019-04-15T08:54:22Z</time>
      </trkpt>
      <trkpt lat="44.66792" lon="5.01294">
        <ele>334.4</ele>
        <time>2019-04-15T08:54:26Z</time>
      </trkpt>
      <trkpt lat="44.66772" lon="5.01304">
        <ele>335.2</ele>
        <time>2019-04-15T08:54:30Z</time>
      </trkpt>
      <trkpt lat="44.66752" lon="5.01319">
        <ele>336</ele>
        <time>2019-04-15T08:54:34Z</time>
      </trkpt>
      <trkpt lat="44.66736" lon="5.01339">
        <ele>337</ele>
        <time>2019-04-15T08:54:38Z</time>
      </trkpt>
      <trkpt lat="44.66721" lon="5.01362">
        <ele>339.6</ele>
        <time>2019-04-15T08:54:42Z</time>
      </trkpt>
      <trkpt lat="44.66707" lon="5.01387">
        <ele>338.6</ele>
        <time>2019-04-15T08:54:46Z</time>
      </trkpt>
      <trkpt lat="44.66693" lon="5.01412">
        <ele>339.6</ele>
        <time>2019-04-15T08:54:50Z</time>
      </trkpt>
      <trkpt lat="44.66679" lon="5.01436">
        <ele>340.8</ele>
        <time>2019-04-15T08:54:54Z</time>
      </trkpt>
      <trkpt lat="44.66665" lon="5.0146">
        <ele>341.2</ele>
        <time>2019-04-15T08:54:58Z</time>
      </trkpt>
      <trkpt lat="44.66651" lon="5.01485">
        <ele>342.2</ele>
        <time>2019-04-15T08:55:02Z</time>
      </trkpt>
      <trkpt lat="44.66636" lon="5.01507">
        <ele>343.4</ele>
        <time>2019-04-15T08:55:06Z</time>
      </trkpt>
      <trkpt lat="44.66619" lon="5.01527">
        <ele>344.4</ele>
        <time>2019-04-15T08:55:10Z</time>
      </trkpt>
      <trkpt lat="44.666" lon="5.01545">
        <ele>345.4</ele>
        <time>2019-04-15T08:55:14Z</time>
      </trkpt>
      <trkpt lat="44.66582" lon="5.01562">
        <ele>346</ele>
        <time>2019-04-15T08:55:18Z</time>
      </trkpt>
      <trkpt lat="44.66563" lon="5.01579">
        <ele>346.2</ele>
        <time>2019-04-15T08:55:22Z</time>
      </trkpt>
      <trkpt lat="44.66543" lon="5.01598">
        <ele>346.6</ele>
        <time>2019-04-15T08:55:26Z</time>
      </trkpt>
      <trkpt lat="44.66523" lon="5.01616">
        <ele>347</ele>
        <time>2019-04-15T08:55:30Z</time>
      </trkpt>
      <trkpt lat="44.66503" lon="5.01635">
        <ele>347.8</ele>
        <time>2019-04-15T08:55:34Z</time>
      </trkpt>
      <trkpt lat="44.66484" lon="5.01654">
        <ele>349.2</ele>
        <time>2019-04-15T08:55:38Z</time>
      </trkpt>
      <trkpt lat="44.66465" lon="5.01671">
        <ele>349.6</ele>
        <time>2019-04-15T08:55:42Z</time>
      </trkpt>
      <trkpt lat="44.66447" lon="5.01688">
        <ele>351.4</ele>
        <time>2019-04-15T08:55:46Z</time>
      </trkpt>
      <trkpt lat="44.66428" lon="5.01705">
        <ele>352.6</ele>
        <time>2019-04-15T08:55:50Z</time>
      </trkpt>
      <trkpt lat="44.6641" lon="5.01722">
        <ele>353</ele>
        <time>2019-04-15T08:55:54Z</time>
      </trkpt>
      <trkpt lat="44.66392" lon="5.01739">
        <ele>354.4</ele>
        <time>2019-04-15T08:55:58Z</time>
      </trkpt>
      <trkpt lat="44.66374" lon="5.01756">
        <ele>354.8</ele>
        <time>2019-04-15T08:56:02Z</time>
      </trkpt>
      <trkpt lat="44.66355" lon="5.01773">
        <ele>356.6</ele>
        <time>2019-04-15T08:56:06Z</time>
      </trkpt>
      <trkpt lat="44.66338" lon="5.0179">
        <ele>357.4</ele>
        <time>2019-04-15T08:56:10Z</time>
      </trkpt>
      <trkpt lat="44.6632" lon="5.01806">
        <ele>358.4</ele>
        <time>2019-04-15T08:56:14Z</time>
      </trkpt>
      <trkpt lat="44.66302" lon="5.01822">
        <ele>359.4</ele>
        <time>2019-04-15T08:56:18Z</time>
      </trkpt>
      <trkpt lat="44.66285" lon="5.01838">
        <ele>360.2</ele>
        <time>2019-04-15T08:56:22Z</time>
      </trkpt>
      <trkpt lat="44.66267" lon="5.01855">
        <ele>361</ele>
        <time>2019-04-15T08:56:26Z</time>
      </trkpt>
      <trkpt lat="44.6625" lon="5.01871">
        <ele>362.2</ele>
        <time>2019-04-15T08:56:30Z</time>
      </trkpt>
      <trkpt lat="44.66233" lon="5.01887">
        <ele>363.6</ele>
        <time>2019-04-15T08:56:34Z</time>
      </trkpt>
      <trkpt lat="44.66216" lon="5.01903">
        <ele>364.2</ele>
        <time>2019-04-15T08:56:38Z</time>
      </trkpt>
      <trkpt lat="44.66199" lon="5.01919">
        <ele>365.2</ele>
        <time>2019-04-15T08:56:42Z</time>
      </trkpt>
      <trkpt lat="44.66182" lon="5.01936">
        <ele>365.8</ele>
        <time>2019-04-15T08:56:46Z</time>
      </trkpt>
      <trkpt lat="44.66165" lon="5.01952">
        <ele>366.6</ele>
        <time>2019-04-15T08:56:50Z</time>
      </trkpt>
      <trkpt lat="44.66148" lon="5.01969">
        <ele>368.2</ele>
        <time>2019-04-15T08:56:54Z</time>
      </trkpt>
      <trkpt lat="44.6613" lon="5.01984">
        <ele>369.2</ele>
        <time>2019-04-15T08:56:58Z</time>
      </trkpt>
      <trkpt lat="44.66113" lon="5.02">
        <ele>370.4</ele>
        <time>2019-04-15T08:57:02Z</time>
      </trkpt>
      <trkpt lat="44.66096" lon="5.02017">
        <ele>371.4</ele>
        <time>2019-04-15T08:57:06Z</time>
      </trkpt>
      <trkpt lat="44.66078" lon="5.02033">
        <ele>372.4</ele>
        <time>2019-04-15T08:57:10Z</time>
      </trkpt>
      <trkpt lat="44.66059" lon="5.02048">
        <ele>372.4</ele>
        <time>2019-04-15T08:57:14Z</time>
      </trkpt>
      <trkpt lat="44.6604" lon="5.02062">
        <ele>373.4</ele>
        <time>2019-04-15T08:57:18Z</time>
      </trkpt>
      <trkpt lat="44.6602" lon="5.02076">
        <ele>373.8</ele>
        <time>2019-04-15T08:57:22Z</time>
      </trkpt>
      <trkpt lat="44.66" lon="5.02087">
        <ele>375</ele>
        <time>2019-04-15T08:57:26Z</time>
      </trkpt>
      <trkpt lat="44.65979" lon="5.02093">
        <ele>375.2</ele>
        <time>2019-04-15T08:57:30Z</time>
      </trkpt>
      <trkpt lat="44.65957" lon="5.02091">
        <ele>376.4</ele>
        <time>2019-04-15T08:57:34Z</time>
      </trkpt>
      <trkpt lat="44.65936" lon="5.02086">
        <ele>377.6</ele>
        <time>2019-04-15T08:57:38Z</time>
      </trkpt>
      <trkpt lat="44.65915" lon="5.02076">
        <ele>378.6</ele>
        <time>2019-04-15T08:57:42Z</time>
      </trkpt>
      <trkpt lat="44.65896" lon="5.02062">
        <ele>380</ele>
        <time>2019-04-15T08:57:46Z</time>
      </trkpt>
      <trkpt lat="44.65878" lon="5.02044">
        <ele>380.4</ele>
        <time>2019-04-15T08:57:50Z</time>
      </trkpt>
      <trkpt lat="44.65864" lon="5.0202">
        <ele>381.4</ele>
        <time>2019-04-15T08:57:54Z</time>
      </trkpt>
      <trkpt lat="44.65852" lon="5.01993">
        <ele>381.8</ele>
        <time>2019-04-15T08:57:58Z</time>
      </trkpt>
      <trkpt lat="44.65845" lon="5.01963">
        <ele>382.4</ele>
        <time>2019-04-15T08:58:02Z</time>
      </trkpt>
      <trkpt lat="44.65844" lon="5.01933">
        <ele>383.4</ele>
        <time>2019-04-15T08:58:06Z</time>
      </trkpt>
      <trkpt lat="44.65843" lon="5.01902">
        <ele>384</ele>
        <time>2019-04-15T08:58:10Z</time>
      </trkpt>
      <trkpt lat="44.65842" lon="5.01872">
        <ele>384.6</ele>
        <time>2019-04-15T08:58:14Z</time>
      </trkpt>
      <trkpt lat="44.65839" lon="5.01843">
        <ele>385</ele>
        <time>2019-04-15T08:58:18Z</time>
      </trkpt>
      <trkpt lat="44.65834" lon="5.01814">
        <ele>386</ele>
        <time>2019-04-15T08:58:22Z</time>
      </trkpt>
      <trkpt lat="44.65831" lon="5.01787">
        <ele>386.4</ele>
        <time>2019-04-15T08:58:26Z</time>
      </trkpt>
      <trkpt lat="44.65827" lon="5.01761">
        <ele>387.2</ele>
        <time>2019-04-15T08:58:30Z</time>
      </trkpt>
      <trkpt lat="44.65819" lon="5.01733">
        <ele>387.2</ele>
        <time>2019-04-15T08:58:34Z</time>
      </trkpt>
      <trkpt lat="44.65815" lon="5.01707">
        <ele>387.8</ele>
        <time>2019-04-15T08:58:38Z</time>
      </trkpt>
      <trkpt lat="44.65802" lon="5.01679">
        <ele>388.2</ele>
        <time>2019-04-15T08:58:42Z</time>
      </trkpt>
      <trkpt lat="44.6578" lon="5.01651">
        <ele>388.8</ele>
        <time>2019-04-15T08:58:46Z</time>
      </trkpt>
      <trkpt lat="44.65761" lon="5.01629">
        <ele>389.6</ele>
        <time>2019-04-15T08:58:50Z</time>
      </trkpt>
      <trkpt lat="44.65741" lon="5.01615">
        <ele>390</ele>
        <time>2019-04-15T08:58:54Z</time>
      </trkpt>
      <trkpt lat="44.6572" lon="5.01612">
        <ele>391.2</ele>
        <time>2019-04-15T08:58:58Z</time>
      </trkpt>
      <trkpt lat="44.65699" lon="5.01614">
        <ele>391.8</ele>
        <time>2019-04-15T08:59:02Z</time>
      </trkpt>
      <trkpt lat="44.65677" lon="5.01619">
        <ele>393</ele>
        <time>2019-04-15T08:59:06Z</time>
      </trkpt>
      <trkpt lat="44.65658" lon="5.0162">
        <ele>393.6</ele>
        <time>2019-04-15T08:59:10Z</time>
      </trkpt>
      <trkpt lat="44.65632" lon="5.01615">
        <ele>394</ele>
        <time>2019-04-15T08:59:14Z</time>
      </trkpt>
      <trkpt lat="44.65609" lon="5.01616">
        <ele>394.6</ele>
        <time>2019-04-15T08:59:18Z</time>
      </trkpt>
      <trkpt lat="44.65587" lon="5.01622">
        <ele>395.4</ele>
        <time>2019-04-15T08:59:22Z</time>
      </trkpt>
      <trkpt lat="44.65564" lon="5.01629">
        <ele>395.8</ele>
        <time>2019-04-15T08:59:26Z</time>
      </trkpt>
      <trkpt lat="44.65543" lon="5.01643">
        <ele>396.6</ele>
        <time>2019-04-15T08:59:30Z</time>
      </trkpt>
      <trkpt lat="44.65522" lon="5.01658">
        <ele>397.4</ele>
        <time>2019-04-15T08:59:34Z</time>
      </trkpt>
      <trkpt lat="44.65501" lon="5.01674">
        <ele>397.6</ele>
        <time>2019-04-15T08:59:38Z</time>
      </trkpt>
      <trkpt lat="44.65482" lon="5.01692">
        <ele>399</ele>
        <time>2019-04-15T08:59:42Z</time>
      </trkpt>
      <trkpt lat="44.65464" lon="5.01711">
        <ele>399.4</ele>
        <time>2019-04-15T08:59:46Z</time>
      </trkpt>
      <trkpt lat="44.65446" lon="5.0173">
        <ele>400.6</ele>
        <time>2019-04-15T08:59:50Z</time>
      </trkpt>
      <trkpt lat="44.65428" lon="5.01749">
        <ele>401.4</ele>
        <time>2019-04-15T08:59:54Z</time>
      </trkpt>
      <trkpt lat="44.65409" lon="5.01767">
        <ele>402</ele>
        <time>2019-04-15T08:59:58Z</time>
      </trkpt>
      <trkpt lat="44.65392" lon="5.01788">
        <ele>402.6</ele>
        <time>2019-04-15T09:00:02Z</time>
      </trkpt>
      <trkpt lat="44.65377" lon="5.01809">
        <ele>404.2</ele>
        <time>2019-04-15T09:00:06Z</time>
      </trkpt>
      <trkpt lat="44.65361" lon="5.01831">
        <ele>405</ele>
        <time>2019-04-15T09:00:10Z</time>
      </trkpt>
      <trkpt lat="44.65345" lon="5.01851">
        <ele>405.6</ele>
        <time>2019-04-15T09:00:14Z</time>
      </trkpt>
      <trkpt lat="44.6533" lon="5.01871">
        <ele>407.2</ele>
        <time>2019-04-15T09:00:18Z</time>
      </trkpt>
      <trkpt lat="44.65314" lon="5.01892">
        <ele>408</ele>
        <time>2019-04-15T09:00:22Z</time>
      </trkpt>
      <trkpt lat="44.653" lon="5.01915">
        <ele>409.6</ele>
        <time>2019-04-15T09:00:26Z</time>
      </trkpt>
      <trkpt lat="44.6529" lon="5.01941">
        <ele>409.8</ele>
        <time>2019-04-15T09:00:30Z</time>
      </trkpt>
      <trkpt lat="44.65285" lon="5.01971">
        <ele>411</ele>
        <time>2019-04-15T09:00:34Z</time>
      </trkpt>
      <trkpt lat="44.65285" lon="5.02002">
        <ele>411.6</ele>
        <time>2019-04-15T09:00:38Z</time>
      </trkpt>
      <trkpt lat="44.65289" lon="5.02034">
        <ele>412</ele>
        <time>2019-04-15T09:00:42Z</time>
      </trkpt>
      <trkpt lat="44.65292" lon="5.02065">
        <ele>412.8</ele>
        <time>2019-04-15T09:00:46Z</time>
      </trkpt>
      <trkpt lat="44.65293" lon="5.02098">
        <ele>413.2</ele>
        <time>2019-04-15T09:00:50Z</time>
      </trkpt>
      <trkpt lat="44.65286" lon="5.0213">
        <ele>413.2</ele>
        <time>2019-04-15T09:00:54Z</time>
      </trkpt>
      <trkpt lat="44.65272" lon="5.02156">
        <ele>413.8</ele>
        <time>2019-04-15T09:00:58Z</time>
      </trkpt>
      <trkpt lat="44.65252" lon="5.02173">
        <ele>414.4</ele>
        <time>2019-04-15T09:01:02Z</time>
      </trkpt>
      <trkpt lat="44.6523" lon="5.02185">
        <ele>414.8</ele>
        <time>2019-04-15T09:01:06Z</time>
      </trkpt>
      <trkpt lat="44.65209" lon="5.02197">
        <ele>415.4</ele>
        <time>2019-04-15T09:01:10Z</time>
      </trkpt>
      <trkpt lat="44.65188" lon="5.0221">
        <ele>416.6</ele>
        <time>2019-04-15T09:01:14Z</time>
      </trkpt>
      <trkpt lat="44.65168" lon="5.02227">
        <ele>417.8</ele>
        <time>2019-04-15T09:01:18Z</time>
      </trkpt>
      <trkpt lat="44.65154" lon="5.02251">
        <ele>418.6</ele>
        <time>2019-04-15T09:01:22Z</time>
      </trkpt>
      <trkpt lat="44.65141" lon="5.02276">
        <ele>419.2</ele>
        <time>2019-04-15T09:01:26Z</time>
      </trkpt>
      <trkpt lat="44.65127" lon="5.02301">
        <ele>420.4</ele>
        <time>2019-04-15T09:01:30Z</time>
      </trkpt>
      <trkpt lat="44.65112" lon="5.02325">
        <ele>421.4</ele>
        <time>2019-04-15T09:01:34Z</time>
      </trkpt>
      <trkpt lat="44.65095" lon="5.02345">
        <ele>422.8</ele>
        <time>2019-04-15T09:01:38Z</time>
      </trkpt>
      <trkpt lat="44.65076" lon="5.02361">
        <ele>423.4</ele>
        <time>2019-04-15T09:01:42Z</time>
      </trkpt>
      <trkpt lat="44.6506" lon="5.02383">
        <ele>422.8</ele>
        <time>2019-04-15T09:01:46Z</time>
      </trkpt>
      <trkpt lat="44.65049" lon="5.02409">
        <ele>422.6</ele>
        <time>2019-04-15T09:01:50Z</time>
      </trkpt>
      <trkpt lat="44.65043" lon="5.02445">
        <ele>422.4</ele>
        <time>2019-04-15T09:01:54Z</time>
      </trkpt>
      <trkpt lat="44.65038" lon="5.02482">
        <ele>422</ele>
        <time>2019-04-15T09:01:58Z</time>
      </trkpt>
      <trkpt lat="44.65035" lon="5.02521">
        <ele>421.8</ele>
        <time>2019-04-15T09:02:02Z</time>
      </trkpt>
      <trkpt lat="44.65041" lon="5.02561">
        <ele>420.6</ele>
        <time>2019-04-15T09:02:06Z</time>
      </trkpt>
      <trkpt lat="44.65057" lon="5.026">
        <ele>420</ele>
        <time>2019-04-15T09:02:10Z</time>
      </trkpt>
      <trkpt lat="44.6508" lon="5.02632">
        <ele>419</ele>
        <time>2019-04-15T09:02:14Z</time>
      </trkpt>
      <trkpt lat="44.65109" lon="5.02663">
        <ele>417.6</ele>
        <time>2019-04-15T09:02:18Z</time>
      </trkpt>
      <trkpt lat="44.65129" lon="5.02708">
        <ele>416.4</ele>
        <time>2019-04-15T09:02:22Z</time>
      </trkpt>
      <trkpt lat="44.65139" lon="5.02759">
        <ele>415.2</ele>
        <time>2019-04-15T09:02:26Z</time>
      </trkpt>
      <trkpt lat="44.65156" lon="5.02807">
        <ele>414.2</ele>
        <time>2019-04-15T09:02:30Z</time>
      </trkpt>
      <trkpt lat="44.65178" lon="5.02851">
        <ele>413.4</ele>
        <time>2019-04-15T09:02:34Z</time>
      </trkpt>
      <trkpt lat="44.652" lon="5.02891">
        <ele>412.6</ele>
        <time>2019-04-15T09:02:38Z</time>
      </trkpt>
      <trkpt lat="44.65227" lon="5.02924">
        <ele>412</ele>
        <time>2019-04-15T09:02:42Z</time>
      </trkpt>
      <trkpt lat="44.65255" lon="5.02954">
        <ele>411.4</ele>
        <time>2019-04-15T09:02:46Z</time>
      </trkpt>
      <trkpt lat="44.65282" lon="5.02987">
        <ele>411</ele>
        <time>2019-04-15T09:02:50Z</time>
      </trkpt>
      <trkpt lat="44.65295" lon="5.03033">
        <ele>409.6</ele>
        <time>2019-04-15T09:02:54Z</time>
      </trkpt>
      <trkpt lat="44.65296" lon="5.03084">
        <ele>409.2</ele>
        <time>2019-04-15T09:02:58Z</time>
      </trkpt>
      <trkpt lat="44.65289" lon="5.03137">
        <ele>408</ele>
        <time>2019-04-15T09:03:02Z</time>
      </trkpt>
      <trkpt lat="44.65271" lon="5.03185">
        <ele>407.4</ele>
        <time>2019-04-15T09:03:06Z</time>
      </trkpt>
      <trkpt lat="44.65245" lon="5.03226">
        <ele>406.2</ele>
        <time>2019-04-15T09:03:10Z</time>
      </trkpt>
      <trkpt lat="44.65217" lon="5.03265">
        <ele>405.6</ele>
        <time>2019-04-15T09:03:14Z</time>
      </trkpt>
      <trkpt lat="44.65184" lon="5.03292">
        <ele>405.2</ele>
        <time>2019-04-15T09:03:18Z</time>
      </trkpt>
      <trkpt lat="44.65146" lon="5.03307">
        <ele>404.2</ele>
        <time>2019-04-15T09:03:22Z</time>
      </trkpt>
      <trkpt lat="44.65107" lon="5.03322">
        <ele>403</ele>
        <time>2019-04-15T09:03:26Z</time>
      </trkpt>
      <trkpt lat="44.65069" lon="5.0334">
        <ele>401.6</ele>
        <time>2019-04-15T09:03:30Z</time>
      </trkpt>
      <trkpt lat="44.65033" lon="5.0337">
        <ele>400.2</ele>
        <time>2019-04-15T09:03:34Z</time>
      </trkpt>
      <trkpt lat="44.64997" lon="5.03403">
        <ele>399</ele>
        <time>2019-04-15T09:03:38Z</time>
      </trkpt>
      <trkpt lat="44.64962" lon="5.03437">
        <ele>397.6</ele>
        <time>2019-04-15T09:03:42Z</time>
      </trkpt>
      <trkpt lat="44.6493" lon="5.03477">
        <ele>396.8</ele>
        <time>2019-04-15T09:03:46Z</time>
      </trkpt>
      <trkpt lat="44.64901" lon="5.03525">
        <ele>395.6</ele>
        <time>2019-04-15T09:03:50Z</time>
      </trkpt>
      <trkpt lat="44.64873" lon="5.03576">
        <ele>394.4</ele>
        <time>2019-04-15T09:03:54Z</time>
      </trkpt>
      <trkpt lat="44.64845" lon="5.03627">
        <ele>392.8</ele>
        <time>2019-04-15T09:03:58Z</time>
      </trkpt>
      <trkpt lat="44.64811" lon="5.03672">
        <ele>391.6</ele>
        <time>2019-04-15T09:04:02Z</time>
      </trkpt>
      <trkpt lat="44.64772" lon="5.03707">
        <ele>391.4</ele>
        <time>2019-04-15T09:04:06Z</time>
      </trkpt>
      <trkpt lat="44.64733" lon="5.03741">
        <ele>390.8</ele>
        <time>2019-04-15T09:04:10Z</time>
      </trkpt>
      <trkpt lat="44.64692" lon="5.0377">
        <ele>389.2</ele>
        <time>2019-04-15T09:04:14Z</time>
      </trkpt>
      <trkpt lat="44.64649" lon="5.03797">
        <ele>386.8</ele>
        <time>2019-04-15T09:04:18Z</time>
      </trkpt>
      <trkpt lat="44.64608" lon="5.03829">
        <ele>385</ele>
        <time>2019-04-15T09:04:22Z</time>
      </trkpt>
      <trkpt lat="44.64586" lon="5.03886">
        <ele>382.6</ele>
        <time>2019-04-15T09:04:26Z</time>
      </trkpt>
      <trkpt lat="44.64599" lon="5.03951">
        <ele>380.8</ele>
        <time>2019-04-15T09:04:30Z</time>
      </trkpt>
      <trkpt lat="44.64625" lon="5.04009">
        <ele>377.6</ele>
        <time>2019-04-15T09:04:34Z</time>
      </trkpt>
      <trkpt lat="44.64653" lon="5.04066">
        <ele>374.6</ele>
        <time>2019-04-15T09:04:38Z</time>
      </trkpt>
      <trkpt lat="44.64671" lon="5.0413">
        <ele>373</ele>
        <time>2019-04-15T09:04:42Z</time>
      </trkpt>
      <trkpt lat="44.64662" lon="5.04197">
        <ele>370</ele>
        <time>2019-04-15T09:04:46Z</time>
      </trkpt>
      <trkpt lat="44.64644" lon="5.04258">
        <ele>367.8</ele>
        <time>2019-04-15T09:04:50Z</time>
      </trkpt>
      <trkpt lat="44.64629" lon="5.04319">
        <ele>366.2</ele>
        <time>2019-04-15T09:04:54Z</time>
      </trkpt>
      <trkpt lat="44.64616" lon="5.04384">
        <ele>364.2</ele>
        <time>2019-04-15T09:04:58Z</time>
      </trkpt>
      <trkpt lat="44.64603" lon="5.04448">
        <ele>363</ele>
        <time>2019-04-15T09:05:02Z</time>
      </trkpt>
      <trkpt lat="44.64592" lon="5.04512">
        <ele>362.2</ele>
        <time>2019-04-15T09:05:06Z</time>
      </trkpt>
      <trkpt lat="44.64585" lon="5.04574">
        <ele>360.8</ele>
        <time>2019-04-15T09:05:10Z</time>
      </trkpt>
      <trkpt lat="44.64574" lon="5.04632">
        <ele>360.6</ele>
        <time>2019-04-15T09:05:14Z</time>
      </trkpt>
      <trkpt lat="44.64553" lon="5.04682">
        <ele>359.2</ele>
        <time>2019-04-15T09:05:18Z</time>
      </trkpt>
      <trkpt lat="44.64536" lon="5.04736">
        <ele>358.2</ele>
        <time>2019-04-15T09:05:22Z</time>
      </trkpt>
      <trkpt lat="44.64518" lon="5.04791">
        <ele>356.6</ele>
        <time>2019-04-15T09:05:26Z</time>
      </trkpt>
      <trkpt lat="44.64489" lon="5.04839">
        <ele>353.6</ele>
        <time>2019-04-15T09:05:30Z</time>
      </trkpt>
      <trkpt lat="44.64451" lon="5.04875">
        <ele>351.8</ele>
        <time>2019-04-15T09:05:34Z</time>
      </trkpt>
      <trkpt lat="44.64414" lon="5.04911">
        <ele>350.6</ele>
        <time>2019-04-15T09:05:38Z</time>
      </trkpt>
      <trkpt lat="44.64377" lon="5.04948">
        <ele>348.6</ele>
        <time>2019-04-15T09:05:42Z</time>
      </trkpt>
      <trkpt lat="44.64349" lon="5.04998">
        <ele>347.2</ele>
        <time>2019-04-15T09:05:46Z</time>
      </trkpt>
      <trkpt lat="44.64348" lon="5.05064">
        <ele>345.6</ele>
        <time>2019-04-15T09:05:50Z</time>
      </trkpt>
      <trkpt lat="44.64353" lon="5.05126">
        <ele>344.2</ele>
        <time>2019-04-15T09:05:54Z</time>
      </trkpt>
      <trkpt lat="44.64359" lon="5.05185">
        <ele>343.4</ele>
        <time>2019-04-15T09:05:58Z</time>
      </trkpt>
      <trkpt lat="44.64363" lon="5.05239">
        <ele>343</ele>
        <time>2019-04-15T09:06:02Z</time>
      </trkpt>
      <trkpt lat="44.64367" lon="5.0529">
        <ele>342.2</ele>
        <time>2019-04-15T09:06:06Z</time>
      </trkpt>
      <trkpt lat="44.64377" lon="5.0534">
        <ele>341.4</ele>
        <time>2019-04-15T09:06:10Z</time>
      </trkpt>
      <trkpt lat="44.64393" lon="5.05387">
        <ele>341.4</ele>
        <time>2019-04-15T09:06:14Z</time>
      </trkpt>
      <trkpt lat="44.64409" lon="5.05433">
        <ele>341.6</ele>
        <time>2019-04-15T09:06:18Z</time>
      </trkpt>
      <trkpt lat="44.64424" lon="5.05476">
        <ele>341.6</ele>
        <time>2019-04-15T09:06:22Z</time>
      </trkpt>
      <trkpt lat="44.64439" lon="5.05518">
        <ele>342</ele>
        <time>2019-04-15T09:06:26Z</time>
      </trkpt>
      <trkpt lat="44.64452" lon="5.05559">
        <ele>342.2</ele>
        <time>2019-04-15T09:06:30Z</time>
      </trkpt>
      <trkpt lat="44.64464" lon="5.056">
        <ele>341.6</ele>
        <time>2019-04-15T09:06:34Z</time>
      </trkpt>
      <trkpt lat="44.64474" lon="5.05643">
        <ele>341.6</ele>
        <time>2019-04-15T09:06:38Z</time>
      </trkpt>
      <trkpt lat="44.64464" lon="5.05677">
        <ele>341.6</ele>
        <time>2019-04-15T09:06:42Z</time>
      </trkpt>
      <trkpt lat="44.64434" lon="5.05687">
        <ele>340.4</ele>
        <time>2019-04-15T09:06:46Z</time>
      </trkpt>
      <trkpt lat="44.64401" lon="5.05696">
        <ele>339.4</ele>
        <time>2019-04-15T09:06:50Z</time>
      </trkpt>
      <trkpt lat="44.64365" lon="5.05706">
        <ele>337.8</ele>
        <time>2019-04-15T09:06:54Z</time>
      </trkpt>
      <trkpt lat="44.64328" lon="5.05717">
        <ele>337.4</ele>
        <time>2019-04-15T09:06:58Z</time>
      </trkpt>
      <trkpt lat="44.64293" lon="5.05733">
        <ele>336.4</ele>
        <time>2019-04-15T09:07:02Z</time>
      </trkpt>
      <trkpt lat="44.64261" lon="5.05759">
        <ele>336.2</ele>
        <time>2019-04-15T09:07:06Z</time>
      </trkpt>
      <trkpt lat="44.64234" lon="5.05794">
        <ele>335.4</ele>
        <time>2019-04-15T09:07:10Z</time>
      </trkpt>
      <trkpt lat="44.64212" lon="5.05835">
        <ele>334.8</ele>
        <time>2019-04-15T09:07:14Z</time>
      </trkpt>
      <trkpt lat="44.64195" lon="5.05881">
        <ele>334.6</ele>
        <time>2019-04-15T09:07:18Z</time>
      </trkpt>
      <trkpt lat="44.64182" lon="5.05929">
        <ele>334.2</ele>
        <time>2019-04-15T09:07:22Z</time>
      </trkpt>
      <trkpt lat="44.64169" lon="5.05975">
        <ele>334.6</ele>
        <time>2019-04-15T09:07:26Z</time>
      </trkpt>
      <trkpt lat="44.64157" lon="5.06015">
        <ele>334.6</ele>
        <time>2019-04-15T09:07:30Z</time>
      </trkpt>
      <trkpt lat="44.64144" lon="5.06048">
        <ele>336.2</ele>
        <time>2019-04-15T09:07:34Z</time>
      </trkpt>
      <trkpt lat="44.64127" lon="5.06071">
        <ele>336.6</ele>
        <time>2019-04-15T09:07:38Z</time>
      </trkpt>
      <trkpt lat="44.64103" lon="5.06063">
        <ele>336.4</ele>
        <time>2019-04-15T09:07:42Z</time>
      </trkpt>
      <trkpt lat="44.64078" lon="5.06039">
        <ele>336.6</ele>
        <time>2019-04-15T09:07:46Z</time>
      </trkpt>
      <trkpt lat="44.6405" lon="5.06016">
        <ele>335.2</ele>
        <time>2019-04-15T09:07:50Z</time>
      </trkpt>
      <trkpt lat="44.64017" lon="5.06006">
        <ele>334</ele>
        <time>2019-04-15T09:07:54Z</time>
      </trkpt>
      <trkpt lat="44.63982" lon="5.06011">
        <ele>333.4</ele>
        <time>2019-04-15T09:07:58Z</time>
      </trkpt>
      <trkpt lat="44.6395" lon="5.06032">
        <ele>332.6</ele>
        <time>2019-04-15T09:08:02Z</time>
      </trkpt>
      <trkpt lat="44.63923" lon="5.06065">
        <ele>331.8</ele>
        <time>2019-04-15T09:08:06Z</time>
      </trkpt>
      <trkpt lat="44.639" lon="5.06103">
        <ele>331.4</ele>
        <time>2019-04-15T09:08:10Z</time>
      </trkpt>
      <trkpt lat="44.63876" lon="5.06142">
        <ele>330.4</ele>
        <time>2019-04-15T09:08:14Z</time>
      </trkpt>
      <trkpt lat="44.63852" lon="5.0618">
        <ele>329.6</ele>
        <time>2019-04-15T09:08:18Z</time>
      </trkpt>
      <trkpt lat="44.63828" lon="5.06218">
        <ele>329.2</ele>
        <time>2019-04-15T09:08:22Z</time>
      </trkpt>
      <trkpt lat="44.63805" lon="5.06255">
        <ele>329.4</ele>
        <time>2019-04-15T09:08:26Z</time>
      </trkpt>
      <trkpt lat="44.63782" lon="5.06292">
        <ele>329.2</ele>
        <time>2019-04-15T09:08:30Z</time>
      </trkpt>
      <trkpt lat="44.63759" lon="5.06327">
        <ele>329.4</ele>
        <time>2019-04-15T09:08:34Z</time>
      </trkpt>
      <trkpt lat="44.63738" lon="5.06361">
        <ele>329</ele>
        <time>2019-04-15T09:08:38Z</time>
      </trkpt>
      <trkpt lat="44.6372" lon="5.06396">
        <ele>330</ele>
        <time>2019-04-15T09:08:42Z</time>
      </trkpt>
      <trkpt lat="44.63706" lon="5.06432">
        <ele>330.2</ele>
        <time>2019-04-15T09:08:46Z</time>
      </trkpt>
      <trkpt lat="44.63692" lon="5.06468">
        <ele>330.6</ele>
        <time>2019-04-15T09:08:50Z</time>
      </trkpt>
      <trkpt lat="44.63679" lon="5.06505">
        <ele>331.2</ele>
        <time>2019-04-15T09:08:54Z</time>
      </trkpt>
      <trkpt lat="44.63666" lon="5.06543">
        <ele>330.8</ele>
        <time>2019-04-15T09:08:58Z</time>
      </trkpt>
      <trkpt lat="44.63652" lon="5.06582">
        <ele>330.2</ele>
        <time>2019-04-15T09:09:02Z</time>
      </trkpt>
      <trkpt lat="44.63637" lon="5.06625">
        <ele>329.2</ele>
        <time>2019-04-15T09:09:06Z</time>
      </trkpt>
      <trkpt lat="44.63622" lon="5.06668">
        <ele>329</ele>
        <time>2019-04-15T09:09:10Z</time>
      </trkpt>
      <trkpt lat="44.63607" lon="5.06713">
        <ele>328.6</ele>
        <time>2019-04-15T09:09:14Z</time>
      </trkpt>
      <trkpt lat="44.63591" lon="5.06757">
        <ele>328.4</ele>
        <time>2019-04-15T09:09:18Z</time>
      </trkpt>
      <trkpt lat="44.63576" lon="5.068">
        <ele>328.4</ele>
        <time>2019-04-15T09:09:22Z</time>
      </trkpt>
      <trkpt lat="44.63562" lon="5.06842">
        <ele>328.4</ele>
        <time>2019-04-15T09:09:26Z</time>
      </trkpt>
      <trkpt lat="44.63547" lon="5.06883">
        <ele>328.4</ele>
        <time>2019-04-15T09:09:30Z</time>
      </trkpt>
      <trkpt lat="44.63533" lon="5.06923">
        <ele>328.4</ele>
        <time>2019-04-15T09:09:34Z</time>
      </trkpt>
      <trkpt lat="44.63519" lon="5.06961">
        <ele>329.4</ele>
        <time>2019-04-15T09:09:38Z</time>
      </trkpt>
      <trkpt lat="44.63506" lon="5.06998">
        <ele>330.4</ele>
        <time>2019-04-15T09:09:42Z</time>
      </trkpt>
      <trkpt lat="44.63493" lon="5.07033">
        <ele>330.8</ele>
        <time>2019-04-15T09:09:46Z</time>
      </trkpt>
      <trkpt lat="44.63481" lon="5.07069">
        <ele>331</ele>
        <time>2019-04-15T09:09:50Z</time>
      </trkpt>
      <trkpt lat="44.63468" lon="5.07105">
        <ele>331.2</ele>
        <time>2019-04-15T09:09:54Z</time>
      </trkpt>
      <trkpt lat="44.63455" lon="5.07142">
        <ele>331.2</ele>
        <time>2019-04-15T09:09:58Z</time>
      </trkpt>
      <trkpt lat="44.63441" lon="5.07181">
        <ele>330.6</ele>
        <time>2019-04-15T09:10:02Z</time>
      </trkpt>
      <trkpt lat="44.63428" lon="5.0722">
        <ele>330.4</ele>
        <time>2019-04-15T09:10:06Z</time>
      </trkpt>
      <trkpt lat="44.63414" lon="5.07258">
        <ele>330.8</ele>
        <time>2019-04-15T09:10:10Z</time>
      </trkpt>
      <trkpt lat="44.63401" lon="5.07297">
        <ele>331</ele>
        <time>2019-04-15T09:10:14Z</time>
      </trkpt>
      <trkpt lat="44.63387" lon="5.07334">
        <ele>331.2</ele>
        <time>2019-04-15T09:10:18Z</time>
      </trkpt>
      <trkpt lat="44.63374" lon="5.07371">
        <ele>331.4</ele>
        <time>2019-04-15T09:10:22Z</time>
      </trkpt>
      <trkpt lat="44.63362" lon="5.07406">
        <ele>331.8</ele>
        <time>2019-04-15T09:10:26Z</time>
      </trkpt>
      <trkpt lat="44.63351" lon="5.07439">
        <ele>332.4</ele>
        <time>2019-04-15T09:10:30Z</time>
      </trkpt>
      <trkpt lat="44.63339" lon="5.07472">
        <ele>333.6</ele>
        <time>2019-04-15T09:10:34Z</time>
      </trkpt>
      <trkpt lat="44.63327" lon="5.07505">
        <ele>334.8</ele>
        <time>2019-04-15T09:10:38Z</time>
      </trkpt>
      <trkpt lat="44.63316" lon="5.07537">
        <ele>335.4</ele>
        <time>2019-04-15T09:10:42Z</time>
      </trkpt>
      <trkpt lat="44.63304" lon="5.0757">
        <ele>336.4</ele>
        <time>2019-04-15T09:10:46Z</time>
      </trkpt>
      <trkpt lat="44.63292" lon="5.07603">
        <ele>337</ele>
        <time>2019-04-15T09:10:50Z</time>
      </trkpt>
      <trkpt lat="44.6328" lon="5.07637">
        <ele>338</ele>
        <time>2019-04-15T09:10:54Z</time>
      </trkpt>
      <trkpt lat="44.63268" lon="5.07671">
        <ele>338.6</ele>
        <time>2019-04-15T09:10:58Z</time>
      </trkpt>
      <trkpt lat="44.63257" lon="5.07705">
        <ele>339</ele>
        <time>2019-04-15T09:11:02Z</time>
      </trkpt>
      <trkpt lat="44.63247" lon="5.0774">
        <ele>339.6</ele>
        <time>2019-04-15T09:11:06Z</time>
      </trkpt>
      <trkpt lat="44.63241" lon="5.07778">
        <ele>339.8</ele>
        <time>2019-04-15T09:11:10Z</time>
      </trkpt>
      <trkpt lat="44.63238" lon="5.07817">
        <ele>339.2</ele>
        <time>2019-04-15T09:11:14Z</time>
      </trkpt>
      <trkpt lat="44.63237" lon="5.07858">
        <ele>339.2</ele>
        <time>2019-04-15T09:11:18Z</time>
      </trkpt>
      <trkpt lat="44.63235" lon="5.079">
        <ele>339.2</ele>
        <time>2019-04-15T09:11:22Z</time>
      </trkpt>
      <trkpt lat="44.63234" lon="5.07942">
        <ele>339.2</ele>
        <time>2019-04-15T09:11:26Z</time>
      </trkpt>
      <trkpt lat="44.63232" lon="5.07984">
        <ele>339.2</ele>
        <time>2019-04-15T09:11:30Z</time>
      </trkpt>
      <trkpt lat="44.63231" lon="5.08025">
        <ele>339.6</ele>
        <time>2019-04-15T09:11:34Z</time>
      </trkpt>
      <trkpt lat="44.63229" lon="5.08066">
        <ele>339.8</ele>
        <time>2019-04-15T09:11:38Z</time>
      </trkpt>
      <trkpt lat="44.63224" lon="5.08106">
        <ele>340.6</ele>
        <time>2019-04-15T09:11:42Z</time>
      </trkpt>
      <trkpt lat="44.63214" lon="5.08143">
        <ele>341.6</ele>
        <time>2019-04-15T09:11:46Z</time>
      </trkpt>
      <trkpt lat="44.63204" lon="5.08178">
        <ele>342</ele>
        <time>2019-04-15T09:11:50Z</time>
      </trkpt>
      <trkpt lat="44.63193" lon="5.08213">
        <ele>343</ele>
        <time>2019-04-15T09:11:54Z</time>
      </trkpt>
      <trkpt lat="44.63183" lon="5.08248">
        <ele>343.8</ele>
        <time>2019-04-15T09:11:58Z</time>
      </trkpt>
      <trkpt lat="44.63173" lon="5.08282">
        <ele>344</ele>
        <time>2019-04-15T09:12:02Z</time>
      </trkpt>
      <trkpt lat="44.63163" lon="5.08316">
        <ele>344.8</ele>
        <time>2019-04-15T09:12:06Z</time>
      </trkpt>
      <trkpt lat="44.63154" lon="5.08352">
        <ele>345.2</ele>
        <time>2019-04-15T09:12:10Z</time>
      </trkpt>
      <trkpt lat="44.63148" lon="5.08388">
        <ele>345.4</ele>
        <time>2019-04-15T09:12:14Z</time>
      </trkpt>
      <trkpt lat="44.6314" lon="5.08426">
        <ele>346</ele>
        <time>2019-04-15T09:12:18Z</time>
      </trkpt>
      <trkpt lat="44.63132" lon="5.08464">
        <ele>346</ele>
        <time>2019-04-15T09:12:22Z</time>
      </trkpt>
      <trkpt lat="44.63124" lon="5.08502">
        <ele>346</ele>
        <time>2019-04-15T09:12:26Z</time>
      </trkpt>
      <trkpt lat="44.63117" lon="5.0854">
        <ele>346.4</ele>
        <time>2019-04-15T09:12:30Z</time>
      </trkpt>
      <trkpt lat="44.63109" lon="5.08577">
        <ele>347</ele>
        <time>2019-04-15T09:12:34Z</time>
      </trkpt>
      <trkpt lat="44.63102" lon="5.08613">
        <ele>347.4</ele>
        <time>2019-04-15T09:12:38Z</time>
      </trkpt>
      <trkpt lat="44.63095" lon="5.0865">
        <ele>348</ele>
        <time>2019-04-15T09:12:42Z</time>
      </trkpt>
      <trkpt lat="44.63088" lon="5.08686">
        <ele>348.4</ele>
        <time>2019-04-15T09:12:46Z</time>
      </trkpt>
      <trkpt lat="44.63081" lon="5.08722">
        <ele>348.6</ele>
        <time>2019-04-15T09:12:50Z</time>
      </trkpt>
      <trkpt lat="44.63074" lon="5.08757">
        <ele>349.6</ele>
        <time>2019-04-15T09:12:54Z</time>
      </trkpt>
      <trkpt lat="44.63066" lon="5.08794">
        <ele>350</ele>
        <time>2019-04-15T09:12:58Z</time>
      </trkpt>
      <trkpt lat="44.63059" lon="5.0883">
        <ele>350.4</ele>
        <time>2019-04-15T09:13:02Z</time>
      </trkpt>
      <trkpt lat="44.63052" lon="5.08867">
        <ele>350.6</ele>
        <time>2019-04-15T09:13:06Z</time>
      </trkpt>
      <trkpt lat="44.63045" lon="5.08903">
        <ele>351.4</ele>
        <time>2019-04-15T09:13:10Z</time>
      </trkpt>
      <trkpt lat="44.63032" lon="5.08938">
        <ele>351.2</ele>
        <time>2019-04-15T09:13:14Z</time>
      </trkpt>
      <trkpt lat="44.63017" lon="5.0897">
        <ele>352.2</ele>
        <time>2019-04-15T09:13:18Z</time>
      </trkpt>
      <trkpt lat="44.63" lon="5.09">
        <ele>352.6</ele>
        <time>2019-04-15T09:13:22Z</time>
      </trkpt>
      <trkpt lat="44.62983" lon="5.0903">
        <ele>354.4</ele>
        <time>2019-04-15T09:13:26Z</time>
      </trkpt>
      <trkpt lat="44.62965" lon="5.09059">
        <ele>354.4</ele>
        <time>2019-04-15T09:13:30Z</time>
      </trkpt>
      <trkpt lat="44.62947" lon="5.09091">
        <ele>353.8</ele>
        <time>2019-04-15T09:13:34Z</time>
      </trkpt>
      <trkpt lat="44.62928" lon="5.09124">
        <ele>353.6</ele>
        <time>2019-04-15T09:13:38Z</time>
      </trkpt>
      <trkpt lat="44.62908" lon="5.09159">
        <ele>353.6</ele>
        <time>2019-04-15T09:13:42Z</time>
      </trkpt>
      <trkpt lat="44.62888" lon="5.09194">
        <ele>351.8</ele>
        <time>2019-04-15T09:13:46Z</time>
      </trkpt>
      <trkpt lat="44.62868" lon="5.09229">
        <ele>351</ele>
        <time>2019-04-15T09:13:50Z</time>
      </trkpt>
      <trkpt lat="44.62847" lon="5.09265">
        <ele>350.8</ele>
        <time>2019-04-15T09:13:54Z</time>
      </trkpt>
      <trkpt lat="44.62825" lon="5.09299">
        <ele>350.6</ele>
        <time>2019-04-15T09:13:58Z</time>
      </trkpt>
      <trkpt lat="44.62799" lon="5.09323">
        <ele>351.2</ele>
        <time>2019-04-15T09:14:02Z</time>
      </trkpt>
      <trkpt lat="44.62773" lon="5.09343">
        <ele>351.2</ele>
        <time>2019-04-15T09:14:06Z</time>
      </trkpt>
      <trkpt lat="44.62748" lon="5.09362">
        <ele>352</ele>
        <time>2019-04-15T09:14:10Z</time>
      </trkpt>
      <trkpt lat="44.62724" lon="5.0938">
        <ele>352.8</ele>
        <time>2019-04-15T09:14:14Z</time>
      </trkpt>
      <trkpt lat="44.62701" lon="5.09398">
        <ele>353</ele>
        <time>2019-04-15T09:14:18Z</time>
      </trkpt>
      <trkpt lat="44.62678" lon="5.09416">
        <ele>354</ele>
        <time>2019-04-15T09:14:22Z</time>
      </trkpt>
      <trkpt lat="44.62655" lon="5.09434">
        <ele>354.6</ele>
        <time>2019-04-15T09:14:26Z</time>
      </trkpt>
      <trkpt lat="44.62632" lon="5.09452">
        <ele>355.8</ele>
        <time>2019-04-15T09:14:30Z</time>
      </trkpt>
      <trkpt lat="44.62609" lon="5.09469">
        <ele>355.6</ele>
        <time>2019-04-15T09:14:34Z</time>
      </trkpt>
      <trkpt lat="44.62587" lon="5.09486">
        <ele>356.4</ele>
        <time>2019-04-15T09:14:38Z</time>
      </trkpt>
      <trkpt lat="44.62565" lon="5.09503">
        <ele>356</ele>
        <time>2019-04-15T09:14:42Z</time>
      </trkpt>
      <trkpt lat="44.62544" lon="5.09521">
        <ele>357.2</ele>
        <time>2019-04-15T09:14:46Z</time>
      </trkpt>
      <trkpt lat="44.62523" lon="5.0954">
        <ele>357.6</ele>
        <time>2019-04-15T09:14:50Z</time>
      </trkpt>
      <trkpt lat="44.62503" lon="5.09562">
        <ele>358.8</ele>
        <time>2019-04-15T09:14:54Z</time>
      </trkpt>
      <trkpt lat="44.62483" lon="5.09585">
        <ele>359.2</ele>
        <time>2019-04-15T09:14:58Z</time>
      </trkpt>
      <trkpt lat="44.62464" lon="5.09609">
        <ele>360.2</ele>
        <time>2019-04-15T09:15:02Z</time>
      </trkpt>
      <trkpt lat="44.62446" lon="5.09632">
        <ele>360.6</ele>
        <time>2019-04-15T09:15:06Z</time>
      </trkpt>
      <trkpt lat="44.62427" lon="5.09656">
        <ele>361.6</ele>
        <time>2019-04-15T09:15:10Z</time>
      </trkpt>
      <trkpt lat="44.62408" lon="5.0968">
        <ele>362</ele>
        <time>2019-04-15T09:15:14Z</time>
      </trkpt>
      <trkpt lat="44.62389" lon="5.09703">
        <ele>363.4</ele>
        <time>2019-04-15T09:15:18Z</time>
      </trkpt>
      <trkpt lat="44.6237" lon="5.09726">
        <ele>363</ele>
        <time>2019-04-15T09:15:22Z</time>
      </trkpt>
      <trkpt lat="44.62351" lon="5.0975">
        <ele>363</ele>
        <time>2019-04-15T09:15:26Z</time>
      </trkpt>
      <trkpt lat="44.62331" lon="5.09774">
        <ele>363.6</ele>
        <time>2019-04-15T09:15:30Z</time>
      </trkpt>
      <trkpt lat="44.62311" lon="5.09799">
        <ele>363.8</ele>
        <time>2019-04-15T09:15:34Z</time>
      </trkpt>
      <trkpt lat="44.62293" lon="5.09824">
        <ele>364.4</ele>
        <time>2019-04-15T09:15:38Z</time>
      </trkpt>
      <trkpt lat="44.62278" lon="5.09851">
        <ele>365.2</ele>
        <time>2019-04-15T09:15:42Z</time>
      </trkpt>
      <trkpt lat="44.62269" lon="5.09883">
        <ele>366.6</ele>
        <time>2019-04-15T09:15:46Z</time>
      </trkpt>
      <trkpt lat="44.6226" lon="5.09914">
        <ele>367.4</ele>
        <time>2019-04-15T09:15:50Z</time>
      </trkpt>
      <trkpt lat="44.62245" lon="5.09941">
        <ele>367.8</ele>
        <time>2019-04-15T09:15:54Z</time>
      </trkpt>
      <trkpt lat="44.62224" lon="5.0996">
        <ele>367.6</ele>
        <time>2019-04-15T09:15:58Z</time>
      </trkpt>
      <trkpt lat="44.62198" lon="5.09966">
        <ele>367.6</ele>
        <time>2019-04-15T09:16:02Z</time>
      </trkpt>
      <trkpt lat="44.62169" lon="5.0996">
        <ele>367.4</ele>
        <time>2019-04-15T09:16:06Z</time>
      </trkpt>
      <trkpt lat="44.62139" lon="5.09954">
        <ele>367</ele>
        <time>2019-04-15T09:16:10Z</time>
      </trkpt>
      <trkpt lat="44.62109" lon="5.09949">
        <ele>367.4</ele>
        <time>2019-04-15T09:16:14Z</time>
      </trkpt>
      <trkpt lat="44.62079" lon="5.09943">
        <ele>367.6</ele>
        <time>2019-04-15T09:16:18Z</time>
      </trkpt>
      <trkpt lat="44.62049" lon="5.09938">
        <ele>367.8</ele>
        <time>2019-04-15T09:16:22Z</time>
      </trkpt>
      <trkpt lat="44.62019" lon="5.09938">
        <ele>368.2</ele>
        <time>2019-04-15T09:16:26Z</time>
      </trkpt>
      <trkpt lat="44.6199" lon="5.0995">
        <ele>367.6</ele>
        <time>2019-04-15T09:16:30Z</time>
      </trkpt>
      <trkpt lat="44.61968" lon="5.09979">
        <ele>368</ele>
        <time>2019-04-15T09:16:34Z</time>
      </trkpt>
      <trkpt lat="44.61949" lon="5.10011">
        <ele>368.2</ele>
        <time>2019-04-15T09:16:38Z</time>
      </trkpt>
      <trkpt lat="44.61931" lon="5.10046">
        <ele>368.8</ele>
        <time>2019-04-15T09:16:42Z</time>
      </trkpt>
      <trkpt lat="44.61914" lon="5.10078">
        <ele>369.6</ele>
        <time>2019-04-15T09:16:46Z</time>
      </trkpt>
      <trkpt lat="44.61896" lon="5.10105">
        <ele>370</ele>
        <time>2019-04-15T09:16:50Z</time>
      </trkpt>
      <trkpt lat="44.61874" lon="5.10126">
        <ele>370.2</ele>
        <time>2019-04-15T09:16:54Z</time>
      </trkpt>
      <trkpt lat="44.61848" lon="5.10141">
        <ele>370.4</ele>
        <time>2019-04-15T09:16:58Z</time>
      </trkpt>
      <trkpt lat="44.61821" lon="5.10148">
        <ele>370.6</ele>
        <time>2019-04-15T09:17:02Z</time>
      </trkpt>
      <trkpt lat="44.61794" lon="5.10154">
        <ele>372</ele>
        <time>2019-04-15T09:17:06Z</time>
      </trkpt>
      <trkpt lat="44.61767" lon="5.10162">
        <ele>371.6</ele>
        <time>2019-04-15T09:17:10Z</time>
      </trkpt>
      <trkpt lat="44.61741" lon="5.10172">
        <ele>371.6</ele>
        <time>2019-04-15T09:17:14Z</time>
      </trkpt>
      <trkpt lat="44.61714" lon="5.10184">
        <ele>372.4</ele>
        <time>2019-04-15T09:17:18Z</time>
      </trkpt>
      <trkpt lat="44.6169" lon="5.10205">
        <ele>372.4</ele>
        <time>2019-04-15T09:17:22Z</time>
      </trkpt>
      <trkpt lat="44.61672" lon="5.10235">
        <ele>372.8</ele>
        <time>2019-04-15T09:17:26Z</time>
      </trkpt>
      <trkpt lat="44.6166" lon="5.10271">
        <ele>374</ele>
        <time>2019-04-15T09:17:30Z</time>
      </trkpt>
      <trkpt lat="44.61655" lon="5.1031">
        <ele>374.4</ele>
        <time>2019-04-15T09:17:34Z</time>
      </trkpt>
      <trkpt lat="44.61648" lon="5.10348">
        <ele>374.6</ele>
        <time>2019-04-15T09:17:38Z</time>
      </trkpt>
      <trkpt lat="44.61636" lon="5.10384">
        <ele>375.2</ele>
        <time>2019-04-15T09:17:42Z</time>
      </trkpt>
      <trkpt lat="44.61621" lon="5.10416">
        <ele>375.6</ele>
        <time>2019-04-15T09:17:46Z</time>
      </trkpt>
      <trkpt lat="44.61604" lon="5.10447">
        <ele>375.8</ele>
        <time>2019-04-15T09:17:50Z</time>
      </trkpt>
      <trkpt lat="44.61588" lon="5.10479">
        <ele>376.6</ele>
        <time>2019-04-15T09:17:54Z</time>
      </trkpt>
      <trkpt lat="44.61578" lon="5.10514">
        <ele>377</ele>
        <time>2019-04-15T09:17:58Z</time>
      </trkpt>
      <trkpt lat="44.61571" lon="5.10552">
        <ele>377.2</ele>
        <time>2019-04-15T09:18:02Z</time>
      </trkpt>
      <trkpt lat="44.61565" lon="5.10591">
        <ele>377.8</ele>
        <time>2019-04-15T09:18:06Z</time>
      </trkpt>
      <trkpt lat="44.61559" lon="5.10629">
        <ele>378</ele>
        <time>2019-04-15T09:18:10Z</time>
      </trkpt>
      <trkpt lat="44.61552" lon="5.10665">
        <ele>378.2</ele>
        <time>2019-04-15T09:18:14Z</time>
      </trkpt>
      <trkpt lat="44.61541" lon="5.10701">
        <ele>377.8</ele>
        <time>2019-04-15T09:18:18Z</time>
      </trkpt>
      <trkpt lat="44.61528" lon="5.10736">
        <ele>377.6</ele>
        <time>2019-04-15T09:18:22Z</time>
      </trkpt>
      <trkpt lat="44.61514" lon="5.10771">
        <ele>378.6</ele>
        <time>2019-04-15T09:18:26Z</time>
      </trkpt>
      <trkpt lat="44.61499" lon="5.10806">
        <ele>377.8</ele>
        <time>2019-04-15T09:18:30Z</time>
      </trkpt>
      <trkpt lat="44.61484" lon="5.10842">
        <ele>378</ele>
        <time>2019-04-15T09:18:34Z</time>
      </trkpt>
      <trkpt lat="44.61469" lon="5.10875">
        <ele>378.8</ele>
        <time>2019-04-15T09:18:38Z</time>
      </trkpt>
      <trkpt lat="44.61452" lon="5.10904">
        <ele>379.8</ele>
        <time>2019-04-15T09:18:42Z</time>
      </trkpt>
      <trkpt lat="44.61431" lon="5.10926">
        <ele>381.4</ele>
        <time>2019-04-15T09:18:46Z</time>
      </trkpt>
      <trkpt lat="44.61409" lon="5.10944">
        <ele>383</ele>
        <time>2019-04-15T09:18:50Z</time>
      </trkpt>
      <trkpt lat="44.61387" lon="5.10962">
        <ele>383</ele>
        <time>2019-04-15T09:18:54Z</time>
      </trkpt>
      <trkpt lat="44.61366" lon="5.10984">
        <ele>383.6</ele>
        <time>2019-04-15T09:18:58Z</time>
      </trkpt>
      <trkpt lat="44.61348" lon="5.11014">
        <ele>383.4</ele>
        <time>2019-04-15T09:19:02Z</time>
      </trkpt>
      <trkpt lat="44.6133" lon="5.11047">
        <ele>382.6</ele>
        <time>2019-04-15T09:19:06Z</time>
      </trkpt>
      <trkpt lat="44.61305" lon="5.11079">
        <ele>382.4</ele>
        <time>2019-04-15T09:19:10Z</time>
      </trkpt>
      <trkpt lat="44.61276" lon="5.11103">
        <ele>383.4</ele>
        <time>2019-04-15T09:19:14Z</time>
      </trkpt>
      <trkpt lat="44.61252" lon="5.11132">
        <ele>384</ele>
        <time>2019-04-15T09:19:18Z</time>
      </trkpt>
      <trkpt lat="44.61231" lon="5.11163">
        <ele>384.2</ele>
        <time>2019-04-15T09:19:22Z</time>
      </trkpt>
      <trkpt lat="44.6121" lon="5.11192">
        <ele>384.6</ele>
        <time>2019-04-15T09:19:26Z</time>
      </trkpt>
      <trkpt lat="44.61186" lon="5.11215">
        <ele>384.6</ele>
        <time>2019-04-15T09:19:30Z</time>
      </trkpt>
      <trkpt lat="44.61159" lon="5.1123">
        <ele>385.2</ele>
        <time>2019-04-15T09:19:34Z</time>
      </trkpt>
      <trkpt lat="44.6113" lon="5.11242">
        <ele>384.6</ele>
        <time>2019-04-15T09:19:38Z</time>
      </trkpt>
      <trkpt lat="44.61101" lon="5.11254">
        <ele>385.4</ele>
        <time>2019-04-15T09:19:42Z</time>
      </trkpt>
      <trkpt lat="44.61073" lon="5.11265">
        <ele>386</ele>
        <time>2019-04-15T09:19:46Z</time>
      </trkpt>
      <trkpt lat="44.61046" lon="5.11275">
        <ele>386</ele>
        <time>2019-04-15T09:19:50Z</time>
      </trkpt>
      <trkpt lat="44.61018" lon="5.11287">
        <ele>386.8</ele>
        <time>2019-04-15T09:19:54Z</time>
      </trkpt>
      <trkpt lat="44.60991" lon="5.113">
        <ele>386.4</ele>
        <time>2019-04-15T09:19:58Z</time>
      </trkpt>
      <trkpt lat="44.60964" lon="5.1132">
        <ele>387</ele>
        <time>2019-04-15T09:20:02Z</time>
      </trkpt>
      <trkpt lat="44.60938" lon="5.11342">
        <ele>387</ele>
        <time>2019-04-15T09:20:06Z</time>
      </trkpt>
      <trkpt lat="44.60913" lon="5.11365">
        <ele>386.8</ele>
        <time>2019-04-15T09:20:10Z</time>
      </trkpt>
      <trkpt lat="44.60888" lon="5.1139">
        <ele>387.6</ele>
        <time>2019-04-15T09:20:14Z</time>
      </trkpt>
      <trkpt lat="44.60867" lon="5.11421">
        <ele>387.4</ele>
        <time>2019-04-15T09:20:18Z</time>
      </trkpt>
      <trkpt lat="44.6085" lon="5.11456">
        <ele>388</ele>
        <time>2019-04-15T09:20:22Z</time>
      </trkpt>
      <trkpt lat="44.60835" lon="5.11491">
        <ele>388.6</ele>
        <time>2019-04-15T09:20:26Z</time>
      </trkpt>
      <trkpt lat="44.6082" lon="5.11527">
        <ele>388.8</ele>
        <time>2019-04-15T09:20:30Z</time>
      </trkpt>
      <trkpt lat="44.60805" lon="5.11562">
        <ele>389.4</ele>
        <time>2019-04-15T09:20:34Z</time>
      </trkpt>
      <trkpt lat="44.60791" lon="5.11596">
        <ele>389.8</ele>
        <time>2019-04-15T09:20:38Z</time>
      </trkpt>
      <trkpt lat="44.60776" lon="5.1163">
        <ele>390.2</ele>
        <time>2019-04-15T09:20:42Z</time>
      </trkpt>
      <trkpt lat="44.60762" lon="5.11663">
        <ele>390.8</ele>
        <time>2019-04-15T09:20:46Z</time>
      </trkpt>
      <trkpt lat="44.60745" lon="5.11695">
        <ele>390.8</ele>
        <time>2019-04-15T09:20:50Z</time>
      </trkpt>
      <trkpt lat="44.60725" lon="5.11722">
        <ele>391.4</ele>
        <time>2019-04-15T09:20:54Z</time>
      </trkpt>
      <trkpt lat="44.60704" lon="5.11744">
        <ele>392.2</ele>
        <time>2019-04-15T09:20:58Z</time>
      </trkpt>
      <trkpt lat="44.6068" lon="5.11761">
        <ele>392</ele>
        <time>2019-04-15T09:21:02Z</time>
      </trkpt>
      <trkpt lat="44.60654" lon="5.11774">
        <ele>393.4</ele>
        <time>2019-04-15T09:21:06Z</time>
      </trkpt>
      <trkpt lat="44.60627" lon="5.1178">
        <ele>393.4</ele>
        <time>2019-04-15T09:21:10Z</time>
      </trkpt>
      <trkpt lat="44.60599" lon="5.11784">
        <ele>393.8</ele>
        <time>2019-04-15T09:21:14Z</time>
      </trkpt>
      <trkpt lat="44.60572" lon="5.11787">
        <ele>394.4</ele>
        <time>2019-04-15T09:21:18Z</time>
      </trkpt>
      <trkpt lat="44.60544" lon="5.11789">
        <ele>394.8</ele>
        <time>2019-04-15T09:21:22Z</time>
      </trkpt>
      <trkpt lat="44.60517" lon="5.11786">
        <ele>395</ele>
        <time>2019-04-15T09:21:26Z</time>
      </trkpt>
      <trkpt lat="44.60491" lon="5.11778">
        <ele>395.6</ele>
        <time>2019-04-15T09:21:30Z</time>
      </trkpt>
      <trkpt lat="44.60465" lon="5.11768">
        <ele>396</ele>
        <time>2019-04-15T09:21:34Z</time>
      </trkpt>
      <trkpt lat="44.60439" lon="5.11757">
        <ele>395.8</ele>
        <time>2019-04-15T09:21:38Z</time>
      </trkpt>
      <trkpt lat="44.60412" lon="5.11747">
        <ele>395.8</ele>
        <time>2019-04-15T09:21:42Z</time>
      </trkpt>
      <trkpt lat="44.60384" lon="5.11739">
        <ele>396.2</ele>
        <time>2019-04-15T09:21:46Z</time>
      </trkpt>
      <trkpt lat="44.60355" lon="5.1174">
        <ele>396.2</ele>
        <time>2019-04-15T09:21:50Z</time>
      </trkpt>
      <trkpt lat="44.60327" lon="5.11755">
        <ele>396.2</ele>
        <time>2019-04-15T09:21:54Z</time>
      </trkpt>
      <trkpt lat="44.60301" lon="5.11779">
        <ele>396.6</ele>
        <time>2019-04-15T09:21:58Z</time>
      </trkpt>
      <trkpt lat="44.60277" lon="5.1181">
        <ele>396.8</ele>
        <time>2019-04-15T09:22:02Z</time>
      </trkpt>
      <trkpt lat="44.60255" lon="5.11842">
        <ele>396.6</ele>
        <time>2019-04-15T09:22:06Z</time>
      </trkpt>
      <trkpt lat="44.60233" lon="5.11874">
        <ele>397.8</ele>
        <time>2019-04-15T09:22:10Z</time>
      </trkpt>
      <trkpt lat="44.60212" lon="5.11905">
        <ele>398</ele>
        <time>2019-04-15T09:22:14Z</time>
      </trkpt>
      <trkpt lat="44.60192" lon="5.11935">
        <ele>398.8</ele>
        <time>2019-04-15T09:22:18Z</time>
      </trkpt>
      <trkpt lat="44.60173" lon="5.11963">
        <ele>399.8</ele>
        <time>2019-04-15T09:22:22Z</time>
      </trkpt>
      <trkpt lat="44.60154" lon="5.1199">
        <ele>400.4</ele>
        <time>2019-04-15T09:22:26Z</time>
      </trkpt>
      <trkpt lat="44.60136" lon="5.12017">
        <ele>401.4</ele>
        <time>2019-04-15T09:22:30Z</time>
      </trkpt>
      <trkpt lat="44.60118" lon="5.12045">
        <ele>402.2</ele>
        <time>2019-04-15T09:22:34Z</time>
      </trkpt>
      <trkpt lat="44.60099" lon="5.12071">
        <ele>402.8</ele>
        <time>2019-04-15T09:22:38Z</time>
      </trkpt>
      <trkpt lat="44.6008" lon="5.12098">
        <ele>403</ele>
        <time>2019-04-15T09:22:42Z</time>
      </trkpt>
      <trkpt lat="44.60061" lon="5.12125">
        <ele>404.4</ele>
        <time>2019-04-15T09:22:46Z</time>
      </trkpt>
      <trkpt lat="44.60043" lon="5.12152">
        <ele>405.6</ele>
        <time>2019-04-15T09:22:50Z</time>
      </trkpt>
      <trkpt lat="44.60026" lon="5.12179">
        <ele>406.8</ele>
        <time>2019-04-15T09:22:54Z</time>
      </trkpt>
      <trkpt lat="44.60011" lon="5.12207">
        <ele>407</ele>
        <time>2019-04-15T09:22:58Z</time>
      </trkpt>
      <trkpt lat="44.59997" lon="5.12237">
        <ele>407.8</ele>
        <time>2019-04-15T09:23:02Z</time>
      </trkpt>
      <trkpt lat="44.59983" lon="5.12266">
        <ele>408.4</ele>
        <time>2019-04-15T09:23:06Z</time>
      </trkpt>
      <trkpt lat="44.59968" lon="5.12295">
        <ele>409</ele>
        <time>2019-04-15T09:23:10Z</time>
      </trkpt>
      <trkpt lat="44.59951" lon="5.12321">
        <ele>409.4</ele>
        <time>2019-04-15T09:23:14Z</time>
      </trkpt>
      <trkpt lat="44.59934" lon="5.12348">
        <ele>411.2</ele>
        <time>2019-04-15T09:23:18Z</time>
      </trkpt>
      <trkpt lat="44.59915" lon="5.12373">
        <ele>410.8</ele>
        <time>2019-04-15T09:23:22Z</time>
      </trkpt>
      <trkpt lat="44.59897" lon="5.12399">
        <ele>411.4</ele>
        <time>2019-04-15T09:23:26Z</time>
      </trkpt>
      <trkpt lat="44.59877" lon="5.12423">
        <ele>412</ele>
        <time>2019-04-15T09:23:30Z</time>
      </trkpt>
      <trkpt lat="44.59856" lon="5.1244">
        <ele>412.6</ele>
        <time>2019-04-15T09:23:34Z</time>
      </trkpt>
      <trkpt lat="44.59832" lon="5.12449">
        <ele>413.8</ele>
        <time>2019-04-15T09:23:38Z</time>
      </trkpt>
      <trkpt lat="44.59809" lon="5.12457">
        <ele>414.4</ele>
        <time>2019-04-15T09:23:42Z</time>
      </trkpt>
      <trkpt lat="44.59786" lon="5.12464">
        <ele>415.4</ele>
        <time>2019-04-15T09:23:46Z</time>
      </trkpt>
      <trkpt lat="44.59763" lon="5.12473">
        <ele>416.4</ele>
        <time>2019-04-15T09:23:50Z</time>
      </trkpt>
      <trkpt lat="44.59741" lon="5.12483">
        <ele>417.2</ele>
        <time>2019-04-15T09:23:54Z</time>
      </trkpt>
      <trkpt lat="44.5972" lon="5.12499">
        <ele>417.6</ele>
        <time>2019-04-15T09:23:58Z</time>
      </trkpt>
      <trkpt lat="44.59699" lon="5.12517">
        <ele>418.8</ele>
        <time>2019-04-15T09:24:02Z</time>
      </trkpt>
      <trkpt lat="44.59679" lon="5.12537">
        <ele>419.6</ele>
        <time>2019-04-15T09:24:06Z</time>
      </trkpt>
      <trkpt lat="44.5966" lon="5.12557">
        <ele>419.4</ele>
        <time>2019-04-15T09:24:10Z</time>
      </trkpt>
      <trkpt lat="44.5964" lon="5.12577">
        <ele>420.4</ele>
        <time>2019-04-15T09:24:14Z</time>
      </trkpt>
      <trkpt lat="44.59621" lon="5.12597">
        <ele>422</ele>
        <time>2019-04-15T09:24:18Z</time>
      </trkpt>
      <trkpt lat="44.59602" lon="5.12617">
        <ele>422.8</ele>
        <time>2019-04-15T09:24:22Z</time>
      </trkpt>
      <trkpt lat="44.59582" lon="5.12635">
        <ele>423.4</ele>
        <time>2019-04-15T09:24:26Z</time>
      </trkpt>
      <trkpt lat="44.59562" lon="5.12651">
        <ele>425.2</ele>
        <time>2019-04-15T09:24:30Z</time>
      </trkpt>
      <trkpt lat="44.59541" lon="5.12668">
        <ele>426.4</ele>
        <time>2019-04-15T09:24:34Z</time>
      </trkpt>
      <trkpt lat="44.59521" lon="5.12684">
        <ele>427.2</ele>
        <time>2019-04-15T09:24:38Z</time>
      </trkpt>
      <trkpt lat="44.595" lon="5.127">
        <ele>427.8</ele>
        <time>2019-04-15T09:24:42Z</time>
      </trkpt>
      <trkpt lat="44.59479" lon="5.12717">
        <ele>428.4</ele>
        <time>2019-04-15T09:24:46Z</time>
      </trkpt>
      <trkpt lat="44.59457" lon="5.12732">
        <ele>429.6</ele>
        <time>2019-04-15T09:24:50Z</time>
      </trkpt>
      <trkpt lat="44.59435" lon="5.12745">
        <ele>430</ele>
        <time>2019-04-15T09:24:54Z</time>
      </trkpt>
      <trkpt lat="44.59412" lon="5.12757">
        <ele>431.8</ele>
        <time>2019-04-15T09:24:58Z</time>
      </trkpt>
      <trkpt lat="44.59389" lon="5.12767">
        <ele>433</ele>
        <time>2019-04-15T09:25:02Z</time>
      </trkpt>
      <trkpt lat="44.59366" lon="5.12775">
        <ele>433.4</ele>
        <time>2019-04-15T09:25:06Z</time>
      </trkpt>
      <trkpt lat="44.59342" lon="5.12781">
        <ele>434.8</ele>
        <time>2019-04-15T09:25:10Z</time>
      </trkpt>
      <trkpt lat="44.59319" lon="5.12785">
        <ele>434.8</ele>
        <time>2019-04-15T09:25:14Z</time>
      </trkpt>
      <trkpt lat="44.59295" lon="5.12793">
        <ele>435.8</ele>
        <time>2019-04-15T09:25:18Z</time>
      </trkpt>
      <trkpt lat="44.59273" lon="5.12811">
        <ele>434.8</ele>
        <time>2019-04-15T09:25:22Z</time>
      </trkpt>
      <trkpt lat="44.59254" lon="5.12841">
        <ele>434.4</ele>
        <time>2019-04-15T09:25:26Z</time>
      </trkpt>
      <trkpt lat="44.59241" lon="5.1288">
        <ele>433</ele>
        <time>2019-04-15T09:25:30Z</time>
      </trkpt>
      <trkpt lat="44.59233" lon="5.12927">
        <ele>431.8</ele>
        <time>2019-04-15T09:25:34Z</time>
      </trkpt>
      <trkpt lat="44.5923" lon="5.12979">
        <ele>430.6</ele>
        <time>2019-04-15T09:25:38Z</time>
      </trkpt>
      <trkpt lat="44.59232" lon="5.13034">
        <ele>429.8</ele>
        <time>2019-04-15T09:25:42Z</time>
      </trkpt>
      <trkpt lat="44.59234" lon="5.13093">
        <ele>426</ele>
        <time>2019-04-15T09:25:46Z</time>
      </trkpt>
      <trkpt lat="44.59217" lon="5.13146">
        <ele>425.2</ele>
        <time>2019-04-15T09:25:50Z</time>
      </trkpt>
      <trkpt lat="44.59185" lon="5.13176">
        <ele>425.2</ele>
        <time>2019-04-15T09:25:54Z</time>
      </trkpt>
      <trkpt lat="44.5915" lon="5.13183">
        <ele>426.4</ele>
        <time>2019-04-15T09:25:58Z</time>
      </trkpt>
      <trkpt lat="44.59118" lon="5.13188">
        <ele>426.8</ele>
        <time>2019-04-15T09:26:02Z</time>
      </trkpt>
      <trkpt lat="44.59089" lon="5.132">
        <ele>427</ele>
        <time>2019-04-15T09:26:06Z</time>
      </trkpt>
      <trkpt lat="44.5906" lon="5.13217">
        <ele>426</ele>
        <time>2019-04-15T09:26:10Z</time>
      </trkpt>
      <trkpt lat="44.5903" lon="5.13237">
        <ele>426</ele>
        <time>2019-04-15T09:26:14Z</time>
      </trkpt>
      <trkpt lat="44.59" lon="5.13256">
        <ele>425.6</ele>
        <time>2019-04-15T09:26:18Z</time>
      </trkpt>
      <trkpt lat="44.58971" lon="5.13275">
        <ele>425.4</ele>
        <time>2019-04-15T09:26:22Z</time>
      </trkpt>
      <trkpt lat="44.5894" lon="5.13295">
        <ele>424.4</ele>
        <time>2019-04-15T09:26:26Z</time>
      </trkpt>
      <trkpt lat="44.58908" lon="5.13316">
        <ele>423</ele>
        <time>2019-04-15T09:26:30Z</time>
      </trkpt>
      <trkpt lat="44.58875" lon="5.13337">
        <ele>422.4</ele>
        <time>2019-04-15T09:26:34Z</time>
      </trkpt>
      <trkpt lat="44.58845" lon="5.13357">
        <ele>422</ele>
        <time>2019-04-15T09:26:38Z</time>
      </trkpt>
      <trkpt lat="44.58816" lon="5.13377">
        <ele>422.2</ele>
        <time>2019-04-15T09:26:42Z</time>
      </trkpt>
      <trkpt lat="44.58788" lon="5.13394">
        <ele>422.4</ele>
        <time>2019-04-15T09:26:46Z</time>
      </trkpt>
      <trkpt lat="44.58761" lon="5.13411">
        <ele>423.2</ele>
        <time>2019-04-15T09:26:50Z</time>
      </trkpt>
      <trkpt lat="44.58737" lon="5.13428">
        <ele>423.2</ele>
        <time>2019-04-15T09:26:54Z</time>
      </trkpt>
      <trkpt lat="44.58713" lon="5.13446">
        <ele>424.2</ele>
        <time>2019-04-15T09:26:58Z</time>
      </trkpt>
      <trkpt lat="44.58688" lon="5.13465">
        <ele>424</ele>
        <time>2019-04-15T09:27:02Z</time>
      </trkpt>
      <trkpt lat="44.58664" lon="5.13485">
        <ele>424.4</ele>
        <time>2019-04-15T09:27:06Z</time>
      </trkpt>
      <trkpt lat="44.58643" lon="5.13504">
        <ele>424.8</ele>
        <time>2019-04-15T09:27:10Z</time>
      </trkpt>
      <trkpt lat="44.5864" lon="5.13535">
        <ele>425.2</ele>
        <time>2019-04-15T09:27:14Z</time>
      </trkpt>
      <trkpt lat="44.58638" lon="5.13569">
        <ele>425</ele>
        <time>2019-04-15T09:27:18Z</time>
      </trkpt>
      <trkpt lat="44.58621" lon="5.13599">
        <ele>424.8</ele>
        <time>2019-04-15T09:27:22Z</time>
      </trkpt>
      <trkpt lat="44.58603" lon="5.13629">
        <ele>426.4</ele>
        <time>2019-04-15T09:27:26Z</time>
      </trkpt>
      <trkpt lat="44.58585" lon="5.13658">
        <ele>426.2</ele>
        <time>2019-04-15T09:27:30Z</time>
      </trkpt>
      <trkpt lat="44.58568" lon="5.13688">
        <ele>427.4</ele>
        <time>2019-04-15T09:27:34Z</time>
      </trkpt>
      <trkpt lat="44.58551" lon="5.13717">
        <ele>427.6</ele>
        <time>2019-04-15T09:27:38Z</time>
      </trkpt>
      <trkpt lat="44.58534" lon="5.13745">
        <ele>428</ele>
        <time>2019-04-15T09:27:42Z</time>
      </trkpt>
      <trkpt lat="44.5851" lon="5.13765">
        <ele>428</ele>
        <time>2019-04-15T09:27:46Z</time>
      </trkpt>
      <trkpt lat="44.58487" lon="5.13783">
        <ele>428.8</ele>
        <time>2019-04-15T09:27:50Z</time>
      </trkpt>
      <trkpt lat="44.58462" lon="5.13799">
        <ele>429.2</ele>
        <time>2019-04-15T09:27:54Z</time>
      </trkpt>
      <trkpt lat="44.58438" lon="5.13815">
        <ele>429.6</ele>
        <time>2019-04-15T09:27:58Z</time>
      </trkpt>
      <trkpt lat="44.58414" lon="5.13832">
        <ele>429.8</ele>
        <time>2019-04-15T09:28:02Z</time>
      </trkpt>
      <trkpt lat="44.5839" lon="5.13848">
        <ele>429.6</ele>
        <time>2019-04-15T09:28:06Z</time>
      </trkpt>
      <trkpt lat="44.58366" lon="5.13865">
        <ele>430</ele>
        <time>2019-04-15T09:28:10Z</time>
      </trkpt>
      <trkpt lat="44.58342" lon="5.13882">
        <ele>430.4</ele>
        <time>2019-04-15T09:28:14Z</time>
      </trkpt>
      <trkpt lat="44.58319" lon="5.13897">
        <ele>431</ele>
        <time>2019-04-15T09:28:18Z</time>
      </trkpt>
      <trkpt lat="44.58296" lon="5.13912">
        <ele>432</ele>
        <time>2019-04-15T09:28:22Z</time>
      </trkpt>
      <trkpt lat="44.58273" lon="5.13928">
        <ele>433</ele>
        <time>2019-04-15T09:28:26Z</time>
      </trkpt>
      <trkpt lat="44.58251" lon="5.13944">
        <ele>433.6</ele>
        <time>2019-04-15T09:28:30Z</time>
      </trkpt>
      <trkpt lat="44.58229" lon="5.13961">
        <ele>434.6</ele>
        <time>2019-04-15T09:28:34Z</time>
      </trkpt>
      <trkpt lat="44.58209" lon="5.13982">
        <ele>434.8</ele>
        <time>2019-04-15T09:28:38Z</time>
      </trkpt>
      <trkpt lat="44.58189" lon="5.14003">
        <ele>435.8</ele>
        <time>2019-04-15T09:28:42Z</time>
      </trkpt>
      <trkpt lat="44.5817" lon="5.14025">
        <ele>436</ele>
        <time>2019-04-15T09:28:46Z</time>
      </trkpt>
      <trkpt lat="44.58151" lon="5.14048">
        <ele>436.6</ele>
        <time>2019-04-15T09:28:50Z</time>
      </trkpt>
      <trkpt lat="44.5813" lon="5.1407">
        <ele>436.8</ele>
        <time>2019-04-15T09:28:54Z</time>
      </trkpt>
      <trkpt lat="44.5811" lon="5.14093">
        <ele>437.8</ele>
        <time>2019-04-15T09:28:58Z</time>
      </trkpt>
      <trkpt lat="44.5809" lon="5.14115">
        <ele>438.2</ele>
        <time>2019-04-15T09:29:02Z</time>
      </trkpt>
      <trkpt lat="44.5807" lon="5.14137">
        <ele>438.8</ele>
        <time>2019-04-15T09:29:06Z</time>
      </trkpt>
      <trkpt lat="44.5805" lon="5.1416">
        <ele>439.4</ele>
        <time>2019-04-15T09:29:10Z</time>
      </trkpt>
      <trkpt lat="44.5803" lon="5.14182">
        <ele>440</ele>
        <time>2019-04-15T09:29:14Z</time>
      </trkpt>
      <trkpt lat="44.5801" lon="5.14205">
        <ele>440.6</ele>
        <time>2019-04-15T09:29:18Z</time>
      </trkpt>
      <trkpt lat="44.5799" lon="5.14227">
        <ele>441</ele>
        <time>2019-04-15T09:29:22Z</time>
      </trkpt>
      <trkpt lat="44.57971" lon="5.1425">
        <ele>441.2</ele>
        <time>2019-04-15T09:29:26Z</time>
      </trkpt>
      <trkpt lat="44.57951" lon="5.14271">
        <ele>442.2</ele>
        <time>2019-04-15T09:29:30Z</time>
      </trkpt>
      <trkpt lat="44.5793" lon="5.14292">
        <ele>443</ele>
        <time>2019-04-15T09:29:34Z</time>
      </trkpt>
      <trkpt lat="44.5791" lon="5.14314">
        <ele>444</ele>
        <time>2019-04-15T09:29:38Z</time>
      </trkpt>
      <trkpt lat="44.5789" lon="5.14336">
        <ele>444.6</ele>
        <time>2019-04-15T09:29:42Z</time>
      </trkpt>
      <trkpt lat="44.57872" lon="5.14359">
        <ele>445.2</ele>
        <time>2019-04-15T09:29:46Z</time>
      </trkpt>
      <trkpt lat="44.57853" lon="5.14385">
        <ele>446.2</ele>
        <time>2019-04-15T09:29:50Z</time>
      </trkpt>
      <trkpt lat="44.57836" lon="5.14414">
        <ele>445.8</ele>
        <time>2019-04-15T09:29:54Z</time>
      </trkpt>
      <trkpt lat="44.57819" lon="5.14445">
        <ele>446</ele>
        <time>2019-04-15T09:29:58Z</time>
      </trkpt>
      <trkpt lat="44.57804" lon="5.14478">
        <ele>446.6</ele>
        <time>2019-04-15T09:30:02Z</time>
      </trkpt>
      <trkpt lat="44.5779" lon="5.1451">
        <ele>447.4</ele>
        <time>2019-04-15T09:30:06Z</time>
      </trkpt>
      <trkpt lat="44.57775" lon="5.14541">
        <ele>447.4</ele>
        <time>2019-04-15T09:30:10Z</time>
      </trkpt>
      <trkpt lat="44.57759" lon="5.14571">
        <ele>447.2</ele>
        <time>2019-04-15T09:30:14Z</time>
      </trkpt>
      <trkpt lat="44.57744" lon="5.146">
        <ele>447.6</ele>
        <time>2019-04-15T09:30:18Z</time>
      </trkpt>
      <trkpt lat="44.57729" lon="5.1463">
        <ele>448.2</ele>
        <time>2019-04-15T09:30:22Z</time>
      </trkpt>
      <trkpt lat="44.57713" lon="5.14662">
        <ele>448.6</ele>
        <time>2019-04-15T09:30:26Z</time>
      </trkpt>
      <trkpt lat="44.57698" lon="5.14694">
        <ele>448.2</ele>
        <time>2019-04-15T09:30:30Z</time>
      </trkpt>
      <trkpt lat="44.57682" lon="5.14727">
        <ele>448.4</ele>
        <time>2019-04-15T09:30:34Z</time>
      </trkpt>
      <trkpt lat="44.57666" lon="5.1476">
        <ele>448.4</ele>
        <time>2019-04-15T09:30:38Z</time>
      </trkpt>
      <trkpt lat="44.57649" lon="5.14794">
        <ele>448.2</ele>
        <time>2019-04-15T09:30:42Z</time>
      </trkpt>
      <trkpt lat="44.57633" lon="5.14829">
        <ele>448</ele>
        <time>2019-04-15T09:30:46Z</time>
      </trkpt>
      <trkpt lat="44.57616" lon="5.14864">
        <ele>448</ele>
        <time>2019-04-15T09:30:50Z</time>
      </trkpt>
      <trkpt lat="44.57599" lon="5.14899">
        <ele>448.2</ele>
        <time>2019-04-15T09:30:54Z</time>
      </trkpt>
      <trkpt lat="44.57583" lon="5.14932">
        <ele>448.2</ele>
        <time>2019-04-15T09:30:58Z</time>
      </trkpt>
      <trkpt lat="44.57568" lon="5.14965">
        <ele>448.6</ele>
        <time>2019-04-15T09:31:02Z</time>
      </trkpt>
      <trkpt lat="44.57552" lon="5.14997">
        <ele>448.8</ele>
        <time>2019-04-15T09:31:06Z</time>
      </trkpt>
      <trkpt lat="44.57538" lon="5.15029">
        <ele>449.4</ele>
        <time>2019-04-15T09:31:10Z</time>
      </trkpt>
      <trkpt lat="44.57525" lon="5.15062">
        <ele>449.6</ele>
        <time>2019-04-15T09:31:14Z</time>
      </trkpt>
      <trkpt lat="44.57514" lon="5.15095">
        <ele>450</ele>
        <time>2019-04-15T09:31:18Z</time>
      </trkpt>
      <trkpt lat="44.57504" lon="5.15129">
        <ele>449.8</ele>
        <time>2019-04-15T09:31:22Z</time>
      </trkpt>
      <trkpt lat="44.57489" lon="5.1516">
        <ele>450.2</ele>
        <time>2019-04-15T09:31:26Z</time>
      </trkpt>
      <trkpt lat="44.57468" lon="5.15183">
        <ele>451</ele>
        <time>2019-04-15T09:31:30Z</time>
      </trkpt>
      <trkpt lat="44.57442" lon="5.15199">
        <ele>450.4</ele>
        <time>2019-04-15T09:31:34Z</time>
      </trkpt>
      <trkpt lat="44.57418" lon="5.15215">
        <ele>451.2</ele>
        <time>2019-04-15T09:31:38Z</time>
      </trkpt>
      <trkpt lat="44.57393" lon="5.15231">
        <ele>451</ele>
        <time>2019-04-15T09:31:42Z</time>
      </trkpt>
      <trkpt lat="44.57372" lon="5.15254">
        <ele>451.4</ele>
        <time>2019-04-15T09:31:46Z</time>
      </trkpt>
      <trkpt lat="44.57351" lon="5.15282">
        <ele>451.6</ele>
        <time>2019-04-15T09:31:50Z</time>
      </trkpt>
      <trkpt lat="44.5733" lon="5.15313">
        <ele>450.4</ele>
        <time>2019-04-15T09:31:54Z</time>
      </trkpt>
      <trkpt lat="44.57309" lon="5.15344">
        <ele>450.6</ele>
        <time>2019-04-15T09:31:58Z</time>
      </trkpt>
      <trkpt lat="44.57287" lon="5.15375">
        <ele>451</ele>
        <time>2019-04-15T09:32:02Z</time>
      </trkpt>
      <trkpt lat="44.57267" lon="5.15405">
        <ele>451.2</ele>
        <time>2019-04-15T09:32:06Z</time>
      </trkpt>
      <trkpt lat="44.57246" lon="5.15435">
        <ele>451.6</ele>
        <time>2019-04-15T09:32:10Z</time>
      </trkpt>
      <trkpt lat="44.57226" lon="5.15465">
        <ele>452.2</ele>
        <time>2019-04-15T09:32:14Z</time>
      </trkpt>
      <trkpt lat="44.57207" lon="5.15493">
        <ele>453.2</ele>
        <time>2019-04-15T09:32:18Z</time>
      </trkpt>
      <trkpt lat="44.57189" lon="5.15519">
        <ele>454.4</ele>
        <time>2019-04-15T09:32:22Z</time>
      </trkpt>
      <trkpt lat="44.57173" lon="5.15548">
        <ele>455</ele>
        <time>2019-04-15T09:32:26Z</time>
      </trkpt>
      <trkpt lat="44.5716" lon="5.15578">
        <ele>455.6</ele>
        <time>2019-04-15T09:32:30Z</time>
      </trkpt>
      <trkpt lat="44.57152" lon="5.1561">
        <ele>456.4</ele>
        <time>2019-04-15T09:32:34Z</time>
      </trkpt>
      <trkpt lat="44.5715" lon="5.15644">
        <ele>457.4</ele>
        <time>2019-04-15T09:32:38Z</time>
      </trkpt>
      <trkpt lat="44.5715" lon="5.15678">
        <ele>458.2</ele>
        <time>2019-04-15T09:32:42Z</time>
      </trkpt>
      <trkpt lat="44.57152" lon="5.15711">
        <ele>458.6</ele>
        <time>2019-04-15T09:32:46Z</time>
      </trkpt>
      <trkpt lat="44.57157" lon="5.15744">
        <ele>459.2</ele>
        <time>2019-04-15T09:32:50Z</time>
      </trkpt>
      <trkpt lat="44.57162" lon="5.15777">
        <ele>460</ele>
        <time>2019-04-15T09:32:54Z</time>
      </trkpt>
      <trkpt lat="44.57169" lon="5.15809">
        <ele>460.4</ele>
        <time>2019-04-15T09:32:58Z</time>
      </trkpt>
      <trkpt lat="44.57175" lon="5.15842">
        <ele>461</ele>
        <time>2019-04-15T09:33:02Z</time>
      </trkpt>
      <trkpt lat="44.57176" lon="5.15877">
        <ele>461.2</ele>
        <time>2019-04-15T09:33:06Z</time>
      </trkpt>
      <trkpt lat="44.57173" lon="5.15912">
        <ele>461.2</ele>
        <time>2019-04-15T09:33:10Z</time>
      </trkpt>
      <trkpt lat="44.57168" lon="5.15948">
        <ele>461.2</ele>
        <time>2019-04-15T09:33:14Z</time>
      </trkpt>
      <trkpt lat="44.57163" lon="5.15986">
        <ele>461.4</ele>
        <time>2019-04-15T09:33:18Z</time>
      </trkpt>
      <trkpt lat="44.57146" lon="5.16017">
        <ele>461.2</ele>
        <time>2019-04-15T09:33:22Z</time>
      </trkpt>
      <trkpt lat="44.57121" lon="5.16039">
        <ele>460.8</ele>
        <time>2019-04-15T09:33:26Z</time>
      </trkpt>
      <trkpt lat="44.57095" lon="5.16059">
        <ele>461.2</ele>
        <time>2019-04-15T09:33:30Z</time>
      </trkpt>
      <trkpt lat="44.57069" lon="5.16079">
        <ele>460.2</ele>
        <time>2019-04-15T09:33:34Z</time>
      </trkpt>
      <trkpt lat="44.57043" lon="5.16098">
        <ele>460.4</ele>
        <time>2019-04-15T09:33:38Z</time>
      </trkpt>
      <trkpt lat="44.57017" lon="5.16118">
        <ele>460.4</ele>
        <time>2019-04-15T09:33:42Z</time>
      </trkpt>
      <trkpt lat="44.56989" lon="5.16131">
        <ele>460</ele>
        <time>2019-04-15T09:33:46Z</time>
      </trkpt>
      <trkpt lat="44.56959" lon="5.16129">
        <ele>459.8</ele>
        <time>2019-04-15T09:33:50Z</time>
      </trkpt>
      <trkpt lat="44.56931" lon="5.16123">
        <ele>459.6</ele>
        <time>2019-04-15T09:33:54Z</time>
      </trkpt>
      <trkpt lat="44.56902" lon="5.16113">
        <ele>459.6</ele>
        <time>2019-04-15T09:33:58Z</time>
      </trkpt>
      <trkpt lat="44.56875" lon="5.16105">
        <ele>460.2</ele>
        <time>2019-04-15T09:34:02Z</time>
      </trkpt>
      <trkpt lat="44.56848" lon="5.16096">
        <ele>460.4</ele>
        <time>2019-04-15T09:34:06Z</time>
      </trkpt>
      <trkpt lat="44.56822" lon="5.16087">
        <ele>460.4</ele>
        <time>2019-04-15T09:34:10Z</time>
      </trkpt>
      <trkpt lat="44.56797" lon="5.16079">
        <ele>461.2</ele>
        <time>2019-04-15T09:34:14Z</time>
      </trkpt>
      <trkpt lat="44.56772" lon="5.16075">
        <ele>462.2</ele>
        <time>2019-04-15T09:34:18Z</time>
      </trkpt>
      <trkpt lat="44.56747" lon="5.16079">
        <ele>463</ele>
        <time>2019-04-15T09:34:22Z</time>
      </trkpt>
      <trkpt lat="44.56723" lon="5.1609">
        <ele>463.4</ele>
        <time>2019-04-15T09:34:26Z</time>
      </trkpt>
      <trkpt lat="44.56699" lon="5.16104">
        <ele>464.2</ele>
        <time>2019-04-15T09:34:30Z</time>
      </trkpt>
      <trkpt lat="44.56675" lon="5.1612">
        <ele>464</ele>
        <time>2019-04-15T09:34:34Z</time>
      </trkpt>
      <trkpt lat="44.56651" lon="5.16134">
        <ele>464.8</ele>
        <time>2019-04-15T09:34:38Z</time>
      </trkpt>
      <trkpt lat="44.56626" lon="5.16147">
        <ele>464.8</ele>
        <time>2019-04-15T09:34:42Z</time>
      </trkpt>
      <trkpt lat="44.56602" lon="5.16163">
        <ele>464.8</ele>
        <time>2019-04-15T09:34:46Z</time>
      </trkpt>
      <trkpt lat="44.56575" lon="5.16174">
        <ele>465.4</ele>
        <time>2019-04-15T09:34:50Z</time>
      </trkpt>
      <trkpt lat="44.56548" lon="5.16171">
        <ele>465.2</ele>
        <time>2019-04-15T09:34:54Z</time>
      </trkpt>
      <trkpt lat="44.56522" lon="5.1616">
        <ele>466.2</ele>
        <time>2019-04-15T09:34:58Z</time>
      </trkpt>
      <trkpt lat="44.56498" lon="5.16145">
        <ele>466.4</ele>
        <time>2019-04-15T09:35:02Z</time>
      </trkpt>
      <trkpt lat="44.56475" lon="5.16126">
        <ele>467.2</ele>
        <time>2019-04-15T09:35:06Z</time>
      </trkpt>
      <trkpt lat="44.56454" lon="5.16103">
        <ele>467.4</ele>
        <time>2019-04-15T09:35:10Z</time>
      </trkpt>
      <trkpt lat="44.56438" lon="5.16076">
        <ele>468.4</ele>
        <time>2019-04-15T09:35:14Z</time>
      </trkpt>
      <trkpt lat="44.56426" lon="5.16047">
        <ele>468.8</ele>
        <time>2019-04-15T09:35:18Z</time>
      </trkpt>
      <trkpt lat="44.56414" lon="5.16018">
        <ele>470.4</ele>
        <time>2019-04-15T09:35:22Z</time>
      </trkpt>
      <trkpt lat="44.56399" lon="5.15992">
        <ele>470.8</ele>
        <time>2019-04-15T09:35:26Z</time>
      </trkpt>
      <trkpt lat="44.56385" lon="5.15964">
        <ele>471.2</ele>
        <time>2019-04-15T09:35:30Z</time>
      </trkpt>
      <trkpt lat="44.56365" lon="5.15949">
        <ele>471.8</ele>
        <time>2019-04-15T09:35:34Z</time>
      </trkpt>
      <trkpt lat="44.56341" lon="5.15944">
        <ele>473</ele>
        <time>2019-04-15T09:35:38Z</time>
      </trkpt>
      <trkpt lat="44.56318" lon="5.15945">
        <ele>474</ele>
        <time>2019-04-15T09:35:42Z</time>
      </trkpt>
      <trkpt lat="44.56296" lon="5.15955">
        <ele>475</ele>
        <time>2019-04-15T09:35:46Z</time>
      </trkpt>
      <trkpt lat="44.56276" lon="5.15973">
        <ele>475.2</ele>
        <time>2019-04-15T09:35:50Z</time>
      </trkpt>
      <trkpt lat="44.5626" lon="5.15996">
        <ele>476.2</ele>
        <time>2019-04-15T09:35:54Z</time>
      </trkpt>
      <trkpt lat="44.56244" lon="5.16021">
        <ele>476.6</ele>
        <time>2019-04-15T09:35:58Z</time>
      </trkpt>
      <trkpt lat="44.56229" lon="5.16047">
        <ele>477.2</ele>
        <time>2019-04-15T09:36:02Z</time>
      </trkpt>
      <trkpt lat="44.56213" lon="5.16071">
        <ele>477.6</ele>
        <time>2019-04-15T09:36:06Z</time>
      </trkpt>
      <trkpt lat="44.56197" lon="5.16094">
        <ele>477.8</ele>
        <time>2019-04-15T09:36:10Z</time>
      </trkpt>
      <trkpt lat="44.56179" lon="5.16116">
        <ele>478.2</ele>
        <time>2019-04-15T09:36:14Z</time>
      </trkpt>
      <trkpt lat="44.56161" lon="5.16137">
        <ele>479</ele>
        <time>2019-04-15T09:36:18Z</time>
      </trkpt>
      <trkpt lat="44.56143" lon="5.1616">
        <ele>479.4</ele>
        <time>2019-04-15T09:36:22Z</time>
      </trkpt>
      <trkpt lat="44.56126" lon="5.16184">
        <ele>479.8</ele>
        <time>2019-04-15T09:36:26Z</time>
      </trkpt>
      <trkpt lat="44.56106" lon="5.16206">
        <ele>480.4</ele>
        <time>2019-04-15T09:36:30Z</time>
      </trkpt>
      <trkpt lat="44.56085" lon="5.16223">
        <ele>481</ele>
        <time>2019-04-15T09:36:34Z</time>
      </trkpt>
      <trkpt lat="44.56064" lon="5.16236">
        <ele>481.8</ele>
        <time>2019-04-15T09:36:38Z</time>
      </trkpt>
      <trkpt lat="44.56042" lon="5.16249">
        <ele>482.4</ele>
        <time>2019-04-15T09:36:42Z</time>
      </trkpt>
      <trkpt lat="44.56019" lon="5.16262">
        <ele>482.6</ele>
        <time>2019-04-15T09:36:46Z</time>
      </trkpt>
      <trkpt lat="44.55997" lon="5.16274">
        <ele>483</ele>
        <time>2019-04-15T09:36:50Z</time>
      </trkpt>
      <trkpt lat="44.55974" lon="5.16288">
        <ele>483.4</ele>
        <time>2019-04-15T09:36:54Z</time>
      </trkpt>
      <trkpt lat="44.55952" lon="5.16301">
        <ele>484.4</ele>
        <time>2019-04-15T09:36:58Z</time>
      </trkpt>
      <trkpt lat="44.55929" lon="5.16315">
        <ele>484.8</ele>
        <time>2019-04-15T09:37:02Z</time>
      </trkpt>
      <trkpt lat="44.55907" lon="5.16328">
        <ele>485.4</ele>
        <time>2019-04-15T09:37:06Z</time>
      </trkpt>
      <trkpt lat="44.55885" lon="5.16343">
        <ele>485.6</ele>
        <time>2019-04-15T09:37:10Z</time>
      </trkpt>
      <trkpt lat="44.55863" lon="5.16358">
        <ele>486.6</ele>
        <time>2019-04-15T09:37:14Z</time>
      </trkpt>
      <trkpt lat="44.55842" lon="5.16373">
        <ele>487.6</ele>
        <time>2019-04-15T09:37:18Z</time>
      </trkpt>
      <trkpt lat="44.55821" lon="5.16389">
        <ele>487.8</ele>
        <time>2019-04-15T09:37:22Z</time>
      </trkpt>
      <trkpt lat="44.558" lon="5.16403">
        <ele>489.4</ele>
        <time>2019-04-15T09:37:26Z</time>
      </trkpt>
      <trkpt lat="44.55781" lon="5.1642">
        <ele>489.8</ele>
        <time>2019-04-15T09:37:30Z</time>
      </trkpt>
      <trkpt lat="44.55763" lon="5.16441">
        <ele>490.4</ele>
        <time>2019-04-15T09:37:34Z</time>
      </trkpt>
      <trkpt lat="44.55746" lon="5.16463">
        <ele>492.2</ele>
        <time>2019-04-15T09:37:38Z</time>
      </trkpt>
      <trkpt lat="44.5573" lon="5.16486">
        <ele>492.4</ele>
        <time>2019-04-15T09:37:42Z</time>
      </trkpt>
      <trkpt lat="44.55714" lon="5.16508">
        <ele>493.4</ele>
        <time>2019-04-15T09:37:46Z</time>
      </trkpt>
      <trkpt lat="44.55695" lon="5.16526">
        <ele>494</ele>
        <time>2019-04-15T09:37:50Z</time>
      </trkpt>
      <trkpt lat="44.55676" lon="5.16543">
        <ele>494.8</ele>
        <time>2019-04-15T09:37:54Z</time>
      </trkpt>
      <trkpt lat="44.55656" lon="5.16559">
        <ele>495</ele>
        <time>2019-04-15T09:37:58Z</time>
      </trkpt>
      <trkpt lat="44.55636" lon="5.16575">
        <ele>496.2</ele>
        <time>2019-04-15T09:38:02Z</time>
      </trkpt>
      <trkpt lat="44.55615" lon="5.16591">
        <ele>496.2</ele>
        <time>2019-04-15T09:38:06Z</time>
      </trkpt>
      <trkpt lat="44.55595" lon="5.16607">
        <ele>497</ele>
        <time>2019-04-15T09:38:10Z</time>
      </trkpt>
      <trkpt lat="44.55577" lon="5.16626">
        <ele>497.8</ele>
        <time>2019-04-15T09:38:14Z</time>
      </trkpt>
      <trkpt lat="44.55565" lon="5.16655">
        <ele>498</ele>
        <time>2019-04-15T09:38:18Z</time>
      </trkpt>
      <trkpt lat="44.55557" lon="5.16689">
        <ele>497.8</ele>
        <time>2019-04-15T09:38:22Z</time>
      </trkpt>
      <trkpt lat="44.55555" lon="5.16726">
        <ele>498.4</ele>
        <time>2019-04-15T09:38:26Z</time>
      </trkpt>
      <trkpt lat="44.55554" lon="5.16765">
        <ele>497.2</ele>
        <time>2019-04-15T09:38:30Z</time>
      </trkpt>
      <trkpt lat="44.5555" lon="5.16803">
        <ele>497.2</ele>
        <time>2019-04-15T09:38:34Z</time>
      </trkpt>
      <trkpt lat="44.5554" lon="5.16839">
        <ele>497.4</ele>
        <time>2019-04-15T09:38:38Z</time>
      </trkpt>
      <trkpt lat="44.5553" lon="5.16875">
        <ele>497.2</ele>
        <time>2019-04-15T09:38:42Z</time>
      </trkpt>
      <trkpt lat="44.5552" lon="5.1691">
        <ele>497.8</ele>
        <time>2019-04-15T09:38:46Z</time>
      </trkpt>
      <trkpt lat="44.55511" lon="5.16944">
        <ele>497.6</ele>
        <time>2019-04-15T09:38:50Z</time>
      </trkpt>
      <trkpt lat="44.55501" lon="5.16979">
        <ele>498.2</ele>
        <time>2019-04-15T09:38:54Z</time>
      </trkpt>
      <trkpt lat="44.55492" lon="5.17012">
        <ele>498.6</ele>
        <time>2019-04-15T09:38:58Z</time>
      </trkpt>
      <trkpt lat="44.55483" lon="5.17044">
        <ele>499.4</ele>
        <time>2019-04-15T09:39:02Z</time>
      </trkpt>
      <trkpt lat="44.55475" lon="5.17074">
        <ele>500.2</ele>
        <time>2019-04-15T09:39:06Z</time>
      </trkpt>
      <trkpt lat="44.55466" lon="5.17104">
        <ele>501</ele>
        <time>2019-04-15T09:39:10Z</time>
      </trkpt>
      <trkpt lat="44.55458" lon="5.17133">
        <ele>501.6</ele>
        <time>2019-04-15T09:39:14Z</time>
      </trkpt>
      <trkpt lat="44.55449" lon="5.17163">
        <ele>502.4</ele>
        <time>2019-04-15T09:39:18Z</time>
      </trkpt>
      <trkpt lat="44.5544" lon="5.17191">
        <ele>503.2</ele>
        <time>2019-04-15T09:39:22Z</time>
      </trkpt>
      <trkpt lat="44.55427" lon="5.17219">
        <ele>503.6</ele>
        <time>2019-04-15T09:39:26Z</time>
      </trkpt>
      <trkpt lat="44.55413" lon="5.17243">
        <ele>504.4</ele>
        <time>2019-04-15T09:39:30Z</time>
      </trkpt>
      <trkpt lat="44.55398" lon="5.17266">
        <ele>505.4</ele>
        <time>2019-04-15T09:39:34Z</time>
      </trkpt>
      <trkpt lat="44.55383" lon="5.17288">
        <ele>506.8</ele>
        <time>2019-04-15T09:39:38Z</time>
      </trkpt>
      <trkpt lat="44.55369" lon="5.17311">
        <ele>508</ele>
        <time>2019-04-15T09:39:42Z</time>
      </trkpt>
      <trkpt lat="44.55355" lon="5.17333">
        <ele>508.8</ele>
        <time>2019-04-15T09:39:46Z</time>
      </trkpt>
      <trkpt lat="44.55339" lon="5.17355">
        <ele>509</ele>
        <time>2019-04-15T09:39:50Z</time>
      </trkpt>
      <trkpt lat="44.55325" lon="5.17379">
        <ele>509.8</ele>
        <time>2019-04-15T09:39:54Z</time>
      </trkpt>
      <trkpt lat="44.55311" lon="5.17402">
        <ele>510.6</ele>
        <time>2019-04-15T09:39:58Z</time>
      </trkpt>
      <trkpt lat="44.55297" lon="5.17423">
        <ele>510.8</ele>
        <time>2019-04-15T09:40:02Z</time>
      </trkpt>
      <trkpt lat="44.55283" lon="5.17445">
        <ele>511.6</ele>
        <time>2019-04-15T09:40:06Z</time>
      </trkpt>
      <trkpt lat="44.5527" lon="5.17467">
        <ele>512.8</ele>
        <time>2019-04-15T09:40:10Z</time>
      </trkpt>
      <trkpt lat="44.55256" lon="5.17488">
        <ele>513.2</ele>
        <time>2019-04-15T09:40:14Z</time>
      </trkpt>
      <trkpt lat="44.55243" lon="5.17511">
        <ele>513.4</ele>
        <time>2019-04-15T09:40:18Z</time>
      </trkpt>
      <trkpt lat="44.5523" lon="5.17537">
        <ele>514.2</ele>
        <time>2019-04-15T09:40:22Z</time>
      </trkpt>
      <trkpt lat="44.55219" lon="5.17563">
        <ele>514.2</ele>
        <time>2019-04-15T09:40:26Z</time>
      </trkpt>
      <trkpt lat="44.55207" lon="5.17589">
        <ele>515.2</ele>
        <time>2019-04-15T09:40:30Z</time>
      </trkpt>
      <trkpt lat="44.55195" lon="5.17614">
        <ele>515.8</ele>
        <time>2019-04-15T09:40:34Z</time>
      </trkpt>
      <trkpt lat="44.55184" lon="5.1764">
        <ele>515.8</ele>
        <time>2019-04-15T09:40:38Z</time>
      </trkpt>
      <trkpt lat="44.55172" lon="5.17665">
        <ele>517.2</ele>
        <time>2019-04-15T09:40:42Z</time>
      </trkpt>
      <trkpt lat="44.55161" lon="5.17692">
        <ele>517.4</ele>
        <time>2019-04-15T09:40:46Z</time>
      </trkpt>
      <trkpt lat="44.55155" lon="5.17725">
        <ele>517.6</ele>
        <time>2019-04-15T09:40:50Z</time>
      </trkpt>
      <trkpt lat="44.55148" lon="5.17755">
        <ele>518</ele>
        <time>2019-04-15T09:40:54Z</time>
      </trkpt>
      <trkpt lat="44.55139" lon="5.17784">
        <ele>518.8</ele>
        <time>2019-04-15T09:40:58Z</time>
      </trkpt>
      <trkpt lat="44.55133" lon="5.17812">
        <ele>519.6</ele>
        <time>2019-04-15T09:41:02Z</time>
      </trkpt>
      <trkpt lat="44.55131" lon="5.17841">
        <ele>521</ele>
        <time>2019-04-15T09:41:06Z</time>
      </trkpt>
      <trkpt lat="44.55126" lon="5.1787">
        <ele>522.2</ele>
        <time>2019-04-15T09:41:10Z</time>
      </trkpt>
      <trkpt lat="44.55115" lon="5.17895">
        <ele>523.2</ele>
        <time>2019-04-15T09:41:14Z</time>
      </trkpt>
      <trkpt lat="44.55105" lon="5.1792">
        <ele>524.6</ele>
        <time>2019-04-15T09:41:18Z</time>
      </trkpt>
      <trkpt lat="44.55096" lon="5.17946">
        <ele>525</ele>
        <time>2019-04-15T09:41:22Z</time>
      </trkpt>
      <trkpt lat="44.55089" lon="5.17972">
        <ele>526</ele>
        <time>2019-04-15T09:41:26Z</time>
      </trkpt>
      <trkpt lat="44.55084" lon="5.18">
        <ele>527.4</ele>
        <time>2019-04-15T09:41:30Z</time>
      </trkpt>
      <trkpt lat="44.55081" lon="5.18029">
        <ele>528.2</ele>
        <time>2019-04-15T09:41:34Z</time>
      </trkpt>
      <trkpt lat="44.55077" lon="5.18057">
        <ele>529.6</ele>
        <time>2019-04-15T09:41:38Z</time>
      </trkpt>
      <trkpt lat="44.55072" lon="5.18084">
        <ele>530</ele>
        <time>2019-04-15T09:41:42Z</time>
      </trkpt>
      <trkpt lat="44.55067" lon="5.18112">
        <ele>531.8</ele>
        <time>2019-04-15T09:41:46Z</time>
      </trkpt>
      <trkpt lat="44.55061" lon="5.18139">
        <ele>532.8</ele>
        <time>2019-04-15T09:41:50Z</time>
      </trkpt>
      <trkpt lat="44.55056" lon="5.18165">
        <ele>534</ele>
        <time>2019-04-15T09:41:54Z</time>
      </trkpt>
      <trkpt lat="44.55058" lon="5.18193">
        <ele>535.2</ele>
        <time>2019-04-15T09:41:58Z</time>
      </trkpt>
      <trkpt lat="44.5507" lon="5.18216">
        <ele>535.2</ele>
        <time>2019-04-15T09:42:02Z</time>
      </trkpt>
      <trkpt lat="44.55084" lon="5.18239">
        <ele>535.6</ele>
        <time>2019-04-15T09:42:06Z</time>
      </trkpt>
      <trkpt lat="44.55097" lon="5.18264">
        <ele>536</ele>
        <time>2019-04-15T09:42:10Z</time>
      </trkpt>
      <trkpt lat="44.55107" lon="5.18289">
        <ele>537.2</ele>
        <time>2019-04-15T09:42:14Z</time>
      </trkpt>
      <trkpt lat="44.5511" lon="5.1832">
        <ele>537.6</ele>
        <time>2019-04-15T09:42:18Z</time>
      </trkpt>
      <trkpt lat="44.55105" lon="5.18349">
        <ele>538.2</ele>
        <time>2019-04-15T09:42:22Z</time>
      </trkpt>
      <trkpt lat="44.55094" lon="5.18374">
        <ele>539</ele>
        <time>2019-04-15T09:42:26Z</time>
      </trkpt>
      <trkpt lat="44.55081" lon="5.18397">
        <ele>539.8</ele>
        <time>2019-04-15T09:42:30Z</time>
      </trkpt>
      <trkpt lat="44.55069" lon="5.18421">
        <ele>541</ele>
        <time>2019-04-15T09:42:34Z</time>
      </trkpt>
      <trkpt lat="44.55056" lon="5.18443">
        <ele>541.4</ele>
        <time>2019-04-15T09:42:38Z</time>
      </trkpt>
      <trkpt lat="44.55042" lon="5.18464">
        <ele>542.6</ele>
        <time>2019-04-15T09:42:42Z</time>
      </trkpt>
      <trkpt lat="44.55028" lon="5.18484">
        <ele>543.2</ele>
        <time>2019-04-15T09:42:46Z</time>
      </trkpt>
      <trkpt lat="44.55014" lon="5.18505">
        <ele>544.2</ele>
        <time>2019-04-15T09:42:50Z</time>
      </trkpt>
      <trkpt lat="44.55002" lon="5.18529">
        <ele>544.6</ele>
        <time>2019-04-15T09:42:54Z</time>
      </trkpt>
      <trkpt lat="44.54991" lon="5.18554">
        <ele>545</ele>
        <time>2019-04-15T09:42:58Z</time>
      </trkpt>
      <trkpt lat="44.54979" lon="5.18578">
        <ele>546.6</ele>
        <time>2019-04-15T09:43:02Z</time>
      </trkpt>
      <trkpt lat="44.54963" lon="5.18596">
        <ele>547.8</ele>
        <time>2019-04-15T09:43:06Z</time>
      </trkpt>
      <trkpt lat="44.54945" lon="5.18609">
        <ele>549</ele>
        <time>2019-04-15T09:43:10Z</time>
      </trkpt>
      <trkpt lat="44.54927" lon="5.18622">
        <ele>549.2</ele>
        <time>2019-04-15T09:43:14Z</time>
      </trkpt>
      <trkpt lat="44.54909" lon="5.18636">
        <ele>550</ele>
        <time>2019-04-15T09:43:18Z</time>
      </trkpt>
      <trkpt lat="44.5489" lon="5.18648">
        <ele>550.8</ele>
        <time>2019-04-15T09:43:22Z</time>
      </trkpt>
      <trkpt lat="44.54871" lon="5.1866">
        <ele>552.2</ele>
        <time>2019-04-15T09:43:26Z</time>
      </trkpt>
      <trkpt lat="44.54854" lon="5.18676">
        <ele>553.2</ele>
        <time>2019-04-15T09:43:30Z</time>
      </trkpt>
      <trkpt lat="44.54838" lon="5.18693">
        <ele>554.4</ele>
        <time>2019-04-15T09:43:34Z</time>
      </trkpt>
      <trkpt lat="44.54824" lon="5.18711">
        <ele>555.4</ele>
        <time>2019-04-15T09:43:38Z</time>
      </trkpt>
      <trkpt lat="44.54808" lon="5.18726">
        <ele>556.2</ele>
        <time>2019-04-15T09:43:42Z</time>
      </trkpt>
      <trkpt lat="44.54788" lon="5.18732">
        <ele>557.6</ele>
        <time>2019-04-15T09:43:46Z</time>
      </trkpt>
      <trkpt lat="44.5477" lon="5.18728">
        <ele>558.6</ele>
        <time>2019-04-15T09:43:50Z</time>
      </trkpt>
      <trkpt lat="44.54751" lon="5.18724">
        <ele>559.6</ele>
        <time>2019-04-15T09:43:54Z</time>
      </trkpt>
      <trkpt lat="44.54732" lon="5.18723">
        <ele>560.6</ele>
        <time>2019-04-15T09:43:58Z</time>
      </trkpt>
      <trkpt lat="44.54714" lon="5.18726">
        <ele>562</ele>
        <time>2019-04-15T09:44:02Z</time>
      </trkpt>
      <trkpt lat="44.54695" lon="5.1873">
        <ele>562.2</ele>
        <time>2019-04-15T09:44:06Z</time>
      </trkpt>
      <trkpt lat="44.54675" lon="5.18735">
        <ele>563.6</ele>
        <time>2019-04-15T09:44:10Z</time>
      </trkpt>
      <trkpt lat="44.54656" lon="5.18743">
        <ele>564</ele>
        <time>2019-04-15T09:44:14Z</time>
      </trkpt>
      <trkpt lat="44.54639" lon="5.18759">
        <ele>564.2</ele>
        <time>2019-04-15T09:44:18Z</time>
      </trkpt>
      <trkpt lat="44.54624" lon="5.18777">
        <ele>564.6</ele>
        <time>2019-04-15T09:44:22Z</time>
      </trkpt>
      <trkpt lat="44.54609" lon="5.18797">
        <ele>566</ele>
        <time>2019-04-15T09:44:26Z</time>
      </trkpt>
      <trkpt lat="44.54594" lon="5.18815">
        <ele>566.8</ele>
        <time>2019-04-15T09:44:30Z</time>
      </trkpt>
      <trkpt lat="44.54578" lon="5.18833">
        <ele>567.2</ele>
        <time>2019-04-15T09:44:34Z</time>
      </trkpt>
      <trkpt lat="44.54558" lon="5.18842">
        <ele>567</ele>
        <time>2019-04-15T09:44:38Z</time>
      </trkpt>
      <trkpt lat="44.54536" lon="5.18848">
        <ele>568</ele>
        <time>2019-04-15T09:44:42Z</time>
      </trkpt>
      <trkpt lat="44.54514" lon="5.1885">
        <ele>568.6</ele>
        <time>2019-04-15T09:44:46Z</time>
      </trkpt>
      <trkpt lat="44.54492" lon="5.18849">
        <ele>569.4</ele>
        <time>2019-04-15T09:44:50Z</time>
      </trkpt>
      <trkpt lat="44.54472" lon="5.18848">
        <ele>570.6</ele>
        <time>2019-04-15T09:44:54Z</time>
      </trkpt>
      <trkpt lat="44.54451" lon="5.18851">
        <ele>571.2</ele>
        <time>2019-04-15T09:44:58Z</time>
      </trkpt>
      <trkpt lat="44.54432" lon="5.1886">
        <ele>572</ele>
        <time>2019-04-15T09:45:02Z</time>
      </trkpt>
      <trkpt lat="44.54414" lon="5.18875">
        <ele>573.2</ele>
        <time>2019-04-15T09:45:06Z</time>
      </trkpt>
      <trkpt lat="44.54398" lon="5.18896">
        <ele>573.6</ele>
        <time>2019-04-15T09:45:10Z</time>
      </trkpt>
      <trkpt lat="44.54383" lon="5.18921">
        <ele>573.6</ele>
        <time>2019-04-15T09:45:14Z</time>
      </trkpt>
      <trkpt lat="44.54368" lon="5.18947">
        <ele>574.4</ele>
        <time>2019-04-15T09:45:18Z</time>
      </trkpt>
      <trkpt lat="44.54352" lon="5.18974">
        <ele>573.4</ele>
        <time>2019-04-15T09:45:22Z</time>
      </trkpt>
      <trkpt lat="44.54335" lon="5.19">
        <ele>574</ele>
        <time>2019-04-15T09:45:26Z</time>
      </trkpt>
      <trkpt lat="44.54314" lon="5.19023">
        <ele>573.8</ele>
        <time>2019-04-15T09:45:30Z</time>
      </trkpt>
      <trkpt lat="44.54294" lon="5.19044">
        <ele>573.4</ele>
        <time>2019-04-15T09:45:34Z</time>
      </trkpt>
      <trkpt lat="44.54273" lon="5.19065">
        <ele>573.6</ele>
        <time>2019-04-15T09:45:38Z</time>
      </trkpt>
      <trkpt lat="44.5425" lon="5.19084">
        <ele>574</ele>
        <time>2019-04-15T09:45:42Z</time>
      </trkpt>
      <trkpt lat="44.54227" lon="5.19102">
        <ele>574.4</ele>
        <time>2019-04-15T09:45:46Z</time>
      </trkpt>
      <trkpt lat="44.542" lon="5.19114">
        <ele>573.8</ele>
        <time>2019-04-15T09:45:50Z</time>
      </trkpt>
      <trkpt lat="44.54173" lon="5.19131">
        <ele>573.6</ele>
        <time>2019-04-15T09:45:54Z</time>
      </trkpt>
      <trkpt lat="44.54148" lon="5.19152">
        <ele>574</ele>
        <time>2019-04-15T09:45:58Z</time>
      </trkpt>
      <trkpt lat="44.54124" lon="5.19174">
        <ele>574</ele>
        <time>2019-04-15T09:46:02Z</time>
      </trkpt>
      <trkpt lat="44.54104" lon="5.192">
        <ele>574.4</ele>
        <time>2019-04-15T09:46:06Z</time>
      </trkpt>
      <trkpt lat="44.54091" lon="5.19237">
        <ele>574</ele>
        <time>2019-04-15T09:46:10Z</time>
      </trkpt>
      <trkpt lat="44.54078" lon="5.19273">
        <ele>574.4</ele>
        <time>2019-04-15T09:46:14Z</time>
      </trkpt>
      <trkpt lat="44.5406" lon="5.19304">
        <ele>573.8</ele>
        <time>2019-04-15T09:46:18Z</time>
      </trkpt>
      <trkpt lat="44.54041" lon="5.19336">
        <ele>574.4</ele>
        <time>2019-04-15T09:46:22Z</time>
      </trkpt>
      <trkpt lat="44.54031" lon="5.19373">
        <ele>574.8</ele>
        <time>2019-04-15T09:46:26Z</time>
      </trkpt>
      <trkpt lat="44.54025" lon="5.19415">
        <ele>574.8</ele>
        <time>2019-04-15T09:46:30Z</time>
      </trkpt>
      <trkpt lat="44.54013" lon="5.19454">
        <ele>575</ele>
        <time>2019-04-15T09:46:34Z</time>
      </trkpt>
      <trkpt lat="44.53995" lon="5.19486">
        <ele>576</ele>
        <time>2019-04-15T09:46:38Z</time>
      </trkpt>
      <trkpt lat="44.53975" lon="5.1951">
        <ele>577.2</ele>
        <time>2019-04-15T09:46:42Z</time>
      </trkpt>
      <trkpt lat="44.53952" lon="5.19534">
        <ele>576.6</ele>
        <time>2019-04-15T09:46:46Z</time>
      </trkpt>
      <trkpt lat="44.53933" lon="5.19562">
        <ele>576.8</ele>
        <time>2019-04-15T09:46:50Z</time>
      </trkpt>
      <trkpt lat="44.53921" lon="5.19598">
        <ele>576.4</ele>
        <time>2019-04-15T09:46:54Z</time>
      </trkpt>
      <trkpt lat="44.53911" lon="5.19636">
        <ele>577</ele>
        <time>2019-04-15T09:46:58Z</time>
      </trkpt>
      <trkpt lat="44.53898" lon="5.19669">
        <ele>577.4</ele>
        <time>2019-04-15T09:47:02Z</time>
      </trkpt>
      <trkpt lat="44.53885" lon="5.197">
        <ele>578</ele>
        <time>2019-04-15T09:47:06Z</time>
      </trkpt>
      <trkpt lat="44.53872" lon="5.19731">
        <ele>578.2</ele>
        <time>2019-04-15T09:47:10Z</time>
      </trkpt>
      <trkpt lat="44.53859" lon="5.19761">
        <ele>578.8</ele>
        <time>2019-04-15T09:47:14Z</time>
      </trkpt>
      <trkpt lat="44.53846" lon="5.1979">
        <ele>579.4</ele>
        <time>2019-04-15T09:47:18Z</time>
      </trkpt>
      <trkpt lat="44.5383" lon="5.19817">
        <ele>579.6</ele>
        <time>2019-04-15T09:47:22Z</time>
      </trkpt>
      <trkpt lat="44.53812" lon="5.19841">
        <ele>580.2</ele>
        <time>2019-04-15T09:47:26Z</time>
      </trkpt>
      <trkpt lat="44.53792" lon="5.19864">
        <ele>580.8</ele>
        <time>2019-04-15T09:47:30Z</time>
      </trkpt>
      <trkpt lat="44.53774" lon="5.19888">
        <ele>581.8</ele>
        <time>2019-04-15T09:47:34Z</time>
      </trkpt>
      <trkpt lat="44.53756" lon="5.19913">
        <ele>582.4</ele>
        <time>2019-04-15T09:47:38Z</time>
      </trkpt>
      <trkpt lat="44.53739" lon="5.1994">
        <ele>582.8</ele>
        <time>2019-04-15T09:47:42Z</time>
      </trkpt>
      <trkpt lat="44.53721" lon="5.19966">
        <ele>583.4</ele>
        <time>2019-04-15T09:47:46Z</time>
      </trkpt>
      <trkpt lat="44.53703" lon="5.19989">
        <ele>583.8</ele>
        <time>2019-04-15T09:47:50Z</time>
      </trkpt>
      <trkpt lat="44.53685" lon="5.20012">
        <ele>584.4</ele>
        <time>2019-04-15T09:47:54Z</time>
      </trkpt>
      <trkpt lat="44.53672" lon="5.20038">
        <ele>584.6</ele>
        <time>2019-04-15T09:47:58Z</time>
      </trkpt>
      <trkpt lat="44.53659" lon="5.20067">
        <ele>585</ele>
        <time>2019-04-15T09:48:02Z</time>
      </trkpt>
      <trkpt lat="44.53645" lon="5.20093">
        <ele>585.8</ele>
        <time>2019-04-15T09:48:06Z</time>
      </trkpt>
      <trkpt lat="44.53629" lon="5.20117">
        <ele>585.6</ele>
        <time>2019-04-15T09:48:10Z</time>
      </trkpt>
      <trkpt lat="44.53614" lon="5.2014">
        <ele>586.2</ele>
        <time>2019-04-15T09:48:14Z</time>
      </trkpt>
      <trkpt lat="44.536" lon="5.20163">
        <ele>586.6</ele>
        <time>2019-04-15T09:48:18Z</time>
      </trkpt>
      <trkpt lat="44.53586" lon="5.20186">
        <ele>587.6</ele>
        <time>2019-04-15T09:48:22Z</time>
      </trkpt>
      <trkpt lat="44.53573" lon="5.2021">
        <ele>589.6</ele>
        <time>2019-04-15T09:48:26Z</time>
      </trkpt>
      <trkpt lat="44.53559" lon="5.20233">
        <ele>588.8</ele>
        <time>2019-04-15T09:48:30Z</time>
      </trkpt>
      <trkpt lat="44.53543" lon="5.20256">
        <ele>589.6</ele>
        <time>2019-04-15T09:48:34Z</time>
      </trkpt>
      <trkpt lat="44.53533" lon="5.20285">
        <ele>590.4</ele>
        <time>2019-04-15T09:48:38Z</time>
      </trkpt>
      <trkpt lat="44.53529" lon="5.20316">
        <ele>590.8</ele>
        <time>2019-04-15T09:48:42Z</time>
      </trkpt>
      <trkpt lat="44.53527" lon="5.20347">
        <ele>591.4</ele>
        <time>2019-04-15T09:48:46Z</time>
      </trkpt>
      <trkpt lat="44.53528" lon="5.20376">
        <ele>591</ele>
        <time>2019-04-15T09:48:50Z</time>
      </trkpt>
      <trkpt lat="44.53529" lon="5.20406">
        <ele>591.6</ele>
        <time>2019-04-15T09:48:54Z</time>
      </trkpt>
      <trkpt lat="44.53526" lon="5.20436">
        <ele>591.8</ele>
        <time>2019-04-15T09:48:58Z</time>
      </trkpt>
      <trkpt lat="44.53523" lon="5.20463">
        <ele>592.4</ele>
        <time>2019-04-15T09:49:02Z</time>
      </trkpt>
      <trkpt lat="44.53517" lon="5.2049">
        <ele>592.8</ele>
        <time>2019-04-15T09:49:06Z</time>
      </trkpt>
      <trkpt lat="44.53507" lon="5.20516">
        <ele>593.2</ele>
        <time>2019-04-15T09:49:10Z</time>
      </trkpt>
      <trkpt lat="44.53491" lon="5.20539">
        <ele>593.8</ele>
        <time>2019-04-15T09:49:14Z</time>
      </trkpt>
      <trkpt lat="44.53472" lon="5.20555">
        <ele>595.6</ele>
        <time>2019-04-15T09:49:18Z</time>
      </trkpt>
      <trkpt lat="44.53452" lon="5.20566">
        <ele>595.4</ele>
        <time>2019-04-15T09:49:22Z</time>
      </trkpt>
      <trkpt lat="44.5343" lon="5.20575">
        <ele>596</ele>
        <time>2019-04-15T09:49:26Z</time>
      </trkpt>
      <trkpt lat="44.53408" lon="5.20582">
        <ele>596</ele>
        <time>2019-04-15T09:49:30Z</time>
      </trkpt>
      <trkpt lat="44.53388" lon="5.20592">
        <ele>596.6</ele>
        <time>2019-04-15T09:49:34Z</time>
      </trkpt>
      <trkpt lat="44.5337" lon="5.20608">
        <ele>597</ele>
        <time>2019-04-15T09:49:38Z</time>
      </trkpt>
      <trkpt lat="44.53356" lon="5.2063">
        <ele>597.6</ele>
        <time>2019-04-15T09:49:42Z</time>
      </trkpt>
      <trkpt lat="44.53347" lon="5.20659">
        <ele>597.2</ele>
        <time>2019-04-15T09:49:46Z</time>
      </trkpt>
      <trkpt lat="44.53342" lon="5.2069">
        <ele>597.6</ele>
        <time>2019-04-15T09:49:50Z</time>
      </trkpt>
      <trkpt lat="44.53337" lon="5.20719">
        <ele>598.8</ele>
        <time>2019-04-15T09:49:54Z</time>
      </trkpt>
      <trkpt lat="44.53333" lon="5.20749">
        <ele>599</ele>
        <time>2019-04-15T09:49:58Z</time>
      </trkpt>
      <trkpt lat="44.53328" lon="5.20778">
        <ele>599.4</ele>
        <time>2019-04-15T09:50:02Z</time>
      </trkpt>
      <trkpt lat="44.53325" lon="5.20807">
        <ele>600.2</ele>
        <time>2019-04-15T09:50:06Z</time>
      </trkpt>
      <trkpt lat="44.5332" lon="5.20838">
        <ele>600.6</ele>
        <time>2019-04-15T09:50:10Z</time>
      </trkpt>
      <trkpt lat="44.53313" lon="5.20868">
        <ele>601.2</ele>
        <time>2019-04-15T09:50:14Z</time>
      </trkpt>
      <trkpt lat="44.53305" lon="5.20896">
        <ele>601.8</ele>
        <time>2019-04-15T09:50:18Z</time>
      </trkpt>
      <trkpt lat="44.53296" lon="5.20924">
        <ele>602.2</ele>
        <time>2019-04-15T09:50:22Z</time>
      </trkpt>
      <trkpt lat="44.53289" lon="5.20953">
        <ele>602.6</ele>
        <time>2019-04-15T09:50:26Z</time>
      </trkpt>
      <trkpt lat="44.53286" lon="5.20983">
        <ele>602.8</ele>
        <time>2019-04-15T09:50:30Z</time>
      </trkpt>
      <trkpt lat="44.53292" lon="5.21013">
        <ele>603.4</ele>
        <time>2019-04-15T09:50:34Z</time>
      </trkpt>
      <trkpt lat="44.53301" lon="5.21042">
        <ele>604.6</ele>
        <time>2019-04-15T09:50:38Z</time>
      </trkpt>
      <trkpt lat="44.5331" lon="5.21071">
        <ele>604.4</ele>
        <time>2019-04-15T09:50:42Z</time>
      </trkpt>
      <trkpt lat="44.53321" lon="5.211">
        <ele>604.8</ele>
        <time>2019-04-15T09:50:46Z</time>
      </trkpt>
      <trkpt lat="44.53331" lon="5.21128">
        <ele>604.6</ele>
        <time>2019-04-15T09:50:50Z</time>
      </trkpt>
      <trkpt lat="44.53342" lon="5.21156">
        <ele>605.2</ele>
        <time>2019-04-15T09:50:54Z</time>
      </trkpt>
      <trkpt lat="44.53353" lon="5.21183">
        <ele>605.8</ele>
        <time>2019-04-15T09:50:58Z</time>
      </trkpt>
      <trkpt lat="44.53369" lon="5.21205">
        <ele>606</ele>
        <time>2019-04-15T09:51:02Z</time>
      </trkpt>
      <trkpt lat="44.53388" lon="5.21225">
        <ele>606</ele>
        <time>2019-04-15T09:51:06Z</time>
      </trkpt>
      <trkpt lat="44.53407" lon="5.21247">
        <ele>606.2</ele>
        <time>2019-04-15T09:51:10Z</time>
      </trkpt>
      <trkpt lat="44.53424" lon="5.2127">
        <ele>606.4</ele>
        <time>2019-04-15T09:51:14Z</time>
      </trkpt>
      <trkpt lat="44.53439" lon="5.21295">
        <ele>607.4</ele>
        <time>2019-04-15T09:51:18Z</time>
      </trkpt>
      <trkpt lat="44.53452" lon="5.21324">
        <ele>607.4</ele>
        <time>2019-04-15T09:51:22Z</time>
      </trkpt>
      <trkpt lat="44.5346" lon="5.21354">
        <ele>608</ele>
        <time>2019-04-15T09:51:26Z</time>
      </trkpt>
      <trkpt lat="44.53458" lon="5.21386">
        <ele>608.6</ele>
        <time>2019-04-15T09:51:30Z</time>
      </trkpt>
      <trkpt lat="44.53446" lon="5.21413">
        <ele>609</ele>
        <time>2019-04-15T09:51:34Z</time>
      </trkpt>
      <trkpt lat="44.5343" lon="5.21438">
        <ele>609.2</ele>
        <time>2019-04-15T09:51:38Z</time>
      </trkpt>
      <trkpt lat="44.53414" lon="5.21463">
        <ele>610.6</ele>
        <time>2019-04-15T09:51:42Z</time>
      </trkpt>
      <trkpt lat="44.53398" lon="5.21489">
        <ele>609.8</ele>
        <time>2019-04-15T09:51:46Z</time>
      </trkpt>
      <trkpt lat="44.53381" lon="5.21513">
        <ele>611</ele>
        <time>2019-04-15T09:51:50Z</time>
      </trkpt>
      <trkpt lat="44.53362" lon="5.21533">
        <ele>610.4</ele>
        <time>2019-04-15T09:51:54Z</time>
      </trkpt>
      <trkpt lat="44.53341" lon="5.21548">
        <ele>610.4</ele>
        <time>2019-04-15T09:51:58Z</time>
      </trkpt>
      <trkpt lat="44.5332" lon="5.21562">
        <ele>611</ele>
        <time>2019-04-15T09:52:02Z</time>
      </trkpt>
      <trkpt lat="44.53298" lon="5.21576">
        <ele>611.4</ele>
        <time>2019-04-15T09:52:06Z</time>
      </trkpt>
      <trkpt lat="44.53277" lon="5.21591">
        <ele>611.8</ele>
        <time>2019-04-15T09:52:10Z</time>
      </trkpt>
      <trkpt lat="44.53256" lon="5.21605">
        <ele>612</ele>
        <time>2019-04-15T09:52:14Z</time>
      </trkpt>
      <trkpt lat="44.53235" lon="5.21619">
        <ele>612</ele>
        <time>2019-04-15T09:52:18Z</time>
      </trkpt>
      <trkpt lat="44.53214" lon="5.21634">
        <ele>612.2</ele>
        <time>2019-04-15T09:52:22Z</time>
      </trkpt>
      <trkpt lat="44.53192" lon="5.21649">
        <ele>612.8</ele>
        <time>2019-04-15T09:52:26Z</time>
      </trkpt>
      <trkpt lat="44.53169" lon="5.21665">
        <ele>612.4</ele>
        <time>2019-04-15T09:52:30Z</time>
      </trkpt>
      <trkpt lat="44.53146" lon="5.21679">
        <ele>612.6</ele>
        <time>2019-04-15T09:52:34Z</time>
      </trkpt>
      <trkpt lat="44.53122" lon="5.21692">
        <ele>612.8</ele>
        <time>2019-04-15T09:52:38Z</time>
      </trkpt>
      <trkpt lat="44.53099" lon="5.21704">
        <ele>612.8</ele>
        <time>2019-04-15T09:52:42Z</time>
      </trkpt>
      <trkpt lat="44.53077" lon="5.21715">
        <ele>613.6</ele>
        <time>2019-04-15T09:52:46Z</time>
      </trkpt>
      <trkpt lat="44.53055" lon="5.21726">
        <ele>614.4</ele>
        <time>2019-04-15T09:52:50Z</time>
      </trkpt>
      <trkpt lat="44.53034" lon="5.21736">
        <ele>615.4</ele>
        <time>2019-04-15T09:52:54Z</time>
      </trkpt>
      <trkpt lat="44.53012" lon="5.21747">
        <ele>616.4</ele>
        <time>2019-04-15T09:52:58Z</time>
      </trkpt>
      <trkpt lat="44.52991" lon="5.21758">
        <ele>616.2</ele>
        <time>2019-04-15T09:53:02Z</time>
      </trkpt>
      <trkpt lat="44.52969" lon="5.2177">
        <ele>615.6</ele>
        <time>2019-04-15T09:53:06Z</time>
      </trkpt>
      <trkpt lat="44.52944" lon="5.21783">
        <ele>614.6</ele>
        <time>2019-04-15T09:53:10Z</time>
      </trkpt>
      <trkpt lat="44.52917" lon="5.21796">
        <ele>613.6</ele>
        <time>2019-04-15T09:53:14Z</time>
      </trkpt>
      <trkpt lat="44.5289" lon="5.2181">
        <ele>614</ele>
        <time>2019-04-15T09:53:18Z</time>
      </trkpt>
      <trkpt lat="44.52864" lon="5.21823">
        <ele>614</ele>
        <time>2019-04-15T09:53:22Z</time>
      </trkpt>
      <trkpt lat="44.52839" lon="5.21835">
        <ele>613.8</ele>
        <time>2019-04-15T09:53:26Z</time>
      </trkpt>
      <trkpt lat="44.52814" lon="5.21848">
        <ele>613.8</ele>
        <time>2019-04-15T09:53:30Z</time>
      </trkpt>
      <trkpt lat="44.52789" lon="5.2186">
        <ele>614.2</ele>
        <time>2019-04-15T09:53:34Z</time>
      </trkpt>
      <trkpt lat="44.52765" lon="5.21873">
        <ele>614</ele>
        <time>2019-04-15T09:53:38Z</time>
      </trkpt>
      <trkpt lat="44.52739" lon="5.21882">
        <ele>613.6</ele>
        <time>2019-04-15T09:53:42Z</time>
      </trkpt>
      <trkpt lat="44.52713" lon="5.21881">
        <ele>612.8</ele>
        <time>2019-04-15T09:53:46Z</time>
      </trkpt>
      <trkpt lat="44.52686" lon="5.21874">
        <ele>613</ele>
        <time>2019-04-15T09:53:50Z</time>
      </trkpt>
      <trkpt lat="44.5266" lon="5.21868">
        <ele>613.2</ele>
        <time>2019-04-15T09:53:54Z</time>
      </trkpt>
      <trkpt lat="44.52634" lon="5.21862">
        <ele>613</ele>
        <time>2019-04-15T09:53:58Z</time>
      </trkpt>
      <trkpt lat="44.52608" lon="5.21856">
        <ele>612.8</ele>
        <time>2019-04-15T09:54:02Z</time>
      </trkpt>
      <trkpt lat="44.52583" lon="5.2185">
        <ele>613.4</ele>
        <time>2019-04-15T09:54:06Z</time>
      </trkpt>
      <trkpt lat="44.52559" lon="5.21845">
        <ele>614.2</ele>
        <time>2019-04-15T09:54:10Z</time>
      </trkpt>
      <trkpt lat="44.52536" lon="5.2184">
        <ele>614.2</ele>
        <time>2019-04-15T09:54:14Z</time>
      </trkpt>
      <trkpt lat="44.52513" lon="5.21833">
        <ele>614.6</ele>
        <time>2019-04-15T09:54:18Z</time>
      </trkpt>
      <trkpt lat="44.52489" lon="5.21827">
        <ele>615.4</ele>
        <time>2019-04-15T09:54:22Z</time>
      </trkpt>
      <trkpt lat="44.52464" lon="5.21823">
        <ele>615.2</ele>
        <time>2019-04-15T09:54:26Z</time>
      </trkpt>
      <trkpt lat="44.5244" lon="5.21822">
        <ele>616.6</ele>
        <time>2019-04-15T09:54:30Z</time>
      </trkpt>
      <trkpt lat="44.52415" lon="5.21819">
        <ele>615.8</ele>
        <time>2019-04-15T09:54:34Z</time>
      </trkpt>
      <trkpt lat="44.52391" lon="5.21815">
        <ele>616</ele>
        <time>2019-04-15T09:54:38Z</time>
      </trkpt>
      <trkpt lat="44.52367" lon="5.21807">
        <ele>616</ele>
        <time>2019-04-15T09:54:42Z</time>
      </trkpt>
      <trkpt lat="44.52344" lon="5.21793">
        <ele>616.4</ele>
        <time>2019-04-15T09:54:46Z</time>
      </trkpt>
      <trkpt lat="44.52324" lon="5.21775">
        <ele>616.6</ele>
        <time>2019-04-15T09:54:50Z</time>
      </trkpt>
      <trkpt lat="44.52305" lon="5.21759">
        <ele>617.8</ele>
        <time>2019-04-15T09:54:54Z</time>
      </trkpt>
      <trkpt lat="44.52284" lon="5.21748">
        <ele>618.8</ele>
        <time>2019-04-15T09:54:58Z</time>
      </trkpt>
      <trkpt lat="44.52262" lon="5.21747">
        <ele>618.8</ele>
        <time>2019-04-15T09:55:02Z</time>
      </trkpt>
      <trkpt lat="44.52239" lon="5.21752">
        <ele>619</ele>
        <time>2019-04-15T09:55:06Z</time>
      </trkpt>
      <trkpt lat="44.52217" lon="5.2176">
        <ele>619.6</ele>
        <time>2019-04-15T09:55:10Z</time>
      </trkpt>
      <trkpt lat="44.52194" lon="5.21762">
        <ele>619.6</ele>
        <time>2019-04-15T09:55:14Z</time>
      </trkpt>
      <trkpt lat="44.52172" lon="5.21756">
        <ele>621.2</ele>
        <time>2019-04-15T09:55:18Z</time>
      </trkpt>
      <trkpt lat="44.5215" lon="5.21746">
        <ele>622</ele>
        <time>2019-04-15T09:55:22Z</time>
      </trkpt>
      <trkpt lat="44.52129" lon="5.21736">
        <ele>621.6</ele>
        <time>2019-04-15T09:55:26Z</time>
      </trkpt>
      <trkpt lat="44.52108" lon="5.21727">
        <ele>622.2</ele>
        <time>2019-04-15T09:55:30Z</time>
      </trkpt>
      <trkpt lat="44.52087" lon="5.21718">
        <ele>622.6</ele>
        <time>2019-04-15T09:55:34Z</time>
      </trkpt>
      <trkpt lat="44.52067" lon="5.2171">
        <ele>623.2</ele>
        <time>2019-04-15T09:55:38Z</time>
      </trkpt>
      <trkpt lat="44.5205" lon="5.21701">
        <ele>624.6</ele>
        <time>2019-04-15T09:55:42Z</time>
      </trkpt>
      <trkpt lat="44.52033" lon="5.21693">
        <ele>625.8</ele>
        <time>2019-04-15T09:55:46Z</time>
      </trkpt>
      <trkpt lat="44.52014" lon="5.21687">
        <ele>627</ele>
        <time>2019-04-15T09:55:50Z</time>
      </trkpt>
      <trkpt lat="44.51996" lon="5.21681">
        <ele>627.2</ele>
        <time>2019-04-15T09:55:54Z</time>
      </trkpt>
      <trkpt lat="44.51977" lon="5.21672">
        <ele>628.4</ele>
        <time>2019-04-15T09:55:58Z</time>
      </trkpt>
      <trkpt lat="44.51959" lon="5.21658">
        <ele>627.6</ele>
        <time>2019-04-15T09:56:02Z</time>
      </trkpt>
      <trkpt lat="44.51939" lon="5.21637">
        <ele>626.6</ele>
        <time>2019-04-15T09:56:06Z</time>
      </trkpt>
      <trkpt lat="44.51916" lon="5.21617">
        <ele>626.8</ele>
        <time>2019-04-15T09:56:10Z</time>
      </trkpt>
      <trkpt lat="44.51894" lon="5.216">
        <ele>627.2</ele>
        <time>2019-04-15T09:56:14Z</time>
      </trkpt>
      <trkpt lat="44.51874" lon="5.21587">
        <ele>628</ele>
        <time>2019-04-15T09:56:18Z</time>
      </trkpt>
      <trkpt lat="44.51855" lon="5.21577">
        <ele>628</ele>
        <time>2019-04-15T09:56:22Z</time>
      </trkpt>
      <trkpt lat="44.51837" lon="5.21571">
        <ele>628.4</ele>
        <time>2019-04-15T09:56:26Z</time>
      </trkpt>
      <trkpt lat="44.51818" lon="5.21565">
        <ele>628.6</ele>
        <time>2019-04-15T09:56:30Z</time>
      </trkpt>
      <trkpt lat="44.51798" lon="5.2156">
        <ele>630</ele>
        <time>2019-04-15T09:56:34Z</time>
      </trkpt>
      <trkpt lat="44.51779" lon="5.21556">
        <ele>630.8</ele>
        <time>2019-04-15T09:56:38Z</time>
      </trkpt>
      <trkpt lat="44.5176" lon="5.21554">
        <ele>630.8</ele>
        <time>2019-04-15T09:56:42Z</time>
      </trkpt>
      <trkpt lat="44.5174" lon="5.21555">
        <ele>631.2</ele>
        <time>2019-04-15T09:56:46Z</time>
      </trkpt>
      <trkpt lat="44.51721" lon="5.21558">
        <ele>631.8</ele>
        <time>2019-04-15T09:56:50Z</time>
      </trkpt>
      <trkpt lat="44.51701" lon="5.21561">
        <ele>632.4</ele>
        <time>2019-04-15T09:56:54Z</time>
      </trkpt>
      <trkpt lat="44.51681" lon="5.21558">
        <ele>632.8</ele>
        <time>2019-04-15T09:56:58Z</time>
      </trkpt>
      <trkpt lat="44.51661" lon="5.21554">
        <ele>633</ele>
        <time>2019-04-15T09:57:02Z</time>
      </trkpt>
      <trkpt lat="44.51642" lon="5.21548">
        <ele>634</ele>
        <time>2019-04-15T09:57:06Z</time>
      </trkpt>
      <trkpt lat="44.51622" lon="5.21541">
        <ele>634.4</ele>
        <time>2019-04-15T09:57:10Z</time>
      </trkpt>
      <trkpt lat="44.51603" lon="5.21535">
        <ele>634.6</ele>
        <time>2019-04-15T09:57:14Z</time>
      </trkpt>
      <trkpt lat="44.51584" lon="5.21526">
        <ele>635.4</ele>
        <time>2019-04-15T09:57:18Z</time>
      </trkpt>
      <trkpt lat="44.51565" lon="5.21518">
        <ele>636</ele>
        <time>2019-04-15T09:57:22Z</time>
      </trkpt>
      <trkpt lat="44.51547" lon="5.21511">
        <ele>637</ele>
        <time>2019-04-15T09:57:26Z</time>
      </trkpt>
      <trkpt lat="44.5153" lon="5.21503">
        <ele>637.4</ele>
        <time>2019-04-15T09:57:30Z</time>
      </trkpt>
      <trkpt lat="44.51512" lon="5.215">
        <ele>638.6</ele>
        <time>2019-04-15T09:57:34Z</time>
      </trkpt>
      <trkpt lat="44.51494" lon="5.21504">
        <ele>639.2</ele>
        <time>2019-04-15T09:57:38Z</time>
      </trkpt>
      <trkpt lat="44.51477" lon="5.2151">
        <ele>640</ele>
        <time>2019-04-15T09:57:42Z</time>
      </trkpt>
      <trkpt lat="44.51459" lon="5.21514">
        <ele>641.4</ele>
        <time>2019-04-15T09:57:46Z</time>
      </trkpt>
      <trkpt lat="44.51438" lon="5.21514">
        <ele>642</ele>
        <time>2019-04-15T09:57:50Z</time>
      </trkpt>
      <trkpt lat="44.5142" lon="5.21513">
        <ele>642.8</ele>
        <time>2019-04-15T09:57:54Z</time>
      </trkpt>
      <trkpt lat="44.51402" lon="5.21508">
        <ele>643.6</ele>
        <time>2019-04-15T09:57:58Z</time>
      </trkpt>
      <trkpt lat="44.51385" lon="5.21502">
        <ele>644.4</ele>
        <time>2019-04-15T09:58:02Z</time>
      </trkpt>
      <trkpt lat="44.51368" lon="5.21495">
        <ele>645.2</ele>
        <time>2019-04-15T09:58:06Z</time>
      </trkpt>
      <trkpt lat="44.51352" lon="5.21485">
        <ele>645.8</ele>
        <time>2019-04-15T09:58:10Z</time>
      </trkpt>
      <trkpt lat="44.51336" lon="5.21474">
        <ele>646.6</ele>
        <time>2019-04-15T09:58:14Z</time>
      </trkpt>
      <trkpt lat="44.5132" lon="5.21463">
        <ele>647.2</ele>
        <time>2019-04-15T09:58:18Z</time>
      </trkpt>
      <trkpt lat="44.51304" lon="5.21452">
        <ele>647.8</ele>
        <time>2019-04-15T09:58:22Z</time>
      </trkpt>
      <trkpt lat="44.51288" lon="5.2144">
        <ele>648.4</ele>
        <time>2019-04-15T09:58:26Z</time>
      </trkpt>
      <trkpt lat="44.51272" lon="5.21428">
        <ele>649.4</ele>
        <time>2019-04-15T09:58:30Z</time>
      </trkpt>
      <trkpt lat="44.51258" lon="5.21415">
        <ele>650.4</ele>
        <time>2019-04-15T09:58:34Z</time>
      </trkpt>
      <trkpt lat="44.51242" lon="5.21405">
        <ele>650.4</ele>
        <time>2019-04-15T09:58:38Z</time>
      </trkpt>
      <trkpt lat="44.51225" lon="5.21394">
        <ele>650.8</ele>
        <time>2019-04-15T09:58:42Z</time>
      </trkpt>
      <trkpt lat="44.51208" lon="5.21383">
        <ele>651.4</ele>
        <time>2019-04-15T09:58:46Z</time>
      </trkpt>
      <trkpt lat="44.51191" lon="5.21371">
        <ele>652.2</ele>
        <time>2019-04-15T09:58:50Z</time>
      </trkpt>
      <trkpt lat="44.51176" lon="5.21355">
        <ele>653.2</ele>
        <time>2019-04-15T09:58:54Z</time>
      </trkpt>
      <trkpt lat="44.51162" lon="5.21339">
        <ele>654</ele>
        <time>2019-04-15T09:58:58Z</time>
      </trkpt>
      <trkpt lat="44.51148" lon="5.21323">
        <ele>655</ele>
        <time>2019-04-15T09:59:02Z</time>
      </trkpt>
      <trkpt lat="44.51134" lon="5.21309">
        <ele>656</ele>
        <time>2019-04-15T09:59:06Z</time>
      </trkpt>
      <trkpt lat="44.51118" lon="5.21298">
        <ele>656.4</ele>
        <time>2019-04-15T09:59:10Z</time>
      </trkpt>
      <trkpt lat="44.51102" lon="5.21288">
        <ele>657.8</ele>
        <time>2019-04-15T09:59:14Z</time>
      </trkpt>
      <trkpt lat="44.51086" lon="5.21279">
        <ele>658</ele>
        <time>2019-04-15T09:59:18Z</time>
      </trkpt>
      <trkpt lat="44.5107" lon="5.21269">
        <ele>658.8</ele>
        <time>2019-04-15T09:59:22Z</time>
      </trkpt>
      <trkpt lat="44.51055" lon="5.21258">
        <ele>659.4</ele>
        <time>2019-04-15T09:59:26Z</time>
      </trkpt>
      <trkpt lat="44.51038" lon="5.21248">
        <ele>660.2</ele>
        <time>2019-04-15T09:59:30Z</time>
      </trkpt>
      <trkpt lat="44.51022" lon="5.21238">
        <ele>661</ele>
        <time>2019-04-15T09:59:34Z</time>
      </trkpt>
      <trkpt lat="44.51006" lon="5.21233">
        <ele>661.6</ele>
        <time>2019-04-15T09:59:38Z</time>
      </trkpt>
      <trkpt lat="44.50987" lon="5.21234">
        <ele>661.2</ele>
        <time>2019-04-15T09:59:42Z</time>
      </trkpt>
      <trkpt lat="44.50969" lon="5.21241">
        <ele>662.6</ele>
        <time>2019-04-15T09:59:46Z</time>
      </trkpt>
      <trkpt lat="44.50952" lon="5.2125">
        <ele>663.2</ele>
        <time>2019-04-15T09:59:50Z</time>
      </trkpt>
      <trkpt lat="44.50934" lon="5.21258">
        <ele>664.4</ele>
        <time>2019-04-15T09:59:54Z</time>
      </trkpt>
      <trkpt lat="44.50915" lon="5.21262">
        <ele>664.4</ele>
        <time>2019-04-15T09:59:58Z</time>
      </trkpt>
      <trkpt lat="44.50895" lon="5.21261">
        <ele>665.2</ele>
        <time>2019-04-15T10:00:02Z</time>
      </trkpt>
      <trkpt lat="44.50876" lon="5.21259">
        <ele>665.6</ele>
        <time>2019-04-15T10:00:06Z</time>
      </trkpt>
      <trkpt lat="44.50858" lon="5.21257">
        <ele>666.6</ele>
        <time>2019-04-15T10:00:10Z</time>
      </trkpt>
      <trkpt lat="44.50839" lon="5.21255">
        <ele>667.6</ele>
        <time>2019-04-15T10:00:14Z</time>
      </trkpt>
      <trkpt lat="44.50821" lon="5.21253">
        <ele>668.2</ele>
        <time>2019-04-15T10:00:18Z</time>
      </trkpt>
      <trkpt lat="44.50803" lon="5.21251">
        <ele>669</ele>
        <time>2019-04-15T10:00:22Z</time>
      </trkpt>
      <trkpt lat="44.50786" lon="5.21249">
        <ele>669.2</ele>
        <time>2019-04-15T10:00:26Z</time>
      </trkpt>
      <trkpt lat="44.50767" lon="5.21247">
        <ele>670</ele>
        <time>2019-04-15T10:00:30Z</time>
      </trkpt>
      <trkpt lat="44.50749" lon="5.21244">
        <ele>670.8</ele>
        <time>2019-04-15T10:00:34Z</time>
      </trkpt>
      <trkpt lat="44.50732" lon="5.21242">
        <ele>672.2</ele>
        <time>2019-04-15T10:00:38Z</time>
      </trkpt>
      <trkpt lat="44.50714" lon="5.21239">
        <ele>673</ele>
        <time>2019-04-15T10:00:42Z</time>
      </trkpt>
      <trkpt lat="44.50697" lon="5.21235">
        <ele>674</ele>
        <time>2019-04-15T10:00:46Z</time>
      </trkpt>
      <trkpt lat="44.5068" lon="5.21227">
        <ele>674.2</ele>
        <time>2019-04-15T10:00:50Z</time>
      </trkpt>
      <trkpt lat="44.50671" lon="5.21207">
        <ele>675.2</ele>
        <time>2019-04-15T10:00:54Z</time>
      </trkpt>
      <trkpt lat="44.50664" lon="5.21185">
        <ele>675.6</ele>
        <time>2019-04-15T10:00:58Z</time>
      </trkpt>
      <trkpt lat="44.50653" lon="5.21166">
        <ele>677</ele>
        <time>2019-04-15T10:01:02Z</time>
      </trkpt>
      <trkpt lat="44.50639" lon="5.21157">
        <ele>677.8</ele>
        <time>2019-04-15T10:01:06Z</time>
      </trkpt>
      <trkpt lat="44.50623" lon="5.21161">
        <ele>679</ele>
        <time>2019-04-15T10:01:10Z</time>
      </trkpt>
      <trkpt lat="44.5061" lon="5.2117">
        <ele>679.8</ele>
        <time>2019-04-15T10:01:14Z</time>
      </trkpt>
      <trkpt lat="44.50598" lon="5.21177">
        <ele>680.6</ele>
        <time>2019-04-15T10:01:18Z</time>
      </trkpt>
      <trkpt lat="44.50585" lon="5.21184">
        <ele>681.6</ele>
        <time>2019-04-15T10:01:22Z</time>
      </trkpt>
      <trkpt lat="44.5057" lon="5.21188">
        <ele>682.4</ele>
        <time>2019-04-15T10:01:26Z</time>
      </trkpt>
      <trkpt lat="44.50555" lon="5.21188">
        <ele>683.2</ele>
        <time>2019-04-15T10:01:30Z</time>
      </trkpt>
      <trkpt lat="44.5054" lon="5.21185">
        <ele>684.4</ele>
        <time>2019-04-15T10:01:34Z</time>
      </trkpt>
      <trkpt lat="44.50525" lon="5.21179">
        <ele>684.8</ele>
        <time>2019-04-15T10:01:38Z</time>
      </trkpt>
      <trkpt lat="44.5051" lon="5.21173">
        <ele>686</ele>
        <time>2019-04-15T10:01:42Z</time>
      </trkpt>
      <trkpt lat="44.50495" lon="5.21171">
        <ele>686.6</ele>
        <time>2019-04-15T10:01:46Z</time>
      </trkpt>
      <trkpt lat="44.5048" lon="5.21169">
        <ele>687.2</ele>
        <time>2019-04-15T10:01:50Z</time>
      </trkpt>
      <trkpt lat="44.50465" lon="5.21169">
        <ele>688</ele>
        <time>2019-04-15T10:01:54Z</time>
      </trkpt>
      <trkpt lat="44.5045" lon="5.21167">
        <ele>689.4</ele>
        <time>2019-04-15T10:01:58Z</time>
      </trkpt>
      <trkpt lat="44.50435" lon="5.21166">
        <ele>690</ele>
        <time>2019-04-15T10:02:02Z</time>
      </trkpt>
      <trkpt lat="44.5042" lon="5.21161">
        <ele>691.2</ele>
        <time>2019-04-15T10:02:06Z</time>
      </trkpt>
      <trkpt lat="44.50406" lon="5.21155">
        <ele>692</ele>
        <time>2019-04-15T10:02:10Z</time>
      </trkpt>
      <trkpt lat="44.50392" lon="5.21147">
        <ele>693</ele>
        <time>2019-04-15T10:02:14Z</time>
      </trkpt>
      <trkpt lat="44.50379" lon="5.21138">
        <ele>693.6</ele>
        <time>2019-04-15T10:02:18Z</time>
      </trkpt>
      <trkpt lat="44.50364" lon="5.21131">
        <ele>695</ele>
        <time>2019-04-15T10:02:22Z</time>
      </trkpt>
      <trkpt lat="44.5035" lon="5.21125">
        <ele>696</ele>
        <time>2019-04-15T10:02:26Z</time>
      </trkpt>
      <trkpt lat="44.50335" lon="5.21122">
        <ele>696.8</ele>
        <time>2019-04-15T10:02:30Z</time>
      </trkpt>
      <trkpt lat="44.5032" lon="5.21122">
        <ele>698</ele>
        <time>2019-04-15T10:02:34Z</time>
      </trkpt>
      <trkpt lat="44.50306" lon="5.21128">
        <ele>699</ele>
        <time>2019-04-15T10:02:38Z</time>
      </trkpt>
      <trkpt lat="44.50291" lon="5.21134">
        <ele>699.8</ele>
        <time>2019-04-15T10:02:42Z</time>
      </trkpt>
      <trkpt lat="44.50278" lon="5.21144">
        <ele>699.8</ele>
        <time>2019-04-15T10:02:46Z</time>
      </trkpt>
      <trkpt lat="44.50264" lon="5.21153">
        <ele>701.4</ele>
        <time>2019-04-15T10:02:50Z</time>
      </trkpt>
      <trkpt lat="44.50251" lon="5.21163">
        <ele>702.6</ele>
        <time>2019-04-15T10:02:54Z</time>
      </trkpt>
      <trkpt lat="44.50237" lon="5.21173">
        <ele>703</ele>
        <time>2019-04-15T10:02:58Z</time>
      </trkpt>
      <trkpt lat="44.50224" lon="5.21181">
        <ele>703.8</ele>
        <time>2019-04-15T10:03:02Z</time>
      </trkpt>
      <trkpt lat="44.5021" lon="5.21191">
        <ele>705</ele>
        <time>2019-04-15T10:03:06Z</time>
      </trkpt>
      <trkpt lat="44.50196" lon="5.21199">
        <ele>705.4</ele>
        <time>2019-04-15T10:03:10Z</time>
      </trkpt>
      <trkpt lat="44.50182" lon="5.21208">
        <ele>706.8</ele>
        <time>2019-04-15T10:03:14Z</time>
      </trkpt>
      <trkpt lat="44.50168" lon="5.21215">
        <ele>708</ele>
        <time>2019-04-15T10:03:18Z</time>
      </trkpt>
      <trkpt lat="44.50153" lon="5.21221">
        <ele>708.8</ele>
        <time>2019-04-15T10:03:22Z</time>
      </trkpt>
      <trkpt lat="44.50138" lon="5.21224">
        <ele>709.6</ele>
        <time>2019-04-15T10:03:26Z</time>
      </trkpt>
      <trkpt lat="44.50123" lon="5.21225">
        <ele>710.4</ele>
        <time>2019-04-15T10:03:30Z</time>
      </trkpt>
      <trkpt lat="44.50107" lon="5.21222">
        <ele>711.2</ele>
        <time>2019-04-15T10:03:34Z</time>
      </trkpt>
      <trkpt lat="44.50092" lon="5.21216">
        <ele>712</ele>
        <time>2019-04-15T10:03:38Z</time>
      </trkpt>
      <trkpt lat="44.50078" lon="5.21208">
        <ele>712.6</ele>
        <time>2019-04-15T10:03:42Z</time>
      </trkpt>
      <trkpt lat="44.50064" lon="5.212">
        <ele>713.4</ele>
        <time>2019-04-15T10:03:46Z</time>
      </trkpt>
      <trkpt lat="44.5005" lon="5.21191">
        <ele>714.4</ele>
        <time>2019-04-15T10:03:50Z</time>
      </trkpt>
      <trkpt lat="44.50035" lon="5.21183">
        <ele>715.8</ele>
        <time>2019-04-15T10:03:54Z</time>
      </trkpt>
      <trkpt lat="44.50022" lon="5.21173">
        <ele>716.8</ele>
        <time>2019-04-15T10:03:58Z</time>
      </trkpt>
      <trkpt lat="44.50011" lon="5.21159">
        <ele>716.8</ele>
        <time>2019-04-15T10:04:02Z</time>
      </trkpt>
      <trkpt lat="44.50004" lon="5.21139">
        <ele>718.8</ele>
        <time>2019-04-15T10:04:06Z</time>
      </trkpt>
      <trkpt lat="44.50002" lon="5.21119">
        <ele>720.2</ele>
        <time>2019-04-15T10:04:10Z</time>
      </trkpt>
      <trkpt lat="44.50001" lon="5.21099">
        <ele>721.4</ele>
        <time>2019-04-15T10:04:14Z</time>
      </trkpt>
      <trkpt lat="44.49997" lon="5.21079">
        <ele>722.2</ele>
        <time>2019-04-15T10:04:18Z</time>
      </trkpt>
      <trkpt lat="44.4999" lon="5.21061">
        <ele>722.4</ele>
        <time>2019-04-15T10:04:22Z</time>
      </trkpt>
      <trkpt lat="44.49981" lon="5.21044">
        <ele>723.2</ele>
        <time>2019-04-15T10:04:26Z</time>
      </trkpt>
      <trkpt lat="44.49968" lon="5.21035">
        <ele>724.2</ele>
        <time>2019-04-15T10:04:30Z</time>
      </trkpt>
      <trkpt lat="44.49953" lon="5.21038">
        <ele>725.2</ele>
        <time>2019-04-15T10:04:34Z</time>
      </trkpt>
      <trkpt lat="44.49939" lon="5.21047">
        <ele>725.8</ele>
        <time>2019-04-15T10:04:38Z</time>
      </trkpt>
      <trkpt lat="44.49926" lon="5.21058">
        <ele>726.6</ele>
        <time>2019-04-15T10:04:42Z</time>
      </trkpt>
      <trkpt lat="44.49913" lon="5.21069">
        <ele>727.6</ele>
        <time>2019-04-15T10:04:46Z</time>
      </trkpt>
      <trkpt lat="44.499" lon="5.21081">
        <ele>728.6</ele>
        <time>2019-04-15T10:04:50Z</time>
      </trkpt>
      <trkpt lat="44.49887" lon="5.21093">
        <ele>729</ele>
        <time>2019-04-15T10:04:54Z</time>
      </trkpt>
      <trkpt lat="44.49875" lon="5.21105">
        <ele>729.4</ele>
        <time>2019-04-15T10:04:58Z</time>
      </trkpt>
      <trkpt lat="44.49863" lon="5.21118">
        <ele>730</ele>
        <time>2019-04-15T10:05:02Z</time>
      </trkpt>
      <trkpt lat="44.49853" lon="5.21134">
        <ele>731.2</ele>
        <time>2019-04-15T10:05:06Z</time>
      </trkpt>
      <trkpt lat="44.49844" lon="5.21152">
        <ele>732.2</ele>
        <time>2019-04-15T10:05:10Z</time>
      </trkpt>
      <trkpt lat="44.49836" lon="5.2117">
        <ele>733</ele>
        <time>2019-04-15T10:05:14Z</time>
      </trkpt>
      <trkpt lat="44.49825" lon="5.21186">
        <ele>733.6</ele>
        <time>2019-04-15T10:05:18Z</time>
      </trkpt>
      <trkpt lat="44.49812" lon="5.21196">
        <ele>734.2</ele>
        <time>2019-04-15T10:05:22Z</time>
      </trkpt>
      <trkpt lat="44.49796" lon="5.21196">
        <ele>736</ele>
        <time>2019-04-15T10:05:26Z</time>
      </trkpt>
      <trkpt lat="44.49781" lon="5.21191">
        <ele>736.8</ele>
        <time>2019-04-15T10:05:30Z</time>
      </trkpt>
      <trkpt lat="44.49766" lon="5.21184">
        <ele>737.4</ele>
        <time>2019-04-15T10:05:34Z</time>
      </trkpt>
      <trkpt lat="44.49752" lon="5.21179">
        <ele>738.4</ele>
        <time>2019-04-15T10:05:38Z</time>
      </trkpt>
      <trkpt lat="44.49737" lon="5.21174">
        <ele>739.4</ele>
        <time>2019-04-15T10:05:42Z</time>
      </trkpt>
      <trkpt lat="44.49722" lon="5.21171">
        <ele>740.2</ele>
        <time>2019-04-15T10:05:46Z</time>
      </trkpt>
      <trkpt lat="44.49707" lon="5.21167">
        <ele>740.8</ele>
        <time>2019-04-15T10:05:50Z</time>
      </trkpt>
      <trkpt lat="44.49693" lon="5.2116">
        <ele>741.6</ele>
        <time>2019-04-15T10:05:54Z</time>
      </trkpt>
      <trkpt lat="44.49679" lon="5.21152">
        <ele>742.6</ele>
        <time>2019-04-15T10:05:58Z</time>
      </trkpt>
      <trkpt lat="44.49665" lon="5.21143">
        <ele>743.8</ele>
        <time>2019-04-15T10:06:02Z</time>
      </trkpt>
      <trkpt lat="44.49652" lon="5.21134">
        <ele>744</ele>
        <time>2019-04-15T10:06:06Z</time>
      </trkpt>
      <trkpt lat="44.49639" lon="5.21123">
        <ele>745.4</ele>
        <time>2019-04-15T10:06:10Z</time>
      </trkpt>
      <trkpt lat="44.49627" lon="5.21111">
        <ele>746.4</ele>
        <time>2019-04-15T10:06:14Z</time>
      </trkpt>
      <trkpt lat="44.49615" lon="5.21099">
        <ele>747.4</ele>
        <time>2019-04-15T10:06:18Z</time>
      </trkpt>
      <trkpt lat="44.49603" lon="5.21086">
        <ele>748.2</ele>
        <time>2019-04-15T10:06:22Z</time>
      </trkpt>
      <trkpt lat="44.49593" lon="5.21069">
        <ele>748.8</ele>
        <time>2019-04-15T10:06:26Z</time>
      </trkpt>
      <trkpt lat="44.49583" lon="5.21054">
        <ele>750.2</ele>
        <time>2019-04-15T10:06:30Z</time>
      </trkpt>
      <trkpt lat="44.49571" lon="5.2104">
        <ele>751</ele>
        <time>2019-04-15T10:06:34Z</time>
      </trkpt>
      <trkpt lat="44.49557" lon="5.21033">
        <ele>751.2</ele>
        <time>2019-04-15T10:06:38Z</time>
      </trkpt>
      <trkpt lat="44.49541" lon="5.21032">
        <ele>752.4</ele>
        <time>2019-04-15T10:06:42Z</time>
      </trkpt>
      <trkpt lat="44.49527" lon="5.21039">
        <ele>753.4</ele>
        <time>2019-04-15T10:06:46Z</time>
      </trkpt>
      <trkpt lat="44.49514" lon="5.21049">
        <ele>753.8</ele>
        <time>2019-04-15T10:06:50Z</time>
      </trkpt>
      <trkpt lat="44.49503" lon="5.21065">
        <ele>754.8</ele>
        <time>2019-04-15T10:06:54Z</time>
      </trkpt>
      <trkpt lat="44.49495" lon="5.21084">
        <ele>755.2</ele>
        <time>2019-04-15T10:06:58Z</time>
      </trkpt>
      <trkpt lat="44.49488" lon="5.21105">
        <ele>756.2</ele>
        <time>2019-04-15T10:07:02Z</time>
      </trkpt>
      <trkpt lat="44.49481" lon="5.21123">
        <ele>757.4</ele>
        <time>2019-04-15T10:07:06Z</time>
      </trkpt>
      <trkpt lat="44.49474" lon="5.21141">
        <ele>759</ele>
        <time>2019-04-15T10:07:10Z</time>
      </trkpt>
      <trkpt lat="44.49467" lon="5.2116">
        <ele>758.8</ele>
        <time>2019-04-15T10:07:14Z</time>
      </trkpt>
      <trkpt lat="44.49461" lon="5.21181">
        <ele>760.2</ele>
        <time>2019-04-15T10:07:18Z</time>
      </trkpt>
      <trkpt lat="44.49456" lon="5.21201">
        <ele>760.4</ele>
        <time>2019-04-15T10:07:22Z</time>
      </trkpt>
      <trkpt lat="44.4945" lon="5.21221">
        <ele>761.6</ele>
        <time>2019-04-15T10:07:26Z</time>
      </trkpt>
      <trkpt lat="44.49441" lon="5.21238">
        <ele>762.2</ele>
        <time>2019-04-15T10:07:30Z</time>
      </trkpt>
      <trkpt lat="44.49429" lon="5.21249">
        <ele>763.4</ele>
        <time>2019-04-15T10:07:34Z</time>
      </trkpt>
      <trkpt lat="44.49414" lon="5.21254">
        <ele>764.2</ele>
        <time>2019-04-15T10:07:38Z</time>
      </trkpt>
      <trkpt lat="44.494" lon="5.21258">
        <ele>764.8</ele>
        <time>2019-04-15T10:07:42Z</time>
      </trkpt>
      <trkpt lat="44.49385" lon="5.21263">
        <ele>765.4</ele>
        <time>2019-04-15T10:07:46Z</time>
      </trkpt>
      <trkpt lat="44.49371" lon="5.21271">
        <ele>766.6</ele>
        <time>2019-04-15T10:07:50Z</time>
      </trkpt>
      <trkpt lat="44.49359" lon="5.21284">
        <ele>766.6</ele>
        <time>2019-04-15T10:07:54Z</time>
      </trkpt>
      <trkpt lat="44.49352" lon="5.21305">
        <ele>767.4</ele>
        <time>2019-04-15T10:07:58Z</time>
      </trkpt>
      <trkpt lat="44.49348" lon="5.21327">
        <ele>768.2</ele>
        <time>2019-04-15T10:08:02Z</time>
      </trkpt>
      <trkpt lat="44.49342" lon="5.21347">
        <ele>769.2</ele>
        <time>2019-04-15T10:08:06Z</time>
      </trkpt>
      <trkpt lat="44.49332" lon="5.21363">
        <ele>769.8</ele>
        <time>2019-04-15T10:08:10Z</time>
      </trkpt>
      <trkpt lat="44.49319" lon="5.21373">
        <ele>770.6</ele>
        <time>2019-04-15T10:08:14Z</time>
      </trkpt>
      <trkpt lat="44.49305" lon="5.21381">
        <ele>771.6</ele>
        <time>2019-04-15T10:08:18Z</time>
      </trkpt>
      <trkpt lat="44.4929" lon="5.21388">
        <ele>772</ele>
        <time>2019-04-15T10:08:22Z</time>
      </trkpt>
      <trkpt lat="44.49276" lon="5.21395">
        <ele>773</ele>
        <time>2019-04-15T10:08:26Z</time>
      </trkpt>
      <trkpt lat="44.49263" lon="5.21402">
        <ele>774.2</ele>
        <time>2019-04-15T10:08:30Z</time>
      </trkpt>
      <trkpt lat="44.49249" lon="5.21409">
        <ele>774.8</ele>
        <time>2019-04-15T10:08:34Z</time>
      </trkpt>
      <trkpt lat="44.49235" lon="5.21415">
        <ele>775.2</ele>
        <time>2019-04-15T10:08:38Z</time>
      </trkpt>
      <trkpt lat="44.4922" lon="5.21421">
        <ele>776.4</ele>
        <time>2019-04-15T10:08:42Z</time>
      </trkpt>
      <trkpt lat="44.49206" lon="5.21425">
        <ele>777.2</ele>
        <time>2019-04-15T10:08:46Z</time>
      </trkpt>
      <trkpt lat="44.49191" lon="5.21427">
        <ele>777.8</ele>
        <time>2019-04-15T10:08:50Z</time>
      </trkpt>
      <trkpt lat="44.49176" lon="5.21425">
        <ele>778.6</ele>
        <time>2019-04-15T10:08:54Z</time>
      </trkpt>
      <trkpt lat="44.49162" lon="5.21417">
        <ele>779.6</ele>
        <time>2019-04-15T10:08:58Z</time>
      </trkpt>
      <trkpt lat="44.49149" lon="5.21407">
        <ele>780.4</ele>
        <time>2019-04-15T10:09:02Z</time>
      </trkpt>
      <trkpt lat="44.49137" lon="5.21396">
        <ele>781</ele>
        <time>2019-04-15T10:09:06Z</time>
      </trkpt>
      <trkpt lat="44.49123" lon="5.21391">
        <ele>782.6</ele>
        <time>2019-04-15T10:09:10Z</time>
      </trkpt>
      <trkpt lat="44.49109" lon="5.21395">
        <ele>783.8</ele>
        <time>2019-04-15T10:09:14Z</time>
      </trkpt>
      <trkpt lat="44.49098" lon="5.21407">
        <ele>784.6</ele>
        <time>2019-04-15T10:09:18Z</time>
      </trkpt>
      <trkpt lat="44.49093" lon="5.21427">
        <ele>785</ele>
        <time>2019-04-15T10:09:22Z</time>
      </trkpt>
      <trkpt lat="44.49093" lon="5.2145">
        <ele>785.8</ele>
        <time>2019-04-15T10:09:26Z</time>
      </trkpt>
      <trkpt lat="44.49091" lon="5.21472">
        <ele>786.8</ele>
        <time>2019-04-15T10:09:30Z</time>
      </trkpt>
      <trkpt lat="44.49083" lon="5.21488">
        <ele>788.4</ele>
        <time>2019-04-15T10:09:34Z</time>
      </trkpt>
      <trkpt lat="44.49071" lon="5.21499">
        <ele>789.6</ele>
        <time>2019-04-15T10:09:38Z</time>
      </trkpt>
      <trkpt lat="44.49061" lon="5.21512">
        <ele>791</ele>
        <time>2019-04-15T10:09:42Z</time>
      </trkpt>
      <trkpt lat="44.49058" lon="5.21531">
        <ele>791</ele>
        <time>2019-04-15T10:09:46Z</time>
      </trkpt>
      <trkpt lat="44.49061" lon="5.2155">
        <ele>792.2</ele>
        <time>2019-04-15T10:09:50Z</time>
      </trkpt>
      <trkpt lat="44.4907" lon="5.21564">
        <ele>793.2</ele>
        <time>2019-04-15T10:09:54Z</time>
      </trkpt>
      <trkpt lat="44.49082" lon="5.21577">
        <ele>793.4</ele>
        <time>2019-04-15T10:09:58Z</time>
      </trkpt>
      <trkpt lat="44.49095" lon="5.21585">
        <ele>794.4</ele>
        <time>2019-04-15T10:10:02Z</time>
      </trkpt>
      <trkpt lat="44.49108" lon="5.21592">
        <ele>795.4</ele>
        <time>2019-04-15T10:10:06Z</time>
      </trkpt>
      <trkpt lat="44.49122" lon="5.21596">
        <ele>796.6</ele>
        <time>2019-04-15T10:10:10Z</time>
      </trkpt>
      <trkpt lat="44.49137" lon="5.21594">
        <ele>796.8</ele>
        <time>2019-04-15T10:10:14Z</time>
      </trkpt>
      <trkpt lat="44.49143" lon="5.21609">
        <ele>798.6</ele>
        <time>2019-04-15T10:10:18Z</time>
      </trkpt>
      <trkpt lat="44.49129" lon="5.21615">
        <ele>799.4</ele>
        <time>2019-04-15T10:10:22Z</time>
      </trkpt>
      <trkpt lat="44.49114" lon="5.21618">
        <ele>800.8</ele>
        <time>2019-04-15T10:10:26Z</time>
      </trkpt>
      <trkpt lat="44.49098" lon="5.2162">
        <ele>801</ele>
        <time>2019-04-15T10:10:30Z</time>
      </trkpt>
      <trkpt lat="44.49083" lon="5.21624">
        <ele>802</ele>
        <time>2019-04-15T10:10:34Z</time>
      </trkpt>
      <trkpt lat="44.49068" lon="5.21629">
        <ele>803.2</ele>
        <time>2019-04-15T10:10:38Z</time>
      </trkpt>
      <trkpt lat="44.49054" lon="5.21636">
        <ele>804.2</ele>
        <time>2019-04-15T10:10:42Z</time>
      </trkpt>
      <trkpt lat="44.4904" lon="5.21644">
        <ele>805.2</ele>
        <time>2019-04-15T10:10:46Z</time>
      </trkpt>
      <trkpt lat="44.49025" lon="5.21649">
        <ele>806</ele>
        <time>2019-04-15T10:10:50Z</time>
      </trkpt>
      <trkpt lat="44.49011" lon="5.21647">
        <ele>807.4</ele>
        <time>2019-04-15T10:10:54Z</time>
      </trkpt>
      <trkpt lat="44.48996" lon="5.21641">
        <ele>808</ele>
        <time>2019-04-15T10:10:58Z</time>
      </trkpt>
      <trkpt lat="44.48984" lon="5.2163">
        <ele>809.4</ele>
        <time>2019-04-15T10:11:02Z</time>
      </trkpt>
      <trkpt lat="44.48973" lon="5.21617">
        <ele>810.6</ele>
        <time>2019-04-15T10:11:06Z</time>
      </trkpt>
      <trkpt lat="44.48961" lon="5.21605">
        <ele>811.6</ele>
        <time>2019-04-15T10:11:10Z</time>
      </trkpt>
      <trkpt lat="44.48948" lon="5.21595">
        <ele>812.4</ele>
        <time>2019-04-15T10:11:14Z</time>
      </trkpt>
      <trkpt lat="44.48933" lon="5.21595">
        <ele>813</ele>
        <time>2019-04-15T10:11:18Z</time>
      </trkpt>
      <trkpt lat="44.48919" lon="5.21602">
        <ele>813.2</ele>
        <time>2019-04-15T10:11:22Z</time>
      </trkpt>
      <trkpt lat="44.48903" lon="5.21611">
        <ele>812.6</ele>
        <time>2019-04-15T10:11:26Z</time>
      </trkpt>
      <trkpt lat="44.48886" lon="5.21625">
        <ele>811</ele>
        <time>2019-04-15T10:11:30Z</time>
      </trkpt>
      <trkpt lat="44.48869" lon="5.21647">
        <ele>809.2</ele>
        <time>2019-04-15T10:11:34Z</time>
      </trkpt>
      <trkpt lat="44.48852" lon="5.21678">
        <ele>807.6</ele>
        <time>2019-04-15T10:11:38Z</time>
      </trkpt>
      <trkpt lat="44.48831" lon="5.21708">
        <ele>805.4</ele>
        <time>2019-04-15T10:11:42Z</time>
      </trkpt>
      <trkpt lat="44.48807" lon="5.21739">
        <ele>803.8</ele>
        <time>2019-04-15T10:11:46Z</time>
      </trkpt>
      <trkpt lat="44.48784" lon="5.21775">
        <ele>802</ele>
        <time>2019-04-15T10:11:50Z</time>
      </trkpt>
      <trkpt lat="44.48761" lon="5.21814">
        <ele>799.6</ele>
        <time>2019-04-15T10:11:54Z</time>
      </trkpt>
      <trkpt lat="44.48734" lon="5.21851">
        <ele>796.4</ele>
        <time>2019-04-15T10:11:58Z</time>
      </trkpt>
      <trkpt lat="44.487" lon="5.2188">
        <ele>794.4</ele>
        <time>2019-04-15T10:12:02Z</time>
      </trkpt>
      <trkpt lat="44.4867" lon="5.21919">
        <ele>791.8</ele>
        <time>2019-04-15T10:12:06Z</time>
      </trkpt>
      <trkpt lat="44.48645" lon="5.21967">
        <ele>787</ele>
        <time>2019-04-15T10:12:10Z</time>
      </trkpt>
      <trkpt lat="44.48629" lon="5.2201">
        <ele>784.8</ele>
        <time>2019-04-15T10:12:14Z</time>
      </trkpt>
      <trkpt lat="44.48612" lon="5.22002">
        <ele>783.4</ele>
        <time>2019-04-15T10:12:18Z</time>
      </trkpt>
      <trkpt lat="44.48615" lon="5.21963">
        <ele>781.8</ele>
        <time>2019-04-15T10:12:22Z</time>
      </trkpt>
      <trkpt lat="44.4863" lon="5.21921">
        <ele>779.6</ele>
        <time>2019-04-15T10:12:26Z</time>
      </trkpt>
      <trkpt lat="44.48642" lon="5.21872">
        <ele>776.4</ele>
        <time>2019-04-15T10:12:30Z</time>
      </trkpt>
      <trkpt lat="44.48626" lon="5.21817">
        <ele>773.8</ele>
        <time>2019-04-15T10:12:34Z</time>
      </trkpt>
      <trkpt lat="44.48617" lon="5.21772">
        <ele>771</ele>
        <time>2019-04-15T10:12:38Z</time>
      </trkpt>
      <trkpt lat="44.48592" lon="5.21787">
        <ele>769.6</ele>
        <time>2019-04-15T10:12:42Z</time>
      </trkpt>
      <trkpt lat="44.4858" lon="5.21827">
        <ele>768</ele>
        <time>2019-04-15T10:12:46Z</time>
      </trkpt>
      <trkpt lat="44.4858" lon="5.21876">
        <ele>766.6</ele>
        <time>2019-04-15T10:12:50Z</time>
      </trkpt>
      <trkpt lat="44.48565" lon="5.2192">
        <ele>764.4</ele>
        <time>2019-04-15T10:12:54Z</time>
      </trkpt>
      <trkpt lat="44.4854" lon="5.21958">
        <ele>762</ele>
        <time>2019-04-15T10:12:58Z</time>
      </trkpt>
      <trkpt lat="44.48519" lon="5.22003">
        <ele>759.6</ele>
        <time>2019-04-15T10:13:02Z</time>
      </trkpt>
      <trkpt lat="44.48498" lon="5.22034">
        <ele>757.6</ele>
        <time>2019-04-15T10:13:06Z</time>
      </trkpt>
      <trkpt lat="44.4849" lon="5.22006">
        <ele>755.4</ele>
        <time>2019-04-15T10:13:10Z</time>
      </trkpt>
      <trkpt lat="44.48491" lon="5.2196">
        <ele>753.4</ele>
        <time>2019-04-15T10:13:14Z</time>
      </trkpt>
      <trkpt lat="44.48491" lon="5.21908">
        <ele>751</ele>
        <time>2019-04-15T10:13:18Z</time>
      </trkpt>
      <trkpt lat="44.48492" lon="5.21858">
        <ele>748.6</ele>
        <time>2019-04-15T10:13:22Z</time>
      </trkpt>
      <trkpt lat="44.48461" lon="5.21841">
        <ele>746.2</ele>
        <time>2019-04-15T10:13:26Z</time>
      </trkpt>
      <trkpt lat="44.48425" lon="5.21865">
        <ele>744</ele>
        <time>2019-04-15T10:13:30Z</time>
      </trkpt>
      <trkpt lat="44.48387" lon="5.21879">
        <ele>741.8</ele>
        <time>2019-04-15T10:13:34Z</time>
      </trkpt>
      <trkpt lat="44.48349" lon="5.219">
        <ele>739.6</ele>
        <time>2019-04-15T10:13:38Z</time>
      </trkpt>
      <trkpt lat="44.48314" lon="5.21928">
        <ele>737.8</ele>
        <time>2019-04-15T10:13:42Z</time>
      </trkpt>
      <trkpt lat="44.48277" lon="5.21953">
        <ele>734.6</ele>
        <time>2019-04-15T10:13:46Z</time>
      </trkpt>
      <trkpt lat="44.48237" lon="5.21961">
        <ele>732</ele>
        <time>2019-04-15T10:13:50Z</time>
      </trkpt>
      <trkpt lat="44.48197" lon="5.21945">
        <ele>729.4</ele>
        <time>2019-04-15T10:13:54Z</time>
      </trkpt>
      <trkpt lat="44.48161" lon="5.21913">
        <ele>727.2</ele>
        <time>2019-04-15T10:13:58Z</time>
      </trkpt>
      <trkpt lat="44.48119" lon="5.21901">
        <ele>724.6</ele>
        <time>2019-04-15T10:14:02Z</time>
      </trkpt>
      <trkpt lat="44.48077" lon="5.21888">
        <ele>721.6</ele>
        <time>2019-04-15T10:14:06Z</time>
      </trkpt>
      <trkpt lat="44.48035" lon="5.21876">
        <ele>719.4</ele>
        <time>2019-04-15T10:14:10Z</time>
      </trkpt>
      <trkpt lat="44.47992" lon="5.2188">
        <ele>717</ele>
        <time>2019-04-15T10:14:14Z</time>
      </trkpt>
      <trkpt lat="44.47948" lon="5.21882">
        <ele>714.8</ele>
        <time>2019-04-15T10:14:18Z</time>
      </trkpt>
      <trkpt lat="44.47905" lon="5.21893">
        <ele>713.4</ele>
        <time>2019-04-15T10:14:22Z</time>
      </trkpt>
      <trkpt lat="44.47862" lon="5.2189">
        <ele>710</ele>
        <time>2019-04-15T10:14:26Z</time>
      </trkpt>
      <trkpt lat="44.47822" lon="5.21866">
        <ele>707.6</ele>
        <time>2019-04-15T10:14:30Z</time>
      </trkpt>
      <trkpt lat="44.47778" lon="5.21863">
        <ele>705</ele>
        <time>2019-04-15T10:14:34Z</time>
      </trkpt>
      <trkpt lat="44.47735" lon="5.21865">
        <ele>702.8</ele>
        <time>2019-04-15T10:14:38Z</time>
      </trkpt>
      <trkpt lat="44.47704" lon="5.2185">
        <ele>700.8</ele>
        <time>2019-04-15T10:14:42Z</time>
      </trkpt>
      <trkpt lat="44.47685" lon="5.21811">
        <ele>699</ele>
        <time>2019-04-15T10:14:46Z</time>
      </trkpt>
      <trkpt lat="44.47657" lon="5.21778">
        <ele>696.4</ele>
        <time>2019-04-15T10:14:50Z</time>
      </trkpt>
      <trkpt lat="44.47625" lon="5.2175">
        <ele>694.2</ele>
        <time>2019-04-15T10:14:54Z</time>
      </trkpt>
      <trkpt lat="44.4759" lon="5.21725">
        <ele>692.8</ele>
        <time>2019-04-15T10:14:58Z</time>
      </trkpt>
      <trkpt lat="44.47555" lon="5.21702">
        <ele>689.6</ele>
        <time>2019-04-15T10:15:02Z</time>
      </trkpt>
      <trkpt lat="44.47518" lon="5.21679">
        <ele>687.6</ele>
        <time>2019-04-15T10:15:06Z</time>
      </trkpt>
      <trkpt lat="44.47481" lon="5.21658">
        <ele>685.2</ele>
        <time>2019-04-15T10:15:10Z</time>
      </trkpt>
      <trkpt lat="44.47447" lon="5.21631">
        <ele>683.2</ele>
        <time>2019-04-15T10:15:14Z</time>
      </trkpt>
      <trkpt lat="44.47417" lon="5.21593">
        <ele>680.6</ele>
        <time>2019-04-15T10:15:18Z</time>
      </trkpt>
      <trkpt lat="44.47385" lon="5.2156">
        <ele>678.8</ele>
        <time>2019-04-15T10:15:22Z</time>
      </trkpt>
      <trkpt lat="44.47351" lon="5.21528">
        <ele>676.2</ele>
        <time>2019-04-15T10:15:26Z</time>
      </trkpt>
      <trkpt lat="44.47314" lon="5.21506">
        <ele>674.2</ele>
        <time>2019-04-15T10:15:30Z</time>
      </trkpt>
      <trkpt lat="44.4728" lon="5.21474">
        <ele>671.6</ele>
        <time>2019-04-15T10:15:34Z</time>
      </trkpt>
      <trkpt lat="44.47242" lon="5.21452">
        <ele>670.4</ele>
        <time>2019-04-15T10:15:38Z</time>
      </trkpt>
      <trkpt lat="44.47202" lon="5.21446">
        <ele>667.6</ele>
        <time>2019-04-15T10:15:42Z</time>
      </trkpt>
      <trkpt lat="44.47162" lon="5.21443">
        <ele>666</ele>
        <time>2019-04-15T10:15:46Z</time>
      </trkpt>
      <trkpt lat="44.47124" lon="5.21438">
        <ele>663.4</ele>
        <time>2019-04-15T10:15:50Z</time>
      </trkpt>
      <trkpt lat="44.47086" lon="5.21425">
        <ele>661.2</ele>
        <time>2019-04-15T10:15:54Z</time>
      </trkpt>
      <trkpt lat="44.47048" lon="5.21413">
        <ele>660.4</ele>
        <time>2019-04-15T10:15:58Z</time>
      </trkpt>
      <trkpt lat="44.47008" lon="5.21403">
        <ele>657</ele>
        <time>2019-04-15T10:16:02Z</time>
      </trkpt>
      <trkpt lat="44.46968" lon="5.21393">
        <ele>656</ele>
        <time>2019-04-15T10:16:06Z</time>
      </trkpt>
      <trkpt lat="44.46928" lon="5.21385">
        <ele>653.2</ele>
        <time>2019-04-15T10:16:10Z</time>
      </trkpt>
      <trkpt lat="44.46887" lon="5.21377">
        <ele>651.6</ele>
        <time>2019-04-15T10:16:14Z</time>
      </trkpt>
      <trkpt lat="44.46846" lon="5.21367">
        <ele>649.8</ele>
        <time>2019-04-15T10:16:18Z</time>
      </trkpt>
      <trkpt lat="44.46804" lon="5.21359">
        <ele>647</ele>
        <time>2019-04-15T10:16:22Z</time>
      </trkpt>
      <trkpt lat="44.4676" lon="5.21351">
        <ele>644.6</ele>
        <time>2019-04-15T10:16:26Z</time>
      </trkpt>
      <trkpt lat="44.46718" lon="5.21338">
        <ele>641</ele>
        <time>2019-04-15T10:16:30Z</time>
      </trkpt>
      <trkpt lat="44.46675" lon="5.21323">
        <ele>638.6</ele>
        <time>2019-04-15T10:16:34Z</time>
      </trkpt>
      <trkpt lat="44.46632" lon="5.2131">
        <ele>635.8</ele>
        <time>2019-04-15T10:16:38Z</time>
      </trkpt>
      <trkpt lat="44.4659" lon="5.21296">
        <ele>633.4</ele>
        <time>2019-04-15T10:16:42Z</time>
      </trkpt>
      <trkpt lat="44.46548" lon="5.21282">
        <ele>630.2</ele>
        <time>2019-04-15T10:16:46Z</time>
      </trkpt>
      <trkpt lat="44.46506" lon="5.21278">
        <ele>628.6</ele>
        <time>2019-04-15T10:16:50Z</time>
      </trkpt>
      <trkpt lat="44.46464" lon="5.21266">
        <ele>625.8</ele>
        <time>2019-04-15T10:16:54Z</time>
      </trkpt>
      <trkpt lat="44.46423" lon="5.21255">
        <ele>624.2</ele>
        <time>2019-04-15T10:16:58Z</time>
      </trkpt>
      <trkpt lat="44.46381" lon="5.21249">
        <ele>620.6</ele>
        <time>2019-04-15T10:17:02Z</time>
      </trkpt>
      <trkpt lat="44.46347" lon="5.21218">
        <ele>618</ele>
        <time>2019-04-15T10:17:06Z</time>
      </trkpt>
      <trkpt lat="44.46317" lon="5.21178">
        <ele>615.6</ele>
        <time>2019-04-15T10:17:10Z</time>
      </trkpt>
      <trkpt lat="44.46282" lon="5.21145">
        <ele>612.2</ele>
        <time>2019-04-15T10:17:14Z</time>
      </trkpt>
      <trkpt lat="44.46243" lon="5.21115">
        <ele>610</ele>
        <time>2019-04-15T10:17:18Z</time>
      </trkpt>
      <trkpt lat="44.46201" lon="5.21095">
        <ele>606.8</ele>
        <time>2019-04-15T10:17:22Z</time>
      </trkpt>
      <trkpt lat="44.46158" lon="5.21077">
        <ele>605.8</ele>
        <time>2019-04-15T10:17:26Z</time>
      </trkpt>
      <trkpt lat="44.46115" lon="5.2107">
        <ele>603.6</ele>
        <time>2019-04-15T10:17:30Z</time>
      </trkpt>
      <trkpt lat="44.46073" lon="5.21076">
        <ele>601.4</ele>
        <time>2019-04-15T10:17:34Z</time>
      </trkpt>
      <trkpt lat="44.46032" lon="5.21095">
        <ele>598.8</ele>
        <time>2019-04-15T10:17:38Z</time>
      </trkpt>
      <trkpt lat="44.45992" lon="5.21115">
        <ele>596.8</ele>
        <time>2019-04-15T10:17:42Z</time>
      </trkpt>
      <trkpt lat="44.45949" lon="5.21126">
        <ele>594.2</ele>
        <time>2019-04-15T10:17:46Z</time>
      </trkpt>
      <trkpt lat="44.45906" lon="5.21126">
        <ele>591.4</ele>
        <time>2019-04-15T10:17:50Z</time>
      </trkpt>
      <trkpt lat="44.45861" lon="5.21123">
        <ele>588.8</ele>
        <time>2019-04-15T10:17:54Z</time>
      </trkpt>
      <trkpt lat="44.45816" lon="5.2113">
        <ele>586.4</ele>
        <time>2019-04-15T10:17:58Z</time>
      </trkpt>
      <trkpt lat="44.45772" lon="5.21129">
        <ele>583</ele>
        <time>2019-04-15T10:18:02Z</time>
      </trkpt>
      <trkpt lat="44.45731" lon="5.21112">
        <ele>580.6</ele>
        <time>2019-04-15T10:18:06Z</time>
      </trkpt>
      <trkpt lat="44.4569" lon="5.21102">
        <ele>578.6</ele>
        <time>2019-04-15T10:18:10Z</time>
      </trkpt>
      <trkpt lat="44.45648" lon="5.21096">
        <ele>577</ele>
        <time>2019-04-15T10:18:14Z</time>
      </trkpt>
      <trkpt lat="44.45605" lon="5.21089">
        <ele>574.4</ele>
        <time>2019-04-15T10:18:18Z</time>
      </trkpt>
      <trkpt lat="44.45561" lon="5.21087">
        <ele>573.6</ele>
        <time>2019-04-15T10:18:22Z</time>
      </trkpt>
      <trkpt lat="44.45518" lon="5.21101">
        <ele>570.6</ele>
        <time>2019-04-15T10:18:26Z</time>
      </trkpt>
      <trkpt lat="44.45475" lon="5.21112">
        <ele>568.6</ele>
        <time>2019-04-15T10:18:30Z</time>
      </trkpt>
      <trkpt lat="44.45436" lon="5.21137">
        <ele>566.8</ele>
        <time>2019-04-15T10:18:34Z</time>
      </trkpt>
      <trkpt lat="44.45399" lon="5.21162">
        <ele>564.8</ele>
        <time>2019-04-15T10:18:38Z</time>
      </trkpt>
      <trkpt lat="44.45358" lon="5.21181">
        <ele>563.6</ele>
        <time>2019-04-15T10:18:42Z</time>
      </trkpt>
      <trkpt lat="44.45329" lon="5.21205">
        <ele>561.6</ele>
        <time>2019-04-15T10:18:46Z</time>
      </trkpt>
      <trkpt lat="44.45311" lon="5.21227">
        <ele>559</ele>
        <time>2019-04-15T10:18:50Z</time>
      </trkpt>
      <trkpt lat="44.45257" lon="5.21203">
        <ele>555.2</ele>
        <time>2019-04-15T10:18:54Z</time>
      </trkpt>
      <trkpt lat="44.45219" lon="5.21176">
        <ele>552.2</ele>
        <time>2019-04-15T10:18:58Z</time>
      </trkpt>
      <trkpt lat="44.45177" lon="5.21164">
        <ele>549.2</ele>
        <time>2019-04-15T10:19:02Z</time>
      </trkpt>
      <trkpt lat="44.45137" lon="5.21153">
        <ele>546.2</ele>
        <time>2019-04-15T10:19:06Z</time>
      </trkpt>
      <trkpt lat="44.45098" lon="5.21173">
        <ele>545.2</ele>
        <time>2019-04-15T10:19:10Z</time>
      </trkpt>
      <trkpt lat="44.45068" lon="5.21211">
        <ele>542.6</ele>
        <time>2019-04-15T10:19:14Z</time>
      </trkpt>
      <trkpt lat="44.4505" lon="5.21238">
        <ele>540.6</ele>
        <time>2019-04-15T10:19:18Z</time>
      </trkpt>
      <trkpt lat="44.45017" lon="5.21246">
        <ele>538.4</ele>
        <time>2019-04-15T10:19:22Z</time>
      </trkpt>
      <trkpt lat="44.44978" lon="5.21233">
        <ele>536.4</ele>
        <time>2019-04-15T10:19:26Z</time>
      </trkpt>
      <trkpt lat="44.44942" lon="5.21211">
        <ele>533.6</ele>
        <time>2019-04-15T10:19:30Z</time>
      </trkpt>
      <trkpt lat="44.44908" lon="5.21179">
        <ele>531.8</ele>
        <time>2019-04-15T10:19:34Z</time>
      </trkpt>
      <trkpt lat="44.44868" lon="5.21166">
        <ele>529.6</ele>
        <time>2019-04-15T10:19:38Z</time>
      </trkpt>
      <trkpt lat="44.44828" lon="5.21157">
        <ele>527</ele>
        <time>2019-04-15T10:19:42Z</time>
      </trkpt>
      <trkpt lat="44.44787" lon="5.21164">
        <ele>525.6</ele>
        <time>2019-04-15T10:19:46Z</time>
      </trkpt>
      <trkpt lat="44.44747" lon="5.21192">
        <ele>523.4</ele>
        <time>2019-04-15T10:19:50Z</time>
      </trkpt>
      <trkpt lat="44.44706" lon="5.21209">
        <ele>521.2</ele>
        <time>2019-04-15T10:19:54Z</time>
      </trkpt>
      <trkpt lat="44.44667" lon="5.21234">
        <ele>518.6</ele>
        <time>2019-04-15T10:19:58Z</time>
      </trkpt>
      <trkpt lat="44.44629" lon="5.21263">
        <ele>517</ele>
        <time>2019-04-15T10:20:02Z</time>
      </trkpt>
      <trkpt lat="44.44587" lon="5.2123">
        <ele>514</ele>
        <time>2019-04-15T10:20:06Z</time>
      </trkpt>
      <trkpt lat="44.44558" lon="5.21195">
        <ele>511.6</ele>
        <time>2019-04-15T10:20:10Z</time>
      </trkpt>
      <trkpt lat="44.44536" lon="5.21149">
        <ele>510.8</ele>
        <time>2019-04-15T10:20:14Z</time>
      </trkpt>
      <trkpt lat="44.44514" lon="5.21099">
        <ele>507</ele>
        <time>2019-04-15T10:20:18Z</time>
      </trkpt>
      <trkpt lat="44.44487" lon="5.2106">
        <ele>506</ele>
        <time>2019-04-15T10:20:22Z</time>
      </trkpt>
      <trkpt lat="44.44459" lon="5.21024">
        <ele>504.2</ele>
        <time>2019-04-15T10:20:26Z</time>
      </trkpt>
      <trkpt lat="44.44425" lon="5.20998">
        <ele>503.8</ele>
        <time>2019-04-15T10:20:30Z</time>
      </trkpt>
      <trkpt lat="44.44388" lon="5.20981">
        <ele>501.8</ele>
        <time>2019-04-15T10:20:34Z</time>
      </trkpt>
      <trkpt lat="44.44349" lon="5.20975">
        <ele>500.2</ele>
        <time>2019-04-15T10:20:38Z</time>
      </trkpt>
      <trkpt lat="44.44308" lon="5.20972">
        <ele>497.8</ele>
        <time>2019-04-15T10:20:42Z</time>
      </trkpt>
      <trkpt lat="44.4427" lon="5.20955">
        <ele>495.6</ele>
        <time>2019-04-15T10:20:46Z</time>
      </trkpt>
      <trkpt lat="44.44232" lon="5.20931">
        <ele>493.6</ele>
        <time>2019-04-15T10:20:50Z</time>
      </trkpt>
      <trkpt lat="44.44193" lon="5.20911">
        <ele>491.6</ele>
        <time>2019-04-15T10:20:54Z</time>
      </trkpt>
      <trkpt lat="44.44154" lon="5.20919">
        <ele>490</ele>
        <time>2019-04-15T10:20:58Z</time>
      </trkpt>
      <trkpt lat="44.44121" lon="5.20947">
        <ele>489.4</ele>
        <time>2019-04-15T10:21:02Z</time>
      </trkpt>
      <trkpt lat="44.44086" lon="5.20955">
        <ele>488</ele>
        <time>2019-04-15T10:21:06Z</time>
      </trkpt>
      <trkpt lat="44.4405" lon="5.20952">
        <ele>487.6</ele>
        <time>2019-04-15T10:21:10Z</time>
      </trkpt>
      <trkpt lat="44.44015" lon="5.20948">
        <ele>486.4</ele>
        <time>2019-04-15T10:21:14Z</time>
      </trkpt>
      <trkpt lat="44.4398" lon="5.20948">
        <ele>485.6</ele>
        <time>2019-04-15T10:21:18Z</time>
      </trkpt>
      <trkpt lat="44.43946" lon="5.20954">
        <ele>483.8</ele>
        <time>2019-04-15T10:21:22Z</time>
      </trkpt>
      <trkpt lat="44.43911" lon="5.2096">
        <ele>482.8</ele>
        <time>2019-04-15T10:21:26Z</time>
      </trkpt>
      <trkpt lat="44.43876" lon="5.20956">
        <ele>482</ele>
        <time>2019-04-15T10:21:30Z</time>
      </trkpt>
      <trkpt lat="44.43841" lon="5.20962">
        <ele>481.6</ele>
        <time>2019-04-15T10:21:34Z</time>
      </trkpt>
      <trkpt lat="44.43808" lon="5.20983">
        <ele>480.4</ele>
        <time>2019-04-15T10:21:38Z</time>
      </trkpt>
      <trkpt lat="44.4378" lon="5.21017">
        <ele>478.6</ele>
        <time>2019-04-15T10:21:42Z</time>
      </trkpt>
      <trkpt lat="44.43752" lon="5.21053">
        <ele>477.6</ele>
        <time>2019-04-15T10:21:46Z</time>
      </trkpt>
      <trkpt lat="44.43723" lon="5.21087">
        <ele>476.6</ele>
        <time>2019-04-15T10:21:50Z</time>
      </trkpt>
      <trkpt lat="44.43698" lon="5.2113">
        <ele>474.6</ele>
        <time>2019-04-15T10:21:54Z</time>
      </trkpt>
      <trkpt lat="44.43667" lon="5.21166">
        <ele>472.4</ele>
        <time>2019-04-15T10:21:58Z</time>
      </trkpt>
      <trkpt lat="44.43627" lon="5.21182">
        <ele>470.2</ele>
        <time>2019-04-15T10:22:02Z</time>
      </trkpt>
      <trkpt lat="44.43584" lon="5.21196">
        <ele>467.8</ele>
        <time>2019-04-15T10:22:06Z</time>
      </trkpt>
      <trkpt lat="44.43541" lon="5.21215">
        <ele>465.6</ele>
        <time>2019-04-15T10:22:10Z</time>
      </trkpt>
      <trkpt lat="44.43497" lon="5.2124">
        <ele>463.2</ele>
        <time>2019-04-15T10:22:14Z</time>
      </trkpt>
      <trkpt lat="44.43454" lon="5.21264">
        <ele>462.2</ele>
        <time>2019-04-15T10:22:18Z</time>
      </trkpt>
      <trkpt lat="44.43413" lon="5.21283">
        <ele>460.2</ele>
        <time>2019-04-15T10:22:22Z</time>
      </trkpt>
      <trkpt lat="44.43372" lon="5.21288">
        <ele>459.2</ele>
        <time>2019-04-15T10:22:26Z</time>
      </trkpt>
      <trkpt lat="44.43329" lon="5.2129">
        <ele>459</ele>
        <time>2019-04-15T10:22:30Z</time>
      </trkpt>
      <trkpt lat="44.43287" lon="5.21307">
        <ele>456.8</ele>
        <time>2019-04-15T10:22:34Z</time>
      </trkpt>
      <trkpt lat="44.4325" lon="5.21329">
        <ele>456.2</ele>
        <time>2019-04-15T10:22:38Z</time>
      </trkpt>
      <trkpt lat="44.43215" lon="5.21356">
        <ele>454.6</ele>
        <time>2019-04-15T10:22:42Z</time>
      </trkpt>
      <trkpt lat="44.4318" lon="5.21386">
        <ele>453</ele>
        <time>2019-04-15T10:22:46Z</time>
      </trkpt>
      <trkpt lat="44.43144" lon="5.21418">
        <ele>451</ele>
        <time>2019-04-15T10:22:50Z</time>
      </trkpt>
      <trkpt lat="44.43108" lon="5.21455">
        <ele>449.4</ele>
        <time>2019-04-15T10:22:54Z</time>
      </trkpt>
      <trkpt lat="44.43073" lon="5.21494">
        <ele>446.8</ele>
        <time>2019-04-15T10:22:58Z</time>
      </trkpt>
      <trkpt lat="44.43037" lon="5.21533">
        <ele>445</ele>
        <time>2019-04-15T10:23:02Z</time>
      </trkpt>
      <trkpt lat="44.43002" lon="5.21572">
        <ele>442.6</ele>
        <time>2019-04-15T10:23:06Z</time>
      </trkpt>
      <trkpt lat="44.42968" lon="5.21609">
        <ele>441.4</ele>
        <time>2019-04-15T10:23:10Z</time>
      </trkpt>
      <trkpt lat="44.42936" lon="5.21643">
        <ele>440.8</ele>
        <time>2019-04-15T10:23:14Z</time>
      </trkpt>
      <trkpt lat="44.42905" lon="5.21675">
        <ele>439.4</ele>
        <time>2019-04-15T10:23:18Z</time>
      </trkpt>
      <trkpt lat="44.42873" lon="5.21704">
        <ele>438</ele>
        <time>2019-04-15T10:23:22Z</time>
      </trkpt>
      <trkpt lat="44.42838" lon="5.21721">
        <ele>436.8</ele>
        <time>2019-04-15T10:23:26Z</time>
      </trkpt>
      <trkpt lat="44.42801" lon="5.21737">
        <ele>435.6</ele>
        <time>2019-04-15T10:23:30Z</time>
      </trkpt>
      <trkpt lat="44.42765" lon="5.21746">
        <ele>434.6</ele>
        <time>2019-04-15T10:23:34Z</time>
      </trkpt>
      <trkpt lat="44.42735" lon="5.2172">
        <ele>434.4</ele>
        <time>2019-04-15T10:23:38Z</time>
      </trkpt>
      <trkpt lat="44.42705" lon="5.21713">
        <ele>434.4</ele>
        <time>2019-04-15T10:23:42Z</time>
      </trkpt>
      <trkpt lat="44.42677" lon="5.21728">
        <ele>433.4</ele>
        <time>2019-04-15T10:23:46Z</time>
      </trkpt>
      <trkpt lat="44.42648" lon="5.21745">
        <ele>433</ele>
        <time>2019-04-15T10:23:50Z</time>
      </trkpt>
      <trkpt lat="44.42617" lon="5.21759">
        <ele>433.8</ele>
        <time>2019-04-15T10:23:54Z</time>
      </trkpt>
      <trkpt lat="44.42583" lon="5.2176">
        <ele>433</ele>
        <time>2019-04-15T10:23:58Z</time>
      </trkpt>
      <trkpt lat="44.42547" lon="5.2175">
        <ele>431</ele>
        <time>2019-04-15T10:24:02Z</time>
      </trkpt>
      <trkpt lat="44.42512" lon="5.21742">
        <ele>429.8</ele>
        <time>2019-04-15T10:24:06Z</time>
      </trkpt>
      <trkpt lat="44.42476" lon="5.21734">
        <ele>429.6</ele>
        <time>2019-04-15T10:24:10Z</time>
      </trkpt>
      <trkpt lat="44.42441" lon="5.21721">
        <ele>427.8</ele>
        <time>2019-04-15T10:24:14Z</time>
      </trkpt>
      <trkpt lat="44.42415" lon="5.21688">
        <ele>425.6</ele>
        <time>2019-04-15T10:24:18Z</time>
      </trkpt>
      <trkpt lat="44.42401" lon="5.21641">
        <ele>424.6</ele>
        <time>2019-04-15T10:24:22Z</time>
      </trkpt>
      <trkpt lat="44.42392" lon="5.21592">
        <ele>424.2</ele>
        <time>2019-04-15T10:24:26Z</time>
      </trkpt>
      <trkpt lat="44.42382" lon="5.21543">
        <ele>422.8</ele>
        <time>2019-04-15T10:24:30Z</time>
      </trkpt>
      <trkpt lat="44.42373" lon="5.21494">
        <ele>422</ele>
        <time>2019-04-15T10:24:34Z</time>
      </trkpt>
      <trkpt lat="44.42364" lon="5.21446">
        <ele>420.4</ele>
        <time>2019-04-15T10:24:38Z</time>
      </trkpt>
      <trkpt lat="44.42358" lon="5.21399">
        <ele>420</ele>
        <time>2019-04-15T10:24:42Z</time>
      </trkpt>
      <trkpt lat="44.42355" lon="5.21351">
        <ele>419</ele>
        <time>2019-04-15T10:24:46Z</time>
      </trkpt>
      <trkpt lat="44.42345" lon="5.21306">
        <ele>418.6</ele>
        <time>2019-04-15T10:24:50Z</time>
      </trkpt>
      <trkpt lat="44.42328" lon="5.21262">
        <ele>417.2</ele>
        <time>2019-04-15T10:24:54Z</time>
      </trkpt>
      <trkpt lat="44.42305" lon="5.21224">
        <ele>416.4</ele>
        <time>2019-04-15T10:24:58Z</time>
      </trkpt>
      <trkpt lat="44.42276" lon="5.21193">
        <ele>415.8</ele>
        <time>2019-04-15T10:25:02Z</time>
      </trkpt>
      <trkpt lat="44.42252" lon="5.21155">
        <ele>414.8</ele>
        <time>2019-04-15T10:25:06Z</time>
      </trkpt>
      <trkpt lat="44.42233" lon="5.21114">
        <ele>414.4</ele>
        <time>2019-04-15T10:25:10Z</time>
      </trkpt>
      <trkpt lat="44.42215" lon="5.21074">
        <ele>414.4</ele>
        <time>2019-04-15T10:25:14Z</time>
      </trkpt>
      <trkpt lat="44.42196" lon="5.21036">
        <ele>414.4</ele>
        <time>2019-04-15T10:25:18Z</time>
      </trkpt>
      <trkpt lat="44.42174" lon="5.21001">
        <ele>414.2</ele>
        <time>2019-04-15T10:25:22Z</time>
      </trkpt>
      <trkpt lat="44.42151" lon="5.20967">
        <ele>413.6</ele>
        <time>2019-04-15T10:25:26Z</time>
      </trkpt>
      <trkpt lat="44.42125" lon="5.20933">
        <ele>412.4</ele>
        <time>2019-04-15T10:25:30Z</time>
      </trkpt>
      <trkpt lat="44.42099" lon="5.20897">
        <ele>411</ele>
        <time>2019-04-15T10:25:34Z</time>
      </trkpt>
      <trkpt lat="44.42071" lon="5.20861">
        <ele>410</ele>
        <time>2019-04-15T10:25:38Z</time>
      </trkpt>
      <trkpt lat="44.42043" lon="5.20826">
        <ele>408.2</ele>
        <time>2019-04-15T10:25:42Z</time>
      </trkpt>
      <trkpt lat="44.42012" lon="5.20795">
        <ele>407.2</ele>
        <time>2019-04-15T10:25:46Z</time>
      </trkpt>
      <trkpt lat="44.4198" lon="5.20766">
        <ele>405.4</ele>
        <time>2019-04-15T10:25:50Z</time>
      </trkpt>
      <trkpt lat="44.41948" lon="5.20737">
        <ele>405.2</ele>
        <time>2019-04-15T10:25:54Z</time>
      </trkpt>
      <trkpt lat="44.41917" lon="5.20709">
        <ele>404.2</ele>
        <time>2019-04-15T10:25:58Z</time>
      </trkpt>
      <trkpt lat="44.41888" lon="5.20683">
        <ele>404.2</ele>
        <time>2019-04-15T10:26:02Z</time>
      </trkpt>
      <trkpt lat="44.4186" lon="5.20659">
        <ele>403.2</ele>
        <time>2019-04-15T10:26:06Z</time>
      </trkpt>
      <trkpt lat="44.41833" lon="5.20634">
        <ele>403</ele>
        <time>2019-04-15T10:26:10Z</time>
      </trkpt>
      <trkpt lat="44.41804" lon="5.2062">
        <ele>403.4</ele>
        <time>2019-04-15T10:26:14Z</time>
      </trkpt>
      <trkpt lat="44.41773" lon="5.20614">
        <ele>402.6</ele>
        <time>2019-04-15T10:26:18Z</time>
      </trkpt>
      <trkpt lat="44.41742" lon="5.20605">
        <ele>402.2</ele>
        <time>2019-04-15T10:26:22Z</time>
      </trkpt>
      <trkpt lat="44.41717" lon="5.20579">
        <ele>401.4</ele>
        <time>2019-04-15T10:26:26Z</time>
      </trkpt>
      <trkpt lat="44.41693" lon="5.20548">
        <ele>400.2</ele>
        <time>2019-04-15T10:26:30Z</time>
      </trkpt>
      <trkpt lat="44.41664" lon="5.20526">
        <ele>399.6</ele>
        <time>2019-04-15T10:26:34Z</time>
      </trkpt>
      <trkpt lat="44.41633" lon="5.20506">
        <ele>398.4</ele>
        <time>2019-04-15T10:26:38Z</time>
      </trkpt>
      <trkpt lat="44.416" lon="5.20493">
        <ele>398.4</ele>
        <time>2019-04-15T10:26:42Z</time>
      </trkpt>
      <trkpt lat="44.41566" lon="5.20494">
        <ele>397</ele>
        <time>2019-04-15T10:26:46Z</time>
      </trkpt>
      <trkpt lat="44.41532" lon="5.20487">
        <ele>396</ele>
        <time>2019-04-15T10:26:50Z</time>
      </trkpt>
      <trkpt lat="44.415" lon="5.20478">
        <ele>394.6</ele>
        <time>2019-04-15T10:26:54Z</time>
      </trkpt>
      <trkpt lat="44.41468" lon="5.20478">
        <ele>393.6</ele>
        <time>2019-04-15T10:26:58Z</time>
      </trkpt>
      <trkpt lat="44.41437" lon="5.20479">
        <ele>393.6</ele>
        <time>2019-04-15T10:27:02Z</time>
      </trkpt>
      <trkpt lat="44.41407" lon="5.20471">
        <ele>393.6</ele>
        <time>2019-04-15T10:27:06Z</time>
      </trkpt>
      <trkpt lat="44.41378" lon="5.20459">
        <ele>392.4</ele>
        <time>2019-04-15T10:27:10Z</time>
      </trkpt>
      <trkpt lat="44.41349" lon="5.20447">
        <ele>392.4</ele>
        <time>2019-04-15T10:27:14Z</time>
      </trkpt>
      <trkpt lat="44.41321" lon="5.20429">
        <ele>390.6</ele>
        <time>2019-04-15T10:27:18Z</time>
      </trkpt>
      <trkpt lat="44.41293" lon="5.20407">
        <ele>392.2</ele>
        <time>2019-04-15T10:27:22Z</time>
      </trkpt>
      <trkpt lat="44.41266" lon="5.20386">
        <ele>391.6</ele>
        <time>2019-04-15T10:27:26Z</time>
      </trkpt>
      <trkpt lat="44.41239" lon="5.20365">
        <ele>390.4</ele>
        <time>2019-04-15T10:27:30Z</time>
      </trkpt>
      <trkpt lat="44.41211" lon="5.20343">
        <ele>389.8</ele>
        <time>2019-04-15T10:27:34Z</time>
      </trkpt>
      <trkpt lat="44.41181" lon="5.20318">
        <ele>388.6</ele>
        <time>2019-04-15T10:27:38Z</time>
      </trkpt>
      <trkpt lat="44.41153" lon="5.20287">
        <ele>386.4</ele>
        <time>2019-04-15T10:27:42Z</time>
      </trkpt>
      <trkpt lat="44.41127" lon="5.2025">
        <ele>384.6</ele>
        <time>2019-04-15T10:27:46Z</time>
      </trkpt>
      <trkpt lat="44.41097" lon="5.20218">
        <ele>383.8</ele>
        <time>2019-04-15T10:27:50Z</time>
      </trkpt>
      <trkpt lat="44.41062" lon="5.20198">
        <ele>382.8</ele>
        <time>2019-04-15T10:27:54Z</time>
      </trkpt>
      <trkpt lat="44.41027" lon="5.20185">
        <ele>381</ele>
        <time>2019-04-15T10:27:58Z</time>
      </trkpt>
      <trkpt lat="44.40992" lon="5.20174">
        <ele>380.6</ele>
        <time>2019-04-15T10:28:02Z</time>
      </trkpt>
      <trkpt lat="44.40959" lon="5.20163">
        <ele>380.4</ele>
        <time>2019-04-15T10:28:06Z</time>
      </trkpt>
      <trkpt lat="44.40927" lon="5.20151">
        <ele>379.6</ele>
        <time>2019-04-15T10:28:10Z</time>
      </trkpt>
      <trkpt lat="44.40895" lon="5.20138">
        <ele>379</ele>
        <time>2019-04-15T10:28:14Z</time>
      </trkpt>
      <trkpt lat="44.40866" lon="5.20126">
        <ele>378.8</ele>
        <time>2019-04-15T10:28:18Z</time>
      </trkpt>
      <trkpt lat="44.40836" lon="5.20115">
        <ele>378.4</ele>
        <time>2019-04-15T10:28:22Z</time>
      </trkpt>
      <trkpt lat="44.40808" lon="5.20105">
        <ele>377.8</ele>
        <time>2019-04-15T10:28:26Z</time>
      </trkpt>
      <trkpt lat="44.4078" lon="5.20093">
        <ele>377.4</ele>
        <time>2019-04-15T10:28:30Z</time>
      </trkpt>
      <trkpt lat="44.40752" lon="5.20082">
        <ele>377.6</ele>
        <time>2019-04-15T10:28:34Z</time>
      </trkpt>
      <trkpt lat="44.40728" lon="5.20067">
        <ele>377.4</ele>
        <time>2019-04-15T10:28:38Z</time>
      </trkpt>
      <trkpt lat="44.40705" lon="5.20046">
        <ele>377.8</ele>
        <time>2019-04-15T10:28:42Z</time>
      </trkpt>
      <trkpt lat="44.40684" lon="5.2002">
        <ele>377.2</ele>
        <time>2019-04-15T10:28:46Z</time>
      </trkpt>
      <trkpt lat="44.40662" lon="5.19993">
        <ele>376.4</ele>
        <time>2019-04-15T10:28:50Z</time>
      </trkpt>
      <trkpt lat="44.40638" lon="5.19965">
        <ele>377</ele>
        <time>2019-04-15T10:28:54Z</time>
      </trkpt>
      <trkpt lat="44.40614" lon="5.19936">
        <ele>376.2</ele>
        <time>2019-04-15T10:28:58Z</time>
      </trkpt>
      <trkpt lat="44.40589" lon="5.19908">
        <ele>375.6</ele>
        <time>2019-04-15T10:29:02Z</time>
      </trkpt>
      <trkpt lat="44.40566" lon="5.19878">
        <ele>375.2</ele>
        <time>2019-04-15T10:29:06Z</time>
      </trkpt>
      <trkpt lat="44.40539" lon="5.19853">
        <ele>375.2</ele>
        <time>2019-04-15T10:29:10Z</time>
      </trkpt>
      <trkpt lat="44.40508" lon="5.19834">
        <ele>374.2</ele>
        <time>2019-04-15T10:29:14Z</time>
      </trkpt>
      <trkpt lat="44.40474" lon="5.19818">
        <ele>372.4</ele>
        <time>2019-04-15T10:29:18Z</time>
      </trkpt>
      <trkpt lat="44.4044" lon="5.198">
        <ele>370.6</ele>
        <time>2019-04-15T10:29:22Z</time>
      </trkpt>
      <trkpt lat="44.40406" lon="5.19785">
        <ele>369</ele>
        <time>2019-04-15T10:29:26Z</time>
      </trkpt>
      <trkpt lat="44.4037" lon="5.19767">
        <ele>366.6</ele>
        <time>2019-04-15T10:29:30Z</time>
      </trkpt>
      <trkpt lat="44.40333" lon="5.1975">
        <ele>365.2</ele>
        <time>2019-04-15T10:29:34Z</time>
      </trkpt>
      <trkpt lat="44.40296" lon="5.19732">
        <ele>364</ele>
        <time>2019-04-15T10:29:38Z</time>
      </trkpt>
      <trkpt lat="44.40259" lon="5.19713">
        <ele>363</ele>
        <time>2019-04-15T10:29:42Z</time>
      </trkpt>
      <trkpt lat="44.40224" lon="5.19697">
        <ele>362.8</ele>
        <time>2019-04-15T10:29:46Z</time>
      </trkpt>
      <trkpt lat="44.40191" lon="5.19687">
        <ele>362.6</ele>
        <time>2019-04-15T10:29:50Z</time>
      </trkpt>
      <trkpt lat="44.40158" lon="5.19679">
        <ele>362.4</ele>
        <time>2019-04-15T10:29:54Z</time>
      </trkpt>
      <trkpt lat="44.40126" lon="5.19672">
        <ele>361.6</ele>
        <time>2019-04-15T10:29:58Z</time>
      </trkpt>
      <trkpt lat="44.40095" lon="5.19666">
        <ele>361</ele>
        <time>2019-04-15T10:30:02Z</time>
      </trkpt>
      <trkpt lat="44.40063" lon="5.19658">
        <ele>360</ele>
        <time>2019-04-15T10:30:06Z</time>
      </trkpt>
      <trkpt lat="44.4003" lon="5.19643">
        <ele>358.8</ele>
        <time>2019-04-15T10:30:10Z</time>
      </trkpt>
      <trkpt lat="44.40002" lon="5.19613">
        <ele>357.8</ele>
        <time>2019-04-15T10:30:14Z</time>
      </trkpt>
      <trkpt lat="44.39978" lon="5.19579">
        <ele>357.4</ele>
        <time>2019-04-15T10:30:18Z</time>
      </trkpt>
      <trkpt lat="44.39954" lon="5.19551">
        <ele>357.4</ele>
        <time>2019-04-15T10:30:22Z</time>
      </trkpt>
      <trkpt lat="44.39927" lon="5.19536">
        <ele>357.2</ele>
        <time>2019-04-15T10:30:26Z</time>
      </trkpt>
      <trkpt lat="44.39898" lon="5.19534">
        <ele>356.8</ele>
        <time>2019-04-15T10:30:30Z</time>
      </trkpt>
      <trkpt lat="44.39866" lon="5.19534">
        <ele>356</ele>
        <time>2019-04-15T10:30:34Z</time>
      </trkpt>
      <trkpt lat="44.39833" lon="5.19536">
        <ele>357.2</ele>
        <time>2019-04-15T10:30:38Z</time>
      </trkpt>
      <trkpt lat="44.39799" lon="5.19537">
        <ele>356.4</ele>
        <time>2019-04-15T10:30:42Z</time>
      </trkpt>
      <trkpt lat="44.39765" lon="5.19537">
        <ele>356.2</ele>
        <time>2019-04-15T10:30:46Z</time>
      </trkpt>
      <trkpt lat="44.39731" lon="5.19537">
        <ele>355.4</ele>
        <time>2019-04-15T10:30:50Z</time>
      </trkpt>
      <trkpt lat="44.39696" lon="5.19538">
        <ele>354.6</ele>
        <time>2019-04-15T10:30:54Z</time>
      </trkpt>
      <trkpt lat="44.39661" lon="5.19537">
        <ele>353.8</ele>
        <time>2019-04-15T10:30:58Z</time>
      </trkpt>
      <trkpt lat="44.39626" lon="5.19536">
        <ele>353</ele>
        <time>2019-04-15T10:31:02Z</time>
      </trkpt>
      <trkpt lat="44.39593" lon="5.19535">
        <ele>352.4</ele>
        <time>2019-04-15T10:31:06Z</time>
      </trkpt>
      <trkpt lat="44.3956" lon="5.19534">
        <ele>352</ele>
        <time>2019-04-15T10:31:10Z</time>
      </trkpt>
      <trkpt lat="44.39528" lon="5.1954">
        <ele>351.6</ele>
        <time>2019-04-15T10:31:14Z</time>
      </trkpt>
      <trkpt lat="44.39496" lon="5.19553">
        <ele>351.2</ele>
        <time>2019-04-15T10:31:18Z</time>
      </trkpt>
      <trkpt lat="44.39464" lon="5.19568">
        <ele>351.6</ele>
        <time>2019-04-15T10:31:22Z</time>
      </trkpt>
      <trkpt lat="44.39434" lon="5.19589">
        <ele>350.8</ele>
        <time>2019-04-15T10:31:26Z</time>
      </trkpt>
      <trkpt lat="44.39404" lon="5.19606">
        <ele>350.2</ele>
        <time>2019-04-15T10:31:30Z</time>
      </trkpt>
      <trkpt lat="44.39372" lon="5.19608">
        <ele>350.4</ele>
        <time>2019-04-15T10:31:34Z</time>
      </trkpt>
      <trkpt lat="44.39342" lon="5.19596">
        <ele>348.8</ele>
        <time>2019-04-15T10:31:38Z</time>
      </trkpt>
      <trkpt lat="44.39315" lon="5.1958">
        <ele>348.6</ele>
        <time>2019-04-15T10:31:42Z</time>
      </trkpt>
      <trkpt lat="44.39286" lon="5.19562">
        <ele>348.2</ele>
        <time>2019-04-15T10:31:46Z</time>
      </trkpt>
      <trkpt lat="44.39259" lon="5.19546">
        <ele>347.6</ele>
        <time>2019-04-15T10:31:50Z</time>
      </trkpt>
      <trkpt lat="44.3923" lon="5.19537">
        <ele>347.2</ele>
        <time>2019-04-15T10:31:54Z</time>
      </trkpt>
      <trkpt lat="44.39199" lon="5.19532">
        <ele>346.2</ele>
        <time>2019-04-15T10:31:58Z</time>
      </trkpt>
      <trkpt lat="44.39168" lon="5.19526">
        <ele>346.4</ele>
        <time>2019-04-15T10:32:02Z</time>
      </trkpt>
      <trkpt lat="44.39137" lon="5.19521">
        <ele>345.6</ele>
        <time>2019-04-15T10:32:06Z</time>
      </trkpt>
      <trkpt lat="44.39105" lon="5.19518">
        <ele>345.2</ele>
        <time>2019-04-15T10:32:10Z</time>
      </trkpt>
      <trkpt lat="44.39075" lon="5.19522">
        <ele>345</ele>
        <time>2019-04-15T10:32:14Z</time>
      </trkpt>
      <trkpt lat="44.39046" lon="5.19531">
        <ele>345</ele>
        <time>2019-04-15T10:32:18Z</time>
      </trkpt>
      <trkpt lat="44.39018" lon="5.19541">
        <ele>344.4</ele>
        <time>2019-04-15T10:32:22Z</time>
      </trkpt>
      <trkpt lat="44.38989" lon="5.19551">
        <ele>344.8</ele>
        <time>2019-04-15T10:32:26Z</time>
      </trkpt>
      <trkpt lat="44.38962" lon="5.19568">
        <ele>342.8</ele>
        <time>2019-04-15T10:32:30Z</time>
      </trkpt>
      <trkpt lat="44.38934" lon="5.19589">
        <ele>343.4</ele>
        <time>2019-04-15T10:32:34Z</time>
      </trkpt>
      <trkpt lat="44.38908" lon="5.19608">
        <ele>341.6</ele>
        <time>2019-04-15T10:32:38Z</time>
      </trkpt>
      <trkpt lat="44.38881" lon="5.1963">
        <ele>340.6</ele>
        <time>2019-04-15T10:32:42Z</time>
      </trkpt>
      <trkpt lat="44.38858" lon="5.19649">
        <ele>339.6</ele>
        <time>2019-04-15T10:32:46Z</time>
      </trkpt>
      <trkpt lat="44.38858" lon="5.19649">
        <ele>339.6</ele>
        <time>2019-04-15T10:32:50Z</time>
      </trkpt>
      <trkpt lat="44.38854" lon="5.19655">
        <ele>340.4</ele>
        <time>2019-04-15T10:32:54Z</time>
      </trkpt>
      <trkpt lat="44.38854" lon="5.19668">
        <ele>339.2</ele>
        <time>2019-04-15T10:32:58Z</time>
      </trkpt>
      <trkpt lat="44.38864" lon="5.19688">
        <ele>339.4</ele>
        <time>2019-04-15T10:33:02Z</time>
      </trkpt>
      <trkpt lat="44.38879" lon="5.19713">
        <ele>339.2</ele>
        <time>2019-04-15T10:33:06Z</time>
      </trkpt>
      <trkpt lat="44.38891" lon="5.19744">
        <ele>340.8</ele>
        <time>2019-04-15T10:33:10Z</time>
      </trkpt>
      <trkpt lat="44.38901" lon="5.19779">
        <ele>340.8</ele>
        <time>2019-04-15T10:33:14Z</time>
      </trkpt>
      <trkpt lat="44.38911" lon="5.19816">
        <ele>340.6</ele>
        <time>2019-04-15T10:33:18Z</time>
      </trkpt>
      <trkpt lat="44.38922" lon="5.19857">
        <ele>339.8</ele>
        <time>2019-04-15T10:33:22Z</time>
      </trkpt>
      <trkpt lat="44.38931" lon="5.19901">
        <ele>338.4</ele>
        <time>2019-04-15T10:33:26Z</time>
      </trkpt>
      <trkpt lat="44.38935" lon="5.19949">
        <ele>338.4</ele>
        <time>2019-04-15T10:33:30Z</time>
      </trkpt>
      <trkpt lat="44.38934" lon="5.19998">
        <ele>338.8</ele>
        <time>2019-04-15T10:33:34Z</time>
      </trkpt>
      <trkpt lat="44.38931" lon="5.20043">
        <ele>339.8</ele>
        <time>2019-04-15T10:33:38Z</time>
      </trkpt>
      <trkpt lat="44.3893" lon="5.20086">
        <ele>340.4</ele>
        <time>2019-04-15T10:33:42Z</time>
      </trkpt>
      <trkpt lat="44.38934" lon="5.20127">
        <ele>340.2</ele>
        <time>2019-04-15T10:33:46Z</time>
      </trkpt>
      <trkpt lat="44.38949" lon="5.20163">
        <ele>340</ele>
        <time>2019-04-15T10:33:50Z</time>
      </trkpt>
      <trkpt lat="44.38969" lon="5.20196">
        <ele>339.4</ele>
        <time>2019-04-15T10:33:54Z</time>
      </trkpt>
      <trkpt lat="44.3899" lon="5.2023">
        <ele>339.6</ele>
        <time>2019-04-15T10:33:58Z</time>
      </trkpt>
      <trkpt lat="44.39011" lon="5.20264">
        <ele>339.6</ele>
        <time>2019-04-15T10:34:02Z</time>
      </trkpt>
      <trkpt lat="44.39032" lon="5.20298">
        <ele>339.4</ele>
        <time>2019-04-15T10:34:06Z</time>
      </trkpt>
      <trkpt lat="44.39053" lon="5.20331">
        <ele>340.4</ele>
        <time>2019-04-15T10:34:10Z</time>
      </trkpt>
      <trkpt lat="44.39072" lon="5.20364">
        <ele>340.8</ele>
        <time>2019-04-15T10:34:14Z</time>
      </trkpt>
      <trkpt lat="44.39092" lon="5.20396">
        <ele>341.4</ele>
        <time>2019-04-15T10:34:18Z</time>
      </trkpt>
      <trkpt lat="44.39111" lon="5.20427">
        <ele>341.8</ele>
        <time>2019-04-15T10:34:22Z</time>
      </trkpt>
      <trkpt lat="44.3913" lon="5.20458">
        <ele>342.2</ele>
        <time>2019-04-15T10:34:26Z</time>
      </trkpt>
      <trkpt lat="44.39148" lon="5.20489">
        <ele>342.6</ele>
        <time>2019-04-15T10:34:30Z</time>
      </trkpt>
      <trkpt lat="44.39162" lon="5.20523">
        <ele>343.2</ele>
        <time>2019-04-15T10:34:34Z</time>
      </trkpt>
      <trkpt lat="44.3917" lon="5.20561">
        <ele>343.8</ele>
        <time>2019-04-15T10:34:38Z</time>
      </trkpt>
      <trkpt lat="44.39175" lon="5.206">
        <ele>344.2</ele>
        <time>2019-04-15T10:34:42Z</time>
      </trkpt>
      <trkpt lat="44.39181" lon="5.20639">
        <ele>344.6</ele>
        <time>2019-04-15T10:34:46Z</time>
      </trkpt>
      <trkpt lat="44.39187" lon="5.20679">
        <ele>345</ele>
        <time>2019-04-15T10:34:50Z</time>
      </trkpt>
      <trkpt lat="44.39193" lon="5.20718">
        <ele>344.4</ele>
        <time>2019-04-15T10:34:54Z</time>
      </trkpt>
      <trkpt lat="44.39199" lon="5.20758">
        <ele>344.2</ele>
        <time>2019-04-15T10:34:58Z</time>
      </trkpt>
      <trkpt lat="44.39205" lon="5.20799">
        <ele>344.4</ele>
        <time>2019-04-15T10:35:02Z</time>
      </trkpt>
      <trkpt lat="44.39211" lon="5.2084">
        <ele>345</ele>
        <time>2019-04-15T10:35:06Z</time>
      </trkpt>
      <trkpt lat="44.39218" lon="5.20881">
        <ele>344.8</ele>
        <time>2019-04-15T10:35:10Z</time>
      </trkpt>
      <trkpt lat="44.39224" lon="5.20923">
        <ele>346</ele>
        <time>2019-04-15T10:35:14Z</time>
      </trkpt>
      <trkpt lat="44.3923" lon="5.20963">
        <ele>344.6</ele>
        <time>2019-04-15T10:35:18Z</time>
      </trkpt>
      <trkpt lat="44.39236" lon="5.21004">
        <ele>344.6</ele>
        <time>2019-04-15T10:35:22Z</time>
      </trkpt>
      <trkpt lat="44.39242" lon="5.21044">
        <ele>345</ele>
        <time>2019-04-15T10:35:26Z</time>
      </trkpt>
      <trkpt lat="44.39248" lon="5.21084">
        <ele>345.4</ele>
        <time>2019-04-15T10:35:30Z</time>
      </trkpt>
      <trkpt lat="44.39254" lon="5.21122">
        <ele>346</ele>
        <time>2019-04-15T10:35:34Z</time>
      </trkpt>
      <trkpt lat="44.39258" lon="5.2116">
        <ele>346.8</ele>
        <time>2019-04-15T10:35:38Z</time>
      </trkpt>
      <trkpt lat="44.39257" lon="5.21199">
        <ele>345.8</ele>
        <time>2019-04-15T10:35:42Z</time>
      </trkpt>
      <trkpt lat="44.3925" lon="5.21237">
        <ele>347</ele>
        <time>2019-04-15T10:35:46Z</time>
      </trkpt>
      <trkpt lat="44.3924" lon="5.21272">
        <ele>347</ele>
        <time>2019-04-15T10:35:50Z</time>
      </trkpt>
      <trkpt lat="44.39229" lon="5.21306">
        <ele>347.4</ele>
        <time>2019-04-15T10:35:54Z</time>
      </trkpt>
      <trkpt lat="44.39219" lon="5.21339">
        <ele>347.8</ele>
        <time>2019-04-15T10:35:58Z</time>
      </trkpt>
      <trkpt lat="44.39208" lon="5.21372">
        <ele>347.8</ele>
        <time>2019-04-15T10:36:02Z</time>
      </trkpt>
      <trkpt lat="44.39198" lon="5.21407">
        <ele>348.6</ele>
        <time>2019-04-15T10:36:06Z</time>
      </trkpt>
      <trkpt lat="44.39187" lon="5.21441">
        <ele>349.4</ele>
        <time>2019-04-15T10:36:10Z</time>
      </trkpt>
      <trkpt lat="44.39177" lon="5.21475">
        <ele>349.4</ele>
        <time>2019-04-15T10:36:14Z</time>
      </trkpt>
      <trkpt lat="44.39167" lon="5.21508">
        <ele>349.4</ele>
        <time>2019-04-15T10:36:18Z</time>
      </trkpt>
      <trkpt lat="44.39156" lon="5.21541">
        <ele>349.6</ele>
        <time>2019-04-15T10:36:22Z</time>
      </trkpt>
      <trkpt lat="44.39146" lon="5.21574">
        <ele>350.6</ele>
        <time>2019-04-15T10:36:26Z</time>
      </trkpt>
      <trkpt lat="44.39135" lon="5.21607">
        <ele>350.2</ele>
        <time>2019-04-15T10:36:30Z</time>
      </trkpt>
      <trkpt lat="44.39124" lon="5.2164">
        <ele>351.2</ele>
        <time>2019-04-15T10:36:34Z</time>
      </trkpt>
      <trkpt lat="44.39113" lon="5.21674">
        <ele>351.2</ele>
        <time>2019-04-15T10:36:38Z</time>
      </trkpt>
      <trkpt lat="44.391" lon="5.21707">
        <ele>350.8</ele>
        <time>2019-04-15T10:36:42Z</time>
      </trkpt>
      <trkpt lat="44.39083" lon="5.21737">
        <ele>351.2</ele>
        <time>2019-04-15T10:36:46Z</time>
      </trkpt>
      <trkpt lat="44.39064" lon="5.21763">
        <ele>351.6</ele>
        <time>2019-04-15T10:36:50Z</time>
      </trkpt>
      <trkpt lat="44.39047" lon="5.21792">
        <ele>351.6</ele>
        <time>2019-04-15T10:36:54Z</time>
      </trkpt>
      <trkpt lat="44.39035" lon="5.21825">
        <ele>352</ele>
        <time>2019-04-15T10:36:58Z</time>
      </trkpt>
      <trkpt lat="44.39023" lon="5.21858">
        <ele>353.2</ele>
        <time>2019-04-15T10:37:02Z</time>
      </trkpt>
      <trkpt lat="44.3901" lon="5.2189">
        <ele>353.6</ele>
        <time>2019-04-15T10:37:06Z</time>
      </trkpt>
      <trkpt lat="44.39002" lon="5.21921">
        <ele>354.6</ele>
        <time>2019-04-15T10:37:10Z</time>
      </trkpt>
      <trkpt lat="44.39003" lon="5.21957">
        <ele>354.4</ele>
        <time>2019-04-15T10:37:14Z</time>
      </trkpt>
      <trkpt lat="44.3901" lon="5.21997">
        <ele>354.8</ele>
        <time>2019-04-15T10:37:18Z</time>
      </trkpt>
      <trkpt lat="44.39017" lon="5.22037">
        <ele>355.4</ele>
        <time>2019-04-15T10:37:22Z</time>
      </trkpt>
      <trkpt lat="44.39024" lon="5.22074">
        <ele>355.8</ele>
        <time>2019-04-15T10:37:26Z</time>
      </trkpt>
      <trkpt lat="44.3903" lon="5.22111">
        <ele>356.6</ele>
        <time>2019-04-15T10:37:30Z</time>
      </trkpt>
      <trkpt lat="44.39032" lon="5.22146">
        <ele>357.4</ele>
        <time>2019-04-15T10:37:34Z</time>
      </trkpt>
      <trkpt lat="44.39026" lon="5.2218">
        <ele>357.4</ele>
        <time>2019-04-15T10:37:38Z</time>
      </trkpt>
      <trkpt lat="44.39015" lon="5.22212">
        <ele>358.6</ele>
        <time>2019-04-15T10:37:42Z</time>
      </trkpt>
      <trkpt lat="44.39003" lon="5.22244">
        <ele>359.4</ele>
        <time>2019-04-15T10:37:46Z</time>
      </trkpt>
      <trkpt lat="44.38986" lon="5.22271">
        <ele>360</ele>
        <time>2019-04-15T10:37:50Z</time>
      </trkpt>
      <trkpt lat="44.38969" lon="5.22296">
        <ele>360.2</ele>
        <time>2019-04-15T10:37:54Z</time>
      </trkpt>
      <trkpt lat="44.38951" lon="5.22321">
        <ele>361.4</ele>
        <time>2019-04-15T10:37:58Z</time>
      </trkpt>
      <trkpt lat="44.38934" lon="5.22349">
        <ele>362.2</ele>
        <time>2019-04-15T10:38:02Z</time>
      </trkpt>
      <trkpt lat="44.38925" lon="5.22383">
        <ele>362</ele>
        <time>2019-04-15T10:38:06Z</time>
      </trkpt>
      <trkpt lat="44.38919" lon="5.22418">
        <ele>362.4</ele>
        <time>2019-04-15T10:38:10Z</time>
      </trkpt>
      <trkpt lat="44.38916" lon="5.22454">
        <ele>363.6</ele>
        <time>2019-04-15T10:38:14Z</time>
      </trkpt>
      <trkpt lat="44.38912" lon="5.2249">
        <ele>362.6</ele>
        <time>2019-04-15T10:38:18Z</time>
      </trkpt>
      <trkpt lat="44.38905" lon="5.22528">
        <ele>362.4</ele>
        <time>2019-04-15T10:38:22Z</time>
      </trkpt>
      <trkpt lat="44.38896" lon="5.22568">
        <ele>361.8</ele>
        <time>2019-04-15T10:38:26Z</time>
      </trkpt>
      <trkpt lat="44.38885" lon="5.22608">
        <ele>361.8</ele>
        <time>2019-04-15T10:38:30Z</time>
      </trkpt>
      <trkpt lat="44.38869" lon="5.22648">
        <ele>361.8</ele>
        <time>2019-04-15T10:38:34Z</time>
      </trkpt>
      <trkpt lat="44.38851" lon="5.22686">
        <ele>361.2</ele>
        <time>2019-04-15T10:38:38Z</time>
      </trkpt>
      <trkpt lat="44.38835" lon="5.22727">
        <ele>361</ele>
        <time>2019-04-15T10:38:42Z</time>
      </trkpt>
      <trkpt lat="44.38826" lon="5.22771">
        <ele>360.6</ele>
        <time>2019-04-15T10:38:46Z</time>
      </trkpt>
      <trkpt lat="44.38826" lon="5.22817">
        <ele>359.8</ele>
        <time>2019-04-15T10:38:50Z</time>
      </trkpt>
      <trkpt lat="44.38832" lon="5.22865">
        <ele>359.6</ele>
        <time>2019-04-15T10:38:54Z</time>
      </trkpt>
      <trkpt lat="44.38837" lon="5.22913">
        <ele>359.4</ele>
        <time>2019-04-15T10:38:58Z</time>
      </trkpt>
      <trkpt lat="44.38838" lon="5.22962">
        <ele>359.2</ele>
        <time>2019-04-15T10:39:02Z</time>
      </trkpt>
      <trkpt lat="44.3883" lon="5.23011">
        <ele>358.8</ele>
        <time>2019-04-15T10:39:06Z</time>
      </trkpt>
      <trkpt lat="44.38816" lon="5.23059">
        <ele>358.4</ele>
        <time>2019-04-15T10:39:10Z</time>
      </trkpt>
      <trkpt lat="44.38803" lon="5.23105">
        <ele>358.4</ele>
        <time>2019-04-15T10:39:14Z</time>
      </trkpt>
      <trkpt lat="44.38789" lon="5.23152">
        <ele>358.4</ele>
        <time>2019-04-15T10:39:18Z</time>
      </trkpt>
      <trkpt lat="44.38781" lon="5.23198">
        <ele>358.8</ele>
        <time>2019-04-15T10:39:22Z</time>
      </trkpt>
      <trkpt lat="44.38788" lon="5.23243">
        <ele>358.4</ele>
        <time>2019-04-15T10:39:26Z</time>
      </trkpt>
      <trkpt lat="44.38807" lon="5.23279">
        <ele>357.8</ele>
        <time>2019-04-15T10:39:30Z</time>
      </trkpt>
      <trkpt lat="44.38816" lon="5.23319">
        <ele>356.4</ele>
        <time>2019-04-15T10:39:34Z</time>
      </trkpt>
      <trkpt lat="44.38811" lon="5.23363">
        <ele>356.4</ele>
        <time>2019-04-15T10:39:38Z</time>
      </trkpt>
      <trkpt lat="44.38804" lon="5.23407">
        <ele>356.8</ele>
        <time>2019-04-15T10:39:42Z</time>
      </trkpt>
      <trkpt lat="44.38796" lon="5.23448">
        <ele>357.8</ele>
        <time>2019-04-15T10:39:46Z</time>
      </trkpt>
      <trkpt lat="44.38784" lon="5.23484">
        <ele>358.8</ele>
        <time>2019-04-15T10:39:50Z</time>
      </trkpt>
      <trkpt lat="44.38777" lon="5.23509">
        <ele>358.6</ele>
        <time>2019-04-15T10:39:54Z</time>
      </trkpt>
      <trkpt lat="44.38776" lon="5.23512">
        <ele>358.4</ele>
        <time>2019-04-15T10:39:58Z</time>
      </trkpt>
      <trkpt lat="44.38776" lon="5.23512">
        <ele>358.4</ele>
        <time>2019-04-15T10:40:02Z</time>
      </trkpt>
      <trkpt lat="44.38776" lon="5.23512">
        <ele>358.4</ele>
        <time>2019-04-15T10:40:06Z</time>
      </trkpt>
      <trkpt lat="44.38776" lon="5.23512">
        <ele>358.4</ele>
        <time>2019-04-15T10:40:10Z</time>
      </trkpt>
      <trkpt lat="44.38776" lon="5.23512">
        <ele>358.4</ele>
        <time>2019-04-15T10:40:14Z</time>
      </trkpt>
      <trkpt lat="44.38776" lon="5.23512">
        <ele>358.4</ele>
        <time>2019-04-15T10:40:18Z</time>
      </trkpt>
      <trkpt lat="44.38776" lon="5.23512">
        <ele>358.4</ele>
        <time>2019-04-15T10:40:22Z</time>
      </trkpt>
      <trkpt lat="44.38776" lon="5.23512">
        <ele>358.4</ele>
        <time>2019-04-15T10:40:26Z</time>
      </trkpt>
      <trkpt lat="44.38776" lon="5.23512">
        <ele>358.4</ele>
        <time>2019-04-15T10:40:30Z</time>
      </trkpt>
      <trkpt lat="44.38776" lon="5.23512">
        <ele>358.4</ele>
        <time>2019-04-15T10:40:34Z</time>
      </trkpt>
      <trkpt lat="44.38776" lon="5.23512">
        <ele>358.4</ele>
        <time>2019-04-15T10:40:38Z</time>
      </trkpt>
      <trkpt lat="44.38776" lon="5.23512">
        <ele>358.4</ele>
        <time>2019-04-15T10:40:42Z</time>
      </trkpt>
      <trkpt lat="44.38776" lon="5.23512">
        <ele>358.4</ele>
        <time>2019-04-15T10:40:46Z</time>
      </trkpt>
      <trkpt lat="44.38776" lon="5.23512">
        <ele>358.4</ele>
        <time>2019-04-15T10:40:50Z</time>
      </trkpt>
      <trkpt lat="44.38776" lon="5.23512">
        <ele>358.4</ele>
        <time>2019-04-15T10:40:54Z</time>
      </trkpt>
      <trkpt lat="44.38776" lon="5.23512">
        <ele>358.4</ele>
        <time>2019-04-15T10:40:58Z</time>
      </trkpt>
      <trkpt lat="44.38776" lon="5.23512">
        <ele>358.4</ele>
        <time>2019-04-15T10:41:02Z</time>
      </trkpt>
      <trkpt lat="44.38776" lon="5.23512">
        <ele>358.4</ele>
        <time>2019-04-15T10:41:06Z</time>
      </trkpt>
      <trkpt lat="44.38776" lon="5.23512">
        <ele>358.4</ele>
        <time>2019-04-15T10:41:10Z</time>
      </trkpt>
      <trkpt lat="44.38776" lon="5.23512">
        <ele>358.4</ele>
        <time>2019-04-15T10:41:14Z</time>
      </trkpt>
      <trkpt lat="44.38776" lon="5.23512">
        <ele>358.4</ele>
        <time>2019-04-15T10:41:18Z</time>
      </trkpt>
      <trkpt lat="44.38776" lon="5.23512">
        <ele>358.4</ele>
        <time>2019-04-15T10:41:22Z</time>
      </trkpt>
      <trkpt lat="44.38776" lon="5.23512">
        <ele>358.4</ele>
        <time>2019-04-15T10:41:26Z</time>
      </trkpt>
      <trkpt lat="44.38776" lon="5.23512">
        <ele>358.4</ele>
        <time>2019-04-15T10:41:30Z</time>
      </trkpt>
      <trkpt lat="44.38776" lon="5.23512">
        <ele>358.4</ele>
        <time>2019-04-15T10:41:34Z</time>
      </trkpt>
      <trkpt lat="44.38776" lon="5.23512">
        <ele>358.4</ele>
        <time>2019-04-15T10:41:38Z</time>
      </trkpt>
      <trkpt lat="44.38776" lon="5.23512">
        <ele>358.4</ele>
        <time>2019-04-15T10:41:42Z</time>
      </trkpt>
      <trkpt lat="44.38776" lon="5.23512">
        <ele>358.4</ele>
        <time>2019-04-15T10:41:46Z</time>
      </trkpt>
      <trkpt lat="44.38776" lon="5.23512">
        <ele>358.4</ele>
        <time>2019-04-15T10:41:50Z</time>
      </trkpt>
      <trkpt lat="44.38776" lon="5.23512">
        <ele>358.4</ele>
        <time>2019-04-15T10:41:54Z</time>
      </trkpt>
      <trkpt lat="44.38776" lon="5.23512">
        <ele>358.4</ele>
        <time>2019-04-15T10:41:58Z</time>
      </trkpt>
      <trkpt lat="44.38776" lon="5.23512">
        <ele>358.4</ele>
        <time>2019-04-15T10:42:02Z</time>
      </trkpt>
      <trkpt lat="44.38776" lon="5.23512">
        <ele>358.4</ele>
        <time>2019-04-15T10:42:06Z</time>
      </trkpt>
      <trkpt lat="44.38776" lon="5.23512">
        <ele>358.4</ele>
        <time>2019-04-15T10:42:10Z</time>
      </trkpt>
      <trkpt lat="44.38776" lon="5.23512">
        <ele>358.4</ele>
        <time>2019-04-15T10:42:14Z</time>
      </trkpt>
      <trkpt lat="44.38776" lon="5.23512">
        <ele>358.4</ele>
        <time>2019-04-15T10:42:18Z</time>
      </trkpt>
      <trkpt lat="44.38776" lon="5.23512">
        <ele>358.4</ele>
        <time>2019-04-15T10:42:22Z</time>
      </trkpt>
      <trkpt lat="44.38776" lon="5.23512">
        <ele>358.4</ele>
        <time>2019-04-15T10:42:26Z</time>
      </trkpt>
      <trkpt lat="44.38776" lon="5.23512">
        <ele>358.4</ele>
        <time>2019-04-15T10:42:30Z</time>
      </trkpt>
      <trkpt lat="44.38776" lon="5.23512">
        <ele>358.4</ele>
        <time>2019-04-15T10:42:34Z</time>
      </trkpt>
      <trkpt lat="44.38776" lon="5.23512">
        <ele>358.4</ele>
        <time>2019-04-15T10:42:38Z</time>
      </trkpt>
      <trkpt lat="44.38776" lon="5.23512">
        <ele>358.4</ele>
        <time>2019-04-15T10:42:42Z</time>
      </trkpt>
      <trkpt lat="44.38776" lon="5.23512">
        <ele>358.4</ele>
        <time>2019-04-15T10:42:46Z</time>
      </trkpt>
      <trkpt lat="44.38776" lon="5.23512">
        <ele>358.4</ele>
        <time>2019-04-15T10:42:50Z</time>
      </trkpt>
      <trkpt lat="44.38776" lon="5.23512">
        <ele>358.4</ele>
        <time>2019-04-15T10:42:54Z</time>
      </trkpt>
      <trkpt lat="44.38776" lon="5.23512">
        <ele>358.4</ele>
        <time>2019-04-15T10:42:58Z</time>
      </trkpt>
      <trkpt lat="44.38776" lon="5.23512">
        <ele>358.4</ele>
        <time>2019-04-15T10:43:02Z</time>
      </trkpt>
      <trkpt lat="44.38776" lon="5.23512">
        <ele>358.4</ele>
        <time>2019-04-15T10:43:06Z</time>
      </trkpt>
      <trkpt lat="44.38776" lon="5.23512">
        <ele>358.4</ele>
        <time>2019-04-15T10:43:10Z</time>
      </trkpt>
      <trkpt lat="44.38776" lon="5.23512">
        <ele>358.4</ele>
        <time>2019-04-15T10:43:14Z</time>
      </trkpt>
      <trkpt lat="44.38776" lon="5.23512">
        <ele>358.4</ele>
        <time>2019-04-15T10:43:18Z</time>
      </trkpt>
      <trkpt lat="44.38776" lon="5.23512">
        <ele>358.4</ele>
        <time>2019-04-15T10:43:22Z</time>
      </trkpt>
      <trkpt lat="44.38776" lon="5.23512">
        <ele>358.4</ele>
        <time>2019-04-15T10:43:26Z</time>
      </trkpt>
      <trkpt lat="44.38776" lon="5.23512">
        <ele>358.4</ele>
        <time>2019-04-15T10:43:30Z</time>
      </trkpt>
      <trkpt lat="44.38776" lon="5.23512">
        <ele>358.4</ele>
        <time>2019-04-15T10:43:34Z</time>
      </trkpt>
      <trkpt lat="44.38776" lon="5.23512">
        <ele>358.4</ele>
        <time>2019-04-15T10:43:38Z</time>
      </trkpt>
      <trkpt lat="44.38776" lon="5.23512">
        <ele>358.4</ele>
        <time>2019-04-15T10:43:42Z</time>
      </trkpt>
      <trkpt lat="44.38776" lon="5.23512">
        <ele>358.4</ele>
        <time>2019-04-15T10:43:46Z</time>
      </trkpt>
      <trkpt lat="44.38776" lon="5.23512">
        <ele>358.4</ele>
        <time>2019-04-15T10:43:50Z</time>
      </trkpt>
      <trkpt lat="44.38776" lon="5.23512">
        <ele>358.4</ele>
        <time>2019-04-15T10:43:54Z</time>
      </trkpt>
      <trkpt lat="44.38776" lon="5.23512">
        <ele>358.4</ele>
        <time>2019-04-15T10:43:58Z</time>
      </trkpt>
      <trkpt lat="44.38776" lon="5.23512">
        <ele>358.4</ele>
        <time>2019-04-15T10:44:02Z</time>
      </trkpt>
      <trkpt lat="44.38776" lon="5.23512">
        <ele>358.4</ele>
        <time>2019-04-15T10:44:06Z</time>
      </trkpt>
      <trkpt lat="44.38776" lon="5.23512">
        <ele>358.4</ele>
        <time>2019-04-15T10:44:10Z</time>
      </trkpt>
      <trkpt lat="44.38776" lon="5.23512">
        <ele>358.4</ele>
        <time>2019-04-15T10:44:14Z</time>
      </trkpt>
      <trkpt lat="44.38776" lon="5.23512">
        <ele>358.4</ele>
        <time>2019-04-15T10:44:18Z</time>
      </trkpt>
      <trkpt lat="44.38776" lon="5.23512">
        <ele>358.4</ele>
        <time>2019-04-15T10:44:22Z</time>
      </trkpt>
      <trkpt lat="44.38776" lon="5.23512">
        <ele>358.4</ele>
        <time>2019-04-15T10:44:26Z</time>
      </trkpt>
      <trkpt lat="44.38776" lon="5.23512">
        <ele>358.4</ele>
        <time>2019-04-15T10:44:30Z</time>
      </trkpt>
      <trkpt lat="44.38776" lon="5.23512">
        <ele>358.4</ele>
        <time>2019-04-15T10:44:34Z</time>
      </trkpt>
      <trkpt lat="44.38776" lon="5.23512">
        <ele>358.4</ele>
        <time>2019-04-15T10:44:38Z</time>
      </trkpt>
      <trkpt lat="44.38776" lon="5.23512">
        <ele>358.4</ele>
        <time>2019-04-15T10:44:42Z</time>
      </trkpt>
      <trkpt lat="44.38776" lon="5.23512">
        <ele>358.4</ele>
        <time>2019-04-15T10:44:46Z</time>
      </trkpt>
      <trkpt lat="44.38776" lon="5.23512">
        <ele>358.4</ele>
        <time>2019-04-15T10:44:50Z</time>
      </trkpt>
      <trkpt lat="44.38776" lon="5.23512">
        <ele>358.4</ele>
        <time>2019-04-15T10:44:54Z</time>
      </trkpt>
      <trkpt lat="44.38776" lon="5.23512">
        <ele>358.4</ele>
        <time>2019-04-15T10:44:58Z</time>
      </trkpt>
      <trkpt lat="44.38776" lon="5.23512">
        <ele>358.4</ele>
        <time>2019-04-15T10:45:02Z</time>
      </trkpt>
      <trkpt lat="44.38776" lon="5.23512">
        <ele>358.4</ele>
        <time>2019-04-15T10:45:06Z</time>
      </trkpt>
      <trkpt lat="44.38776" lon="5.23512">
        <ele>358.4</ele>
        <time>2019-04-15T10:45:10Z</time>
      </trkpt>
      <trkpt lat="44.38776" lon="5.23512">
        <ele>358.4</ele>
        <time>2019-04-15T10:45:14Z</time>
      </trkpt>
      <trkpt lat="44.38776" lon="5.23512">
        <ele>358.4</ele>
        <time>2019-04-15T10:45:18Z</time>
      </trkpt>
      <trkpt lat="44.38776" lon="5.23512">
        <ele>358.4</ele>
        <time>2019-04-15T10:45:22Z</time>
      </trkpt>
      <trkpt lat="44.38776" lon="5.23512">
        <ele>358.4</ele>
        <time>2019-04-15T10:45:26Z</time>
      </trkpt>
      <trkpt lat="44.38776" lon="5.23512">
        <ele>358.4</ele>
        <time>2019-04-15T10:45:30Z</time>
      </trkpt>
      <trkpt lat="44.38776" lon="5.23512">
        <ele>358.4</ele>
        <time>2019-04-15T10:45:34Z</time>
      </trkpt>
      <trkpt lat="44.38776" lon="5.23512">
        <ele>358.4</ele>
        <time>2019-04-15T10:45:38Z</time>
      </trkpt>
      <trkpt lat="44.38776" lon="5.23512">
        <ele>358.4</ele>
        <time>2019-04-15T10:45:42Z</time>
      </trkpt>
      <trkpt lat="44.38776" lon="5.23512">
        <ele>358.4</ele>
        <time>2019-04-15T10:45:46Z</time>
      </trkpt>
      <trkpt lat="44.38776" lon="5.23512">
        <ele>358.4</ele>
        <time>2019-04-15T10:45:50Z</time>
      </trkpt>
      <trkpt lat="44.38776" lon="5.23512">
        <ele>358.4</ele>
        <time>2019-04-15T10:45:54Z</time>
      </trkpt>
      <trkpt lat="44.38774" lon="5.23513">
        <ele>358.8</ele>
        <time>2019-04-15T10:45:58Z</time>
      </trkpt>
      <trkpt lat="44.38774" lon="5.23513">
        <ele>358.8</ele>
        <time>2019-04-15T10:46:02Z</time>
      </trkpt>
      <trkpt lat="44.38774" lon="5.23516">
        <ele>358.8</ele>
        <time>2019-04-15T10:46:06Z</time>
      </trkpt>
      <trkpt lat="44.38773" lon="5.23521">
        <ele>358.8</ele>
        <time>2019-04-15T10:46:10Z</time>
      </trkpt>
      <trkpt lat="44.38771" lon="5.23529">
        <ele>359.2</ele>
        <time>2019-04-15T10:46:14Z</time>
      </trkpt>
      <trkpt lat="44.38767" lon="5.23543">
        <ele>359.2</ele>
        <time>2019-04-15T10:46:18Z</time>
      </trkpt>
      <trkpt lat="44.38761" lon="5.23562">
        <ele>359.2</ele>
        <time>2019-04-15T10:46:22Z</time>
      </trkpt>
      <trkpt lat="44.38753" lon="5.23583">
        <ele>360</ele>
        <time>2019-04-15T10:46:26Z</time>
      </trkpt>
      <trkpt lat="44.38743" lon="5.23605">
        <ele>361.2</ele>
        <time>2019-04-15T10:46:30Z</time>
      </trkpt>
      <trkpt lat="44.38731" lon="5.23628">
        <ele>361.4</ele>
        <time>2019-04-15T10:46:34Z</time>
      </trkpt>
      <trkpt lat="44.38715" lon="5.23652">
        <ele>362.4</ele>
        <time>2019-04-15T10:46:38Z</time>
      </trkpt>
      <trkpt lat="44.38704" lon="5.23676">
        <ele>363.6</ele>
        <time>2019-04-15T10:46:42Z</time>
      </trkpt>
      <trkpt lat="44.38696" lon="5.23704">
        <ele>363.2</ele>
        <time>2019-04-15T10:46:46Z</time>
      </trkpt>
      <trkpt lat="44.38691" lon="5.23739">
        <ele>363.8</ele>
        <time>2019-04-15T10:46:50Z</time>
      </trkpt>
      <trkpt lat="44.38686" lon="5.23776">
        <ele>364</ele>
        <time>2019-04-15T10:46:54Z</time>
      </trkpt>
      <trkpt lat="44.38679" lon="5.23812">
        <ele>364.4</ele>
        <time>2019-04-15T10:46:58Z</time>
      </trkpt>
      <trkpt lat="44.38669" lon="5.23848">
        <ele>363.6</ele>
        <time>2019-04-15T10:47:02Z</time>
      </trkpt>
      <trkpt lat="44.38661" lon="5.23886">
        <ele>363</ele>
        <time>2019-04-15T10:47:06Z</time>
      </trkpt>
      <trkpt lat="44.38647" lon="5.23922">
        <ele>363.4</ele>
        <time>2019-04-15T10:47:10Z</time>
      </trkpt>
      <trkpt lat="44.38629" lon="5.23955">
        <ele>362.6</ele>
        <time>2019-04-15T10:47:14Z</time>
      </trkpt>
      <trkpt lat="44.38608" lon="5.23987">
        <ele>363.2</ele>
        <time>2019-04-15T10:47:18Z</time>
      </trkpt>
      <trkpt lat="44.38588" lon="5.24019">
        <ele>362.8</ele>
        <time>2019-04-15T10:47:22Z</time>
      </trkpt>
      <trkpt lat="44.38568" lon="5.24052">
        <ele>363</ele>
        <time>2019-04-15T10:47:26Z</time>
      </trkpt>
      <trkpt lat="44.38546" lon="5.24086">
        <ele>362.2</ele>
        <time>2019-04-15T10:47:30Z</time>
      </trkpt>
      <trkpt lat="44.38523" lon="5.24115">
        <ele>363.2</ele>
        <time>2019-04-15T10:47:34Z</time>
      </trkpt>
      <trkpt lat="44.385" lon="5.24145">
        <ele>362.8</ele>
        <time>2019-04-15T10:47:38Z</time>
      </trkpt>
      <trkpt lat="44.38477" lon="5.24174">
        <ele>362</ele>
        <time>2019-04-15T10:47:42Z</time>
      </trkpt>
      <trkpt lat="44.38455" lon="5.24203">
        <ele>362.6</ele>
        <time>2019-04-15T10:47:46Z</time>
      </trkpt>
      <trkpt lat="44.38432" lon="5.24231">
        <ele>362.2</ele>
        <time>2019-04-15T10:47:50Z</time>
      </trkpt>
      <trkpt lat="44.38409" lon="5.24257">
        <ele>362.8</ele>
        <time>2019-04-15T10:47:54Z</time>
      </trkpt>
      <trkpt lat="44.38385" lon="5.24281">
        <ele>362.4</ele>
        <time>2019-04-15T10:47:58Z</time>
      </trkpt>
      <trkpt lat="44.38362" lon="5.24307">
        <ele>362.2</ele>
        <time>2019-04-15T10:48:02Z</time>
      </trkpt>
      <trkpt lat="44.3834" lon="5.24331">
        <ele>362</ele>
        <time>2019-04-15T10:48:06Z</time>
      </trkpt>
      <trkpt lat="44.38314" lon="5.24347">
        <ele>362.6</ele>
        <time>2019-04-15T10:48:10Z</time>
      </trkpt>
      <trkpt lat="44.3829" lon="5.24358">
        <ele>363.4</ele>
        <time>2019-04-15T10:48:14Z</time>
      </trkpt>
      <trkpt lat="44.38267" lon="5.2437">
        <ele>364.2</ele>
        <time>2019-04-15T10:48:18Z</time>
      </trkpt>
      <trkpt lat="44.38244" lon="5.24379">
        <ele>364.6</ele>
        <time>2019-04-15T10:48:22Z</time>
      </trkpt>
      <trkpt lat="44.38221" lon="5.24389">
        <ele>365</ele>
        <time>2019-04-15T10:48:26Z</time>
      </trkpt>
      <trkpt lat="44.38198" lon="5.24395">
        <ele>366</ele>
        <time>2019-04-15T10:48:30Z</time>
      </trkpt>
      <trkpt lat="44.38176" lon="5.244">
        <ele>366.2</ele>
        <time>2019-04-15T10:48:34Z</time>
      </trkpt>
      <trkpt lat="44.38153" lon="5.24404">
        <ele>366.4</ele>
        <time>2019-04-15T10:48:38Z</time>
      </trkpt>
      <trkpt lat="44.38129" lon="5.2441">
        <ele>367.4</ele>
        <time>2019-04-15T10:48:42Z</time>
      </trkpt>
      <trkpt lat="44.38107" lon="5.24421">
        <ele>367</ele>
        <time>2019-04-15T10:48:46Z</time>
      </trkpt>
      <trkpt lat="44.38088" lon="5.24438">
        <ele>367.8</ele>
        <time>2019-04-15T10:48:50Z</time>
      </trkpt>
      <trkpt lat="44.38071" lon="5.24463">
        <ele>368.2</ele>
        <time>2019-04-15T10:48:54Z</time>
      </trkpt>
      <trkpt lat="44.38055" lon="5.2449">
        <ele>367.8</ele>
        <time>2019-04-15T10:48:58Z</time>
      </trkpt>
      <trkpt lat="44.38035" lon="5.24513">
        <ele>367.8</ele>
        <time>2019-04-15T10:49:02Z</time>
      </trkpt>
      <trkpt lat="44.38013" lon="5.24531">
        <ele>368.2</ele>
        <time>2019-04-15T10:49:06Z</time>
      </trkpt>
      <trkpt lat="44.3799" lon="5.24547">
        <ele>368.6</ele>
        <time>2019-04-15T10:49:10Z</time>
      </trkpt>
      <trkpt lat="44.37967" lon="5.24563">
        <ele>368.8</ele>
        <time>2019-04-15T10:49:14Z</time>
      </trkpt>
      <trkpt lat="44.37943" lon="5.24578">
        <ele>369.6</ele>
        <time>2019-04-15T10:49:18Z</time>
      </trkpt>
      <trkpt lat="44.37919" lon="5.24592">
        <ele>370</ele>
        <time>2019-04-15T10:49:22Z</time>
      </trkpt>
      <trkpt lat="44.37896" lon="5.2461">
        <ele>370.6</ele>
        <time>2019-04-15T10:49:26Z</time>
      </trkpt>
      <trkpt lat="44.37876" lon="5.24633">
        <ele>371</ele>
        <time>2019-04-15T10:49:30Z</time>
      </trkpt>
      <trkpt lat="44.3786" lon="5.24661">
        <ele>371</ele>
        <time>2019-04-15T10:49:34Z</time>
      </trkpt>
      <trkpt lat="44.37843" lon="5.24689">
        <ele>371.2</ele>
        <time>2019-04-15T10:49:38Z</time>
      </trkpt>
      <trkpt lat="44.37824" lon="5.24715">
        <ele>372.4</ele>
        <time>2019-04-15T10:49:42Z</time>
      </trkpt>
      <trkpt lat="44.37805" lon="5.24741">
        <ele>372.8</ele>
        <time>2019-04-15T10:49:46Z</time>
      </trkpt>
      <trkpt lat="44.37786" lon="5.24767">
        <ele>372.8</ele>
        <time>2019-04-15T10:49:50Z</time>
      </trkpt>
      <trkpt lat="44.37767" lon="5.24793">
        <ele>373</ele>
        <time>2019-04-15T10:49:54Z</time>
      </trkpt>
      <trkpt lat="44.37749" lon="5.24818">
        <ele>374</ele>
        <time>2019-04-15T10:49:58Z</time>
      </trkpt>
      <trkpt lat="44.37731" lon="5.24843">
        <ele>374.8</ele>
        <time>2019-04-15T10:50:02Z</time>
      </trkpt>
      <trkpt lat="44.37714" lon="5.24867">
        <ele>375</ele>
        <time>2019-04-15T10:50:06Z</time>
      </trkpt>
      <trkpt lat="44.37696" lon="5.24891">
        <ele>375.2</ele>
        <time>2019-04-15T10:50:10Z</time>
      </trkpt>
      <trkpt lat="44.37679" lon="5.24915">
        <ele>376.4</ele>
        <time>2019-04-15T10:50:14Z</time>
      </trkpt>
      <trkpt lat="44.37662" lon="5.24938">
        <ele>377</ele>
        <time>2019-04-15T10:50:18Z</time>
      </trkpt>
      <trkpt lat="44.37644" lon="5.24962">
        <ele>377.6</ele>
        <time>2019-04-15T10:50:22Z</time>
      </trkpt>
      <trkpt lat="44.37629" lon="5.24985">
        <ele>378.2</ele>
        <time>2019-04-15T10:50:26Z</time>
      </trkpt>
      <trkpt lat="44.3761" lon="5.25011">
        <ele>378.6</ele>
        <time>2019-04-15T10:50:30Z</time>
      </trkpt>
      <trkpt lat="44.37591" lon="5.25035">
        <ele>379.2</ele>
        <time>2019-04-15T10:50:34Z</time>
      </trkpt>
      <trkpt lat="44.37572" lon="5.25056">
        <ele>379.8</ele>
        <time>2019-04-15T10:50:38Z</time>
      </trkpt>
      <trkpt lat="44.37552" lon="5.25074">
        <ele>380.4</ele>
        <time>2019-04-15T10:50:42Z</time>
      </trkpt>
      <trkpt lat="44.37531" lon="5.25095">
        <ele>380</ele>
        <time>2019-04-15T10:50:46Z</time>
      </trkpt>
      <trkpt lat="44.37513" lon="5.25122">
        <ele>380.6</ele>
        <time>2019-04-15T10:50:50Z</time>
      </trkpt>
      <trkpt lat="44.37498" lon="5.25154">
        <ele>380.8</ele>
        <time>2019-04-15T10:50:54Z</time>
      </trkpt>
      <trkpt lat="44.37486" lon="5.25187">
        <ele>381.6</ele>
        <time>2019-04-15T10:50:58Z</time>
      </trkpt>
      <trkpt lat="44.37479" lon="5.25221">
        <ele>381.6</ele>
        <time>2019-04-15T10:51:02Z</time>
      </trkpt>
      <trkpt lat="44.3747" lon="5.25258">
        <ele>382.4</ele>
        <time>2019-04-15T10:51:06Z</time>
      </trkpt>
      <trkpt lat="44.37458" lon="5.25291">
        <ele>381.8</ele>
        <time>2019-04-15T10:51:10Z</time>
      </trkpt>
      <trkpt lat="44.37443" lon="5.2532">
        <ele>382.4</ele>
        <time>2019-04-15T10:51:14Z</time>
      </trkpt>
      <trkpt lat="44.37423" lon="5.25344">
        <ele>383.6</ele>
        <time>2019-04-15T10:51:18Z</time>
      </trkpt>
      <trkpt lat="44.37401" lon="5.25362">
        <ele>384.6</ele>
        <time>2019-04-15T10:51:22Z</time>
      </trkpt>
      <trkpt lat="44.37378" lon="5.25374">
        <ele>384.6</ele>
        <time>2019-04-15T10:51:26Z</time>
      </trkpt>
      <trkpt lat="44.37354" lon="5.25384">
        <ele>385.2</ele>
        <time>2019-04-15T10:51:30Z</time>
      </trkpt>
      <trkpt lat="44.37331" lon="5.25388">
        <ele>385.6</ele>
        <time>2019-04-15T10:51:34Z</time>
      </trkpt>
      <trkpt lat="44.37307" lon="5.25387">
        <ele>386</ele>
        <time>2019-04-15T10:51:38Z</time>
      </trkpt>
      <trkpt lat="44.37284" lon="5.25385">
        <ele>387</ele>
        <time>2019-04-15T10:51:42Z</time>
      </trkpt>
      <trkpt lat="44.3726" lon="5.25384">
        <ele>388</ele>
        <time>2019-04-15T10:51:46Z</time>
      </trkpt>
      <trkpt lat="44.37238" lon="5.25391">
        <ele>389.2</ele>
        <time>2019-04-15T10:51:50Z</time>
      </trkpt>
      <trkpt lat="44.37219" lon="5.25411">
        <ele>390</ele>
        <time>2019-04-15T10:51:54Z</time>
      </trkpt>
      <trkpt lat="44.37206" lon="5.25437">
        <ele>389.2</ele>
        <time>2019-04-15T10:51:58Z</time>
      </trkpt>
      <trkpt lat="44.37193" lon="5.25466">
        <ele>389.4</ele>
        <time>2019-04-15T10:52:02Z</time>
      </trkpt>
      <trkpt lat="44.3718" lon="5.25494">
        <ele>390</ele>
        <time>2019-04-15T10:52:06Z</time>
      </trkpt>
      <trkpt lat="44.37167" lon="5.25521">
        <ele>391.2</ele>
        <time>2019-04-15T10:52:10Z</time>
      </trkpt>
      <trkpt lat="44.37153" lon="5.2555">
        <ele>391.2</ele>
        <time>2019-04-15T10:52:14Z</time>
      </trkpt>
      <trkpt lat="44.37139" lon="5.2558">
        <ele>390.8</ele>
        <time>2019-04-15T10:52:18Z</time>
      </trkpt>
      <trkpt lat="44.37124" lon="5.25611">
        <ele>390.6</ele>
        <time>2019-04-15T10:52:22Z</time>
      </trkpt>
      <trkpt lat="44.37109" lon="5.25641">
        <ele>391</ele>
        <time>2019-04-15T10:52:26Z</time>
      </trkpt>
      <trkpt lat="44.37096" lon="5.25672">
        <ele>391.4</ele>
        <time>2019-04-15T10:52:30Z</time>
      </trkpt>
      <trkpt lat="44.37083" lon="5.25703">
        <ele>392.4</ele>
        <time>2019-04-15T10:52:34Z</time>
      </trkpt>
      <trkpt lat="44.37072" lon="5.25734">
        <ele>392.4</ele>
        <time>2019-04-15T10:52:38Z</time>
      </trkpt>
      <trkpt lat="44.37061" lon="5.25766">
        <ele>393</ele>
        <time>2019-04-15T10:52:42Z</time>
      </trkpt>
      <trkpt lat="44.3705" lon="5.25798">
        <ele>393.6</ele>
        <time>2019-04-15T10:52:46Z</time>
      </trkpt>
      <trkpt lat="44.3704" lon="5.25831">
        <ele>393.6</ele>
        <time>2019-04-15T10:52:50Z</time>
      </trkpt>
      <trkpt lat="44.37029" lon="5.25864">
        <ele>394</ele>
        <time>2019-04-15T10:52:54Z</time>
      </trkpt>
      <trkpt lat="44.37017" lon="5.25896">
        <ele>394</ele>
        <time>2019-04-15T10:52:58Z</time>
      </trkpt>
      <trkpt lat="44.37002" lon="5.25926">
        <ele>394</ele>
        <time>2019-04-15T10:53:02Z</time>
      </trkpt>
      <trkpt lat="44.36987" lon="5.25956">
        <ele>394</ele>
        <time>2019-04-15T10:53:06Z</time>
      </trkpt>
      <trkpt lat="44.36973" lon="5.25987">
        <ele>394</ele>
        <time>2019-04-15T10:53:10Z</time>
      </trkpt>
      <trkpt lat="44.36956" lon="5.26017">
        <ele>393.8</ele>
        <time>2019-04-15T10:53:14Z</time>
      </trkpt>
      <trkpt lat="44.36936" lon="5.26044">
        <ele>394</ele>
        <time>2019-04-15T10:53:18Z</time>
      </trkpt>
      <trkpt lat="44.36916" lon="5.26068">
        <ele>394.6</ele>
        <time>2019-04-15T10:53:22Z</time>
      </trkpt>
      <trkpt lat="44.36896" lon="5.26089">
        <ele>395.2</ele>
        <time>2019-04-15T10:53:26Z</time>
      </trkpt>
      <trkpt lat="44.36876" lon="5.2611">
        <ele>396.2</ele>
        <time>2019-04-15T10:53:30Z</time>
      </trkpt>
      <trkpt lat="44.36857" lon="5.26131">
        <ele>397</ele>
        <time>2019-04-15T10:53:34Z</time>
      </trkpt>
      <trkpt lat="44.36838" lon="5.26154">
        <ele>397.6</ele>
        <time>2019-04-15T10:53:38Z</time>
      </trkpt>
      <trkpt lat="44.36819" lon="5.26175">
        <ele>398.2</ele>
        <time>2019-04-15T10:53:42Z</time>
      </trkpt>
      <trkpt lat="44.368" lon="5.26195">
        <ele>398.4</ele>
        <time>2019-04-15T10:53:46Z</time>
      </trkpt>
      <trkpt lat="44.36781" lon="5.26216">
        <ele>399</ele>
        <time>2019-04-15T10:53:50Z</time>
      </trkpt>
      <trkpt lat="44.36763" lon="5.26237">
        <ele>399.6</ele>
        <time>2019-04-15T10:53:54Z</time>
      </trkpt>
      <trkpt lat="44.36744" lon="5.2626">
        <ele>400.2</ele>
        <time>2019-04-15T10:53:58Z</time>
      </trkpt>
      <trkpt lat="44.36726" lon="5.26284">
        <ele>400.4</ele>
        <time>2019-04-15T10:54:02Z</time>
      </trkpt>
      <trkpt lat="44.36703" lon="5.26304">
        <ele>400.2</ele>
        <time>2019-04-15T10:54:06Z</time>
      </trkpt>
      <trkpt lat="44.36676" lon="5.26314">
        <ele>400.4</ele>
        <time>2019-04-15T10:54:10Z</time>
      </trkpt>
      <trkpt lat="44.36651" lon="5.26315">
        <ele>400.8</ele>
        <time>2019-04-15T10:54:14Z</time>
      </trkpt>
      <trkpt lat="44.36626" lon="5.26316">
        <ele>401.4</ele>
        <time>2019-04-15T10:54:18Z</time>
      </trkpt>
      <trkpt lat="44.36601" lon="5.26321">
        <ele>401.6</ele>
        <time>2019-04-15T10:54:22Z</time>
      </trkpt>
      <trkpt lat="44.36576" lon="5.26329">
        <ele>402.2</ele>
        <time>2019-04-15T10:54:26Z</time>
      </trkpt>
      <trkpt lat="44.36554" lon="5.26346">
        <ele>402.2</ele>
        <time>2019-04-15T10:54:30Z</time>
      </trkpt>
      <trkpt lat="44.36535" lon="5.26366">
        <ele>402.6</ele>
        <time>2019-04-15T10:54:34Z</time>
      </trkpt>
      <trkpt lat="44.36514" lon="5.26388">
        <ele>403.4</ele>
        <time>2019-04-15T10:54:38Z</time>
      </trkpt>
      <trkpt lat="44.36493" lon="5.26402">
        <ele>404.4</ele>
        <time>2019-04-15T10:54:42Z</time>
      </trkpt>
      <trkpt lat="44.36471" lon="5.26411">
        <ele>405.4</ele>
        <time>2019-04-15T10:54:46Z</time>
      </trkpt>
      <trkpt lat="44.36448" lon="5.26425">
        <ele>406.2</ele>
        <time>2019-04-15T10:54:50Z</time>
      </trkpt>
      <trkpt lat="44.36428" lon="5.26448">
        <ele>406.4</ele>
        <time>2019-04-15T10:54:54Z</time>
      </trkpt>
      <trkpt lat="44.3641" lon="5.26475">
        <ele>406.6</ele>
        <time>2019-04-15T10:54:58Z</time>
      </trkpt>
      <trkpt lat="44.36397" lon="5.26508">
        <ele>407.6</ele>
        <time>2019-04-15T10:55:02Z</time>
      </trkpt>
      <trkpt lat="44.36386" lon="5.2654">
        <ele>408</ele>
        <time>2019-04-15T10:55:06Z</time>
      </trkpt>
      <trkpt lat="44.36371" lon="5.26569">
        <ele>408.4</ele>
        <time>2019-04-15T10:55:10Z</time>
      </trkpt>
      <trkpt lat="44.36355" lon="5.26595">
        <ele>409</ele>
        <time>2019-04-15T10:55:14Z</time>
      </trkpt>
      <trkpt lat="44.36337" lon="5.26621">
        <ele>408.6</ele>
        <time>2019-04-15T10:55:18Z</time>
      </trkpt>
      <trkpt lat="44.36318" lon="5.26646">
        <ele>409.6</ele>
        <time>2019-04-15T10:55:22Z</time>
      </trkpt>
      <trkpt lat="44.36298" lon="5.26668">
        <ele>409.6</ele>
        <time>2019-04-15T10:55:26Z</time>
      </trkpt>
      <trkpt lat="44.36279" lon="5.26688">
        <ele>411</ele>
        <time>2019-04-15T10:55:30Z</time>
      </trkpt>
      <trkpt lat="44.3626" lon="5.26708">
        <ele>411</ele>
        <time>2019-04-15T10:55:34Z</time>
      </trkpt>
      <trkpt lat="44.3624" lon="5.26728">
        <ele>411</ele>
        <time>2019-04-15T10:55:38Z</time>
      </trkpt>
      <trkpt lat="44.36219" lon="5.26747">
        <ele>411.6</ele>
        <time>2019-04-15T10:55:42Z</time>
      </trkpt>
      <trkpt lat="44.36198" lon="5.26765">
        <ele>412.4</ele>
        <time>2019-04-15T10:55:46Z</time>
      </trkpt>
      <trkpt lat="44.36175" lon="5.2678">
        <ele>413.2</ele>
        <time>2019-04-15T10:55:50Z</time>
      </trkpt>
      <trkpt lat="44.36154" lon="5.26796">
        <ele>412.4</ele>
        <time>2019-04-15T10:55:54Z</time>
      </trkpt>
      <trkpt lat="44.36131" lon="5.26807">
        <ele>413.2</ele>
        <time>2019-04-15T10:55:58Z</time>
      </trkpt>
      <trkpt lat="44.36107" lon="5.26813">
        <ele>413.8</ele>
        <time>2019-04-15T10:56:02Z</time>
      </trkpt>
      <trkpt lat="44.36083" lon="5.26819">
        <ele>414</ele>
        <time>2019-04-15T10:56:06Z</time>
      </trkpt>
      <trkpt lat="44.36059" lon="5.26823">
        <ele>414.8</ele>
        <time>2019-04-15T10:56:10Z</time>
      </trkpt>
      <trkpt lat="44.36035" lon="5.26824">
        <ele>415</ele>
        <time>2019-04-15T10:56:14Z</time>
      </trkpt>
      <trkpt lat="44.36011" lon="5.26825">
        <ele>415.2</ele>
        <time>2019-04-15T10:56:18Z</time>
      </trkpt>
      <trkpt lat="44.35985" lon="5.26826">
        <ele>415.6</ele>
        <time>2019-04-15T10:56:22Z</time>
      </trkpt>
      <trkpt lat="44.35958" lon="5.26826">
        <ele>415</ele>
        <time>2019-04-15T10:56:26Z</time>
      </trkpt>
      <trkpt lat="44.35929" lon="5.26824">
        <ele>414.6</ele>
        <time>2019-04-15T10:56:30Z</time>
      </trkpt>
      <trkpt lat="44.35899" lon="5.2682">
        <ele>414.4</ele>
        <time>2019-04-15T10:56:34Z</time>
      </trkpt>
      <trkpt lat="44.35868" lon="5.26822">
        <ele>414</ele>
        <time>2019-04-15T10:56:38Z</time>
      </trkpt>
      <trkpt lat="44.35838" lon="5.26843">
        <ele>414.2</ele>
        <time>2019-04-15T10:56:42Z</time>
      </trkpt>
      <trkpt lat="44.35817" lon="5.2688">
        <ele>412.8</ele>
        <time>2019-04-15T10:56:46Z</time>
      </trkpt>
      <trkpt lat="44.35799" lon="5.2692">
        <ele>412.8</ele>
        <time>2019-04-15T10:56:50Z</time>
      </trkpt>
      <trkpt lat="44.35783" lon="5.26957">
        <ele>412.4</ele>
        <time>2019-04-15T10:56:54Z</time>
      </trkpt>
      <trkpt lat="44.35767" lon="5.26993">
        <ele>412.6</ele>
        <time>2019-04-15T10:56:58Z</time>
      </trkpt>
      <trkpt lat="44.35751" lon="5.27028">
        <ele>412.6</ele>
        <time>2019-04-15T10:57:02Z</time>
      </trkpt>
      <trkpt lat="44.35732" lon="5.2706">
        <ele>413</ele>
        <time>2019-04-15T10:57:06Z</time>
      </trkpt>
      <trkpt lat="44.35713" lon="5.27091">
        <ele>413.6</ele>
        <time>2019-04-15T10:57:10Z</time>
      </trkpt>
      <trkpt lat="44.35695" lon="5.27122">
        <ele>414</ele>
        <time>2019-04-15T10:57:14Z</time>
      </trkpt>
      <trkpt lat="44.3568" lon="5.27154">
        <ele>415.2</ele>
        <time>2019-04-15T10:57:18Z</time>
      </trkpt>
      <trkpt lat="44.3567" lon="5.27187">
        <ele>415.2</ele>
        <time>2019-04-15T10:57:22Z</time>
      </trkpt>
      <trkpt lat="44.35658" lon="5.27224">
        <ele>415.2</ele>
        <time>2019-04-15T10:57:26Z</time>
      </trkpt>
      <trkpt lat="44.35642" lon="5.27261">
        <ele>415.2</ele>
        <time>2019-04-15T10:57:30Z</time>
      </trkpt>
      <trkpt lat="44.35621" lon="5.27292">
        <ele>414.6</ele>
        <time>2019-04-15T10:57:34Z</time>
      </trkpt>
      <trkpt lat="44.356" lon="5.27321">
        <ele>414</ele>
        <time>2019-04-15T10:57:38Z</time>
      </trkpt>
      <trkpt lat="44.35578" lon="5.2735">
        <ele>415</ele>
        <time>2019-04-15T10:57:42Z</time>
      </trkpt>
      <trkpt lat="44.35556" lon="5.27378">
        <ele>415.2</ele>
        <time>2019-04-15T10:57:46Z</time>
      </trkpt>
      <trkpt lat="44.35537" lon="5.27405">
        <ele>415.8</ele>
        <time>2019-04-15T10:57:50Z</time>
      </trkpt>
      <trkpt lat="44.35517" lon="5.27431">
        <ele>415.8</ele>
        <time>2019-04-15T10:57:54Z</time>
      </trkpt>
      <trkpt lat="44.35496" lon="5.27458">
        <ele>415.8</ele>
        <time>2019-04-15T10:57:58Z</time>
      </trkpt>
      <trkpt lat="44.35473" lon="5.27488">
        <ele>415</ele>
        <time>2019-04-15T10:58:02Z</time>
      </trkpt>
      <trkpt lat="44.35449" lon="5.27519">
        <ele>415.2</ele>
        <time>2019-04-15T10:58:06Z</time>
      </trkpt>
      <trkpt lat="44.35422" lon="5.2755">
        <ele>415.4</ele>
        <time>2019-04-15T10:58:10Z</time>
      </trkpt>
      <trkpt lat="44.35396" lon="5.27576">
        <ele>415.8</ele>
        <time>2019-04-15T10:58:14Z</time>
      </trkpt>
      <trkpt lat="44.3537" lon="5.276">
        <ele>416</ele>
        <time>2019-04-15T10:58:18Z</time>
      </trkpt>
      <trkpt lat="44.35344" lon="5.27623">
        <ele>415.8</ele>
        <time>2019-04-15T10:58:22Z</time>
      </trkpt>
      <trkpt lat="44.35318" lon="5.27646">
        <ele>415.6</ele>
        <time>2019-04-15T10:58:26Z</time>
      </trkpt>
      <trkpt lat="44.35293" lon="5.2767">
        <ele>415.2</ele>
        <time>2019-04-15T10:58:30Z</time>
      </trkpt>
      <trkpt lat="44.35267" lon="5.27695">
        <ele>415.6</ele>
        <time>2019-04-15T10:58:34Z</time>
      </trkpt>
      <trkpt lat="44.35243" lon="5.27722">
        <ele>416</ele>
        <time>2019-04-15T10:58:38Z</time>
      </trkpt>
      <trkpt lat="44.35224" lon="5.27754">
        <ele>416.2</ele>
        <time>2019-04-15T10:58:42Z</time>
      </trkpt>
      <trkpt lat="44.35206" lon="5.27787">
        <ele>416.2</ele>
        <time>2019-04-15T10:58:46Z</time>
      </trkpt>
      <trkpt lat="44.35189" lon="5.27819">
        <ele>416.6</ele>
        <time>2019-04-15T10:58:50Z</time>
      </trkpt>
      <trkpt lat="44.35173" lon="5.27851">
        <ele>417.4</ele>
        <time>2019-04-15T10:58:54Z</time>
      </trkpt>
      <trkpt lat="44.35156" lon="5.27881">
        <ele>418.2</ele>
        <time>2019-04-15T10:58:58Z</time>
      </trkpt>
      <trkpt lat="44.35136" lon="5.27905">
        <ele>417.8</ele>
        <time>2019-04-15T10:59:02Z</time>
      </trkpt>
      <trkpt lat="44.35115" lon="5.27922">
        <ele>418.4</ele>
        <time>2019-04-15T10:59:06Z</time>
      </trkpt>
      <trkpt lat="44.3509" lon="5.2794">
        <ele>418</ele>
        <time>2019-04-15T10:59:10Z</time>
      </trkpt>
      <trkpt lat="44.35065" lon="5.27956">
        <ele>418.4</ele>
        <time>2019-04-15T10:59:14Z</time>
      </trkpt>
      <trkpt lat="44.3504" lon="5.2797">
        <ele>418.8</ele>
        <time>2019-04-15T10:59:18Z</time>
      </trkpt>
      <trkpt lat="44.35016" lon="5.27983">
        <ele>419.2</ele>
        <time>2019-04-15T10:59:22Z</time>
      </trkpt>
      <trkpt lat="44.34991" lon="5.27995">
        <ele>420</ele>
        <time>2019-04-15T10:59:26Z</time>
      </trkpt>
      <trkpt lat="44.34968" lon="5.28007">
        <ele>420.8</ele>
        <time>2019-04-15T10:59:30Z</time>
      </trkpt>
      <trkpt lat="44.34945" lon="5.28021">
        <ele>421.4</ele>
        <time>2019-04-15T10:59:34Z</time>
      </trkpt>
      <trkpt lat="44.34923" lon="5.28037">
        <ele>421.2</ele>
        <time>2019-04-15T10:59:38Z</time>
      </trkpt>
      <trkpt lat="44.349" lon="5.28055">
        <ele>421.4</ele>
        <time>2019-04-15T10:59:42Z</time>
      </trkpt>
      <trkpt lat="44.34878" lon="5.28074">
        <ele>422</ele>
        <time>2019-04-15T10:59:46Z</time>
      </trkpt>
      <trkpt lat="44.34857" lon="5.28095">
        <ele>422.2</ele>
        <time>2019-04-15T10:59:50Z</time>
      </trkpt>
      <trkpt lat="44.3484" lon="5.28122">
        <ele>422.6</ele>
        <time>2019-04-15T10:59:54Z</time>
      </trkpt>
      <trkpt lat="44.34827" lon="5.28153">
        <ele>422.8</ele>
        <time>2019-04-15T10:59:58Z</time>
      </trkpt>
      <trkpt lat="44.34819" lon="5.28189">
        <ele>423</ele>
        <time>2019-04-15T11:00:02Z</time>
      </trkpt>
      <trkpt lat="44.34812" lon="5.28225">
        <ele>423.6</ele>
        <time>2019-04-15T11:00:06Z</time>
      </trkpt>
      <trkpt lat="44.34799" lon="5.2826">
        <ele>423.6</ele>
        <time>2019-04-15T11:00:10Z</time>
      </trkpt>
      <trkpt lat="44.3478" lon="5.28287">
        <ele>424</ele>
        <time>2019-04-15T11:00:14Z</time>
      </trkpt>
      <trkpt lat="44.34756" lon="5.28302">
        <ele>424</ele>
        <time>2019-04-15T11:00:18Z</time>
      </trkpt>
      <trkpt lat="44.34732" lon="5.28308">
        <ele>423.6</ele>
        <time>2019-04-15T11:00:22Z</time>
      </trkpt>
      <trkpt lat="44.34705" lon="5.28309">
        <ele>424.2</ele>
        <time>2019-04-15T11:00:26Z</time>
      </trkpt>
      <trkpt lat="44.34678" lon="5.28304">
        <ele>424.2</ele>
        <time>2019-04-15T11:00:30Z</time>
      </trkpt>
      <trkpt lat="44.34651" lon="5.28299">
        <ele>424.4</ele>
        <time>2019-04-15T11:00:34Z</time>
      </trkpt>
      <trkpt lat="44.34625" lon="5.28293">
        <ele>424.4</ele>
        <time>2019-04-15T11:00:38Z</time>
      </trkpt>
      <trkpt lat="44.346" lon="5.28286">
        <ele>424.8</ele>
        <time>2019-04-15T11:00:42Z</time>
      </trkpt>
      <trkpt lat="44.34575" lon="5.28283">
        <ele>425.2</ele>
        <time>2019-04-15T11:00:46Z</time>
      </trkpt>
      <trkpt lat="44.34551" lon="5.28284">
        <ele>426.2</ele>
        <time>2019-04-15T11:00:50Z</time>
      </trkpt>
      <trkpt lat="44.34528" lon="5.28293">
        <ele>426.2</ele>
        <time>2019-04-15T11:00:54Z</time>
      </trkpt>
      <trkpt lat="44.34506" lon="5.283">
        <ele>427</ele>
        <time>2019-04-15T11:00:58Z</time>
      </trkpt>
      <trkpt lat="44.34485" lon="5.28311">
        <ele>427.8</ele>
        <time>2019-04-15T11:01:02Z</time>
      </trkpt>
      <trkpt lat="44.34476" lon="5.28324">
        <ele>427.8</ele>
        <time>2019-04-15T11:01:06Z</time>
      </trkpt>
      <trkpt lat="44.34471" lon="5.28337">
        <ele>428</ele>
        <time>2019-04-15T11:01:10Z</time>
      </trkpt>
      <trkpt lat="44.34466" lon="5.2835">
        <ele>427.8</ele>
        <time>2019-04-15T11:01:14Z</time>
      </trkpt>
      <trkpt lat="44.34458" lon="5.28365">
        <ele>428.6</ele>
        <time>2019-04-15T11:01:18Z</time>
      </trkpt>
      <trkpt lat="44.34454" lon="5.28382">
        <ele>428.4</ele>
        <time>2019-04-15T11:01:22Z</time>
      </trkpt>
      <trkpt lat="44.34454" lon="5.28393">
        <ele>428</ele>
        <time>2019-04-15T11:01:26Z</time>
      </trkpt>
      <trkpt lat="44.34456" lon="5.28406">
        <ele>428.2</ele>
        <time>2019-04-15T11:01:30Z</time>
      </trkpt>
      <trkpt lat="44.34456" lon="5.28406">
        <ele>428.2</ele>
        <time>2019-04-15T11:01:34Z</time>
      </trkpt>
      <trkpt lat="44.34456" lon="5.28406">
        <ele>428.2</ele>
        <time>2019-04-15T11:01:38Z</time>
      </trkpt>
      <trkpt lat="44.34456" lon="5.28406">
        <ele>428.2</ele>
        <time>2019-04-15T11:01:42Z</time>
      </trkpt>
      <trkpt lat="44.34456" lon="5.28406">
        <ele>428.2</ele>
        <time>2019-04-15T11:01:46Z</time>
      </trkpt>
      <trkpt lat="44.34456" lon="5.28406">
        <ele>428.2</ele>
        <time>2019-04-15T11:01:50Z</time>
      </trkpt>
      <trkpt lat="44.34456" lon="5.28406">
        <ele>428.2</ele>
        <time>2019-04-15T11:01:54Z</time>
      </trkpt>
      <trkpt lat="44.34456" lon="5.28406">
        <ele>428.2</ele>
        <time>2019-04-15T11:01:58Z</time>
      </trkpt>
      <trkpt lat="44.34456" lon="5.28406">
        <ele>428.2</ele>
        <time>2019-04-15T11:02:02Z</time>
      </trkpt>
      <trkpt lat="44.34456" lon="5.28406">
        <ele>428.2</ele>
        <time>2019-04-15T11:02:06Z</time>
      </trkpt>
      <trkpt lat="44.34456" lon="5.28406">
        <ele>428.2</ele>
        <time>2019-04-15T11:02:10Z</time>
      </trkpt>
      <trkpt lat="44.34456" lon="5.28406">
        <ele>428.2</ele>
        <time>2019-04-15T11:02:14Z</time>
      </trkpt>
      <trkpt lat="44.34456" lon="5.28406">
        <ele>428.2</ele>
        <time>2019-04-15T11:02:18Z</time>
      </trkpt>
      <trkpt lat="44.34456" lon="5.28406">
        <ele>428.2</ele>
        <time>2019-04-15T11:02:22Z</time>
      </trkpt>
      <trkpt lat="44.34456" lon="5.28406">
        <ele>428.2</ele>
        <time>2019-04-15T11:02:26Z</time>
      </trkpt>
      <trkpt lat="44.34456" lon="5.28406">
        <ele>428.2</ele>
        <time>2019-04-15T11:02:30Z</time>
      </trkpt>
      <trkpt lat="44.34456" lon="5.28406">
        <ele>428.2</ele>
        <time>2019-04-15T11:02:34Z</time>
      </trkpt>
      <trkpt lat="44.34456" lon="5.28406">
        <ele>428.2</ele>
        <time>2019-04-15T11:02:38Z</time>
      </trkpt>
      <trkpt lat="44.34456" lon="5.28406">
        <ele>428.2</ele>
        <time>2019-04-15T11:02:42Z</time>
      </trkpt>
      <trkpt lat="44.34456" lon="5.28406">
        <ele>428.2</ele>
        <time>2019-04-15T11:02:46Z</time>
      </trkpt>
      <trkpt lat="44.34456" lon="5.28406">
        <ele>428.2</ele>
        <time>2019-04-15T11:02:50Z</time>
      </trkpt>
      <trkpt lat="44.34456" lon="5.28406">
        <ele>428.2</ele>
        <time>2019-04-15T11:02:54Z</time>
      </trkpt>
      <trkpt lat="44.34456" lon="5.28406">
        <ele>428.2</ele>
        <time>2019-04-15T11:02:58Z</time>
      </trkpt>
      <trkpt lat="44.34456" lon="5.28406">
        <ele>428.2</ele>
        <time>2019-04-15T11:03:02Z</time>
      </trkpt>
      <trkpt lat="44.34456" lon="5.28406">
        <ele>428.2</ele>
        <time>2019-04-15T11:03:06Z</time>
      </trkpt>
      <trkpt lat="44.34456" lon="5.28406">
        <ele>428.2</ele>
        <time>2019-04-15T11:03:10Z</time>
      </trkpt>
      <trkpt lat="44.34456" lon="5.28406">
        <ele>428.2</ele>
        <time>2019-04-15T11:03:14Z</time>
      </trkpt>
      <trkpt lat="44.34456" lon="5.28406">
        <ele>428.2</ele>
        <time>2019-04-15T11:03:18Z</time>
      </trkpt>
      <trkpt lat="44.34456" lon="5.28406">
        <ele>428.2</ele>
        <time>2019-04-15T11:03:22Z</time>
      </trkpt>
      <trkpt lat="44.34456" lon="5.28406">
        <ele>428.2</ele>
        <time>2019-04-15T11:03:26Z</time>
      </trkpt>
      <trkpt lat="44.34456" lon="5.28406">
        <ele>428.2</ele>
        <time>2019-04-15T11:03:30Z</time>
      </trkpt>
      <trkpt lat="44.34456" lon="5.28406">
        <ele>428.2</ele>
        <time>2019-04-15T11:03:34Z</time>
      </trkpt>
      <trkpt lat="44.34456" lon="5.28406">
        <ele>428.2</ele>
        <time>2019-04-15T11:03:38Z</time>
      </trkpt>
      <trkpt lat="44.34456" lon="5.28406">
        <ele>428.2</ele>
        <time>2019-04-15T11:03:42Z</time>
      </trkpt>
      <trkpt lat="44.34456" lon="5.28406">
        <ele>428.2</ele>
        <time>2019-04-15T11:03:46Z</time>
      </trkpt>
      <trkpt lat="44.34456" lon="5.28406">
        <ele>428.2</ele>
        <time>2019-04-15T11:03:50Z</time>
      </trkpt>
      <trkpt lat="44.34456" lon="5.28406">
        <ele>428.2</ele>
        <time>2019-04-15T11:03:54Z</time>
      </trkpt>
      <trkpt lat="44.34456" lon="5.28406">
        <ele>428.2</ele>
        <time>2019-04-15T11:03:58Z</time>
      </trkpt>
      <trkpt lat="44.34456" lon="5.28406">
        <ele>428.2</ele>
        <time>2019-04-15T11:04:02Z</time>
      </trkpt>
      <trkpt lat="44.34457" lon="5.28408">
        <ele>428.4</ele>
        <time>2019-04-15T11:04:06Z</time>
      </trkpt>
      <trkpt lat="44.34458" lon="5.28416">
        <ele>428.8</ele>
        <time>2019-04-15T11:04:10Z</time>
      </trkpt>
      <trkpt lat="44.34458" lon="5.28432">
        <ele>428.8</ele>
        <time>2019-04-15T11:04:14Z</time>
      </trkpt>
      <trkpt lat="44.34455" lon="5.28455">
        <ele>429.2</ele>
        <time>2019-04-15T11:04:18Z</time>
      </trkpt>
      <trkpt lat="44.3445" lon="5.28484">
        <ele>429.2</ele>
        <time>2019-04-15T11:04:22Z</time>
      </trkpt>
      <trkpt lat="44.34446" lon="5.28516">
        <ele>429.8</ele>
        <time>2019-04-15T11:04:26Z</time>
      </trkpt>
      <trkpt lat="44.34438" lon="5.28547">
        <ele>430.2</ele>
        <time>2019-04-15T11:04:30Z</time>
      </trkpt>
      <trkpt lat="44.34429" lon="5.28576">
        <ele>430.8</ele>
        <time>2019-04-15T11:04:34Z</time>
      </trkpt>
      <trkpt lat="44.34422" lon="5.28602">
        <ele>431.6</ele>
        <time>2019-04-15T11:04:38Z</time>
      </trkpt>
      <trkpt lat="44.34414" lon="5.2863">
        <ele>432.4</ele>
        <time>2019-04-15T11:04:42Z</time>
      </trkpt>
      <trkpt lat="44.34406" lon="5.28658">
        <ele>432.8</ele>
        <time>2019-04-15T11:04:46Z</time>
      </trkpt>
      <trkpt lat="44.34398" lon="5.28684">
        <ele>434.2</ele>
        <time>2019-04-15T11:04:50Z</time>
      </trkpt>
      <trkpt lat="44.34391" lon="5.28712">
        <ele>435</ele>
        <time>2019-04-15T11:04:54Z</time>
      </trkpt>
      <trkpt lat="44.34386" lon="5.28739">
        <ele>435.8</ele>
        <time>2019-04-15T11:04:58Z</time>
      </trkpt>
      <trkpt lat="44.3438" lon="5.28766">
        <ele>436.4</ele>
        <time>2019-04-15T11:05:02Z</time>
      </trkpt>
      <trkpt lat="44.34372" lon="5.28794">
        <ele>437.2</ele>
        <time>2019-04-15T11:05:06Z</time>
      </trkpt>
      <trkpt lat="44.34367" lon="5.28823">
        <ele>437.4</ele>
        <time>2019-04-15T11:05:10Z</time>
      </trkpt>
      <trkpt lat="44.34361" lon="5.28851">
        <ele>438.8</ele>
        <time>2019-04-15T11:05:14Z</time>
      </trkpt>
      <trkpt lat="44.34354" lon="5.28877">
        <ele>439.6</ele>
        <time>2019-04-15T11:05:18Z</time>
      </trkpt>
      <trkpt lat="44.34347" lon="5.28902">
        <ele>440.4</ele>
        <time>2019-04-15T11:05:22Z</time>
      </trkpt>
      <trkpt lat="44.34342" lon="5.28925">
        <ele>441.8</ele>
        <time>2019-04-15T11:05:26Z</time>
      </trkpt>
      <trkpt lat="44.34336" lon="5.28951">
        <ele>442.2</ele>
        <time>2019-04-15T11:05:30Z</time>
      </trkpt>
      <trkpt lat="44.34332" lon="5.2898">
        <ele>443.2</ele>
        <time>2019-04-15T11:05:34Z</time>
      </trkpt>
      <trkpt lat="44.34328" lon="5.29008">
        <ele>443.8</ele>
        <time>2019-04-15T11:05:38Z</time>
      </trkpt>
      <trkpt lat="44.34325" lon="5.29037">
        <ele>443.8</ele>
        <time>2019-04-15T11:05:42Z</time>
      </trkpt>
      <trkpt lat="44.34321" lon="5.29065">
        <ele>444.6</ele>
        <time>2019-04-15T11:05:46Z</time>
      </trkpt>
      <trkpt lat="44.34316" lon="5.29094">
        <ele>445.6</ele>
        <time>2019-04-15T11:05:50Z</time>
      </trkpt>
      <trkpt lat="44.34309" lon="5.29121">
        <ele>445.6</ele>
        <time>2019-04-15T11:05:54Z</time>
      </trkpt>
      <trkpt lat="44.34302" lon="5.29146">
        <ele>446.6</ele>
        <time>2019-04-15T11:05:58Z</time>
      </trkpt>
      <trkpt lat="44.34293" lon="5.2917">
        <ele>447.4</ele>
        <time>2019-04-15T11:06:02Z</time>
      </trkpt>
      <trkpt lat="44.34285" lon="5.29195">
        <ele>448.8</ele>
        <time>2019-04-15T11:06:06Z</time>
      </trkpt>
      <trkpt lat="44.34275" lon="5.29219">
        <ele>449.4</ele>
        <time>2019-04-15T11:06:10Z</time>
      </trkpt>
      <trkpt lat="44.34266" lon="5.29245">
        <ele>450.2</ele>
        <time>2019-04-15T11:06:14Z</time>
      </trkpt>
      <trkpt lat="44.34256" lon="5.2927">
        <ele>451.2</ele>
        <time>2019-04-15T11:06:18Z</time>
      </trkpt>
      <trkpt lat="44.34246" lon="5.29296">
        <ele>451.2</ele>
        <time>2019-04-15T11:06:22Z</time>
      </trkpt>
      <trkpt lat="44.34237" lon="5.29323">
        <ele>451.8</ele>
        <time>2019-04-15T11:06:26Z</time>
      </trkpt>
      <trkpt lat="44.34227" lon="5.2935">
        <ele>453</ele>
        <time>2019-04-15T11:06:30Z</time>
      </trkpt>
      <trkpt lat="44.34215" lon="5.29376">
        <ele>453</ele>
        <time>2019-04-15T11:06:34Z</time>
      </trkpt>
      <trkpt lat="44.34201" lon="5.29401">
        <ele>453.8</ele>
        <time>2019-04-15T11:06:38Z</time>
      </trkpt>
      <trkpt lat="44.34185" lon="5.29425">
        <ele>453.4</ele>
        <time>2019-04-15T11:06:42Z</time>
      </trkpt>
      <trkpt lat="44.34167" lon="5.29451">
        <ele>452.6</ele>
        <time>2019-04-15T11:06:46Z</time>
      </trkpt>
      <trkpt lat="44.34148" lon="5.2948">
        <ele>451.8</ele>
        <time>2019-04-15T11:06:50Z</time>
      </trkpt>
      <trkpt lat="44.34126" lon="5.29508">
        <ele>451.2</ele>
        <time>2019-04-15T11:06:54Z</time>
      </trkpt>
      <trkpt lat="44.34102" lon="5.29537">
        <ele>450.2</ele>
        <time>2019-04-15T11:06:58Z</time>
      </trkpt>
      <trkpt lat="44.34077" lon="5.29566">
        <ele>449.4</ele>
        <time>2019-04-15T11:07:02Z</time>
      </trkpt>
      <trkpt lat="44.34053" lon="5.29593">
        <ele>449</ele>
        <time>2019-04-15T11:07:06Z</time>
      </trkpt>
      <trkpt lat="44.34029" lon="5.2962">
        <ele>449.2</ele>
        <time>2019-04-15T11:07:10Z</time>
      </trkpt>
      <trkpt lat="44.34006" lon="5.29647">
        <ele>449.8</ele>
        <time>2019-04-15T11:07:14Z</time>
      </trkpt>
      <trkpt lat="44.33986" lon="5.29671">
        <ele>449.6</ele>
        <time>2019-04-15T11:07:18Z</time>
      </trkpt>
      <trkpt lat="44.33966" lon="5.29694">
        <ele>450.4</ele>
        <time>2019-04-15T11:07:22Z</time>
      </trkpt>
      <trkpt lat="44.33946" lon="5.29716">
        <ele>451.2</ele>
        <time>2019-04-15T11:07:26Z</time>
      </trkpt>
      <trkpt lat="44.33927" lon="5.29737">
        <ele>451.8</ele>
        <time>2019-04-15T11:07:30Z</time>
      </trkpt>
      <trkpt lat="44.33909" lon="5.29758">
        <ele>451.8</ele>
        <time>2019-04-15T11:07:34Z</time>
      </trkpt>
      <trkpt lat="44.33889" lon="5.29779">
        <ele>453</ele>
        <time>2019-04-15T11:07:38Z</time>
      </trkpt>
      <trkpt lat="44.3387" lon="5.29802">
        <ele>452.6</ele>
        <time>2019-04-15T11:07:42Z</time>
      </trkpt>
      <trkpt lat="44.3385" lon="5.29825">
        <ele>452.2</ele>
        <time>2019-04-15T11:07:46Z</time>
      </trkpt>
      <trkpt lat="44.33829" lon="5.29849">
        <ele>452.4</ele>
        <time>2019-04-15T11:07:50Z</time>
      </trkpt>
      <trkpt lat="44.33808" lon="5.29871">
        <ele>453</ele>
        <time>2019-04-15T11:07:54Z</time>
      </trkpt>
      <trkpt lat="44.33785" lon="5.29892">
        <ele>452.4</ele>
        <time>2019-04-15T11:07:58Z</time>
      </trkpt>
      <trkpt lat="44.33763" lon="5.29915">
        <ele>452.4</ele>
        <time>2019-04-15T11:08:02Z</time>
      </trkpt>
      <trkpt lat="44.33743" lon="5.29938">
        <ele>452</ele>
        <time>2019-04-15T11:08:06Z</time>
      </trkpt>
      <trkpt lat="44.33724" lon="5.29965">
        <ele>451.8</ele>
        <time>2019-04-15T11:08:10Z</time>
      </trkpt>
      <trkpt lat="44.33706" lon="5.29993">
        <ele>452.4</ele>
        <time>2019-04-15T11:08:14Z</time>
      </trkpt>
      <trkpt lat="44.33689" lon="5.30022">
        <ele>452.4</ele>
        <time>2019-04-15T11:08:18Z</time>
      </trkpt>
      <trkpt lat="44.33673" lon="5.3005">
        <ele>453.2</ele>
        <time>2019-04-15T11:08:22Z</time>
      </trkpt>
      <trkpt lat="44.33659" lon="5.30076">
        <ele>454.4</ele>
        <time>2019-04-15T11:08:26Z</time>
      </trkpt>
      <trkpt lat="44.33643" lon="5.30102">
        <ele>455.4</ele>
        <time>2019-04-15T11:08:30Z</time>
      </trkpt>
      <trkpt lat="44.33627" lon="5.30131">
        <ele>454</ele>
        <time>2019-04-15T11:08:34Z</time>
      </trkpt>
      <trkpt lat="44.3361" lon="5.30159">
        <ele>454.4</ele>
        <time>2019-04-15T11:08:38Z</time>
      </trkpt>
      <trkpt lat="44.33594" lon="5.30188">
        <ele>454.6</ele>
        <time>2019-04-15T11:08:42Z</time>
      </trkpt>
      <trkpt lat="44.33579" lon="5.30216">
        <ele>454.8</ele>
        <time>2019-04-15T11:08:46Z</time>
      </trkpt>
      <trkpt lat="44.33563" lon="5.30242">
        <ele>455.8</ele>
        <time>2019-04-15T11:08:50Z</time>
      </trkpt>
      <trkpt lat="44.33549" lon="5.30269">
        <ele>455.6</ele>
        <time>2019-04-15T11:08:54Z</time>
      </trkpt>
      <trkpt lat="44.33536" lon="5.30296">
        <ele>456.6</ele>
        <time>2019-04-15T11:08:58Z</time>
      </trkpt>
      <trkpt lat="44.33524" lon="5.30324">
        <ele>456.6</ele>
        <time>2019-04-15T11:09:02Z</time>
      </trkpt>
      <trkpt lat="44.33511" lon="5.30353">
        <ele>456.8</ele>
        <time>2019-04-15T11:09:06Z</time>
      </trkpt>
      <trkpt lat="44.33499" lon="5.30381">
        <ele>457.4</ele>
        <time>2019-04-15T11:09:10Z</time>
      </trkpt>
      <trkpt lat="44.33487" lon="5.30409">
        <ele>458.6</ele>
        <time>2019-04-15T11:09:14Z</time>
      </trkpt>
      <trkpt lat="44.33476" lon="5.30436">
        <ele>459.2</ele>
        <time>2019-04-15T11:09:18Z</time>
      </trkpt>
      <trkpt lat="44.33465" lon="5.30462">
        <ele>459.6</ele>
        <time>2019-04-15T11:09:22Z</time>
      </trkpt>
      <trkpt lat="44.33453" lon="5.3049">
        <ele>461.8</ele>
        <time>2019-04-15T11:09:26Z</time>
      </trkpt>
      <trkpt lat="44.33442" lon="5.30517">
        <ele>461</ele>
        <time>2019-04-15T11:09:30Z</time>
      </trkpt>
      <trkpt lat="44.3343" lon="5.30544">
        <ele>462.6</ele>
        <time>2019-04-15T11:09:34Z</time>
      </trkpt>
      <trkpt lat="44.3342" lon="5.30573">
        <ele>464.6</ele>
        <time>2019-04-15T11:09:38Z</time>
      </trkpt>
      <trkpt lat="44.33412" lon="5.30602">
        <ele>463.6</ele>
        <time>2019-04-15T11:09:42Z</time>
      </trkpt>
      <trkpt lat="44.33404" lon="5.30632">
        <ele>465</ele>
        <time>2019-04-15T11:09:46Z</time>
      </trkpt>
      <trkpt lat="44.33397" lon="5.30662">
        <ele>466.4</ele>
        <time>2019-04-15T11:09:50Z</time>
      </trkpt>
      <trkpt lat="44.33392" lon="5.30692">
        <ele>466.6</ele>
        <time>2019-04-15T11:09:54Z</time>
      </trkpt>
      <trkpt lat="44.33387" lon="5.30723">
        <ele>467.6</ele>
        <time>2019-04-15T11:09:58Z</time>
      </trkpt>
      <trkpt lat="44.33383" lon="5.30756">
        <ele>468.4</ele>
        <time>2019-04-15T11:10:02Z</time>
      </trkpt>
      <trkpt lat="44.3338" lon="5.30788">
        <ele>468.8</ele>
        <time>2019-04-15T11:10:06Z</time>
      </trkpt>
      <trkpt lat="44.33376" lon="5.30821">
        <ele>468.8</ele>
        <time>2019-04-15T11:10:10Z</time>
      </trkpt>
      <trkpt lat="44.33372" lon="5.30855">
        <ele>469.2</ele>
        <time>2019-04-15T11:10:14Z</time>
      </trkpt>
      <trkpt lat="44.33368" lon="5.30888">
        <ele>469.6</ele>
        <time>2019-04-15T11:10:18Z</time>
      </trkpt>
      <trkpt lat="44.33365" lon="5.30923">
        <ele>469.6</ele>
        <time>2019-04-15T11:10:22Z</time>
      </trkpt>
      <trkpt lat="44.33361" lon="5.30957">
        <ele>470.2</ele>
        <time>2019-04-15T11:10:26Z</time>
      </trkpt>
      <trkpt lat="44.33357" lon="5.30991">
        <ele>469.8</ele>
        <time>2019-04-15T11:10:30Z</time>
      </trkpt>
      <trkpt lat="44.33353" lon="5.31025">
        <ele>470</ele>
        <time>2019-04-15T11:10:34Z</time>
      </trkpt>
      <trkpt lat="44.33349" lon="5.31061">
        <ele>470</ele>
        <time>2019-04-15T11:10:38Z</time>
      </trkpt>
      <trkpt lat="44.33345" lon="5.31097">
        <ele>470</ele>
        <time>2019-04-15T11:10:42Z</time>
      </trkpt>
      <trkpt lat="44.33341" lon="5.31135">
        <ele>469.2</ele>
        <time>2019-04-15T11:10:46Z</time>
      </trkpt>
      <trkpt lat="44.3334" lon="5.31174">
        <ele>469.2</ele>
        <time>2019-04-15T11:10:50Z</time>
      </trkpt>
      <trkpt lat="44.33342" lon="5.31213">
        <ele>469.4</ele>
        <time>2019-04-15T11:10:54Z</time>
      </trkpt>
      <trkpt lat="44.33346" lon="5.31252">
        <ele>469.8</ele>
        <time>2019-04-15T11:10:58Z</time>
      </trkpt>
      <trkpt lat="44.33349" lon="5.3129">
        <ele>469.6</ele>
        <time>2019-04-15T11:11:02Z</time>
      </trkpt>
      <trkpt lat="44.33353" lon="5.31328">
        <ele>469.8</ele>
        <time>2019-04-15T11:11:06Z</time>
      </trkpt>
      <trkpt lat="44.33356" lon="5.31365">
        <ele>470.2</ele>
        <time>2019-04-15T11:11:10Z</time>
      </trkpt>
      <trkpt lat="44.33358" lon="5.314">
        <ele>471</ele>
        <time>2019-04-15T11:11:14Z</time>
      </trkpt>
      <trkpt lat="44.33359" lon="5.31434">
        <ele>471.6</ele>
        <time>2019-04-15T11:11:18Z</time>
      </trkpt>
      <trkpt lat="44.33356" lon="5.31469">
        <ele>471.8</ele>
        <time>2019-04-15T11:11:22Z</time>
      </trkpt>
      <trkpt lat="44.33351" lon="5.31504">
        <ele>472</ele>
        <time>2019-04-15T11:11:26Z</time>
      </trkpt>
      <trkpt lat="44.33345" lon="5.3154">
        <ele>472.2</ele>
        <time>2019-04-15T11:11:30Z</time>
      </trkpt>
      <trkpt lat="44.33339" lon="5.31575">
        <ele>472.6</ele>
        <time>2019-04-15T11:11:34Z</time>
      </trkpt>
      <trkpt lat="44.33333" lon="5.31607">
        <ele>473.2</ele>
        <time>2019-04-15T11:11:38Z</time>
      </trkpt>
      <trkpt lat="44.33329" lon="5.31637">
        <ele>474</ele>
        <time>2019-04-15T11:11:42Z</time>
      </trkpt>
      <trkpt lat="44.33325" lon="5.31667">
        <ele>474.8</ele>
        <time>2019-04-15T11:11:46Z</time>
      </trkpt>
      <trkpt lat="44.33323" lon="5.31697">
        <ele>475.4</ele>
        <time>2019-04-15T11:11:50Z</time>
      </trkpt>
      <trkpt lat="44.33321" lon="5.31727">
        <ele>475.6</ele>
        <time>2019-04-15T11:11:54Z</time>
      </trkpt>
      <trkpt lat="44.33319" lon="5.31758">
        <ele>476.4</ele>
        <time>2019-04-15T11:11:58Z</time>
      </trkpt>
      <trkpt lat="44.33317" lon="5.31789">
        <ele>476.8</ele>
        <time>2019-04-15T11:12:02Z</time>
      </trkpt>
      <trkpt lat="44.33314" lon="5.3182">
        <ele>477.2</ele>
        <time>2019-04-15T11:12:06Z</time>
      </trkpt>
      <trkpt lat="44.33311" lon="5.31851">
        <ele>478</ele>
        <time>2019-04-15T11:12:10Z</time>
      </trkpt>
      <trkpt lat="44.33308" lon="5.31882">
        <ele>478.8</ele>
        <time>2019-04-15T11:12:14Z</time>
      </trkpt>
      <trkpt lat="44.33306" lon="5.31913">
        <ele>479.8</ele>
        <time>2019-04-15T11:12:18Z</time>
      </trkpt>
      <trkpt lat="44.33302" lon="5.31942">
        <ele>481</ele>
        <time>2019-04-15T11:12:22Z</time>
      </trkpt>
      <trkpt lat="44.33297" lon="5.3197">
        <ele>482</ele>
        <time>2019-04-15T11:12:26Z</time>
      </trkpt>
      <trkpt lat="44.33292" lon="5.31997">
        <ele>482.6</ele>
        <time>2019-04-15T11:12:30Z</time>
      </trkpt>
      <trkpt lat="44.33287" lon="5.32026">
        <ele>482.8</ele>
        <time>2019-04-15T11:12:34Z</time>
      </trkpt>
      <trkpt lat="44.33281" lon="5.32053">
        <ele>484.2</ele>
        <time>2019-04-15T11:12:38Z</time>
      </trkpt>
      <trkpt lat="44.33276" lon="5.32081">
        <ele>484.8</ele>
        <time>2019-04-15T11:12:42Z</time>
      </trkpt>
      <trkpt lat="44.33271" lon="5.32108">
        <ele>485.4</ele>
        <time>2019-04-15T11:12:46Z</time>
      </trkpt>
      <trkpt lat="44.33266" lon="5.32135">
        <ele>486</ele>
        <time>2019-04-15T11:12:50Z</time>
      </trkpt>
      <trkpt lat="44.33261" lon="5.32163">
        <ele>487.2</ele>
        <time>2019-04-15T11:12:54Z</time>
      </trkpt>
      <trkpt lat="44.33256" lon="5.3219">
        <ele>487.4</ele>
        <time>2019-04-15T11:12:58Z</time>
      </trkpt>
      <trkpt lat="44.3325" lon="5.32218">
        <ele>488.4</ele>
        <time>2019-04-15T11:13:02Z</time>
      </trkpt>
      <trkpt lat="44.33245" lon="5.32246">
        <ele>489</ele>
        <time>2019-04-15T11:13:06Z</time>
      </trkpt>
      <trkpt lat="44.3324" lon="5.32273">
        <ele>489.8</ele>
        <time>2019-04-15T11:13:10Z</time>
      </trkpt>
      <trkpt lat="44.33236" lon="5.32301">
        <ele>490.8</ele>
        <time>2019-04-15T11:13:14Z</time>
      </trkpt>
      <trkpt lat="44.3323" lon="5.32329">
        <ele>491.6</ele>
        <time>2019-04-15T11:13:18Z</time>
      </trkpt>
      <trkpt lat="44.33226" lon="5.32358">
        <ele>492</ele>
        <time>2019-04-15T11:13:22Z</time>
      </trkpt>
      <trkpt lat="44.33222" lon="5.32387">
        <ele>492.4</ele>
        <time>2019-04-15T11:13:26Z</time>
      </trkpt>
      <trkpt lat="44.33217" lon="5.32417">
        <ele>492.6</ele>
        <time>2019-04-15T11:13:30Z</time>
      </trkpt>
      <trkpt lat="44.33209" lon="5.32445">
        <ele>493.8</ele>
        <time>2019-04-15T11:13:34Z</time>
      </trkpt>
      <trkpt lat="44.332" lon="5.32471">
        <ele>494.2</ele>
        <time>2019-04-15T11:13:38Z</time>
      </trkpt>
      <trkpt lat="44.33193" lon="5.32495">
        <ele>494.6</ele>
        <time>2019-04-15T11:13:42Z</time>
      </trkpt>
      <trkpt lat="44.33186" lon="5.32521">
        <ele>495.4</ele>
        <time>2019-04-15T11:13:46Z</time>
      </trkpt>
      <trkpt lat="44.33181" lon="5.32548">
        <ele>496.2</ele>
        <time>2019-04-15T11:13:50Z</time>
      </trkpt>
      <trkpt lat="44.33175" lon="5.32575">
        <ele>496.2</ele>
        <time>2019-04-15T11:13:54Z</time>
      </trkpt>
      <trkpt lat="44.33169" lon="5.32602">
        <ele>497.2</ele>
        <time>2019-04-15T11:13:58Z</time>
      </trkpt>
      <trkpt lat="44.33164" lon="5.3263">
        <ele>498.4</ele>
        <time>2019-04-15T11:14:02Z</time>
      </trkpt>
      <trkpt lat="44.33158" lon="5.32657">
        <ele>498.6</ele>
        <time>2019-04-15T11:14:06Z</time>
      </trkpt>
      <trkpt lat="44.33153" lon="5.32684">
        <ele>499.4</ele>
        <time>2019-04-15T11:14:10Z</time>
      </trkpt>
      <trkpt lat="44.33146" lon="5.3271">
        <ele>500</ele>
        <time>2019-04-15T11:14:14Z</time>
      </trkpt>
      <trkpt lat="44.3314" lon="5.32736">
        <ele>500.2</ele>
        <time>2019-04-15T11:14:18Z</time>
      </trkpt>
      <trkpt lat="44.33134" lon="5.32763">
        <ele>501.4</ele>
        <time>2019-04-15T11:14:22Z</time>
      </trkpt>
      <trkpt lat="44.33129" lon="5.3279">
        <ele>501.8</ele>
        <time>2019-04-15T11:14:26Z</time>
      </trkpt>
      <trkpt lat="44.33124" lon="5.32817">
        <ele>502.6</ele>
        <time>2019-04-15T11:14:30Z</time>
      </trkpt>
      <trkpt lat="44.33122" lon="5.32845">
        <ele>503.6</ele>
        <time>2019-04-15T11:14:34Z</time>
      </trkpt>
      <trkpt lat="44.33122" lon="5.32872">
        <ele>504.4</ele>
        <time>2019-04-15T11:14:38Z</time>
      </trkpt>
      <trkpt lat="44.33122" lon="5.32898">
        <ele>505.2</ele>
        <time>2019-04-15T11:14:42Z</time>
      </trkpt>
      <trkpt lat="44.3312" lon="5.32925">
        <ele>505.8</ele>
        <time>2019-04-15T11:14:46Z</time>
      </trkpt>
      <trkpt lat="44.33115" lon="5.32952">
        <ele>506</ele>
        <time>2019-04-15T11:14:50Z</time>
      </trkpt>
      <trkpt lat="44.33109" lon="5.3298">
        <ele>506.8</ele>
        <time>2019-04-15T11:14:54Z</time>
      </trkpt>
      <trkpt lat="44.33104" lon="5.33008">
        <ele>507</ele>
        <time>2019-04-15T11:14:58Z</time>
      </trkpt>
      <trkpt lat="44.33101" lon="5.33036">
        <ele>507.8</ele>
        <time>2019-04-15T11:15:02Z</time>
      </trkpt>
      <trkpt lat="44.33104" lon="5.33067">
        <ele>508</ele>
        <time>2019-04-15T11:15:06Z</time>
      </trkpt>
      <trkpt lat="44.33109" lon="5.33098">
        <ele>508.6</ele>
        <time>2019-04-15T11:15:10Z</time>
      </trkpt>
      <trkpt lat="44.33115" lon="5.33129">
        <ele>508.6</ele>
        <time>2019-04-15T11:15:14Z</time>
      </trkpt>
      <trkpt lat="44.33121" lon="5.33161">
        <ele>508.8</ele>
        <time>2019-04-15T11:15:18Z</time>
      </trkpt>
      <trkpt lat="44.33125" lon="5.33194">
        <ele>508.6</ele>
        <time>2019-04-15T11:15:22Z</time>
      </trkpt>
      <trkpt lat="44.33127" lon="5.33228">
        <ele>509.2</ele>
        <time>2019-04-15T11:15:26Z</time>
      </trkpt>
      <trkpt lat="44.33128" lon="5.33263">
        <ele>508.8</ele>
        <time>2019-04-15T11:15:30Z</time>
      </trkpt>
      <trkpt lat="44.33125" lon="5.33301">
        <ele>509.2</ele>
        <time>2019-04-15T11:15:34Z</time>
      </trkpt>
      <trkpt lat="44.33119" lon="5.33339">
        <ele>509.2</ele>
        <time>2019-04-15T11:15:38Z</time>
      </trkpt>
      <trkpt lat="44.33113" lon="5.33376">
        <ele>509.8</ele>
        <time>2019-04-15T11:15:42Z</time>
      </trkpt>
      <trkpt lat="44.33106" lon="5.33414">
        <ele>509.4</ele>
        <time>2019-04-15T11:15:46Z</time>
      </trkpt>
      <trkpt lat="44.33099" lon="5.3345">
        <ele>509.6</ele>
        <time>2019-04-15T11:15:50Z</time>
      </trkpt>
      <trkpt lat="44.33093" lon="5.33486">
        <ele>509.8</ele>
        <time>2019-04-15T11:15:54Z</time>
      </trkpt>
      <trkpt lat="44.33086" lon="5.33523">
        <ele>510</ele>
        <time>2019-04-15T11:15:58Z</time>
      </trkpt>
      <trkpt lat="44.3308" lon="5.3356">
        <ele>510</ele>
        <time>2019-04-15T11:16:02Z</time>
      </trkpt>
      <trkpt lat="44.33074" lon="5.33598">
        <ele>510.2</ele>
        <time>2019-04-15T11:16:06Z</time>
      </trkpt>
      <trkpt lat="44.33074" lon="5.33636">
        <ele>510.4</ele>
        <time>2019-04-15T11:16:10Z</time>
      </trkpt>
      <trkpt lat="44.33079" lon="5.33674">
        <ele>510.8</ele>
        <time>2019-04-15T11:16:14Z</time>
      </trkpt>
      <trkpt lat="44.33084" lon="5.33711">
        <ele>510.4</ele>
        <time>2019-04-15T11:16:18Z</time>
      </trkpt>
      <trkpt lat="44.33085" lon="5.33749">
        <ele>510.6</ele>
        <time>2019-04-15T11:16:22Z</time>
      </trkpt>
      <trkpt lat="44.33086" lon="5.33788">
        <ele>510.6</ele>
        <time>2019-04-15T11:16:26Z</time>
      </trkpt>
      <trkpt lat="44.33086" lon="5.33829">
        <ele>510</ele>
        <time>2019-04-15T11:16:30Z</time>
      </trkpt>
      <trkpt lat="44.33086" lon="5.33869">
        <ele>510.2</ele>
        <time>2019-04-15T11:16:34Z</time>
      </trkpt>
      <trkpt lat="44.33086" lon="5.33909">
        <ele>510.4</ele>
        <time>2019-04-15T11:16:38Z</time>
      </trkpt>
      <trkpt lat="44.33086" lon="5.33946">
        <ele>510.8</ele>
        <time>2019-04-15T11:16:42Z</time>
      </trkpt>
      <trkpt lat="44.33086" lon="5.33982">
        <ele>511.2</ele>
        <time>2019-04-15T11:16:46Z</time>
      </trkpt>
      <trkpt lat="44.33086" lon="5.34018">
        <ele>511.8</ele>
        <time>2019-04-15T11:16:50Z</time>
      </trkpt>
      <trkpt lat="44.33087" lon="5.34052">
        <ele>512.6</ele>
        <time>2019-04-15T11:16:54Z</time>
      </trkpt>
      <trkpt lat="44.33089" lon="5.34086">
        <ele>513</ele>
        <time>2019-04-15T11:16:58Z</time>
      </trkpt>
      <trkpt lat="44.33093" lon="5.34119">
        <ele>514.4</ele>
        <time>2019-04-15T11:17:02Z</time>
      </trkpt>
      <trkpt lat="44.33101" lon="5.3415">
        <ele>514.6</ele>
        <time>2019-04-15T11:17:06Z</time>
      </trkpt>
      <trkpt lat="44.33112" lon="5.34179">
        <ele>515.2</ele>
        <time>2019-04-15T11:17:10Z</time>
      </trkpt>
      <trkpt lat="44.33124" lon="5.34207">
        <ele>516.8</ele>
        <time>2019-04-15T11:17:14Z</time>
      </trkpt>
      <trkpt lat="44.33135" lon="5.34236">
        <ele>516.8</ele>
        <time>2019-04-15T11:17:18Z</time>
      </trkpt>
      <trkpt lat="44.33146" lon="5.34265">
        <ele>517.8</ele>
        <time>2019-04-15T11:17:22Z</time>
      </trkpt>
      <trkpt lat="44.33155" lon="5.34294">
        <ele>518.8</ele>
        <time>2019-04-15T11:17:26Z</time>
      </trkpt>
      <trkpt lat="44.33165" lon="5.34323">
        <ele>519</ele>
        <time>2019-04-15T11:17:30Z</time>
      </trkpt>
      <trkpt lat="44.33176" lon="5.34351">
        <ele>519.6</ele>
        <time>2019-04-15T11:17:34Z</time>
      </trkpt>
      <trkpt lat="44.33189" lon="5.34379">
        <ele>520.2</ele>
        <time>2019-04-15T11:17:38Z</time>
      </trkpt>
      <trkpt lat="44.33206" lon="5.34405">
        <ele>519.8</ele>
        <time>2019-04-15T11:17:42Z</time>
      </trkpt>
      <trkpt lat="44.33221" lon="5.34433">
        <ele>519.8</ele>
        <time>2019-04-15T11:17:46Z</time>
      </trkpt>
      <trkpt lat="44.33232" lon="5.34466">
        <ele>520.4</ele>
        <time>2019-04-15T11:17:50Z</time>
      </trkpt>
      <trkpt lat="44.33239" lon="5.34501">
        <ele>520.2</ele>
        <time>2019-04-15T11:17:54Z</time>
      </trkpt>
      <trkpt lat="44.33244" lon="5.34537">
        <ele>520</ele>
        <time>2019-04-15T11:17:58Z</time>
      </trkpt>
      <trkpt lat="44.33246" lon="5.34574">
        <ele>520.6</ele>
        <time>2019-04-15T11:18:02Z</time>
      </trkpt>
      <trkpt lat="44.33242" lon="5.34608">
        <ele>522</ele>
        <time>2019-04-15T11:18:06Z</time>
      </trkpt>
      <trkpt lat="44.33236" lon="5.34638">
        <ele>522.8</ele>
        <time>2019-04-15T11:18:10Z</time>
      </trkpt>
      <trkpt lat="44.33228" lon="5.34668">
        <ele>523.2</ele>
        <time>2019-04-15T11:18:14Z</time>
      </trkpt>
      <trkpt lat="44.33224" lon="5.34701">
        <ele>524</ele>
        <time>2019-04-15T11:18:18Z</time>
      </trkpt>
      <trkpt lat="44.33226" lon="5.34734">
        <ele>524.6</ele>
        <time>2019-04-15T11:18:22Z</time>
      </trkpt>
      <trkpt lat="44.33232" lon="5.34766">
        <ele>525.6</ele>
        <time>2019-04-15T11:18:26Z</time>
      </trkpt>
      <trkpt lat="44.33237" lon="5.34795">
        <ele>527.4</ele>
        <time>2019-04-15T11:18:30Z</time>
      </trkpt>
      <trkpt lat="44.33242" lon="5.34822">
        <ele>528.4</ele>
        <time>2019-04-15T11:18:34Z</time>
      </trkpt>
      <trkpt lat="44.33247" lon="5.34849">
        <ele>528.8</ele>
        <time>2019-04-15T11:18:38Z</time>
      </trkpt>
      <trkpt lat="44.33252" lon="5.34876">
        <ele>530</ele>
        <time>2019-04-15T11:18:42Z</time>
      </trkpt>
      <trkpt lat="44.33257" lon="5.34902">
        <ele>530.6</ele>
        <time>2019-04-15T11:18:46Z</time>
      </trkpt>
      <trkpt lat="44.33262" lon="5.34928">
        <ele>532</ele>
        <time>2019-04-15T11:18:50Z</time>
      </trkpt>
      <trkpt lat="44.33267" lon="5.34954">
        <ele>532.8</ele>
        <time>2019-04-15T11:18:54Z</time>
      </trkpt>
      <trkpt lat="44.33272" lon="5.34979">
        <ele>534</ele>
        <time>2019-04-15T11:18:58Z</time>
      </trkpt>
      <trkpt lat="44.33276" lon="5.35001">
        <ele>535.4</ele>
        <time>2019-04-15T11:19:02Z</time>
      </trkpt>
      <trkpt lat="44.33281" lon="5.35024">
        <ele>536</ele>
        <time>2019-04-15T11:19:06Z</time>
      </trkpt>
      <trkpt lat="44.33285" lon="5.35046">
        <ele>536.8</ele>
        <time>2019-04-15T11:19:10Z</time>
      </trkpt>
      <trkpt lat="44.33289" lon="5.35068">
        <ele>537.6</ele>
        <time>2019-04-15T11:19:14Z</time>
      </trkpt>
      <trkpt lat="44.33292" lon="5.3509">
        <ele>538.6</ele>
        <time>2019-04-15T11:19:18Z</time>
      </trkpt>
      <trkpt lat="44.33295" lon="5.35112">
        <ele>539.4</ele>
        <time>2019-04-15T11:19:22Z</time>
      </trkpt>
      <trkpt lat="44.33296" lon="5.35135">
        <ele>540.2</ele>
        <time>2019-04-15T11:19:26Z</time>
      </trkpt>
      <trkpt lat="44.33294" lon="5.35158">
        <ele>541</ele>
        <time>2019-04-15T11:19:30Z</time>
      </trkpt>
      <trkpt lat="44.33291" lon="5.35181">
        <ele>542.2</ele>
        <time>2019-04-15T11:19:34Z</time>
      </trkpt>
      <trkpt lat="44.33288" lon="5.35204">
        <ele>542.8</ele>
        <time>2019-04-15T11:19:38Z</time>
      </trkpt>
      <trkpt lat="44.33286" lon="5.35228">
        <ele>543.8</ele>
        <time>2019-04-15T11:19:42Z</time>
      </trkpt>
      <trkpt lat="44.33285" lon="5.3525">
        <ele>544.6</ele>
        <time>2019-04-15T11:19:46Z</time>
      </trkpt>
      <trkpt lat="44.33287" lon="5.35273">
        <ele>545.4</ele>
        <time>2019-04-15T11:19:50Z</time>
      </trkpt>
      <trkpt lat="44.3329" lon="5.35296">
        <ele>546.6</ele>
        <time>2019-04-15T11:19:54Z</time>
      </trkpt>
      <trkpt lat="44.33291" lon="5.35318">
        <ele>547.6</ele>
        <time>2019-04-15T11:19:58Z</time>
      </trkpt>
      <trkpt lat="44.33289" lon="5.35339">
        <ele>549.4</ele>
        <time>2019-04-15T11:20:02Z</time>
      </trkpt>
      <trkpt lat="44.33283" lon="5.35361">
        <ele>550.8</ele>
        <time>2019-04-15T11:20:06Z</time>
      </trkpt>
      <trkpt lat="44.33278" lon="5.35385">
        <ele>550.8</ele>
        <time>2019-04-15T11:20:10Z</time>
      </trkpt>
      <trkpt lat="44.33273" lon="5.35409">
        <ele>551.4</ele>
        <time>2019-04-15T11:20:14Z</time>
      </trkpt>
      <trkpt lat="44.33269" lon="5.35433">
        <ele>551.8</ele>
        <time>2019-04-15T11:20:18Z</time>
      </trkpt>
      <trkpt lat="44.33267" lon="5.35456">
        <ele>553</ele>
        <time>2019-04-15T11:20:22Z</time>
      </trkpt>
      <trkpt lat="44.33263" lon="5.35479">
        <ele>553.4</ele>
        <time>2019-04-15T11:20:26Z</time>
      </trkpt>
      <trkpt lat="44.33256" lon="5.35501">
        <ele>554</ele>
        <time>2019-04-15T11:20:30Z</time>
      </trkpt>
      <trkpt lat="44.3325" lon="5.35522">
        <ele>555.4</ele>
        <time>2019-04-15T11:20:34Z</time>
      </trkpt>
      <trkpt lat="44.33247" lon="5.35546">
        <ele>556.2</ele>
        <time>2019-04-15T11:20:38Z</time>
      </trkpt>
      <trkpt lat="44.33249" lon="5.35569">
        <ele>556.8</ele>
        <time>2019-04-15T11:20:42Z</time>
      </trkpt>
      <trkpt lat="44.33255" lon="5.35591">
        <ele>558</ele>
        <time>2019-04-15T11:20:46Z</time>
      </trkpt>
      <trkpt lat="44.3326" lon="5.35613">
        <ele>559.2</ele>
        <time>2019-04-15T11:20:50Z</time>
      </trkpt>
      <trkpt lat="44.33266" lon="5.35635">
        <ele>560.2</ele>
        <time>2019-04-15T11:20:54Z</time>
      </trkpt>
      <trkpt lat="44.33268" lon="5.35658">
        <ele>560.6</ele>
        <time>2019-04-15T11:20:58Z</time>
      </trkpt>
      <trkpt lat="44.33271" lon="5.35681">
        <ele>561.2</ele>
        <time>2019-04-15T11:21:02Z</time>
      </trkpt>
      <trkpt lat="44.33275" lon="5.35705">
        <ele>561.8</ele>
        <time>2019-04-15T11:21:06Z</time>
      </trkpt>
      <trkpt lat="44.33283" lon="5.35729">
        <ele>561.8</ele>
        <time>2019-04-15T11:21:10Z</time>
      </trkpt>
      <trkpt lat="44.33291" lon="5.35754">
        <ele>562</ele>
        <time>2019-04-15T11:21:14Z</time>
      </trkpt>
      <trkpt lat="44.33298" lon="5.35781">
        <ele>562.6</ele>
        <time>2019-04-15T11:21:18Z</time>
      </trkpt>
      <trkpt lat="44.33302" lon="5.35808">
        <ele>563.2</ele>
        <time>2019-04-15T11:21:22Z</time>
      </trkpt>
      <trkpt lat="44.33307" lon="5.35834">
        <ele>563.6</ele>
        <time>2019-04-15T11:21:26Z</time>
      </trkpt>
      <trkpt lat="44.33311" lon="5.35859">
        <ele>564.4</ele>
        <time>2019-04-15T11:21:30Z</time>
      </trkpt>
      <trkpt lat="44.33317" lon="5.35884">
        <ele>564.6</ele>
        <time>2019-04-15T11:21:34Z</time>
      </trkpt>
      <trkpt lat="44.33321" lon="5.3591">
        <ele>565.4</ele>
        <time>2019-04-15T11:21:38Z</time>
      </trkpt>
      <trkpt lat="44.33325" lon="5.35936">
        <ele>566</ele>
        <time>2019-04-15T11:21:42Z</time>
      </trkpt>
      <trkpt lat="44.33328" lon="5.35964">
        <ele>566.6</ele>
        <time>2019-04-15T11:21:46Z</time>
      </trkpt>
      <trkpt lat="44.33329" lon="5.35992">
        <ele>567.2</ele>
        <time>2019-04-15T11:21:50Z</time>
      </trkpt>
      <trkpt lat="44.33329" lon="5.3602">
        <ele>568</ele>
        <time>2019-04-15T11:21:54Z</time>
      </trkpt>
      <trkpt lat="44.3333" lon="5.36048">
        <ele>568.6</ele>
        <time>2019-04-15T11:21:58Z</time>
      </trkpt>
      <trkpt lat="44.3333" lon="5.36076">
        <ele>569.2</ele>
        <time>2019-04-15T11:22:02Z</time>
      </trkpt>
      <trkpt lat="44.3333" lon="5.36104">
        <ele>570</ele>
        <time>2019-04-15T11:22:06Z</time>
      </trkpt>
      <trkpt lat="44.3333" lon="5.36133">
        <ele>570.2</ele>
        <time>2019-04-15T11:22:10Z</time>
      </trkpt>
      <trkpt lat="44.3333" lon="5.3616">
        <ele>571</ele>
        <time>2019-04-15T11:22:14Z</time>
      </trkpt>
      <trkpt lat="44.33333" lon="5.36186">
        <ele>571.4</ele>
        <time>2019-04-15T11:22:18Z</time>
      </trkpt>
      <trkpt lat="44.33342" lon="5.36213">
        <ele>571.6</ele>
        <time>2019-04-15T11:22:22Z</time>
      </trkpt>
      <trkpt lat="44.33351" lon="5.36243">
        <ele>571.8</ele>
        <time>2019-04-15T11:22:26Z</time>
      </trkpt>
      <trkpt lat="44.33352" lon="5.36275">
        <ele>572</ele>
        <time>2019-04-15T11:22:30Z</time>
      </trkpt>
      <trkpt lat="44.3335" lon="5.36305">
        <ele>572.8</ele>
        <time>2019-04-15T11:22:34Z</time>
      </trkpt>
      <trkpt lat="44.33347" lon="5.36335">
        <ele>573.4</ele>
        <time>2019-04-15T11:22:38Z</time>
      </trkpt>
      <trkpt lat="44.33344" lon="5.36365">
        <ele>573.4</ele>
        <time>2019-04-15T11:22:42Z</time>
      </trkpt>
      <trkpt lat="44.33342" lon="5.36396">
        <ele>574</ele>
        <time>2019-04-15T11:22:46Z</time>
      </trkpt>
      <trkpt lat="44.33339" lon="5.36427">
        <ele>574.6</ele>
        <time>2019-04-15T11:22:50Z</time>
      </trkpt>
      <trkpt lat="44.33336" lon="5.36458">
        <ele>574.8</ele>
        <time>2019-04-15T11:22:54Z</time>
      </trkpt>
      <trkpt lat="44.33333" lon="5.36489">
        <ele>575</ele>
        <time>2019-04-15T11:22:58Z</time>
      </trkpt>
      <trkpt lat="44.33331" lon="5.36519">
        <ele>575</ele>
        <time>2019-04-15T11:23:02Z</time>
      </trkpt>
      <trkpt lat="44.33328" lon="5.3655">
        <ele>575.6</ele>
        <time>2019-04-15T11:23:06Z</time>
      </trkpt>
      <trkpt lat="44.33325" lon="5.36583">
        <ele>575</ele>
        <time>2019-04-15T11:23:10Z</time>
      </trkpt>
      <trkpt lat="44.33322" lon="5.36618">
        <ele>575</ele>
        <time>2019-04-15T11:23:14Z</time>
      </trkpt>
      <trkpt lat="44.3331" lon="5.36648">
        <ele>575.8</ele>
        <time>2019-04-15T11:23:18Z</time>
      </trkpt>
      <trkpt lat="44.33289" lon="5.36661">
        <ele>576</ele>
        <time>2019-04-15T11:23:22Z</time>
      </trkpt>
      <trkpt lat="44.33269" lon="5.36672">
        <ele>576</ele>
        <time>2019-04-15T11:23:26Z</time>
      </trkpt>
      <trkpt lat="44.3325" lon="5.36689">
        <ele>576.6</ele>
        <time>2019-04-15T11:23:30Z</time>
      </trkpt>
      <trkpt lat="44.33233" lon="5.36706">
        <ele>577.8</ele>
        <time>2019-04-15T11:23:34Z</time>
      </trkpt>
      <trkpt lat="44.33217" lon="5.36719">
        <ele>578.6</ele>
        <time>2019-04-15T11:23:38Z</time>
      </trkpt>
      <trkpt lat="44.332" lon="5.3673">
        <ele>578.8</ele>
        <time>2019-04-15T11:23:42Z</time>
      </trkpt>
      <trkpt lat="44.33184" lon="5.36743">
        <ele>580.2</ele>
        <time>2019-04-15T11:23:46Z</time>
      </trkpt>
      <trkpt lat="44.33173" lon="5.36761">
        <ele>580.6</ele>
        <time>2019-04-15T11:23:50Z</time>
      </trkpt>
      <trkpt lat="44.33168" lon="5.36785">
        <ele>580.8</ele>
        <time>2019-04-15T11:23:54Z</time>
      </trkpt>
      <trkpt lat="44.33168" lon="5.36812">
        <ele>581.4</ele>
        <time>2019-04-15T11:23:58Z</time>
      </trkpt>
      <trkpt lat="44.33169" lon="5.36838">
        <ele>582</ele>
        <time>2019-04-15T11:24:02Z</time>
      </trkpt>
      <trkpt lat="44.33166" lon="5.36863">
        <ele>583.6</ele>
        <time>2019-04-15T11:24:06Z</time>
      </trkpt>
      <trkpt lat="44.3316" lon="5.36887">
        <ele>584.2</ele>
        <time>2019-04-15T11:24:10Z</time>
      </trkpt>
      <trkpt lat="44.33153" lon="5.3691">
        <ele>584.8</ele>
        <time>2019-04-15T11:24:14Z</time>
      </trkpt>
      <trkpt lat="44.33145" lon="5.36931">
        <ele>585.6</ele>
        <time>2019-04-15T11:24:18Z</time>
      </trkpt>
      <trkpt lat="44.33135" lon="5.36952">
        <ele>586.6</ele>
        <time>2019-04-15T11:24:22Z</time>
      </trkpt>
      <trkpt lat="44.33126" lon="5.36972">
        <ele>587.6</ele>
        <time>2019-04-15T11:24:26Z</time>
      </trkpt>
      <trkpt lat="44.33121" lon="5.36995">
        <ele>587.8</ele>
        <time>2019-04-15T11:24:30Z</time>
      </trkpt>
      <trkpt lat="44.3312" lon="5.3702">
        <ele>589</ele>
        <time>2019-04-15T11:24:34Z</time>
      </trkpt>
      <trkpt lat="44.33123" lon="5.37043">
        <ele>589.8</ele>
        <time>2019-04-15T11:24:38Z</time>
      </trkpt>
      <trkpt lat="44.33129" lon="5.37066">
        <ele>590.6</ele>
        <time>2019-04-15T11:24:42Z</time>
      </trkpt>
      <trkpt lat="44.33136" lon="5.37089">
        <ele>591.4</ele>
        <time>2019-04-15T11:24:46Z</time>
      </trkpt>
      <trkpt lat="44.33143" lon="5.37112">
        <ele>591.6</ele>
        <time>2019-04-15T11:24:50Z</time>
      </trkpt>
      <trkpt lat="44.33147" lon="5.37137">
        <ele>592.8</ele>
        <time>2019-04-15T11:24:54Z</time>
      </trkpt>
      <trkpt lat="44.3315" lon="5.37161">
        <ele>593.4</ele>
        <time>2019-04-15T11:24:58Z</time>
      </trkpt>
      <trkpt lat="44.33157" lon="5.37184">
        <ele>594</ele>
        <time>2019-04-15T11:25:02Z</time>
      </trkpt>
      <trkpt lat="44.33169" lon="5.37201">
        <ele>595</ele>
        <time>2019-04-15T11:25:06Z</time>
      </trkpt>
      <trkpt lat="44.33182" lon="5.37216">
        <ele>595.8</ele>
        <time>2019-04-15T11:25:10Z</time>
      </trkpt>
      <trkpt lat="44.33194" lon="5.37232">
        <ele>596.8</ele>
        <time>2019-04-15T11:25:14Z</time>
      </trkpt>
      <trkpt lat="44.33208" lon="5.37246">
        <ele>597.6</ele>
        <time>2019-04-15T11:25:18Z</time>
      </trkpt>
      <trkpt lat="44.33224" lon="5.37257">
        <ele>597.8</ele>
        <time>2019-04-15T11:25:22Z</time>
      </trkpt>
      <trkpt lat="44.3324" lon="5.37266">
        <ele>599</ele>
        <time>2019-04-15T11:25:26Z</time>
      </trkpt>
      <trkpt lat="44.33255" lon="5.37277">
        <ele>600</ele>
        <time>2019-04-15T11:25:30Z</time>
      </trkpt>
      <trkpt lat="44.33264" lon="5.37297">
        <ele>600.4</ele>
        <time>2019-04-15T11:25:34Z</time>
      </trkpt>
      <trkpt lat="44.33262" lon="5.37321">
        <ele>601</ele>
        <time>2019-04-15T11:25:38Z</time>
      </trkpt>
      <trkpt lat="44.3325" lon="5.37336">
        <ele>602.4</ele>
        <time>2019-04-15T11:25:42Z</time>
      </trkpt>
      <trkpt lat="44.3324" lon="5.37342">
        <ele>602.2</ele>
        <time>2019-04-15T11:25:46Z</time>
      </trkpt>
      <trkpt lat="44.33228" lon="5.37347">
        <ele>603</ele>
        <time>2019-04-15T11:25:50Z</time>
      </trkpt>
      <trkpt lat="44.33216" lon="5.37353">
        <ele>604</ele>
        <time>2019-04-15T11:25:54Z</time>
      </trkpt>
      <trkpt lat="44.33203" lon="5.37362">
        <ele>604.8</ele>
        <time>2019-04-15T11:25:58Z</time>
      </trkpt>
      <trkpt lat="44.33194" lon="5.37376">
        <ele>605.8</ele>
        <time>2019-04-15T11:26:02Z</time>
      </trkpt>
      <trkpt lat="44.3319" lon="5.37395">
        <ele>607</ele>
        <time>2019-04-15T11:26:06Z</time>
      </trkpt>
      <trkpt lat="44.33189" lon="5.37414">
        <ele>608</ele>
        <time>2019-04-15T11:26:10Z</time>
      </trkpt>
      <trkpt lat="44.3319" lon="5.37433">
        <ele>609</ele>
        <time>2019-04-15T11:26:14Z</time>
      </trkpt>
      <trkpt lat="44.33193" lon="5.37452">
        <ele>610.4</ele>
        <time>2019-04-15T11:26:18Z</time>
      </trkpt>
      <trkpt lat="44.33194" lon="5.37472">
        <ele>610.8</ele>
        <time>2019-04-15T11:26:22Z</time>
      </trkpt>
      <trkpt lat="44.33192" lon="5.37491">
        <ele>611.4</ele>
        <time>2019-04-15T11:26:26Z</time>
      </trkpt>
      <trkpt lat="44.33187" lon="5.3751">
        <ele>612.8</ele>
        <time>2019-04-15T11:26:30Z</time>
      </trkpt>
      <trkpt lat="44.3318" lon="5.37526">
        <ele>614</ele>
        <time>2019-04-15T11:26:34Z</time>
      </trkpt>
      <trkpt lat="44.33172" lon="5.37543">
        <ele>614.4</ele>
        <time>2019-04-15T11:26:38Z</time>
      </trkpt>
      <trkpt lat="44.33165" lon="5.3756">
        <ele>615.4</ele>
        <time>2019-04-15T11:26:42Z</time>
      </trkpt>
      <trkpt lat="44.33157" lon="5.37576">
        <ele>616.2</ele>
        <time>2019-04-15T11:26:46Z</time>
      </trkpt>
      <trkpt lat="44.33148" lon="5.37591">
        <ele>617.2</ele>
        <time>2019-04-15T11:26:50Z</time>
      </trkpt>
      <trkpt lat="44.33137" lon="5.37603">
        <ele>618.4</ele>
        <time>2019-04-15T11:26:54Z</time>
      </trkpt>
      <trkpt lat="44.33124" lon="5.37611">
        <ele>619</ele>
        <time>2019-04-15T11:26:58Z</time>
      </trkpt>
      <trkpt lat="44.3311" lon="5.37618">
        <ele>620</ele>
        <time>2019-04-15T11:27:02Z</time>
      </trkpt>
      <trkpt lat="44.33099" lon="5.37628">
        <ele>620.6</ele>
        <time>2019-04-15T11:27:06Z</time>
      </trkpt>
      <trkpt lat="44.33091" lon="5.37645">
        <ele>621.6</ele>
        <time>2019-04-15T11:27:10Z</time>
      </trkpt>
      <trkpt lat="44.33089" lon="5.37664">
        <ele>622.8</ele>
        <time>2019-04-15T11:27:14Z</time>
      </trkpt>
      <trkpt lat="44.33089" lon="5.37684">
        <ele>623</ele>
        <time>2019-04-15T11:27:18Z</time>
      </trkpt>
      <trkpt lat="44.33087" lon="5.37704">
        <ele>624</ele>
        <time>2019-04-15T11:27:22Z</time>
      </trkpt>
      <trkpt lat="44.33082" lon="5.37722">
        <ele>624.6</ele>
        <time>2019-04-15T11:27:26Z</time>
      </trkpt>
      <trkpt lat="44.33076" lon="5.37741">
        <ele>626.8</ele>
        <time>2019-04-15T11:27:30Z</time>
      </trkpt>
      <trkpt lat="44.33071" lon="5.37759">
        <ele>627.4</ele>
        <time>2019-04-15T11:27:34Z</time>
      </trkpt>
      <trkpt lat="44.33066" lon="5.37778">
        <ele>628.2</ele>
        <time>2019-04-15T11:27:38Z</time>
      </trkpt>
      <trkpt lat="44.33061" lon="5.37796">
        <ele>628.8</ele>
        <time>2019-04-15T11:27:42Z</time>
      </trkpt>
      <trkpt lat="44.33057" lon="5.37816">
        <ele>630</ele>
        <time>2019-04-15T11:27:46Z</time>
      </trkpt>
      <trkpt lat="44.33054" lon="5.37835">
        <ele>630.8</ele>
        <time>2019-04-15T11:27:50Z</time>
      </trkpt>
      <trkpt lat="44.33054" lon="5.37854">
        <ele>631.8</ele>
        <time>2019-04-15T11:27:54Z</time>
      </trkpt>
      <trkpt lat="44.33057" lon="5.37873">
        <ele>632.4</ele>
        <time>2019-04-15T11:27:58Z</time>
      </trkpt>
      <trkpt lat="44.33064" lon="5.37889">
        <ele>634</ele>
        <time>2019-04-15T11:28:02Z</time>
      </trkpt>
      <trkpt lat="44.33071" lon="5.37905">
        <ele>635.2</ele>
        <time>2019-04-15T11:28:06Z</time>
      </trkpt>
      <trkpt lat="44.33078" lon="5.37921">
        <ele>635.4</ele>
        <time>2019-04-15T11:28:10Z</time>
      </trkpt>
      <trkpt lat="44.33072" lon="5.3794">
        <ele>636</ele>
        <time>2019-04-15T11:28:14Z</time>
      </trkpt>
      <trkpt lat="44.33056" lon="5.37948">
        <ele>636.2</ele>
        <time>2019-04-15T11:28:18Z</time>
      </trkpt>
      <trkpt lat="44.33039" lon="5.37939">
        <ele>636.2</ele>
        <time>2019-04-15T11:28:22Z</time>
      </trkpt>
      <trkpt lat="44.33022" lon="5.37931">
        <ele>636.6</ele>
        <time>2019-04-15T11:28:26Z</time>
      </trkpt>
      <trkpt lat="44.33006" lon="5.3794">
        <ele>636.8</ele>
        <time>2019-04-15T11:28:30Z</time>
      </trkpt>
      <trkpt lat="44.32997" lon="5.3796">
        <ele>638.2</ele>
        <time>2019-04-15T11:28:34Z</time>
      </trkpt>
      <trkpt lat="44.32993" lon="5.37982">
        <ele>637.8</ele>
        <time>2019-04-15T11:28:38Z</time>
      </trkpt>
      <trkpt lat="44.32989" lon="5.38005">
        <ele>639.2</ele>
        <time>2019-04-15T11:28:42Z</time>
      </trkpt>
      <trkpt lat="44.32985" lon="5.38027">
        <ele>639.8</ele>
        <time>2019-04-15T11:28:46Z</time>
      </trkpt>
      <trkpt lat="44.32981" lon="5.38049">
        <ele>640.8</ele>
        <time>2019-04-15T11:28:50Z</time>
      </trkpt>
      <trkpt lat="44.32975" lon="5.38071">
        <ele>641.2</ele>
        <time>2019-04-15T11:28:54Z</time>
      </trkpt>
      <trkpt lat="44.3297" lon="5.38092">
        <ele>641.6</ele>
        <time>2019-04-15T11:28:58Z</time>
      </trkpt>
      <trkpt lat="44.32963" lon="5.38113">
        <ele>642.2</ele>
        <time>2019-04-15T11:29:02Z</time>
      </trkpt>
      <trkpt lat="44.32954" lon="5.38132">
        <ele>643.4</ele>
        <time>2019-04-15T11:29:06Z</time>
      </trkpt>
      <trkpt lat="44.32943" lon="5.38149">
        <ele>644.2</ele>
        <time>2019-04-15T11:29:10Z</time>
      </trkpt>
      <trkpt lat="44.32931" lon="5.38165">
        <ele>644.6</ele>
        <time>2019-04-15T11:29:14Z</time>
      </trkpt>
      <trkpt lat="44.32918" lon="5.3818">
        <ele>645</ele>
        <time>2019-04-15T11:29:18Z</time>
      </trkpt>
      <trkpt lat="44.32905" lon="5.38195">
        <ele>646.2</ele>
        <time>2019-04-15T11:29:22Z</time>
      </trkpt>
      <trkpt lat="44.32893" lon="5.3821">
        <ele>647.2</ele>
        <time>2019-04-15T11:29:26Z</time>
      </trkpt>
      <trkpt lat="44.32881" lon="5.38226">
        <ele>647.2</ele>
        <time>2019-04-15T11:29:30Z</time>
      </trkpt>
      <trkpt lat="44.32872" lon="5.38244">
        <ele>648.2</ele>
        <time>2019-04-15T11:29:34Z</time>
      </trkpt>
      <trkpt lat="44.32864" lon="5.38264">
        <ele>649</ele>
        <time>2019-04-15T11:29:38Z</time>
      </trkpt>
      <trkpt lat="44.32859" lon="5.38286">
        <ele>649.8</ele>
        <time>2019-04-15T11:29:42Z</time>
      </trkpt>
      <trkpt lat="44.32854" lon="5.38307">
        <ele>650.2</ele>
        <time>2019-04-15T11:29:46Z</time>
      </trkpt>
      <trkpt lat="44.32848" lon="5.38328">
        <ele>651</ele>
        <time>2019-04-15T11:29:50Z</time>
      </trkpt>
      <trkpt lat="44.32842" lon="5.38349">
        <ele>651.4</ele>
        <time>2019-04-15T11:29:54Z</time>
      </trkpt>
      <trkpt lat="44.32833" lon="5.38368">
        <ele>652.2</ele>
        <time>2019-04-15T11:29:58Z</time>
      </trkpt>
      <trkpt lat="44.32821" lon="5.38383">
        <ele>653.4</ele>
        <time>2019-04-15T11:30:02Z</time>
      </trkpt>
      <trkpt lat="44.32807" lon="5.38394">
        <ele>653.8</ele>
        <time>2019-04-15T11:30:06Z</time>
      </trkpt>
      <trkpt lat="44.32793" lon="5.38404">
        <ele>654.4</ele>
        <time>2019-04-15T11:30:10Z</time>
      </trkpt>
      <trkpt lat="44.32779" lon="5.38416">
        <ele>655</ele>
        <time>2019-04-15T11:30:14Z</time>
      </trkpt>
      <trkpt lat="44.32769" lon="5.38433">
        <ele>656.4</ele>
        <time>2019-04-15T11:30:18Z</time>
      </trkpt>
      <trkpt lat="44.32762" lon="5.38454">
        <ele>657</ele>
        <time>2019-04-15T11:30:22Z</time>
      </trkpt>
      <trkpt lat="44.32756" lon="5.38474">
        <ele>657.8</ele>
        <time>2019-04-15T11:30:26Z</time>
      </trkpt>
      <trkpt lat="44.32752" lon="5.38495">
        <ele>659.2</ele>
        <time>2019-04-15T11:30:30Z</time>
      </trkpt>
      <trkpt lat="44.32747" lon="5.38515">
        <ele>659.8</ele>
        <time>2019-04-15T11:30:34Z</time>
      </trkpt>
      <trkpt lat="44.32736" lon="5.38529">
        <ele>660.4</ele>
        <time>2019-04-15T11:30:38Z</time>
      </trkpt>
      <trkpt lat="44.32719" lon="5.38536">
        <ele>660.2</ele>
        <time>2019-04-15T11:30:42Z</time>
      </trkpt>
      <trkpt lat="44.32704" lon="5.38529">
        <ele>661</ele>
        <time>2019-04-15T11:30:46Z</time>
      </trkpt>
      <trkpt lat="44.32695" lon="5.38511">
        <ele>662.2</ele>
        <time>2019-04-15T11:30:50Z</time>
      </trkpt>
      <trkpt lat="44.32687" lon="5.38493">
        <ele>662.8</ele>
        <time>2019-04-15T11:30:54Z</time>
      </trkpt>
      <trkpt lat="44.32679" lon="5.38476">
        <ele>663.6</ele>
        <time>2019-04-15T11:30:58Z</time>
      </trkpt>
      <trkpt lat="44.32672" lon="5.38459">
        <ele>664.4</ele>
        <time>2019-04-15T11:31:02Z</time>
      </trkpt>
      <trkpt lat="44.32664" lon="5.38442">
        <ele>665.4</ele>
        <time>2019-04-15T11:31:06Z</time>
      </trkpt>
      <trkpt lat="44.32656" lon="5.38427">
        <ele>666.6</ele>
        <time>2019-04-15T11:31:10Z</time>
      </trkpt>
      <trkpt lat="44.32645" lon="5.38413">
        <ele>667.8</ele>
        <time>2019-04-15T11:31:14Z</time>
      </trkpt>
      <trkpt lat="44.32634" lon="5.38401">
        <ele>668.2</ele>
        <time>2019-04-15T11:31:18Z</time>
      </trkpt>
      <trkpt lat="44.32623" lon="5.38388">
        <ele>669.4</ele>
        <time>2019-04-15T11:31:22Z</time>
      </trkpt>
      <trkpt lat="44.32611" lon="5.38378">
        <ele>669.4</ele>
        <time>2019-04-15T11:31:26Z</time>
      </trkpt>
      <trkpt lat="44.32599" lon="5.38369">
        <ele>670.2</ele>
        <time>2019-04-15T11:31:30Z</time>
      </trkpt>
      <trkpt lat="44.32585" lon="5.38366">
        <ele>671.6</ele>
        <time>2019-04-15T11:31:34Z</time>
      </trkpt>
      <trkpt lat="44.32571" lon="5.38369">
        <ele>672.2</ele>
        <time>2019-04-15T11:31:38Z</time>
      </trkpt>
      <trkpt lat="44.32557" lon="5.38373">
        <ele>673.4</ele>
        <time>2019-04-15T11:31:42Z</time>
      </trkpt>
      <trkpt lat="44.32543" lon="5.38368">
        <ele>674.2</ele>
        <time>2019-04-15T11:31:46Z</time>
      </trkpt>
      <trkpt lat="44.32531" lon="5.38357">
        <ele>674.8</ele>
        <time>2019-04-15T11:31:50Z</time>
      </trkpt>
      <trkpt lat="44.32519" lon="5.38345">
        <ele>675.4</ele>
        <time>2019-04-15T11:31:54Z</time>
      </trkpt>
      <trkpt lat="44.32508" lon="5.38333">
        <ele>676.6</ele>
        <time>2019-04-15T11:31:58Z</time>
      </trkpt>
      <trkpt lat="44.32496" lon="5.3832">
        <ele>677.4</ele>
        <time>2019-04-15T11:32:02Z</time>
      </trkpt>
      <trkpt lat="44.32486" lon="5.38308">
        <ele>678.6</ele>
        <time>2019-04-15T11:32:06Z</time>
      </trkpt>
      <trkpt lat="44.32476" lon="5.38294">
        <ele>679</ele>
        <time>2019-04-15T11:32:10Z</time>
      </trkpt>
      <trkpt lat="44.32468" lon="5.38276">
        <ele>680</ele>
        <time>2019-04-15T11:32:14Z</time>
      </trkpt>
      <trkpt lat="44.32463" lon="5.38257">
        <ele>680.4</ele>
        <time>2019-04-15T11:32:18Z</time>
      </trkpt>
      <trkpt lat="44.32457" lon="5.38241">
        <ele>681.8</ele>
        <time>2019-04-15T11:32:22Z</time>
      </trkpt>
      <trkpt lat="44.32446" lon="5.38248">
        <ele>683</ele>
        <time>2019-04-15T11:32:26Z</time>
      </trkpt>
      <trkpt lat="44.32447" lon="5.38267">
        <ele>683.4</ele>
        <time>2019-04-15T11:32:30Z</time>
      </trkpt>
      <trkpt lat="44.3245" lon="5.38288">
        <ele>684.2</ele>
        <time>2019-04-15T11:32:34Z</time>
      </trkpt>
      <trkpt lat="44.32451" lon="5.38307">
        <ele>685.6</ele>
        <time>2019-04-15T11:32:38Z</time>
      </trkpt>
      <trkpt lat="44.32451" lon="5.38327">
        <ele>686.4</ele>
        <time>2019-04-15T11:32:42Z</time>
      </trkpt>
      <trkpt lat="44.3245" lon="5.38346">
        <ele>687.6</ele>
        <time>2019-04-15T11:32:46Z</time>
      </trkpt>
      <trkpt lat="44.32447" lon="5.38365">
        <ele>687.8</ele>
        <time>2019-04-15T11:32:50Z</time>
      </trkpt>
      <trkpt lat="44.32444" lon="5.38384">
        <ele>689</ele>
        <time>2019-04-15T11:32:54Z</time>
      </trkpt>
      <trkpt lat="44.32441" lon="5.38402">
        <ele>689.6</ele>
        <time>2019-04-15T11:32:58Z</time>
      </trkpt>
      <trkpt lat="44.32438" lon="5.38421">
        <ele>690.6</ele>
        <time>2019-04-15T11:33:02Z</time>
      </trkpt>
      <trkpt lat="44.32436" lon="5.3844">
        <ele>691.6</ele>
        <time>2019-04-15T11:33:06Z</time>
      </trkpt>
      <trkpt lat="44.32435" lon="5.3846">
        <ele>692.4</ele>
        <time>2019-04-15T11:33:10Z</time>
      </trkpt>
      <trkpt lat="44.32434" lon="5.38479">
        <ele>693</ele>
        <time>2019-04-15T11:33:14Z</time>
      </trkpt>
      <trkpt lat="44.32432" lon="5.38499">
        <ele>693.8</ele>
        <time>2019-04-15T11:33:18Z</time>
      </trkpt>
      <trkpt lat="44.32431" lon="5.38518">
        <ele>694.4</ele>
        <time>2019-04-15T11:33:22Z</time>
      </trkpt>
      <trkpt lat="44.3243" lon="5.38539">
        <ele>694.6</ele>
        <time>2019-04-15T11:33:26Z</time>
      </trkpt>
      <trkpt lat="44.3243" lon="5.38559">
        <ele>695.2</ele>
        <time>2019-04-15T11:33:30Z</time>
      </trkpt>
      <trkpt lat="44.32432" lon="5.38579">
        <ele>696.2</ele>
        <time>2019-04-15T11:33:34Z</time>
      </trkpt>
      <trkpt lat="44.32434" lon="5.386">
        <ele>696.6</ele>
        <time>2019-04-15T11:33:38Z</time>
      </trkpt>
      <trkpt lat="44.32436" lon="5.3862">
        <ele>697</ele>
        <time>2019-04-15T11:33:42Z</time>
      </trkpt>
      <trkpt lat="44.32441" lon="5.38639">
        <ele>697.6</ele>
        <time>2019-04-15T11:33:46Z</time>
      </trkpt>
      <trkpt lat="44.32449" lon="5.38655">
        <ele>698.4</ele>
        <time>2019-04-15T11:33:50Z</time>
      </trkpt>
      <trkpt lat="44.32462" lon="5.38666">
        <ele>699.8</ele>
        <time>2019-04-15T11:33:54Z</time>
      </trkpt>
      <trkpt lat="44.32475" lon="5.38673">
        <ele>700.8</ele>
        <time>2019-04-15T11:33:58Z</time>
      </trkpt>
      <trkpt lat="44.32489" lon="5.38678">
        <ele>700.6</ele>
        <time>2019-04-15T11:34:02Z</time>
      </trkpt>
      <trkpt lat="44.32503" lon="5.38687">
        <ele>701.6</ele>
        <time>2019-04-15T11:34:06Z</time>
      </trkpt>
      <trkpt lat="44.32511" lon="5.38703">
        <ele>702.8</ele>
        <time>2019-04-15T11:34:10Z</time>
      </trkpt>
      <trkpt lat="44.32514" lon="5.38722">
        <ele>703.6</ele>
        <time>2019-04-15T11:34:14Z</time>
      </trkpt>
      <trkpt lat="44.32516" lon="5.38742">
        <ele>704</ele>
        <time>2019-04-15T11:34:18Z</time>
      </trkpt>
      <trkpt lat="44.3252" lon="5.38762">
        <ele>704.6</ele>
        <time>2019-04-15T11:34:22Z</time>
      </trkpt>
      <trkpt lat="44.32526" lon="5.3878">
        <ele>705</ele>
        <time>2019-04-15T11:34:26Z</time>
      </trkpt>
      <trkpt lat="44.32536" lon="5.38796">
        <ele>706</ele>
        <time>2019-04-15T11:34:30Z</time>
      </trkpt>
      <trkpt lat="44.32547" lon="5.3881">
        <ele>707</ele>
        <time>2019-04-15T11:34:34Z</time>
      </trkpt>
      <trkpt lat="44.3256" lon="5.38818">
        <ele>707.4</ele>
        <time>2019-04-15T11:34:38Z</time>
      </trkpt>
      <trkpt lat="44.32574" lon="5.38822">
        <ele>708.2</ele>
        <time>2019-04-15T11:34:42Z</time>
      </trkpt>
      <trkpt lat="44.3258" lon="5.38836">
        <ele>709.2</ele>
        <time>2019-04-15T11:34:46Z</time>
      </trkpt>
      <trkpt lat="44.32566" lon="5.3884">
        <ele>709.8</ele>
        <time>2019-04-15T11:34:50Z</time>
      </trkpt>
      <trkpt lat="44.3255" lon="5.38834">
        <ele>710.6</ele>
        <time>2019-04-15T11:34:54Z</time>
      </trkpt>
      <trkpt lat="44.32534" lon="5.38829">
        <ele>711.2</ele>
        <time>2019-04-15T11:34:58Z</time>
      </trkpt>
      <trkpt lat="44.32519" lon="5.38823">
        <ele>712</ele>
        <time>2019-04-15T11:35:02Z</time>
      </trkpt>
      <trkpt lat="44.32503" lon="5.38818">
        <ele>712.8</ele>
        <time>2019-04-15T11:35:06Z</time>
      </trkpt>
      <trkpt lat="44.32488" lon="5.38813">
        <ele>713</ele>
        <time>2019-04-15T11:35:10Z</time>
      </trkpt>
      <trkpt lat="44.32473" lon="5.3881">
        <ele>714</ele>
        <time>2019-04-15T11:35:14Z</time>
      </trkpt>
      <trkpt lat="44.32458" lon="5.38809">
        <ele>714.2</ele>
        <time>2019-04-15T11:35:18Z</time>
      </trkpt>
      <trkpt lat="44.32443" lon="5.38812">
        <ele>715.2</ele>
        <time>2019-04-15T11:35:22Z</time>
      </trkpt>
      <trkpt lat="44.32428" lon="5.38817">
        <ele>716.2</ele>
        <time>2019-04-15T11:35:26Z</time>
      </trkpt>
      <trkpt lat="44.32413" lon="5.38822">
        <ele>717</ele>
        <time>2019-04-15T11:35:30Z</time>
      </trkpt>
      <trkpt lat="44.32396" lon="5.3882">
        <ele>717.2</ele>
        <time>2019-04-15T11:35:34Z</time>
      </trkpt>
      <trkpt lat="44.32382" lon="5.38812">
        <ele>717.6</ele>
        <time>2019-04-15T11:35:38Z</time>
      </trkpt>
      <trkpt lat="44.32367" lon="5.38804">
        <ele>718.4</ele>
        <time>2019-04-15T11:35:42Z</time>
      </trkpt>
      <trkpt lat="44.32354" lon="5.38793">
        <ele>719.2</ele>
        <time>2019-04-15T11:35:46Z</time>
      </trkpt>
      <trkpt lat="44.32343" lon="5.38777">
        <ele>719.4</ele>
        <time>2019-04-15T11:35:50Z</time>
      </trkpt>
      <trkpt lat="44.32337" lon="5.38756">
        <ele>719.8</ele>
        <time>2019-04-15T11:35:54Z</time>
      </trkpt>
      <trkpt lat="44.32335" lon="5.38735">
        <ele>720.2</ele>
        <time>2019-04-15T11:35:58Z</time>
      </trkpt>
      <trkpt lat="44.32335" lon="5.38713">
        <ele>721.6</ele>
        <time>2019-04-15T11:36:02Z</time>
      </trkpt>
      <trkpt lat="44.32335" lon="5.38692">
        <ele>722.2</ele>
        <time>2019-04-15T11:36:06Z</time>
      </trkpt>
      <trkpt lat="44.32335" lon="5.38671">
        <ele>723</ele>
        <time>2019-04-15T11:36:10Z</time>
      </trkpt>
      <trkpt lat="44.32335" lon="5.3865">
        <ele>724</ele>
        <time>2019-04-15T11:36:14Z</time>
      </trkpt>
      <trkpt lat="44.32333" lon="5.38629">
        <ele>724.4</ele>
        <time>2019-04-15T11:36:18Z</time>
      </trkpt>
      <trkpt lat="44.32327" lon="5.38609">
        <ele>725.2</ele>
        <time>2019-04-15T11:36:22Z</time>
      </trkpt>
      <trkpt lat="44.32318" lon="5.38592">
        <ele>725.6</ele>
        <time>2019-04-15T11:36:26Z</time>
      </trkpt>
      <trkpt lat="44.32306" lon="5.38579">
        <ele>726.2</ele>
        <time>2019-04-15T11:36:30Z</time>
      </trkpt>
      <trkpt lat="44.32291" lon="5.38576">
        <ele>727.8</ele>
        <time>2019-04-15T11:36:34Z</time>
      </trkpt>
      <trkpt lat="44.32276" lon="5.38579">
        <ele>728.2</ele>
        <time>2019-04-15T11:36:38Z</time>
      </trkpt>
      <trkpt lat="44.32261" lon="5.38581">
        <ele>728.6</ele>
        <time>2019-04-15T11:36:42Z</time>
      </trkpt>
      <trkpt lat="44.32248" lon="5.38572">
        <ele>730.4</ele>
        <time>2019-04-15T11:36:46Z</time>
      </trkpt>
      <trkpt lat="44.32236" lon="5.38555">
        <ele>730.4</ele>
        <time>2019-04-15T11:36:50Z</time>
      </trkpt>
      <trkpt lat="44.32223" lon="5.38558">
        <ele>731.2</ele>
        <time>2019-04-15T11:36:54Z</time>
      </trkpt>
      <trkpt lat="44.32222" lon="5.38574">
        <ele>732.4</ele>
        <time>2019-04-15T11:36:58Z</time>
      </trkpt>
      <trkpt lat="44.32231" lon="5.38588">
        <ele>733.2</ele>
        <time>2019-04-15T11:37:02Z</time>
      </trkpt>
      <trkpt lat="44.32243" lon="5.38601">
        <ele>734</ele>
        <time>2019-04-15T11:37:06Z</time>
      </trkpt>
      <trkpt lat="44.32255" lon="5.38613">
        <ele>734.4</ele>
        <time>2019-04-15T11:37:10Z</time>
      </trkpt>
      <trkpt lat="44.32268" lon="5.38625">
        <ele>735</ele>
        <time>2019-04-15T11:37:14Z</time>
      </trkpt>
      <trkpt lat="44.32276" lon="5.38643">
        <ele>735.4</ele>
        <time>2019-04-15T11:37:18Z</time>
      </trkpt>
      <trkpt lat="44.32274" lon="5.38664">
        <ele>736.8</ele>
        <time>2019-04-15T11:37:22Z</time>
      </trkpt>
      <trkpt lat="44.32269" lon="5.38683">
        <ele>737</ele>
        <time>2019-04-15T11:37:26Z</time>
      </trkpt>
      <trkpt lat="44.32263" lon="5.38702">
        <ele>737.8</ele>
        <time>2019-04-15T11:37:30Z</time>
      </trkpt>
      <trkpt lat="44.32257" lon="5.3872">
        <ele>738.4</ele>
        <time>2019-04-15T11:37:34Z</time>
      </trkpt>
      <trkpt lat="44.32254" lon="5.3874">
        <ele>739.2</ele>
        <time>2019-04-15T11:37:38Z</time>
      </trkpt>
      <trkpt lat="44.32256" lon="5.3876">
        <ele>739.8</ele>
        <time>2019-04-15T11:37:42Z</time>
      </trkpt>
      <trkpt lat="44.32263" lon="5.38778">
        <ele>740.6</ele>
        <time>2019-04-15T11:37:46Z</time>
      </trkpt>
      <trkpt lat="44.32272" lon="5.38793">
        <ele>741.6</ele>
        <time>2019-04-15T11:37:50Z</time>
      </trkpt>
      <trkpt lat="44.32282" lon="5.38809">
        <ele>741.6</ele>
        <time>2019-04-15T11:37:54Z</time>
      </trkpt>
      <trkpt lat="44.32289" lon="5.38829">
        <ele>742.8</ele>
        <time>2019-04-15T11:37:58Z</time>
      </trkpt>
      <trkpt lat="44.3229" lon="5.3885">
        <ele>743.8</ele>
        <time>2019-04-15T11:38:02Z</time>
      </trkpt>
      <trkpt lat="44.32289" lon="5.38871">
        <ele>744.2</ele>
        <time>2019-04-15T11:38:06Z</time>
      </trkpt>
      <trkpt lat="44.32285" lon="5.38892">
        <ele>745</ele>
        <time>2019-04-15T11:38:10Z</time>
      </trkpt>
      <trkpt lat="44.32281" lon="5.38912">
        <ele>745.8</ele>
        <time>2019-04-15T11:38:14Z</time>
      </trkpt>
      <trkpt lat="44.32275" lon="5.38932">
        <ele>746.8</ele>
        <time>2019-04-15T11:38:18Z</time>
      </trkpt>
      <trkpt lat="44.32272" lon="5.38951">
        <ele>747.6</ele>
        <time>2019-04-15T11:38:22Z</time>
      </trkpt>
      <trkpt lat="44.32271" lon="5.38971">
        <ele>748.6</ele>
        <time>2019-04-15T11:38:26Z</time>
      </trkpt>
      <trkpt lat="44.3227" lon="5.38992">
        <ele>749.2</ele>
        <time>2019-04-15T11:38:30Z</time>
      </trkpt>
      <trkpt lat="44.3227" lon="5.39014">
        <ele>749.8</ele>
        <time>2019-04-15T11:38:34Z</time>
      </trkpt>
      <trkpt lat="44.32273" lon="5.39035">
        <ele>750.6</ele>
        <time>2019-04-15T11:38:38Z</time>
      </trkpt>
      <trkpt lat="44.32277" lon="5.39053">
        <ele>751.4</ele>
        <time>2019-04-15T11:38:42Z</time>
      </trkpt>
      <trkpt lat="44.32288" lon="5.39068">
        <ele>752.8</ele>
        <time>2019-04-15T11:38:46Z</time>
      </trkpt>
      <trkpt lat="44.323" lon="5.39081">
        <ele>753.6</ele>
        <time>2019-04-15T11:38:50Z</time>
      </trkpt>
      <trkpt lat="44.32312" lon="5.3909">
        <ele>754.2</ele>
        <time>2019-04-15T11:38:54Z</time>
      </trkpt>
      <trkpt lat="44.32325" lon="5.39099">
        <ele>754.8</ele>
        <time>2019-04-15T11:38:58Z</time>
      </trkpt>
      <trkpt lat="44.32325" lon="5.39115">
        <ele>756.2</ele>
        <time>2019-04-15T11:39:02Z</time>
      </trkpt>
      <trkpt lat="44.3231" lon="5.39115">
        <ele>757.2</ele>
        <time>2019-04-15T11:39:06Z</time>
      </trkpt>
      <trkpt lat="44.32296" lon="5.39109">
        <ele>757.6</ele>
        <time>2019-04-15T11:39:10Z</time>
      </trkpt>
      <trkpt lat="44.32281" lon="5.39105">
        <ele>758.4</ele>
        <time>2019-04-15T11:39:14Z</time>
      </trkpt>
      <trkpt lat="44.32267" lon="5.39101">
        <ele>759.6</ele>
        <time>2019-04-15T11:39:18Z</time>
      </trkpt>
      <trkpt lat="44.32253" lon="5.39097">
        <ele>760.4</ele>
        <time>2019-04-15T11:39:22Z</time>
      </trkpt>
      <trkpt lat="44.32241" lon="5.39087">
        <ele>761</ele>
        <time>2019-04-15T11:39:26Z</time>
      </trkpt>
      <trkpt lat="44.32232" lon="5.39073">
        <ele>761</ele>
        <time>2019-04-15T11:39:30Z</time>
      </trkpt>
      <trkpt lat="44.32225" lon="5.39055">
        <ele>761.8</ele>
        <time>2019-04-15T11:39:34Z</time>
      </trkpt>
      <trkpt lat="44.32218" lon="5.39037">
        <ele>763</ele>
        <time>2019-04-15T11:39:38Z</time>
      </trkpt>
      <trkpt lat="44.32215" lon="5.39017">
        <ele>764</ele>
        <time>2019-04-15T11:39:42Z</time>
      </trkpt>
      <trkpt lat="44.32214" lon="5.38996">
        <ele>764.4</ele>
        <time>2019-04-15T11:39:46Z</time>
      </trkpt>
      <trkpt lat="44.32211" lon="5.38975">
        <ele>765.2</ele>
        <time>2019-04-15T11:39:50Z</time>
      </trkpt>
      <trkpt lat="44.32208" lon="5.38954">
        <ele>765.8</ele>
        <time>2019-04-15T11:39:54Z</time>
      </trkpt>
      <trkpt lat="44.32203" lon="5.38934">
        <ele>766.6</ele>
        <time>2019-04-15T11:39:58Z</time>
      </trkpt>
      <trkpt lat="44.32196" lon="5.38915">
        <ele>767.4</ele>
        <time>2019-04-15T11:40:02Z</time>
      </trkpt>
      <trkpt lat="44.32186" lon="5.38898">
        <ele>768.2</ele>
        <time>2019-04-15T11:40:06Z</time>
      </trkpt>
      <trkpt lat="44.32176" lon="5.38881">
        <ele>768.4</ele>
        <time>2019-04-15T11:40:10Z</time>
      </trkpt>
      <trkpt lat="44.32166" lon="5.38864">
        <ele>769.2</ele>
        <time>2019-04-15T11:40:14Z</time>
      </trkpt>
      <trkpt lat="44.32157" lon="5.38848">
        <ele>770</ele>
        <time>2019-04-15T11:40:18Z</time>
      </trkpt>
      <trkpt lat="44.32147" lon="5.38833">
        <ele>771.4</ele>
        <time>2019-04-15T11:40:22Z</time>
      </trkpt>
      <trkpt lat="44.32137" lon="5.38817">
        <ele>772.2</ele>
        <time>2019-04-15T11:40:26Z</time>
      </trkpt>
      <trkpt lat="44.32126" lon="5.38803">
        <ele>773</ele>
        <time>2019-04-15T11:40:30Z</time>
      </trkpt>
      <trkpt lat="44.32115" lon="5.38784">
        <ele>773.2</ele>
        <time>2019-04-15T11:40:34Z</time>
      </trkpt>
      <trkpt lat="44.32111" lon="5.38763">
        <ele>774.2</ele>
        <time>2019-04-15T11:40:38Z</time>
      </trkpt>
      <trkpt lat="44.3211" lon="5.38742">
        <ele>775.8</ele>
        <time>2019-04-15T11:40:42Z</time>
      </trkpt>
      <trkpt lat="44.32112" lon="5.3872">
        <ele>776</ele>
        <time>2019-04-15T11:40:46Z</time>
      </trkpt>
      <trkpt lat="44.32114" lon="5.38698">
        <ele>776.4</ele>
        <time>2019-04-15T11:40:50Z</time>
      </trkpt>
      <trkpt lat="44.32116" lon="5.38675">
        <ele>777</ele>
        <time>2019-04-15T11:40:54Z</time>
      </trkpt>
      <trkpt lat="44.32117" lon="5.38653">
        <ele>777.4</ele>
        <time>2019-04-15T11:40:58Z</time>
      </trkpt>
      <trkpt lat="44.32111" lon="5.38632">
        <ele>778.2</ele>
        <time>2019-04-15T11:41:02Z</time>
      </trkpt>
      <trkpt lat="44.321" lon="5.38615">
        <ele>778.4</ele>
        <time>2019-04-15T11:41:06Z</time>
      </trkpt>
      <trkpt lat="44.3209" lon="5.38597">
        <ele>779.6</ele>
        <time>2019-04-15T11:41:10Z</time>
      </trkpt>
      <trkpt lat="44.32082" lon="5.38579">
        <ele>780.6</ele>
        <time>2019-04-15T11:41:14Z</time>
      </trkpt>
      <trkpt lat="44.32074" lon="5.38561">
        <ele>781.4</ele>
        <time>2019-04-15T11:41:18Z</time>
      </trkpt>
      <trkpt lat="44.32065" lon="5.38543">
        <ele>782</ele>
        <time>2019-04-15T11:41:22Z</time>
      </trkpt>
      <trkpt lat="44.32054" lon="5.38528">
        <ele>782.8</ele>
        <time>2019-04-15T11:41:26Z</time>
      </trkpt>
      <trkpt lat="44.32043" lon="5.38514">
        <ele>784.2</ele>
        <time>2019-04-15T11:41:30Z</time>
      </trkpt>
      <trkpt lat="44.32033" lon="5.38497">
        <ele>785</ele>
        <time>2019-04-15T11:41:34Z</time>
      </trkpt>
      <trkpt lat="44.32025" lon="5.38479">
        <ele>785.8</ele>
        <time>2019-04-15T11:41:38Z</time>
      </trkpt>
      <trkpt lat="44.32017" lon="5.3846">
        <ele>786.2</ele>
        <time>2019-04-15T11:41:42Z</time>
      </trkpt>
      <trkpt lat="44.32011" lon="5.38442">
        <ele>787.4</ele>
        <time>2019-04-15T11:41:46Z</time>
      </trkpt>
      <trkpt lat="44.32004" lon="5.38423">
        <ele>788.2</ele>
        <time>2019-04-15T11:41:50Z</time>
      </trkpt>
      <trkpt lat="44.31998" lon="5.38405">
        <ele>789.2</ele>
        <time>2019-04-15T11:41:54Z</time>
      </trkpt>
      <trkpt lat="44.31989" lon="5.38387">
        <ele>790</ele>
        <time>2019-04-15T11:41:58Z</time>
      </trkpt>
      <trkpt lat="44.31981" lon="5.3837">
        <ele>791</ele>
        <time>2019-04-15T11:42:02Z</time>
      </trkpt>
      <trkpt lat="44.3197" lon="5.38355">
        <ele>791.6</ele>
        <time>2019-04-15T11:42:06Z</time>
      </trkpt>
      <trkpt lat="44.31956" lon="5.38346">
        <ele>792.2</ele>
        <time>2019-04-15T11:42:10Z</time>
      </trkpt>
      <trkpt lat="44.31941" lon="5.38345">
        <ele>793.2</ele>
        <time>2019-04-15T11:42:14Z</time>
      </trkpt>
      <trkpt lat="44.31926" lon="5.38349">
        <ele>794</ele>
        <time>2019-04-15T11:42:18Z</time>
      </trkpt>
      <trkpt lat="44.31912" lon="5.38356">
        <ele>794.6</ele>
        <time>2019-04-15T11:42:22Z</time>
      </trkpt>
      <trkpt lat="44.31897" lon="5.38363">
        <ele>795.6</ele>
        <time>2019-04-15T11:42:26Z</time>
      </trkpt>
      <trkpt lat="44.31883" lon="5.38369">
        <ele>796.4</ele>
        <time>2019-04-15T11:42:30Z</time>
      </trkpt>
      <trkpt lat="44.31868" lon="5.38373">
        <ele>796.4</ele>
        <time>2019-04-15T11:42:34Z</time>
      </trkpt>
      <trkpt lat="44.31853" lon="5.38373">
        <ele>797.2</ele>
        <time>2019-04-15T11:42:38Z</time>
      </trkpt>
      <trkpt lat="44.31838" lon="5.38367">
        <ele>797.8</ele>
        <time>2019-04-15T11:42:42Z</time>
      </trkpt>
      <trkpt lat="44.31827" lon="5.38353">
        <ele>798.8</ele>
        <time>2019-04-15T11:42:46Z</time>
      </trkpt>
      <trkpt lat="44.31819" lon="5.38336">
        <ele>799.2</ele>
        <time>2019-04-15T11:42:50Z</time>
      </trkpt>
      <trkpt lat="44.31813" lon="5.38316">
        <ele>800.4</ele>
        <time>2019-04-15T11:42:54Z</time>
      </trkpt>
      <trkpt lat="44.3181" lon="5.38296">
        <ele>801.2</ele>
        <time>2019-04-15T11:42:58Z</time>
      </trkpt>
      <trkpt lat="44.31809" lon="5.38275">
        <ele>802.4</ele>
        <time>2019-04-15T11:43:02Z</time>
      </trkpt>
      <trkpt lat="44.31808" lon="5.38254">
        <ele>802.8</ele>
        <time>2019-04-15T11:43:06Z</time>
      </trkpt>
      <trkpt lat="44.31808" lon="5.38232">
        <ele>803.8</ele>
        <time>2019-04-15T11:43:10Z</time>
      </trkpt>
      <trkpt lat="44.31809" lon="5.38212">
        <ele>804.6</ele>
        <time>2019-04-15T11:43:14Z</time>
      </trkpt>
      <trkpt lat="44.31809" lon="5.3819">
        <ele>805.6</ele>
        <time>2019-04-15T11:43:18Z</time>
      </trkpt>
      <trkpt lat="44.31809" lon="5.38169">
        <ele>806.4</ele>
        <time>2019-04-15T11:43:22Z</time>
      </trkpt>
      <trkpt lat="44.31808" lon="5.38149">
        <ele>807</ele>
        <time>2019-04-15T11:43:26Z</time>
      </trkpt>
      <trkpt lat="44.31807" lon="5.38129">
        <ele>808.2</ele>
        <time>2019-04-15T11:43:30Z</time>
      </trkpt>
      <trkpt lat="44.31806" lon="5.38108">
        <ele>808.4</ele>
        <time>2019-04-15T11:43:34Z</time>
      </trkpt>
      <trkpt lat="44.31805" lon="5.38088">
        <ele>809.6</ele>
        <time>2019-04-15T11:43:38Z</time>
      </trkpt>
      <trkpt lat="44.31803" lon="5.38069">
        <ele>810.4</ele>
        <time>2019-04-15T11:43:42Z</time>
      </trkpt>
      <trkpt lat="44.31799" lon="5.38049">
        <ele>811.2</ele>
        <time>2019-04-15T11:43:46Z</time>
      </trkpt>
      <trkpt lat="44.31791" lon="5.38032">
        <ele>812</ele>
        <time>2019-04-15T11:43:50Z</time>
      </trkpt>
      <trkpt lat="44.3178" lon="5.38018">
        <ele>812.8</ele>
        <time>2019-04-15T11:43:54Z</time>
      </trkpt>
      <trkpt lat="44.31769" lon="5.38005">
        <ele>813.8</ele>
        <time>2019-04-15T11:43:58Z</time>
      </trkpt>
      <trkpt lat="44.31757" lon="5.37994">
        <ele>814.4</ele>
        <time>2019-04-15T11:44:02Z</time>
      </trkpt>
      <trkpt lat="44.31744" lon="5.37982">
        <ele>815.8</ele>
        <time>2019-04-15T11:44:06Z</time>
      </trkpt>
      <trkpt lat="44.31732" lon="5.37973">
        <ele>816.6</ele>
        <time>2019-04-15T11:44:10Z</time>
      </trkpt>
      <trkpt lat="44.31717" lon="5.3797">
        <ele>817.4</ele>
        <time>2019-04-15T11:44:14Z</time>
      </trkpt>
      <trkpt lat="44.31704" lon="5.37974">
        <ele>818.2</ele>
        <time>2019-04-15T11:44:18Z</time>
      </trkpt>
      <trkpt lat="44.31692" lon="5.37985">
        <ele>818.4</ele>
        <time>2019-04-15T11:44:22Z</time>
      </trkpt>
      <trkpt lat="44.31679" lon="5.37997">
        <ele>818</ele>
        <time>2019-04-15T11:44:26Z</time>
      </trkpt>
      <trkpt lat="44.31666" lon="5.38011">
        <ele>817.4</ele>
        <time>2019-04-15T11:44:30Z</time>
      </trkpt>
      <trkpt lat="44.31651" lon="5.38027">
        <ele>817</ele>
        <time>2019-04-15T11:44:34Z</time>
      </trkpt>
      <trkpt lat="44.31636" lon="5.38047">
        <ele>816.4</ele>
        <time>2019-04-15T11:44:38Z</time>
      </trkpt>
      <trkpt lat="44.31623" lon="5.38071">
        <ele>814.2</ele>
        <time>2019-04-15T11:44:42Z</time>
      </trkpt>
      <trkpt lat="44.31608" lon="5.38095">
        <ele>812.8</ele>
        <time>2019-04-15T11:44:46Z</time>
      </trkpt>
      <trkpt lat="44.31589" lon="5.38116">
        <ele>812.4</ele>
        <time>2019-04-15T11:44:50Z</time>
      </trkpt>
      <trkpt lat="44.31568" lon="5.38136">
        <ele>811.6</ele>
        <time>2019-04-15T11:44:54Z</time>
      </trkpt>
      <trkpt lat="44.31544" lon="5.38154">
        <ele>810.2</ele>
        <time>2019-04-15T11:44:58Z</time>
      </trkpt>
      <trkpt lat="44.31519" lon="5.3817">
        <ele>808.8</ele>
        <time>2019-04-15T11:45:02Z</time>
      </trkpt>
      <trkpt lat="44.31492" lon="5.3818">
        <ele>807.8</ele>
        <time>2019-04-15T11:45:06Z</time>
      </trkpt>
      <trkpt lat="44.31461" lon="5.38187">
        <ele>808.6</ele>
        <time>2019-04-15T11:45:10Z</time>
      </trkpt>
      <trkpt lat="44.31429" lon="5.38188">
        <ele>806.2</ele>
        <time>2019-04-15T11:45:14Z</time>
      </trkpt>
      <trkpt lat="44.31396" lon="5.38188">
        <ele>804.4</ele>
        <time>2019-04-15T11:45:18Z</time>
      </trkpt>
      <trkpt lat="44.31364" lon="5.38192">
        <ele>803</ele>
        <time>2019-04-15T11:45:22Z</time>
      </trkpt>
      <trkpt lat="44.31337" lon="5.38214">
        <ele>801.4</ele>
        <time>2019-04-15T11:45:26Z</time>
      </trkpt>
      <trkpt lat="44.31317" lon="5.3825">
        <ele>801</ele>
        <time>2019-04-15T11:45:30Z</time>
      </trkpt>
      <trkpt lat="44.31292" lon="5.38257">
        <ele>799.8</ele>
        <time>2019-04-15T11:45:34Z</time>
      </trkpt>
      <trkpt lat="44.31268" lon="5.38237">
        <ele>799.4</ele>
        <time>2019-04-15T11:45:38Z</time>
      </trkpt>
      <trkpt lat="44.31239" lon="5.38237">
        <ele>797.8</ele>
        <time>2019-04-15T11:45:42Z</time>
      </trkpt>
      <trkpt lat="44.31212" lon="5.38257">
        <ele>796.4</ele>
        <time>2019-04-15T11:45:46Z</time>
      </trkpt>
      <trkpt lat="44.31189" lon="5.38288">
        <ele>794.6</ele>
        <time>2019-04-15T11:45:50Z</time>
      </trkpt>
      <trkpt lat="44.31162" lon="5.38316">
        <ele>793.4</ele>
        <time>2019-04-15T11:45:54Z</time>
      </trkpt>
      <trkpt lat="44.31136" lon="5.38346">
        <ele>792.2</ele>
        <time>2019-04-15T11:45:58Z</time>
      </trkpt>
      <trkpt lat="44.31105" lon="5.38358">
        <ele>791</ele>
        <time>2019-04-15T11:46:02Z</time>
      </trkpt>
      <trkpt lat="44.31079" lon="5.38328">
        <ele>789.2</ele>
        <time>2019-04-15T11:46:06Z</time>
      </trkpt>
      <trkpt lat="44.31051" lon="5.38301">
        <ele>787.8</ele>
        <time>2019-04-15T11:46:10Z</time>
      </trkpt>
      <trkpt lat="44.31015" lon="5.383">
        <ele>786.8</ele>
        <time>2019-04-15T11:46:14Z</time>
      </trkpt>
      <trkpt lat="44.30979" lon="5.383">
        <ele>784.8</ele>
        <time>2019-04-15T11:46:18Z</time>
      </trkpt>
      <trkpt lat="44.30946" lon="5.38285">
        <ele>784.6</ele>
        <time>2019-04-15T11:46:22Z</time>
      </trkpt>
      <trkpt lat="44.30911" lon="5.38283">
        <ele>783.4</ele>
        <time>2019-04-15T11:46:26Z</time>
      </trkpt>
      <trkpt lat="44.30878" lon="5.38269">
        <ele>782.2</ele>
        <time>2019-04-15T11:46:30Z</time>
      </trkpt>
      <trkpt lat="44.30849" lon="5.38246">
        <ele>780.6</ele>
        <time>2019-04-15T11:46:34Z</time>
      </trkpt>
      <trkpt lat="44.30817" lon="5.38233">
        <ele>780.2</ele>
        <time>2019-04-15T11:46:38Z</time>
      </trkpt>
      <trkpt lat="44.30787" lon="5.38221">
        <ele>778.8</ele>
        <time>2019-04-15T11:46:42Z</time>
      </trkpt>
      <trkpt lat="44.30756" lon="5.38209">
        <ele>777.8</ele>
        <time>2019-04-15T11:46:46Z</time>
      </trkpt>
      <trkpt lat="44.30725" lon="5.38225">
        <ele>776</ele>
        <time>2019-04-15T11:46:50Z</time>
      </trkpt>
      <trkpt lat="44.30699" lon="5.38262">
        <ele>773.6</ele>
        <time>2019-04-15T11:46:54Z</time>
      </trkpt>
      <trkpt lat="44.30679" lon="5.38308">
        <ele>771.4</ele>
        <time>2019-04-15T11:46:58Z</time>
      </trkpt>
      <trkpt lat="44.30673" lon="5.38365">
        <ele>769</ele>
        <time>2019-04-15T11:47:02Z</time>
      </trkpt>
      <trkpt lat="44.30676" lon="5.38425">
        <ele>767</ele>
        <time>2019-04-15T11:47:06Z</time>
      </trkpt>
      <trkpt lat="44.30672" lon="5.38488">
        <ele>765.2</ele>
        <time>2019-04-15T11:47:10Z</time>
      </trkpt>
      <trkpt lat="44.30662" lon="5.3855">
        <ele>762.2</ele>
        <time>2019-04-15T11:47:14Z</time>
      </trkpt>
      <trkpt lat="44.30631" lon="5.38594">
        <ele>760.4</ele>
        <time>2019-04-15T11:47:18Z</time>
      </trkpt>
      <trkpt lat="44.30616" lon="5.3865">
        <ele>758.4</ele>
        <time>2019-04-15T11:47:22Z</time>
      </trkpt>
      <trkpt lat="44.3061" lon="5.38712">
        <ele>756.2</ele>
        <time>2019-04-15T11:47:26Z</time>
      </trkpt>
      <trkpt lat="44.30592" lon="5.38771">
        <ele>754.6</ele>
        <time>2019-04-15T11:47:30Z</time>
      </trkpt>
      <trkpt lat="44.30569" lon="5.38827">
        <ele>752</ele>
        <time>2019-04-15T11:47:34Z</time>
      </trkpt>
      <trkpt lat="44.30563" lon="5.38891">
        <ele>750.2</ele>
        <time>2019-04-15T11:47:38Z</time>
      </trkpt>
      <trkpt lat="44.30567" lon="5.38954">
        <ele>747.2</ele>
        <time>2019-04-15T11:47:42Z</time>
      </trkpt>
      <trkpt lat="44.30572" lon="5.39016">
        <ele>744.8</ele>
        <time>2019-04-15T11:47:46Z</time>
      </trkpt>
      <trkpt lat="44.30571" lon="5.39079">
        <ele>742.4</ele>
        <time>2019-04-15T11:47:50Z</time>
      </trkpt>
      <trkpt lat="44.30554" lon="5.3914">
        <ele>739.8</ele>
        <time>2019-04-15T11:47:54Z</time>
      </trkpt>
      <trkpt lat="44.30558" lon="5.39206">
        <ele>737.4</ele>
        <time>2019-04-15T11:47:58Z</time>
      </trkpt>
      <trkpt lat="44.30571" lon="5.3927">
        <ele>734.6</ele>
        <time>2019-04-15T11:48:02Z</time>
      </trkpt>
      <trkpt lat="44.30562" lon="5.39332">
        <ele>732.2</ele>
        <time>2019-04-15T11:48:06Z</time>
      </trkpt>
      <trkpt lat="44.30558" lon="5.39397">
        <ele>729.4</ele>
        <time>2019-04-15T11:48:10Z</time>
      </trkpt>
      <trkpt lat="44.30549" lon="5.39461">
        <ele>727.8</ele>
        <time>2019-04-15T11:48:14Z</time>
      </trkpt>
      <trkpt lat="44.30536" lon="5.39525">
        <ele>724.6</ele>
        <time>2019-04-15T11:48:18Z</time>
      </trkpt>
      <trkpt lat="44.30528" lon="5.39591">
        <ele>721.6</ele>
        <time>2019-04-15T11:48:22Z</time>
      </trkpt>
      <trkpt lat="44.30521" lon="5.39661">
        <ele>718.8</ele>
        <time>2019-04-15T11:48:26Z</time>
      </trkpt>
      <trkpt lat="44.30513" lon="5.39732">
        <ele>715.6</ele>
        <time>2019-04-15T11:48:30Z</time>
      </trkpt>
      <trkpt lat="44.30501" lon="5.39802">
        <ele>713.2</ele>
        <time>2019-04-15T11:48:34Z</time>
      </trkpt>
      <trkpt lat="44.30483" lon="5.3987">
        <ele>710.4</ele>
        <time>2019-04-15T11:48:38Z</time>
      </trkpt>
      <trkpt lat="44.30466" lon="5.39939">
        <ele>708.4</ele>
        <time>2019-04-15T11:48:42Z</time>
      </trkpt>
      <trkpt lat="44.30456" lon="5.40009">
        <ele>706</ele>
        <time>2019-04-15T11:48:46Z</time>
      </trkpt>
      <trkpt lat="44.30464" lon="5.40071">
        <ele>703.6</ele>
        <time>2019-04-15T11:48:50Z</time>
      </trkpt>
      <trkpt lat="44.30447" lon="5.40113">
        <ele>701.4</ele>
        <time>2019-04-15T11:48:54Z</time>
      </trkpt>
      <trkpt lat="44.30419" lon="5.40154">
        <ele>698.6</ele>
        <time>2019-04-15T11:48:58Z</time>
      </trkpt>
      <trkpt lat="44.30403" lon="5.40209">
        <ele>695.2</ele>
        <time>2019-04-15T11:49:02Z</time>
      </trkpt>
      <trkpt lat="44.30393" lon="5.40271">
        <ele>691.8</ele>
        <time>2019-04-15T11:49:06Z</time>
      </trkpt>
      <trkpt lat="44.30379" lon="5.40331">
        <ele>689.4</ele>
        <time>2019-04-15T11:49:10Z</time>
      </trkpt>
      <trkpt lat="44.30363" lon="5.40392">
        <ele>686</ele>
        <time>2019-04-15T11:49:14Z</time>
      </trkpt>
      <trkpt lat="44.30334" lon="5.40443">
        <ele>683.6</ele>
        <time>2019-04-15T11:49:18Z</time>
      </trkpt>
      <trkpt lat="44.30308" lon="5.40494">
        <ele>680.6</ele>
        <time>2019-04-15T11:49:22Z</time>
      </trkpt>
      <trkpt lat="44.30286" lon="5.40548">
        <ele>677.8</ele>
        <time>2019-04-15T11:49:26Z</time>
      </trkpt>
      <trkpt lat="44.30257" lon="5.40595">
        <ele>676</ele>
        <time>2019-04-15T11:49:30Z</time>
      </trkpt>
      <trkpt lat="44.30225" lon="5.40635">
        <ele>673.8</ele>
        <time>2019-04-15T11:49:34Z</time>
      </trkpt>
      <trkpt lat="44.30195" lon="5.40675">
        <ele>671</ele>
        <time>2019-04-15T11:49:38Z</time>
      </trkpt>
      <trkpt lat="44.3017" lon="5.40722">
        <ele>668.8</ele>
        <time>2019-04-15T11:49:42Z</time>
      </trkpt>
      <trkpt lat="44.30147" lon="5.40774">
        <ele>666.6</ele>
        <time>2019-04-15T11:49:46Z</time>
      </trkpt>
      <trkpt lat="44.30124" lon="5.40826">
        <ele>664.4</ele>
        <time>2019-04-15T11:49:50Z</time>
      </trkpt>
      <trkpt lat="44.301" lon="5.40877">
        <ele>661.6</ele>
        <time>2019-04-15T11:49:54Z</time>
      </trkpt>
      <trkpt lat="44.30062" lon="5.40906">
        <ele>658.4</ele>
        <time>2019-04-15T11:49:58Z</time>
      </trkpt>
      <trkpt lat="44.30016" lon="5.40904">
        <ele>655.6</ele>
        <time>2019-04-15T11:50:02Z</time>
      </trkpt>
      <trkpt lat="44.29972" lon="5.40914">
        <ele>653</ele>
        <time>2019-04-15T11:50:06Z</time>
      </trkpt>
      <trkpt lat="44.29932" lon="5.40942">
        <ele>650.6</ele>
        <time>2019-04-15T11:50:10Z</time>
      </trkpt>
      <trkpt lat="44.29888" lon="5.40962">
        <ele>647.8</ele>
        <time>2019-04-15T11:50:14Z</time>
      </trkpt>
      <trkpt lat="44.29843" lon="5.40978">
        <ele>644.8</ele>
        <time>2019-04-15T11:50:18Z</time>
      </trkpt>
      <trkpt lat="44.29803" lon="5.41011">
        <ele>641.6</ele>
        <time>2019-04-15T11:50:22Z</time>
      </trkpt>
      <trkpt lat="44.29767" lon="5.41034">
        <ele>639.2</ele>
        <time>2019-04-15T11:50:26Z</time>
      </trkpt>
      <trkpt lat="44.2973" lon="5.41015">
        <ele>638</ele>
        <time>2019-04-15T11:50:30Z</time>
      </trkpt>
      <trkpt lat="44.29694" lon="5.4099">
        <ele>635.4</ele>
        <time>2019-04-15T11:50:34Z</time>
      </trkpt>
      <trkpt lat="44.29664" lon="5.40956">
        <ele>634.4</ele>
        <time>2019-04-15T11:50:38Z</time>
      </trkpt>
      <trkpt lat="44.29632" lon="5.40935">
        <ele>633.8</ele>
        <time>2019-04-15T11:50:42Z</time>
      </trkpt>
      <trkpt lat="44.29597" lon="5.40934">
        <ele>633</ele>
        <time>2019-04-15T11:50:46Z</time>
      </trkpt>
      <trkpt lat="44.29564" lon="5.40948">
        <ele>632.2</ele>
        <time>2019-04-15T11:50:50Z</time>
      </trkpt>
      <trkpt lat="44.29532" lon="5.40963">
        <ele>630.8</ele>
        <time>2019-04-15T11:50:54Z</time>
      </trkpt>
      <trkpt lat="44.29497" lon="5.40967">
        <ele>630.8</ele>
        <time>2019-04-15T11:50:58Z</time>
      </trkpt>
      <trkpt lat="44.29463" lon="5.40964">
        <ele>630</ele>
        <time>2019-04-15T11:51:02Z</time>
      </trkpt>
      <trkpt lat="44.29429" lon="5.40962">
        <ele>629.6</ele>
        <time>2019-04-15T11:51:06Z</time>
      </trkpt>
      <trkpt lat="44.29395" lon="5.40964">
        <ele>628.8</ele>
        <time>2019-04-15T11:51:10Z</time>
      </trkpt>
      <trkpt lat="44.2937" lon="5.40969">
        <ele>628.2</ele>
        <time>2019-04-15T11:51:14Z</time>
      </trkpt>
      <trkpt lat="44.29359" lon="5.40982">
        <ele>628.8</ele>
        <time>2019-04-15T11:51:18Z</time>
      </trkpt>
      <trkpt lat="44.29354" lon="5.41006">
        <ele>628.2</ele>
        <time>2019-04-15T11:51:22Z</time>
      </trkpt>
      <trkpt lat="44.29348" lon="5.41035">
        <ele>628.8</ele>
        <time>2019-04-15T11:51:26Z</time>
      </trkpt>
      <trkpt lat="44.29337" lon="5.41068">
        <ele>627.6</ele>
        <time>2019-04-15T11:51:30Z</time>
      </trkpt>
      <trkpt lat="44.29325" lon="5.41102">
        <ele>628</ele>
        <time>2019-04-15T11:51:34Z</time>
      </trkpt>
      <trkpt lat="44.29313" lon="5.41139">
        <ele>628.6</ele>
        <time>2019-04-15T11:51:38Z</time>
      </trkpt>
      <trkpt lat="44.29303" lon="5.41178">
        <ele>627.6</ele>
        <time>2019-04-15T11:51:42Z</time>
      </trkpt>
      <trkpt lat="44.29303" lon="5.41222">
        <ele>626</ele>
        <time>2019-04-15T11:51:46Z</time>
      </trkpt>
      <trkpt lat="44.29317" lon="5.41263">
        <ele>625.8</ele>
        <time>2019-04-15T11:51:50Z</time>
      </trkpt>
      <trkpt lat="44.29334" lon="5.41304">
        <ele>624.2</ele>
        <time>2019-04-15T11:51:54Z</time>
      </trkpt>
      <trkpt lat="44.29357" lon="5.4134">
        <ele>622.8</ele>
        <time>2019-04-15T11:51:58Z</time>
      </trkpt>
      <trkpt lat="44.29385" lon="5.41371">
        <ele>621.2</ele>
        <time>2019-04-15T11:52:02Z</time>
      </trkpt>
      <trkpt lat="44.29408" lon="5.41409">
        <ele>619.6</ele>
        <time>2019-04-15T11:52:06Z</time>
      </trkpt>
      <trkpt lat="44.29411" lon="5.41457">
        <ele>619</ele>
        <time>2019-04-15T11:52:10Z</time>
      </trkpt>
      <trkpt lat="44.29402" lon="5.415">
        <ele>619.2</ele>
        <time>2019-04-15T11:52:14Z</time>
      </trkpt>
      <trkpt lat="44.29386" lon="5.4153">
        <ele>620.6</ele>
        <time>2019-04-15T11:52:18Z</time>
      </trkpt>
      <trkpt lat="44.29364" lon="5.41545">
        <ele>622.2</ele>
        <time>2019-04-15T11:52:22Z</time>
      </trkpt>
      <trkpt lat="44.2934" lon="5.41551">
        <ele>623.6</ele>
        <time>2019-04-15T11:52:26Z</time>
      </trkpt>
      <trkpt lat="44.29317" lon="5.41554">
        <ele>624</ele>
        <time>2019-04-15T11:52:30Z</time>
      </trkpt>
      <trkpt lat="44.29294" lon="5.41556">
        <ele>625</ele>
        <time>2019-04-15T11:52:34Z</time>
      </trkpt>
      <trkpt lat="44.29271" lon="5.41558">
        <ele>625.8</ele>
        <time>2019-04-15T11:52:38Z</time>
      </trkpt>
      <trkpt lat="44.29249" lon="5.4156">
        <ele>627</ele>
        <time>2019-04-15T11:52:42Z</time>
      </trkpt>
      <trkpt lat="44.29227" lon="5.41561">
        <ele>628.2</ele>
        <time>2019-04-15T11:52:46Z</time>
      </trkpt>
      <trkpt lat="44.29206" lon="5.41561">
        <ele>628.8</ele>
        <time>2019-04-15T11:52:50Z</time>
      </trkpt>
      <trkpt lat="44.29185" lon="5.41565">
        <ele>630</ele>
        <time>2019-04-15T11:52:54Z</time>
      </trkpt>
      <trkpt lat="44.29165" lon="5.41574">
        <ele>630</ele>
        <time>2019-04-15T11:52:58Z</time>
      </trkpt>
      <trkpt lat="44.29147" lon="5.4159">
        <ele>630.4</ele>
        <time>2019-04-15T11:53:02Z</time>
      </trkpt>
      <trkpt lat="44.29135" lon="5.41614">
        <ele>630.6</ele>
        <time>2019-04-15T11:53:06Z</time>
      </trkpt>
      <trkpt lat="44.29127" lon="5.41642">
        <ele>631.2</ele>
        <time>2019-04-15T11:53:10Z</time>
      </trkpt>
      <trkpt lat="44.2912" lon="5.41672">
        <ele>631.8</ele>
        <time>2019-04-15T11:53:14Z</time>
      </trkpt>
      <trkpt lat="44.29113" lon="5.41704">
        <ele>631</ele>
        <time>2019-04-15T11:53:18Z</time>
      </trkpt>
      <trkpt lat="44.29109" lon="5.41741">
        <ele>630</ele>
        <time>2019-04-15T11:53:22Z</time>
      </trkpt>
      <trkpt lat="44.29119" lon="5.41781">
        <ele>629.2</ele>
        <time>2019-04-15T11:53:26Z</time>
      </trkpt>
      <trkpt lat="44.29141" lon="5.41816">
        <ele>627.6</ele>
        <time>2019-04-15T11:53:30Z</time>
      </trkpt>
      <trkpt lat="44.29154" lon="5.4186">
        <ele>625.8</ele>
        <time>2019-04-15T11:53:34Z</time>
      </trkpt>
      <trkpt lat="44.29151" lon="5.4191">
        <ele>624.2</ele>
        <time>2019-04-15T11:53:38Z</time>
      </trkpt>
      <trkpt lat="44.29134" lon="5.41952">
        <ele>624</ele>
        <time>2019-04-15T11:53:42Z</time>
      </trkpt>
      <trkpt lat="44.29111" lon="5.41987">
        <ele>623.8</ele>
        <time>2019-04-15T11:53:46Z</time>
      </trkpt>
      <trkpt lat="44.2909" lon="5.42021">
        <ele>624</ele>
        <time>2019-04-15T11:53:50Z</time>
      </trkpt>
      <trkpt lat="44.29071" lon="5.42053">
        <ele>624.4</ele>
        <time>2019-04-15T11:53:54Z</time>
      </trkpt>
      <trkpt lat="44.29052" lon="5.42084">
        <ele>625.2</ele>
        <time>2019-04-15T11:53:58Z</time>
      </trkpt>
      <trkpt lat="44.29032" lon="5.42113">
        <ele>625.4</ele>
        <time>2019-04-15T11:54:02Z</time>
      </trkpt>
      <trkpt lat="44.29012" lon="5.42139">
        <ele>626.2</ele>
        <time>2019-04-15T11:54:06Z</time>
      </trkpt>
      <trkpt lat="44.28993" lon="5.42163">
        <ele>626.6</ele>
        <time>2019-04-15T11:54:10Z</time>
      </trkpt>
      <trkpt lat="44.28975" lon="5.42185">
        <ele>627.2</ele>
        <time>2019-04-15T11:54:14Z</time>
      </trkpt>
      <trkpt lat="44.28958" lon="5.42206">
        <ele>628.2</ele>
        <time>2019-04-15T11:54:18Z</time>
      </trkpt>
      <trkpt lat="44.28942" lon="5.42226">
        <ele>629.2</ele>
        <time>2019-04-15T11:54:22Z</time>
      </trkpt>
      <trkpt lat="44.28923" lon="5.42221">
        <ele>629.2</ele>
        <time>2019-04-15T11:54:26Z</time>
      </trkpt>
      <trkpt lat="44.28903" lon="5.42219">
        <ele>629.8</ele>
        <time>2019-04-15T11:54:30Z</time>
      </trkpt>
      <trkpt lat="44.28889" lon="5.42236">
        <ele>630</ele>
        <time>2019-04-15T11:54:34Z</time>
      </trkpt>
      <trkpt lat="44.2888" lon="5.42255">
        <ele>631</ele>
        <time>2019-04-15T11:54:38Z</time>
      </trkpt>
      <trkpt lat="44.2887" lon="5.42276">
        <ele>632</ele>
        <time>2019-04-15T11:54:42Z</time>
      </trkpt>
      <trkpt lat="44.28861" lon="5.42299">
        <ele>632.8</ele>
        <time>2019-04-15T11:54:46Z</time>
      </trkpt>
      <trkpt lat="44.28854" lon="5.42324">
        <ele>634</ele>
        <time>2019-04-15T11:54:50Z</time>
      </trkpt>
      <trkpt lat="44.28847" lon="5.42348">
        <ele>635</ele>
        <time>2019-04-15T11:54:54Z</time>
      </trkpt>
      <trkpt lat="44.28841" lon="5.42371">
        <ele>635.6</ele>
        <time>2019-04-15T11:54:58Z</time>
      </trkpt>
      <trkpt lat="44.28832" lon="5.42384">
        <ele>636.8</ele>
        <time>2019-04-15T11:55:02Z</time>
      </trkpt>
      <trkpt lat="44.28828" lon="5.42373">
        <ele>638.4</ele>
        <time>2019-04-15T11:55:06Z</time>
      </trkpt>
      <trkpt lat="44.28832" lon="5.42353">
        <ele>638.8</ele>
        <time>2019-04-15T11:55:10Z</time>
      </trkpt>
      <trkpt lat="44.28835" lon="5.42331">
        <ele>639.4</ele>
        <time>2019-04-15T11:55:14Z</time>
      </trkpt>
      <trkpt lat="44.28837" lon="5.42307">
        <ele>640</ele>
        <time>2019-04-15T11:55:18Z</time>
      </trkpt>
      <trkpt lat="44.28837" lon="5.42284">
        <ele>641.6</ele>
        <time>2019-04-15T11:55:22Z</time>
      </trkpt>
      <trkpt lat="44.28838" lon="5.42259">
        <ele>642.8</ele>
        <time>2019-04-15T11:55:26Z</time>
      </trkpt>
      <trkpt lat="44.2884" lon="5.42237">
        <ele>643.2</ele>
        <time>2019-04-15T11:55:30Z</time>
      </trkpt>
      <trkpt lat="44.28842" lon="5.42213">
        <ele>645.2</ele>
        <time>2019-04-15T11:55:34Z</time>
      </trkpt>
      <trkpt lat="44.28843" lon="5.42189">
        <ele>646</ele>
        <time>2019-04-15T11:55:38Z</time>
      </trkpt>
      <trkpt lat="44.28844" lon="5.42163">
        <ele>646.6</ele>
        <time>2019-04-15T11:55:42Z</time>
      </trkpt>
      <trkpt lat="44.28847" lon="5.42138">
        <ele>647.4</ele>
        <time>2019-04-15T11:55:46Z</time>
      </trkpt>
      <trkpt lat="44.2885" lon="5.42113">
        <ele>648.8</ele>
        <time>2019-04-15T11:55:50Z</time>
      </trkpt>
      <trkpt lat="44.28851" lon="5.42089">
        <ele>650</ele>
        <time>2019-04-15T11:55:54Z</time>
      </trkpt>
      <trkpt lat="44.28853" lon="5.42066">
        <ele>650.8</ele>
        <time>2019-04-15T11:55:58Z</time>
      </trkpt>
      <trkpt lat="44.28855" lon="5.42042">
        <ele>651.8</ele>
        <time>2019-04-15T11:56:02Z</time>
      </trkpt>
      <trkpt lat="44.28857" lon="5.42019">
        <ele>652.4</ele>
        <time>2019-04-15T11:56:06Z</time>
      </trkpt>
      <trkpt lat="44.28859" lon="5.41997">
        <ele>653.2</ele>
        <time>2019-04-15T11:56:10Z</time>
      </trkpt>
      <trkpt lat="44.28862" lon="5.41976">
        <ele>654</ele>
        <time>2019-04-15T11:56:14Z</time>
      </trkpt>
      <trkpt lat="44.28862" lon="5.41953">
        <ele>654.8</ele>
        <time>2019-04-15T11:56:18Z</time>
      </trkpt>
      <trkpt lat="44.28862" lon="5.4193">
        <ele>655</ele>
        <time>2019-04-15T11:56:22Z</time>
      </trkpt>
      <trkpt lat="44.28864" lon="5.41908">
        <ele>655.4</ele>
        <time>2019-04-15T11:56:26Z</time>
      </trkpt>
      <trkpt lat="44.28866" lon="5.41885">
        <ele>657</ele>
        <time>2019-04-15T11:56:30Z</time>
      </trkpt>
      <trkpt lat="44.28866" lon="5.41863">
        <ele>657.8</ele>
        <time>2019-04-15T11:56:34Z</time>
      </trkpt>
      <trkpt lat="44.28867" lon="5.4184">
        <ele>658.6</ele>
        <time>2019-04-15T11:56:38Z</time>
      </trkpt>
      <trkpt lat="44.28868" lon="5.41818">
        <ele>660</ele>
        <time>2019-04-15T11:56:42Z</time>
      </trkpt>
      <trkpt lat="44.28869" lon="5.41795">
        <ele>661</ele>
        <time>2019-04-15T11:56:46Z</time>
      </trkpt>
      <trkpt lat="44.2887" lon="5.41773">
        <ele>661.8</ele>
        <time>2019-04-15T11:56:50Z</time>
      </trkpt>
      <trkpt lat="44.28872" lon="5.41751">
        <ele>663</ele>
        <time>2019-04-15T11:56:54Z</time>
      </trkpt>
      <trkpt lat="44.28874" lon="5.41729">
        <ele>663.2</ele>
        <time>2019-04-15T11:56:58Z</time>
      </trkpt>
      <trkpt lat="44.28875" lon="5.41706">
        <ele>664.4</ele>
        <time>2019-04-15T11:57:02Z</time>
      </trkpt>
      <trkpt lat="44.28876" lon="5.41685">
        <ele>665.2</ele>
        <time>2019-04-15T11:57:06Z</time>
      </trkpt>
      <trkpt lat="44.28881" lon="5.41664">
        <ele>665.4</ele>
        <time>2019-04-15T11:57:10Z</time>
      </trkpt>
      <trkpt lat="44.28884" lon="5.41641">
        <ele>666</ele>
        <time>2019-04-15T11:57:14Z</time>
      </trkpt>
      <trkpt lat="44.28887" lon="5.41619">
        <ele>666.8</ele>
        <time>2019-04-15T11:57:18Z</time>
      </trkpt>
      <trkpt lat="44.28888" lon="5.41598">
        <ele>667.6</ele>
        <time>2019-04-15T11:57:22Z</time>
      </trkpt>
      <trkpt lat="44.28889" lon="5.41576">
        <ele>668.8</ele>
        <time>2019-04-15T11:57:26Z</time>
      </trkpt>
      <trkpt lat="44.28889" lon="5.41554">
        <ele>668.6</ele>
        <time>2019-04-15T11:57:30Z</time>
      </trkpt>
      <trkpt lat="44.28884" lon="5.41532">
        <ele>669.6</ele>
        <time>2019-04-15T11:57:34Z</time>
      </trkpt>
      <trkpt lat="44.28871" lon="5.41516">
        <ele>669.8</ele>
        <time>2019-04-15T11:57:38Z</time>
      </trkpt>
      <trkpt lat="44.28853" lon="5.41507">
        <ele>670</ele>
        <time>2019-04-15T11:57:42Z</time>
      </trkpt>
      <trkpt lat="44.28834" lon="5.41517">
        <ele>669.4</ele>
        <time>2019-04-15T11:57:46Z</time>
      </trkpt>
      <trkpt lat="44.28818" lon="5.4154">
        <ele>668.6</ele>
        <time>2019-04-15T11:57:50Z</time>
      </trkpt>
      <trkpt lat="44.28804" lon="5.41568">
        <ele>667.4</ele>
        <time>2019-04-15T11:57:54Z</time>
      </trkpt>
      <trkpt lat="44.28788" lon="5.41595">
        <ele>666.6</ele>
        <time>2019-04-15T11:57:58Z</time>
      </trkpt>
      <trkpt lat="44.28771" lon="5.41622">
        <ele>665.8</ele>
        <time>2019-04-15T11:58:02Z</time>
      </trkpt>
      <trkpt lat="44.2875" lon="5.41648">
        <ele>666</ele>
        <time>2019-04-15T11:58:06Z</time>
      </trkpt>
      <trkpt lat="44.28728" lon="5.41672">
        <ele>664.6</ele>
        <time>2019-04-15T11:58:10Z</time>
      </trkpt>
      <trkpt lat="44.28706" lon="5.41695">
        <ele>663.4</ele>
        <time>2019-04-15T11:58:14Z</time>
      </trkpt>
      <trkpt lat="44.28682" lon="5.4172">
        <ele>662.6</ele>
        <time>2019-04-15T11:58:18Z</time>
      </trkpt>
      <trkpt lat="44.28654" lon="5.41741">
        <ele>660.6</ele>
        <time>2019-04-15T11:58:22Z</time>
      </trkpt>
      <trkpt lat="44.28622" lon="5.41752">
        <ele>661.6</ele>
        <time>2019-04-15T11:58:26Z</time>
      </trkpt>
      <trkpt lat="44.28589" lon="5.41763">
        <ele>659.2</ele>
        <time>2019-04-15T11:58:30Z</time>
      </trkpt>
      <trkpt lat="44.28557" lon="5.41777">
        <ele>658</ele>
        <time>2019-04-15T11:58:34Z</time>
      </trkpt>
      <trkpt lat="44.28533" lon="5.41807">
        <ele>656.8</ele>
        <time>2019-04-15T11:58:38Z</time>
      </trkpt>
      <trkpt lat="44.28518" lon="5.4185">
        <ele>656.4</ele>
        <time>2019-04-15T11:58:42Z</time>
      </trkpt>
      <trkpt lat="44.285" lon="5.41891">
        <ele>655.6</ele>
        <time>2019-04-15T11:58:46Z</time>
      </trkpt>
      <trkpt lat="44.28477" lon="5.41928">
        <ele>655.2</ele>
        <time>2019-04-15T11:58:50Z</time>
      </trkpt>
      <trkpt lat="44.28448" lon="5.41955">
        <ele>653</ele>
        <time>2019-04-15T11:58:54Z</time>
      </trkpt>
      <trkpt lat="44.28413" lon="5.41971">
        <ele>652.6</ele>
        <time>2019-04-15T11:58:58Z</time>
      </trkpt>
      <trkpt lat="44.28378" lon="5.4198">
        <ele>651</ele>
        <time>2019-04-15T11:59:02Z</time>
      </trkpt>
      <trkpt lat="44.28343" lon="5.41979">
        <ele>651.4</ele>
        <time>2019-04-15T11:59:06Z</time>
      </trkpt>
      <trkpt lat="44.28309" lon="5.41977">
        <ele>649</ele>
        <time>2019-04-15T11:59:10Z</time>
      </trkpt>
      <trkpt lat="44.28274" lon="5.41972">
        <ele>647.8</ele>
        <time>2019-04-15T11:59:14Z</time>
      </trkpt>
      <trkpt lat="44.28235" lon="5.4197">
        <ele>647</ele>
        <time>2019-04-15T11:59:18Z</time>
      </trkpt>
      <trkpt lat="44.28193" lon="5.41968">
        <ele>644.2</ele>
        <time>2019-04-15T11:59:22Z</time>
      </trkpt>
      <trkpt lat="44.2815" lon="5.41957">
        <ele>641.6</ele>
        <time>2019-04-15T11:59:26Z</time>
      </trkpt>
      <trkpt lat="44.28115" lon="5.41945">
        <ele>643.6</ele>
        <time>2019-04-15T11:59:30Z</time>
      </trkpt>
      <trkpt lat="44.28088" lon="5.41937">
        <ele>645</ele>
        <time>2019-04-15T11:59:34Z</time>
      </trkpt>
      <trkpt lat="44.28065" lon="5.4193">
        <ele>646.2</ele>
        <time>2019-04-15T11:59:38Z</time>
      </trkpt>
      <trkpt lat="44.28044" lon="5.41923">
        <ele>648.2</ele>
        <time>2019-04-15T11:59:42Z</time>
      </trkpt>
      <trkpt lat="44.28025" lon="5.4192">
        <ele>649.2</ele>
        <time>2019-04-15T11:59:46Z</time>
      </trkpt>
      <trkpt lat="44.28007" lon="5.41928">
        <ele>650.8</ele>
        <time>2019-04-15T11:59:50Z</time>
      </trkpt>
      <trkpt lat="44.27991" lon="5.41941">
        <ele>652</ele>
        <time>2019-04-15T11:59:54Z</time>
      </trkpt>
      <trkpt lat="44.27976" lon="5.41952">
        <ele>653</ele>
        <time>2019-04-15T11:59:58Z</time>
      </trkpt>
      <trkpt lat="44.2796" lon="5.41961">
        <ele>655.2</ele>
        <time>2019-04-15T12:00:02Z</time>
      </trkpt>
      <trkpt lat="44.27947" lon="5.41967">
        <ele>656.2</ele>
        <time>2019-04-15T12:00:06Z</time>
      </trkpt>
      <trkpt lat="44.27935" lon="5.41973">
        <ele>657.4</ele>
        <time>2019-04-15T12:00:10Z</time>
      </trkpt>
      <trkpt lat="44.27922" lon="5.41978">
        <ele>657.8</ele>
        <time>2019-04-15T12:00:14Z</time>
      </trkpt>
      <trkpt lat="44.27909" lon="5.41983">
        <ele>658</ele>
        <time>2019-04-15T12:00:18Z</time>
      </trkpt>
      <trkpt lat="44.27897" lon="5.41989">
        <ele>658.8</ele>
        <time>2019-04-15T12:00:22Z</time>
      </trkpt>
      <trkpt lat="44.27884" lon="5.41995">
        <ele>660</ele>
        <time>2019-04-15T12:00:26Z</time>
      </trkpt>
      <trkpt lat="44.27872" lon="5.42">
        <ele>660.4</ele>
        <time>2019-04-15T12:00:30Z</time>
      </trkpt>
      <trkpt lat="44.27863" lon="5.4199">
        <ele>661.8</ele>
        <time>2019-04-15T12:00:34Z</time>
      </trkpt>
      <trkpt lat="44.27872" lon="5.41981">
        <ele>662.8</ele>
        <time>2019-04-15T12:00:38Z</time>
      </trkpt>
      <trkpt lat="44.27884" lon="5.41974">
        <ele>663.8</ele>
        <time>2019-04-15T12:00:42Z</time>
      </trkpt>
      <trkpt lat="44.27895" lon="5.41964">
        <ele>664.4</ele>
        <time>2019-04-15T12:00:46Z</time>
      </trkpt>
      <trkpt lat="44.27905" lon="5.41951">
        <ele>665.4</ele>
        <time>2019-04-15T12:00:50Z</time>
      </trkpt>
      <trkpt lat="44.27912" lon="5.41936">
        <ele>666.8</ele>
        <time>2019-04-15T12:00:54Z</time>
      </trkpt>
      <trkpt lat="44.27919" lon="5.4192">
        <ele>667.6</ele>
        <time>2019-04-15T12:00:58Z</time>
      </trkpt>
      <trkpt lat="44.27926" lon="5.41904">
        <ele>668.8</ele>
        <time>2019-04-15T12:01:02Z</time>
      </trkpt>
      <trkpt lat="44.27932" lon="5.41887">
        <ele>669.6</ele>
        <time>2019-04-15T12:01:06Z</time>
      </trkpt>
      <trkpt lat="44.27938" lon="5.41871">
        <ele>671</ele>
        <time>2019-04-15T12:01:10Z</time>
      </trkpt>
      <trkpt lat="44.27944" lon="5.41854">
        <ele>671.4</ele>
        <time>2019-04-15T12:01:14Z</time>
      </trkpt>
      <trkpt lat="44.27948" lon="5.41836">
        <ele>672.2</ele>
        <time>2019-04-15T12:01:18Z</time>
      </trkpt>
      <trkpt lat="44.27951" lon="5.41819">
        <ele>673.2</ele>
        <time>2019-04-15T12:01:22Z</time>
      </trkpt>
      <trkpt lat="44.27951" lon="5.418">
        <ele>673.6</ele>
        <time>2019-04-15T12:01:26Z</time>
      </trkpt>
      <trkpt lat="44.27951" lon="5.41782">
        <ele>674.8</ele>
        <time>2019-04-15T12:01:30Z</time>
      </trkpt>
      <trkpt lat="44.27946" lon="5.41766">
        <ele>676.2</ele>
        <time>2019-04-15T12:01:34Z</time>
      </trkpt>
      <trkpt lat="44.27935" lon="5.41765">
        <ele>677.4</ele>
        <time>2019-04-15T12:01:38Z</time>
      </trkpt>
      <trkpt lat="44.27931" lon="5.41783">
        <ele>678</ele>
        <time>2019-04-15T12:01:42Z</time>
      </trkpt>
      <trkpt lat="44.27929" lon="5.41803">
        <ele>678.6</ele>
        <time>2019-04-15T12:01:46Z</time>
      </trkpt>
      <trkpt lat="44.27924" lon="5.4182">
        <ele>679.2</ele>
        <time>2019-04-15T12:01:50Z</time>
      </trkpt>
      <trkpt lat="44.27916" lon="5.41835">
        <ele>680.4</ele>
        <time>2019-04-15T12:01:54Z</time>
      </trkpt>
      <trkpt lat="44.27907" lon="5.41848">
        <ele>681.2</ele>
        <time>2019-04-15T12:01:58Z</time>
      </trkpt>
      <trkpt lat="44.27897" lon="5.41861">
        <ele>682</ele>
        <time>2019-04-15T12:02:02Z</time>
      </trkpt>
      <trkpt lat="44.27886" lon="5.41874">
        <ele>683.4</ele>
        <time>2019-04-15T12:02:06Z</time>
      </trkpt>
      <trkpt lat="44.27877" lon="5.41886">
        <ele>684</ele>
        <time>2019-04-15T12:02:10Z</time>
      </trkpt>
      <trkpt lat="44.27866" lon="5.41898">
        <ele>684.8</ele>
        <time>2019-04-15T12:02:14Z</time>
      </trkpt>
      <trkpt lat="44.27855" lon="5.41909">
        <ele>685.6</ele>
        <time>2019-04-15T12:02:18Z</time>
      </trkpt>
      <trkpt lat="44.27844" lon="5.4192">
        <ele>686.6</ele>
        <time>2019-04-15T12:02:22Z</time>
      </trkpt>
      <trkpt lat="44.27832" lon="5.4193">
        <ele>687.6</ele>
        <time>2019-04-15T12:02:26Z</time>
      </trkpt>
      <trkpt lat="44.2782" lon="5.41938">
        <ele>688.4</ele>
        <time>2019-04-15T12:02:30Z</time>
      </trkpt>
      <trkpt lat="44.27808" lon="5.41946">
        <ele>689.2</ele>
        <time>2019-04-15T12:02:34Z</time>
      </trkpt>
      <trkpt lat="44.27794" lon="5.41952">
        <ele>690.2</ele>
        <time>2019-04-15T12:02:38Z</time>
      </trkpt>
      <trkpt lat="44.27782" lon="5.4196">
        <ele>691.2</ele>
        <time>2019-04-15T12:02:42Z</time>
      </trkpt>
      <trkpt lat="44.27769" lon="5.41968">
        <ele>692.4</ele>
        <time>2019-04-15T12:02:46Z</time>
      </trkpt>
      <trkpt lat="44.27756" lon="5.41974">
        <ele>693.4</ele>
        <time>2019-04-15T12:02:50Z</time>
      </trkpt>
      <trkpt lat="44.27742" lon="5.41981">
        <ele>694.4</ele>
        <time>2019-04-15T12:02:54Z</time>
      </trkpt>
      <trkpt lat="44.27727" lon="5.41984">
        <ele>695.6</ele>
        <time>2019-04-15T12:02:58Z</time>
      </trkpt>
      <trkpt lat="44.27713" lon="5.41985">
        <ele>696.2</ele>
        <time>2019-04-15T12:03:02Z</time>
      </trkpt>
      <trkpt lat="44.277" lon="5.41982">
        <ele>697</ele>
        <time>2019-04-15T12:03:06Z</time>
      </trkpt>
      <trkpt lat="44.27686" lon="5.41977">
        <ele>697.8</ele>
        <time>2019-04-15T12:03:10Z</time>
      </trkpt>
      <trkpt lat="44.27673" lon="5.41971">
        <ele>698.8</ele>
        <time>2019-04-15T12:03:14Z</time>
      </trkpt>
      <trkpt lat="44.2766" lon="5.41968">
        <ele>700</ele>
        <time>2019-04-15T12:03:18Z</time>
      </trkpt>
      <trkpt lat="44.27646" lon="5.41964">
        <ele>700.8</ele>
        <time>2019-04-15T12:03:22Z</time>
      </trkpt>
      <trkpt lat="44.27633" lon="5.41958">
        <ele>701.4</ele>
        <time>2019-04-15T12:03:26Z</time>
      </trkpt>
      <trkpt lat="44.2762" lon="5.4195">
        <ele>702.4</ele>
        <time>2019-04-15T12:03:30Z</time>
      </trkpt>
      <trkpt lat="44.27609" lon="5.4194">
        <ele>702.6</ele>
        <time>2019-04-15T12:03:34Z</time>
      </trkpt>
      <trkpt lat="44.27597" lon="5.4193">
        <ele>703.6</ele>
        <time>2019-04-15T12:03:38Z</time>
      </trkpt>
      <trkpt lat="44.27586" lon="5.4192">
        <ele>705</ele>
        <time>2019-04-15T12:03:42Z</time>
      </trkpt>
      <trkpt lat="44.27575" lon="5.41909">
        <ele>706.4</ele>
        <time>2019-04-15T12:03:46Z</time>
      </trkpt>
      <trkpt lat="44.27564" lon="5.41898">
        <ele>707.4</ele>
        <time>2019-04-15T12:03:50Z</time>
      </trkpt>
      <trkpt lat="44.27554" lon="5.41888">
        <ele>708.4</ele>
        <time>2019-04-15T12:03:54Z</time>
      </trkpt>
      <trkpt lat="44.27542" lon="5.41878">
        <ele>709.4</ele>
        <time>2019-04-15T12:03:58Z</time>
      </trkpt>
      <trkpt lat="44.2753" lon="5.4187">
        <ele>710.4</ele>
        <time>2019-04-15T12:04:02Z</time>
      </trkpt>
      <trkpt lat="44.27517" lon="5.41865">
        <ele>711.4</ele>
        <time>2019-04-15T12:04:06Z</time>
      </trkpt>
      <trkpt lat="44.27504" lon="5.41866">
        <ele>711.8</ele>
        <time>2019-04-15T12:04:10Z</time>
      </trkpt>
      <trkpt lat="44.27491" lon="5.41869">
        <ele>713.2</ele>
        <time>2019-04-15T12:04:14Z</time>
      </trkpt>
      <trkpt lat="44.27477" lon="5.41871">
        <ele>714.2</ele>
        <time>2019-04-15T12:04:18Z</time>
      </trkpt>
      <trkpt lat="44.27464" lon="5.41872">
        <ele>715.2</ele>
        <time>2019-04-15T12:04:22Z</time>
      </trkpt>
      <trkpt lat="44.2745" lon="5.41872">
        <ele>715.8</ele>
        <time>2019-04-15T12:04:26Z</time>
      </trkpt>
      <trkpt lat="44.27436" lon="5.41874">
        <ele>716.6</ele>
        <time>2019-04-15T12:04:30Z</time>
      </trkpt>
      <trkpt lat="44.27423" lon="5.41881">
        <ele>717.6</ele>
        <time>2019-04-15T12:04:34Z</time>
      </trkpt>
      <trkpt lat="44.27411" lon="5.41889">
        <ele>718</ele>
        <time>2019-04-15T12:04:38Z</time>
      </trkpt>
      <trkpt lat="44.274" lon="5.41903">
        <ele>718.8</ele>
        <time>2019-04-15T12:04:42Z</time>
      </trkpt>
      <trkpt lat="44.27393" lon="5.41919">
        <ele>719.4</ele>
        <time>2019-04-15T12:04:46Z</time>
      </trkpt>
      <trkpt lat="44.27383" lon="5.41936">
        <ele>720</ele>
        <time>2019-04-15T12:04:50Z</time>
      </trkpt>
      <trkpt lat="44.27371" lon="5.4195">
        <ele>720.6</ele>
        <time>2019-04-15T12:04:54Z</time>
      </trkpt>
      <trkpt lat="44.27358" lon="5.41961">
        <ele>721.2</ele>
        <time>2019-04-15T12:04:58Z</time>
      </trkpt>
      <trkpt lat="44.27346" lon="5.41976">
        <ele>722.2</ele>
        <time>2019-04-15T12:05:02Z</time>
      </trkpt>
      <trkpt lat="44.27334" lon="5.41987">
        <ele>722.8</ele>
        <time>2019-04-15T12:05:06Z</time>
      </trkpt>
      <trkpt lat="44.27321" lon="5.41995">
        <ele>724.2</ele>
        <time>2019-04-15T12:05:10Z</time>
      </trkpt>
      <trkpt lat="44.27308" lon="5.42002">
        <ele>725</ele>
        <time>2019-04-15T12:05:14Z</time>
      </trkpt>
      <trkpt lat="44.27296" lon="5.42012">
        <ele>725.8</ele>
        <time>2019-04-15T12:05:18Z</time>
      </trkpt>
      <trkpt lat="44.27285" lon="5.42022">
        <ele>726.8</ele>
        <time>2019-04-15T12:05:22Z</time>
      </trkpt>
      <trkpt lat="44.27272" lon="5.42031">
        <ele>727.4</ele>
        <time>2019-04-15T12:05:26Z</time>
      </trkpt>
      <trkpt lat="44.27259" lon="5.42039">
        <ele>728.4</ele>
        <time>2019-04-15T12:05:30Z</time>
      </trkpt>
      <trkpt lat="44.27246" lon="5.42045">
        <ele>728.8</ele>
        <time>2019-04-15T12:05:34Z</time>
      </trkpt>
      <trkpt lat="44.27231" lon="5.42047">
        <ele>729.2</ele>
        <time>2019-04-15T12:05:38Z</time>
      </trkpt>
      <trkpt lat="44.27218" lon="5.42045">
        <ele>730.8</ele>
        <time>2019-04-15T12:05:42Z</time>
      </trkpt>
      <trkpt lat="44.27205" lon="5.42038">
        <ele>731.6</ele>
        <time>2019-04-15T12:05:46Z</time>
      </trkpt>
      <trkpt lat="44.27192" lon="5.42035">
        <ele>732.6</ele>
        <time>2019-04-15T12:05:50Z</time>
      </trkpt>
      <trkpt lat="44.2718" lon="5.42042">
        <ele>733.6</ele>
        <time>2019-04-15T12:05:54Z</time>
      </trkpt>
      <trkpt lat="44.27167" lon="5.42052">
        <ele>734.2</ele>
        <time>2019-04-15T12:05:58Z</time>
      </trkpt>
      <trkpt lat="44.27155" lon="5.4206">
        <ele>735.6</ele>
        <time>2019-04-15T12:06:02Z</time>
      </trkpt>
      <trkpt lat="44.27143" lon="5.42067">
        <ele>737.2</ele>
        <time>2019-04-15T12:06:06Z</time>
      </trkpt>
      <trkpt lat="44.2713" lon="5.42073">
        <ele>737.8</ele>
        <time>2019-04-15T12:06:10Z</time>
      </trkpt>
      <trkpt lat="44.27117" lon="5.42076">
        <ele>738.2</ele>
        <time>2019-04-15T12:06:14Z</time>
      </trkpt>
      <trkpt lat="44.27104" lon="5.42081">
        <ele>739</ele>
        <time>2019-04-15T12:06:18Z</time>
      </trkpt>
      <trkpt lat="44.27091" lon="5.42085">
        <ele>740.8</ele>
        <time>2019-04-15T12:06:22Z</time>
      </trkpt>
      <trkpt lat="44.27077" lon="5.42088">
        <ele>742</ele>
        <time>2019-04-15T12:06:26Z</time>
      </trkpt>
      <trkpt lat="44.27064" lon="5.4209">
        <ele>742.6</ele>
        <time>2019-04-15T12:06:30Z</time>
      </trkpt>
      <trkpt lat="44.27053" lon="5.42098">
        <ele>743.2</ele>
        <time>2019-04-15T12:06:34Z</time>
      </trkpt>
      <trkpt lat="44.27045" lon="5.42114">
        <ele>744.2</ele>
        <time>2019-04-15T12:06:38Z</time>
      </trkpt>
      <trkpt lat="44.27039" lon="5.42133">
        <ele>745.4</ele>
        <time>2019-04-15T12:06:42Z</time>
      </trkpt>
      <trkpt lat="44.27033" lon="5.42151">
        <ele>746.2</ele>
        <time>2019-04-15T12:06:46Z</time>
      </trkpt>
      <trkpt lat="44.27028" lon="5.42169">
        <ele>746.2</ele>
        <time>2019-04-15T12:06:50Z</time>
      </trkpt>
      <trkpt lat="44.27024" lon="5.42188">
        <ele>747.4</ele>
        <time>2019-04-15T12:06:54Z</time>
      </trkpt>
      <trkpt lat="44.27018" lon="5.42206">
        <ele>747.8</ele>
        <time>2019-04-15T12:06:58Z</time>
      </trkpt>
      <trkpt lat="44.27012" lon="5.42224">
        <ele>749</ele>
        <time>2019-04-15T12:07:02Z</time>
      </trkpt>
      <trkpt lat="44.27004" lon="5.42242">
        <ele>750.2</ele>
        <time>2019-04-15T12:07:06Z</time>
      </trkpt>
      <trkpt lat="44.26996" lon="5.42258">
        <ele>751.4</ele>
        <time>2019-04-15T12:07:10Z</time>
      </trkpt>
      <trkpt lat="44.26986" lon="5.42271">
        <ele>752.2</ele>
        <time>2019-04-15T12:07:14Z</time>
      </trkpt>
      <trkpt lat="44.26975" lon="5.42283">
        <ele>752.6</ele>
        <time>2019-04-15T12:07:18Z</time>
      </trkpt>
      <trkpt lat="44.26962" lon="5.42294">
        <ele>753.8</ele>
        <time>2019-04-15T12:07:22Z</time>
      </trkpt>
      <trkpt lat="44.26947" lon="5.423">
        <ele>753.4</ele>
        <time>2019-04-15T12:07:26Z</time>
      </trkpt>
      <trkpt lat="44.26931" lon="5.42295">
        <ele>753.8</ele>
        <time>2019-04-15T12:07:30Z</time>
      </trkpt>
      <trkpt lat="44.26916" lon="5.42289">
        <ele>754.8</ele>
        <time>2019-04-15T12:07:34Z</time>
      </trkpt>
      <trkpt lat="44.269" lon="5.4229">
        <ele>755</ele>
        <time>2019-04-15T12:07:38Z</time>
      </trkpt>
      <trkpt lat="44.26883" lon="5.42297">
        <ele>755.4</ele>
        <time>2019-04-15T12:07:42Z</time>
      </trkpt>
      <trkpt lat="44.2687" lon="5.4231">
        <ele>755.6</ele>
        <time>2019-04-15T12:07:46Z</time>
      </trkpt>
      <trkpt lat="44.26858" lon="5.42326">
        <ele>755.2</ele>
        <time>2019-04-15T12:07:50Z</time>
      </trkpt>
      <trkpt lat="44.26846" lon="5.42344">
        <ele>755.6</ele>
        <time>2019-04-15T12:07:54Z</time>
      </trkpt>
      <trkpt lat="44.26834" lon="5.42361">
        <ele>755.8</ele>
        <time>2019-04-15T12:07:58Z</time>
      </trkpt>
      <trkpt lat="44.2682" lon="5.42377">
        <ele>756.4</ele>
        <time>2019-04-15T12:08:02Z</time>
      </trkpt>
      <trkpt lat="44.26805" lon="5.42385">
        <ele>756.4</ele>
        <time>2019-04-15T12:08:06Z</time>
      </trkpt>
      <trkpt lat="44.26788" lon="5.42391">
        <ele>757.2</ele>
        <time>2019-04-15T12:08:10Z</time>
      </trkpt>
      <trkpt lat="44.26773" lon="5.42395">
        <ele>757.8</ele>
        <time>2019-04-15T12:08:14Z</time>
      </trkpt>
      <trkpt lat="44.2676" lon="5.42403">
        <ele>758.6</ele>
        <time>2019-04-15T12:08:18Z</time>
      </trkpt>
      <trkpt lat="44.26746" lon="5.4241">
        <ele>759.2</ele>
        <time>2019-04-15T12:08:22Z</time>
      </trkpt>
      <trkpt lat="44.26732" lon="5.4242">
        <ele>760.4</ele>
        <time>2019-04-15T12:08:26Z</time>
      </trkpt>
      <trkpt lat="44.26719" lon="5.42432">
        <ele>761.2</ele>
        <time>2019-04-15T12:08:30Z</time>
      </trkpt>
      <trkpt lat="44.26706" lon="5.42443">
        <ele>761.6</ele>
        <time>2019-04-15T12:08:34Z</time>
      </trkpt>
      <trkpt lat="44.26693" lon="5.42456">
        <ele>762.8</ele>
        <time>2019-04-15T12:08:38Z</time>
      </trkpt>
      <trkpt lat="44.26681" lon="5.4247">
        <ele>763.8</ele>
        <time>2019-04-15T12:08:42Z</time>
      </trkpt>
      <trkpt lat="44.26668" lon="5.42483">
        <ele>765</ele>
        <time>2019-04-15T12:08:46Z</time>
      </trkpt>
      <trkpt lat="44.26656" lon="5.42497">
        <ele>766</ele>
        <time>2019-04-15T12:08:50Z</time>
      </trkpt>
      <trkpt lat="44.26644" lon="5.42509">
        <ele>766</ele>
        <time>2019-04-15T12:08:54Z</time>
      </trkpt>
      <trkpt lat="44.26632" lon="5.42523">
        <ele>767.4</ele>
        <time>2019-04-15T12:08:58Z</time>
      </trkpt>
      <trkpt lat="44.26621" lon="5.42536">
        <ele>768</ele>
        <time>2019-04-15T12:09:02Z</time>
      </trkpt>
      <trkpt lat="44.26608" lon="5.42548">
        <ele>768.4</ele>
        <time>2019-04-15T12:09:06Z</time>
      </trkpt>
      <trkpt lat="44.26596" lon="5.42563">
        <ele>769</ele>
        <time>2019-04-15T12:09:10Z</time>
      </trkpt>
      <trkpt lat="44.26585" lon="5.42579">
        <ele>769.6</ele>
        <time>2019-04-15T12:09:14Z</time>
      </trkpt>
      <trkpt lat="44.26574" lon="5.42594">
        <ele>769.8</ele>
        <time>2019-04-15T12:09:18Z</time>
      </trkpt>
      <trkpt lat="44.26562" lon="5.42611">
        <ele>770.2</ele>
        <time>2019-04-15T12:09:22Z</time>
      </trkpt>
      <trkpt lat="44.2655" lon="5.42628">
        <ele>771.2</ele>
        <time>2019-04-15T12:09:26Z</time>
      </trkpt>
      <trkpt lat="44.26538" lon="5.42646">
        <ele>771</ele>
        <time>2019-04-15T12:09:30Z</time>
      </trkpt>
      <trkpt lat="44.26525" lon="5.42662">
        <ele>771.4</ele>
        <time>2019-04-15T12:09:34Z</time>
      </trkpt>
      <trkpt lat="44.26511" lon="5.42679">
        <ele>771.4</ele>
        <time>2019-04-15T12:09:38Z</time>
      </trkpt>
      <trkpt lat="44.26498" lon="5.42696">
        <ele>771.6</ele>
        <time>2019-04-15T12:09:42Z</time>
      </trkpt>
      <trkpt lat="44.26484" lon="5.42713">
        <ele>771.8</ele>
        <time>2019-04-15T12:09:46Z</time>
      </trkpt>
      <trkpt lat="44.26472" lon="5.42732">
        <ele>772.6</ele>
        <time>2019-04-15T12:09:50Z</time>
      </trkpt>
      <trkpt lat="44.2646" lon="5.42752">
        <ele>773.8</ele>
        <time>2019-04-15T12:09:54Z</time>
      </trkpt>
      <trkpt lat="44.26447" lon="5.42772">
        <ele>774.4</ele>
        <time>2019-04-15T12:09:58Z</time>
      </trkpt>
      <trkpt lat="44.26434" lon="5.42792">
        <ele>776</ele>
        <time>2019-04-15T12:10:02Z</time>
      </trkpt>
      <trkpt lat="44.2642" lon="5.42811">
        <ele>776.2</ele>
        <time>2019-04-15T12:10:06Z</time>
      </trkpt>
      <trkpt lat="44.26405" lon="5.42828">
        <ele>776.8</ele>
        <time>2019-04-15T12:10:10Z</time>
      </trkpt>
      <trkpt lat="44.2639" lon="5.42843">
        <ele>777.4</ele>
        <time>2019-04-15T12:10:14Z</time>
      </trkpt>
      <trkpt lat="44.26375" lon="5.42859">
        <ele>777.8</ele>
        <time>2019-04-15T12:10:18Z</time>
      </trkpt>
      <trkpt lat="44.2636" lon="5.42877">
        <ele>777.8</ele>
        <time>2019-04-15T12:10:22Z</time>
      </trkpt>
      <trkpt lat="44.26346" lon="5.42894">
        <ele>778</ele>
        <time>2019-04-15T12:10:26Z</time>
      </trkpt>
      <trkpt lat="44.26332" lon="5.42912">
        <ele>779.4</ele>
        <time>2019-04-15T12:10:30Z</time>
      </trkpt>
      <trkpt lat="44.26318" lon="5.42931">
        <ele>778.8</ele>
        <time>2019-04-15T12:10:34Z</time>
      </trkpt>
      <trkpt lat="44.26303" lon="5.42948">
        <ele>779.2</ele>
        <time>2019-04-15T12:10:38Z</time>
      </trkpt>
      <trkpt lat="44.26285" lon="5.4296">
        <ele>779.2</ele>
        <time>2019-04-15T12:10:42Z</time>
      </trkpt>
      <trkpt lat="44.26266" lon="5.42967">
        <ele>779.6</ele>
        <time>2019-04-15T12:10:46Z</time>
      </trkpt>
      <trkpt lat="44.26247" lon="5.42969">
        <ele>779.6</ele>
        <time>2019-04-15T12:10:50Z</time>
      </trkpt>
      <trkpt lat="44.26227" lon="5.4297">
        <ele>780.2</ele>
        <time>2019-04-15T12:10:54Z</time>
      </trkpt>
      <trkpt lat="44.26208" lon="5.42972">
        <ele>780.2</ele>
        <time>2019-04-15T12:10:58Z</time>
      </trkpt>
      <trkpt lat="44.2619" lon="5.42972">
        <ele>781.4</ele>
        <time>2019-04-15T12:11:02Z</time>
      </trkpt>
      <trkpt lat="44.26171" lon="5.42973">
        <ele>780.8</ele>
        <time>2019-04-15T12:11:06Z</time>
      </trkpt>
      <trkpt lat="44.26152" lon="5.42976">
        <ele>780.8</ele>
        <time>2019-04-15T12:11:10Z</time>
      </trkpt>
      <trkpt lat="44.26134" lon="5.42981">
        <ele>781.6</ele>
        <time>2019-04-15T12:11:14Z</time>
      </trkpt>
      <trkpt lat="44.26117" lon="5.42986">
        <ele>783</ele>
        <time>2019-04-15T12:11:18Z</time>
      </trkpt>
      <trkpt lat="44.26099" lon="5.42992">
        <ele>783.2</ele>
        <time>2019-04-15T12:11:22Z</time>
      </trkpt>
      <trkpt lat="44.26082" lon="5.42999">
        <ele>783.2</ele>
        <time>2019-04-15T12:11:26Z</time>
      </trkpt>
      <trkpt lat="44.26067" lon="5.43009">
        <ele>784</ele>
        <time>2019-04-15T12:11:30Z</time>
      </trkpt>
      <trkpt lat="44.2605" lon="5.43021">
        <ele>783.8</ele>
        <time>2019-04-15T12:11:34Z</time>
      </trkpt>
      <trkpt lat="44.26033" lon="5.43036">
        <ele>783.4</ele>
        <time>2019-04-15T12:11:38Z</time>
      </trkpt>
      <trkpt lat="44.26015" lon="5.43051">
        <ele>783.6</ele>
        <time>2019-04-15T12:11:42Z</time>
      </trkpt>
      <trkpt lat="44.25996" lon="5.43065">
        <ele>783</ele>
        <time>2019-04-15T12:11:46Z</time>
      </trkpt>
      <trkpt lat="44.25978" lon="5.4308">
        <ele>784</ele>
        <time>2019-04-15T12:11:50Z</time>
      </trkpt>
      <trkpt lat="44.25962" lon="5.43093">
        <ele>783.8</ele>
        <time>2019-04-15T12:11:54Z</time>
      </trkpt>
      <trkpt lat="44.25946" lon="5.43109">
        <ele>784.4</ele>
        <time>2019-04-15T12:11:58Z</time>
      </trkpt>
      <trkpt lat="44.2593" lon="5.43126">
        <ele>785.4</ele>
        <time>2019-04-15T12:12:02Z</time>
      </trkpt>
      <trkpt lat="44.25915" lon="5.43148">
        <ele>785.6</ele>
        <time>2019-04-15T12:12:06Z</time>
      </trkpt>
      <trkpt lat="44.25902" lon="5.43171">
        <ele>786.4</ele>
        <time>2019-04-15T12:12:10Z</time>
      </trkpt>
      <trkpt lat="44.25887" lon="5.43193">
        <ele>786.8</ele>
        <time>2019-04-15T12:12:14Z</time>
      </trkpt>
      <trkpt lat="44.25873" lon="5.43215">
        <ele>787.4</ele>
        <time>2019-04-15T12:12:18Z</time>
      </trkpt>
      <trkpt lat="44.2586" lon="5.43237">
        <ele>788.4</ele>
        <time>2019-04-15T12:12:22Z</time>
      </trkpt>
      <trkpt lat="44.2585" lon="5.43262">
        <ele>788.8</ele>
        <time>2019-04-15T12:12:26Z</time>
      </trkpt>
      <trkpt lat="44.25841" lon="5.43288">
        <ele>788.8</ele>
        <time>2019-04-15T12:12:30Z</time>
      </trkpt>
      <trkpt lat="44.25833" lon="5.43316">
        <ele>788.8</ele>
        <time>2019-04-15T12:12:34Z</time>
      </trkpt>
      <trkpt lat="44.25825" lon="5.43345">
        <ele>789</ele>
        <time>2019-04-15T12:12:38Z</time>
      </trkpt>
      <trkpt lat="44.25817" lon="5.43373">
        <ele>789.6</ele>
        <time>2019-04-15T12:12:42Z</time>
      </trkpt>
      <trkpt lat="44.25808" lon="5.43401">
        <ele>789.2</ele>
        <time>2019-04-15T12:12:46Z</time>
      </trkpt>
      <trkpt lat="44.25801" lon="5.43428">
        <ele>789.4</ele>
        <time>2019-04-15T12:12:50Z</time>
      </trkpt>
      <trkpt lat="44.25793" lon="5.43453">
        <ele>789.2</ele>
        <time>2019-04-15T12:12:54Z</time>
      </trkpt>
      <trkpt lat="44.25785" lon="5.43479">
        <ele>789</ele>
        <time>2019-04-15T12:12:58Z</time>
      </trkpt>
      <trkpt lat="44.25777" lon="5.43506">
        <ele>788.8</ele>
        <time>2019-04-15T12:13:02Z</time>
      </trkpt>
      <trkpt lat="44.25769" lon="5.43534">
        <ele>788.8</ele>
        <time>2019-04-15T12:13:06Z</time>
      </trkpt>
      <trkpt lat="44.25761" lon="5.43562">
        <ele>789.4</ele>
        <time>2019-04-15T12:13:10Z</time>
      </trkpt>
      <trkpt lat="44.25753" lon="5.43589">
        <ele>789.4</ele>
        <time>2019-04-15T12:13:14Z</time>
      </trkpt>
      <trkpt lat="44.25745" lon="5.43615">
        <ele>789.2</ele>
        <time>2019-04-15T12:13:18Z</time>
      </trkpt>
      <trkpt lat="44.25736" lon="5.43642">
        <ele>789.4</ele>
        <time>2019-04-15T12:13:22Z</time>
      </trkpt>
      <trkpt lat="44.25726" lon="5.43668">
        <ele>789.8</ele>
        <time>2019-04-15T12:13:26Z</time>
      </trkpt>
      <trkpt lat="44.25715" lon="5.43694">
        <ele>789.4</ele>
        <time>2019-04-15T12:13:30Z</time>
      </trkpt>
      <trkpt lat="44.25704" lon="5.43718">
        <ele>789.6</ele>
        <time>2019-04-15T12:13:34Z</time>
      </trkpt>
      <trkpt lat="44.25694" lon="5.43742">
        <ele>790.4</ele>
        <time>2019-04-15T12:13:38Z</time>
      </trkpt>
      <trkpt lat="44.25682" lon="5.43766">
        <ele>789.2</ele>
        <time>2019-04-15T12:13:42Z</time>
      </trkpt>
      <trkpt lat="44.25671" lon="5.4379">
        <ele>789.8</ele>
        <time>2019-04-15T12:13:46Z</time>
      </trkpt>
      <trkpt lat="44.2566" lon="5.43814">
        <ele>790</ele>
        <time>2019-04-15T12:13:50Z</time>
      </trkpt>
      <trkpt lat="44.25648" lon="5.43838">
        <ele>790.2</ele>
        <time>2019-04-15T12:13:54Z</time>
      </trkpt>
      <trkpt lat="44.25637" lon="5.43863">
        <ele>790.6</ele>
        <time>2019-04-15T12:13:58Z</time>
      </trkpt>
      <trkpt lat="44.25626" lon="5.43889">
        <ele>791</ele>
        <time>2019-04-15T12:14:02Z</time>
      </trkpt>
      <trkpt lat="44.25613" lon="5.43914">
        <ele>791.2</ele>
        <time>2019-04-15T12:14:06Z</time>
      </trkpt>
      <trkpt lat="44.25601" lon="5.43939">
        <ele>791.8</ele>
        <time>2019-04-15T12:14:10Z</time>
      </trkpt>
      <trkpt lat="44.25587" lon="5.43962">
        <ele>792.4</ele>
        <time>2019-04-15T12:14:14Z</time>
      </trkpt>
      <trkpt lat="44.25572" lon="5.43984">
        <ele>793</ele>
        <time>2019-04-15T12:14:18Z</time>
      </trkpt>
      <trkpt lat="44.25558" lon="5.44007">
        <ele>793</ele>
        <time>2019-04-15T12:14:22Z</time>
      </trkpt>
      <trkpt lat="44.25544" lon="5.44029">
        <ele>794</ele>
        <time>2019-04-15T12:14:26Z</time>
      </trkpt>
      <trkpt lat="44.2553" lon="5.44051">
        <ele>794.2</ele>
        <time>2019-04-15T12:14:30Z</time>
      </trkpt>
      <trkpt lat="44.25516" lon="5.44072">
        <ele>794.2</ele>
        <time>2019-04-15T12:14:34Z</time>
      </trkpt>
      <trkpt lat="44.25502" lon="5.44093">
        <ele>794.6</ele>
        <time>2019-04-15T12:14:38Z</time>
      </trkpt>
      <trkpt lat="44.25489" lon="5.44115">
        <ele>794.8</ele>
        <time>2019-04-15T12:14:42Z</time>
      </trkpt>
      <trkpt lat="44.25474" lon="5.44136">
        <ele>795</ele>
        <time>2019-04-15T12:14:46Z</time>
      </trkpt>
      <trkpt lat="44.25458" lon="5.44153">
        <ele>796.4</ele>
        <time>2019-04-15T12:14:50Z</time>
      </trkpt>
      <trkpt lat="44.25442" lon="5.44166">
        <ele>797</ele>
        <time>2019-04-15T12:14:54Z</time>
      </trkpt>
      <trkpt lat="44.25426" lon="5.44176">
        <ele>797.2</ele>
        <time>2019-04-15T12:14:58Z</time>
      </trkpt>
      <trkpt lat="44.2541" lon="5.44186">
        <ele>798.2</ele>
        <time>2019-04-15T12:15:02Z</time>
      </trkpt>
      <trkpt lat="44.25393" lon="5.44195">
        <ele>799.8</ele>
        <time>2019-04-15T12:15:06Z</time>
      </trkpt>
      <trkpt lat="44.25377" lon="5.44204">
        <ele>798.8</ele>
        <time>2019-04-15T12:15:10Z</time>
      </trkpt>
      <trkpt lat="44.2536" lon="5.44213">
        <ele>799.2</ele>
        <time>2019-04-15T12:15:14Z</time>
      </trkpt>
      <trkpt lat="44.25344" lon="5.44223">
        <ele>799.6</ele>
        <time>2019-04-15T12:15:18Z</time>
      </trkpt>
      <trkpt lat="44.25327" lon="5.44232">
        <ele>799.6</ele>
        <time>2019-04-15T12:15:22Z</time>
      </trkpt>
      <trkpt lat="44.2531" lon="5.44242">
        <ele>800.2</ele>
        <time>2019-04-15T12:15:26Z</time>
      </trkpt>
      <trkpt lat="44.25295" lon="5.44252">
        <ele>800.8</ele>
        <time>2019-04-15T12:15:30Z</time>
      </trkpt>
      <trkpt lat="44.2528" lon="5.44264">
        <ele>801.2</ele>
        <time>2019-04-15T12:15:34Z</time>
      </trkpt>
      <trkpt lat="44.25266" lon="5.4428">
        <ele>801.8</ele>
        <time>2019-04-15T12:15:38Z</time>
      </trkpt>
      <trkpt lat="44.25251" lon="5.44296">
        <ele>802.4</ele>
        <time>2019-04-15T12:15:42Z</time>
      </trkpt>
      <trkpt lat="44.25235" lon="5.44308">
        <ele>804.4</ele>
        <time>2019-04-15T12:15:46Z</time>
      </trkpt>
      <trkpt lat="44.25219" lon="5.44315">
        <ele>803.6</ele>
        <time>2019-04-15T12:15:50Z</time>
      </trkpt>
      <trkpt lat="44.25202" lon="5.44316">
        <ele>804.4</ele>
        <time>2019-04-15T12:15:54Z</time>
      </trkpt>
      <trkpt lat="44.25185" lon="5.44317">
        <ele>804.8</ele>
        <time>2019-04-15T12:15:58Z</time>
      </trkpt>
      <trkpt lat="44.25166" lon="5.44326">
        <ele>804.2</ele>
        <time>2019-04-15T12:16:02Z</time>
      </trkpt>
      <trkpt lat="44.25143" lon="5.44329">
        <ele>803.4</ele>
        <time>2019-04-15T12:16:06Z</time>
      </trkpt>
      <trkpt lat="44.25121" lon="5.4431">
        <ele>803</ele>
        <time>2019-04-15T12:16:10Z</time>
      </trkpt>
      <trkpt lat="44.25099" lon="5.44287">
        <ele>802.2</ele>
        <time>2019-04-15T12:16:14Z</time>
      </trkpt>
      <trkpt lat="44.25079" lon="5.44265">
        <ele>802</ele>
        <time>2019-04-15T12:16:18Z</time>
      </trkpt>
      <trkpt lat="44.2506" lon="5.44245">
        <ele>802.6</ele>
        <time>2019-04-15T12:16:22Z</time>
      </trkpt>
      <trkpt lat="44.25041" lon="5.44225">
        <ele>802.8</ele>
        <time>2019-04-15T12:16:26Z</time>
      </trkpt>
      <trkpt lat="44.25024" lon="5.44206">
        <ele>803.8</ele>
        <time>2019-04-15T12:16:30Z</time>
      </trkpt>
      <trkpt lat="44.25007" lon="5.4419">
        <ele>804.8</ele>
        <time>2019-04-15T12:16:34Z</time>
      </trkpt>
      <trkpt lat="44.24989" lon="5.44175">
        <ele>805.4</ele>
        <time>2019-04-15T12:16:38Z</time>
      </trkpt>
      <trkpt lat="44.24972" lon="5.44162">
        <ele>806</ele>
        <time>2019-04-15T12:16:42Z</time>
      </trkpt>
      <trkpt lat="44.24953" lon="5.44152">
        <ele>806.8</ele>
        <time>2019-04-15T12:16:46Z</time>
      </trkpt>
      <trkpt lat="44.24934" lon="5.44147">
        <ele>807.2</ele>
        <time>2019-04-15T12:16:50Z</time>
      </trkpt>
      <trkpt lat="44.24914" lon="5.44147">
        <ele>807.6</ele>
        <time>2019-04-15T12:16:54Z</time>
      </trkpt>
      <trkpt lat="44.24895" lon="5.44143">
        <ele>807.6</ele>
        <time>2019-04-15T12:16:58Z</time>
      </trkpt>
      <trkpt lat="44.24878" lon="5.44132">
        <ele>809</ele>
        <time>2019-04-15T12:17:02Z</time>
      </trkpt>
      <trkpt lat="44.24862" lon="5.44115">
        <ele>809.6</ele>
        <time>2019-04-15T12:17:06Z</time>
      </trkpt>
      <trkpt lat="44.24846" lon="5.44098">
        <ele>811</ele>
        <time>2019-04-15T12:17:10Z</time>
      </trkpt>
      <trkpt lat="44.2483" lon="5.44082">
        <ele>810.8</ele>
        <time>2019-04-15T12:17:14Z</time>
      </trkpt>
      <trkpt lat="44.24812" lon="5.44067">
        <ele>811.6</ele>
        <time>2019-04-15T12:17:18Z</time>
      </trkpt>
      <trkpt lat="44.24796" lon="5.44051">
        <ele>812.4</ele>
        <time>2019-04-15T12:17:22Z</time>
      </trkpt>
      <trkpt lat="44.24778" lon="5.44036">
        <ele>812.6</ele>
        <time>2019-04-15T12:17:26Z</time>
      </trkpt>
      <trkpt lat="44.24761" lon="5.44022">
        <ele>813.4</ele>
        <time>2019-04-15T12:17:30Z</time>
      </trkpt>
      <trkpt lat="44.24744" lon="5.44008">
        <ele>814.8</ele>
        <time>2019-04-15T12:17:34Z</time>
      </trkpt>
      <trkpt lat="44.24726" lon="5.43997">
        <ele>815.2</ele>
        <time>2019-04-15T12:17:38Z</time>
      </trkpt>
      <trkpt lat="44.24708" lon="5.4399">
        <ele>816.2</ele>
        <time>2019-04-15T12:17:42Z</time>
      </trkpt>
      <trkpt lat="44.2469" lon="5.43986">
        <ele>816.8</ele>
        <time>2019-04-15T12:17:46Z</time>
      </trkpt>
      <trkpt lat="44.24672" lon="5.43982">
        <ele>816.8</ele>
        <time>2019-04-15T12:17:50Z</time>
      </trkpt>
      <trkpt lat="44.24653" lon="5.43977">
        <ele>816.4</ele>
        <time>2019-04-15T12:17:54Z</time>
      </trkpt>
      <trkpt lat="44.24634" lon="5.43972">
        <ele>817</ele>
        <time>2019-04-15T12:17:58Z</time>
      </trkpt>
      <trkpt lat="44.24614" lon="5.43968">
        <ele>817.6</ele>
        <time>2019-04-15T12:18:02Z</time>
      </trkpt>
      <trkpt lat="44.24596" lon="5.43965">
        <ele>817.6</ele>
        <time>2019-04-15T12:18:06Z</time>
      </trkpt>
      <trkpt lat="44.24578" lon="5.43961">
        <ele>819.4</ele>
        <time>2019-04-15T12:18:10Z</time>
      </trkpt>
      <trkpt lat="44.24559" lon="5.43958">
        <ele>819.4</ele>
        <time>2019-04-15T12:18:14Z</time>
      </trkpt>
      <trkpt lat="44.24541" lon="5.43955">
        <ele>821.6</ele>
        <time>2019-04-15T12:18:18Z</time>
      </trkpt>
      <trkpt lat="44.24524" lon="5.43954">
        <ele>822.2</ele>
        <time>2019-04-15T12:18:22Z</time>
      </trkpt>
      <trkpt lat="44.24506" lon="5.43952">
        <ele>823.2</ele>
        <time>2019-04-15T12:18:26Z</time>
      </trkpt>
      <trkpt lat="44.24487" lon="5.43948">
        <ele>824</ele>
        <time>2019-04-15T12:18:30Z</time>
      </trkpt>
      <trkpt lat="44.24468" lon="5.4394">
        <ele>824.8</ele>
        <time>2019-04-15T12:18:34Z</time>
      </trkpt>
      <trkpt lat="44.24451" lon="5.43932">
        <ele>825.2</ele>
        <time>2019-04-15T12:18:38Z</time>
      </trkpt>
      <trkpt lat="44.24434" lon="5.43923">
        <ele>826.2</ele>
        <time>2019-04-15T12:18:42Z</time>
      </trkpt>
      <trkpt lat="44.24418" lon="5.43916">
        <ele>827.6</ele>
        <time>2019-04-15T12:18:46Z</time>
      </trkpt>
      <trkpt lat="44.24402" lon="5.43909">
        <ele>827.6</ele>
        <time>2019-04-15T12:18:50Z</time>
      </trkpt>
      <trkpt lat="44.24384" lon="5.43904">
        <ele>827</ele>
        <time>2019-04-15T12:18:54Z</time>
      </trkpt>
      <trkpt lat="44.24365" lon="5.43899">
        <ele>827.4</ele>
        <time>2019-04-15T12:18:58Z</time>
      </trkpt>
      <trkpt lat="44.24347" lon="5.43897">
        <ele>828.4</ele>
        <time>2019-04-15T12:19:02Z</time>
      </trkpt>
      <trkpt lat="44.24329" lon="5.43895">
        <ele>828.2</ele>
        <time>2019-04-15T12:19:06Z</time>
      </trkpt>
      <trkpt lat="44.24312" lon="5.43891">
        <ele>829.2</ele>
        <time>2019-04-15T12:19:10Z</time>
      </trkpt>
      <trkpt lat="44.24294" lon="5.43887">
        <ele>830.4</ele>
        <time>2019-04-15T12:19:14Z</time>
      </trkpt>
      <trkpt lat="44.24275" lon="5.43888">
        <ele>830.2</ele>
        <time>2019-04-15T12:19:18Z</time>
      </trkpt>
      <trkpt lat="44.24258" lon="5.439">
        <ele>831</ele>
        <time>2019-04-15T12:19:22Z</time>
      </trkpt>
      <trkpt lat="44.24243" lon="5.43915">
        <ele>831.8</ele>
        <time>2019-04-15T12:19:26Z</time>
      </trkpt>
      <trkpt lat="44.24228" lon="5.4393">
        <ele>832.4</ele>
        <time>2019-04-15T12:19:30Z</time>
      </trkpt>
      <trkpt lat="44.24213" lon="5.43944">
        <ele>832.8</ele>
        <time>2019-04-15T12:19:34Z</time>
      </trkpt>
      <trkpt lat="44.24196" lon="5.43956">
        <ele>833.6</ele>
        <time>2019-04-15T12:19:38Z</time>
      </trkpt>
      <trkpt lat="44.24179" lon="5.43966">
        <ele>834.8</ele>
        <time>2019-04-15T12:19:42Z</time>
      </trkpt>
      <trkpt lat="44.24161" lon="5.43969">
        <ele>835.8</ele>
        <time>2019-04-15T12:19:46Z</time>
      </trkpt>
      <trkpt lat="44.24143" lon="5.43961">
        <ele>835.4</ele>
        <time>2019-04-15T12:19:50Z</time>
      </trkpt>
      <trkpt lat="44.24127" lon="5.43949">
        <ele>836.6</ele>
        <time>2019-04-15T12:19:54Z</time>
      </trkpt>
      <trkpt lat="44.24108" lon="5.43945">
        <ele>836</ele>
        <time>2019-04-15T12:19:58Z</time>
      </trkpt>
      <trkpt lat="44.2409" lon="5.43946">
        <ele>836.8</ele>
        <time>2019-04-15T12:20:02Z</time>
      </trkpt>
      <trkpt lat="44.24074" lon="5.43945">
        <ele>837.6</ele>
        <time>2019-04-15T12:20:06Z</time>
      </trkpt>
      <trkpt lat="44.24059" lon="5.43941">
        <ele>838.2</ele>
        <time>2019-04-15T12:20:10Z</time>
      </trkpt>
      <trkpt lat="44.24043" lon="5.43936">
        <ele>839.8</ele>
        <time>2019-04-15T12:20:14Z</time>
      </trkpt>
      <trkpt lat="44.24027" lon="5.43932">
        <ele>840.6</ele>
        <time>2019-04-15T12:20:18Z</time>
      </trkpt>
      <trkpt lat="44.24012" lon="5.4393">
        <ele>841.6</ele>
        <time>2019-04-15T12:20:22Z</time>
      </trkpt>
      <trkpt lat="44.23996" lon="5.43931">
        <ele>841.8</ele>
        <time>2019-04-15T12:20:26Z</time>
      </trkpt>
      <trkpt lat="44.23981" lon="5.43934">
        <ele>843.4</ele>
        <time>2019-04-15T12:20:30Z</time>
      </trkpt>
      <trkpt lat="44.23965" lon="5.43936">
        <ele>843.8</ele>
        <time>2019-04-15T12:20:34Z</time>
      </trkpt>
      <trkpt lat="44.23951" lon="5.43926">
        <ele>844.8</ele>
        <time>2019-04-15T12:20:38Z</time>
      </trkpt>
      <trkpt lat="44.23943" lon="5.43907">
        <ele>845.6</ele>
        <time>2019-04-15T12:20:42Z</time>
      </trkpt>
      <trkpt lat="44.23936" lon="5.43888">
        <ele>846.4</ele>
        <time>2019-04-15T12:20:46Z</time>
      </trkpt>
      <trkpt lat="44.23931" lon="5.43868">
        <ele>846.4</ele>
        <time>2019-04-15T12:20:50Z</time>
      </trkpt>
      <trkpt lat="44.23929" lon="5.43847">
        <ele>848</ele>
        <time>2019-04-15T12:20:54Z</time>
      </trkpt>
      <trkpt lat="44.2393" lon="5.43827">
        <ele>849.4</ele>
        <time>2019-04-15T12:20:58Z</time>
      </trkpt>
      <trkpt lat="44.23933" lon="5.43808">
        <ele>850.2</ele>
        <time>2019-04-15T12:21:02Z</time>
      </trkpt>
      <trkpt lat="44.23935" lon="5.43788">
        <ele>850.8</ele>
        <time>2019-04-15T12:21:06Z</time>
      </trkpt>
      <trkpt lat="44.23929" lon="5.43769">
        <ele>852.2</ele>
        <time>2019-04-15T12:21:10Z</time>
      </trkpt>
      <trkpt lat="44.23915" lon="5.43766">
        <ele>853.6</ele>
        <time>2019-04-15T12:21:14Z</time>
      </trkpt>
      <trkpt lat="44.23902" lon="5.43777">
        <ele>853.8</ele>
        <time>2019-04-15T12:21:18Z</time>
      </trkpt>
      <trkpt lat="44.23894" lon="5.43795">
        <ele>854.8</ele>
        <time>2019-04-15T12:21:22Z</time>
      </trkpt>
      <trkpt lat="44.2389" lon="5.43816">
        <ele>855.4</ele>
        <time>2019-04-15T12:21:26Z</time>
      </trkpt>
      <trkpt lat="44.23882" lon="5.43833">
        <ele>857</ele>
        <time>2019-04-15T12:21:30Z</time>
      </trkpt>
      <trkpt lat="44.23868" lon="5.43837">
        <ele>858.2</ele>
        <time>2019-04-15T12:21:34Z</time>
      </trkpt>
      <trkpt lat="44.23854" lon="5.43839">
        <ele>858.6</ele>
        <time>2019-04-15T12:21:38Z</time>
      </trkpt>
      <trkpt lat="44.23839" lon="5.43842">
        <ele>859.8</ele>
        <time>2019-04-15T12:21:42Z</time>
      </trkpt>
      <trkpt lat="44.23824" lon="5.43843">
        <ele>860.4</ele>
        <time>2019-04-15T12:21:46Z</time>
      </trkpt>
      <trkpt lat="44.23809" lon="5.43842">
        <ele>860.8</ele>
        <time>2019-04-15T12:21:50Z</time>
      </trkpt>
      <trkpt lat="44.23795" lon="5.43837">
        <ele>862</ele>
        <time>2019-04-15T12:21:54Z</time>
      </trkpt>
      <trkpt lat="44.23781" lon="5.43831">
        <ele>863.4</ele>
        <time>2019-04-15T12:21:58Z</time>
      </trkpt>
      <trkpt lat="44.23768" lon="5.43822">
        <ele>864</ele>
        <time>2019-04-15T12:22:02Z</time>
      </trkpt>
      <trkpt lat="44.23756" lon="5.43811">
        <ele>865</ele>
        <time>2019-04-15T12:22:06Z</time>
      </trkpt>
      <trkpt lat="44.23743" lon="5.43801">
        <ele>865.2</ele>
        <time>2019-04-15T12:22:10Z</time>
      </trkpt>
      <trkpt lat="44.23729" lon="5.43797">
        <ele>866.4</ele>
        <time>2019-04-15T12:22:14Z</time>
      </trkpt>
      <trkpt lat="44.23714" lon="5.43798">
        <ele>867.6</ele>
        <time>2019-04-15T12:22:18Z</time>
      </trkpt>
      <trkpt lat="44.23699" lon="5.43792">
        <ele>868.2</ele>
        <time>2019-04-15T12:22:22Z</time>
      </trkpt>
      <trkpt lat="44.23687" lon="5.43776">
        <ele>869</ele>
        <time>2019-04-15T12:22:26Z</time>
      </trkpt>
      <trkpt lat="44.23677" lon="5.43759">
        <ele>869.2</ele>
        <time>2019-04-15T12:22:30Z</time>
      </trkpt>
      <trkpt lat="44.23664" lon="5.43742">
        <ele>868.2</ele>
        <time>2019-04-15T12:22:34Z</time>
      </trkpt>
      <trkpt lat="44.23644" lon="5.43736">
        <ele>867</ele>
        <time>2019-04-15T12:22:38Z</time>
      </trkpt>
      <trkpt lat="44.2362" lon="5.43751">
        <ele>866</ele>
        <time>2019-04-15T12:22:42Z</time>
      </trkpt>
      <trkpt lat="44.23609" lon="5.43786">
        <ele>863.6</ele>
        <time>2019-04-15T12:22:46Z</time>
      </trkpt>
      <trkpt lat="44.23599" lon="5.43811">
        <ele>861.8</ele>
        <time>2019-04-15T12:22:50Z</time>
      </trkpt>
      <trkpt lat="44.23585" lon="5.43792">
        <ele>860.4</ele>
        <time>2019-04-15T12:22:54Z</time>
      </trkpt>
      <trkpt lat="44.23577" lon="5.43759">
        <ele>858.6</ele>
        <time>2019-04-15T12:22:58Z</time>
      </trkpt>
      <trkpt lat="44.23563" lon="5.43729">
        <ele>857.4</ele>
        <time>2019-04-15T12:23:02Z</time>
      </trkpt>
      <trkpt lat="44.23538" lon="5.43711">
        <ele>855.6</ele>
        <time>2019-04-15T12:23:06Z</time>
      </trkpt>
      <trkpt lat="44.23509" lon="5.43713">
        <ele>853.4</ele>
        <time>2019-04-15T12:23:10Z</time>
      </trkpt>
      <trkpt lat="44.23479" lon="5.43717">
        <ele>851.8</ele>
        <time>2019-04-15T12:23:14Z</time>
      </trkpt>
      <trkpt lat="44.23447" lon="5.43702">
        <ele>850.4</ele>
        <time>2019-04-15T12:23:18Z</time>
      </trkpt>
      <trkpt lat="44.23419" lon="5.43671">
        <ele>848</ele>
        <time>2019-04-15T12:23:22Z</time>
      </trkpt>
      <trkpt lat="44.23392" lon="5.43647">
        <ele>846.8</ele>
        <time>2019-04-15T12:23:26Z</time>
      </trkpt>
      <trkpt lat="44.23373" lon="5.43677">
        <ele>844.6</ele>
        <time>2019-04-15T12:23:30Z</time>
      </trkpt>
      <trkpt lat="44.23368" lon="5.43724">
        <ele>842.4</ele>
        <time>2019-04-15T12:23:34Z</time>
      </trkpt>
      <trkpt lat="44.23357" lon="5.43772">
        <ele>841.6</ele>
        <time>2019-04-15T12:23:38Z</time>
      </trkpt>
      <trkpt lat="44.23344" lon="5.43803">
        <ele>841</ele>
        <time>2019-04-15T12:23:42Z</time>
      </trkpt>
      <trkpt lat="44.23332" lon="5.43785">
        <ele>841</ele>
        <time>2019-04-15T12:23:46Z</time>
      </trkpt>
      <trkpt lat="44.2333" lon="5.43751">
        <ele>841.2</ele>
        <time>2019-04-15T12:23:50Z</time>
      </trkpt>
      <trkpt lat="44.23316" lon="5.43728">
        <ele>841</ele>
        <time>2019-04-15T12:23:54Z</time>
      </trkpt>
      <trkpt lat="44.23291" lon="5.4373">
        <ele>840.2</ele>
        <time>2019-04-15T12:23:58Z</time>
      </trkpt>
      <trkpt lat="44.23264" lon="5.43735">
        <ele>839.4</ele>
        <time>2019-04-15T12:24:02Z</time>
      </trkpt>
      <trkpt lat="44.23236" lon="5.43734">
        <ele>836.8</ele>
        <time>2019-04-15T12:24:06Z</time>
      </trkpt>
      <trkpt lat="44.2321" lon="5.43715">
        <ele>837</ele>
        <time>2019-04-15T12:24:10Z</time>
      </trkpt>
      <trkpt lat="44.23191" lon="5.43684">
        <ele>836</ele>
        <time>2019-04-15T12:24:14Z</time>
      </trkpt>
      <trkpt lat="44.23172" lon="5.43648">
        <ele>834</ele>
        <time>2019-04-15T12:24:18Z</time>
      </trkpt>
      <trkpt lat="44.23166" lon="5.43601">
        <ele>832.6</ele>
        <time>2019-04-15T12:24:22Z</time>
      </trkpt>
      <trkpt lat="44.23161" lon="5.43553">
        <ele>831</ele>
        <time>2019-04-15T12:24:26Z</time>
      </trkpt>
      <trkpt lat="44.23152" lon="5.43505">
        <ele>829</ele>
        <time>2019-04-15T12:24:30Z</time>
      </trkpt>
      <trkpt lat="44.23126" lon="5.4347">
        <ele>826.2</ele>
        <time>2019-04-15T12:24:34Z</time>
      </trkpt>
      <trkpt lat="44.23093" lon="5.43459">
        <ele>823</ele>
        <time>2019-04-15T12:24:38Z</time>
      </trkpt>
      <trkpt lat="44.23055" lon="5.43456">
        <ele>820.6</ele>
        <time>2019-04-15T12:24:42Z</time>
      </trkpt>
      <trkpt lat="44.23015" lon="5.43447">
        <ele>817</ele>
        <time>2019-04-15T12:24:46Z</time>
      </trkpt>
      <trkpt lat="44.22975" lon="5.43427">
        <ele>813.8</ele>
        <time>2019-04-15T12:24:50Z</time>
      </trkpt>
      <trkpt lat="44.22933" lon="5.43413">
        <ele>810</ele>
        <time>2019-04-15T12:24:54Z</time>
      </trkpt>
      <trkpt lat="44.22892" lon="5.43407">
        <ele>806</ele>
        <time>2019-04-15T12:24:58Z</time>
      </trkpt>
      <trkpt lat="44.22852" lon="5.43399">
        <ele>802.6</ele>
        <time>2019-04-15T12:25:02Z</time>
      </trkpt>
      <trkpt lat="44.22811" lon="5.43391">
        <ele>799.6</ele>
        <time>2019-04-15T12:25:06Z</time>
      </trkpt>
      <trkpt lat="44.22772" lon="5.4338">
        <ele>797.8</ele>
        <time>2019-04-15T12:25:10Z</time>
      </trkpt>
      <trkpt lat="44.22749" lon="5.43351">
        <ele>796.2</ele>
        <time>2019-04-15T12:25:14Z</time>
      </trkpt>
      <trkpt lat="44.22725" lon="5.43325">
        <ele>795.8</ele>
        <time>2019-04-15T12:25:18Z</time>
      </trkpt>
      <trkpt lat="44.22698" lon="5.43304">
        <ele>795.4</ele>
        <time>2019-04-15T12:25:22Z</time>
      </trkpt>
      <trkpt lat="44.2267" lon="5.43285">
        <ele>795.2</ele>
        <time>2019-04-15T12:25:26Z</time>
      </trkpt>
      <trkpt lat="44.22639" lon="5.43276">
        <ele>794.4</ele>
        <time>2019-04-15T12:25:30Z</time>
      </trkpt>
      <trkpt lat="44.22607" lon="5.43271">
        <ele>792.4</ele>
        <time>2019-04-15T12:25:34Z</time>
      </trkpt>
      <trkpt lat="44.22574" lon="5.43268">
        <ele>791</ele>
        <time>2019-04-15T12:25:38Z</time>
      </trkpt>
      <trkpt lat="44.22541" lon="5.43264">
        <ele>789</ele>
        <time>2019-04-15T12:25:42Z</time>
      </trkpt>
      <trkpt lat="44.22513" lon="5.43238">
        <ele>786.8</ele>
        <time>2019-04-15T12:25:46Z</time>
      </trkpt>
      <trkpt lat="44.22491" lon="5.43203">
        <ele>785.8</ele>
        <time>2019-04-15T12:25:50Z</time>
      </trkpt>
      <trkpt lat="44.2247" lon="5.43169">
        <ele>784.8</ele>
        <time>2019-04-15T12:25:54Z</time>
      </trkpt>
      <trkpt lat="44.22449" lon="5.43136">
        <ele>784.6</ele>
        <time>2019-04-15T12:25:58Z</time>
      </trkpt>
      <trkpt lat="44.22428" lon="5.43106">
        <ele>785</ele>
        <time>2019-04-15T12:26:02Z</time>
      </trkpt>
      <trkpt lat="44.22404" lon="5.43084">
        <ele>784.6</ele>
        <time>2019-04-15T12:26:06Z</time>
      </trkpt>
      <trkpt lat="44.2238" lon="5.43062">
        <ele>782.4</ele>
        <time>2019-04-15T12:26:10Z</time>
      </trkpt>
      <trkpt lat="44.22356" lon="5.43038">
        <ele>781</ele>
        <time>2019-04-15T12:26:14Z</time>
      </trkpt>
      <trkpt lat="44.22328" lon="5.43025">
        <ele>781</ele>
        <time>2019-04-15T12:26:18Z</time>
      </trkpt>
      <trkpt lat="44.22302" lon="5.4301">
        <ele>780.2</ele>
        <time>2019-04-15T12:26:22Z</time>
      </trkpt>
      <trkpt lat="44.22277" lon="5.42988">
        <ele>780.2</ele>
        <time>2019-04-15T12:26:26Z</time>
      </trkpt>
      <trkpt lat="44.22251" lon="5.42968">
        <ele>779.6</ele>
        <time>2019-04-15T12:26:30Z</time>
      </trkpt>
      <trkpt lat="44.22225" lon="5.42948">
        <ele>778.6</ele>
        <time>2019-04-15T12:26:34Z</time>
      </trkpt>
      <trkpt lat="44.22199" lon="5.42927">
        <ele>777.8</ele>
        <time>2019-04-15T12:26:38Z</time>
      </trkpt>
      <trkpt lat="44.22172" lon="5.42908">
        <ele>776.8</ele>
        <time>2019-04-15T12:26:42Z</time>
      </trkpt>
      <trkpt lat="44.22145" lon="5.42889">
        <ele>775.6</ele>
        <time>2019-04-15T12:26:46Z</time>
      </trkpt>
      <trkpt lat="44.22118" lon="5.42872">
        <ele>774.2</ele>
        <time>2019-04-15T12:26:50Z</time>
      </trkpt>
      <trkpt lat="44.22087" lon="5.42865">
        <ele>772.8</ele>
        <time>2019-04-15T12:26:54Z</time>
      </trkpt>
      <trkpt lat="44.22053" lon="5.42858">
        <ele>771.8</ele>
        <time>2019-04-15T12:26:58Z</time>
      </trkpt>
      <trkpt lat="44.22018" lon="5.42853">
        <ele>771.4</ele>
        <time>2019-04-15T12:27:02Z</time>
      </trkpt>
      <trkpt lat="44.21984" lon="5.42841">
        <ele>770.4</ele>
        <time>2019-04-15T12:27:06Z</time>
      </trkpt>
      <trkpt lat="44.21953" lon="5.42819">
        <ele>769</ele>
        <time>2019-04-15T12:27:10Z</time>
      </trkpt>
      <trkpt lat="44.21926" lon="5.42791">
        <ele>767.4</ele>
        <time>2019-04-15T12:27:14Z</time>
      </trkpt>
      <trkpt lat="44.21904" lon="5.42762">
        <ele>767.4</ele>
        <time>2019-04-15T12:27:18Z</time>
      </trkpt>
      <trkpt lat="44.21897" lon="5.4273">
        <ele>767.2</ele>
        <time>2019-04-15T12:27:22Z</time>
      </trkpt>
      <trkpt lat="44.21881" lon="5.42698">
        <ele>766.4</ele>
        <time>2019-04-15T12:27:26Z</time>
      </trkpt>
      <trkpt lat="44.21862" lon="5.4266">
        <ele>764.8</ele>
        <time>2019-04-15T12:27:30Z</time>
      </trkpt>
      <trkpt lat="44.21845" lon="5.42623">
        <ele>764.4</ele>
        <time>2019-04-15T12:27:34Z</time>
      </trkpt>
      <trkpt lat="44.21826" lon="5.42589">
        <ele>763.6</ele>
        <time>2019-04-15T12:27:38Z</time>
      </trkpt>
      <trkpt lat="44.21807" lon="5.42553">
        <ele>763</ele>
        <time>2019-04-15T12:27:42Z</time>
      </trkpt>
      <trkpt lat="44.21789" lon="5.42518">
        <ele>761.8</ele>
        <time>2019-04-15T12:27:46Z</time>
      </trkpt>
      <trkpt lat="44.21771" lon="5.42484">
        <ele>760.4</ele>
        <time>2019-04-15T12:27:50Z</time>
      </trkpt>
      <trkpt lat="44.21745" lon="5.42466">
        <ele>759.6</ele>
        <time>2019-04-15T12:27:54Z</time>
      </trkpt>
      <trkpt lat="44.21719" lon="5.42473">
        <ele>759.6</ele>
        <time>2019-04-15T12:27:58Z</time>
      </trkpt>
      <trkpt lat="44.21695" lon="5.4248">
        <ele>759.4</ele>
        <time>2019-04-15T12:28:02Z</time>
      </trkpt>
      <trkpt lat="44.21669" lon="5.42474">
        <ele>759.4</ele>
        <time>2019-04-15T12:28:06Z</time>
      </trkpt>
      <trkpt lat="44.21644" lon="5.42465">
        <ele>758.8</ele>
        <time>2019-04-15T12:28:10Z</time>
      </trkpt>
      <trkpt lat="44.21616" lon="5.42454">
        <ele>758.8</ele>
        <time>2019-04-15T12:28:14Z</time>
      </trkpt>
      <trkpt lat="44.21593" lon="5.42434">
        <ele>758</ele>
        <time>2019-04-15T12:28:18Z</time>
      </trkpt>
      <trkpt lat="44.21575" lon="5.42401">
        <ele>756.6</ele>
        <time>2019-04-15T12:28:22Z</time>
      </trkpt>
      <trkpt lat="44.21558" lon="5.42365">
        <ele>755.6</ele>
        <time>2019-04-15T12:28:26Z</time>
      </trkpt>
      <trkpt lat="44.21531" lon="5.4234">
        <ele>753.8</ele>
        <time>2019-04-15T12:28:30Z</time>
      </trkpt>
      <trkpt lat="44.21498" lon="5.42337">
        <ele>752.6</ele>
        <time>2019-04-15T12:28:34Z</time>
      </trkpt>
      <trkpt lat="44.21464" lon="5.42337">
        <ele>751.8</ele>
        <time>2019-04-15T12:28:38Z</time>
      </trkpt>
      <trkpt lat="44.21432" lon="5.42322">
        <ele>750.2</ele>
        <time>2019-04-15T12:28:42Z</time>
      </trkpt>
      <trkpt lat="44.21397" lon="5.423">
        <ele>747.6</ele>
        <time>2019-04-15T12:28:46Z</time>
      </trkpt>
      <trkpt lat="44.21359" lon="5.42283">
        <ele>744.4</ele>
        <time>2019-04-15T12:28:50Z</time>
      </trkpt>
      <trkpt lat="44.21316" lon="5.42273">
        <ele>741.6</ele>
        <time>2019-04-15T12:28:54Z</time>
      </trkpt>
      <trkpt lat="44.21268" lon="5.42265">
        <ele>739</ele>
        <time>2019-04-15T12:28:58Z</time>
      </trkpt>
      <trkpt lat="44.21219" lon="5.42254">
        <ele>734.8</ele>
        <time>2019-04-15T12:29:02Z</time>
      </trkpt>
      <trkpt lat="44.21172" lon="5.42242">
        <ele>730.4</ele>
        <time>2019-04-15T12:29:06Z</time>
      </trkpt>
      <trkpt lat="44.21128" lon="5.42238">
        <ele>727.2</ele>
        <time>2019-04-15T12:29:10Z</time>
      </trkpt>
      <trkpt lat="44.21088" lon="5.42213">
        <ele>723</ele>
        <time>2019-04-15T12:29:14Z</time>
      </trkpt>
      <trkpt lat="44.21047" lon="5.42184">
        <ele>720</ele>
        <time>2019-04-15T12:29:18Z</time>
      </trkpt>
      <trkpt lat="44.21005" lon="5.42161">
        <ele>717.2</ele>
        <time>2019-04-15T12:29:22Z</time>
      </trkpt>
      <trkpt lat="44.20963" lon="5.42146">
        <ele>713.8</ele>
        <time>2019-04-15T12:29:26Z</time>
      </trkpt>
      <trkpt lat="44.20917" lon="5.42127">
        <ele>710.2</ele>
        <time>2019-04-15T12:29:30Z</time>
      </trkpt>
      <trkpt lat="44.20878" lon="5.42108">
        <ele>708.2</ele>
        <time>2019-04-15T12:29:34Z</time>
      </trkpt>
      <trkpt lat="44.20845" lon="5.42086">
        <ele>707</ele>
        <time>2019-04-15T12:29:38Z</time>
      </trkpt>
      <trkpt lat="44.20831" lon="5.42046">
        <ele>705.8</ele>
        <time>2019-04-15T12:29:42Z</time>
      </trkpt>
      <trkpt lat="44.20819" lon="5.42007">
        <ele>705.6</ele>
        <time>2019-04-15T12:29:46Z</time>
      </trkpt>
      <trkpt lat="44.20796" lon="5.41984">
        <ele>702.8</ele>
        <time>2019-04-15T12:29:50Z</time>
      </trkpt>
      <trkpt lat="44.20767" lon="5.41976">
        <ele>701.8</ele>
        <time>2019-04-15T12:29:54Z</time>
      </trkpt>
      <trkpt lat="44.20733" lon="5.41978">
        <ele>700</ele>
        <time>2019-04-15T12:29:58Z</time>
      </trkpt>
      <trkpt lat="44.20697" lon="5.41982">
        <ele>697.6</ele>
        <time>2019-04-15T12:30:02Z</time>
      </trkpt>
      <trkpt lat="44.20659" lon="5.41977">
        <ele>695.4</ele>
        <time>2019-04-15T12:30:06Z</time>
      </trkpt>
      <trkpt lat="44.20621" lon="5.41966">
        <ele>692.6</ele>
        <time>2019-04-15T12:30:10Z</time>
      </trkpt>
      <trkpt lat="44.20587" lon="5.41941">
        <ele>690.2</ele>
        <time>2019-04-15T12:30:14Z</time>
      </trkpt>
      <trkpt lat="44.20551" lon="5.41921">
        <ele>686</ele>
        <time>2019-04-15T12:30:18Z</time>
      </trkpt>
      <trkpt lat="44.20511" lon="5.41908">
        <ele>683.6</ele>
        <time>2019-04-15T12:30:22Z</time>
      </trkpt>
      <trkpt lat="44.20476" lon="5.41923">
        <ele>680.2</ele>
        <time>2019-04-15T12:30:26Z</time>
      </trkpt>
      <trkpt lat="44.20452" lon="5.4196">
        <ele>679.6</ele>
        <time>2019-04-15T12:30:30Z</time>
      </trkpt>
      <trkpt lat="44.20429" lon="5.41977">
        <ele>678</ele>
        <time>2019-04-15T12:30:34Z</time>
      </trkpt>
      <trkpt lat="44.20404" lon="5.41966">
        <ele>677.8</ele>
        <time>2019-04-15T12:30:38Z</time>
      </trkpt>
      <trkpt lat="44.20382" lon="5.41945">
        <ele>677.6</ele>
        <time>2019-04-15T12:30:42Z</time>
      </trkpt>
      <trkpt lat="44.2036" lon="5.41922">
        <ele>676.8</ele>
        <time>2019-04-15T12:30:46Z</time>
      </trkpt>
      <trkpt lat="44.20338" lon="5.41899">
        <ele>675.6</ele>
        <time>2019-04-15T12:30:50Z</time>
      </trkpt>
      <trkpt lat="44.20315" lon="5.41876">
        <ele>676.2</ele>
        <time>2019-04-15T12:30:54Z</time>
      </trkpt>
      <trkpt lat="44.20289" lon="5.41852">
        <ele>675</ele>
        <time>2019-04-15T12:30:58Z</time>
      </trkpt>
      <trkpt lat="44.20258" lon="5.4184">
        <ele>674.8</ele>
        <time>2019-04-15T12:31:02Z</time>
      </trkpt>
      <trkpt lat="44.20225" lon="5.41837">
        <ele>673.4</ele>
        <time>2019-04-15T12:31:06Z</time>
      </trkpt>
      <trkpt lat="44.20193" lon="5.41839">
        <ele>673.2</ele>
        <time>2019-04-15T12:31:10Z</time>
      </trkpt>
      <trkpt lat="44.20159" lon="5.41841">
        <ele>672.4</ele>
        <time>2019-04-15T12:31:14Z</time>
      </trkpt>
      <trkpt lat="44.20127" lon="5.41842">
        <ele>671.6</ele>
        <time>2019-04-15T12:31:18Z</time>
      </trkpt>
      <trkpt lat="44.20097" lon="5.41835">
        <ele>671</ele>
        <time>2019-04-15T12:31:22Z</time>
      </trkpt>
      <trkpt lat="44.20067" lon="5.41822">
        <ele>671.6</ele>
        <time>2019-04-15T12:31:26Z</time>
      </trkpt>
      <trkpt lat="44.20038" lon="5.41808">
        <ele>671</ele>
        <time>2019-04-15T12:31:30Z</time>
      </trkpt>
      <trkpt lat="44.20009" lon="5.41795">
        <ele>671</ele>
        <time>2019-04-15T12:31:34Z</time>
      </trkpt>
      <trkpt lat="44.19981" lon="5.41781">
        <ele>670.8</ele>
        <time>2019-04-15T12:31:38Z</time>
      </trkpt>
      <trkpt lat="44.19955" lon="5.41762">
        <ele>669.4</ele>
        <time>2019-04-15T12:31:42Z</time>
      </trkpt>
      <trkpt lat="44.19932" lon="5.41736">
        <ele>669</ele>
        <time>2019-04-15T12:31:46Z</time>
      </trkpt>
      <trkpt lat="44.19906" lon="5.41712">
        <ele>668</ele>
        <time>2019-04-15T12:31:50Z</time>
      </trkpt>
      <trkpt lat="44.19876" lon="5.41693">
        <ele>667</ele>
        <time>2019-04-15T12:31:54Z</time>
      </trkpt>
      <trkpt lat="44.19847" lon="5.41673">
        <ele>666.6</ele>
        <time>2019-04-15T12:31:58Z</time>
      </trkpt>
      <trkpt lat="44.1982" lon="5.41649">
        <ele>665.4</ele>
        <time>2019-04-15T12:32:02Z</time>
      </trkpt>
      <trkpt lat="44.19794" lon="5.41622">
        <ele>663.4</ele>
        <time>2019-04-15T12:32:06Z</time>
      </trkpt>
      <trkpt lat="44.19766" lon="5.41601">
        <ele>662.2</ele>
        <time>2019-04-15T12:32:10Z</time>
      </trkpt>
      <trkpt lat="44.19749" lon="5.41563">
        <ele>660.4</ele>
        <time>2019-04-15T12:32:14Z</time>
      </trkpt>
      <trkpt lat="44.19726" lon="5.41527">
        <ele>658.8</ele>
        <time>2019-04-15T12:32:18Z</time>
      </trkpt>
      <trkpt lat="44.19692" lon="5.41517">
        <ele>658</ele>
        <time>2019-04-15T12:32:22Z</time>
      </trkpt>
      <trkpt lat="44.19662" lon="5.41529">
        <ele>659</ele>
        <time>2019-04-15T12:32:26Z</time>
      </trkpt>
      <trkpt lat="44.19636" lon="5.41541">
        <ele>659.6</ele>
        <time>2019-04-15T12:32:30Z</time>
      </trkpt>
      <trkpt lat="44.19615" lon="5.41558">
        <ele>660.8</ele>
        <time>2019-04-15T12:32:34Z</time>
      </trkpt>
      <trkpt lat="44.196" lon="5.41582">
        <ele>661.6</ele>
        <time>2019-04-15T12:32:38Z</time>
      </trkpt>
      <trkpt lat="44.19586" lon="5.41608">
        <ele>661</ele>
        <time>2019-04-15T12:32:42Z</time>
      </trkpt>
      <trkpt lat="44.19572" lon="5.41634">
        <ele>662</ele>
        <time>2019-04-15T12:32:46Z</time>
      </trkpt>
      <trkpt lat="44.19557" lon="5.41661">
        <ele>663.4</ele>
        <time>2019-04-15T12:32:50Z</time>
      </trkpt>
      <trkpt lat="44.19541" lon="5.41692">
        <ele>661.6</ele>
        <time>2019-04-15T12:32:54Z</time>
      </trkpt>
      <trkpt lat="44.19526" lon="5.41725">
        <ele>661.6</ele>
        <time>2019-04-15T12:32:58Z</time>
      </trkpt>
      <trkpt lat="44.19511" lon="5.41758">
        <ele>661.2</ele>
        <time>2019-04-15T12:33:02Z</time>
      </trkpt>
      <trkpt lat="44.19494" lon="5.41787">
        <ele>661</ele>
        <time>2019-04-15T12:33:06Z</time>
      </trkpt>
      <trkpt lat="44.19478" lon="5.41817">
        <ele>660.4</ele>
        <time>2019-04-15T12:33:10Z</time>
      </trkpt>
      <trkpt lat="44.19461" lon="5.41844">
        <ele>661</ele>
        <time>2019-04-15T12:33:14Z</time>
      </trkpt>
      <trkpt lat="44.19443" lon="5.41873">
        <ele>660</ele>
        <time>2019-04-15T12:33:18Z</time>
      </trkpt>
      <trkpt lat="44.19425" lon="5.41905">
        <ele>657.8</ele>
        <time>2019-04-15T12:33:22Z</time>
      </trkpt>
      <trkpt lat="44.19406" lon="5.4194">
        <ele>655.2</ele>
        <time>2019-04-15T12:33:26Z</time>
      </trkpt>
      <trkpt lat="44.19387" lon="5.41977">
        <ele>653.4</ele>
        <time>2019-04-15T12:33:30Z</time>
      </trkpt>
      <trkpt lat="44.19371" lon="5.42017">
        <ele>651.6</ele>
        <time>2019-04-15T12:33:34Z</time>
      </trkpt>
      <trkpt lat="44.19361" lon="5.42063">
        <ele>649.2</ele>
        <time>2019-04-15T12:33:38Z</time>
      </trkpt>
      <trkpt lat="44.19347" lon="5.42111">
        <ele>647.4</ele>
        <time>2019-04-15T12:33:42Z</time>
      </trkpt>
      <trkpt lat="44.1933" lon="5.4216">
        <ele>645</ele>
        <time>2019-04-15T12:33:46Z</time>
      </trkpt>
      <trkpt lat="44.19311" lon="5.42208">
        <ele>643.2</ele>
        <time>2019-04-15T12:33:50Z</time>
      </trkpt>
      <trkpt lat="44.19288" lon="5.42249">
        <ele>643</ele>
        <time>2019-04-15T12:33:54Z</time>
      </trkpt>
      <trkpt lat="44.19263" lon="5.42283">
        <ele>643.4</ele>
        <time>2019-04-15T12:33:58Z</time>
      </trkpt>
      <trkpt lat="44.19239" lon="5.42309">
        <ele>644</ele>
        <time>2019-04-15T12:34:02Z</time>
      </trkpt>
      <trkpt lat="44.19213" lon="5.42323">
        <ele>644</ele>
        <time>2019-04-15T12:34:06Z</time>
      </trkpt>
      <trkpt lat="44.19189" lon="5.4234">
        <ele>644</ele>
        <time>2019-04-15T12:34:10Z</time>
      </trkpt>
      <trkpt lat="44.19166" lon="5.42357">
        <ele>644.6</ele>
        <time>2019-04-15T12:34:14Z</time>
      </trkpt>
      <trkpt lat="44.19144" lon="5.42373">
        <ele>644.6</ele>
        <time>2019-04-15T12:34:18Z</time>
      </trkpt>
      <trkpt lat="44.19123" lon="5.42388">
        <ele>645</ele>
        <time>2019-04-15T12:34:22Z</time>
      </trkpt>
      <trkpt lat="44.19102" lon="5.42405">
        <ele>645.8</ele>
        <time>2019-04-15T12:34:26Z</time>
      </trkpt>
      <trkpt lat="44.1908" lon="5.42418">
        <ele>645.4</ele>
        <time>2019-04-15T12:34:30Z</time>
      </trkpt>
      <trkpt lat="44.19055" lon="5.42431">
        <ele>646.6</ele>
        <time>2019-04-15T12:34:34Z</time>
      </trkpt>
      <trkpt lat="44.19029" lon="5.42443">
        <ele>645.6</ele>
        <time>2019-04-15T12:34:38Z</time>
      </trkpt>
      <trkpt lat="44.19002" lon="5.42457">
        <ele>643.8</ele>
        <time>2019-04-15T12:34:42Z</time>
      </trkpt>
      <trkpt lat="44.1897" lon="5.42469">
        <ele>642</ele>
        <time>2019-04-15T12:34:46Z</time>
      </trkpt>
      <trkpt lat="44.18934" lon="5.42472">
        <ele>640</ele>
        <time>2019-04-15T12:34:50Z</time>
      </trkpt>
      <trkpt lat="44.18898" lon="5.42475">
        <ele>638.6</ele>
        <time>2019-04-15T12:34:54Z</time>
      </trkpt>
      <trkpt lat="44.18863" lon="5.4248">
        <ele>637.4</ele>
        <time>2019-04-15T12:34:58Z</time>
      </trkpt>
      <trkpt lat="44.18828" lon="5.42486">
        <ele>635.6</ele>
        <time>2019-04-15T12:35:02Z</time>
      </trkpt>
      <trkpt lat="44.18792" lon="5.42495">
        <ele>632.4</ele>
        <time>2019-04-15T12:35:06Z</time>
      </trkpt>
      <trkpt lat="44.1876" lon="5.42513">
        <ele>631.2</ele>
        <time>2019-04-15T12:35:10Z</time>
      </trkpt>
      <trkpt lat="44.18732" lon="5.42536">
        <ele>630.8</ele>
        <time>2019-04-15T12:35:14Z</time>
      </trkpt>
      <trkpt lat="44.18707" lon="5.42556">
        <ele>630.4</ele>
        <time>2019-04-15T12:35:18Z</time>
      </trkpt>
      <trkpt lat="44.18684" lon="5.42575">
        <ele>631</ele>
        <time>2019-04-15T12:35:22Z</time>
      </trkpt>
      <trkpt lat="44.18659" lon="5.42596">
        <ele>630.2</ele>
        <time>2019-04-15T12:35:26Z</time>
      </trkpt>
      <trkpt lat="44.18631" lon="5.4262">
        <ele>628.8</ele>
        <time>2019-04-15T12:35:30Z</time>
      </trkpt>
      <trkpt lat="44.18606" lon="5.42644">
        <ele>628.4</ele>
        <time>2019-04-15T12:35:34Z</time>
      </trkpt>
      <trkpt lat="44.18581" lon="5.42666">
        <ele>627.2</ele>
        <time>2019-04-15T12:35:38Z</time>
      </trkpt>
      <trkpt lat="44.18556" lon="5.42688">
        <ele>626.6</ele>
        <time>2019-04-15T12:35:42Z</time>
      </trkpt>
      <trkpt lat="44.18531" lon="5.42711">
        <ele>626</ele>
        <time>2019-04-15T12:35:46Z</time>
      </trkpt>
      <trkpt lat="44.18504" lon="5.42727">
        <ele>625.8</ele>
        <time>2019-04-15T12:35:50Z</time>
      </trkpt>
      <trkpt lat="44.18475" lon="5.42741">
        <ele>625.2</ele>
        <time>2019-04-15T12:35:54Z</time>
      </trkpt>
      <trkpt lat="44.18447" lon="5.42759">
        <ele>624.4</ele>
        <time>2019-04-15T12:35:58Z</time>
      </trkpt>
      <trkpt lat="44.18421" lon="5.42781">
        <ele>623.2</ele>
        <time>2019-04-15T12:36:02Z</time>
      </trkpt>
      <trkpt lat="44.18393" lon="5.42799">
        <ele>623</ele>
        <time>2019-04-15T12:36:06Z</time>
      </trkpt>
      <trkpt lat="44.18364" lon="5.42812">
        <ele>623</ele>
        <time>2019-04-15T12:36:10Z</time>
      </trkpt>
      <trkpt lat="44.18335" lon="5.42823">
        <ele>621.6</ele>
        <time>2019-04-15T12:36:14Z</time>
      </trkpt>
      <trkpt lat="44.18308" lon="5.42835">
        <ele>622</ele>
        <time>2019-04-15T12:36:18Z</time>
      </trkpt>
      <trkpt lat="44.18281" lon="5.42849">
        <ele>621.4</ele>
        <time>2019-04-15T12:36:22Z</time>
      </trkpt>
      <trkpt lat="44.18254" lon="5.42866">
        <ele>620.2</ele>
        <time>2019-04-15T12:36:26Z</time>
      </trkpt>
      <trkpt lat="44.18228" lon="5.42887">
        <ele>619.6</ele>
        <time>2019-04-15T12:36:30Z</time>
      </trkpt>
      <trkpt lat="44.18201" lon="5.4291">
        <ele>619.4</ele>
        <time>2019-04-15T12:36:34Z</time>
      </trkpt>
      <trkpt lat="44.18175" lon="5.42937">
        <ele>618.8</ele>
        <time>2019-04-15T12:36:38Z</time>
      </trkpt>
      <trkpt lat="44.18152" lon="5.42967">
        <ele>617.6</ele>
        <time>2019-04-15T12:36:42Z</time>
      </trkpt>
      <trkpt lat="44.18127" lon="5.42991">
        <ele>617.4</ele>
        <time>2019-04-15T12:36:46Z</time>
      </trkpt>
      <trkpt lat="44.181" lon="5.43012">
        <ele>617.4</ele>
        <time>2019-04-15T12:36:50Z</time>
      </trkpt>
      <trkpt lat="44.18073" lon="5.43033">
        <ele>616.6</ele>
        <time>2019-04-15T12:36:54Z</time>
      </trkpt>
      <trkpt lat="44.18046" lon="5.43055">
        <ele>616.6</ele>
        <time>2019-04-15T12:36:58Z</time>
      </trkpt>
      <trkpt lat="44.18021" lon="5.4308">
        <ele>615.4</ele>
        <time>2019-04-15T12:37:02Z</time>
      </trkpt>
      <trkpt lat="44.17999" lon="5.43108">
        <ele>615.4</ele>
        <time>2019-04-15T12:37:06Z</time>
      </trkpt>
      <trkpt lat="44.17973" lon="5.43129">
        <ele>614.6</ele>
        <time>2019-04-15T12:37:10Z</time>
      </trkpt>
      <trkpt lat="44.17941" lon="5.4314">
        <ele>614.4</ele>
        <time>2019-04-15T12:37:14Z</time>
      </trkpt>
      <trkpt lat="44.1791" lon="5.43146">
        <ele>613.8</ele>
        <time>2019-04-15T12:37:18Z</time>
      </trkpt>
      <trkpt lat="44.17879" lon="5.43147">
        <ele>613.8</ele>
        <time>2019-04-15T12:37:22Z</time>
      </trkpt>
      <trkpt lat="44.1785" lon="5.43152">
        <ele>613.4</ele>
        <time>2019-04-15T12:37:26Z</time>
      </trkpt>
      <trkpt lat="44.17821" lon="5.43167">
        <ele>612.2</ele>
        <time>2019-04-15T12:37:30Z</time>
      </trkpt>
      <trkpt lat="44.17794" lon="5.43188">
        <ele>610.8</ele>
        <time>2019-04-15T12:37:34Z</time>
      </trkpt>
      <trkpt lat="44.17768" lon="5.43208">
        <ele>610.4</ele>
        <time>2019-04-15T12:37:38Z</time>
      </trkpt>
      <trkpt lat="44.17741" lon="5.43229">
        <ele>610</ele>
        <time>2019-04-15T12:37:42Z</time>
      </trkpt>
      <trkpt lat="44.17716" lon="5.43252">
        <ele>609</ele>
        <time>2019-04-15T12:37:46Z</time>
      </trkpt>
      <trkpt lat="44.17692" lon="5.43275">
        <ele>608.4</ele>
        <time>2019-04-15T12:37:50Z</time>
      </trkpt>
      <trkpt lat="44.17666" lon="5.43298">
        <ele>608.2</ele>
        <time>2019-04-15T12:37:54Z</time>
      </trkpt>
      <trkpt lat="44.17641" lon="5.43321">
        <ele>608</ele>
        <time>2019-04-15T12:37:58Z</time>
      </trkpt>
      <trkpt lat="44.17618" lon="5.43347">
        <ele>607.4</ele>
        <time>2019-04-15T12:38:02Z</time>
      </trkpt>
      <trkpt lat="44.17597" lon="5.43376">
        <ele>607.6</ele>
        <time>2019-04-15T12:38:06Z</time>
      </trkpt>
      <trkpt lat="44.17578" lon="5.43404">
        <ele>607</ele>
        <time>2019-04-15T12:38:10Z</time>
      </trkpt>
      <trkpt lat="44.17558" lon="5.43433">
        <ele>607.4</ele>
        <time>2019-04-15T12:38:14Z</time>
      </trkpt>
      <trkpt lat="44.17539" lon="5.43462">
        <ele>606.6</ele>
        <time>2019-04-15T12:38:18Z</time>
      </trkpt>
      <trkpt lat="44.1752" lon="5.43491">
        <ele>606.2</ele>
        <time>2019-04-15T12:38:22Z</time>
      </trkpt>
      <trkpt lat="44.17501" lon="5.43518">
        <ele>606.2</ele>
        <time>2019-04-15T12:38:26Z</time>
      </trkpt>
      <trkpt lat="44.17484" lon="5.43544">
        <ele>607</ele>
        <time>2019-04-15T12:38:30Z</time>
      </trkpt>
      <trkpt lat="44.17467" lon="5.43568">
        <ele>607.4</ele>
        <time>2019-04-15T12:38:34Z</time>
      </trkpt>
      <trkpt lat="44.17451" lon="5.4359">
        <ele>610.8</ele>
        <time>2019-04-15T12:38:38Z</time>
      </trkpt>
      <trkpt lat="44.17438" lon="5.43613">
        <ele>609.4</ele>
        <time>2019-04-15T12:38:42Z</time>
      </trkpt>
      <trkpt lat="44.17424" lon="5.43631">
        <ele>611</ele>
        <time>2019-04-15T12:38:46Z</time>
      </trkpt>
      <trkpt lat="44.17416" lon="5.4364">
        <ele>611.6</ele>
        <time>2019-04-15T12:38:50Z</time>
      </trkpt>
      <trkpt lat="44.17416" lon="5.4364">
        <ele>611.6</ele>
        <time>2019-04-15T12:38:54Z</time>
      </trkpt>
      <trkpt lat="44.17416" lon="5.4364">
        <ele>611.6</ele>
        <time>2019-04-15T12:38:58Z</time>
      </trkpt>
      <trkpt lat="44.17416" lon="5.4364">
        <ele>611.6</ele>
        <time>2019-04-15T12:39:02Z</time>
      </trkpt>
      <trkpt lat="44.17415" lon="5.43642">
        <ele>611.4</ele>
        <time>2019-04-15T12:39:06Z</time>
      </trkpt>
      <trkpt lat="44.17415" lon="5.43653">
        <ele>611.2</ele>
        <time>2019-04-15T12:39:10Z</time>
      </trkpt>
      <trkpt lat="44.17422" lon="5.43671">
        <ele>611.2</ele>
        <time>2019-04-15T12:39:14Z</time>
      </trkpt>
      <trkpt lat="44.17425" lon="5.43696">
        <ele>612.2</ele>
        <time>2019-04-15T12:39:18Z</time>
      </trkpt>
      <trkpt lat="44.17429" lon="5.43723">
        <ele>611.8</ele>
        <time>2019-04-15T12:39:22Z</time>
      </trkpt>
      <trkpt lat="44.17432" lon="5.43751">
        <ele>612.6</ele>
        <time>2019-04-15T12:39:26Z</time>
      </trkpt>
      <trkpt lat="44.17434" lon="5.4378">
        <ele>614.2</ele>
        <time>2019-04-15T12:39:30Z</time>
      </trkpt>
      <trkpt lat="44.17437" lon="5.4381">
        <ele>615.2</ele>
        <time>2019-04-15T12:39:34Z</time>
      </trkpt>
      <trkpt lat="44.1744" lon="5.43839">
        <ele>614.2</ele>
        <time>2019-04-15T12:39:38Z</time>
      </trkpt>
      <trkpt lat="44.17443" lon="5.43867">
        <ele>615</ele>
        <time>2019-04-15T12:39:42Z</time>
      </trkpt>
      <trkpt lat="44.17445" lon="5.43895">
        <ele>615</ele>
        <time>2019-04-15T12:39:46Z</time>
      </trkpt>
      <trkpt lat="44.17449" lon="5.43923">
        <ele>615.8</ele>
        <time>2019-04-15T12:39:50Z</time>
      </trkpt>
      <trkpt lat="44.17452" lon="5.4395">
        <ele>616.6</ele>
        <time>2019-04-15T12:39:54Z</time>
      </trkpt>
      <trkpt lat="44.17454" lon="5.43977">
        <ele>617.4</ele>
        <time>2019-04-15T12:39:58Z</time>
      </trkpt>
      <trkpt lat="44.17457" lon="5.44004">
        <ele>618.2</ele>
        <time>2019-04-15T12:40:02Z</time>
      </trkpt>
      <trkpt lat="44.17459" lon="5.44031">
        <ele>618.8</ele>
        <time>2019-04-15T12:40:06Z</time>
      </trkpt>
      <trkpt lat="44.17462" lon="5.44057">
        <ele>619.6</ele>
        <time>2019-04-15T12:40:10Z</time>
      </trkpt>
      <trkpt lat="44.17465" lon="5.44082">
        <ele>620</ele>
        <time>2019-04-15T12:40:14Z</time>
      </trkpt>
      <trkpt lat="44.17466" lon="5.44108">
        <ele>621.6</ele>
        <time>2019-04-15T12:40:18Z</time>
      </trkpt>
      <trkpt lat="44.17469" lon="5.44135">
        <ele>621.8</ele>
        <time>2019-04-15T12:40:22Z</time>
      </trkpt>
      <trkpt lat="44.17472" lon="5.4416">
        <ele>622.6</ele>
        <time>2019-04-15T12:40:26Z</time>
      </trkpt>
      <trkpt lat="44.17485" lon="5.44169">
        <ele>623.8</ele>
        <time>2019-04-15T12:40:30Z</time>
      </trkpt>
      <trkpt lat="44.17485" lon="5.44169">
        <ele>623.8</ele>
        <time>2019-04-15T12:40:34Z</time>
      </trkpt>
      <trkpt lat="44.17485" lon="5.44169">
        <ele>623.8</ele>
        <time>2019-04-15T12:40:38Z</time>
      </trkpt>
      <trkpt lat="44.17494" lon="5.44169">
        <ele>624</ele>
        <time>2019-04-15T12:40:42Z</time>
      </trkpt>
      <trkpt lat="44.17494" lon="5.44169">
        <ele>624</ele>
        <time>2019-04-15T12:40:46Z</time>
      </trkpt>
      <trkpt lat="44.17494" lon="5.44169">
        <ele>624</ele>
        <time>2019-04-15T12:40:50Z</time>
      </trkpt>
      <trkpt lat="44.17494" lon="5.44169">
        <ele>624</ele>
        <time>2019-04-15T12:40:54Z</time>
      </trkpt>
      <trkpt lat="44.17494" lon="5.44169">
        <ele>624</ele>
        <time>2019-04-15T12:40:58Z</time>
      </trkpt>
      <trkpt lat="44.17494" lon="5.44169">
        <ele>624</ele>
        <time>2019-04-15T12:41:02Z</time>
      </trkpt>
      <trkpt lat="44.17494" lon="5.44169">
        <ele>624</ele>
        <time>2019-04-15T12:41:06Z</time>
      </trkpt>
      <trkpt lat="44.17494" lon="5.44169">
        <ele>624</ele>
        <time>2019-04-15T12:41:10Z</time>
      </trkpt>
      <trkpt lat="44.17494" lon="5.44169">
        <ele>624</ele>
        <time>2019-04-15T12:41:14Z</time>
      </trkpt>
      <trkpt lat="44.17494" lon="5.44169">
        <ele>624</ele>
        <time>2019-04-15T12:41:18Z</time>
      </trkpt>
      <trkpt lat="44.17494" lon="5.44169">
        <ele>624</ele>
        <time>2019-04-15T12:41:22Z</time>
      </trkpt>
      <trkpt lat="44.17494" lon="5.44169">
        <ele>624</ele>
        <time>2019-04-15T12:41:26Z</time>
      </trkpt>
      <trkpt lat="44.17494" lon="5.44169">
        <ele>624</ele>
        <time>2019-04-15T12:41:30Z</time>
      </trkpt>
      <trkpt lat="44.17494" lon="5.44169">
        <ele>624</ele>
        <time>2019-04-15T12:41:34Z</time>
      </trkpt>
      <trkpt lat="44.17494" lon="5.44169">
        <ele>624</ele>
        <time>2019-04-15T12:41:38Z</time>
      </trkpt>
      <trkpt lat="44.17494" lon="5.44169">
        <ele>624</ele>
        <time>2019-04-15T12:41:42Z</time>
      </trkpt>
      <trkpt lat="44.17494" lon="5.44169">
        <ele>624</ele>
        <time>2019-04-15T12:41:46Z</time>
      </trkpt>
      <trkpt lat="44.17494" lon="5.44169">
        <ele>624</ele>
        <time>2019-04-15T12:41:50Z</time>
      </trkpt>
      <trkpt lat="44.17494" lon="5.44169">
        <ele>624</ele>
        <time>2019-04-15T12:41:54Z</time>
      </trkpt>
      <trkpt lat="44.17494" lon="5.44169">
        <ele>624</ele>
        <time>2019-04-15T12:41:58Z</time>
      </trkpt>
      <trkpt lat="44.17494" lon="5.44169">
        <ele>624</ele>
        <time>2019-04-15T12:42:02Z</time>
      </trkpt>
      <trkpt lat="44.17494" lon="5.44169">
        <ele>624</ele>
        <time>2019-04-15T12:42:06Z</time>
      </trkpt>
      <trkpt lat="44.17494" lon="5.44169">
        <ele>624</ele>
        <time>2019-04-15T12:42:10Z</time>
      </trkpt>
      <trkpt lat="44.17494" lon="5.44169">
        <ele>624</ele>
        <time>2019-04-15T12:42:14Z</time>
      </trkpt>
      <trkpt lat="44.17494" lon="5.44169">
        <ele>624</ele>
        <time>2019-04-15T12:42:18Z</time>
      </trkpt>
      <trkpt lat="44.17494" lon="5.44169">
        <ele>624</ele>
        <time>2019-04-15T12:42:22Z</time>
      </trkpt>
      <trkpt lat="44.17494" lon="5.44169">
        <ele>624</ele>
        <time>2019-04-15T12:42:26Z</time>
      </trkpt>
      <trkpt lat="44.17494" lon="5.44169">
        <ele>624</ele>
        <time>2019-04-15T12:42:30Z</time>
      </trkpt>
      <trkpt lat="44.17494" lon="5.44169">
        <ele>624</ele>
        <time>2019-04-15T12:42:34Z</time>
      </trkpt>
      <trkpt lat="44.17494" lon="5.44169">
        <ele>624</ele>
        <time>2019-04-15T12:42:38Z</time>
      </trkpt>
      <trkpt lat="44.17494" lon="5.44169">
        <ele>624</ele>
        <time>2019-04-15T12:42:42Z</time>
      </trkpt>
      <trkpt lat="44.17494" lon="5.44169">
        <ele>624</ele>
        <time>2019-04-15T12:42:46Z</time>
      </trkpt>
      <trkpt lat="44.17494" lon="5.44169">
        <ele>624</ele>
        <time>2019-04-15T12:42:50Z</time>
      </trkpt>
      <trkpt lat="44.17494" lon="5.44169">
        <ele>624</ele>
        <time>2019-04-15T12:42:54Z</time>
      </trkpt>
      <trkpt lat="44.17494" lon="5.44169">
        <ele>624</ele>
        <time>2019-04-15T12:42:58Z</time>
      </trkpt>
      <trkpt lat="44.17494" lon="5.44169">
        <ele>624</ele>
        <time>2019-04-15T12:43:02Z</time>
      </trkpt>
      <trkpt lat="44.17494" lon="5.44169">
        <ele>624</ele>
        <time>2019-04-15T12:43:06Z</time>
      </trkpt>
      <trkpt lat="44.17494" lon="5.44169">
        <ele>624</ele>
        <time>2019-04-15T12:43:10Z</time>
      </trkpt>
      <trkpt lat="44.17494" lon="5.44169">
        <ele>624</ele>
        <time>2019-04-15T12:43:14Z</time>
      </trkpt>
      <trkpt lat="44.17494" lon="5.44169">
        <ele>624</ele>
        <time>2019-04-15T12:43:18Z</time>
      </trkpt>
      <trkpt lat="44.17494" lon="5.44169">
        <ele>624</ele>
        <time>2019-04-15T12:43:22Z</time>
      </trkpt>
      <trkpt lat="44.17494" lon="5.44169">
        <ele>624</ele>
        <time>2019-04-15T12:43:26Z</time>
      </trkpt>
      <trkpt lat="44.17494" lon="5.44169">
        <ele>624</ele>
        <time>2019-04-15T12:43:30Z</time>
      </trkpt>
      <trkpt lat="44.17494" lon="5.44169">
        <ele>624</ele>
        <time>2019-04-15T12:43:34Z</time>
      </trkpt>
      <trkpt lat="44.17494" lon="5.44169">
        <ele>624</ele>
        <time>2019-04-15T12:43:38Z</time>
      </trkpt>
      <trkpt lat="44.17494" lon="5.44169">
        <ele>624</ele>
        <time>2019-04-15T12:43:42Z</time>
      </trkpt>
      <trkpt lat="44.17494" lon="5.44169">
        <ele>624</ele>
        <time>2019-04-15T12:43:46Z</time>
      </trkpt>
      <trkpt lat="44.17494" lon="5.44169">
        <ele>624</ele>
        <time>2019-04-15T12:43:50Z</time>
      </trkpt>
      <trkpt lat="44.17494" lon="5.44169">
        <ele>624</ele>
        <time>2019-04-15T12:43:54Z</time>
      </trkpt>
      <trkpt lat="44.17494" lon="5.44169">
        <ele>624</ele>
        <time>2019-04-15T12:43:58Z</time>
      </trkpt>
      <trkpt lat="44.17494" lon="5.44169">
        <ele>624</ele>
        <time>2019-04-15T12:44:02Z</time>
      </trkpt>
      <trkpt lat="44.17494" lon="5.44169">
        <ele>624</ele>
        <time>2019-04-15T12:44:06Z</time>
      </trkpt>
      <trkpt lat="44.17494" lon="5.44169">
        <ele>624</ele>
        <time>2019-04-15T12:44:10Z</time>
      </trkpt>
      <trkpt lat="44.17494" lon="5.44169">
        <ele>624</ele>
        <time>2019-04-15T12:44:14Z</time>
      </trkpt>
      <trkpt lat="44.17494" lon="5.44169">
        <ele>624</ele>
        <time>2019-04-15T12:44:18Z</time>
      </trkpt>
      <trkpt lat="44.17494" lon="5.44169">
        <ele>624</ele>
        <time>2019-04-15T12:44:22Z</time>
      </trkpt>
      <trkpt lat="44.17494" lon="5.44169">
        <ele>624</ele>
        <time>2019-04-15T12:44:26Z</time>
      </trkpt>
      <trkpt lat="44.17494" lon="5.44169">
        <ele>624</ele>
        <time>2019-04-15T12:44:30Z</time>
      </trkpt>
      <trkpt lat="44.17494" lon="5.44169">
        <ele>624</ele>
        <time>2019-04-15T12:44:34Z</time>
      </trkpt>
      <trkpt lat="44.17494" lon="5.44169">
        <ele>624</ele>
        <time>2019-04-15T12:44:38Z</time>
      </trkpt>
      <trkpt lat="44.17494" lon="5.44169">
        <ele>624</ele>
        <time>2019-04-15T12:44:42Z</time>
      </trkpt>
      <trkpt lat="44.17494" lon="5.44169">
        <ele>624</ele>
        <time>2019-04-15T12:44:46Z</time>
      </trkpt>
      <trkpt lat="44.17494" lon="5.44169">
        <ele>624</ele>
        <time>2019-04-15T12:44:50Z</time>
      </trkpt>
      <trkpt lat="44.17494" lon="5.44169">
        <ele>624</ele>
        <time>2019-04-15T12:44:54Z</time>
      </trkpt>
      <trkpt lat="44.17494" lon="5.44169">
        <ele>624</ele>
        <time>2019-04-15T12:44:58Z</time>
      </trkpt>
      <trkpt lat="44.17494" lon="5.44169">
        <ele>624</ele>
        <time>2019-04-15T12:45:02Z</time>
      </trkpt>
      <trkpt lat="44.17494" lon="5.44169">
        <ele>624</ele>
        <time>2019-04-15T12:45:06Z</time>
      </trkpt>
      <trkpt lat="44.17494" lon="5.44169">
        <ele>624</ele>
        <time>2019-04-15T12:45:10Z</time>
      </trkpt>
      <trkpt lat="44.17494" lon="5.44169">
        <ele>624</ele>
        <time>2019-04-15T12:45:14Z</time>
      </trkpt>
      <trkpt lat="44.17494" lon="5.44169">
        <ele>624</ele>
        <time>2019-04-15T12:45:18Z</time>
      </trkpt>
      <trkpt lat="44.17494" lon="5.44169">
        <ele>624</ele>
        <time>2019-04-15T12:45:22Z</time>
      </trkpt>
      <trkpt lat="44.17494" lon="5.44169">
        <ele>624</ele>
        <time>2019-04-15T12:45:26Z</time>
      </trkpt>
      <trkpt lat="44.17494" lon="5.44169">
        <ele>624</ele>
        <time>2019-04-15T12:45:30Z</time>
      </trkpt>
      <trkpt lat="44.17494" lon="5.44169">
        <ele>624</ele>
        <time>2019-04-15T12:45:34Z</time>
      </trkpt>
      <trkpt lat="44.17494" lon="5.44169">
        <ele>624</ele>
        <time>2019-04-15T12:45:38Z</time>
      </trkpt>
      <trkpt lat="44.17494" lon="5.44169">
        <ele>624</ele>
        <time>2019-04-15T12:45:42Z</time>
      </trkpt>
      <trkpt lat="44.17494" lon="5.44169">
        <ele>624</ele>
        <time>2019-04-15T12:45:46Z</time>
      </trkpt>
      <trkpt lat="44.17494" lon="5.44169">
        <ele>624</ele>
        <time>2019-04-15T12:45:50Z</time>
      </trkpt>
      <trkpt lat="44.17494" lon="5.44169">
        <ele>624</ele>
        <time>2019-04-15T12:45:54Z</time>
      </trkpt>
      <trkpt lat="44.17494" lon="5.44169">
        <ele>624</ele>
        <time>2019-04-15T12:45:58Z</time>
      </trkpt>
      <trkpt lat="44.17494" lon="5.44169">
        <ele>624</ele>
        <time>2019-04-15T12:46:02Z</time>
      </trkpt>
      <trkpt lat="44.17494" lon="5.44169">
        <ele>624</ele>
        <time>2019-04-15T12:46:06Z</time>
      </trkpt>
      <trkpt lat="44.17494" lon="5.44169">
        <ele>624</ele>
        <time>2019-04-15T12:46:10Z</time>
      </trkpt>
      <trkpt lat="44.17494" lon="5.44169">
        <ele>624</ele>
        <time>2019-04-15T12:46:14Z</time>
      </trkpt>
      <trkpt lat="44.17494" lon="5.44169">
        <ele>624</ele>
        <time>2019-04-15T12:46:18Z</time>
      </trkpt>
      <trkpt lat="44.17494" lon="5.44169">
        <ele>624</ele>
        <time>2019-04-15T12:46:22Z</time>
      </trkpt>
      <trkpt lat="44.17494" lon="5.44169">
        <ele>624</ele>
        <time>2019-04-15T12:46:26Z</time>
      </trkpt>
      <trkpt lat="44.17494" lon="5.44169">
        <ele>624</ele>
        <time>2019-04-15T12:46:30Z</time>
      </trkpt>
      <trkpt lat="44.17494" lon="5.44169">
        <ele>624</ele>
        <time>2019-04-15T12:46:34Z</time>
      </trkpt>
      <trkpt lat="44.17494" lon="5.44169">
        <ele>624</ele>
        <time>2019-04-15T12:46:38Z</time>
      </trkpt>
      <trkpt lat="44.17494" lon="5.44169">
        <ele>624</ele>
        <time>2019-04-15T12:46:42Z</time>
      </trkpt>
      <trkpt lat="44.17494" lon="5.44169">
        <ele>624</ele>
        <time>2019-04-15T12:46:46Z</time>
      </trkpt>
      <trkpt lat="44.17494" lon="5.44169">
        <ele>624</ele>
        <time>2019-04-15T12:46:50Z</time>
      </trkpt>
      <trkpt lat="44.17493" lon="5.44166">
        <ele>623.4</ele>
        <time>2019-04-15T12:46:54Z</time>
      </trkpt>
      <trkpt lat="44.17497" lon="5.44165">
        <ele>623.6</ele>
        <time>2019-04-15T12:46:58Z</time>
      </trkpt>
      <trkpt lat="44.17503" lon="5.44161">
        <ele>624</ele>
        <time>2019-04-15T12:47:02Z</time>
      </trkpt>
      <trkpt lat="44.17512" lon="5.44163">
        <ele>625.2</ele>
        <time>2019-04-15T12:47:06Z</time>
      </trkpt>
      <trkpt lat="44.17521" lon="5.4417">
        <ele>625.8</ele>
        <time>2019-04-15T12:47:10Z</time>
      </trkpt>
      <trkpt lat="44.17527" lon="5.44183">
        <ele>626.8</ele>
        <time>2019-04-15T12:47:14Z</time>
      </trkpt>
      <trkpt lat="44.17531" lon="5.442">
        <ele>627.2</ele>
        <time>2019-04-15T12:47:18Z</time>
      </trkpt>
      <trkpt lat="44.17535" lon="5.44222">
        <ele>627.8</ele>
        <time>2019-04-15T12:47:22Z</time>
      </trkpt>
      <trkpt lat="44.17538" lon="5.44243">
        <ele>628.4</ele>
        <time>2019-04-15T12:47:26Z</time>
      </trkpt>
      <trkpt lat="44.17541" lon="5.44263">
        <ele>628.8</ele>
        <time>2019-04-15T12:47:30Z</time>
      </trkpt>
      <trkpt lat="44.17543" lon="5.44282">
        <ele>628.8</ele>
        <time>2019-04-15T12:47:34Z</time>
      </trkpt>
      <trkpt lat="44.17545" lon="5.44301">
        <ele>629.8</ele>
        <time>2019-04-15T12:47:38Z</time>
      </trkpt>
      <trkpt lat="44.17548" lon="5.44319">
        <ele>629.6</ele>
        <time>2019-04-15T12:47:42Z</time>
      </trkpt>
      <trkpt lat="44.1755" lon="5.4434">
        <ele>630</ele>
        <time>2019-04-15T12:47:46Z</time>
      </trkpt>
      <trkpt lat="44.17553" lon="5.44362">
        <ele>630.4</ele>
        <time>2019-04-15T12:47:50Z</time>
      </trkpt>
      <trkpt lat="44.17558" lon="5.44383">
        <ele>630.4</ele>
        <time>2019-04-15T12:47:54Z</time>
      </trkpt>
      <trkpt lat="44.17562" lon="5.44405">
        <ele>630.2</ele>
        <time>2019-04-15T12:47:58Z</time>
      </trkpt>
      <trkpt lat="44.17564" lon="5.44427">
        <ele>630.6</ele>
        <time>2019-04-15T12:48:02Z</time>
      </trkpt>
    </trkseg>
  </trk>
</gpx>